<?xml version='1.0' encoding='UTF-8'?><gpx version="1.1" creator="JPX - https://github.com/jenetics/jpx" xmlns="http://www.topografix.com/GPX/1/1"><trk><trkseg><trkpt lat="45.87356" lon="12.9997583"><ele>12.0</ele><time>2026-03-28T09:02:09.154Z</time></trkpt><trkpt lat="45.8736793" lon="12.9994285"><ele>12.0</ele><time>2026-03-28T09:12:12.332Z</time></trkpt><trkpt lat="45.873435" lon="12.9997533"><ele>12.0</ele><time>2026-03-28T09:12:18.391Z</time></trkpt><trkpt lat="45.8736083" lon="12.9994533"><ele>12.0</ele><time>2026-03-28T09:12:24.16Z</time></trkpt><trkpt lat="45.8734867" lon="12.999605"><ele>12.0</ele><time>2026-03-28T09:12:35.157Z</time></trkpt><trkpt lat="45.873495" lon="12.9994967"><ele>12.0</ele><time>2026-03-28T09:13:14.158Z</time></trkpt><trkpt lat="45.873445" lon="12.9994117"><ele>12.0</ele><time>2026-03-28T09:13:19.157Z</time></trkpt><trkpt lat="45.8733833" lon="12.9993917"><ele>12.0</ele><time>2026-03-28T09:13:22.157Z</time></trkpt><trkpt lat="45.8733217" lon="12.9994417"><ele>12.0</ele><time>2026-03-28T09:13:26.158Z</time></trkpt><trkpt lat="45.8732533" lon="12.999465"><ele>12.0</ele><time>2026-03-28T09:13:36.157Z</time></trkpt><trkpt lat="45.87315" lon="12.9993767"><ele>12.0</ele><time>2026-03-28T09:13:38.157Z</time></trkpt><trkpt lat="45.873065" lon="12.99928"><ele>12.0</ele><time>2026-03-28T09:13:39.157Z</time></trkpt><trkpt lat="45.8729683" lon="12.9991683"><ele>12.0</ele><time>2026-03-28T09:13:40.158Z</time></trkpt><trkpt lat="45.8728783" lon="12.99907"><ele>12.0</ele><time>2026-03-28T09:13:41.157Z</time></trkpt><trkpt lat="45.8727983" lon="12.998975"><ele>12.0</ele><time>2026-03-28T09:13:42.157Z</time></trkpt><trkpt lat="45.8727217" lon="12.9988833"><ele>12.0</ele><time>2026-03-28T09:13:43.158Z</time></trkpt><trkpt lat="45.8726417" lon="12.9987883"><ele>12.0</ele><time>2026-03-28T09:13:44.157Z</time></trkpt><trkpt lat="45.8725683" lon="12.9987033"><ele>12.0</ele><time>2026-03-28T09:13:45.157Z</time></trkpt><trkpt lat="45.8724917" lon="12.9986183"><ele>12.0</ele><time>2026-03-28T09:13:46.157Z</time></trkpt><trkpt lat="45.872405" lon="12.9985183"><ele>12.0</ele><time>2026-03-28T09:13:47.158Z</time></trkpt><trkpt lat="45.8723217" lon="12.99842"><ele>12.0</ele><time>2026-03-28T09:13:48.157Z</time></trkpt><trkpt lat="45.87226" lon="12.9983383"><ele>12.0</ele><time>2026-03-28T09:13:49.157Z</time></trkpt><trkpt lat="45.8722083" lon="12.9982717"><ele>12.0</ele><time>2026-03-28T09:13:50.158Z</time></trkpt><trkpt lat="45.8721433" lon="12.9981917"><ele>12.0</ele><time>2026-03-28T09:13:52.157Z</time></trkpt><trkpt lat="45.87205" lon="12.9981083"><ele>12.0</ele><time>2026-03-28T09:14:21.158Z</time></trkpt><trkpt lat="45.8719917" lon="12.99804"><ele>12.0</ele><time>2026-03-28T09:14:22.157Z</time></trkpt><trkpt lat="45.8718817" lon="12.9979017"><ele>12.0</ele><time>2026-03-28T09:14:23.157Z</time></trkpt><trkpt lat="45.8717317" lon="12.9977167"><ele>12.0</ele><time>2026-03-28T09:14:24.157Z</time></trkpt><trkpt lat="45.8715683" lon="12.9975267"><ele>12.0</ele><time>2026-03-28T09:14:25.157Z</time></trkpt><trkpt lat="45.871425" lon="12.9973567"><ele>12.0</ele><time>2026-03-28T09:14:26.157Z</time></trkpt><trkpt lat="45.871305" lon="12.9972017"><ele>12.0</ele><time>2026-03-28T09:14:27.157Z</time></trkpt><trkpt lat="45.871205" lon="12.99707"><ele>12.0</ele><time>2026-03-28T09:14:28.157Z</time></trkpt><trkpt lat="45.8711183" lon="12.99697"><ele>12.0</ele><time>2026-03-28T09:14:29.158Z</time></trkpt><trkpt lat="45.87106" lon="12.9969"><ele>12.0</ele><time>2026-03-28T09:14:30.157Z</time></trkpt><trkpt lat="45.8710233" lon="12.996795"><ele>12.0</ele><time>2026-03-28T09:14:33.157Z</time></trkpt><trkpt lat="45.8710133" lon="12.9969333"><ele>12.0</ele><time>2026-03-28T09:14:58.157Z</time></trkpt><trkpt lat="45.871095" lon="12.9970383"><ele>12.0</ele><time>2026-03-28T09:14:59.158Z</time></trkpt><trkpt lat="45.8712" lon="12.9971633"><ele>12.0</ele><time>2026-03-28T09:15:00.157Z</time></trkpt><trkpt lat="45.8713" lon="12.9972867"><ele>12.0</ele><time>2026-03-28T09:15:01.158Z</time></trkpt><trkpt lat="45.871405" lon="12.9974067"><ele>12.0</ele><time>2026-03-28T09:15:02.157Z</time></trkpt><trkpt lat="45.8715083" lon="12.99753"><ele>12.0</ele><time>2026-03-28T09:15:03.157Z</time></trkpt><trkpt lat="45.8716117" lon="12.997645"><ele>12.0</ele><time>2026-03-28T09:15:04.157Z</time></trkpt><trkpt lat="45.871715" lon="12.99776"><ele>12.0</ele><time>2026-03-28T09:15:05.157Z</time></trkpt><trkpt lat="45.8718133" lon="12.99788"><ele>12.0</ele><time>2026-03-28T09:15:06.157Z</time></trkpt><trkpt lat="45.8719133" lon="12.998"><ele>12.0</ele><time>2026-03-28T09:15:07.157Z</time></trkpt><trkpt lat="45.8720117" lon="12.9981133"><ele>12.0</ele><time>2026-03-28T09:15:08.158Z</time></trkpt><trkpt lat="45.87211" lon="12.9982317"><ele>12.0</ele><time>2026-03-28T09:15:09.158Z</time></trkpt><trkpt lat="45.872205" lon="12.998335"><ele>12.0</ele><time>2026-03-28T09:15:10.158Z</time></trkpt><trkpt lat="45.87229" lon="12.9984283"><ele>12.0</ele><time>2026-03-28T09:15:11.157Z</time></trkpt><trkpt lat="45.8723467" lon="12.998495"><ele>12.0</ele><time>2026-03-28T09:15:12.157Z</time></trkpt><trkpt lat="45.87241" lon="12.998565"><ele>12.0</ele><time>2026-03-28T09:15:14.157Z</time></trkpt><trkpt lat="45.8724783" lon="12.9985933"><ele>12.0</ele><time>2026-03-28T09:15:18.158Z</time></trkpt><trkpt lat="45.8725533" lon="12.9985717"><ele>12.0</ele><time>2026-03-28T09:15:22.157Z</time></trkpt><trkpt lat="45.8726417" lon="12.9985067"><ele>12.0</ele><time>2026-03-28T09:15:33.157Z</time></trkpt><trkpt lat="45.8727417" lon="12.998395"><ele>12.0</ele><time>2026-03-28T09:15:35.157Z</time></trkpt><trkpt lat="45.8728017" lon="12.9983233"><ele>12.0</ele><time>2026-03-28T09:15:36.157Z</time></trkpt><trkpt lat="45.87286" lon="12.9982433"><ele>12.0</ele><time>2026-03-28T09:15:37.157Z</time></trkpt><trkpt lat="45.87292" lon="12.9981733"><ele>12.0</ele><time>2026-03-28T09:15:38.157Z</time></trkpt><trkpt lat="45.87304" lon="12.99805"><ele>12.0</ele><time>2026-03-28T09:15:40.157Z</time></trkpt><trkpt lat="45.8731317" lon="12.9979417"><ele>12.0</ele><time>2026-03-28T09:15:42.157Z</time></trkpt><trkpt lat="45.8731917" lon="12.9978133"><ele>12.0</ele><time>2026-03-28T09:15:44.157Z</time></trkpt><trkpt lat="45.8732033" lon="12.997655"><ele>12.0</ele><time>2026-03-28T09:15:46.158Z</time></trkpt><trkpt lat="45.8731967" lon="12.9975633"><ele>12.0</ele><time>2026-03-28T09:15:47.157Z</time></trkpt><trkpt lat="45.8731817" lon="12.9974667"><ele>12.0</ele><time>2026-03-28T09:15:48.158Z</time></trkpt><trkpt lat="45.8731667" lon="12.9973583"><ele>12.0</ele><time>2026-03-28T09:15:49.157Z</time></trkpt><trkpt lat="45.873155" lon="12.997235"><ele>12.0</ele><time>2026-03-28T09:15:50.157Z</time></trkpt><trkpt lat="45.8731417" lon="12.9970983"><ele>12.0</ele><time>2026-03-28T09:15:51.157Z</time></trkpt><trkpt lat="45.8731283" lon="12.9969533"><ele>12.0</ele><time>2026-03-28T09:15:52.158Z</time></trkpt><trkpt lat="45.8731067" lon="12.9968033"><ele>12.0</ele><time>2026-03-28T09:15:53.157Z</time></trkpt><trkpt lat="45.8730883" lon="12.9966667"><ele>12.0</ele><time>2026-03-28T09:15:54.157Z</time></trkpt><trkpt lat="45.8730683" lon="12.99655"><ele>12.0</ele><time>2026-03-28T09:15:55.157Z</time></trkpt><trkpt lat="45.87305" lon="12.996435"><ele>12.0</ele><time>2026-03-28T09:15:56.158Z</time></trkpt><trkpt lat="45.873035" lon="12.9963017"><ele>12.0</ele><time>2026-03-28T09:15:57.158Z</time></trkpt><trkpt lat="45.8730183" lon="12.99615"><ele>12.0</ele><time>2026-03-28T09:15:58.157Z</time></trkpt><trkpt lat="45.8729967" lon="12.9959683"><ele>12.0</ele><time>2026-03-28T09:15:59.157Z</time></trkpt><trkpt lat="45.8729717" lon="12.995735"><ele>12.0</ele><time>2026-03-28T09:16:00.157Z</time></trkpt><trkpt lat="45.8729383" lon="12.9954517"><ele>12.0</ele><time>2026-03-28T09:16:01.157Z</time></trkpt><trkpt lat="45.8729" lon="12.9951617"><ele>12.0</ele><time>2026-03-28T09:16:02.157Z</time></trkpt><trkpt lat="45.87287" lon="12.9948833"><ele>12.0</ele><time>2026-03-28T09:16:03.157Z</time></trkpt><trkpt lat="45.8728383" lon="12.994605"><ele>12.0</ele><time>2026-03-28T09:16:04.157Z</time></trkpt><trkpt lat="45.8728017" lon="12.9943233"><ele>12.0</ele><time>2026-03-28T09:16:05.157Z</time></trkpt><trkpt lat="45.8727683" lon="12.99404"><ele>12.0</ele><time>2026-03-28T09:16:06.157Z</time></trkpt><trkpt lat="45.8727383" lon="12.9937733"><ele>12.0</ele><time>2026-03-28T09:16:07.158Z</time></trkpt><trkpt lat="45.87271" lon="12.9935283"><ele>12.0</ele><time>2026-03-28T09:16:08.157Z</time></trkpt><trkpt lat="45.8726833" lon="12.9933"><ele>12.0</ele><time>2026-03-28T09:16:09.158Z</time></trkpt><trkpt lat="45.87266" lon="12.9930883"><ele>12.0</ele><time>2026-03-28T09:16:10.157Z</time></trkpt><trkpt lat="45.8726367" lon="12.992895"><ele>12.0</ele><time>2026-03-28T09:16:11.157Z</time></trkpt><trkpt lat="45.872615" lon="12.9927283"><ele>12.0</ele><time>2026-03-28T09:16:12.158Z</time></trkpt><trkpt lat="45.8726033" lon="12.99258"><ele>12.0</ele><time>2026-03-28T09:16:13.156Z</time></trkpt><trkpt lat="45.8726033" lon="12.99245"><ele>12.0</ele><time>2026-03-28T09:16:14.157Z</time></trkpt><trkpt lat="45.8726233" lon="12.9923267"><ele>12.0</ele><time>2026-03-28T09:16:15.157Z</time></trkpt><trkpt lat="45.8726617" lon="12.992205"><ele>12.0</ele><time>2026-03-28T09:16:16.157Z</time></trkpt><trkpt lat="45.8727145" lon="12.992088"><ele>12.0</ele><time>2026-03-28T09:16:17.156Z</time></trkpt><trkpt lat="45.8727877" lon="12.9919849"><ele>12.0</ele><time>2026-03-28T09:16:18.156Z</time></trkpt><trkpt lat="45.8728888" lon="12.9918788"><ele>12.0</ele><time>2026-03-28T09:16:19.156Z</time></trkpt><trkpt lat="45.873006" lon="12.9917658"><ele>12.0</ele><time>2026-03-28T09:16:20.156Z</time></trkpt><trkpt lat="45.8731185" lon="12.9916585"><ele>12.0</ele><time>2026-03-28T09:16:21.157Z</time></trkpt><trkpt lat="45.8732186" lon="12.9915643"><ele>12.2</ele><time>2026-03-28T09:16:22.156Z</time></trkpt><trkpt lat="45.8733076" lon="12.9914828"><ele>12.399999999999999</ele><time>2026-03-28T09:16:23.156Z</time></trkpt><trkpt lat="45.8733821" lon="12.9914093"><ele>12.600000000000001</ele><time>2026-03-28T09:16:24.157Z</time></trkpt><trkpt lat="45.8734479" lon="12.9913518"><ele>12.8</ele><time>2026-03-28T09:16:25.156Z</time></trkpt><trkpt lat="45.8735331" lon="12.9912822"><ele>13.0</ele><time>2026-03-28T09:16:27.156Z</time></trkpt><trkpt lat="45.8735319" lon="12.9911539"><ele>13.0</ele><time>2026-03-28T09:16:30.156Z</time></trkpt><trkpt lat="45.8735022" lon="12.9910646"><ele>13.0</ele><time>2026-03-28T09:16:31.156Z</time></trkpt><trkpt lat="45.8734582" lon="12.9909339"><ele>13.0</ele><time>2026-03-28T09:16:32.156Z</time></trkpt><trkpt lat="45.8734018" lon="12.9907816"><ele>13.0</ele><time>2026-03-28T09:16:33.156Z</time></trkpt><trkpt lat="45.8733538" lon="12.9906389"><ele>13.0</ele><time>2026-03-28T09:16:34.156Z</time></trkpt><trkpt lat="45.8733182" lon="12.9905273"><ele>13.0</ele><time>2026-03-28T09:16:35.157Z</time></trkpt><trkpt lat="45.8732921" lon="12.9903823"><ele>13.0</ele><time>2026-03-28T09:16:37.157Z</time></trkpt><trkpt lat="45.8733455" lon="12.9902868"><ele>13.0</ele><time>2026-03-28T09:16:39.156Z</time></trkpt><trkpt lat="45.8733971" lon="12.9902305"><ele>13.0</ele><time>2026-03-28T09:16:40.156Z</time></trkpt><trkpt lat="45.8734701" lon="12.9901508"><ele>13.0</ele><time>2026-03-28T09:16:41.156Z</time></trkpt><trkpt lat="45.8735756" lon="12.9900377"><ele>13.0</ele><time>2026-03-28T09:16:42.156Z</time></trkpt><trkpt lat="45.873707" lon="12.9898999"><ele>13.0</ele><time>2026-03-28T09:16:43.156Z</time></trkpt><trkpt lat="45.8738456" lon="12.9897563"><ele>13.0</ele><time>2026-03-28T09:16:44.156Z</time></trkpt><trkpt lat="45.8739708" lon="12.9896206"><ele>13.0</ele><time>2026-03-28T09:16:45.157Z</time></trkpt><trkpt lat="45.874087" lon="12.9895003"><ele>13.0</ele><time>2026-03-28T09:16:46.156Z</time></trkpt><trkpt lat="45.874185" lon="12.9893967"><ele>13.0</ele><time>2026-03-28T09:16:47.157Z</time></trkpt><trkpt lat="45.8742683" lon="12.9893117"><ele>13.0</ele><time>2026-03-28T09:16:48.156Z</time></trkpt><trkpt lat="45.874335" lon="12.98924"><ele>12.999999999999998</ele><time>2026-03-28T09:16:49.156Z</time></trkpt><trkpt lat="45.8743817" lon="12.9891667"><ele>13.0</ele><time>2026-03-28T09:16:50.157Z</time></trkpt><trkpt lat="45.8744167" lon="12.9890783"><ele>13.0</ele><time>2026-03-28T09:16:51.156Z</time></trkpt><trkpt lat="45.8744333" lon="12.988975"><ele>13.0</ele><time>2026-03-28T09:16:52.156Z</time></trkpt><trkpt lat="45.8744517" lon="12.9888517"><ele>12.999999999999998</ele><time>2026-03-28T09:16:53.156Z</time></trkpt><trkpt lat="45.874465" lon="12.9887133"><ele>13.0</ele><time>2026-03-28T09:16:54.156Z</time></trkpt><trkpt lat="45.874475" lon="12.9885717"><ele>12.999999999999998</ele><time>2026-03-28T09:16:55.156Z</time></trkpt><trkpt lat="45.874485" lon="12.9884383"><ele>13.0</ele><time>2026-03-28T09:16:56.157Z</time></trkpt><trkpt lat="45.874495" lon="12.9883133"><ele>13.0</ele><time>2026-03-28T09:16:57.156Z</time></trkpt><trkpt lat="45.8745017" lon="12.9881917"><ele>13.0</ele><time>2026-03-28T09:16:58.156Z</time></trkpt><trkpt lat="45.8745067" lon="12.98809"><ele>12.999999999999998</ele><time>2026-03-28T09:16:59.156Z</time></trkpt><trkpt lat="45.8745217" lon="12.9879533"><ele>13.0</ele><time>2026-03-28T09:17:01.156Z</time></trkpt><trkpt lat="45.8745783" lon="12.9878583"><ele>13.0</ele><time>2026-03-28T09:17:04.156Z</time></trkpt><trkpt lat="45.8747267" lon="12.9879"><ele>13.0</ele><time>2026-03-28T09:17:06.156Z</time></trkpt><trkpt lat="45.8748367" lon="12.98795"><ele>13.0</ele><time>2026-03-28T09:17:07.156Z</time></trkpt><trkpt lat="45.8749667" lon="12.9880067"><ele>13.0</ele><time>2026-03-28T09:17:08.156Z</time></trkpt><trkpt lat="45.8751033" lon="12.9880667"><ele>13.0</ele><time>2026-03-28T09:17:09.157Z</time></trkpt><trkpt lat="45.875245" lon="12.9881233"><ele>13.0</ele><time>2026-03-28T09:17:10.157Z</time></trkpt><trkpt lat="45.8753983" lon="12.9881817"><ele>13.0</ele><time>2026-03-28T09:17:11.156Z</time></trkpt><trkpt lat="45.8755483" lon="12.9882433"><ele>13.0</ele><time>2026-03-28T09:17:12.157Z</time></trkpt><trkpt lat="45.875705" lon="12.9883067"><ele>13.0</ele><time>2026-03-28T09:17:13.156Z</time></trkpt><trkpt lat="45.875855" lon="12.988365"><ele>13.0</ele><time>2026-03-28T09:17:14.157Z</time></trkpt><trkpt lat="45.8759817" lon="12.9884183"><ele>12.999999999999998</ele><time>2026-03-28T09:17:15.157Z</time></trkpt><trkpt lat="45.8760783" lon="12.9884583"><ele>13.0</ele><time>2026-03-28T09:17:16.156Z</time></trkpt><trkpt lat="45.8761533" lon="12.988485"><ele>13.0</ele><time>2026-03-28T09:17:17.156Z</time></trkpt><trkpt lat="45.8762517" lon="12.98851"><ele>13.0</ele><time>2026-03-28T09:17:19.156Z</time></trkpt><trkpt lat="45.8763117" lon="12.9884183"><ele>12.999999999999998</ele><time>2026-03-28T09:17:21.156Z</time></trkpt><trkpt lat="45.8763417" lon="12.98832"><ele>13.0</ele><time>2026-03-28T09:17:22.157Z</time></trkpt><trkpt lat="45.8763733" lon="12.9881867"><ele>13.0</ele><time>2026-03-28T09:17:23.156Z</time></trkpt><trkpt lat="45.8764117" lon="12.9880583"><ele>13.0</ele><time>2026-03-28T09:17:24.156Z</time></trkpt><trkpt lat="45.87646" lon="12.9879367"><ele>13.0</ele><time>2026-03-28T09:17:25.156Z</time></trkpt><trkpt lat="45.87651" lon="12.9878167"><ele>13.0</ele><time>2026-03-28T09:17:26.156Z</time></trkpt><trkpt lat="45.87658" lon="12.9877083"><ele>13.0</ele><time>2026-03-28T09:17:27.157Z</time></trkpt><trkpt lat="45.8766633" lon="12.9876"><ele>13.25</ele><time>2026-03-28T09:17:28.156Z</time></trkpt><trkpt lat="45.876755" lon="12.987505"><ele>13.5</ele><time>2026-03-28T09:17:29.156Z</time></trkpt><trkpt lat="45.87686" lon="12.9874233"><ele>13.75</ele><time>2026-03-28T09:17:30.156Z</time></trkpt><trkpt lat="45.876975" lon="12.9873483"><ele>14.0</ele><time>2026-03-28T09:17:31.156Z</time></trkpt><trkpt lat="45.877085" lon="12.987285"><ele>14.333333333333334</ele><time>2026-03-28T09:17:32.156Z</time></trkpt><trkpt lat="45.877185" lon="12.98723"><ele>14.666666666666668</ele><time>2026-03-28T09:17:33.156Z</time></trkpt><trkpt lat="45.8772667" lon="12.98719"><ele>15.0</ele><time>2026-03-28T09:17:34.156Z</time></trkpt><trkpt lat="45.8773417" lon="12.9871417"><ele>15.333333333333332</ele><time>2026-03-28T09:17:35.156Z</time></trkpt><trkpt lat="45.8774017" lon="12.987075"><ele>15.666666666666666</ele><time>2026-03-28T09:17:36.156Z</time></trkpt><trkpt lat="45.8774417" lon="12.9869867"><ele>16.0</ele><time>2026-03-28T09:17:37.157Z</time></trkpt><trkpt lat="45.877475" lon="12.9868783"><ele>16.0</ele><time>2026-03-28T09:17:38.156Z</time></trkpt><trkpt lat="45.8775117" lon="12.9867483"><ele>16.0</ele><time>2026-03-28T09:17:39.157Z</time></trkpt><trkpt lat="45.877555" lon="12.98661"><ele>16.0</ele><time>2026-03-28T09:17:40.156Z</time></trkpt><trkpt lat="45.877605" lon="12.9864783"><ele>16.0</ele><time>2026-03-28T09:17:41.157Z</time></trkpt><trkpt lat="45.8776567" lon="12.9863617"><ele>16.0</ele><time>2026-03-28T09:17:42.156Z</time></trkpt><trkpt lat="45.8777183" lon="12.98625"><ele>15.600000000000001</ele><time>2026-03-28T09:17:43.156Z</time></trkpt><trkpt lat="45.8777917" lon="12.986145"><ele>15.200000000000001</ele><time>2026-03-28T09:17:44.156Z</time></trkpt><trkpt lat="45.8778717" lon="12.9860517"><ele>14.799999999999999</ele><time>2026-03-28T09:17:45.156Z</time></trkpt><trkpt lat="45.8779583" lon="12.9859583"><ele>14.399999999999999</ele><time>2026-03-28T09:17:46.156Z</time></trkpt><trkpt lat="45.8780517" lon="12.98586"><ele>14.0</ele><time>2026-03-28T09:17:47.156Z</time></trkpt><trkpt lat="45.8781383" lon="12.9857583"><ele>14.0</ele><time>2026-03-28T09:17:48.156Z</time></trkpt><trkpt lat="45.87823" lon="12.9856633"><ele>14.0</ele><time>2026-03-28T09:17:49.157Z</time></trkpt><trkpt lat="45.8783283" lon="12.9855883"><ele>14.0</ele><time>2026-03-28T09:17:50.156Z</time></trkpt><trkpt lat="45.87843" lon="12.9855233"><ele>14.0</ele><time>2026-03-28T09:17:51.157Z</time></trkpt><trkpt lat="45.8785417" lon="12.9854583"><ele>14.0</ele><time>2026-03-28T09:17:52.157Z</time></trkpt><trkpt lat="45.87866" lon="12.9853883"><ele>14.0</ele><time>2026-03-28T09:17:53.156Z</time></trkpt><trkpt lat="45.878775" lon="12.9853267"><ele>14.0</ele><time>2026-03-28T09:17:54.157Z</time></trkpt><trkpt lat="45.8788767" lon="12.9852683"><ele>14.0</ele><time>2026-03-28T09:17:55.156Z</time></trkpt><trkpt lat="45.8789783" lon="12.9852133"><ele>14.0</ele><time>2026-03-28T09:17:56.156Z</time></trkpt><trkpt lat="45.8790783" lon="12.9851733"><ele>13.999999999999998</ele><time>2026-03-28T09:17:57.156Z</time></trkpt><trkpt lat="45.8791767" lon="12.9851417"><ele>13.999999999999998</ele><time>2026-03-28T09:17:58.156Z</time></trkpt><trkpt lat="45.8792633" lon="12.9851133"><ele>14.0</ele><time>2026-03-28T09:17:59.156Z</time></trkpt><trkpt lat="45.8793383" lon="12.9850933"><ele>14.0</ele><time>2026-03-28T09:18:00.156Z</time></trkpt><trkpt lat="45.8794272" lon="12.9850686"><ele>14.0</ele><time>2026-03-28T09:18:02.157Z</time></trkpt><trkpt lat="45.879525" lon="12.9850333"><ele>13.999999999999998</ele><time>2026-03-28T09:18:38.156Z</time></trkpt><trkpt lat="45.8795933" lon="12.9850233"><ele>13.999999999999998</ele><time>2026-03-28T09:18:39.156Z</time></trkpt><trkpt lat="45.8796833" lon="12.9850083"><ele>14.0</ele><time>2026-03-28T09:18:40.156Z</time></trkpt><trkpt lat="45.8797983" lon="12.98498"><ele>14.0</ele><time>2026-03-28T09:18:41.156Z</time></trkpt><trkpt lat="45.8799233" lon="12.9849317"><ele>14.0</ele><time>2026-03-28T09:18:42.157Z</time></trkpt><trkpt lat="45.8800517" lon="12.984875"><ele>14.0</ele><time>2026-03-28T09:18:43.157Z</time></trkpt><trkpt lat="45.8801733" lon="12.98482"><ele>14.0</ele><time>2026-03-28T09:18:44.156Z</time></trkpt><trkpt lat="45.8802933" lon="12.9847683"><ele>14.0</ele><time>2026-03-28T09:18:45.157Z</time></trkpt><trkpt lat="45.8804033" lon="12.9847233"><ele>13.833333333333334</ele><time>2026-03-28T09:18:46.156Z</time></trkpt><trkpt lat="45.8804983" lon="12.9846833"><ele>13.666666666666668</ele><time>2026-03-28T09:18:47.156Z</time></trkpt><trkpt lat="45.8805783" lon="12.9846333"><ele>13.5</ele><time>2026-03-28T09:18:48.156Z</time></trkpt><trkpt lat="45.88064" lon="12.9845717"><ele>13.333333333333332</ele><time>2026-03-28T09:18:49.157Z</time></trkpt><trkpt lat="45.8806817" lon="12.9844933"><ele>13.166666666666666</ele><time>2026-03-28T09:18:50.156Z</time></trkpt><trkpt lat="45.88071" lon="12.984395"><ele>13.0</ele><time>2026-03-28T09:18:51.157Z</time></trkpt><trkpt lat="45.88074" lon="12.9843017"><ele>13.0</ele><time>2026-03-28T09:18:52.156Z</time></trkpt><trkpt lat="45.88084" lon="12.9841933"><ele>13.0</ele><time>2026-03-28T09:18:54.156Z</time></trkpt><trkpt lat="45.8809467" lon="12.98414"><ele>13.0</ele><time>2026-03-28T09:18:55.156Z</time></trkpt><trkpt lat="45.8810883" lon="12.9840783"><ele>13.0</ele><time>2026-03-28T09:18:56.156Z</time></trkpt><trkpt lat="45.8812433" lon="12.983995"><ele>13.5</ele><time>2026-03-28T09:18:57.156Z</time></trkpt><trkpt lat="45.8814017" lon="12.9839017"><ele>14.0</ele><time>2026-03-28T09:18:58.156Z</time></trkpt><trkpt lat="45.8815383" lon="12.9838233"><ele>14.5</ele><time>2026-03-28T09:18:59.157Z</time></trkpt><trkpt lat="45.8816583" lon="12.9837517"><ele>15.0</ele><time>2026-03-28T09:19:00.156Z</time></trkpt><trkpt lat="45.8817483" lon="12.9837067"><ele>15.0</ele><time>2026-03-28T09:19:01.157Z</time></trkpt><trkpt lat="45.8818267" lon="12.9836917"><ele>15.0</ele><time>2026-03-28T09:19:02.156Z</time></trkpt><trkpt lat="45.8819" lon="12.9837083"><ele>15.0</ele><time>2026-03-28T09:19:03.156Z</time></trkpt><trkpt lat="45.8819717" lon="12.9837583"><ele>15.0</ele><time>2026-03-28T09:19:04.156Z</time></trkpt><trkpt lat="45.8820533" lon="12.9838533"><ele>15.0</ele><time>2026-03-28T09:19:05.156Z</time></trkpt><trkpt lat="45.8821483" lon="12.9839967"><ele>14.666666666666668</ele><time>2026-03-28T09:19:06.157Z</time></trkpt><trkpt lat="45.8822583" lon="12.98418"><ele>14.333333333333334</ele><time>2026-03-28T09:19:07.156Z</time></trkpt><trkpt lat="45.8823683" lon="12.9843817"><ele>14.0</ele><time>2026-03-28T09:19:08.156Z</time></trkpt><trkpt lat="45.8824633" lon="12.9845733"><ele>14.0</ele><time>2026-03-28T09:19:09.157Z</time></trkpt><trkpt lat="45.8825383" lon="12.9847517"><ele>14.0</ele><time>2026-03-28T09:19:10.157Z</time></trkpt><trkpt lat="45.8826033" lon="12.9849283"><ele>14.0</ele><time>2026-03-28T09:19:11.156Z</time></trkpt><trkpt lat="45.8826583" lon="12.9850883"><ele>14.0</ele><time>2026-03-28T09:19:12.157Z</time></trkpt><trkpt lat="45.882705" lon="12.9852167"><ele>14.166666666666668</ele><time>2026-03-28T09:19:13.156Z</time></trkpt><trkpt lat="45.8827483" lon="12.9853167"><ele>14.333333333333334</ele><time>2026-03-28T09:19:14.156Z</time></trkpt><trkpt lat="45.8828083" lon="12.9854017"><ele>14.5</ele><time>2026-03-28T09:19:15.156Z</time></trkpt><trkpt lat="45.8828683" lon="12.9854533"><ele>14.666666666666668</ele><time>2026-03-28T09:19:16.156Z</time></trkpt><trkpt lat="45.8829433" lon="12.9854833"><ele>14.833333333333334</ele><time>2026-03-28T09:19:17.156Z</time></trkpt><trkpt lat="45.8830283" lon="12.9855017"><ele>15.0</ele><time>2026-03-28T09:19:18.156Z</time></trkpt><trkpt lat="45.8831317" lon="12.985505"><ele>15.0</ele><time>2026-03-28T09:19:19.156Z</time></trkpt><trkpt lat="45.8832767" lon="12.9855067"><ele>15.0</ele><time>2026-03-28T09:19:20.156Z</time></trkpt><trkpt lat="45.883435" lon="12.9855067"><ele>15.0</ele><time>2026-03-28T09:19:21.156Z</time></trkpt><trkpt lat="45.8835867" lon="12.9854917"><ele>15.0</ele><time>2026-03-28T09:19:22.156Z</time></trkpt><trkpt lat="45.883725" lon="12.985475"><ele>15.0</ele><time>2026-03-28T09:19:23.156Z</time></trkpt><trkpt lat="45.883855" lon="12.9854333"><ele>15.0</ele><time>2026-03-28T09:19:24.156Z</time></trkpt><trkpt lat="45.8839867" lon="12.9853767"><ele>15.0</ele><time>2026-03-28T09:19:25.156Z</time></trkpt><trkpt lat="45.8841283" lon="12.9853167"><ele>15.75</ele><time>2026-03-28T09:19:26.157Z</time></trkpt><trkpt lat="45.8842633" lon="12.9852683"><ele>16.5</ele><time>2026-03-28T09:19:27.156Z</time></trkpt><trkpt lat="45.8843717" lon="12.985235"><ele>17.25</ele><time>2026-03-28T09:19:28.156Z</time></trkpt><trkpt lat="45.8844717" lon="12.9852183"><ele>18.0</ele><time>2026-03-28T09:19:29.156Z</time></trkpt><trkpt lat="45.884575" lon="12.9852267"><ele>18.0</ele><time>2026-03-28T09:19:30.156Z</time></trkpt><trkpt lat="45.8846867" lon="12.9852533"><ele>18.0</ele><time>2026-03-28T09:19:31.157Z</time></trkpt><trkpt lat="45.8848167" lon="12.985305"><ele>18.0</ele><time>2026-03-28T09:19:32.156Z</time></trkpt><trkpt lat="45.8849417" lon="12.985355"><ele>18.0</ele><time>2026-03-28T09:19:33.156Z</time></trkpt><trkpt lat="45.885045" lon="12.9853933"><ele>18.2</ele><time>2026-03-28T09:19:34.156Z</time></trkpt><trkpt lat="45.8851383" lon="12.9854117"><ele>18.4</ele><time>2026-03-28T09:19:35.156Z</time></trkpt><trkpt lat="45.8852233" lon="12.9854167"><ele>18.599999999999998</ele><time>2026-03-28T09:19:36.156Z</time></trkpt><trkpt lat="45.8853183" lon="12.9854183"><ele>18.8</ele><time>2026-03-28T09:19:37.156Z</time></trkpt><trkpt lat="45.885445" lon="12.9854083"><ele>19.0</ele><time>2026-03-28T09:19:38.156Z</time></trkpt><trkpt lat="45.88558" lon="12.9853933"><ele>19.0</ele><time>2026-03-28T09:19:39.157Z</time></trkpt><trkpt lat="45.885705" lon="12.98538"><ele>19.0</ele><time>2026-03-28T09:19:40.156Z</time></trkpt><trkpt lat="45.885805" lon="12.98536"><ele>19.0</ele><time>2026-03-28T09:19:41.156Z</time></trkpt><trkpt lat="45.885905" lon="12.9853683"><ele>19.0</ele><time>2026-03-28T09:19:43.156Z</time></trkpt><trkpt lat="45.886005" lon="12.985435"><ele>19.0</ele><time>2026-03-28T09:20:17.156Z</time></trkpt><trkpt lat="45.8860683" lon="12.9855767"><ele>18.8</ele><time>2026-03-28T09:20:19.156Z</time></trkpt><trkpt lat="45.8860983" lon="12.9857317"><ele>18.599999999999998</ele><time>2026-03-28T09:20:21.156Z</time></trkpt><trkpt lat="45.8861483" lon="12.9858533"><ele>18.4</ele><time>2026-03-28T09:20:23.156Z</time></trkpt><trkpt lat="45.886265" lon="12.98586"><ele>18.2</ele><time>2026-03-28T09:20:25.156Z</time></trkpt><trkpt lat="45.8863667" lon="12.9858433"><ele>18.0</ele><time>2026-03-28T09:20:26.156Z</time></trkpt><trkpt lat="45.88648" lon="12.9858367"><ele>18.0</ele><time>2026-03-28T09:20:27.156Z</time></trkpt><trkpt lat="45.8865883" lon="12.98583"><ele>18.0</ele><time>2026-03-28T09:20:28.156Z</time></trkpt><trkpt lat="45.8867083" lon="12.9858183"><ele>18.0</ele><time>2026-03-28T09:20:29.156Z</time></trkpt><trkpt lat="45.8868267" lon="12.9857933"><ele>18.0</ele><time>2026-03-28T09:20:30.156Z</time></trkpt><trkpt lat="45.8869383" lon="12.9857417"><ele>18.0</ele><time>2026-03-28T09:20:31.156Z</time></trkpt><trkpt lat="45.8870417" lon="12.9856833"><ele>18.0</ele><time>2026-03-28T09:20:32.157Z</time></trkpt><trkpt lat="45.8871333" lon="12.9856183"><ele>18.0</ele><time>2026-03-28T09:20:33.157Z</time></trkpt><trkpt lat="45.8872167" lon="12.9855717"><ele>18.0</ele><time>2026-03-28T09:20:34.156Z</time></trkpt><trkpt lat="45.8872883" lon="12.9855283"><ele>18.0</ele><time>2026-03-28T09:20:35.157Z</time></trkpt><trkpt lat="45.88738" lon="12.9855217"><ele>18.0</ele><time>2026-03-28T09:20:37.156Z</time></trkpt><trkpt lat="45.8874483" lon="12.9856417"><ele>18.0</ele><time>2026-03-28T09:20:39.156Z</time></trkpt><trkpt lat="45.8874717" lon="12.9857567"><ele>18.0</ele><time>2026-03-28T09:20:40.156Z</time></trkpt><trkpt lat="45.8874983" lon="12.9859033"><ele>18.0</ele><time>2026-03-28T09:20:41.156Z</time></trkpt><trkpt lat="45.887525" lon="12.9860617"><ele>18.0</ele><time>2026-03-28T09:20:42.156Z</time></trkpt><trkpt lat="45.8875433" lon="12.9861983"><ele>18.0</ele><time>2026-03-28T09:20:43.156Z</time></trkpt><trkpt lat="45.8875717" lon="12.9863117"><ele>18.0</ele><time>2026-03-28T09:20:44.156Z</time></trkpt><trkpt lat="45.8876017" lon="12.986465"><ele>18.0</ele><time>2026-03-28T09:20:46.156Z</time></trkpt><trkpt lat="45.8876783" lon="12.986545"><ele>18.0</ele><time>2026-03-28T09:20:48.156Z</time></trkpt><trkpt lat="45.8877417" lon="12.9865433"><ele>18.0</ele><time>2026-03-28T09:20:49.156Z</time></trkpt><trkpt lat="45.8878133" lon="12.9865033"><ele>18.0</ele><time>2026-03-28T09:20:50.156Z</time></trkpt><trkpt lat="45.8879233" lon="12.9864583"><ele>18.0</ele><time>2026-03-28T09:20:51.156Z</time></trkpt><trkpt lat="45.8880767" lon="12.9864067"><ele>18.0</ele><time>2026-03-28T09:20:52.156Z</time></trkpt><trkpt lat="45.88823" lon="12.9863583"><ele>18.0</ele><time>2026-03-28T09:20:53.156Z</time></trkpt><trkpt lat="45.8884" lon="12.98633"><ele>17.333333333333332</ele><time>2026-03-28T09:20:54.156Z</time></trkpt><trkpt lat="45.8885583" lon="12.9863"><ele>16.666666666666664</ele><time>2026-03-28T09:20:55.156Z</time></trkpt><trkpt lat="45.8887117" lon="12.9862617"><ele>16.0</ele><time>2026-03-28T09:20:56.156Z</time></trkpt><trkpt lat="45.8888733" lon="12.9862217"><ele>16.0</ele><time>2026-03-28T09:20:57.156Z</time></trkpt><trkpt lat="45.889035" lon="12.986185"><ele>16.0</ele><time>2026-03-28T09:20:58.156Z</time></trkpt><trkpt lat="45.8891783" lon="12.9861483"><ele>16.0</ele><time>2026-03-28T09:20:59.156Z</time></trkpt><trkpt lat="45.8892783" lon="12.98612"><ele>16.0</ele><time>2026-03-28T09:21:00.156Z</time></trkpt><trkpt lat="45.8893617" lon="12.9860983"><ele>16.0</ele><time>2026-03-28T09:21:01.156Z</time></trkpt><trkpt lat="45.88944" lon="12.9861183"><ele>16.0</ele><time>2026-03-28T09:21:02.156Z</time></trkpt><trkpt lat="45.8895133" lon="12.9861767"><ele>16.0</ele><time>2026-03-28T09:21:03.156Z</time></trkpt><trkpt lat="45.8895867" lon="12.9862733"><ele>16.0</ele><time>2026-03-28T09:21:04.156Z</time></trkpt><trkpt lat="45.8896767" lon="12.98639"><ele>16.0</ele><time>2026-03-28T09:21:05.156Z</time></trkpt><trkpt lat="45.8897783" lon="12.986525"><ele>16.0</ele><time>2026-03-28T09:21:06.156Z</time></trkpt><trkpt lat="45.8898983" lon="12.9866717"><ele>16.0</ele><time>2026-03-28T09:21:07.157Z</time></trkpt><trkpt lat="45.89002" lon="12.9868267"><ele>16.0</ele><time>2026-03-28T09:21:08.157Z</time></trkpt><trkpt lat="45.8901333" lon="12.9869717"><ele>16.2</ele><time>2026-03-28T09:21:09.156Z</time></trkpt><trkpt lat="45.8902317" lon="12.9871017"><ele>16.400000000000002</ele><time>2026-03-28T09:21:10.156Z</time></trkpt><trkpt lat="45.89031" lon="12.98721"><ele>16.6</ele><time>2026-03-28T09:21:11.157Z</time></trkpt><trkpt lat="45.8903783" lon="12.9873033"><ele>16.8</ele><time>2026-03-28T09:21:12.157Z</time></trkpt><trkpt lat="45.890455" lon="12.9873867"><ele>17.0</ele><time>2026-03-28T09:21:13.156Z</time></trkpt><trkpt lat="45.890535" lon="12.987465"><ele>17.0</ele><time>2026-03-28T09:21:14.157Z</time></trkpt><trkpt lat="45.8906267" lon="12.987525"><ele>17.0</ele><time>2026-03-28T09:21:15.156Z</time></trkpt><trkpt lat="45.8907367" lon="12.98757"><ele>17.0</ele><time>2026-03-28T09:21:16.156Z</time></trkpt><trkpt lat="45.8908583" lon="12.9875917"><ele>17.0</ele><time>2026-03-28T09:21:17.156Z</time></trkpt><trkpt lat="45.8909983" lon="12.9875867"><ele>17.333333333333336</ele><time>2026-03-28T09:21:18.156Z</time></trkpt><trkpt lat="45.891135" lon="12.9875767"><ele>17.666666666666668</ele><time>2026-03-28T09:21:19.157Z</time></trkpt><trkpt lat="45.8913017" lon="12.987555"><ele>18.0</ele><time>2026-03-28T09:21:20.156Z</time></trkpt><trkpt lat="45.8914883" lon="12.9875317"><ele>17.666666666666668</ele><time>2026-03-28T09:21:21.156Z</time></trkpt><trkpt lat="45.8916817" lon="12.9875067"><ele>17.333333333333336</ele><time>2026-03-28T09:21:22.156Z</time></trkpt><trkpt lat="45.8918617" lon="12.987485"><ele>17.0</ele><time>2026-03-28T09:21:23.156Z</time></trkpt><trkpt lat="45.8920433" lon="12.98747"><ele>17.0</ele><time>2026-03-28T09:21:24.156Z</time></trkpt><trkpt lat="45.892225" lon="12.9874583"><ele>17.0</ele><time>2026-03-28T09:21:25.156Z</time></trkpt><trkpt lat="45.8923967" lon="12.9874633"><ele>17.0</ele><time>2026-03-28T09:21:26.157Z</time></trkpt><trkpt lat="45.8925667" lon="12.987475"><ele>17.333333333333336</ele><time>2026-03-28T09:21:27.156Z</time></trkpt><trkpt lat="45.89274" lon="12.9875"><ele>17.666666666666668</ele><time>2026-03-28T09:21:28.156Z</time></trkpt><trkpt lat="45.892915" lon="12.9875333"><ele>18.0</ele><time>2026-03-28T09:21:29.156Z</time></trkpt><trkpt lat="45.8930817" lon="12.9875617"><ele>18.0</ele><time>2026-03-28T09:21:30.156Z</time></trkpt><trkpt lat="45.8932433" lon="12.9875783"><ele>18.0</ele><time>2026-03-28T09:21:31.156Z</time></trkpt><trkpt lat="45.893405" lon="12.9875717"><ele>18.0</ele><time>2026-03-28T09:21:32.156Z</time></trkpt><trkpt lat="45.8935667" lon="12.987555"><ele>18.0</ele><time>2026-03-28T09:21:33.156Z</time></trkpt><trkpt lat="45.8937417" lon="12.98753"><ele>18.0</ele><time>2026-03-28T09:21:34.156Z</time></trkpt><trkpt lat="45.8939167" lon="12.9874933"><ele>18.0</ele><time>2026-03-28T09:21:35.156Z</time></trkpt><trkpt lat="45.8940917" lon="12.9874617"><ele>18.333333333333332</ele><time>2026-03-28T09:21:36.156Z</time></trkpt><trkpt lat="45.894275" lon="12.987425"><ele>18.666666666666664</ele><time>2026-03-28T09:21:37.156Z</time></trkpt><trkpt lat="45.8944583" lon="12.9873967"><ele>19.0</ele><time>2026-03-28T09:21:38.156Z</time></trkpt><trkpt lat="45.8946433" lon="12.9873817"><ele>19.0</ele><time>2026-03-28T09:21:39.156Z</time></trkpt><trkpt lat="45.8948317" lon="12.98738"><ele>19.0</ele><time>2026-03-28T09:21:40.156Z</time></trkpt><trkpt lat="45.8950217" lon="12.9873867"><ele>19.0</ele><time>2026-03-28T09:21:41.156Z</time></trkpt><trkpt lat="45.8952117" lon="12.9874133"><ele>19.333333333333332</ele><time>2026-03-28T09:21:42.156Z</time></trkpt><trkpt lat="45.8953983" lon="12.9874467"><ele>19.666666666666668</ele><time>2026-03-28T09:21:43.156Z</time></trkpt><trkpt lat="45.8955667" lon="12.98748"><ele>20.0</ele><time>2026-03-28T09:21:44.156Z</time></trkpt><trkpt lat="45.8957467" lon="12.9875117"><ele>20.666666666666668</ele><time>2026-03-28T09:21:45.156Z</time></trkpt><trkpt lat="45.895935" lon="12.98754"><ele>21.333333333333332</ele><time>2026-03-28T09:21:46.157Z</time></trkpt><trkpt lat="45.8961167" lon="12.987565"><ele>22.0</ele><time>2026-03-28T09:21:47.156Z</time></trkpt><trkpt lat="45.8962883" lon="12.9875817"><ele>22.0</ele><time>2026-03-28T09:21:48.156Z</time></trkpt><trkpt lat="45.896445" lon="12.9875967"><ele>22.0</ele><time>2026-03-28T09:21:49.157Z</time></trkpt><trkpt lat="45.8966017" lon="12.987605"><ele>22.0</ele><time>2026-03-28T09:21:50.156Z</time></trkpt><trkpt lat="45.896755" lon="12.9876117"><ele>21.75</ele><time>2026-03-28T09:21:51.156Z</time></trkpt><trkpt lat="45.8968917" lon="12.987605"><ele>21.5</ele><time>2026-03-28T09:21:52.156Z</time></trkpt><trkpt lat="45.8970333" lon="12.987595"><ele>21.25</ele><time>2026-03-28T09:21:53.156Z</time></trkpt><trkpt lat="45.8971733" lon="12.987575"><ele>21.0</ele><time>2026-03-28T09:21:54.156Z</time></trkpt><trkpt lat="45.8973333" lon="12.9875433"><ele>21.0</ele><time>2026-03-28T09:21:55.156Z</time></trkpt><trkpt lat="45.8975133" lon="12.9875267"><ele>21.0</ele><time>2026-03-28T09:21:56.157Z</time></trkpt><trkpt lat="45.8976983" lon="12.9875233"><ele>21.0</ele><time>2026-03-28T09:21:57.156Z</time></trkpt><trkpt lat="45.8978917" lon="12.9875167"><ele>20.333333333333332</ele><time>2026-03-28T09:21:58.156Z</time></trkpt><trkpt lat="45.898085" lon="12.9875167"><ele>19.666666666666664</ele><time>2026-03-28T09:21:59.156Z</time></trkpt><trkpt lat="45.8982833" lon="12.987515"><ele>19.0</ele><time>2026-03-28T09:22:00.156Z</time></trkpt><trkpt lat="45.8984933" lon="12.9875067"><ele>19.0</ele><time>2026-03-28T09:22:01.157Z</time></trkpt><trkpt lat="45.8987133" lon="12.9875017"><ele>19.0</ele><time>2026-03-28T09:22:02.156Z</time></trkpt><trkpt lat="45.8989367" lon="12.987495"><ele>19.0</ele><time>2026-03-28T09:22:03.157Z</time></trkpt><trkpt lat="45.89916" lon="12.987485"><ele>19.0</ele><time>2026-03-28T09:22:04.156Z</time></trkpt><trkpt lat="45.899375" lon="12.9874767"><ele>19.0</ele><time>2026-03-28T09:22:05.157Z</time></trkpt><trkpt lat="45.89958" lon="12.98748"><ele>19.0</ele><time>2026-03-28T09:22:06.156Z</time></trkpt><trkpt lat="45.8997867" lon="12.9874817"><ele>19.0</ele><time>2026-03-28T09:22:07.156Z</time></trkpt><trkpt lat="45.8999933" lon="12.9874783"><ele>19.0</ele><time>2026-03-28T09:22:08.156Z</time></trkpt><trkpt lat="45.9001917" lon="12.987475"><ele>19.0</ele><time>2026-03-28T09:22:09.157Z</time></trkpt><trkpt lat="45.9003783" lon="12.9874717"><ele>19.333333333333332</ele><time>2026-03-28T09:22:10.156Z</time></trkpt><trkpt lat="45.90055" lon="12.9874667"><ele>19.666666666666668</ele><time>2026-03-28T09:22:11.157Z</time></trkpt><trkpt lat="45.900705" lon="12.987465"><ele>20.0</ele><time>2026-03-28T09:22:12.157Z</time></trkpt><trkpt lat="45.90084" lon="12.9874617"><ele>20.166666666666668</ele><time>2026-03-28T09:22:13.156Z</time></trkpt><trkpt lat="45.9009517" lon="12.9874633"><ele>20.333333333333336</ele><time>2026-03-28T09:22:14.156Z</time></trkpt><trkpt lat="45.9010417" lon="12.9874633"><ele>20.5</ele><time>2026-03-28T09:22:15.156Z</time></trkpt><trkpt lat="45.9011067" lon="12.98747"><ele>20.666666666666668</ele><time>2026-03-28T09:22:16.157Z</time></trkpt><trkpt lat="45.9011733" lon="12.9874483"><ele>20.833333333333332</ele><time>2026-03-28T09:22:18.156Z</time></trkpt><trkpt lat="45.901175" lon="12.9873083"><ele>21.0</ele><time>2026-03-28T09:22:21.156Z</time></trkpt><trkpt lat="45.9011517" lon="12.9872117"><ele>21.0</ele><time>2026-03-28T09:22:22.156Z</time></trkpt><trkpt lat="45.9011283" lon="12.9870833"><ele>21.0</ele><time>2026-03-28T09:22:23.156Z</time></trkpt><trkpt lat="45.9011117" lon="12.9869217"><ele>21.0</ele><time>2026-03-28T09:22:24.156Z</time></trkpt><trkpt lat="45.9010983" lon="12.9867117"><ele>21.0</ele><time>2026-03-28T09:22:25.156Z</time></trkpt><trkpt lat="45.9010867" lon="12.98646"><ele>21.0</ele><time>2026-03-28T09:22:26.156Z</time></trkpt><trkpt lat="45.901075" lon="12.986175"><ele>21.0</ele><time>2026-03-28T09:22:27.156Z</time></trkpt><trkpt lat="45.9010633" lon="12.985875"><ele>21.0</ele><time>2026-03-28T09:22:28.156Z</time></trkpt><trkpt lat="45.9010533" lon="12.9855817"><ele>21.0</ele><time>2026-03-28T09:22:29.156Z</time></trkpt><trkpt lat="45.9010433" lon="12.985295"><ele>21.0</ele><time>2026-03-28T09:22:30.156Z</time></trkpt><trkpt lat="45.9010333" lon="12.9850117"><ele>21.0</ele><time>2026-03-28T09:22:31.156Z</time></trkpt><trkpt lat="45.90102" lon="12.9847217"><ele>20.666666666666668</ele><time>2026-03-28T09:22:32.156Z</time></trkpt><trkpt lat="45.901005" lon="12.984425"><ele>20.333333333333336</ele><time>2026-03-28T09:22:33.156Z</time></trkpt><trkpt lat="45.9009917" lon="12.9841217"><ele>20.0</ele><time>2026-03-28T09:22:34.156Z</time></trkpt><trkpt lat="45.9009783" lon="12.9838183"><ele>20.0</ele><time>2026-03-28T09:22:35.156Z</time></trkpt><trkpt lat="45.9009683" lon="12.9835133"><ele>20.0</ele><time>2026-03-28T09:22:36.156Z</time></trkpt><trkpt lat="45.900955" lon="12.9832"><ele>20.0</ele><time>2026-03-28T09:22:37.156Z</time></trkpt><trkpt lat="45.9009433" lon="12.98289"><ele>20.333333333333336</ele><time>2026-03-28T09:22:38.156Z</time></trkpt><trkpt lat="45.900935" lon="12.9825883"><ele>20.666666666666668</ele><time>2026-03-28T09:22:39.156Z</time></trkpt><trkpt lat="45.9009217" lon="12.9822967"><ele>21.0</ele><time>2026-03-28T09:22:40.156Z</time></trkpt><trkpt lat="45.9009067" lon="12.9820033"><ele>21.0</ele><time>2026-03-28T09:22:41.156Z</time></trkpt><trkpt lat="45.90089" lon="12.98173"><ele>21.0</ele><time>2026-03-28T09:22:42.157Z</time></trkpt><trkpt lat="45.9008783" lon="12.9814717"><ele>21.0</ele><time>2026-03-28T09:22:43.157Z</time></trkpt><trkpt lat="45.90087" lon="12.9812167"><ele>21.0</ele><time>2026-03-28T09:22:44.157Z</time></trkpt><trkpt lat="45.9008633" lon="12.98098"><ele>21.0</ele><time>2026-03-28T09:22:45.156Z</time></trkpt><trkpt lat="45.9008533" lon="12.9807633"><ele>21.0</ele><time>2026-03-28T09:22:46.156Z</time></trkpt><trkpt lat="45.9008483" lon="12.9805667"><ele>21.0</ele><time>2026-03-28T09:22:47.157Z</time></trkpt><trkpt lat="45.9008417" lon="12.9803867"><ele>21.0</ele><time>2026-03-28T09:22:48.156Z</time></trkpt><trkpt lat="45.9008333" lon="12.98023"><ele>21.0</ele><time>2026-03-28T09:22:49.156Z</time></trkpt><trkpt lat="45.9008267" lon="12.98009"><ele>21.0</ele><time>2026-03-28T09:22:50.156Z</time></trkpt><trkpt lat="45.900825" lon="12.9799817"><ele>21.0</ele><time>2026-03-28T09:22:51.156Z</time></trkpt><trkpt lat="45.90086" lon="12.9798567"><ele>20.5</ele><time>2026-03-28T09:22:53.156Z</time></trkpt><trkpt lat="45.9010133" lon="12.9798283"><ele>20.0</ele><time>2026-03-28T09:22:55.156Z</time></trkpt><trkpt lat="45.90115" lon="12.97982"><ele>19.5</ele><time>2026-03-28T09:22:56.156Z</time></trkpt><trkpt lat="45.9012983" lon="12.97979"><ele>19.0</ele><time>2026-03-28T09:22:57.156Z</time></trkpt><trkpt lat="45.9014433" lon="12.97975"><ele>19.0</ele><time>2026-03-28T09:22:58.156Z</time></trkpt><trkpt lat="45.9015833" lon="12.9797217"><ele>19.0</ele><time>2026-03-28T09:22:59.156Z</time></trkpt><trkpt lat="45.901715" lon="12.9796933"><ele>19.0</ele><time>2026-03-28T09:23:00.156Z</time></trkpt><trkpt lat="45.9018433" lon="12.9796467"><ele>19.0</ele><time>2026-03-28T09:23:01.156Z</time></trkpt><trkpt lat="45.9019717" lon="12.9795883"><ele>19.0</ele><time>2026-03-28T09:23:02.156Z</time></trkpt><trkpt lat="45.9021033" lon="12.979505"><ele>19.0</ele><time>2026-03-28T09:23:03.156Z</time></trkpt><trkpt lat="45.9022317" lon="12.9794067"><ele>19.0</ele><time>2026-03-28T09:23:04.157Z</time></trkpt><trkpt lat="45.9023683" lon="12.9793017"><ele>19.0</ele><time>2026-03-28T09:23:05.156Z</time></trkpt><trkpt lat="45.9024967" lon="12.97919"><ele>20.0</ele><time>2026-03-28T09:23:06.156Z</time></trkpt><trkpt lat="45.9026217" lon="12.9790817"><ele>21.0</ele><time>2026-03-28T09:23:07.157Z</time></trkpt><trkpt lat="45.902755" lon="12.9789633"><ele>22.0</ele><time>2026-03-28T09:23:08.157Z</time></trkpt><trkpt lat="45.9028967" lon="12.9788367"><ele>22.0</ele><time>2026-03-28T09:23:09.156Z</time></trkpt><trkpt lat="45.9030283" lon="12.9787067"><ele>22.0</ele><time>2026-03-28T09:23:10.157Z</time></trkpt><trkpt lat="45.9031483" lon="12.9785967"><ele>22.0</ele><time>2026-03-28T09:23:11.156Z</time></trkpt><trkpt lat="45.90325" lon="12.9785083"><ele>22.0</ele><time>2026-03-28T09:23:12.156Z</time></trkpt><trkpt lat="45.90335" lon="12.9784483"><ele>21.75</ele><time>2026-03-28T09:23:13.156Z</time></trkpt><trkpt lat="45.9034567" lon="12.9784267"><ele>21.5</ele><time>2026-03-28T09:23:14.156Z</time></trkpt><trkpt lat="45.9035667" lon="12.978445"><ele>21.25</ele><time>2026-03-28T09:23:15.156Z</time></trkpt><trkpt lat="45.9036867" lon="12.9784867"><ele>21.0</ele><time>2026-03-28T09:23:16.157Z</time></trkpt><trkpt lat="45.9038083" lon="12.97853"><ele>21.0</ele><time>2026-03-28T09:23:17.157Z</time></trkpt><trkpt lat="45.903935" lon="12.97857"><ele>21.0</ele><time>2026-03-28T09:23:18.156Z</time></trkpt><trkpt lat="45.9040633" lon="12.978615"><ele>21.0</ele><time>2026-03-28T09:23:19.156Z</time></trkpt><trkpt lat="45.9041983" lon="12.9786533"><ele>21.0</ele><time>2026-03-28T09:23:20.156Z</time></trkpt><trkpt lat="45.9043267" lon="12.9786983"><ele>21.0</ele><time>2026-03-28T09:23:21.156Z</time></trkpt><trkpt lat="45.9044517" lon="12.9787433"><ele>21.0</ele><time>2026-03-28T09:23:22.156Z</time></trkpt><trkpt lat="45.9045783" lon="12.978785"><ele>21.0</ele><time>2026-03-28T09:23:23.156Z</time></trkpt><trkpt lat="45.9047033" lon="12.97883"><ele>21.0</ele><time>2026-03-28T09:23:24.156Z</time></trkpt><trkpt lat="45.9048333" lon="12.9788683"><ele>21.0</ele><time>2026-03-28T09:23:25.157Z</time></trkpt><trkpt lat="45.904965" lon="12.978905"><ele>21.0</ele><time>2026-03-28T09:23:26.157Z</time></trkpt><trkpt lat="45.9050933" lon="12.978935"><ele>21.0</ele><time>2026-03-28T09:23:27.157Z</time></trkpt><trkpt lat="45.9052233" lon="12.9789467"><ele>21.0</ele><time>2026-03-28T09:23:28.156Z</time></trkpt><trkpt lat="45.9053567" lon="12.9789583"><ele>21.5</ele><time>2026-03-28T09:23:29.157Z</time></trkpt><trkpt lat="45.9055017" lon="12.9789517"><ele>22.0</ele><time>2026-03-28T09:23:30.156Z</time></trkpt><trkpt lat="45.90565" lon="12.9789517"><ele>22.5</ele><time>2026-03-28T09:23:31.156Z</time></trkpt><trkpt lat="45.9058017" lon="12.9789483"><ele>23.0</ele><time>2026-03-28T09:23:32.156Z</time></trkpt><trkpt lat="45.9059583" lon="12.9789317"><ele>23.333333333333336</ele><time>2026-03-28T09:23:33.156Z</time></trkpt><trkpt lat="45.9061183" lon="12.9789167"><ele>23.666666666666668</ele><time>2026-03-28T09:23:34.156Z</time></trkpt><trkpt lat="45.90627" lon="12.9789033"><ele>24.0</ele><time>2026-03-28T09:23:35.156Z</time></trkpt><trkpt lat="45.906425" lon="12.9788917"><ele>24.0</ele><time>2026-03-28T09:23:36.156Z</time></trkpt><trkpt lat="45.90658" lon="12.9788833"><ele>24.0</ele><time>2026-03-28T09:23:37.156Z</time></trkpt><trkpt lat="45.9067217" lon="12.9788767"><ele>24.0</ele><time>2026-03-28T09:23:38.156Z</time></trkpt><trkpt lat="45.9068467" lon="12.978865"><ele>24.0</ele><time>2026-03-28T09:23:39.156Z</time></trkpt><trkpt lat="45.9069683" lon="12.9788483"><ele>24.0</ele><time>2026-03-28T09:23:40.156Z</time></trkpt><trkpt lat="45.9070783" lon="12.9788167"><ele>24.0</ele><time>2026-03-28T09:23:41.156Z</time></trkpt><trkpt lat="45.9071817" lon="12.9787617"><ele>24.0</ele><time>2026-03-28T09:23:42.156Z</time></trkpt><trkpt lat="45.90729" lon="12.978695"><ele>24.0</ele><time>2026-03-28T09:23:43.157Z</time></trkpt><trkpt lat="45.9074017" lon="12.9785983"><ele>24.0</ele><time>2026-03-28T09:23:44.156Z</time></trkpt><trkpt lat="45.9075217" lon="12.97848"><ele>24.0</ele><time>2026-03-28T09:23:45.157Z</time></trkpt><trkpt lat="45.9076533" lon="12.9783467"><ele>24.0</ele><time>2026-03-28T09:23:46.156Z</time></trkpt><trkpt lat="45.907785" lon="12.9782133"><ele>23.666666666666668</ele><time>2026-03-28T09:23:47.156Z</time></trkpt><trkpt lat="45.9079133" lon="12.978075"><ele>23.333333333333336</ele><time>2026-03-28T09:23:48.156Z</time></trkpt><trkpt lat="45.9080483" lon="12.9779467"><ele>23.0</ele><time>2026-03-28T09:23:49.156Z</time></trkpt><trkpt lat="45.9081817" lon="12.97783"><ele>23.0</ele><time>2026-03-28T09:23:50.156Z</time></trkpt><trkpt lat="45.9083217" lon="12.97772"><ele>23.0</ele><time>2026-03-28T09:23:51.156Z</time></trkpt><trkpt lat="45.9084633" lon="12.97763"><ele>23.0</ele><time>2026-03-28T09:23:52.156Z</time></trkpt><trkpt lat="45.9085983" lon="12.9775433"><ele>23.666666666666668</ele><time>2026-03-28T09:23:53.157Z</time></trkpt><trkpt lat="45.9087267" lon="12.97745"><ele>24.333333333333336</ele><time>2026-03-28T09:23:54.156Z</time></trkpt><trkpt lat="45.908855" lon="12.9773417"><ele>25.0</ele><time>2026-03-28T09:23:55.156Z</time></trkpt><trkpt lat="45.9089917" lon="12.97722"><ele>25.0</ele><time>2026-03-28T09:23:56.156Z</time></trkpt><trkpt lat="45.909125" lon="12.977105"><ele>25.0</ele><time>2026-03-28T09:23:57.156Z</time></trkpt><trkpt lat="45.90925" lon="12.977005"><ele>25.0</ele><time>2026-03-28T09:23:58.156Z</time></trkpt><trkpt lat="45.9093667" lon="12.9769133"><ele>25.0</ele><time>2026-03-28T09:23:59.156Z</time></trkpt><trkpt lat="45.909485" lon="12.976815"><ele>24.0</ele><time>2026-03-28T09:24:00.156Z</time></trkpt><trkpt lat="45.9096117" lon="12.9767017"><ele>23.0</ele><time>2026-03-28T09:24:01.155Z</time></trkpt><trkpt lat="45.90974" lon="12.9765717"><ele>22.0</ele><time>2026-03-28T09:24:02.156Z</time></trkpt><trkpt lat="45.9098717" lon="12.9764367"><ele>22.0</ele><time>2026-03-28T09:24:03.155Z</time></trkpt><trkpt lat="45.9100017" lon="12.9762933"><ele>22.0</ele><time>2026-03-28T09:24:04.155Z</time></trkpt><trkpt lat="45.9101267" lon="12.9761517"><ele>22.0</ele><time>2026-03-28T09:24:05.155Z</time></trkpt><trkpt lat="45.910255" lon="12.9760133"><ele>22.333333333333332</ele><time>2026-03-28T09:24:06.155Z</time></trkpt><trkpt lat="45.9103817" lon="12.9758867"><ele>22.666666666666668</ele><time>2026-03-28T09:24:07.156Z</time></trkpt><trkpt lat="45.910515" lon="12.975775"><ele>23.0</ele><time>2026-03-28T09:24:08.155Z</time></trkpt><trkpt lat="45.9106617" lon="12.9756833"><ele>23.0</ele><time>2026-03-28T09:24:09.155Z</time></trkpt><trkpt lat="45.91082" lon="12.9755967"><ele>23.0</ele><time>2026-03-28T09:24:10.156Z</time></trkpt><trkpt lat="45.9109817" lon="12.97552"><ele>23.0</ele><time>2026-03-28T09:24:11.155Z</time></trkpt><trkpt lat="45.9111567" lon="12.975455"><ele>22.333333333333336</ele><time>2026-03-28T09:24:12.155Z</time></trkpt><trkpt lat="45.9113383" lon="12.9753917"><ele>21.666666666666668</ele><time>2026-03-28T09:24:13.155Z</time></trkpt><trkpt lat="45.9115217" lon="12.975335"><ele>21.0</ele><time>2026-03-28T09:24:14.155Z</time></trkpt><trkpt lat="45.9117033" lon="12.9752733"><ele>21.333333333333332</ele><time>2026-03-28T09:24:15.155Z</time></trkpt><trkpt lat="45.91188" lon="12.9752"><ele>21.666666666666664</ele><time>2026-03-28T09:24:16.155Z</time></trkpt><trkpt lat="45.9120517" lon="12.9751217"><ele>22.0</ele><time>2026-03-28T09:24:17.155Z</time></trkpt><trkpt lat="45.9122133" lon="12.9750383"><ele>21.666666666666664</ele><time>2026-03-28T09:24:18.156Z</time></trkpt><trkpt lat="45.9123667" lon="12.9749583"><ele>21.333333333333332</ele><time>2026-03-28T09:24:19.155Z</time></trkpt><trkpt lat="45.9125217" lon="12.9748833"><ele>21.0</ele><time>2026-03-28T09:24:20.156Z</time></trkpt><trkpt lat="45.9126733" lon="12.97482"><ele>21.666666666666668</ele><time>2026-03-28T09:24:21.155Z</time></trkpt><trkpt lat="45.9128333" lon="12.9747783"><ele>22.333333333333336</ele><time>2026-03-28T09:24:22.156Z</time></trkpt><trkpt lat="45.91299" lon="12.9747567"><ele>23.0</ele><time>2026-03-28T09:24:23.156Z</time></trkpt><trkpt lat="45.9131583" lon="12.9747433"><ele>23.0</ele><time>2026-03-28T09:24:24.155Z</time></trkpt><trkpt lat="45.9133267" lon="12.97473"><ele>23.0</ele><time>2026-03-28T09:24:25.155Z</time></trkpt><trkpt lat="45.9134933" lon="12.9747183"><ele>23.0</ele><time>2026-03-28T09:24:26.155Z</time></trkpt><trkpt lat="45.913645" lon="12.9747067"><ele>23.5</ele><time>2026-03-28T09:24:27.155Z</time></trkpt><trkpt lat="45.91379" lon="12.9746983"><ele>24.0</ele><time>2026-03-28T09:24:28.156Z</time></trkpt><trkpt lat="45.913935" lon="12.9746833"><ele>24.5</ele><time>2026-03-28T09:24:29.155Z</time></trkpt><trkpt lat="45.9140733" lon="12.97466"><ele>25.0</ele><time>2026-03-28T09:24:30.155Z</time></trkpt><trkpt lat="45.9142067" lon="12.9746267"><ele>25.5</ele><time>2026-03-28T09:24:31.155Z</time></trkpt><trkpt lat="45.914345" lon="12.9745683"><ele>26.0</ele><time>2026-03-28T09:24:32.155Z</time></trkpt><trkpt lat="45.914475" lon="12.97451"><ele>26.5</ele><time>2026-03-28T09:24:33.155Z</time></trkpt><trkpt lat="45.914605" lon="12.9744333"><ele>27.0</ele><time>2026-03-28T09:24:34.155Z</time></trkpt><trkpt lat="45.914745" lon="12.9743383"><ele>27.0</ele><time>2026-03-28T09:24:35.155Z</time></trkpt><trkpt lat="45.9148783" lon="12.9742467"><ele>27.0</ele><time>2026-03-28T09:24:36.155Z</time></trkpt><trkpt lat="45.9150017" lon="12.9741717"><ele>27.0</ele><time>2026-03-28T09:24:37.155Z</time></trkpt><trkpt lat="45.9151" lon="12.9740983"><ele>27.0</ele><time>2026-03-28T09:24:38.155Z</time></trkpt><trkpt lat="45.91518" lon="12.9740333"><ele>26.400000000000002</ele><time>2026-03-28T09:24:39.155Z</time></trkpt><trkpt lat="45.9152533" lon="12.9739483"><ele>25.800000000000004</ele><time>2026-03-28T09:24:40.155Z</time></trkpt><trkpt lat="45.9153233" lon="12.9738333"><ele>25.2</ele><time>2026-03-28T09:24:41.155Z</time></trkpt><trkpt lat="45.9153933" lon="12.9736917"><ele>24.6</ele><time>2026-03-28T09:24:42.155Z</time></trkpt><trkpt lat="45.915475" lon="12.97357"><ele>24.0</ele><time>2026-03-28T09:24:43.156Z</time></trkpt><trkpt lat="45.91558" lon="12.9734567"><ele>23.666666666666668</ele><time>2026-03-28T09:24:44.155Z</time></trkpt><trkpt lat="45.9157" lon="12.9733483"><ele>23.333333333333336</ele><time>2026-03-28T09:24:45.155Z</time></trkpt><trkpt lat="45.91584" lon="12.9732217"><ele>23.0</ele><time>2026-03-28T09:24:46.155Z</time></trkpt><trkpt lat="45.9159933" lon="12.97307"><ele>22.666666666666668</ele><time>2026-03-28T09:24:47.155Z</time></trkpt><trkpt lat="45.9161567" lon="12.9729017"><ele>22.333333333333332</ele><time>2026-03-28T09:24:48.155Z</time></trkpt><trkpt lat="45.9163333" lon="12.9727233"><ele>22.0</ele><time>2026-03-28T09:24:49.155Z</time></trkpt><trkpt lat="45.9165167" lon="12.9725417"><ele>23.0</ele><time>2026-03-28T09:24:50.155Z</time></trkpt><trkpt lat="45.9167083" lon="12.9723683"><ele>24.0</ele><time>2026-03-28T09:24:51.155Z</time></trkpt><trkpt lat="45.916895" lon="12.9721867"><ele>24.0</ele><time>2026-03-28T09:24:52.156Z</time></trkpt><trkpt lat="45.9170717" lon="12.9720133"><ele>24.0</ele><time>2026-03-28T09:24:53.155Z</time></trkpt><trkpt lat="45.91724" lon="12.9718517"><ele>24.0</ele><time>2026-03-28T09:24:54.155Z</time></trkpt><trkpt lat="45.9174018" lon="12.9716935"><ele>24.0</ele><time>2026-03-28T09:24:55.155Z</time></trkpt><trkpt lat="45.9175573" lon="12.9715399"><ele>24.0</ele><time>2026-03-28T09:24:56.155Z</time></trkpt><trkpt lat="45.9177064" lon="12.9713902"><ele>24.0</ele><time>2026-03-28T09:24:57.156Z</time></trkpt><trkpt lat="45.9178538" lon="12.9712437"><ele>24.0</ele><time>2026-03-28T09:24:58.156Z</time></trkpt><trkpt lat="45.9179973" lon="12.971104"><ele>24.0</ele><time>2026-03-28T09:24:59.156Z</time></trkpt><trkpt lat="45.9181314" lon="12.970977"><ele>24.0</ele><time>2026-03-28T09:25:00.155Z</time></trkpt><trkpt lat="45.918258" lon="12.970854"><ele>24.0</ele><time>2026-03-28T09:25:01.155Z</time></trkpt><trkpt lat="45.918382" lon="12.9707332"><ele>24.0</ele><time>2026-03-28T09:25:02.156Z</time></trkpt><trkpt lat="45.9184987" lon="12.9706187"><ele>24.0</ele><time>2026-03-28T09:25:03.155Z</time></trkpt><trkpt lat="45.9186094" lon="12.9705119"><ele>24.0</ele><time>2026-03-28T09:25:04.155Z</time></trkpt><trkpt lat="45.9187113" lon="12.9704124"><ele>24.166666666666668</ele><time>2026-03-28T09:25:05.155Z</time></trkpt><trkpt lat="45.9188034" lon="12.9703176"><ele>24.333333333333336</ele><time>2026-03-28T09:25:06.156Z</time></trkpt><trkpt lat="45.9188876" lon="12.9702329"><ele>24.5</ele><time>2026-03-28T09:25:07.155Z</time></trkpt><trkpt lat="45.9189545" lon="12.9701629"><ele>24.666666666666668</ele><time>2026-03-28T09:25:08.156Z</time></trkpt><trkpt lat="45.9190157" lon="12.9701129"><ele>24.833333333333336</ele><time>2026-03-28T09:25:09.156Z</time></trkpt><trkpt lat="45.9190781" lon="12.9700851"><ele>25.0</ele><time>2026-03-28T09:25:10.155Z</time></trkpt><trkpt lat="45.919189" lon="12.9700692"><ele>25.0</ele><time>2026-03-28T09:25:12.155Z</time></trkpt><trkpt lat="45.9192957" lon="12.970087"><ele>25.0</ele><time>2026-03-28T09:25:14.155Z</time></trkpt><trkpt lat="45.9193959" lon="12.9701077"><ele>25.0</ele><time>2026-03-28T09:25:16.155Z</time></trkpt><trkpt lat="45.9194857" lon="12.9701272"><ele>25.0</ele><time>2026-03-28T09:25:18.155Z</time></trkpt><trkpt lat="45.9195823" lon="12.9701515"><ele>25.0</ele><time>2026-03-28T09:25:20.155Z</time></trkpt><trkpt lat="45.9197152" lon="12.9701512"><ele>25.0</ele><time>2026-03-28T09:25:22.156Z</time></trkpt><trkpt lat="45.9198093" lon="12.9701406"><ele>25.0</ele><time>2026-03-28T09:25:24.155Z</time></trkpt><trkpt lat="45.9198806" lon="12.9701567"><ele>25.0</ele><time>2026-03-28T09:25:27.156Z</time></trkpt><trkpt lat="45.9199967" lon="12.970165"><ele>25.0</ele><time>2026-03-28T09:25:29.155Z</time></trkpt><trkpt lat="45.9200667" lon="12.97013"><ele>25.0</ele><time>2026-03-28T09:25:30.155Z</time></trkpt><trkpt lat="45.92015" lon="12.9700617"><ele>25.25</ele><time>2026-03-28T09:25:31.155Z</time></trkpt><trkpt lat="45.9202517" lon="12.9699717"><ele>25.5</ele><time>2026-03-28T09:25:32.155Z</time></trkpt><trkpt lat="45.9203683" lon="12.9698633"><ele>25.75</ele><time>2026-03-28T09:25:33.155Z</time></trkpt><trkpt lat="45.9204883" lon="12.96975"><ele>26.0</ele><time>2026-03-28T09:25:34.156Z</time></trkpt><trkpt lat="45.92063" lon="12.96962"><ele>26.0</ele><time>2026-03-28T09:25:35.156Z</time></trkpt><trkpt lat="45.9207633" lon="12.96949"><ele>26.0</ele><time>2026-03-28T09:25:36.155Z</time></trkpt><trkpt lat="45.9208883" lon="12.9693583"><ele>26.0</ele><time>2026-03-28T09:25:37.155Z</time></trkpt><trkpt lat="45.921005" lon="12.9692383"><ele>26.0</ele><time>2026-03-28T09:25:38.155Z</time></trkpt><trkpt lat="45.921115" lon="12.9691267"><ele>26.0</ele><time>2026-03-28T09:25:39.155Z</time></trkpt><trkpt lat="45.9212167" lon="12.9690383"><ele>26.0</ele><time>2026-03-28T09:25:40.155Z</time></trkpt><trkpt lat="45.9213133" lon="12.968955"><ele>26.0</ele><time>2026-03-28T09:25:41.155Z</time></trkpt><trkpt lat="45.92141" lon="12.9688717"><ele>26.0</ele><time>2026-03-28T09:25:42.155Z</time></trkpt><trkpt lat="45.9215133" lon="12.9687717"><ele>26.0</ele><time>2026-03-28T09:25:43.155Z</time></trkpt><trkpt lat="45.921625" lon="12.96866"><ele>26.0</ele><time>2026-03-28T09:25:44.156Z</time></trkpt><trkpt lat="45.9217233" lon="12.9685617"><ele>26.0</ele><time>2026-03-28T09:25:45.156Z</time></trkpt><trkpt lat="45.9218133" lon="12.9684783"><ele>25.8</ele><time>2026-03-28T09:25:46.155Z</time></trkpt><trkpt lat="45.9218967" lon="12.9684083"><ele>25.6</ele><time>2026-03-28T09:25:47.155Z</time></trkpt><trkpt lat="45.9219767" lon="12.9683433"><ele>25.4</ele><time>2026-03-28T09:25:48.155Z</time></trkpt><trkpt lat="45.9220533" lon="12.968275"><ele>25.2</ele><time>2026-03-28T09:25:49.155Z</time></trkpt><trkpt lat="45.92213" lon="12.9681967"><ele>25.0</ele><time>2026-03-28T09:25:50.155Z</time></trkpt><trkpt lat="45.9222117" lon="12.9681083"><ele>25.0</ele><time>2026-03-28T09:25:51.156Z</time></trkpt><trkpt lat="45.9223117" lon="12.9680017"><ele>25.0</ele><time>2026-03-28T09:25:52.156Z</time></trkpt><trkpt lat="45.9224183" lon="12.967885"><ele>25.0</ele><time>2026-03-28T09:25:53.155Z</time></trkpt><trkpt lat="45.922545" lon="12.9677633"><ele>25.0</ele><time>2026-03-28T09:25:54.156Z</time></trkpt><trkpt lat="45.9226817" lon="12.9676317"><ele>25.0</ele><time>2026-03-28T09:25:55.155Z</time></trkpt><trkpt lat="45.922825" lon="12.9674933"><ele>25.0</ele><time>2026-03-28T09:25:56.156Z</time></trkpt><trkpt lat="45.92296" lon="12.9673667"><ele>25.0</ele><time>2026-03-28T09:25:57.156Z</time></trkpt><trkpt lat="45.9230933" lon="12.9672483"><ele>25.0</ele><time>2026-03-28T09:25:58.155Z</time></trkpt><trkpt lat="45.9232117" lon="12.9671283"><ele>25.0</ele><time>2026-03-28T09:25:59.155Z</time></trkpt><trkpt lat="45.92333" lon="12.967015"><ele>25.0</ele><time>2026-03-28T09:26:00.156Z</time></trkpt><trkpt lat="45.9234483" lon="12.9669067"><ele>25.0</ele><time>2026-03-28T09:26:01.156Z</time></trkpt><trkpt lat="45.9235583" lon="12.9668033"><ele>24.8</ele><time>2026-03-28T09:26:02.155Z</time></trkpt><trkpt lat="45.9236567" lon="12.9667017"><ele>24.6</ele><time>2026-03-28T09:26:03.155Z</time></trkpt><trkpt lat="45.9237433" lon="12.9666167"><ele>24.4</ele><time>2026-03-28T09:26:04.155Z</time></trkpt><trkpt lat="45.923825" lon="12.96654"><ele>24.2</ele><time>2026-03-28T09:26:05.155Z</time></trkpt><trkpt lat="45.9238933" lon="12.9664717"><ele>24.0</ele><time>2026-03-28T09:26:06.156Z</time></trkpt><trkpt lat="45.9239583" lon="12.9664083"><ele>24.0</ele><time>2026-03-28T09:26:07.155Z</time></trkpt><trkpt lat="45.92402" lon="12.9663533"><ele>24.0</ele><time>2026-03-28T09:26:08.155Z</time></trkpt><trkpt lat="45.9240967" lon="12.9662667"><ele>24.0</ele><time>2026-03-28T09:26:10.156Z</time></trkpt><trkpt lat="45.9241067" lon="12.96616"><ele>24.0</ele><time>2026-03-28T09:26:12.155Z</time></trkpt><trkpt lat="45.9240517" lon="12.9659883"><ele>24.0</ele><time>2026-03-28T09:26:14.156Z</time></trkpt><trkpt lat="45.9240033" lon="12.9658767"><ele>24.25</ele><time>2026-03-28T09:26:15.155Z</time></trkpt><trkpt lat="45.9239433" lon="12.9657533"><ele>24.5</ele><time>2026-03-28T09:26:16.155Z</time></trkpt><trkpt lat="45.923875" lon="12.9655983"><ele>24.75</ele><time>2026-03-28T09:26:17.155Z</time></trkpt><trkpt lat="45.9238117" lon="12.9654333"><ele>25.0</ele><time>2026-03-28T09:26:18.155Z</time></trkpt><trkpt lat="45.92375" lon="12.965285"><ele>25.0</ele><time>2026-03-28T09:26:19.155Z</time></trkpt><trkpt lat="45.9236933" lon="12.9651417"><ele>25.0</ele><time>2026-03-28T09:26:20.155Z</time></trkpt><trkpt lat="45.92364" lon="12.9650033"><ele>25.0</ele><time>2026-03-28T09:26:21.156Z</time></trkpt><trkpt lat="45.92358" lon="12.9648567"><ele>25.0</ele><time>2026-03-28T09:26:22.155Z</time></trkpt><trkpt lat="45.92352" lon="12.964715"><ele>25.2</ele><time>2026-03-28T09:26:23.156Z</time></trkpt><trkpt lat="45.9234667" lon="12.9645933"><ele>25.4</ele><time>2026-03-28T09:26:24.155Z</time></trkpt><trkpt lat="45.923425" lon="12.9644767"><ele>25.6</ele><time>2026-03-28T09:26:25.155Z</time></trkpt><trkpt lat="45.9233883" lon="12.9643683"><ele>25.8</ele><time>2026-03-28T09:26:26.155Z</time></trkpt><trkpt lat="45.9233583" lon="12.9642783"><ele>26.0</ele><time>2026-03-28T09:26:27.155Z</time></trkpt><trkpt lat="45.9233233" lon="12.9641267"><ele>26.0</ele><time>2026-03-28T09:26:29.155Z</time></trkpt><trkpt lat="45.9233483" lon="12.96403"><ele>26.0</ele><time>2026-03-28T09:27:45.155Z</time></trkpt><trkpt lat="45.9234567" lon="12.9639967"><ele>26.0</ele><time>2026-03-28T09:27:47.156Z</time></trkpt><trkpt lat="45.9235733" lon="12.9639767"><ele>26.0</ele><time>2026-03-28T09:27:48.155Z</time></trkpt><trkpt lat="45.923695" lon="12.9639533"><ele>26.0</ele><time>2026-03-28T09:27:49.156Z</time></trkpt><trkpt lat="45.9238133" lon="12.9639217"><ele>26.333333333333332</ele><time>2026-03-28T09:27:50.155Z</time></trkpt><trkpt lat="45.923955" lon="12.96388"><ele>26.666666666666664</ele><time>2026-03-28T09:27:51.156Z</time></trkpt><trkpt lat="45.9241117" lon="12.9638217"><ele>27.0</ele><time>2026-03-28T09:27:52.156Z</time></trkpt><trkpt lat="45.9242783" lon="12.9637433"><ele>27.0</ele><time>2026-03-28T09:27:53.155Z</time></trkpt><trkpt lat="45.92445" lon="12.9636483"><ele>27.0</ele><time>2026-03-28T09:27:54.155Z</time></trkpt><trkpt lat="45.92463" lon="12.9635367"><ele>27.0</ele><time>2026-03-28T09:27:55.155Z</time></trkpt><trkpt lat="45.9248033" lon="12.9634133"><ele>27.333333333333336</ele><time>2026-03-28T09:27:56.156Z</time></trkpt><trkpt lat="45.924975" lon="12.96328"><ele>27.666666666666668</ele><time>2026-03-28T09:27:57.155Z</time></trkpt><trkpt lat="45.92515" lon="12.9631517"><ele>28.0</ele><time>2026-03-28T09:27:58.155Z</time></trkpt><trkpt lat="45.9253267" lon="12.9630283"><ele>28.0</ele><time>2026-03-28T09:27:59.156Z</time></trkpt><trkpt lat="45.9255167" lon="12.9628867"><ele>28.0</ele><time>2026-03-28T09:28:00.155Z</time></trkpt><trkpt lat="45.925895" lon="12.962605"><ele>28.333333333333336</ele><time>2026-03-28T09:28:02.156Z</time></trkpt><trkpt lat="45.9260917" lon="12.9624583"><ele>28.666666666666664</ele><time>2026-03-28T09:28:03.156Z</time></trkpt><trkpt lat="45.926285" lon="12.962315"><ele>29.0</ele><time>2026-03-28T09:28:04.155Z</time></trkpt><trkpt lat="45.926485" lon="12.96217"><ele>29.0</ele><time>2026-03-28T09:28:05.156Z</time></trkpt><trkpt lat="45.9266867" lon="12.962025"><ele>29.0</ele><time>2026-03-28T09:28:06.155Z</time></trkpt><trkpt lat="45.9268867" lon="12.9618783"><ele>29.5</ele><time>2026-03-28T09:28:07.155Z</time></trkpt><trkpt lat="45.9270883" lon="12.9617317"><ele>30.0</ele><time>2026-03-28T09:28:08.155Z</time></trkpt><trkpt lat="45.92729" lon="12.9615767"><ele>30.0</ele><time>2026-03-28T09:28:09.155Z</time></trkpt><trkpt lat="45.9274883" lon="12.9614283"><ele>30.0</ele><time>2026-03-28T09:28:10.155Z</time></trkpt><trkpt lat="45.92769" lon="12.9612767"><ele>30.0</ele><time>2026-03-28T09:28:11.156Z</time></trkpt><trkpt lat="45.9278967" lon="12.9611283"><ele>30.0</ele><time>2026-03-28T09:28:12.155Z</time></trkpt><trkpt lat="45.9280983" lon="12.9609767"><ele>29.666666666666664</ele><time>2026-03-28T09:28:13.155Z</time></trkpt><trkpt lat="45.9282967" lon="12.960835"><ele>29.333333333333332</ele><time>2026-03-28T09:28:14.155Z</time></trkpt><trkpt lat="45.9284917" lon="12.9606933"><ele>29.0</ele><time>2026-03-28T09:28:15.156Z</time></trkpt><trkpt lat="45.9286833" lon="12.9605533"><ele>29.0</ele><time>2026-03-28T09:28:16.156Z</time></trkpt><trkpt lat="45.92887" lon="12.96042"><ele>29.0</ele><time>2026-03-28T09:28:17.156Z</time></trkpt><trkpt lat="45.929055" lon="12.9602867"><ele>29.0</ele><time>2026-03-28T09:28:18.156Z</time></trkpt><trkpt lat="45.9292383" lon="12.9601517"><ele>29.333333333333332</ele><time>2026-03-28T09:28:19.156Z</time></trkpt><trkpt lat="45.929415" lon="12.9600217"><ele>29.666666666666664</ele><time>2026-03-28T09:28:20.156Z</time></trkpt><trkpt lat="45.92958" lon="12.9598983"><ele>30.0</ele><time>2026-03-28T09:28:21.156Z</time></trkpt><trkpt lat="45.9297483" lon="12.95977"><ele>30.0</ele><time>2026-03-28T09:28:22.155Z</time></trkpt><trkpt lat="45.92992" lon="12.959645"><ele>30.0</ele><time>2026-03-28T09:28:23.156Z</time></trkpt><trkpt lat="45.9300833" lon="12.95953"><ele>30.0</ele><time>2026-03-28T09:28:24.156Z</time></trkpt><trkpt lat="45.9302417" lon="12.95942"><ele>30.333333333333336</ele><time>2026-03-28T09:28:25.156Z</time></trkpt><trkpt lat="45.93039" lon="12.95931"><ele>30.666666666666668</ele><time>2026-03-28T09:28:26.155Z</time></trkpt><trkpt lat="45.930525" lon="12.9591967"><ele>31.0</ele><time>2026-03-28T09:28:27.155Z</time></trkpt><trkpt lat="45.930655" lon="12.959105"><ele>31.0</ele><time>2026-03-28T09:28:28.155Z</time></trkpt><trkpt lat="45.930795" lon="12.959"><ele>31.0</ele><time>2026-03-28T09:28:29.156Z</time></trkpt><trkpt lat="45.930935" lon="12.9588983"><ele>31.0</ele><time>2026-03-28T09:28:30.155Z</time></trkpt><trkpt lat="45.93107" lon="12.9587967"><ele>31.0</ele><time>2026-03-28T09:28:31.155Z</time></trkpt><trkpt lat="45.9312083" lon="12.958695"><ele>31.0</ele><time>2026-03-28T09:28:32.155Z</time></trkpt><trkpt lat="45.9313417" lon="12.9585917"><ele>31.0</ele><time>2026-03-28T09:28:33.156Z</time></trkpt><trkpt lat="45.931465" lon="12.958505"><ele>31.0</ele><time>2026-03-28T09:28:34.155Z</time></trkpt><trkpt lat="45.9315717" lon="12.9584333"><ele>31.000000000000004</ele><time>2026-03-28T09:28:35.156Z</time></trkpt><trkpt lat="45.9316617" lon="12.95837"><ele>31.0</ele><time>2026-03-28T09:28:36.155Z</time></trkpt><trkpt lat="45.931735" lon="12.9583183"><ele>31.0</ele><time>2026-03-28T09:28:37.155Z</time></trkpt><trkpt lat="45.9317967" lon="12.958275"><ele>31.0</ele><time>2026-03-28T09:28:38.155Z</time></trkpt><trkpt lat="45.93189" lon="12.958215"><ele>31.000000000000004</ele><time>2026-03-28T09:28:40.155Z</time></trkpt><trkpt lat="45.931965" lon="12.95818"><ele>31.0</ele><time>2026-03-28T09:28:42.156Z</time></trkpt><trkpt lat="45.9320617" lon="12.9581867"><ele>31.0</ele><time>2026-03-28T09:28:44.156Z</time></trkpt><trkpt lat="45.9321467" lon="12.9582267"><ele>31.0</ele><time>2026-03-28T09:28:45.155Z</time></trkpt><trkpt lat="45.9322683" lon="12.95829"><ele>31.0</ele><time>2026-03-28T09:28:46.155Z</time></trkpt><trkpt lat="45.932395" lon="12.9583617"><ele>31.0</ele><time>2026-03-28T09:28:47.155Z</time></trkpt><trkpt lat="45.932535" lon="12.9584367"><ele>31.0</ele><time>2026-03-28T09:28:48.155Z</time></trkpt><trkpt lat="45.93268" lon="12.9585083"><ele>31.0</ele><time>2026-03-28T09:28:49.155Z</time></trkpt><trkpt lat="45.9328217" lon="12.958585"><ele>31.0</ele><time>2026-03-28T09:28:50.155Z</time></trkpt><trkpt lat="45.9329683" lon="12.95866"><ele>31.0</ele><time>2026-03-28T09:28:51.156Z</time></trkpt><trkpt lat="45.93312" lon="12.9587383"><ele>31.0</ele><time>2026-03-28T09:28:52.155Z</time></trkpt><trkpt lat="45.9332767" lon="12.9588233"><ele>31.0</ele><time>2026-03-28T09:28:53.155Z</time></trkpt><trkpt lat="45.9334417" lon="12.9589117"><ele>31.666666666666668</ele><time>2026-03-28T09:28:54.155Z</time></trkpt><trkpt lat="45.9336133" lon="12.959"><ele>32.333333333333336</ele><time>2026-03-28T09:28:55.155Z</time></trkpt><trkpt lat="45.93378" lon="12.9590833"><ele>33.0</ele><time>2026-03-28T09:28:56.155Z</time></trkpt><trkpt lat="45.9339433" lon="12.959165"><ele>32.666666666666664</ele><time>2026-03-28T09:28:57.155Z</time></trkpt><trkpt lat="45.93411" lon="12.9592483"><ele>32.33333333333333</ele><time>2026-03-28T09:28:58.156Z</time></trkpt><trkpt lat="45.9342767" lon="12.9593333"><ele>32.0</ele><time>2026-03-28T09:28:59.155Z</time></trkpt><trkpt lat="45.9344433" lon="12.9594183"><ele>32.0</ele><time>2026-03-28T09:29:00.155Z</time></trkpt><trkpt lat="45.9346117" lon="12.9595033"><ele>32.0</ele><time>2026-03-28T09:29:01.155Z</time></trkpt><trkpt lat="45.9347833" lon="12.959595"><ele>32.0</ele><time>2026-03-28T09:29:02.156Z</time></trkpt><trkpt lat="45.9349633" lon="12.9596867"><ele>32.0</ele><time>2026-03-28T09:29:03.155Z</time></trkpt><trkpt lat="45.935145" lon="12.9597817"><ele>32.0</ele><time>2026-03-28T09:29:04.155Z</time></trkpt><trkpt lat="45.9353333" lon="12.95988"><ele>32.0</ele><time>2026-03-28T09:29:05.155Z</time></trkpt><trkpt lat="45.9355217" lon="12.959975"><ele>32.0</ele><time>2026-03-28T09:29:06.155Z</time></trkpt><trkpt lat="45.93571" lon="12.9600717"><ele>32.0</ele><time>2026-03-28T09:29:07.155Z</time></trkpt><trkpt lat="45.9359017" lon="12.96017"><ele>32.0</ele><time>2026-03-28T09:29:08.155Z</time></trkpt><trkpt lat="45.9360967" lon="12.960265"><ele>32.0</ele><time>2026-03-28T09:29:09.155Z</time></trkpt><trkpt lat="45.9362917" lon="12.9603633"><ele>32.0</ele><time>2026-03-28T09:29:10.155Z</time></trkpt><trkpt lat="45.93649" lon="12.9604667"><ele>32.0</ele><time>2026-03-28T09:29:11.155Z</time></trkpt><trkpt lat="45.9366883" lon="12.9605667"><ele>32.0</ele><time>2026-03-28T09:29:12.155Z</time></trkpt><trkpt lat="45.9368933" lon="12.9606733"><ele>32.0</ele><time>2026-03-28T09:29:13.155Z</time></trkpt><trkpt lat="45.9370967" lon="12.96078"><ele>32.0</ele><time>2026-03-28T09:29:14.155Z</time></trkpt><trkpt lat="45.9373" lon="12.9608917"><ele>32.0</ele><time>2026-03-28T09:29:15.155Z</time></trkpt><trkpt lat="45.9375083" lon="12.9609983"><ele>32.0</ele><time>2026-03-28T09:29:16.156Z</time></trkpt><trkpt lat="45.9377167" lon="12.9611033"><ele>32.0</ele><time>2026-03-28T09:29:17.155Z</time></trkpt><trkpt lat="45.9379267" lon="12.96121"><ele>31.5</ele><time>2026-03-28T09:29:18.155Z</time></trkpt><trkpt lat="45.9381383" lon="12.9613183"><ele>31.0</ele><time>2026-03-28T09:29:19.155Z</time></trkpt><trkpt lat="45.93835" lon="12.9614283"><ele>31.5</ele><time>2026-03-28T09:29:20.155Z</time></trkpt><trkpt lat="45.9385633" lon="12.9615317"><ele>32.0</ele><time>2026-03-28T09:29:21.155Z</time></trkpt><trkpt lat="45.9387767" lon="12.9616367"><ele>32.0</ele><time>2026-03-28T09:29:22.155Z</time></trkpt><trkpt lat="45.9389833" lon="12.9617417"><ele>32.0</ele><time>2026-03-28T09:29:23.155Z</time></trkpt><trkpt lat="45.939185" lon="12.9618433"><ele>32.0</ele><time>2026-03-28T09:29:24.155Z</time></trkpt><trkpt lat="45.939385" lon="12.9619517"><ele>32.0</ele><time>2026-03-28T09:29:25.155Z</time></trkpt><trkpt lat="45.9395933" lon="12.9620517"><ele>32.0</ele><time>2026-03-28T09:29:26.155Z</time></trkpt><trkpt lat="45.9397933" lon="12.96215"><ele>32.0</ele><time>2026-03-28T09:29:27.155Z</time></trkpt><trkpt lat="45.9399933" lon="12.9622567"><ele>32.0</ele><time>2026-03-28T09:29:28.155Z</time></trkpt><trkpt lat="45.9401967" lon="12.962365"><ele>32.0</ele><time>2026-03-28T09:29:29.155Z</time></trkpt><trkpt lat="45.9404017" lon="12.9624717"><ele>32.0</ele><time>2026-03-28T09:29:30.155Z</time></trkpt><trkpt lat="45.9406033" lon="12.962575"><ele>32.33333333333333</ele><time>2026-03-28T09:29:31.155Z</time></trkpt><trkpt lat="45.9408067" lon="12.9626817"><ele>32.666666666666664</ele><time>2026-03-28T09:29:32.155Z</time></trkpt><trkpt lat="45.9410017" lon="12.96278"><ele>33.0</ele><time>2026-03-28T09:29:33.155Z</time></trkpt><trkpt lat="45.9412" lon="12.96288"><ele>33.0</ele><time>2026-03-28T09:29:34.155Z</time></trkpt><trkpt lat="45.941395" lon="12.9629833"><ele>33.0</ele><time>2026-03-28T09:29:35.155Z</time></trkpt><trkpt lat="45.94158" lon="12.9630817"><ele>33.0</ele><time>2026-03-28T09:29:36.155Z</time></trkpt><trkpt lat="45.9417567" lon="12.9631633"><ele>33.333333333333336</ele><time>2026-03-28T09:29:37.155Z</time></trkpt><trkpt lat="45.941915" lon="12.963245"><ele>33.66666666666667</ele><time>2026-03-28T09:29:38.155Z</time></trkpt><trkpt lat="45.9420567" lon="12.9633217"><ele>34.0</ele><time>2026-03-28T09:29:39.155Z</time></trkpt><trkpt lat="45.9421867" lon="12.9634083"><ele>34.25</ele><time>2026-03-28T09:29:40.156Z</time></trkpt><trkpt lat="45.94231" lon="12.963495"><ele>34.5</ele><time>2026-03-28T09:29:41.155Z</time></trkpt><trkpt lat="45.9424067" lon="12.96359"><ele>34.75</ele><time>2026-03-28T09:29:42.155Z</time></trkpt><trkpt lat="45.942505" lon="12.9636883"><ele>35.0</ele><time>2026-03-28T09:29:43.155Z</time></trkpt><trkpt lat="45.9426133" lon="12.9637933"><ele>35.0</ele><time>2026-03-28T09:29:44.155Z</time></trkpt><trkpt lat="45.9427383" lon="12.9639033"><ele>35.0</ele><time>2026-03-28T09:29:45.155Z</time></trkpt><trkpt lat="45.9428733" lon="12.964005"><ele>35.0</ele><time>2026-03-28T09:29:46.156Z</time></trkpt><trkpt lat="45.9430067" lon="12.9641033"><ele>35.0</ele><time>2026-03-28T09:29:47.156Z</time></trkpt><trkpt lat="45.9431417" lon="12.9641933"><ele>35.0</ele><time>2026-03-28T09:29:48.155Z</time></trkpt><trkpt lat="45.9432767" lon="12.9642833"><ele>35.0</ele><time>2026-03-28T09:29:49.155Z</time></trkpt><trkpt lat="45.9434217" lon="12.96437"><ele>35.0</ele><time>2026-03-28T09:29:50.156Z</time></trkpt><trkpt lat="45.9435617" lon="12.9644567"><ele>35.25</ele><time>2026-03-28T09:29:51.156Z</time></trkpt><trkpt lat="45.9437017" lon="12.9645383"><ele>35.5</ele><time>2026-03-28T09:29:52.155Z</time></trkpt><trkpt lat="45.9438367" lon="12.9646283"><ele>35.75</ele><time>2026-03-28T09:29:53.155Z</time></trkpt><trkpt lat="45.943955" lon="12.96471"><ele>36.0</ele><time>2026-03-28T09:29:54.155Z</time></trkpt><trkpt lat="45.9440533" lon="12.9647967"><ele>36.0</ele><time>2026-03-28T09:29:55.155Z</time></trkpt><trkpt lat="45.94414" lon="12.9648833"><ele>36.0</ele><time>2026-03-28T09:29:56.156Z</time></trkpt><trkpt lat="45.944215" lon="12.96496"><ele>36.0</ele><time>2026-03-28T09:29:57.155Z</time></trkpt><trkpt lat="45.9442767" lon="12.96504"><ele>36.0</ele><time>2026-03-28T09:29:58.155Z</time></trkpt><trkpt lat="45.9443267" lon="12.9651133"><ele>36.0</ele><time>2026-03-28T09:29:59.156Z</time></trkpt><trkpt lat="45.9444033" lon="12.9651883"><ele>36.0</ele><time>2026-03-28T09:30:01.155Z</time></trkpt><trkpt lat="45.9444867" lon="12.9651417"><ele>35.833333333333336</ele><time>2026-03-28T09:30:03.155Z</time></trkpt><trkpt lat="45.9445383" lon="12.9650683"><ele>35.666666666666664</ele><time>2026-03-28T09:30:04.156Z</time></trkpt><trkpt lat="45.9445967" lon="12.9649717"><ele>35.5</ele><time>2026-03-28T09:30:05.155Z</time></trkpt><trkpt lat="45.9446467" lon="12.96487"><ele>35.33333333333333</ele><time>2026-03-28T09:30:06.155Z</time></trkpt><trkpt lat="45.9446933" lon="12.964765"><ele>35.166666666666664</ele><time>2026-03-28T09:30:07.155Z</time></trkpt><trkpt lat="45.9447467" lon="12.9646467"><ele>35.0</ele><time>2026-03-28T09:30:08.155Z</time></trkpt><trkpt lat="45.9448033" lon="12.964525"><ele>34.8</ele><time>2026-03-28T09:30:09.156Z</time></trkpt><trkpt lat="45.9448667" lon="12.9644033"><ele>34.6</ele><time>2026-03-28T09:30:10.155Z</time></trkpt><trkpt lat="45.9449233" lon="12.96428"><ele>34.4</ele><time>2026-03-28T09:30:11.155Z</time></trkpt><trkpt lat="45.9449767" lon="12.964155"><ele>34.2</ele><time>2026-03-28T09:30:12.155Z</time></trkpt><trkpt lat="45.9450283" lon="12.9640383"><ele>34.0</ele><time>2026-03-28T09:30:13.155Z</time></trkpt><trkpt lat="45.9450683" lon="12.963935"><ele>34.0</ele><time>2026-03-28T09:30:14.155Z</time></trkpt><trkpt lat="45.9450967" lon="12.963835"><ele>34.0</ele><time>2026-03-28T09:30:15.156Z</time></trkpt><trkpt lat="45.94512" lon="12.9637283"><ele>34.0</ele><time>2026-03-28T09:30:16.155Z</time></trkpt><trkpt lat="45.9451383" lon="12.963595"><ele>34.0</ele><time>2026-03-28T09:30:17.155Z</time></trkpt><trkpt lat="45.94516" lon="12.963445"><ele>34.0</ele><time>2026-03-28T09:30:18.155Z</time></trkpt><trkpt lat="45.94518" lon="12.9632933"><ele>34.16666666666667</ele><time>2026-03-28T09:30:19.155Z</time></trkpt><trkpt lat="45.945195" lon="12.963155"><ele>34.333333333333336</ele><time>2026-03-28T09:30:20.156Z</time></trkpt><trkpt lat="45.945215" lon="12.9630333"><ele>34.5</ele><time>2026-03-28T09:30:21.155Z</time></trkpt><trkpt lat="45.9452417" lon="12.9629283"><ele>34.666666666666664</ele><time>2026-03-28T09:30:22.156Z</time></trkpt><trkpt lat="45.9452767" lon="12.9628367"><ele>34.83333333333333</ele><time>2026-03-28T09:30:23.155Z</time></trkpt><trkpt lat="45.9453167" lon="12.9627483"><ele>35.0</ele><time>2026-03-28T09:30:24.156Z</time></trkpt><trkpt lat="45.94537" lon="12.9626617"><ele>35.0</ele><time>2026-03-28T09:30:25.155Z</time></trkpt><trkpt lat="45.9454417" lon="12.962575"><ele>35.0</ele><time>2026-03-28T09:30:26.156Z</time></trkpt><trkpt lat="45.94554" lon="12.962475"><ele>35.0</ele><time>2026-03-28T09:30:27.155Z</time></trkpt><trkpt lat="45.9456467" lon="12.9623733"><ele>35.0</ele><time>2026-03-28T09:30:28.155Z</time></trkpt><trkpt lat="45.9457517" lon="12.96226"><ele>35.25</ele><time>2026-03-28T09:30:29.156Z</time></trkpt><trkpt lat="45.94585" lon="12.9621417"><ele>35.5</ele><time>2026-03-28T09:30:30.156Z</time></trkpt><trkpt lat="45.9459283" lon="12.9620133"><ele>35.75</ele><time>2026-03-28T09:30:31.155Z</time></trkpt><trkpt lat="45.9459883" lon="12.9618817"><ele>36.0</ele><time>2026-03-28T09:30:32.156Z</time></trkpt><trkpt lat="45.94603" lon="12.9617567"><ele>35.85714285714286</ele><time>2026-03-28T09:30:33.155Z</time></trkpt><trkpt lat="45.9460583" lon="12.961645"><ele>35.714285714285715</ele><time>2026-03-28T09:30:34.155Z</time></trkpt><trkpt lat="45.94608" lon="12.9615433"><ele>35.57142857142857</ele><time>2026-03-28T09:30:35.155Z</time></trkpt><trkpt lat="45.9460917" lon="12.9614533"><ele>35.42857142857143</ele><time>2026-03-28T09:30:36.155Z</time></trkpt><trkpt lat="45.9460867" lon="12.9613617"><ele>35.285714285714285</ele><time>2026-03-28T09:30:37.155Z</time></trkpt><trkpt lat="45.9460633" lon="12.96127"><ele>35.142857142857146</ele><time>2026-03-28T09:30:38.156Z</time></trkpt><trkpt lat="45.94601" lon="12.9611583"><ele>35.0</ele><time>2026-03-28T09:30:39.155Z</time></trkpt><trkpt lat="45.94593" lon="12.9610267"><ele>35.2</ele><time>2026-03-28T09:30:40.155Z</time></trkpt><trkpt lat="45.9458267" lon="12.960875"><ele>35.4</ele><time>2026-03-28T09:30:41.155Z</time></trkpt><trkpt lat="45.945745" lon="12.960755"><ele>35.6</ele><time>2026-03-28T09:30:42.155Z</time></trkpt><trkpt lat="45.94568" lon="12.9606533"><ele>35.8</ele><time>2026-03-28T09:30:43.155Z</time></trkpt><trkpt lat="45.9456267" lon="12.960565"><ele>36.0</ele><time>2026-03-28T09:30:44.155Z</time></trkpt><trkpt lat="45.94559" lon="12.9604833"><ele>35.8</ele><time>2026-03-28T09:30:45.155Z</time></trkpt><trkpt lat="45.945565" lon="12.9603767"><ele>35.6</ele><time>2026-03-28T09:30:46.155Z</time></trkpt><trkpt lat="45.9455417" lon="12.96021"><ele>35.4</ele><time>2026-03-28T09:30:47.155Z</time></trkpt><trkpt lat="45.9455283" lon="12.960035"><ele>35.2</ele><time>2026-03-28T09:30:48.155Z</time></trkpt><trkpt lat="45.945525" lon="12.9598833"><ele>35.0</ele><time>2026-03-28T09:30:49.155Z</time></trkpt><trkpt lat="45.9455267" lon="12.9597467"><ele>35.0</ele><time>2026-03-28T09:30:50.155Z</time></trkpt><trkpt lat="45.9455217" lon="12.95962"><ele>35.0</ele><time>2026-03-28T09:30:51.156Z</time></trkpt><trkpt lat="45.9454967" lon="12.9594883"><ele>35.0</ele><time>2026-03-28T09:30:52.155Z</time></trkpt><trkpt lat="45.9454517" lon="12.9593567"><ele>35.0</ele><time>2026-03-28T09:30:53.156Z</time></trkpt><trkpt lat="45.945395" lon="12.9592117"><ele>35.0</ele><time>2026-03-28T09:30:54.155Z</time></trkpt><trkpt lat="45.9453283" lon="12.9590767"><ele>35.0</ele><time>2026-03-28T09:30:55.155Z</time></trkpt><trkpt lat="45.9452683" lon="12.9589183"><ele>35.0</ele><time>2026-03-28T09:30:56.155Z</time></trkpt><trkpt lat="45.9452117" lon="12.9587467"><ele>35.0</ele><time>2026-03-28T09:30:57.155Z</time></trkpt><trkpt lat="45.9451567" lon="12.9585817"><ele>35.0</ele><time>2026-03-28T09:30:58.156Z</time></trkpt><trkpt lat="45.9451067" lon="12.9584233"><ele>35.25</ele><time>2026-03-28T09:30:59.156Z</time></trkpt><trkpt lat="45.9450483" lon="12.958255"><ele>35.5</ele><time>2026-03-28T09:31:00.156Z</time></trkpt><trkpt lat="45.944975" lon="12.9580783"><ele>35.75</ele><time>2026-03-28T09:31:01.155Z</time></trkpt><trkpt lat="45.9449017" lon="12.95791"><ele>36.0</ele><time>2026-03-28T09:31:02.155Z</time></trkpt><trkpt lat="45.9448283" lon="12.9577433"><ele>36.0</ele><time>2026-03-28T09:31:03.156Z</time></trkpt><trkpt lat="45.9447533" lon="12.9575767"><ele>36.0</ele><time>2026-03-28T09:31:04.156Z</time></trkpt><trkpt lat="45.9446733" lon="12.9574067"><ele>36.0</ele><time>2026-03-28T09:31:05.155Z</time></trkpt><trkpt lat="45.9445983" lon="12.9572433"><ele>36.0</ele><time>2026-03-28T09:31:06.155Z</time></trkpt><trkpt lat="45.9445217" lon="12.9570817"><ele>35.6</ele><time>2026-03-28T09:31:07.156Z</time></trkpt><trkpt lat="45.9444533" lon="12.9569317"><ele>35.2</ele><time>2026-03-28T09:31:08.155Z</time></trkpt><trkpt lat="45.9443933" lon="12.9568"><ele>34.8</ele><time>2026-03-28T09:31:09.155Z</time></trkpt><trkpt lat="45.94433" lon="12.956685"><ele>34.4</ele><time>2026-03-28T09:31:10.156Z</time></trkpt><trkpt lat="45.9442733" lon="12.9565667"><ele>34.0</ele><time>2026-03-28T09:31:11.155Z</time></trkpt><trkpt lat="45.94423" lon="12.956455"><ele>34.25</ele><time>2026-03-28T09:31:12.155Z</time></trkpt><trkpt lat="45.9441933" lon="12.956325"><ele>34.5</ele><time>2026-03-28T09:31:13.156Z</time></trkpt><trkpt lat="45.944155" lon="12.9561767"><ele>34.75</ele><time>2026-03-28T09:31:14.155Z</time></trkpt><trkpt lat="45.944115" lon="12.9560133"><ele>35.0</ele><time>2026-03-28T09:31:15.155Z</time></trkpt><trkpt lat="45.94407" lon="12.9558333"><ele>35.33333333333333</ele><time>2026-03-28T09:31:16.156Z</time></trkpt><trkpt lat="45.9440217" lon="12.9556383"><ele>35.666666666666664</ele><time>2026-03-28T09:31:17.155Z</time></trkpt><trkpt lat="45.9439583" lon="12.955405"><ele>36.0</ele><time>2026-03-28T09:31:18.155Z</time></trkpt><trkpt lat="45.9438817" lon="12.955135"><ele>36.0</ele><time>2026-03-28T09:31:19.155Z</time></trkpt><trkpt lat="45.9437933" lon="12.9548367"><ele>36.0</ele><time>2026-03-28T09:31:20.155Z</time></trkpt><trkpt lat="45.9437183" lon="12.9545683"><ele>36.0</ele><time>2026-03-28T09:31:21.155Z</time></trkpt><trkpt lat="45.9436517" lon="12.95433"><ele>35.666666666666664</ele><time>2026-03-28T09:31:22.155Z</time></trkpt><trkpt lat="45.9435867" lon="12.9541017"><ele>35.33333333333333</ele><time>2026-03-28T09:31:23.156Z</time></trkpt><trkpt lat="45.9435167" lon="12.9538967"><ele>35.0</ele><time>2026-03-28T09:31:24.155Z</time></trkpt><trkpt lat="45.94344" lon="12.9536967"><ele>34.666666666666664</ele><time>2026-03-28T09:31:25.155Z</time></trkpt><trkpt lat="45.9433667" lon="12.9534783"><ele>34.333333333333336</ele><time>2026-03-28T09:31:26.155Z</time></trkpt><trkpt lat="45.943285" lon="12.95325"><ele>34.0</ele><time>2026-03-28T09:31:27.155Z</time></trkpt><trkpt lat="45.9432033" lon="12.95302"><ele>34.0</ele><time>2026-03-28T09:31:28.155Z</time></trkpt><trkpt lat="45.943115" lon="12.95277"><ele>34.0</ele><time>2026-03-28T09:31:29.155Z</time></trkpt><trkpt lat="45.943025" lon="12.9525133"><ele>34.0</ele><time>2026-03-28T09:31:30.155Z</time></trkpt><trkpt lat="45.9429433" lon="12.95228"><ele>34.0</ele><time>2026-03-28T09:31:31.156Z</time></trkpt><trkpt lat="45.942865" lon="12.9520583"><ele>34.0</ele><time>2026-03-28T09:31:32.156Z</time></trkpt><trkpt lat="45.9427917" lon="12.9518433"><ele>34.0</ele><time>2026-03-28T09:31:33.156Z</time></trkpt><trkpt lat="45.9427183" lon="12.9516433"><ele>34.0</ele><time>2026-03-28T09:31:34.155Z</time></trkpt><trkpt lat="45.9426517" lon="12.9514517"><ele>34.0</ele><time>2026-03-28T09:31:35.155Z</time></trkpt><trkpt lat="45.9425867" lon="12.9512667"><ele>34.0</ele><time>2026-03-28T09:31:36.155Z</time></trkpt><trkpt lat="45.9425267" lon="12.9510933"><ele>34.0</ele><time>2026-03-28T09:31:37.155Z</time></trkpt><trkpt lat="45.942465" lon="12.95093"><ele>34.0</ele><time>2026-03-28T09:31:38.156Z</time></trkpt><trkpt lat="45.9424083" lon="12.9507933"><ele>34.0</ele><time>2026-03-28T09:31:39.155Z</time></trkpt><trkpt lat="45.9423667" lon="12.950685"><ele>34.0</ele><time>2026-03-28T09:31:40.156Z</time></trkpt><trkpt lat="45.9423283" lon="12.9505833"><ele>34.0</ele><time>2026-03-28T09:31:41.156Z</time></trkpt><trkpt lat="45.9422967" lon="12.9504717"><ele>34.0</ele><time>2026-03-28T09:31:42.155Z</time></trkpt><trkpt lat="45.9422617" lon="12.9503367"><ele>34.0</ele><time>2026-03-28T09:31:43.156Z</time></trkpt><trkpt lat="45.94223" lon="12.9501733"><ele>34.0</ele><time>2026-03-28T09:31:44.155Z</time></trkpt><trkpt lat="45.9422" lon="12.949995"><ele>34.0</ele><time>2026-03-28T09:31:45.155Z</time></trkpt><trkpt lat="45.9421683" lon="12.949825"><ele>34.0</ele><time>2026-03-28T09:31:46.155Z</time></trkpt><trkpt lat="45.9421333" lon="12.9496667"><ele>34.2</ele><time>2026-03-28T09:31:47.155Z</time></trkpt><trkpt lat="45.94209" lon="12.94952"><ele>34.4</ele><time>2026-03-28T09:31:48.155Z</time></trkpt><trkpt lat="45.9420533" lon="12.9493867"><ele>34.6</ele><time>2026-03-28T09:31:49.156Z</time></trkpt><trkpt lat="45.942035" lon="12.9492533"><ele>34.8</ele><time>2026-03-28T09:31:50.155Z</time></trkpt><trkpt lat="45.94203" lon="12.9491217"><ele>35.0</ele><time>2026-03-28T09:31:51.155Z</time></trkpt><trkpt lat="45.9420283" lon="12.949"><ele>35.0</ele><time>2026-03-28T09:31:52.155Z</time></trkpt><trkpt lat="45.9420217" lon="12.9488867"><ele>35.0</ele><time>2026-03-28T09:31:53.155Z</time></trkpt><trkpt lat="45.9420167" lon="12.9487717"><ele>35.0</ele><time>2026-03-28T09:31:54.156Z</time></trkpt><trkpt lat="45.9419967" lon="12.9486483"><ele>35.0</ele><time>2026-03-28T09:31:55.155Z</time></trkpt><trkpt lat="45.9419783" lon="12.9485317"><ele>35.0</ele><time>2026-03-28T09:31:56.155Z</time></trkpt><trkpt lat="45.9419417" lon="12.9484217"><ele>35.0</ele><time>2026-03-28T09:31:57.155Z</time></trkpt><trkpt lat="45.9418883" lon="12.9483167"><ele>34.75</ele><time>2026-03-28T09:31:58.155Z</time></trkpt><trkpt lat="45.9418017" lon="12.9482017"><ele>34.5</ele><time>2026-03-28T09:31:59.155Z</time></trkpt><trkpt lat="45.94169" lon="12.94807"><ele>34.25</ele><time>2026-03-28T09:32:00.155Z</time></trkpt><trkpt lat="45.9415667" lon="12.9479317"><ele>34.0</ele><time>2026-03-28T09:32:01.156Z</time></trkpt><trkpt lat="45.941435" lon="12.9478"><ele>33.66666666666667</ele><time>2026-03-28T09:32:02.155Z</time></trkpt><trkpt lat="45.9413083" lon="12.9476667"><ele>33.333333333333336</ele><time>2026-03-28T09:32:03.155Z</time></trkpt><trkpt lat="45.94118" lon="12.9475433"><ele>33.0</ele><time>2026-03-28T09:32:04.155Z</time></trkpt><trkpt lat="45.9410617" lon="12.9474283"><ele>33.0</ele><time>2026-03-28T09:32:05.156Z</time></trkpt><trkpt lat="45.9409483" lon="12.9473133"><ele>33.0</ele><time>2026-03-28T09:32:06.155Z</time></trkpt><trkpt lat="45.9408433" lon="12.9472083"><ele>33.0</ele><time>2026-03-28T09:32:07.156Z</time></trkpt><trkpt lat="45.9407517" lon="12.947105"><ele>33.0</ele><time>2026-03-28T09:32:08.155Z</time></trkpt><trkpt lat="45.9406683" lon="12.947"><ele>33.0</ele><time>2026-03-28T09:32:09.155Z</time></trkpt><trkpt lat="45.940585" lon="12.946885"><ele>33.0</ele><time>2026-03-28T09:32:10.155Z</time></trkpt><trkpt lat="45.9404933" lon="12.94676"><ele>33.0</ele><time>2026-03-28T09:32:11.155Z</time></trkpt><trkpt lat="45.94041" lon="12.9466383"><ele>33.0</ele><time>2026-03-28T09:32:12.155Z</time></trkpt><trkpt lat="45.9403233" lon="12.946505"><ele>33.0</ele><time>2026-03-28T09:32:13.155Z</time></trkpt><trkpt lat="45.94021" lon="12.9463767"><ele>33.0</ele><time>2026-03-28T09:32:14.155Z</time></trkpt><trkpt lat="45.940085" lon="12.9462517"><ele>33.0</ele><time>2026-03-28T09:32:15.155Z</time></trkpt><trkpt lat="45.9399717" lon="12.9461467"><ele>33.0</ele><time>2026-03-28T09:32:16.155Z</time></trkpt><trkpt lat="45.9398767" lon="12.94606"><ele>33.0</ele><time>2026-03-28T09:32:17.155Z</time></trkpt><trkpt lat="45.939815" lon="12.94599"><ele>33.0</ele><time>2026-03-28T09:32:18.155Z</time></trkpt><trkpt lat="45.9397317" lon="12.9459067"><ele>33.0</ele><time>2026-03-28T09:32:20.156Z</time></trkpt><trkpt lat="45.9396717" lon="12.9458217"><ele>33.0</ele><time>2026-03-28T09:32:22.155Z</time></trkpt><trkpt lat="45.9396117" lon="12.9457517"><ele>33.0</ele><time>2026-03-28T09:32:24.155Z</time></trkpt><trkpt lat="45.9395117" lon="12.9456533"><ele>33.0</ele><time>2026-03-28T09:32:26.155Z</time></trkpt><trkpt lat="45.9394633" lon="12.945585"><ele>33.0</ele><time>2026-03-28T09:32:27.155Z</time></trkpt><trkpt lat="45.9394217" lon="12.9455117"><ele>33.0</ele><time>2026-03-28T09:32:28.155Z</time></trkpt><trkpt lat="45.9393983" lon="12.9454233"><ele>33.0</ele><time>2026-03-28T09:32:29.155Z</time></trkpt><trkpt lat="45.93939" lon="12.94533"><ele>33.0</ele><time>2026-03-28T09:32:30.155Z</time></trkpt><trkpt lat="45.9393883" lon="12.9452183"><ele>33.0</ele><time>2026-03-28T09:32:31.156Z</time></trkpt><trkpt lat="45.9394" lon="12.9450717"><ele>33.0</ele><time>2026-03-28T09:32:32.155Z</time></trkpt><trkpt lat="45.9394267" lon="12.944885"><ele>33.0</ele><time>2026-03-28T09:32:33.155Z</time></trkpt><trkpt lat="45.9394633" lon="12.94469"><ele>33.0</ele><time>2026-03-28T09:32:34.155Z</time></trkpt><trkpt lat="45.9394933" lon="12.94449"><ele>33.0</ele><time>2026-03-28T09:32:35.155Z</time></trkpt><trkpt lat="45.9395183" lon="12.9442833"><ele>33.0</ele><time>2026-03-28T09:32:36.155Z</time></trkpt><trkpt lat="45.93953" lon="12.9440983"><ele>33.0</ele><time>2026-03-28T09:32:37.155Z</time></trkpt><trkpt lat="45.9395417" lon="12.9439267"><ele>33.0</ele><time>2026-03-28T09:32:38.155Z</time></trkpt><trkpt lat="45.9395367" lon="12.94375"><ele>33.0</ele><time>2026-03-28T09:32:39.156Z</time></trkpt><trkpt lat="45.9395283" lon="12.9435767"><ele>33.0</ele><time>2026-03-28T09:32:40.155Z</time></trkpt><trkpt lat="45.9395033" lon="12.9434183"><ele>33.0</ele><time>2026-03-28T09:32:41.155Z</time></trkpt><trkpt lat="45.9394717" lon="12.943255"><ele>33.0</ele><time>2026-03-28T09:32:42.155Z</time></trkpt><trkpt lat="45.9394283" lon="12.943105"><ele>33.0</ele><time>2026-03-28T09:32:43.155Z</time></trkpt><trkpt lat="45.939365" lon="12.9429567"><ele>33.0</ele><time>2026-03-28T09:32:44.156Z</time></trkpt><trkpt lat="45.9392733" lon="12.9427883"><ele>33.0</ele><time>2026-03-28T09:32:45.155Z</time></trkpt><trkpt lat="45.939175" lon="12.9426267"><ele>33.0</ele><time>2026-03-28T09:32:46.156Z</time></trkpt><trkpt lat="45.9390867" lon="12.9424867"><ele>33.0</ele><time>2026-03-28T09:32:47.155Z</time></trkpt><trkpt lat="45.9390133" lon="12.942365"><ele>33.0</ele><time>2026-03-28T09:32:48.155Z</time></trkpt><trkpt lat="45.938965" lon="12.9422483"><ele>33.0</ele><time>2026-03-28T09:32:49.155Z</time></trkpt><trkpt lat="45.9389333" lon="12.9421183"><ele>33.0</ele><time>2026-03-28T09:32:50.155Z</time></trkpt><trkpt lat="45.9389217" lon="12.9419667"><ele>33.0</ele><time>2026-03-28T09:32:51.155Z</time></trkpt><trkpt lat="45.9389283" lon="12.94179"><ele>33.0</ele><time>2026-03-28T09:32:52.155Z</time></trkpt><trkpt lat="45.9389383" lon="12.9416033"><ele>33.0</ele><time>2026-03-28T09:32:53.155Z</time></trkpt><trkpt lat="45.9389383" lon="12.9414367"><ele>33.0</ele><time>2026-03-28T09:32:54.155Z</time></trkpt><trkpt lat="45.9389267" lon="12.9412817"><ele>33.0</ele><time>2026-03-28T09:32:55.156Z</time></trkpt><trkpt lat="45.9389033" lon="12.9411383"><ele>33.0</ele><time>2026-03-28T09:32:56.155Z</time></trkpt><trkpt lat="45.9388717" lon="12.941025"><ele>33.0</ele><time>2026-03-28T09:32:57.155Z</time></trkpt><trkpt lat="45.938845" lon="12.94094"><ele>33.0</ele><time>2026-03-28T09:32:58.155Z</time></trkpt><trkpt lat="45.9388183" lon="12.9408283"><ele>33.0</ele><time>2026-03-28T09:33:00.155Z</time></trkpt><trkpt lat="45.938885" lon="12.9407567"><ele>33.0</ele><time>2026-03-28T09:33:03.155Z</time></trkpt><trkpt lat="45.9389833" lon="12.9408"><ele>33.0</ele><time>2026-03-28T09:33:05.155Z</time></trkpt><trkpt lat="45.9390683" lon="12.9408517"><ele>33.0</ele><time>2026-03-28T09:33:06.155Z</time></trkpt><trkpt lat="45.9391717" lon="12.9409067"><ele>33.25</ele><time>2026-03-28T09:33:07.155Z</time></trkpt><trkpt lat="45.93929" lon="12.940975"><ele>33.5</ele><time>2026-03-28T09:33:08.156Z</time></trkpt><trkpt lat="45.9394183" lon="12.9410433"><ele>33.75</ele><time>2026-03-28T09:33:09.155Z</time></trkpt><trkpt lat="45.9395417" lon="12.9411183"><ele>34.0</ele><time>2026-03-28T09:33:10.155Z</time></trkpt><trkpt lat="45.939655" lon="12.9411817"><ele>34.0</ele><time>2026-03-28T09:33:11.155Z</time></trkpt><trkpt lat="45.9397633" lon="12.941235"><ele>34.0</ele><time>2026-03-28T09:33:12.155Z</time></trkpt><trkpt lat="45.939865" lon="12.94129"><ele>34.0</ele><time>2026-03-28T09:33:13.156Z</time></trkpt><trkpt lat="45.93998" lon="12.9413533"><ele>34.0</ele><time>2026-03-28T09:33:14.155Z</time></trkpt><trkpt lat="45.9401033" lon="12.941425"><ele>34.25</ele><time>2026-03-28T09:33:15.155Z</time></trkpt><trkpt lat="45.9402333" lon="12.9415017"><ele>34.5</ele><time>2026-03-28T09:33:16.155Z</time></trkpt><trkpt lat="45.9403667" lon="12.9415833"><ele>34.75</ele><time>2026-03-28T09:33:17.155Z</time></trkpt><trkpt lat="45.9404983" lon="12.9416633"><ele>35.0</ele><time>2026-03-28T09:33:18.155Z</time></trkpt><trkpt lat="45.9406133" lon="12.9417533"><ele>35.0</ele><time>2026-03-28T09:33:19.155Z</time></trkpt><trkpt lat="45.9407133" lon="12.9418467"><ele>35.0</ele><time>2026-03-28T09:33:20.155Z</time></trkpt><trkpt lat="45.9408017" lon="12.94195"><ele>35.0</ele><time>2026-03-28T09:33:21.156Z</time></trkpt><trkpt lat="45.9408833" lon="12.9420533"><ele>35.0</ele><time>2026-03-28T09:33:22.155Z</time></trkpt><trkpt lat="45.9410133" lon="12.9422517"><ele>34.6</ele><time>2026-03-28T09:33:24.156Z</time></trkpt><trkpt lat="45.941055" lon="12.9423283"><ele>34.2</ele><time>2026-03-28T09:33:25.155Z</time></trkpt><trkpt lat="45.9410917" lon="12.9424083"><ele>33.8</ele><time>2026-03-28T09:33:26.155Z</time></trkpt><trkpt lat="45.9411433" lon="12.9425567"><ele>33.4</ele><time>2026-03-28T09:33:28.155Z</time></trkpt><trkpt lat="45.9411833" lon="12.94271"><ele>33.0</ele><time>2026-03-28T09:33:30.155Z</time></trkpt><trkpt lat="45.94122" lon="12.9428617"><ele>33.0</ele><time>2026-03-28T09:33:32.155Z</time></trkpt><trkpt lat="45.94125" lon="12.9429683"><ele>33.0</ele><time>2026-03-28T09:33:34.155Z</time></trkpt><trkpt lat="45.941305" lon="12.9430983"><ele>33.0</ele><time>2026-03-28T09:33:36.155Z</time></trkpt><trkpt lat="45.9413667" lon="12.943235"><ele>33.0</ele><time>2026-03-28T09:33:38.154Z</time></trkpt><trkpt lat="45.941415" lon="12.9433283"><ele>33.0</ele><time>2026-03-28T09:33:39.155Z</time></trkpt><trkpt lat="45.9414817" lon="12.9434433"><ele>33.166666666666664</ele><time>2026-03-28T09:33:40.154Z</time></trkpt><trkpt lat="45.9415467" lon="12.9435417"><ele>33.333333333333336</ele><time>2026-03-28T09:33:41.154Z</time></trkpt><trkpt lat="45.9415933" lon="12.943615"><ele>33.5</ele><time>2026-03-28T09:33:42.154Z</time></trkpt><trkpt lat="45.9416467" lon="12.943695"><ele>33.66666666666667</ele><time>2026-03-28T09:33:43.154Z</time></trkpt><trkpt lat="45.9417017" lon="12.9437917"><ele>33.833333333333336</ele><time>2026-03-28T09:33:44.154Z</time></trkpt><trkpt lat="45.9417517" lon="12.9438767"><ele>34.0</ele><time>2026-03-28T09:33:45.155Z</time></trkpt><trkpt lat="45.94183" lon="12.9439867"><ele>34.16666666666667</ele><time>2026-03-28T09:33:47.154Z</time></trkpt><trkpt lat="45.941915" lon="12.9441217"><ele>34.333333333333336</ele><time>2026-03-28T09:33:49.154Z</time></trkpt><trkpt lat="45.9419733" lon="12.944195"><ele>34.5</ele><time>2026-03-28T09:33:50.155Z</time></trkpt><trkpt lat="45.9420333" lon="12.9442783"><ele>34.666666666666664</ele><time>2026-03-28T09:33:51.154Z</time></trkpt><trkpt lat="45.9420967" lon="12.944355"><ele>34.83333333333333</ele><time>2026-03-28T09:33:52.154Z</time></trkpt><trkpt lat="45.9421533" lon="12.94442"><ele>35.0</ele><time>2026-03-28T09:33:53.154Z</time></trkpt><trkpt lat="45.9422233" lon="12.9444717"><ele>35.0</ele><time>2026-03-28T09:33:54.154Z</time></trkpt><trkpt lat="45.9423" lon="12.94451"><ele>35.0</ele><time>2026-03-28T09:33:55.154Z</time></trkpt><trkpt lat="45.9423933" lon="12.9445167"><ele>35.0</ele><time>2026-03-28T09:33:56.154Z</time></trkpt><trkpt lat="45.9424883" lon="12.9445017"><ele>35.0</ele><time>2026-03-28T09:33:57.154Z</time></trkpt><trkpt lat="45.942605" lon="12.9444767"><ele>35.0</ele><time>2026-03-28T09:33:58.154Z</time></trkpt><trkpt lat="45.94275" lon="12.94444"><ele>35.0</ele><time>2026-03-28T09:33:59.155Z</time></trkpt><trkpt lat="45.9428833" lon="12.9444067"><ele>35.0</ele><time>2026-03-28T09:34:00.154Z</time></trkpt><trkpt lat="45.942995" lon="12.94437"><ele>35.0</ele><time>2026-03-28T09:34:01.154Z</time></trkpt><trkpt lat="45.943095" lon="12.9443233"><ele>35.0</ele><time>2026-03-28T09:34:02.154Z</time></trkpt><trkpt lat="45.9431933" lon="12.9442583"><ele>35.2</ele><time>2026-03-28T09:34:03.154Z</time></trkpt><trkpt lat="45.9433017" lon="12.9441733"><ele>35.4</ele><time>2026-03-28T09:34:04.154Z</time></trkpt><trkpt lat="45.9434017" lon="12.9440967"><ele>35.6</ele><time>2026-03-28T09:34:05.154Z</time></trkpt><trkpt lat="45.9434783" lon="12.9440433"><ele>35.8</ele><time>2026-03-28T09:34:06.154Z</time></trkpt><trkpt lat="45.9435467" lon="12.944005"><ele>36.0</ele><time>2026-03-28T09:34:07.154Z</time></trkpt><trkpt lat="45.94361" lon="12.94399"><ele>36.333333333333336</ele><time>2026-03-28T09:34:08.154Z</time></trkpt><trkpt lat="45.943675" lon="12.944"><ele>36.666666666666664</ele><time>2026-03-28T09:34:09.154Z</time></trkpt><trkpt lat="45.94376" lon="12.9440583"><ele>37.0</ele><time>2026-03-28T09:34:11.154Z</time></trkpt><trkpt lat="45.9438267" lon="12.944075"><ele>37.33333333333333</ele><time>2026-03-28T09:34:13.155Z</time></trkpt><trkpt lat="45.943865" lon="12.9439983"><ele>37.666666666666664</ele><time>2026-03-28T09:34:15.154Z</time></trkpt><trkpt lat="45.94389" lon="12.9437783"><ele>38.0</ele><time>2026-03-28T09:34:17.155Z</time></trkpt><trkpt lat="45.9438883" lon="12.94362"><ele>38.0</ele><time>2026-03-28T09:34:18.154Z</time></trkpt><trkpt lat="45.9438633" lon="12.9434483"><ele>38.0</ele><time>2026-03-28T09:34:19.155Z</time></trkpt><trkpt lat="45.943825" lon="12.9432667"><ele>38.0</ele><time>2026-03-28T09:34:20.155Z</time></trkpt><trkpt lat="45.9437767" lon="12.9430567"><ele>38.0</ele><time>2026-03-28T09:34:21.154Z</time></trkpt><trkpt lat="45.9437233" lon="12.9428233"><ele>37.666666666666664</ele><time>2026-03-28T09:34:22.154Z</time></trkpt><trkpt lat="45.9436633" lon="12.9425767"><ele>37.333333333333336</ele><time>2026-03-28T09:34:23.154Z</time></trkpt><trkpt lat="45.9436067" lon="12.9423383"><ele>37.0</ele><time>2026-03-28T09:34:24.155Z</time></trkpt><trkpt lat="45.9435567" lon="12.9421367"><ele>36.75</ele><time>2026-03-28T09:34:25.155Z</time></trkpt><trkpt lat="45.9435083" lon="12.9419533"><ele>36.5</ele><time>2026-03-28T09:34:26.154Z</time></trkpt><trkpt lat="45.943475" lon="12.9417783"><ele>36.25</ele><time>2026-03-28T09:34:27.154Z</time></trkpt><trkpt lat="45.9434283" lon="12.9416067"><ele>36.0</ele><time>2026-03-28T09:34:28.154Z</time></trkpt><trkpt lat="45.94337" lon="12.9414417"><ele>36.0</ele><time>2026-03-28T09:34:29.154Z</time></trkpt><trkpt lat="45.9433" lon="12.9412983"><ele>36.0</ele><time>2026-03-28T09:34:30.155Z</time></trkpt><trkpt lat="45.943235" lon="12.9411817"><ele>36.0</ele><time>2026-03-28T09:34:31.155Z</time></trkpt><trkpt lat="45.9431767" lon="12.9410783"><ele>36.0</ele><time>2026-03-28T09:34:32.154Z</time></trkpt><trkpt lat="45.9431317" lon="12.940985"><ele>36.0</ele><time>2026-03-28T09:34:33.155Z</time></trkpt><trkpt lat="45.9430917" lon="12.9408367"><ele>36.0</ele><time>2026-03-28T09:34:35.154Z</time></trkpt><trkpt lat="45.9430733" lon="12.9407067"><ele>36.0</ele><time>2026-03-28T09:34:37.155Z</time></trkpt><trkpt lat="45.9430567" lon="12.94052"><ele>36.0</ele><time>2026-03-28T09:34:39.155Z</time></trkpt><trkpt lat="45.9430583" lon="12.9404133"><ele>36.0</ele><time>2026-03-28T09:34:40.154Z</time></trkpt><trkpt lat="45.9430683" lon="12.9403017"><ele>36.0</ele><time>2026-03-28T09:34:41.154Z</time></trkpt><trkpt lat="45.94308" lon="12.94019"><ele>36.0</ele><time>2026-03-28T09:34:42.154Z</time></trkpt><trkpt lat="45.943095" lon="12.9400917"><ele>36.0</ele><time>2026-03-28T09:34:43.155Z</time></trkpt><trkpt lat="45.9431133" lon="12.9399517"><ele>36.0</ele><time>2026-03-28T09:34:45.154Z</time></trkpt><trkpt lat="45.94313" lon="12.9397683"><ele>36.0</ele><time>2026-03-28T09:34:47.154Z</time></trkpt><trkpt lat="45.9431417" lon="12.9396233"><ele>36.0</ele><time>2026-03-28T09:34:48.154Z</time></trkpt><trkpt lat="45.9431517" lon="12.9394733"><ele>36.0</ele><time>2026-03-28T09:34:49.154Z</time></trkpt><trkpt lat="45.9431583" lon="12.9393417"><ele>36.0</ele><time>2026-03-28T09:34:50.154Z</time></trkpt><trkpt lat="45.9431667" lon="12.9392267"><ele>36.0</ele><time>2026-03-28T09:34:51.154Z</time></trkpt><trkpt lat="45.943175" lon="12.9391317"><ele>36.0</ele><time>2026-03-28T09:34:52.155Z</time></trkpt><trkpt lat="45.9431783" lon="12.9390333"><ele>36.0</ele><time>2026-03-28T09:34:54.154Z</time></trkpt><trkpt lat="45.9431417" lon="12.9388633"><ele>36.0</ele><time>2026-03-28T09:36:37.154Z</time></trkpt><trkpt lat="45.9430317" lon="12.938705"><ele>36.0</ele><time>2026-03-28T09:36:39.154Z</time></trkpt><trkpt lat="45.9429217" lon="12.9386083"><ele>36.0</ele><time>2026-03-28T09:36:40.154Z</time></trkpt><trkpt lat="45.9428" lon="12.9384933"><ele>36.0</ele><time>2026-03-28T09:36:41.154Z</time></trkpt><trkpt lat="45.9426817" lon="12.9383817"><ele>36.0</ele><time>2026-03-28T09:36:42.154Z</time></trkpt><trkpt lat="45.94257" lon="12.9382717"><ele>36.25</ele><time>2026-03-28T09:36:43.154Z</time></trkpt><trkpt lat="45.942455" lon="12.9381583"><ele>36.5</ele><time>2026-03-28T09:36:44.154Z</time></trkpt><trkpt lat="45.94234" lon="12.9380383"><ele>36.75</ele><time>2026-03-28T09:36:45.154Z</time></trkpt><trkpt lat="45.9422183" lon="12.9379083"><ele>37.0</ele><time>2026-03-28T09:36:46.155Z</time></trkpt><trkpt lat="45.9421017" lon="12.937795"><ele>37.0</ele><time>2026-03-28T09:36:47.154Z</time></trkpt><trkpt lat="45.9419933" lon="12.9377133"><ele>37.0</ele><time>2026-03-28T09:36:48.154Z</time></trkpt><trkpt lat="45.94189" lon="12.9376733"><ele>37.0</ele><time>2026-03-28T09:36:49.154Z</time></trkpt><trkpt lat="45.9417967" lon="12.937665"><ele>37.0</ele><time>2026-03-28T09:36:50.155Z</time></trkpt><trkpt lat="45.9417183" lon="12.9376783"><ele>37.0</ele><time>2026-03-28T09:36:51.154Z</time></trkpt><trkpt lat="45.941655" lon="12.93769"><ele>36.800000000000004</ele><time>2026-03-28T09:36:52.154Z</time></trkpt><trkpt lat="45.94157" lon="12.9376483"><ele>36.6</ele><time>2026-03-28T09:36:54.154Z</time></trkpt><trkpt lat="45.9415367" lon="12.937535"><ele>36.400000000000006</ele><time>2026-03-28T09:36:56.154Z</time></trkpt><trkpt lat="45.941525" lon="12.93743"><ele>36.2</ele><time>2026-03-28T09:36:57.154Z</time></trkpt><trkpt lat="45.9415167" lon="12.9373"><ele>36.0</ele><time>2026-03-28T09:36:58.154Z</time></trkpt><trkpt lat="45.94151" lon="12.9371317"><ele>36.0</ele><time>2026-03-28T09:36:59.154Z</time></trkpt><trkpt lat="45.9415" lon="12.93695"><ele>36.0</ele><time>2026-03-28T09:37:00.154Z</time></trkpt><trkpt lat="45.9414883" lon="12.9367617"><ele>36.0</ele><time>2026-03-28T09:37:01.154Z</time></trkpt><trkpt lat="45.9414783" lon="12.9365767"><ele>36.0</ele><time>2026-03-28T09:37:02.154Z</time></trkpt><trkpt lat="45.94147" lon="12.9364"><ele>36.0</ele><time>2026-03-28T09:37:03.155Z</time></trkpt><trkpt lat="45.9414833" lon="12.9362367"><ele>36.0</ele><time>2026-03-28T09:37:04.154Z</time></trkpt><trkpt lat="45.9415083" lon="12.9360767"><ele>36.0</ele><time>2026-03-28T09:37:05.155Z</time></trkpt><trkpt lat="45.9415417" lon="12.93591"><ele>36.0</ele><time>2026-03-28T09:37:06.154Z</time></trkpt><trkpt lat="45.9415717" lon="12.9357283"><ele>36.0</ele><time>2026-03-28T09:37:07.155Z</time></trkpt><trkpt lat="45.9415917" lon="12.9355467"><ele>36.0</ele><time>2026-03-28T09:37:08.155Z</time></trkpt><trkpt lat="45.9416" lon="12.935355"><ele>36.0</ele><time>2026-03-28T09:37:09.154Z</time></trkpt><trkpt lat="45.941615" lon="12.93518"><ele>36.0</ele><time>2026-03-28T09:37:10.154Z</time></trkpt><trkpt lat="45.94163" lon="12.935015"><ele>36.0</ele><time>2026-03-28T09:37:11.155Z</time></trkpt><trkpt lat="45.9416467" lon="12.9348617"><ele>36.0</ele><time>2026-03-28T09:37:12.154Z</time></trkpt><trkpt lat="45.941675" lon="12.934705"><ele>36.0</ele><time>2026-03-28T09:37:13.154Z</time></trkpt><trkpt lat="45.9417117" lon="12.93454"><ele>36.0</ele><time>2026-03-28T09:37:14.154Z</time></trkpt><trkpt lat="45.9417533" lon="12.9343717"><ele>36.25</ele><time>2026-03-28T09:37:15.154Z</time></trkpt><trkpt lat="45.94181" lon="12.9341983"><ele>36.5</ele><time>2026-03-28T09:37:16.154Z</time></trkpt><trkpt lat="45.94188" lon="12.9340067"><ele>36.75</ele><time>2026-03-28T09:37:17.155Z</time></trkpt><trkpt lat="45.9419517" lon="12.9338067"><ele>37.0</ele><time>2026-03-28T09:37:18.154Z</time></trkpt><trkpt lat="45.9420167" lon="12.93361"><ele>37.0</ele><time>2026-03-28T09:37:19.154Z</time></trkpt><trkpt lat="45.9420867" lon="12.9334167"><ele>37.0</ele><time>2026-03-28T09:37:20.154Z</time></trkpt><trkpt lat="45.9421583" lon="12.9332183"><ele>37.0</ele><time>2026-03-28T09:37:21.154Z</time></trkpt><trkpt lat="45.9422317" lon="12.9330267"><ele>36.75</ele><time>2026-03-28T09:37:22.154Z</time></trkpt><trkpt lat="45.942305" lon="12.9328583"><ele>36.5</ele><time>2026-03-28T09:37:23.154Z</time></trkpt><trkpt lat="45.9423717" lon="12.9327"><ele>36.25</ele><time>2026-03-28T09:37:24.154Z</time></trkpt><trkpt lat="45.9424433" lon="12.9325383"><ele>36.0</ele><time>2026-03-28T09:37:25.154Z</time></trkpt><trkpt lat="45.942525" lon="12.93237"><ele>35.75</ele><time>2026-03-28T09:37:26.154Z</time></trkpt><trkpt lat="45.9426117" lon="12.93221"><ele>35.5</ele><time>2026-03-28T09:37:27.154Z</time></trkpt><trkpt lat="45.942695" lon="12.9320517"><ele>35.25</ele><time>2026-03-28T09:37:28.154Z</time></trkpt><trkpt lat="45.9427733" lon="12.9319067"><ele>35.0</ele><time>2026-03-28T09:37:29.154Z</time></trkpt><trkpt lat="45.94285" lon="12.9317617"><ele>35.0</ele><time>2026-03-28T09:37:30.154Z</time></trkpt><trkpt lat="45.9429233" lon="12.9316067"><ele>35.0</ele><time>2026-03-28T09:37:31.154Z</time></trkpt><trkpt lat="45.9429983" lon="12.931445"><ele>35.0</ele><time>2026-03-28T09:37:32.154Z</time></trkpt><trkpt lat="45.9430683" lon="12.9312767"><ele>35.0</ele><time>2026-03-28T09:37:33.154Z</time></trkpt><trkpt lat="45.9431283" lon="12.9311117"><ele>35.0</ele><time>2026-03-28T09:37:34.154Z</time></trkpt><trkpt lat="45.9431833" lon="12.9309483"><ele>35.0</ele><time>2026-03-28T09:37:35.154Z</time></trkpt><trkpt lat="45.9432317" lon="12.9307883"><ele>35.0</ele><time>2026-03-28T09:37:36.154Z</time></trkpt><trkpt lat="45.94329" lon="12.9306367"><ele>35.0</ele><time>2026-03-28T09:37:37.154Z</time></trkpt><trkpt lat="45.943365" lon="12.9304833"><ele>35.33333333333333</ele><time>2026-03-28T09:37:38.154Z</time></trkpt><trkpt lat="45.94345" lon="12.9303317"><ele>35.666666666666664</ele><time>2026-03-28T09:37:39.155Z</time></trkpt><trkpt lat="45.94355" lon="12.9301667"><ele>36.0</ele><time>2026-03-28T09:37:40.154Z</time></trkpt><trkpt lat="45.9436533" lon="12.9299867"><ele>36.0</ele><time>2026-03-28T09:37:41.154Z</time></trkpt><trkpt lat="45.94376" lon="12.9297967"><ele>36.0</ele><time>2026-03-28T09:37:42.154Z</time></trkpt><trkpt lat="45.94387" lon="12.9296"><ele>36.0</ele><time>2026-03-28T09:37:43.154Z</time></trkpt><trkpt lat="45.9439767" lon="12.9294083"><ele>36.0</ele><time>2026-03-28T09:37:44.154Z</time></trkpt><trkpt lat="45.9440783" lon="12.9292217"><ele>36.0</ele><time>2026-03-28T09:37:45.154Z</time></trkpt><trkpt lat="45.944175" lon="12.929045"><ele>36.0</ele><time>2026-03-28T09:37:46.154Z</time></trkpt><trkpt lat="45.94427" lon="12.9288717"><ele>36.0</ele><time>2026-03-28T09:37:47.154Z</time></trkpt><trkpt lat="45.9443717" lon="12.9287"><ele>36.0</ele><time>2026-03-28T09:37:48.154Z</time></trkpt><trkpt lat="45.9444683" lon="12.9285317"><ele>36.0</ele><time>2026-03-28T09:37:49.154Z</time></trkpt><trkpt lat="45.9445617" lon="12.9283683"><ele>36.0</ele><time>2026-03-28T09:37:50.154Z</time></trkpt><trkpt lat="45.9446533" lon="12.92821"><ele>36.0</ele><time>2026-03-28T09:37:51.154Z</time></trkpt><trkpt lat="45.94475" lon="12.9280567"><ele>36.0</ele><time>2026-03-28T09:37:52.154Z</time></trkpt><trkpt lat="45.9448533" lon="12.9278917"><ele>36.0</ele><time>2026-03-28T09:37:53.155Z</time></trkpt><trkpt lat="45.9449617" lon="12.9277217"><ele>36.666666666666664</ele><time>2026-03-28T09:37:54.154Z</time></trkpt><trkpt lat="45.945065" lon="12.92754"><ele>37.33333333333333</ele><time>2026-03-28T09:37:55.155Z</time></trkpt><trkpt lat="45.94517" lon="12.9273483"><ele>38.0</ele><time>2026-03-28T09:37:56.154Z</time></trkpt><trkpt lat="45.9452633" lon="12.9271617"><ele>38.0</ele><time>2026-03-28T09:37:57.154Z</time></trkpt><trkpt lat="45.9453467" lon="12.9269867"><ele>38.0</ele><time>2026-03-28T09:37:58.154Z</time></trkpt><trkpt lat="45.9454167" lon="12.926825"><ele>38.0</ele><time>2026-03-28T09:37:59.155Z</time></trkpt><trkpt lat="45.9454767" lon="12.9266817"><ele>38.0</ele><time>2026-03-28T09:38:00.154Z</time></trkpt><trkpt lat="45.9455267" lon="12.9265481"><ele>37.8</ele><time>2026-03-28T09:38:01.155Z</time></trkpt><trkpt lat="45.9455739" lon="12.9264238"><ele>37.599999999999994</ele><time>2026-03-28T09:38:02.154Z</time></trkpt><trkpt lat="45.9456113" lon="12.9263069"><ele>37.400000000000006</ele><time>2026-03-28T09:38:03.154Z</time></trkpt><trkpt lat="45.9456423" lon="12.9261858"><ele>37.2</ele><time>2026-03-28T09:38:04.154Z</time></trkpt><trkpt lat="45.9456719" lon="12.9260643"><ele>37.0</ele><time>2026-03-28T09:38:05.155Z</time></trkpt><trkpt lat="45.9457069" lon="12.9259474"><ele>37.0</ele><time>2026-03-28T09:38:06.154Z</time></trkpt><trkpt lat="45.9457526" lon="12.9258357"><ele>37.0</ele><time>2026-03-28T09:38:07.155Z</time></trkpt><trkpt lat="45.9458103" lon="12.9257275"><ele>37.0</ele><time>2026-03-28T09:38:08.154Z</time></trkpt><trkpt lat="45.9458819" lon="12.9256071"><ele>37.0</ele><time>2026-03-28T09:38:09.154Z</time></trkpt><trkpt lat="45.9459639" lon="12.9254707"><ele>37.0</ele><time>2026-03-28T09:38:10.154Z</time></trkpt><trkpt lat="45.9460488" lon="12.9253198"><ele>37.0</ele><time>2026-03-28T09:38:11.154Z</time></trkpt><trkpt lat="45.9461326" lon="12.9251708"><ele>37.0</ele><time>2026-03-28T09:38:12.154Z</time></trkpt><trkpt lat="45.9462113" lon="12.9250304"><ele>37.0</ele><time>2026-03-28T09:38:13.154Z</time></trkpt><trkpt lat="45.9462874" lon="12.9249016"><ele>37.0</ele><time>2026-03-28T09:38:14.154Z</time></trkpt><trkpt lat="45.9463614" lon="12.924769"><ele>36.800000000000004</ele><time>2026-03-28T09:38:15.154Z</time></trkpt><trkpt lat="45.9464334" lon="12.9246339"><ele>36.6</ele><time>2026-03-28T09:38:16.154Z</time></trkpt><trkpt lat="45.9465024" lon="12.924501"><ele>36.400000000000006</ele><time>2026-03-28T09:38:17.154Z</time></trkpt><trkpt lat="45.9465608" lon="12.9243879"><ele>36.2</ele><time>2026-03-28T09:38:18.154Z</time></trkpt><trkpt lat="45.9466007" lon="12.9243119"><ele>36.0</ele><time>2026-03-28T09:38:19.154Z</time></trkpt><trkpt lat="45.9466379" lon="12.9242282"><ele>36.4</ele><time>2026-03-28T09:38:21.154Z</time></trkpt><trkpt lat="45.9467068" lon="12.9241006"><ele>36.8</ele><time>2026-03-28T09:38:36.154Z</time></trkpt><trkpt lat="45.9467548" lon="12.9240105"><ele>37.199999999999996</ele><time>2026-03-28T09:38:37.154Z</time></trkpt><trkpt lat="45.946803" lon="12.9239136"><ele>37.6</ele><time>2026-03-28T09:38:38.154Z</time></trkpt><trkpt lat="45.9468582" lon="12.9237948"><ele>38.0</ele><time>2026-03-28T09:38:39.154Z</time></trkpt><trkpt lat="45.9469209" lon="12.9236589"><ele>38.0</ele><time>2026-03-28T09:38:40.154Z</time></trkpt><trkpt lat="45.9469964" lon="12.9235062"><ele>38.0</ele><time>2026-03-28T09:38:41.154Z</time></trkpt><trkpt lat="45.9470612" lon="12.9233688"><ele>38.0</ele><time>2026-03-28T09:38:42.154Z</time></trkpt><trkpt lat="45.947104" lon="12.9232492"><ele>38.0</ele><time>2026-03-28T09:38:43.154Z</time></trkpt><trkpt lat="45.9471207" lon="12.9231385"><ele>38.0</ele><time>2026-03-28T09:38:44.154Z</time></trkpt><trkpt lat="45.9471206" lon="12.9230158"><ele>37.83333333333333</ele><time>2026-03-28T09:38:45.155Z</time></trkpt><trkpt lat="45.9471194" lon="12.9228982"><ele>37.666666666666664</ele><time>2026-03-28T09:38:46.155Z</time></trkpt><trkpt lat="45.9471264" lon="12.9227678"><ele>37.5</ele><time>2026-03-28T09:38:48.154Z</time></trkpt><trkpt lat="45.9471885" lon="12.9227193"><ele>37.333333333333336</ele><time>2026-03-28T09:38:50.155Z</time></trkpt><trkpt lat="45.9472615" lon="12.9226981"><ele>37.16666666666667</ele><time>2026-03-28T09:38:51.154Z</time></trkpt><trkpt lat="45.947378" lon="12.9226658"><ele>37.0</ele><time>2026-03-28T09:38:52.154Z</time></trkpt><trkpt lat="45.9475446" lon="12.9226147"><ele>37.0</ele><time>2026-03-28T09:38:53.154Z</time></trkpt><trkpt lat="45.9477238" lon="12.9225585"><ele>37.0</ele><time>2026-03-28T09:38:54.154Z</time></trkpt><trkpt lat="45.9478975" lon="12.9224992"><ele>37.0</ele><time>2026-03-28T09:38:55.154Z</time></trkpt><trkpt lat="45.9480609" lon="12.9224382"><ele>37.0</ele><time>2026-03-28T09:38:56.154Z</time></trkpt><trkpt lat="45.9482196" lon="12.9223842"><ele>37.0</ele><time>2026-03-28T09:38:57.154Z</time></trkpt><trkpt lat="45.9483756" lon="12.9223305"><ele>37.0</ele><time>2026-03-28T09:38:58.154Z</time></trkpt><trkpt lat="45.9485346" lon="12.9222773"><ele>37.0</ele><time>2026-03-28T09:38:59.154Z</time></trkpt><trkpt lat="45.9486957" lon="12.9222246"><ele>37.0</ele><time>2026-03-28T09:39:00.155Z</time></trkpt><trkpt lat="45.9488588" lon="12.9221706"><ele>37.0</ele><time>2026-03-28T09:39:01.154Z</time></trkpt><trkpt lat="45.9490251" lon="12.9221155"><ele>37.0</ele><time>2026-03-28T09:39:02.155Z</time></trkpt><trkpt lat="45.9491896" lon="12.9220615"><ele>37.0</ele><time>2026-03-28T09:39:03.154Z</time></trkpt><trkpt lat="45.9493563" lon="12.9220029"><ele>37.0</ele><time>2026-03-28T09:39:04.154Z</time></trkpt><trkpt lat="45.9495231" lon="12.9219407"><ele>37.333333333333336</ele><time>2026-03-28T09:39:05.154Z</time></trkpt><trkpt lat="45.9496898" lon="12.9218808"><ele>37.666666666666664</ele><time>2026-03-28T09:39:06.154Z</time></trkpt><trkpt lat="45.9498539" lon="12.9218262"><ele>38.0</ele><time>2026-03-28T09:39:07.154Z</time></trkpt><trkpt lat="45.9500172" lon="12.9217717"><ele>38.666666666666664</ele><time>2026-03-28T09:39:08.155Z</time></trkpt><trkpt lat="45.9501751" lon="12.9217215"><ele>39.333333333333336</ele><time>2026-03-28T09:39:09.155Z</time></trkpt><trkpt lat="45.9503229" lon="12.9216751"><ele>40.0</ele><time>2026-03-28T09:39:10.155Z</time></trkpt><trkpt lat="45.9504601" lon="12.9216328"><ele>40.0</ele><time>2026-03-28T09:39:11.155Z</time></trkpt><trkpt lat="45.9505998" lon="12.9215884"><ele>40.0</ele><time>2026-03-28T09:39:12.155Z</time></trkpt><trkpt lat="45.9507418" lon="12.9215448"><ele>40.0</ele><time>2026-03-28T09:39:13.154Z</time></trkpt><trkpt lat="45.9508795" lon="12.9215043"><ele>40.0</ele><time>2026-03-28T09:39:14.154Z</time></trkpt><trkpt lat="45.9510015" lon="12.9214654"><ele>40.0</ele><time>2026-03-28T09:39:15.155Z</time></trkpt><trkpt lat="45.9511021" lon="12.9214298"><ele>40.0</ele><time>2026-03-28T09:39:16.154Z</time></trkpt><trkpt lat="45.9511848" lon="12.9213984"><ele>40.0</ele><time>2026-03-28T09:39:17.154Z</time></trkpt><trkpt lat="45.9512529" lon="12.9213706"><ele>40.0</ele><time>2026-03-28T09:39:18.155Z</time></trkpt><trkpt lat="45.9513319" lon="12.9213085"><ele>40.0</ele><time>2026-03-28T09:39:20.154Z</time></trkpt><trkpt lat="45.9513518" lon="12.9211779"><ele>40.0</ele><time>2026-03-28T09:39:23.155Z</time></trkpt><trkpt lat="45.9513258" lon="12.9210874"><ele>40.0</ele><time>2026-03-28T09:39:24.154Z</time></trkpt><trkpt lat="45.9512822" lon="12.9209563"><ele>40.0</ele><time>2026-03-28T09:39:25.155Z</time></trkpt><trkpt lat="45.9512301" lon="12.920783"><ele>40.0</ele><time>2026-03-28T09:39:26.154Z</time></trkpt><trkpt lat="45.9511789" lon="12.9205824"><ele>40.0</ele><time>2026-03-28T09:39:27.155Z</time></trkpt><trkpt lat="45.951139" lon="12.9203655"><ele>40.0</ele><time>2026-03-28T09:39:28.155Z</time></trkpt><trkpt lat="45.9511061" lon="12.9201323"><ele>40.0</ele><time>2026-03-28T09:39:29.154Z</time></trkpt><trkpt lat="45.9510915" lon="12.9198841"><ele>40.0</ele><time>2026-03-28T09:39:30.154Z</time></trkpt><trkpt lat="45.9510965" lon="12.9196164"><ele>39.66666666666667</ele><time>2026-03-28T09:39:31.154Z</time></trkpt><trkpt lat="45.9511211" lon="12.9193368"><ele>39.333333333333336</ele><time>2026-03-28T09:39:32.154Z</time></trkpt><trkpt lat="45.9511506" lon="12.9190515"><ele>39.0</ele><time>2026-03-28T09:39:33.154Z</time></trkpt><trkpt lat="45.9511818" lon="12.9187702"><ele>39.0</ele><time>2026-03-28T09:39:34.155Z</time></trkpt><trkpt lat="45.951205" lon="12.918504"><ele>39.0</ele><time>2026-03-28T09:39:35.154Z</time></trkpt><trkpt lat="45.9512211" lon="12.9182463"><ele>39.0</ele><time>2026-03-28T09:39:36.154Z</time></trkpt><trkpt lat="45.9512235" lon="12.9179903"><ele>39.333333333333336</ele><time>2026-03-28T09:39:37.154Z</time></trkpt><trkpt lat="45.9512155" lon="12.9177308"><ele>39.66666666666667</ele><time>2026-03-28T09:39:38.154Z</time></trkpt><trkpt lat="45.9511975" lon="12.9174789"><ele>40.0</ele><time>2026-03-28T09:39:39.155Z</time></trkpt><trkpt lat="45.951174" lon="12.9172489"><ele>40.0</ele><time>2026-03-28T09:39:40.155Z</time></trkpt><trkpt lat="45.9511415" lon="12.9170287"><ele>40.0</ele><time>2026-03-28T09:39:41.154Z</time></trkpt><trkpt lat="45.9510815" lon="12.9168114"><ele>40.0</ele><time>2026-03-28T09:39:42.154Z</time></trkpt><trkpt lat="45.9509906" lon="12.9165831"><ele>39.66666666666667</ele><time>2026-03-28T09:39:43.154Z</time></trkpt><trkpt lat="45.9508858" lon="12.9163401"><ele>39.333333333333336</ele><time>2026-03-28T09:39:44.154Z</time></trkpt><trkpt lat="45.9507835" lon="12.9161049"><ele>39.0</ele><time>2026-03-28T09:39:45.154Z</time></trkpt><trkpt lat="45.9506892" lon="12.9158837"><ele>39.4</ele><time>2026-03-28T09:39:46.154Z</time></trkpt><trkpt lat="45.9506076" lon="12.9156907"><ele>39.8</ele><time>2026-03-28T09:39:47.154Z</time></trkpt><trkpt lat="45.9505461" lon="12.9155411"><ele>40.199999999999996</ele><time>2026-03-28T09:39:48.154Z</time></trkpt><trkpt lat="45.9504998" lon="12.9154274"><ele>40.599999999999994</ele><time>2026-03-28T09:39:49.154Z</time></trkpt><trkpt lat="45.9504651" lon="12.9153451"><ele>41.0</ele><time>2026-03-28T09:39:50.154Z</time></trkpt><trkpt lat="45.9504216" lon="12.9152685"><ele>41.0</ele><time>2026-03-28T09:39:52.154Z</time></trkpt><trkpt lat="45.9503596" lon="12.9151453"><ele>41.0</ele><time>2026-03-28T09:40:00.154Z</time></trkpt><trkpt lat="45.950304" lon="12.9150222"><ele>41.0</ele><time>2026-03-28T09:40:01.154Z</time></trkpt><trkpt lat="45.9502633" lon="12.9149022"><ele>41.0</ele><time>2026-03-28T09:40:02.154Z</time></trkpt><trkpt lat="45.9502454" lon="12.9147937"><ele>41.0</ele><time>2026-03-28T09:40:03.154Z</time></trkpt><trkpt lat="45.9502456" lon="12.9146892"><ele>40.8</ele><time>2026-03-28T09:40:04.154Z</time></trkpt><trkpt lat="45.9502672" lon="12.9145816"><ele>40.599999999999994</ele><time>2026-03-28T09:40:05.154Z</time></trkpt><trkpt lat="45.9503124" lon="12.9144622"><ele>40.4</ele><time>2026-03-28T09:40:06.154Z</time></trkpt><trkpt lat="45.950382" lon="12.9143208"><ele>40.2</ele><time>2026-03-28T09:40:07.154Z</time></trkpt><trkpt lat="45.9504688" lon="12.9141631"><ele>40.0</ele><time>2026-03-28T09:40:08.154Z</time></trkpt><trkpt lat="45.9505559" lon="12.9140001"><ele>40.0</ele><time>2026-03-28T09:40:09.154Z</time></trkpt><trkpt lat="45.95064" lon="12.913845"><ele>40.0</ele><time>2026-03-28T09:40:10.155Z</time></trkpt><trkpt lat="45.9507133" lon="12.9137133"><ele>40.0</ele><time>2026-03-28T09:40:11.155Z</time></trkpt><trkpt lat="45.9507717" lon="12.9135967"><ele>40.0</ele><time>2026-03-28T09:40:12.155Z</time></trkpt><trkpt lat="45.9508233" lon="12.9134767"><ele>39.8</ele><time>2026-03-28T09:40:13.155Z</time></trkpt><trkpt lat="45.9508583" lon="12.9133383"><ele>39.6</ele><time>2026-03-28T09:40:14.154Z</time></trkpt><trkpt lat="45.9508833" lon="12.913185"><ele>39.4</ele><time>2026-03-28T09:40:15.154Z</time></trkpt><trkpt lat="45.9508917" lon="12.913025"><ele>39.2</ele><time>2026-03-28T09:40:16.154Z</time></trkpt><trkpt lat="45.9508867" lon="12.9128467"><ele>39.0</ele><time>2026-03-28T09:40:17.154Z</time></trkpt><trkpt lat="45.95088" lon="12.9126733"><ele>38.4</ele><time>2026-03-28T09:40:18.154Z</time></trkpt><trkpt lat="45.95088" lon="12.9125117"><ele>37.8</ele><time>2026-03-28T09:40:19.155Z</time></trkpt><trkpt lat="45.9508933" lon="12.9123633"><ele>37.2</ele><time>2026-03-28T09:40:20.155Z</time></trkpt><trkpt lat="45.950915" lon="12.91222"><ele>36.6</ele><time>2026-03-28T09:40:21.154Z</time></trkpt><trkpt lat="45.9509367" lon="12.9121117"><ele>36.0</ele><time>2026-03-28T09:40:22.154Z</time></trkpt><trkpt lat="45.9509617" lon="12.9120267"><ele>36.0</ele><time>2026-03-28T09:40:23.154Z</time></trkpt><trkpt lat="45.9510233" lon="12.9119433"><ele>36.0</ele><time>2026-03-28T09:40:25.154Z</time></trkpt><trkpt lat="45.9510867" lon="12.9119117"><ele>36.0</ele><time>2026-03-28T09:40:26.155Z</time></trkpt><trkpt lat="45.9511783" lon="12.9118867"><ele>36.0</ele><time>2026-03-28T09:40:27.154Z</time></trkpt><trkpt lat="45.951295" lon="12.9118583"><ele>36.0</ele><time>2026-03-28T09:40:28.154Z</time></trkpt><trkpt lat="45.9514217" lon="12.9118117"><ele>36.0</ele><time>2026-03-28T09:40:29.154Z</time></trkpt><trkpt lat="45.9515433" lon="12.9117533"><ele>36.0</ele><time>2026-03-28T09:40:30.154Z</time></trkpt><trkpt lat="45.95166" lon="12.91169"><ele>36.0</ele><time>2026-03-28T09:40:31.154Z</time></trkpt><trkpt lat="45.951785" lon="12.9116167"><ele>36.0</ele><time>2026-03-28T09:40:32.155Z</time></trkpt><trkpt lat="45.9519117" lon="12.9115483"><ele>36.5</ele><time>2026-03-28T09:40:33.154Z</time></trkpt><trkpt lat="45.9520417" lon="12.911495"><ele>37.0</ele><time>2026-03-28T09:40:34.155Z</time></trkpt><trkpt lat="45.9521717" lon="12.9114467"><ele>37.5</ele><time>2026-03-28T09:40:35.154Z</time></trkpt><trkpt lat="45.9522983" lon="12.911395"><ele>38.0</ele><time>2026-03-28T09:40:36.154Z</time></trkpt><trkpt lat="45.9524167" lon="12.9113383"><ele>38.0</ele><time>2026-03-28T09:40:37.154Z</time></trkpt><trkpt lat="45.9525217" lon="12.91129"><ele>38.0</ele><time>2026-03-28T09:40:38.154Z</time></trkpt><trkpt lat="45.9526233" lon="12.9112617"><ele>38.0</ele><time>2026-03-28T09:40:39.154Z</time></trkpt><trkpt lat="45.9527283" lon="12.911245"><ele>38.0</ele><time>2026-03-28T09:40:40.155Z</time></trkpt><trkpt lat="45.9528467" lon="12.9112183"><ele>38.0</ele><time>2026-03-28T09:40:41.154Z</time></trkpt><trkpt lat="45.9529783" lon="12.91119"><ele>38.5</ele><time>2026-03-28T09:40:42.155Z</time></trkpt><trkpt lat="45.9531133" lon="12.9111633"><ele>39.0</ele><time>2026-03-28T09:40:43.155Z</time></trkpt><trkpt lat="45.9532417" lon="12.9111283"><ele>39.5</ele><time>2026-03-28T09:40:44.155Z</time></trkpt><trkpt lat="45.9533583" lon="12.911095"><ele>40.0</ele><time>2026-03-28T09:40:45.154Z</time></trkpt><trkpt lat="45.95347" lon="12.9110667"><ele>40.0</ele><time>2026-03-28T09:40:46.154Z</time></trkpt><trkpt lat="45.95358" lon="12.91104"><ele>40.0</ele><time>2026-03-28T09:40:47.154Z</time></trkpt><trkpt lat="45.9536967" lon="12.911015"><ele>40.0</ele><time>2026-03-28T09:40:48.155Z</time></trkpt><trkpt lat="45.95382" lon="12.9109983"><ele>40.0</ele><time>2026-03-28T09:40:49.154Z</time></trkpt><trkpt lat="45.95396" lon="12.910995"><ele>40.0</ele><time>2026-03-28T09:40:50.155Z</time></trkpt><trkpt lat="45.9541117" lon="12.9109883"><ele>40.0</ele><time>2026-03-28T09:40:51.154Z</time></trkpt><trkpt lat="45.9542583" lon="12.91097"><ele>40.0</ele><time>2026-03-28T09:40:52.155Z</time></trkpt><trkpt lat="45.9544" lon="12.910945"><ele>40.0</ele><time>2026-03-28T09:40:53.154Z</time></trkpt><trkpt lat="45.9545417" lon="12.9109217"><ele>40.66666666666667</ele><time>2026-03-28T09:40:54.154Z</time></trkpt><trkpt lat="45.9546917" lon="12.9108983"><ele>41.333333333333336</ele><time>2026-03-28T09:40:55.154Z</time></trkpt><trkpt lat="45.9548417" lon="12.9108683"><ele>42.0</ele><time>2026-03-28T09:40:56.154Z</time></trkpt><trkpt lat="45.9549917" lon="12.9108417"><ele>42.0</ele><time>2026-03-28T09:40:57.154Z</time></trkpt><trkpt lat="45.9551433" lon="12.9108167"><ele>42.0</ele><time>2026-03-28T09:40:58.155Z</time></trkpt><trkpt lat="45.955285" lon="12.91079"><ele>42.0</ele><time>2026-03-28T09:40:59.154Z</time></trkpt><trkpt lat="45.9554133" lon="12.910765"><ele>42.0</ele><time>2026-03-28T09:41:00.155Z</time></trkpt><trkpt lat="45.955535" lon="12.91074"><ele>42.0</ele><time>2026-03-28T09:41:01.154Z</time></trkpt><trkpt lat="45.9556517" lon="12.910715"><ele>42.0</ele><time>2026-03-28T09:41:02.154Z</time></trkpt><trkpt lat="45.955765" lon="12.9107017"><ele>42.0</ele><time>2026-03-28T09:41:03.154Z</time></trkpt><trkpt lat="45.955865" lon="12.9106833"><ele>42.0</ele><time>2026-03-28T09:41:04.154Z</time></trkpt><trkpt lat="45.955975" lon="12.91065"><ele>42.0</ele><time>2026-03-28T09:41:05.155Z</time></trkpt><trkpt lat="45.95609" lon="12.910605"><ele>42.0</ele><time>2026-03-28T09:41:06.154Z</time></trkpt><trkpt lat="45.9562017" lon="12.91055"><ele>42.0</ele><time>2026-03-28T09:41:07.154Z</time></trkpt><trkpt lat="45.95632" lon="12.9105033"><ele>42.0</ele><time>2026-03-28T09:41:08.154Z</time></trkpt><trkpt lat="45.9564483" lon="12.9104483"><ele>42.0</ele><time>2026-03-28T09:41:09.154Z</time></trkpt><trkpt lat="45.9565817" lon="12.9103883"><ele>42.25</ele><time>2026-03-28T09:41:10.154Z</time></trkpt><trkpt lat="45.956705" lon="12.9103317"><ele>42.5</ele><time>2026-03-28T09:41:11.154Z</time></trkpt><trkpt lat="45.9568117" lon="12.91028"><ele>42.75</ele><time>2026-03-28T09:41:12.154Z</time></trkpt><trkpt lat="45.95692" lon="12.9102233"><ele>43.0</ele><time>2026-03-28T09:41:13.154Z</time></trkpt><trkpt lat="45.95703" lon="12.91016"><ele>43.0</ele><time>2026-03-28T09:41:14.155Z</time></trkpt><trkpt lat="45.957145" lon="12.9100867"><ele>43.0</ele><time>2026-03-28T09:41:15.155Z</time></trkpt><trkpt lat="45.9572483" lon="12.9100083"><ele>43.0</ele><time>2026-03-28T09:41:16.155Z</time></trkpt><trkpt lat="45.9573483" lon="12.9099283"><ele>43.0</ele><time>2026-03-28T09:41:17.154Z</time></trkpt><trkpt lat="45.9574367" lon="12.9098483"><ele>43.0</ele><time>2026-03-28T09:41:18.155Z</time></trkpt><trkpt lat="45.957535" lon="12.9097667"><ele>43.0</ele><time>2026-03-28T09:41:19.154Z</time></trkpt><trkpt lat="45.9576217" lon="12.9097067"><ele>43.0</ele><time>2026-03-28T09:41:20.155Z</time></trkpt><trkpt lat="45.9576867" lon="12.9096683"><ele>43.0</ele><time>2026-03-28T09:41:21.154Z</time></trkpt><trkpt lat="45.957785" lon="12.9096483"><ele>43.0</ele><time>2026-03-28T09:41:23.154Z</time></trkpt><trkpt lat="45.9578383" lon="12.9097167"><ele>43.0</ele><time>2026-03-28T09:41:25.154Z</time></trkpt><trkpt lat="45.957855" lon="12.9098333"><ele>43.0</ele><time>2026-03-28T09:41:27.154Z</time></trkpt><trkpt lat="45.9578983" lon="12.9099"><ele>43.0</ele><time>2026-03-28T09:41:29.154Z</time></trkpt><trkpt lat="45.9579733" lon="12.90988"><ele>43.0</ele><time>2026-03-28T09:41:31.154Z</time></trkpt><trkpt lat="45.95804" lon="12.9098717"><ele>43.0</ele><time>2026-03-28T09:41:33.154Z</time></trkpt><trkpt lat="45.958075" lon="12.9097883"><ele>43.0</ele><time>2026-03-28T09:41:52.153Z</time></trkpt><trkpt lat="45.95812" lon="12.90967"><ele>43.0</ele><time>2026-03-28T09:41:54.153Z</time></trkpt><trkpt lat="45.958165" lon="12.909595"><ele>43.0</ele><time>2026-03-28T09:41:56.153Z</time></trkpt><trkpt lat="45.9582183" lon="12.9095033"><ele>43.0</ele><time>2026-03-28T09:41:58.153Z</time></trkpt><trkpt lat="45.9582767" lon="12.9093967"><ele>43.0</ele><time>2026-03-28T09:42:00.153Z</time></trkpt><trkpt lat="45.9583183" lon="12.9093133"><ele>43.0</ele><time>2026-03-28T09:42:02.153Z</time></trkpt><trkpt lat="45.9583583" lon="12.90923"><ele>43.0</ele><time>2026-03-28T09:42:04.153Z</time></trkpt><trkpt lat="45.9583867" lon="12.9091067"><ele>42.833333333333336</ele><time>2026-03-28T09:42:06.153Z</time></trkpt><trkpt lat="45.9584183" lon="12.9089867"><ele>42.66666666666667</ele><time>2026-03-28T09:42:08.153Z</time></trkpt><trkpt lat="45.95846" lon="12.9089017"><ele>42.5</ele><time>2026-03-28T09:42:10.153Z</time></trkpt><trkpt lat="45.9584233" lon="12.9088217"><ele>42.333333333333336</ele><time>2026-03-28T09:42:31.153Z</time></trkpt><trkpt lat="45.9584133" lon="12.90892"><ele>42.166666666666664</ele><time>2026-03-28T09:42:34.153Z</time></trkpt><trkpt lat="45.958365" lon="12.9090417"><ele>42.0</ele><time>2026-03-28T09:42:37.153Z</time></trkpt><trkpt lat="45.9583417" lon="12.9091517"><ele>42.0</ele><time>2026-03-28T09:42:47.153Z</time></trkpt><trkpt lat="45.9584133" lon="12.909215"><ele>42.0</ele><time>2026-03-28T09:42:50.153Z</time></trkpt><trkpt lat="45.9584933" lon="12.9092283"><ele>42.0</ele><time>2026-03-28T09:42:52.153Z</time></trkpt><trkpt lat="45.95859" lon="12.9092467"><ele>42.0</ele><time>2026-03-28T09:42:54.153Z</time></trkpt><trkpt lat="45.9586817" lon="12.9092483"><ele>42.0</ele><time>2026-03-28T09:42:56.153Z</time></trkpt><trkpt lat="45.958755" lon="12.9092517"><ele>42.0</ele><time>2026-03-28T09:42:58.153Z</time></trkpt><trkpt lat="45.9588483" lon="12.9092683"><ele>41.833333333333336</ele><time>2026-03-28T09:43:00.153Z</time></trkpt><trkpt lat="45.95894" lon="12.9092917"><ele>41.666666666666664</ele><time>2026-03-28T09:43:02.153Z</time></trkpt><trkpt lat="45.959045" lon="12.9093117"><ele>41.5</ele><time>2026-03-28T09:43:12.153Z</time></trkpt><trkpt lat="45.959115" lon="12.9093133"><ele>41.33333333333333</ele><time>2026-03-28T09:43:18.153Z</time></trkpt><trkpt lat="45.9591833" lon="12.9093033"><ele>41.166666666666664</ele><time>2026-03-28T09:43:23.153Z</time></trkpt><trkpt lat="45.9592433" lon="12.90927"><ele>41.0</ele><time>2026-03-28T09:43:27.153Z</time></trkpt><trkpt lat="45.9593067" lon="12.909235"><ele>41.0</ele><time>2026-03-28T09:43:30.153Z</time></trkpt><trkpt lat="45.9594" lon="12.9091767"><ele>41.0</ele><time>2026-03-28T09:43:48.154Z</time></trkpt><trkpt lat="45.959485" lon="12.9091367"><ele>41.0</ele><time>2026-03-28T09:44:26.153Z</time></trkpt><trkpt lat="45.959545" lon="12.9090933"><ele>41.0</ele><time>2026-03-28T09:44:29.153Z</time></trkpt><trkpt lat="45.9596183" lon="12.90905"><ele>41.0</ele><time>2026-03-28T09:44:32.153Z</time></trkpt><trkpt lat="45.9597167" lon="12.9089867"><ele>41.0</ele><time>2026-03-28T09:44:35.153Z</time></trkpt><trkpt lat="45.9597583" lon="12.908905"><ele>41.0</ele><time>2026-03-28T09:44:37.154Z</time></trkpt><trkpt lat="45.959785" lon="12.9087767"><ele>41.0</ele><time>2026-03-28T09:44:39.153Z</time></trkpt><trkpt lat="45.9598317" lon="12.90865"><ele>41.0</ele><time>2026-03-28T09:44:41.153Z</time></trkpt><trkpt lat="45.95988" lon="12.908525"><ele>41.0</ele><time>2026-03-28T09:44:43.153Z</time></trkpt><trkpt lat="45.9599217" lon="12.9084467"><ele>41.0</ele><time>2026-03-28T09:44:45.153Z</time></trkpt><trkpt lat="45.9599333" lon="12.90833"><ele>41.0</ele><time>2026-03-28T09:44:48.153Z</time></trkpt><trkpt lat="45.9598767" lon="12.9082383"><ele>41.199999999999996</ele><time>2026-03-28T09:45:04.154Z</time></trkpt><trkpt lat="45.959805" lon="12.908195"><ele>41.4</ele><time>2026-03-28T09:45:06.153Z</time></trkpt><trkpt lat="45.9597383" lon="12.90818"><ele>41.6</ele><time>2026-03-28T09:45:08.154Z</time></trkpt><trkpt lat="45.9596467" lon="12.9081717"><ele>41.8</ele><time>2026-03-28T09:45:10.153Z</time></trkpt><trkpt lat="45.959525" lon="12.9081467"><ele>42.0</ele><time>2026-03-28T09:45:12.153Z</time></trkpt><trkpt lat="45.9594133" lon="12.9080933"><ele>42.0</ele><time>2026-03-28T09:45:14.153Z</time></trkpt><trkpt lat="45.9593183" lon="12.9080333"><ele>42.0</ele><time>2026-03-28T09:45:16.153Z</time></trkpt><trkpt lat="45.9592267" lon="12.9079917"><ele>42.0</ele><time>2026-03-28T09:45:18.153Z</time></trkpt><trkpt lat="45.9591633" lon="12.9079733"><ele>42.0</ele><time>2026-03-28T09:45:21.154Z</time></trkpt><trkpt lat="45.9590833" lon="12.907965"><ele>42.0</ele><time>2026-03-28T09:47:05.153Z</time></trkpt><trkpt lat="45.9590217" lon="12.9079433"><ele>42.0</ele><time>2026-03-28T09:47:07.153Z</time></trkpt><trkpt lat="45.9589533" lon="12.90794"><ele>41.833333333333336</ele><time>2026-03-28T09:47:09.153Z</time></trkpt><trkpt lat="45.9588567" lon="12.9079367"><ele>41.666666666666664</ele><time>2026-03-28T09:47:11.153Z</time></trkpt><trkpt lat="45.9587567" lon="12.9079433"><ele>41.5</ele><time>2026-03-28T09:47:13.153Z</time></trkpt><trkpt lat="45.9586533" lon="12.90796"><ele>41.33333333333333</ele><time>2026-03-28T09:47:15.153Z</time></trkpt><trkpt lat="45.9585783" lon="12.9079783"><ele>41.166666666666664</ele><time>2026-03-28T09:47:16.153Z</time></trkpt><trkpt lat="45.9585083" lon="12.9079933"><ele>41.0</ele><time>2026-03-28T09:47:17.153Z</time></trkpt><trkpt lat="45.9583967" lon="12.9080217"><ele>40.83333333333333</ele><time>2026-03-28T09:47:19.154Z</time></trkpt><trkpt lat="45.95833" lon="12.9080617"><ele>40.666666666666664</ele><time>2026-03-28T09:47:21.154Z</time></trkpt><trkpt lat="45.95829" lon="12.9081633"><ele>40.5</ele><time>2026-03-28T09:47:39.153Z</time></trkpt><trkpt lat="45.9582633" lon="12.90827"><ele>40.333333333333336</ele><time>2026-03-28T09:47:41.153Z</time></trkpt><trkpt lat="45.9582917" lon="12.908415"><ele>40.16666666666667</ele><time>2026-03-28T09:49:10.154Z</time></trkpt><trkpt lat="45.9583333" lon="12.9085067"><ele>40.0</ele><time>2026-03-28T09:49:12.154Z</time></trkpt><trkpt lat="45.9583717" lon="12.9086017"><ele>40.333333333333336</ele><time>2026-03-28T09:49:14.154Z</time></trkpt><trkpt lat="45.9584083" lon="12.9087067"><ele>40.66666666666667</ele><time>2026-03-28T09:49:16.154Z</time></trkpt><trkpt lat="45.9584367" lon="12.9088133"><ele>41.0</ele><time>2026-03-28T09:49:18.154Z</time></trkpt><trkpt lat="45.9584217" lon="12.9089217"><ele>41.333333333333336</ele><time>2026-03-28T09:49:20.154Z</time></trkpt><trkpt lat="45.9583967" lon="12.9090083"><ele>41.666666666666664</ele><time>2026-03-28T09:49:21.154Z</time></trkpt><trkpt lat="45.9583717" lon="12.9090917"><ele>42.0</ele><time>2026-03-28T09:49:22.154Z</time></trkpt><trkpt lat="45.9583283" lon="12.9092117"><ele>42.166666666666664</ele><time>2026-03-28T09:49:24.154Z</time></trkpt><trkpt lat="45.9582783" lon="12.9093433"><ele>42.333333333333336</ele><time>2026-03-28T09:49:26.155Z</time></trkpt><trkpt lat="45.9582333" lon="12.9094383"><ele>42.5</ele><time>2026-03-28T09:49:27.154Z</time></trkpt><trkpt lat="45.9581783" lon="12.9095383"><ele>42.66666666666667</ele><time>2026-03-28T09:49:28.154Z</time></trkpt><trkpt lat="45.9581283" lon="12.9096283"><ele>42.833333333333336</ele><time>2026-03-28T09:49:29.154Z</time></trkpt><trkpt lat="45.95809" lon="12.909705"><ele>43.0</ele><time>2026-03-28T09:49:30.154Z</time></trkpt><trkpt lat="45.958055" lon="12.9098317"><ele>43.0</ele><time>2026-03-28T09:49:32.154Z</time></trkpt><trkpt lat="45.9580417" lon="12.9099417"><ele>43.0</ele><time>2026-03-28T09:49:35.154Z</time></trkpt><trkpt lat="45.9580567" lon="12.91006"><ele>43.0</ele><time>2026-03-28T09:49:44.154Z</time></trkpt><trkpt lat="45.9580667" lon="12.9101783"><ele>43.0</ele><time>2026-03-28T09:49:45.154Z</time></trkpt><trkpt lat="45.9580767" lon="12.9103017"><ele>43.0</ele><time>2026-03-28T09:49:46.155Z</time></trkpt><trkpt lat="45.95809" lon="12.9104167"><ele>43.0</ele><time>2026-03-28T09:49:47.154Z</time></trkpt><trkpt lat="45.9581" lon="12.9105117"><ele>42.85714285714286</ele><time>2026-03-28T09:49:48.154Z</time></trkpt><trkpt lat="45.9581117" lon="12.9106117"><ele>42.714285714285715</ele><time>2026-03-28T09:49:49.155Z</time></trkpt><trkpt lat="45.958125" lon="12.9107233"><ele>42.57142857142857</ele><time>2026-03-28T09:49:50.155Z</time></trkpt><trkpt lat="45.9581417" lon="12.91083"><ele>42.42857142857143</ele><time>2026-03-28T09:49:51.154Z</time></trkpt><trkpt lat="45.9581533" lon="12.9109333"><ele>42.285714285714285</ele><time>2026-03-28T09:49:52.154Z</time></trkpt><trkpt lat="45.9581567" lon="12.9110367"><ele>42.142857142857146</ele><time>2026-03-28T09:49:53.154Z</time></trkpt><trkpt lat="45.9581617" lon="12.9111433"><ele>42.0</ele><time>2026-03-28T09:49:54.155Z</time></trkpt><trkpt lat="45.9581717" lon="12.9112417"><ele>42.0</ele><time>2026-03-28T09:49:55.155Z</time></trkpt><trkpt lat="45.95818" lon="12.9113317"><ele>42.0</ele><time>2026-03-28T09:49:56.154Z</time></trkpt><trkpt lat="45.9581867" lon="12.9114233"><ele>42.0</ele><time>2026-03-28T09:49:57.154Z</time></trkpt><trkpt lat="45.9581967" lon="12.911515"><ele>42.0</ele><time>2026-03-28T09:49:58.154Z</time></trkpt><trkpt lat="45.9582067" lon="12.9116217"><ele>42.0</ele><time>2026-03-28T09:49:59.154Z</time></trkpt><trkpt lat="45.9582183" lon="12.911735"><ele>42.0</ele><time>2026-03-28T09:50:00.155Z</time></trkpt><trkpt lat="45.9582233" lon="12.9118533"><ele>42.0</ele><time>2026-03-28T09:50:01.155Z</time></trkpt><trkpt lat="45.9582283" lon="12.9119633"><ele>41.833333333333336</ele><time>2026-03-28T09:50:02.155Z</time></trkpt><trkpt lat="45.9582367" lon="12.9120783"><ele>41.666666666666664</ele><time>2026-03-28T09:50:03.154Z</time></trkpt><trkpt lat="45.9582483" lon="12.91219"><ele>41.5</ele><time>2026-03-28T09:50:04.154Z</time></trkpt><trkpt lat="45.9582683" lon="12.912295"><ele>41.33333333333333</ele><time>2026-03-28T09:50:05.154Z</time></trkpt><trkpt lat="45.9582967" lon="12.9123917"><ele>41.166666666666664</ele><time>2026-03-28T09:50:06.155Z</time></trkpt><trkpt lat="45.95835" lon="12.9125133"><ele>41.0</ele><time>2026-03-28T09:50:08.154Z</time></trkpt><trkpt lat="45.9584433" lon="12.9126183"><ele>41.4</ele><time>2026-03-28T09:50:58.154Z</time></trkpt><trkpt lat="45.9585167" lon="12.9126933"><ele>41.8</ele><time>2026-03-28T09:50:59.155Z</time></trkpt><trkpt lat="45.9586067" lon="12.912785"><ele>42.199999999999996</ele><time>2026-03-28T09:51:00.154Z</time></trkpt><trkpt lat="45.9587017" lon="12.9128867"><ele>42.599999999999994</ele><time>2026-03-28T09:51:01.155Z</time></trkpt><trkpt lat="45.9587983" lon="12.912985"><ele>43.0</ele><time>2026-03-28T09:51:02.154Z</time></trkpt><trkpt lat="45.9588933" lon="12.9130867"><ele>43.0</ele><time>2026-03-28T09:51:03.154Z</time></trkpt><trkpt lat="45.9589783" lon="12.9131867"><ele>43.0</ele><time>2026-03-28T09:51:04.154Z</time></trkpt><trkpt lat="45.9590633" lon="12.91329"><ele>43.0</ele><time>2026-03-28T09:51:05.154Z</time></trkpt><trkpt lat="45.9591483" lon="12.9133983"><ele>43.0</ele><time>2026-03-28T09:51:06.154Z</time></trkpt><trkpt lat="45.95923" lon="12.9135117"><ele>43.0</ele><time>2026-03-28T09:51:07.154Z</time></trkpt><trkpt lat="45.9593067" lon="12.913625"><ele>43.0</ele><time>2026-03-28T09:51:08.154Z</time></trkpt><trkpt lat="45.9593633" lon="12.91375"><ele>43.0</ele><time>2026-03-28T09:51:09.154Z</time></trkpt><trkpt lat="45.9594117" lon="12.913885"><ele>43.0</ele><time>2026-03-28T09:51:10.154Z</time></trkpt><trkpt lat="45.959455" lon="12.914035"><ele>43.0</ele><time>2026-03-28T09:51:11.155Z</time></trkpt><trkpt lat="45.9594983" lon="12.9141917"><ele>43.0</ele><time>2026-03-28T09:51:12.154Z</time></trkpt><trkpt lat="45.95954" lon="12.914355"><ele>43.25</ele><time>2026-03-28T09:51:13.155Z</time></trkpt><trkpt lat="45.95959" lon="12.91452"><ele>43.5</ele><time>2026-03-28T09:51:14.155Z</time></trkpt><trkpt lat="45.9596433" lon="12.914705"><ele>43.75</ele><time>2026-03-28T09:51:15.154Z</time></trkpt><trkpt lat="45.9597033" lon="12.9149383"><ele>44.0</ele><time>2026-03-28T09:51:16.154Z</time></trkpt><trkpt lat="45.9597633" lon="12.91517"><ele>44.0</ele><time>2026-03-28T09:51:17.154Z</time></trkpt><trkpt lat="45.9598233" lon="12.91538"><ele>44.0</ele><time>2026-03-28T09:51:18.155Z</time></trkpt><trkpt lat="45.9598767" lon="12.9155733"><ele>44.0</ele><time>2026-03-28T09:51:19.154Z</time></trkpt><trkpt lat="45.959925" lon="12.91575"><ele>44.0</ele><time>2026-03-28T09:51:20.154Z</time></trkpt><trkpt lat="45.9599667" lon="12.9159133"><ele>44.0</ele><time>2026-03-28T09:51:21.154Z</time></trkpt><trkpt lat="45.9600067" lon="12.916065"><ele>44.0</ele><time>2026-03-28T09:51:22.154Z</time></trkpt><trkpt lat="45.9600333" lon="12.91621"><ele>44.0</ele><time>2026-03-28T09:51:23.155Z</time></trkpt><trkpt lat="45.9600517" lon="12.9163433"><ele>44.0</ele><time>2026-03-28T09:51:24.155Z</time></trkpt><trkpt lat="45.9600683" lon="12.9164483"><ele>44.0</ele><time>2026-03-28T09:51:25.154Z</time></trkpt><trkpt lat="45.960085" lon="12.9165367"><ele>44.0</ele><time>2026-03-28T09:51:26.154Z</time></trkpt><trkpt lat="45.9601533" lon="12.916655"><ele>44.0</ele><time>2026-03-28T09:51:28.154Z</time></trkpt><trkpt lat="45.9602633" lon="12.9166817"><ele>44.0</ele><time>2026-03-28T09:51:30.154Z</time></trkpt><trkpt lat="45.9603267" lon="12.9166817"><ele>44.0</ele><time>2026-03-28T09:51:31.154Z</time></trkpt><trkpt lat="45.9604167" lon="12.91668"><ele>44.0</ele><time>2026-03-28T09:51:32.155Z</time></trkpt><trkpt lat="45.9605133" lon="12.9166717"><ele>44.0</ele><time>2026-03-28T09:51:33.154Z</time></trkpt><trkpt lat="45.9605867" lon="12.916665"><ele>44.0</ele><time>2026-03-28T09:51:34.154Z</time></trkpt><trkpt lat="45.9606833" lon="12.91667"><ele>44.0</ele><time>2026-03-28T09:51:36.155Z</time></trkpt><trkpt lat="45.9607483" lon="12.916745"><ele>44.0</ele><time>2026-03-28T09:51:39.154Z</time></trkpt><trkpt lat="45.9607583" lon="12.91687"><ele>44.0</ele><time>2026-03-28T09:51:41.154Z</time></trkpt><trkpt lat="45.9607583" lon="12.9170483"><ele>43.83333333333333</ele><time>2026-03-28T09:51:43.154Z</time></trkpt><trkpt lat="45.9607617" lon="12.9171567"><ele>43.666666666666664</ele><time>2026-03-28T09:51:44.154Z</time></trkpt><trkpt lat="45.9607617" lon="12.91726"><ele>43.5</ele><time>2026-03-28T09:51:45.154Z</time></trkpt><trkpt lat="45.960765" lon="12.91737"><ele>43.333333333333336</ele><time>2026-03-28T09:51:46.154Z</time></trkpt><trkpt lat="45.960765" lon="12.9174967"><ele>43.16666666666667</ele><time>2026-03-28T09:51:47.154Z</time></trkpt><trkpt lat="45.9607667" lon="12.91763"><ele>43.0</ele><time>2026-03-28T09:51:48.154Z</time></trkpt><trkpt lat="45.9607667" lon="12.9177667"><ele>42.833333333333336</ele><time>2026-03-28T09:51:49.154Z</time></trkpt><trkpt lat="45.9607683" lon="12.9179033"><ele>42.66666666666667</ele><time>2026-03-28T09:51:50.154Z</time></trkpt><trkpt lat="45.9607717" lon="12.91803"><ele>42.5</ele><time>2026-03-28T09:51:51.154Z</time></trkpt><trkpt lat="45.960775" lon="12.91815"><ele>42.333333333333336</ele><time>2026-03-28T09:51:52.155Z</time></trkpt><trkpt lat="45.9607767" lon="12.918275"><ele>42.166666666666664</ele><time>2026-03-28T09:51:53.155Z</time></trkpt><trkpt lat="45.9607767" lon="12.9183983"><ele>42.0</ele><time>2026-03-28T09:51:54.155Z</time></trkpt><trkpt lat="45.960775" lon="12.9185217"><ele>42.166666666666664</ele><time>2026-03-28T09:51:55.154Z</time></trkpt><trkpt lat="45.9607767" lon="12.918645"><ele>42.333333333333336</ele><time>2026-03-28T09:51:56.155Z</time></trkpt><trkpt lat="45.9607817" lon="12.9187617"><ele>42.5</ele><time>2026-03-28T09:51:57.154Z</time></trkpt><trkpt lat="45.9607833" lon="12.918885"><ele>42.66666666666667</ele><time>2026-03-28T09:51:58.155Z</time></trkpt><trkpt lat="45.960785" lon="12.9190083"><ele>42.833333333333336</ele><time>2026-03-28T09:51:59.154Z</time></trkpt><trkpt lat="45.9607883" lon="12.9191333"><ele>43.0</ele><time>2026-03-28T09:52:00.154Z</time></trkpt><trkpt lat="45.9607883" lon="12.9192633"><ele>43.0</ele><time>2026-03-28T09:52:01.154Z</time></trkpt><trkpt lat="45.96079" lon="12.9193867"><ele>43.0</ele><time>2026-03-28T09:52:02.154Z</time></trkpt><trkpt lat="45.9607933" lon="12.9195067"><ele>43.0</ele><time>2026-03-28T09:52:03.154Z</time></trkpt><trkpt lat="45.960795" lon="12.9196333"><ele>43.0</ele><time>2026-03-28T09:52:04.154Z</time></trkpt><trkpt lat="45.9607983" lon="12.9197567"><ele>43.0</ele><time>2026-03-28T09:52:05.154Z</time></trkpt><trkpt lat="45.9608017" lon="12.9198867"><ele>43.0</ele><time>2026-03-28T09:52:06.154Z</time></trkpt><trkpt lat="45.9608067" lon="12.9200183"><ele>43.0</ele><time>2026-03-28T09:52:07.154Z</time></trkpt><trkpt lat="45.96081" lon="12.9201533"><ele>43.0</ele><time>2026-03-28T09:52:08.154Z</time></trkpt><trkpt lat="45.960815" lon="12.9202917"><ele>43.0</ele><time>2026-03-28T09:52:09.154Z</time></trkpt><trkpt lat="45.960815" lon="12.920425"><ele>43.0</ele><time>2026-03-28T09:52:10.154Z</time></trkpt><trkpt lat="45.9608167" lon="12.9205667"><ele>43.0</ele><time>2026-03-28T09:52:11.155Z</time></trkpt><trkpt lat="45.9608167" lon="12.9207167"><ele>43.0</ele><time>2026-03-28T09:52:12.155Z</time></trkpt><trkpt lat="45.96082" lon="12.9208683"><ele>43.0</ele><time>2026-03-28T09:52:13.154Z</time></trkpt><trkpt lat="45.9608233" lon="12.92102"><ele>43.0</ele><time>2026-03-28T09:52:14.155Z</time></trkpt><trkpt lat="45.960825" lon="12.92118"><ele>43.0</ele><time>2026-03-28T09:52:15.154Z</time></trkpt><trkpt lat="45.960825" lon="12.9213367"><ele>43.0</ele><time>2026-03-28T09:52:16.154Z</time></trkpt><trkpt lat="45.9608283" lon="12.9214867"><ele>42.8</ele><time>2026-03-28T09:52:17.154Z</time></trkpt><trkpt lat="45.96083" lon="12.9216283"><ele>42.599999999999994</ele><time>2026-03-28T09:52:18.154Z</time></trkpt><trkpt lat="45.9608333" lon="12.921765"><ele>42.400000000000006</ele><time>2026-03-28T09:52:19.155Z</time></trkpt><trkpt lat="45.9608367" lon="12.9218933"><ele>42.2</ele><time>2026-03-28T09:52:20.155Z</time></trkpt><trkpt lat="45.96084" lon="12.92202"><ele>42.0</ele><time>2026-03-28T09:52:21.154Z</time></trkpt><trkpt lat="45.9608467" lon="12.922155"><ele>42.0</ele><time>2026-03-28T09:52:22.154Z</time></trkpt><trkpt lat="45.9608533" lon="12.922295"><ele>42.0</ele><time>2026-03-28T09:52:23.154Z</time></trkpt><trkpt lat="45.9608517" lon="12.9224283"><ele>42.0</ele><time>2026-03-28T09:52:24.154Z</time></trkpt><trkpt lat="45.9608517" lon="12.9225667"><ele>42.0</ele><time>2026-03-28T09:52:25.155Z</time></trkpt><trkpt lat="45.960855" lon="12.9226983"><ele>42.0</ele><time>2026-03-28T09:52:26.154Z</time></trkpt><trkpt lat="45.9608567" lon="12.92283"><ele>42.2</ele><time>2026-03-28T09:52:27.154Z</time></trkpt><trkpt lat="45.9608567" lon="12.92297"><ele>42.400000000000006</ele><time>2026-03-28T09:52:28.154Z</time></trkpt><trkpt lat="45.9608583" lon="12.9231133"><ele>42.599999999999994</ele><time>2026-03-28T09:52:29.154Z</time></trkpt><trkpt lat="45.96086" lon="12.92325"><ele>42.8</ele><time>2026-03-28T09:52:30.155Z</time></trkpt><trkpt lat="45.9608633" lon="12.92339"><ele>43.0</ele><time>2026-03-28T09:52:31.155Z</time></trkpt><trkpt lat="45.96087" lon="12.9235317"><ele>43.0</ele><time>2026-03-28T09:52:32.154Z</time></trkpt><trkpt lat="45.9608767" lon="12.9236767"><ele>43.0</ele><time>2026-03-28T09:52:33.154Z</time></trkpt><trkpt lat="45.9608817" lon="12.9238267"><ele>43.0</ele><time>2026-03-28T09:52:34.154Z</time></trkpt><trkpt lat="45.9608867" lon="12.9239667"><ele>43.0</ele><time>2026-03-28T09:52:35.154Z</time></trkpt><trkpt lat="45.96089" lon="12.9241"><ele>43.0</ele><time>2026-03-28T09:52:36.154Z</time></trkpt><trkpt lat="45.9608967" lon="12.9242333"><ele>43.0</ele><time>2026-03-28T09:52:37.154Z</time></trkpt><trkpt lat="45.9608983" lon="12.9243717"><ele>43.0</ele><time>2026-03-28T09:52:38.154Z</time></trkpt><trkpt lat="45.9608967" lon="12.9245017"><ele>43.0</ele><time>2026-03-28T09:52:39.155Z</time></trkpt><trkpt lat="45.96089" lon="12.92462"><ele>43.0</ele><time>2026-03-28T09:52:40.154Z</time></trkpt><trkpt lat="45.960885" lon="12.9247133"><ele>43.0</ele><time>2026-03-28T09:52:41.154Z</time></trkpt><trkpt lat="45.9608867" lon="12.9248267"><ele>43.0</ele><time>2026-03-28T09:52:43.154Z</time></trkpt><trkpt lat="45.9608783" lon="12.9249483"><ele>43.0</ele><time>2026-03-28T09:52:46.154Z</time></trkpt><trkpt lat="45.96086" lon="12.9250483"><ele>43.0</ele><time>2026-03-28T09:52:49.154Z</time></trkpt><trkpt lat="45.9608033" lon="12.9251633"><ele>43.0</ele><time>2026-03-28T09:53:18.155Z</time></trkpt><trkpt lat="45.960725" lon="12.925225"><ele>43.0</ele><time>2026-03-28T09:53:21.155Z</time></trkpt><trkpt lat="45.9606567" lon="12.9252233"><ele>43.0</ele><time>2026-03-28T09:53:23.154Z</time></trkpt><trkpt lat="45.9605683" lon="12.925225"><ele>43.0</ele><time>2026-03-28T09:53:25.154Z</time></trkpt><trkpt lat="45.9604867" lon="12.9252267"><ele>43.0</ele><time>2026-03-28T09:53:27.154Z</time></trkpt><trkpt lat="45.96041" lon="12.9252433"><ele>43.0</ele><time>2026-03-28T09:53:29.155Z</time></trkpt><trkpt lat="45.9603433" lon="12.9252817"><ele>43.0</ele><time>2026-03-28T09:53:31.154Z</time></trkpt><trkpt lat="45.9602833" lon="12.92538"><ele>43.0</ele><time>2026-03-28T09:53:33.154Z</time></trkpt><trkpt lat="45.960265" lon="12.925525"><ele>43.0</ele><time>2026-03-28T09:53:35.154Z</time></trkpt><trkpt lat="45.960275" lon="12.925695"><ele>43.0</ele><time>2026-03-28T09:53:37.155Z</time></trkpt><trkpt lat="45.9602817" lon="12.9258"><ele>43.0</ele><time>2026-03-28T09:53:38.154Z</time></trkpt><trkpt lat="45.9602883" lon="12.9259383"><ele>43.0</ele><time>2026-03-28T09:53:39.154Z</time></trkpt><trkpt lat="45.9602967" lon="12.9260917"><ele>43.0</ele><time>2026-03-28T09:53:40.154Z</time></trkpt><trkpt lat="45.9603017" lon="12.9262383"><ele>43.0</ele><time>2026-03-28T09:53:41.154Z</time></trkpt><trkpt lat="45.9603033" lon="12.9263717"><ele>43.0</ele><time>2026-03-28T09:53:42.154Z</time></trkpt><trkpt lat="45.9602983" lon="12.9264967"><ele>43.0</ele><time>2026-03-28T09:53:43.154Z</time></trkpt><trkpt lat="45.9602933" lon="12.9266083"><ele>43.0</ele><time>2026-03-28T09:53:44.154Z</time></trkpt><trkpt lat="45.9602833" lon="12.9267167"><ele>43.0</ele><time>2026-03-28T09:53:45.154Z</time></trkpt><trkpt lat="45.9602583" lon="12.9268267"><ele>43.0</ele><time>2026-03-28T09:53:46.154Z</time></trkpt><trkpt lat="45.9602283" lon="12.9269383"><ele>43.0</ele><time>2026-03-28T09:53:47.154Z</time></trkpt><trkpt lat="45.9601867" lon="12.9270533"><ele>43.0</ele><time>2026-03-28T09:53:48.155Z</time></trkpt><trkpt lat="45.9601383" lon="12.927165"><ele>43.0</ele><time>2026-03-28T09:53:49.154Z</time></trkpt><trkpt lat="45.9600833" lon="12.9272733"><ele>43.0</ele><time>2026-03-28T09:53:50.154Z</time></trkpt><trkpt lat="45.9600233" lon="12.9273817"><ele>43.0</ele><time>2026-03-28T09:53:51.154Z</time></trkpt><trkpt lat="45.9599683" lon="12.92749"><ele>43.0</ele><time>2026-03-28T09:53:52.154Z</time></trkpt><trkpt lat="45.9599133" lon="12.9275967"><ele>43.16666666666667</ele><time>2026-03-28T09:53:53.155Z</time></trkpt><trkpt lat="45.959865" lon="12.9277033"><ele>43.333333333333336</ele><time>2026-03-28T09:53:54.154Z</time></trkpt><trkpt lat="45.9598267" lon="12.9278117"><ele>43.5</ele><time>2026-03-28T09:53:55.154Z</time></trkpt><trkpt lat="45.9597983" lon="12.927925"><ele>43.666666666666664</ele><time>2026-03-28T09:53:56.154Z</time></trkpt><trkpt lat="45.9597817" lon="12.9280417"><ele>43.83333333333333</ele><time>2026-03-28T09:53:57.155Z</time></trkpt><trkpt lat="45.9597767" lon="12.9281683"><ele>44.0</ele><time>2026-03-28T09:53:58.154Z</time></trkpt><trkpt lat="45.959775" lon="12.928295"><ele>43.800000000000004</ele><time>2026-03-28T09:53:59.155Z</time></trkpt><trkpt lat="45.9597683" lon="12.9284283"><ele>43.6</ele><time>2026-03-28T09:54:00.154Z</time></trkpt><trkpt lat="45.95976" lon="12.9285583"><ele>43.4</ele><time>2026-03-28T09:54:01.154Z</time></trkpt><trkpt lat="45.9597567" lon="12.928715"><ele>43.2</ele><time>2026-03-28T09:54:02.155Z</time></trkpt><trkpt lat="45.95975" lon="12.928885"><ele>43.0</ele><time>2026-03-28T09:54:03.155Z</time></trkpt><trkpt lat="45.959745" lon="12.9290767"><ele>43.333333333333336</ele><time>2026-03-28T09:54:04.154Z</time></trkpt><trkpt lat="45.95973" lon="12.92932"><ele>43.666666666666664</ele><time>2026-03-28T09:54:05.154Z</time></trkpt><trkpt lat="45.959725" lon="12.9295667"><ele>44.0</ele><time>2026-03-28T09:54:06.154Z</time></trkpt><trkpt lat="45.9597267" lon="12.9297933"><ele>44.0</ele><time>2026-03-28T09:54:07.154Z</time></trkpt><trkpt lat="45.9597167" lon="12.9300033"><ele>44.0</ele><time>2026-03-28T09:54:08.154Z</time></trkpt><trkpt lat="45.959715" lon="12.9302"><ele>44.0</ele><time>2026-03-28T09:54:09.154Z</time></trkpt><trkpt lat="45.9597" lon="12.9303883"><ele>44.0</ele><time>2026-03-28T09:54:10.154Z</time></trkpt><trkpt lat="45.959695" lon="12.9305767"><ele>44.0</ele><time>2026-03-28T09:54:11.155Z</time></trkpt><trkpt lat="45.95968" lon="12.930745"><ele>44.0</ele><time>2026-03-28T09:54:12.154Z</time></trkpt><trkpt lat="45.9596733" lon="12.9309"><ele>44.0</ele><time>2026-03-28T09:54:13.154Z</time></trkpt><trkpt lat="45.9596667" lon="12.9310217"><ele>44.0</ele><time>2026-03-28T09:54:14.155Z</time></trkpt><trkpt lat="45.9596567" lon="12.9311733"><ele>44.0</ele><time>2026-03-28T09:54:16.154Z</time></trkpt><trkpt lat="45.95969" lon="12.9312783"><ele>44.0</ele><time>2026-03-28T09:54:21.155Z</time></trkpt><trkpt lat="45.9597567" lon="12.9312867"><ele>44.0</ele><time>2026-03-28T09:54:22.155Z</time></trkpt><trkpt lat="45.95986" lon="12.9312817"><ele>44.0</ele><time>2026-03-28T09:54:23.155Z</time></trkpt><trkpt lat="45.9600017" lon="12.9312583"><ele>44.0</ele><time>2026-03-28T09:54:24.154Z</time></trkpt><trkpt lat="45.9601483" lon="12.9312417"><ele>43.800000000000004</ele><time>2026-03-28T09:54:25.155Z</time></trkpt><trkpt lat="45.9602767" lon="12.931235"><ele>43.6</ele><time>2026-03-28T09:54:26.154Z</time></trkpt><trkpt lat="45.9603733" lon="12.93125"><ele>43.4</ele><time>2026-03-28T09:54:27.154Z</time></trkpt><trkpt lat="45.9604533" lon="12.93129"><ele>43.2</ele><time>2026-03-28T09:54:28.154Z</time></trkpt><trkpt lat="45.96049" lon="12.93138"><ele>43.0</ele><time>2026-03-28T09:54:29.154Z</time></trkpt><trkpt lat="45.960505" lon="12.9315117"><ele>43.0</ele><time>2026-03-28T09:54:30.154Z</time></trkpt><trkpt lat="45.9604983" lon="12.93168"><ele>43.0</ele><time>2026-03-28T09:54:31.154Z</time></trkpt><trkpt lat="45.9604883" lon="12.931865"><ele>43.0</ele><time>2026-03-28T09:54:32.154Z</time></trkpt><trkpt lat="45.9604867" lon="12.9320367"><ele>43.0</ele><time>2026-03-28T09:54:33.154Z</time></trkpt><trkpt lat="45.9604883" lon="12.9321933"><ele>43.0</ele><time>2026-03-28T09:54:34.154Z</time></trkpt><trkpt lat="45.9604933" lon="12.932345"><ele>43.0</ele><time>2026-03-28T09:54:35.155Z</time></trkpt><trkpt lat="45.960495" lon="12.9324767"><ele>43.0</ele><time>2026-03-28T09:54:36.154Z</time></trkpt><trkpt lat="45.9605017" lon="12.9325917"><ele>43.0</ele><time>2026-03-28T09:54:37.154Z</time></trkpt><trkpt lat="45.9605217" lon="12.9326917"><ele>43.0</ele><time>2026-03-28T09:54:38.155Z</time></trkpt><trkpt lat="45.9605567" lon="12.9327717"><ele>43.0</ele><time>2026-03-28T09:54:39.154Z</time></trkpt><trkpt lat="45.9606133" lon="12.93283"><ele>43.0</ele><time>2026-03-28T09:54:40.153Z</time></trkpt><trkpt lat="45.9606783" lon="12.932855"><ele>43.0</ele><time>2026-03-28T09:54:41.153Z</time></trkpt><trkpt lat="45.9607967" lon="12.932885"><ele>43.0</ele><time>2026-03-28T09:54:43.153Z</time></trkpt><trkpt lat="45.9608867" lon="12.9329233"><ele>43.0</ele><time>2026-03-28T09:54:44.153Z</time></trkpt><trkpt lat="45.9609733" lon="12.9330117"><ele>43.0</ele><time>2026-03-28T09:54:45.153Z</time></trkpt><trkpt lat="45.9610767" lon="12.9331167"><ele>43.0</ele><time>2026-03-28T09:54:46.153Z</time></trkpt><trkpt lat="45.9611883" lon="12.9332217"><ele>43.0</ele><time>2026-03-28T09:54:47.153Z</time></trkpt><trkpt lat="45.961305" lon="12.9333267"><ele>43.0</ele><time>2026-03-28T09:54:48.153Z</time></trkpt><trkpt lat="45.961435" lon="12.9334333"><ele>43.0</ele><time>2026-03-28T09:54:49.154Z</time></trkpt><trkpt lat="45.961565" lon="12.9335433"><ele>43.0</ele><time>2026-03-28T09:54:50.153Z</time></trkpt><trkpt lat="45.9616983" lon="12.93366"><ele>43.0</ele><time>2026-03-28T09:54:51.153Z</time></trkpt><trkpt lat="45.9618333" lon="12.9337767"><ele>43.0</ele><time>2026-03-28T09:54:52.153Z</time></trkpt><trkpt lat="45.9619667" lon="12.9338933"><ele>43.0</ele><time>2026-03-28T09:54:53.153Z</time></trkpt><trkpt lat="45.9621" lon="12.9340133"><ele>43.0</ele><time>2026-03-28T09:54:54.153Z</time></trkpt><trkpt lat="45.96224" lon="12.9341333"><ele>43.0</ele><time>2026-03-28T09:54:55.153Z</time></trkpt><trkpt lat="45.962375" lon="12.9342517"><ele>43.333333333333336</ele><time>2026-03-28T09:54:56.154Z</time></trkpt><trkpt lat="45.96251" lon="12.9343667"><ele>43.666666666666664</ele><time>2026-03-28T09:54:57.154Z</time></trkpt><trkpt lat="45.9626433" lon="12.9344817"><ele>44.0</ele><time>2026-03-28T09:54:58.153Z</time></trkpt><trkpt lat="45.962775" lon="12.9345967"><ele>44.33333333333333</ele><time>2026-03-28T09:54:59.153Z</time></trkpt><trkpt lat="45.962905" lon="12.9347167"><ele>44.666666666666664</ele><time>2026-03-28T09:55:00.153Z</time></trkpt><trkpt lat="45.96304" lon="12.9348333"><ele>45.0</ele><time>2026-03-28T09:55:01.153Z</time></trkpt><trkpt lat="45.963175" lon="12.93495"><ele>44.666666666666664</ele><time>2026-03-28T09:55:02.153Z</time></trkpt><trkpt lat="45.963315" lon="12.935075"><ele>44.33333333333333</ele><time>2026-03-28T09:55:03.154Z</time></trkpt><trkpt lat="45.9634567" lon="12.9351983"><ele>44.0</ele><time>2026-03-28T09:55:04.154Z</time></trkpt><trkpt lat="45.9636067" lon="12.9353233"><ele>44.0</ele><time>2026-03-28T09:55:05.153Z</time></trkpt><trkpt lat="45.9637633" lon="12.9354633"><ele>44.0</ele><time>2026-03-28T09:55:06.153Z</time></trkpt><trkpt lat="45.9639267" lon="12.9356017"><ele>44.0</ele><time>2026-03-28T09:55:07.153Z</time></trkpt><trkpt lat="45.9640933" lon="12.9357433"><ele>44.33333333333333</ele><time>2026-03-28T09:55:08.153Z</time></trkpt><trkpt lat="45.9642617" lon="12.93589"><ele>44.666666666666664</ele><time>2026-03-28T09:55:09.153Z</time></trkpt><trkpt lat="45.9644333" lon="12.9360367"><ele>45.0</ele><time>2026-03-28T09:55:10.153Z</time></trkpt><trkpt lat="45.9646033" lon="12.9361817"><ele>45.0</ele><time>2026-03-28T09:55:11.153Z</time></trkpt><trkpt lat="45.96477" lon="12.9363267"><ele>45.0</ele><time>2026-03-28T09:55:12.153Z</time></trkpt><trkpt lat="45.9649367" lon="12.9364733"><ele>45.0</ele><time>2026-03-28T09:55:13.153Z</time></trkpt><trkpt lat="45.9651" lon="12.936615"><ele>44.333333333333336</ele><time>2026-03-28T09:55:14.153Z</time></trkpt><trkpt lat="45.965265" lon="12.9367567"><ele>43.66666666666667</ele><time>2026-03-28T09:55:15.153Z</time></trkpt><trkpt lat="45.9654283" lon="12.9368983"><ele>43.0</ele><time>2026-03-28T09:55:16.153Z</time></trkpt><trkpt lat="45.9655917" lon="12.93704"><ele>43.0</ele><time>2026-03-28T09:55:17.153Z</time></trkpt><trkpt lat="45.9657467" lon="12.9371783"><ele>43.0</ele><time>2026-03-28T09:55:18.153Z</time></trkpt><trkpt lat="45.96589" lon="12.9373033"><ele>43.0</ele><time>2026-03-28T09:55:19.154Z</time></trkpt><trkpt lat="45.9660267" lon="12.93742"><ele>43.0</ele><time>2026-03-28T09:55:20.153Z</time></trkpt><trkpt lat="45.9661583" lon="12.9375367"><ele>43.0</ele><time>2026-03-28T09:55:21.153Z</time></trkpt><trkpt lat="45.96629" lon="12.93766"><ele>43.0</ele><time>2026-03-28T09:55:22.153Z</time></trkpt><trkpt lat="45.9664133" lon="12.9377783"><ele>43.25</ele><time>2026-03-28T09:55:23.153Z</time></trkpt><trkpt lat="45.96653" lon="12.937885"><ele>43.5</ele><time>2026-03-28T09:55:24.154Z</time></trkpt><trkpt lat="45.9666333" lon="12.937985"><ele>43.75</ele><time>2026-03-28T09:55:25.153Z</time></trkpt><trkpt lat="45.966725" lon="12.9380883"><ele>44.0</ele><time>2026-03-28T09:55:26.154Z</time></trkpt><trkpt lat="45.9667883" lon="12.9381983"><ele>44.33333333333333</ele><time>2026-03-28T09:55:27.153Z</time></trkpt><trkpt lat="45.9668333" lon="12.9383067"><ele>44.666666666666664</ele><time>2026-03-28T09:55:28.153Z</time></trkpt><trkpt lat="45.9668717" lon="12.9383933"><ele>45.0</ele><time>2026-03-28T09:55:29.153Z</time></trkpt><trkpt lat="45.9669167" lon="12.93846"><ele>45.333333333333336</ele><time>2026-03-28T09:55:30.154Z</time></trkpt><trkpt lat="45.9670033" lon="12.9385167"><ele>45.66666666666667</ele><time>2026-03-28T09:55:32.153Z</time></trkpt><trkpt lat="45.9670933" lon="12.9385083"><ele>46.0</ele><time>2026-03-28T09:55:53.153Z</time></trkpt><trkpt lat="45.96714" lon="12.9386333"><ele>46.199999999999996</ele><time>2026-03-28T09:56:04.153Z</time></trkpt><trkpt lat="45.96719" lon="12.938705"><ele>46.4</ele><time>2026-03-28T09:56:05.153Z</time></trkpt><trkpt lat="45.9672617" lon="12.938745"><ele>46.6</ele><time>2026-03-28T09:56:06.154Z</time></trkpt><trkpt lat="45.96736" lon="12.9387567"><ele>46.8</ele><time>2026-03-28T09:56:07.153Z</time></trkpt><trkpt lat="45.9674767" lon="12.9387467"><ele>47.0</ele><time>2026-03-28T09:56:08.153Z</time></trkpt><trkpt lat="45.9675867" lon="12.9387217"><ele>46.6</ele><time>2026-03-28T09:56:09.154Z</time></trkpt><trkpt lat="45.967695" lon="12.9386983"><ele>46.2</ele><time>2026-03-28T09:56:10.154Z</time></trkpt><trkpt lat="45.96779" lon="12.9386833"><ele>45.8</ele><time>2026-03-28T09:56:11.153Z</time></trkpt><trkpt lat="45.9678683" lon="12.93868"><ele>45.4</ele><time>2026-03-28T09:56:12.154Z</time></trkpt><trkpt lat="45.96796" lon="12.93876"><ele>45.0</ele><time>2026-03-28T09:56:14.153Z</time></trkpt><trkpt lat="45.96798" lon="12.9389167"><ele>45.0</ele><time>2026-03-28T09:56:16.153Z</time></trkpt><trkpt lat="45.9679683" lon="12.9390533"><ele>45.0</ele><time>2026-03-28T09:56:17.153Z</time></trkpt><trkpt lat="45.9679517" lon="12.939235"><ele>45.0</ele><time>2026-03-28T09:56:18.153Z</time></trkpt><trkpt lat="45.9679317" lon="12.9394267"><ele>45.0</ele><time>2026-03-28T09:56:19.153Z</time></trkpt><trkpt lat="45.9679017" lon="12.9396183"><ele>44.75</ele><time>2026-03-28T09:56:20.153Z</time></trkpt><trkpt lat="45.9678867" lon="12.9397917"><ele>44.5</ele><time>2026-03-28T09:56:21.153Z</time></trkpt><trkpt lat="45.9678717" lon="12.939955"><ele>44.25</ele><time>2026-03-28T09:56:22.153Z</time></trkpt><trkpt lat="45.9678783" lon="12.9401183"><ele>44.0</ele><time>2026-03-28T09:56:23.153Z</time></trkpt><trkpt lat="45.967895" lon="12.9402833"><ele>44.0</ele><time>2026-03-28T09:56:24.153Z</time></trkpt><trkpt lat="45.967925" lon="12.9404633"><ele>44.0</ele><time>2026-03-28T09:56:25.154Z</time></trkpt><trkpt lat="45.9679733" lon="12.940665"><ele>44.0</ele><time>2026-03-28T09:56:26.153Z</time></trkpt><trkpt lat="45.96802" lon="12.9408683"><ele>44.0</ele><time>2026-03-28T09:56:27.153Z</time></trkpt><trkpt lat="45.9680583" lon="12.941075"><ele>44.25</ele><time>2026-03-28T09:56:28.153Z</time></trkpt><trkpt lat="45.9680967" lon="12.9412817"><ele>44.5</ele><time>2026-03-28T09:56:29.153Z</time></trkpt><trkpt lat="45.96813" lon="12.941485"><ele>44.75</ele><time>2026-03-28T09:56:30.153Z</time></trkpt><trkpt lat="45.9681617" lon="12.9416867"><ele>45.0</ele><time>2026-03-28T09:56:31.153Z</time></trkpt><trkpt lat="45.9681867" lon="12.941885"><ele>45.0</ele><time>2026-03-28T09:56:32.153Z</time></trkpt><trkpt lat="45.96821" lon="12.9420767"><ele>45.0</ele><time>2026-03-28T09:56:33.153Z</time></trkpt><trkpt lat="45.9682283" lon="12.9422583"><ele>45.0</ele><time>2026-03-28T09:56:34.153Z</time></trkpt><trkpt lat="45.968235" lon="12.94244"><ele>45.0</ele><time>2026-03-28T09:56:35.154Z</time></trkpt><trkpt lat="45.9682367" lon="12.9426267"><ele>45.25</ele><time>2026-03-28T09:56:36.153Z</time></trkpt><trkpt lat="45.9682317" lon="12.9428117"><ele>45.5</ele><time>2026-03-28T09:56:37.154Z</time></trkpt><trkpt lat="45.9682467" lon="12.94299"><ele>45.75</ele><time>2026-03-28T09:56:38.153Z</time></trkpt><trkpt lat="45.9682767" lon="12.9431633"><ele>46.0</ele><time>2026-03-28T09:56:39.153Z</time></trkpt><trkpt lat="45.9683117" lon="12.943335"><ele>46.0</ele><time>2026-03-28T09:56:40.153Z</time></trkpt><trkpt lat="45.96836" lon="12.943525"><ele>46.0</ele><time>2026-03-28T09:56:41.153Z</time></trkpt><trkpt lat="45.9684167" lon="12.9437333"><ele>46.0</ele><time>2026-03-28T09:56:42.153Z</time></trkpt><trkpt lat="45.9684783" lon="12.9439333"><ele>46.0</ele><time>2026-03-28T09:56:43.153Z</time></trkpt><trkpt lat="45.9685317" lon="12.9441367"><ele>45.333333333333336</ele><time>2026-03-28T09:56:44.153Z</time></trkpt><trkpt lat="45.9685917" lon="12.9443483"><ele>44.666666666666664</ele><time>2026-03-28T09:56:45.153Z</time></trkpt><trkpt lat="45.9686567" lon="12.944565"><ele>44.0</ele><time>2026-03-28T09:56:46.153Z</time></trkpt><trkpt lat="45.9687133" lon="12.9447883"><ele>44.0</ele><time>2026-03-28T09:56:47.153Z</time></trkpt><trkpt lat="45.9687683" lon="12.9450067"><ele>44.0</ele><time>2026-03-28T09:56:48.153Z</time></trkpt><trkpt lat="45.96882" lon="12.94523"><ele>44.0</ele><time>2026-03-28T09:56:49.153Z</time></trkpt><trkpt lat="45.9688667" lon="12.9454517"><ele>43.666666666666664</ele><time>2026-03-28T09:56:50.153Z</time></trkpt><trkpt lat="45.968905" lon="12.9456833"><ele>43.333333333333336</ele><time>2026-03-28T09:56:51.153Z</time></trkpt><trkpt lat="45.9689467" lon="12.945925"><ele>43.0</ele><time>2026-03-28T09:56:52.153Z</time></trkpt><trkpt lat="45.968985" lon="12.9461683"><ele>43.0</ele><time>2026-03-28T09:56:53.153Z</time></trkpt><trkpt lat="45.9690267" lon="12.9464233"><ele>43.0</ele><time>2026-03-28T09:56:54.153Z</time></trkpt><trkpt lat="45.9690733" lon="12.94668"><ele>43.0</ele><time>2026-03-28T09:56:55.153Z</time></trkpt><trkpt lat="45.96912" lon="12.9469417"><ele>43.0</ele><time>2026-03-28T09:56:56.153Z</time></trkpt><trkpt lat="45.969175" lon="12.9472017"><ele>43.0</ele><time>2026-03-28T09:56:57.154Z</time></trkpt><trkpt lat="45.9692267" lon="12.9474583"><ele>43.0</ele><time>2026-03-28T09:56:58.153Z</time></trkpt><trkpt lat="45.9692833" lon="12.9477083"><ele>43.0</ele><time>2026-03-28T09:56:59.154Z</time></trkpt><trkpt lat="45.9693417" lon="12.9479533"><ele>43.0</ele><time>2026-03-28T09:57:00.154Z</time></trkpt><trkpt lat="45.969395" lon="12.9481883"><ele>43.0</ele><time>2026-03-28T09:57:01.153Z</time></trkpt><trkpt lat="45.9694383" lon="12.9484167"><ele>43.0</ele><time>2026-03-28T09:57:02.154Z</time></trkpt><trkpt lat="45.969475" lon="12.9486417"><ele>43.0</ele><time>2026-03-28T09:57:03.153Z</time></trkpt><trkpt lat="45.9695033" lon="12.9488767"><ele>43.0</ele><time>2026-03-28T09:57:04.153Z</time></trkpt><trkpt lat="45.9695233" lon="12.949115"><ele>43.0</ele><time>2026-03-28T09:57:05.153Z</time></trkpt><trkpt lat="45.9695433" lon="12.9493417"><ele>43.0</ele><time>2026-03-28T09:57:06.153Z</time></trkpt><trkpt lat="45.96956" lon="12.9495617"><ele>43.0</ele><time>2026-03-28T09:57:07.153Z</time></trkpt><trkpt lat="45.9695833" lon="12.9497883"><ele>43.0</ele><time>2026-03-28T09:57:08.153Z</time></trkpt><trkpt lat="45.9696117" lon="12.9500117"><ele>43.0</ele><time>2026-03-28T09:57:09.153Z</time></trkpt><trkpt lat="45.9696483" lon="12.9502317"><ele>43.0</ele><time>2026-03-28T09:57:10.154Z</time></trkpt><trkpt lat="45.9696917" lon="12.9504467"><ele>43.333333333333336</ele><time>2026-03-28T09:57:11.153Z</time></trkpt><trkpt lat="45.9697517" lon="12.9506583"><ele>43.666666666666664</ele><time>2026-03-28T09:57:12.154Z</time></trkpt><trkpt lat="45.9698183" lon="12.9508667"><ele>44.0</ele><time>2026-03-28T09:57:13.153Z</time></trkpt><trkpt lat="45.9698917" lon="12.951085"><ele>44.0</ele><time>2026-03-28T09:57:14.153Z</time></trkpt><trkpt lat="45.9699633" lon="12.9512983"><ele>44.0</ele><time>2026-03-28T09:57:15.154Z</time></trkpt><trkpt lat="45.9700317" lon="12.95151"><ele>44.0</ele><time>2026-03-28T09:57:16.153Z</time></trkpt><trkpt lat="45.9701033" lon="12.9517183"><ele>44.0</ele><time>2026-03-28T09:57:17.153Z</time></trkpt><trkpt lat="45.970185" lon="12.95194"><ele>44.0</ele><time>2026-03-28T09:57:18.153Z</time></trkpt></trkseg><trkseg><trkpt lat="45.972715" lon="12.95649"><ele>44.0</ele><time>2026-03-28T10:03:27.341Z</time></trkpt><trkpt lat="45.9727033" lon="12.9567717"><ele>44.0</ele><time>2026-03-28T10:04:03.154Z</time></trkpt><trkpt lat="45.972615" lon="12.9566983"><ele>44.0</ele><time>2026-03-28T10:14:17.56Z</time></trkpt><trkpt lat="45.9726333" lon="12.9568683"><ele>44.0</ele><time>2026-03-28T10:14:30.154Z</time></trkpt><trkpt lat="45.9727017" lon="12.9567833"><ele>44.0</ele><time>2026-03-28T10:19:36.153Z</time></trkpt><trkpt lat="45.9728033" lon="12.9567267"><ele>44.0</ele><time>2026-03-28T10:19:38.153Z</time></trkpt><trkpt lat="45.9728617" lon="12.9566917"><ele>44.0</ele><time>2026-03-28T10:19:39.153Z</time></trkpt><trkpt lat="45.97293" lon="12.95665"><ele>44.0</ele><time>2026-03-28T10:19:40.153Z</time></trkpt><trkpt lat="45.9730067" lon="12.9565933"><ele>44.0</ele><time>2026-03-28T10:19:41.153Z</time></trkpt><trkpt lat="45.973095" lon="12.956535"><ele>44.0</ele><time>2026-03-28T10:19:42.153Z</time></trkpt><trkpt lat="45.9731933" lon="12.9564733"><ele>44.0</ele><time>2026-03-28T10:19:43.153Z</time></trkpt><trkpt lat="45.9732883" lon="12.95641"><ele>44.0</ele><time>2026-03-28T10:19:44.154Z</time></trkpt><trkpt lat="45.9733883" lon="12.95635"><ele>44.0</ele><time>2026-03-28T10:19:45.153Z</time></trkpt><trkpt lat="45.973495" lon="12.95628"><ele>44.0</ele><time>2026-03-28T10:19:46.153Z</time></trkpt><trkpt lat="45.973595" lon="12.9562067"><ele>44.0</ele><time>2026-03-28T10:19:47.153Z</time></trkpt><trkpt lat="45.9736933" lon="12.95613"><ele>44.0</ele><time>2026-03-28T10:19:48.153Z</time></trkpt><trkpt lat="45.97379" lon="12.9560467"><ele>44.0</ele><time>2026-03-28T10:19:49.154Z</time></trkpt><trkpt lat="45.97388" lon="12.9559717"><ele>44.0</ele><time>2026-03-28T10:19:50.153Z</time></trkpt><trkpt lat="45.9739633" lon="12.955905"><ele>44.0</ele><time>2026-03-28T10:19:51.153Z</time></trkpt><trkpt lat="45.974045" lon="12.9558283"><ele>44.0</ele><time>2026-03-28T10:19:52.153Z</time></trkpt><trkpt lat="45.9741183" lon="12.9557633"><ele>44.0</ele><time>2026-03-28T10:19:53.153Z</time></trkpt><trkpt lat="45.97419" lon="12.9556867"><ele>44.0</ele><time>2026-03-28T10:19:54.153Z</time></trkpt><trkpt lat="45.9742567" lon="12.9556183"><ele>44.0</ele><time>2026-03-28T10:19:55.153Z</time></trkpt><trkpt lat="45.97431" lon="12.9555683"><ele>44.0</ele><time>2026-03-28T10:19:56.153Z</time></trkpt><trkpt lat="45.9743917" lon="12.9555283"><ele>44.0</ele><time>2026-03-28T10:19:58.154Z</time></trkpt><trkpt lat="45.97446" lon="12.955575"><ele>44.0</ele><time>2026-03-28T10:20:00.153Z</time></trkpt><trkpt lat="45.974565" lon="12.95572"><ele>44.0</ele><time>2026-03-28T10:20:02.153Z</time></trkpt><trkpt lat="45.9746517" lon="12.9558167"><ele>44.0</ele><time>2026-03-28T10:20:03.153Z</time></trkpt><trkpt lat="45.97474" lon="12.95592"><ele>44.0</ele><time>2026-03-28T10:20:04.153Z</time></trkpt><trkpt lat="45.97481" lon="12.9560233"><ele>44.0</ele><time>2026-03-28T10:20:05.153Z</time></trkpt><trkpt lat="45.9748683" lon="12.956125"><ele>44.0</ele><time>2026-03-28T10:20:06.153Z</time></trkpt><trkpt lat="45.9749233" lon="12.95623"><ele>44.0</ele><time>2026-03-28T10:20:07.153Z</time></trkpt><trkpt lat="45.9749767" lon="12.9563333"><ele>44.0</ele><time>2026-03-28T10:20:08.154Z</time></trkpt><trkpt lat="45.97502" lon="12.956425"><ele>44.0</ele><time>2026-03-28T10:20:09.153Z</time></trkpt><trkpt lat="45.9750617" lon="12.9565"><ele>44.0</ele><time>2026-03-28T10:20:10.153Z</time></trkpt><trkpt lat="45.9751417" lon="12.9565767"><ele>44.0</ele><time>2026-03-28T10:20:12.153Z</time></trkpt><trkpt lat="45.975225" lon="12.9565267"><ele>44.0</ele><time>2026-03-28T10:20:14.153Z</time></trkpt><trkpt lat="45.9753033" lon="12.956475"><ele>44.0</ele><time>2026-03-28T10:20:16.154Z</time></trkpt><trkpt lat="45.9753883" lon="12.9565033"><ele>44.0</ele><time>2026-03-28T10:20:19.154Z</time></trkpt><trkpt lat="45.9754667" lon="12.95655"><ele>44.0</ele><time>2026-03-28T10:20:21.153Z</time></trkpt><trkpt lat="45.9755483" lon="12.9566167"><ele>44.0</ele><time>2026-03-28T10:20:23.153Z</time></trkpt><trkpt lat="45.9756783" lon="12.9567183"><ele>44.0</ele><time>2026-03-28T10:20:25.153Z</time></trkpt><trkpt lat="45.975765" lon="12.9567783"><ele>44.400000000000006</ele><time>2026-03-28T10:20:26.153Z</time></trkpt><trkpt lat="45.9758617" lon="12.956835"><ele>44.8</ele><time>2026-03-28T10:20:27.153Z</time></trkpt><trkpt lat="45.9759633" lon="12.9568733"><ele>45.2</ele><time>2026-03-28T10:20:28.152Z</time></trkpt><trkpt lat="45.97608" lon="12.9569167"><ele>45.599999999999994</ele><time>2026-03-28T10:20:29.153Z</time></trkpt><trkpt lat="45.9761867" lon="12.9569483"><ele>46.0</ele><time>2026-03-28T10:20:30.153Z</time></trkpt><trkpt lat="45.97628" lon="12.95698"><ele>46.0</ele><time>2026-03-28T10:20:31.152Z</time></trkpt><trkpt lat="45.9763717" lon="12.9570033"><ele>46.0</ele><time>2026-03-28T10:20:32.152Z</time></trkpt><trkpt lat="45.9764717" lon="12.9570217"><ele>46.0</ele><time>2026-03-28T10:20:33.152Z</time></trkpt><trkpt lat="45.9765717" lon="12.9570483"><ele>46.0</ele><time>2026-03-28T10:20:34.153Z</time></trkpt><trkpt lat="45.97667" lon="12.9570867"><ele>46.0</ele><time>2026-03-28T10:20:35.152Z</time></trkpt><trkpt lat="45.9767833" lon="12.957135"><ele>46.0</ele><time>2026-03-28T10:20:36.153Z</time></trkpt><trkpt lat="45.9768917" lon="12.957185"><ele>46.0</ele><time>2026-03-28T10:20:37.152Z</time></trkpt><trkpt lat="45.977005" lon="12.9572333"><ele>46.0</ele><time>2026-03-28T10:20:38.153Z</time></trkpt><trkpt lat="45.9771167" lon="12.9572783"><ele>46.0</ele><time>2026-03-28T10:20:39.153Z</time></trkpt><trkpt lat="45.9772217" lon="12.957315"><ele>46.0</ele><time>2026-03-28T10:20:40.152Z</time></trkpt><trkpt lat="45.9773312" lon="12.9573566"><ele>46.0</ele><time>2026-03-28T10:20:41.153Z</time></trkpt><trkpt lat="45.9774457" lon="12.9573901"><ele>46.0</ele><time>2026-03-28T10:20:42.152Z</time></trkpt><trkpt lat="45.9775575" lon="12.9574119"><ele>46.0</ele><time>2026-03-28T10:20:43.152Z</time></trkpt><trkpt lat="45.9776683" lon="12.9574196"><ele>46.0</ele><time>2026-03-28T10:20:44.152Z</time></trkpt><trkpt lat="45.9777798" lon="12.9574209"><ele>46.0</ele><time>2026-03-28T10:20:45.152Z</time></trkpt><trkpt lat="45.9778846" lon="12.9574294"><ele>46.0</ele><time>2026-03-28T10:20:46.152Z</time></trkpt><trkpt lat="45.9779874" lon="12.9574499"><ele>46.0</ele><time>2026-03-28T10:20:47.153Z</time></trkpt><trkpt lat="45.978091" lon="12.9574832"><ele>46.0</ele><time>2026-03-28T10:20:48.152Z</time></trkpt><trkpt lat="45.9782026" lon="12.9575363"><ele>46.0</ele><time>2026-03-28T10:20:49.152Z</time></trkpt><trkpt lat="45.9783206" lon="12.957594"><ele>46.0</ele><time>2026-03-28T10:20:50.152Z</time></trkpt><trkpt lat="45.9784328" lon="12.9576494"><ele>46.0</ele><time>2026-03-28T10:20:51.152Z</time></trkpt><trkpt lat="45.9785345" lon="12.9577027"><ele>46.0</ele><time>2026-03-28T10:20:52.152Z</time></trkpt><trkpt lat="45.9786286" lon="12.9577597"><ele>46.0</ele><time>2026-03-28T10:20:53.153Z</time></trkpt><trkpt lat="45.9787077" lon="12.9578075"><ele>46.0</ele><time>2026-03-28T10:20:54.153Z</time></trkpt><trkpt lat="45.9787779" lon="12.9578412"><ele>46.0</ele><time>2026-03-28T10:20:55.152Z</time></trkpt><trkpt lat="45.9788419" lon="12.9578539"><ele>46.0</ele><time>2026-03-28T10:20:56.152Z</time></trkpt><trkpt lat="45.9789635" lon="12.9578364"><ele>46.0</ele><time>2026-03-28T10:20:58.152Z</time></trkpt><trkpt lat="45.9790717" lon="12.9579022"><ele>46.0</ele><time>2026-03-28T10:21:00.152Z</time></trkpt><trkpt lat="45.9791339" lon="12.9579852"><ele>46.0</ele><time>2026-03-28T10:21:01.152Z</time></trkpt><trkpt lat="45.9792125" lon="12.9580922"><ele>46.0</ele><time>2026-03-28T10:21:02.152Z</time></trkpt><trkpt lat="45.9793016" lon="12.9582098"><ele>46.0</ele><time>2026-03-28T10:21:03.153Z</time></trkpt><trkpt lat="45.9793938" lon="12.9583168"><ele>46.0</ele><time>2026-03-28T10:21:04.152Z</time></trkpt><trkpt lat="45.9794832" lon="12.9584029"><ele>46.5</ele><time>2026-03-28T10:21:05.152Z</time></trkpt><trkpt lat="45.9795813" lon="12.9584768"><ele>47.0</ele><time>2026-03-28T10:21:06.153Z</time></trkpt><trkpt lat="45.9796924" lon="12.9585448"><ele>47.5</ele><time>2026-03-28T10:21:07.152Z</time></trkpt><trkpt lat="45.9798093" lon="12.9586077"><ele>48.0</ele><time>2026-03-28T10:21:08.152Z</time></trkpt><trkpt lat="45.9799258" lon="12.9586603"><ele>48.25</ele><time>2026-03-28T10:21:09.153Z</time></trkpt><trkpt lat="45.9800476" lon="12.9587108"><ele>48.5</ele><time>2026-03-28T10:21:10.152Z</time></trkpt><trkpt lat="45.9801642" lon="12.9587656"><ele>48.75</ele><time>2026-03-28T10:21:11.152Z</time></trkpt><trkpt lat="45.9802801" lon="12.9588265"><ele>49.0</ele><time>2026-03-28T10:21:12.152Z</time></trkpt><trkpt lat="45.9804135" lon="12.9589033"><ele>49.0</ele><time>2026-03-28T10:21:13.153Z</time></trkpt><trkpt lat="45.9805608" lon="12.958985"><ele>49.0</ele><time>2026-03-28T10:21:14.152Z</time></trkpt><trkpt lat="45.9807162" lon="12.9590565"><ele>49.0</ele><time>2026-03-28T10:21:15.152Z</time></trkpt><trkpt lat="45.9808738" lon="12.9591179"><ele>49.0</ele><time>2026-03-28T10:21:16.153Z</time></trkpt><trkpt lat="45.9810407" lon="12.9591751"><ele>49.0</ele><time>2026-03-28T10:21:17.152Z</time></trkpt><trkpt lat="45.9812136" lon="12.9592291"><ele>49.0</ele><time>2026-03-28T10:21:18.152Z</time></trkpt><trkpt lat="45.981388" lon="12.9592806"><ele>49.0</ele><time>2026-03-28T10:21:19.152Z</time></trkpt><trkpt lat="45.9815574" lon="12.9593366"><ele>49.0</ele><time>2026-03-28T10:21:20.152Z</time></trkpt><trkpt lat="45.9817214" lon="12.9593915"><ele>49.0</ele><time>2026-03-28T10:21:21.152Z</time></trkpt><trkpt lat="45.9818814" lon="12.9594438"><ele>48.666666666666664</ele><time>2026-03-28T10:21:22.153Z</time></trkpt><trkpt lat="45.9820418" lon="12.9594944"><ele>48.33333333333333</ele><time>2026-03-28T10:21:23.152Z</time></trkpt><trkpt lat="45.9822003" lon="12.9595468"><ele>48.0</ele><time>2026-03-28T10:21:24.153Z</time></trkpt><trkpt lat="45.9823608" lon="12.9595941"><ele>48.33333333333333</ele><time>2026-03-28T10:21:25.152Z</time></trkpt><trkpt lat="45.9825229" lon="12.9596446"><ele>48.666666666666664</ele><time>2026-03-28T10:21:26.152Z</time></trkpt><trkpt lat="45.9826796" lon="12.9597015"><ele>49.0</ele><time>2026-03-28T10:21:27.152Z</time></trkpt><trkpt lat="45.9828323" lon="12.9597623"><ele>49.0</ele><time>2026-03-28T10:21:28.152Z</time></trkpt><trkpt lat="45.982979" lon="12.9598185"><ele>49.0</ele><time>2026-03-28T10:21:29.153Z</time></trkpt><trkpt lat="45.9831228" lon="12.9598692"><ele>49.0</ele><time>2026-03-28T10:21:30.153Z</time></trkpt><trkpt lat="45.983255" lon="12.9599227"><ele>49.0</ele><time>2026-03-28T10:21:31.152Z</time></trkpt><trkpt lat="45.9833768" lon="12.9599669"><ele>49.0</ele><time>2026-03-28T10:21:32.153Z</time></trkpt><trkpt lat="45.9834891" lon="12.960013"><ele>49.0</ele><time>2026-03-28T10:21:33.152Z</time></trkpt><trkpt lat="45.9835953" lon="12.9600661"><ele>49.0</ele><time>2026-03-28T10:21:34.152Z</time></trkpt><trkpt lat="45.9836897" lon="12.9601155"><ele>49.0</ele><time>2026-03-28T10:21:35.153Z</time></trkpt><trkpt lat="45.9837752" lon="12.9601609"><ele>49.0</ele><time>2026-03-28T10:21:36.152Z</time></trkpt><trkpt lat="45.9838598" lon="12.9602033"><ele>49.2</ele><time>2026-03-28T10:21:37.153Z</time></trkpt><trkpt lat="45.98395" lon="12.9602348"><ele>49.400000000000006</ele><time>2026-03-28T10:21:38.152Z</time></trkpt><trkpt lat="45.9840433" lon="12.9602652"><ele>49.6</ele><time>2026-03-28T10:21:39.152Z</time></trkpt><trkpt lat="45.9841388" lon="12.9603008"><ele>49.8</ele><time>2026-03-28T10:21:40.153Z</time></trkpt><trkpt lat="45.9842284" lon="12.9603486"><ele>50.0</ele><time>2026-03-28T10:21:41.152Z</time></trkpt><trkpt lat="45.984308" lon="12.9604027"><ele>50.00000000000001</ele><time>2026-03-28T10:21:42.152Z</time></trkpt><trkpt lat="45.9843848" lon="12.9604509"><ele>50.0</ele><time>2026-03-28T10:21:43.152Z</time></trkpt><trkpt lat="45.98446" lon="12.960488"><ele>50.0</ele><time>2026-03-28T10:21:44.152Z</time></trkpt><trkpt lat="45.9845269" lon="12.9605113"><ele>50.0</ele><time>2026-03-28T10:21:45.153Z</time></trkpt><trkpt lat="45.9846242" lon="12.9605323"><ele>50.00000000000001</ele><time>2026-03-28T10:21:47.152Z</time></trkpt><trkpt lat="45.9846889" lon="12.9605037"><ele>50.0</ele><time>2026-03-28T10:21:49.152Z</time></trkpt><trkpt lat="45.9847056" lon="12.9604153"><ele>50.0</ele><time>2026-03-28T10:21:51.153Z</time></trkpt><trkpt lat="45.9847269" lon="12.9602869"><ele>50.0</ele><time>2026-03-28T10:21:53.152Z</time></trkpt><trkpt lat="45.9848392" lon="12.9601759"><ele>50.0</ele><time>2026-03-28T10:21:55.152Z</time></trkpt><trkpt lat="45.984926" lon="12.9601166"><ele>50.0</ele><time>2026-03-28T10:21:56.153Z</time></trkpt><trkpt lat="45.9850223" lon="12.9600606"><ele>50.0</ele><time>2026-03-28T10:21:57.153Z</time></trkpt><trkpt lat="45.9851215" lon="12.9600144"><ele>50.25</ele><time>2026-03-28T10:21:58.153Z</time></trkpt><trkpt lat="45.9852321" lon="12.9599801"><ele>50.5</ele><time>2026-03-28T10:21:59.153Z</time></trkpt><trkpt lat="45.9853555" lon="12.9599557"><ele>50.75</ele><time>2026-03-28T10:22:00.152Z</time></trkpt><trkpt lat="45.9854844" lon="12.9599462"><ele>51.0</ele><time>2026-03-28T10:22:01.152Z</time></trkpt><trkpt lat="45.9856105" lon="12.9599525"><ele>51.0</ele><time>2026-03-28T10:22:02.152Z</time></trkpt><trkpt lat="45.9857305" lon="12.9599582"><ele>51.0</ele><time>2026-03-28T10:22:03.152Z</time></trkpt><trkpt lat="45.9858486" lon="12.959969"><ele>51.0</ele><time>2026-03-28T10:22:04.153Z</time></trkpt><trkpt lat="45.9859648" lon="12.9599852"><ele>51.0</ele><time>2026-03-28T10:22:05.153Z</time></trkpt><trkpt lat="45.9860839" lon="12.9600012"><ele>50.8</ele><time>2026-03-28T10:22:06.152Z</time></trkpt><trkpt lat="45.9861963" lon="12.9600168"><ele>50.599999999999994</ele><time>2026-03-28T10:22:07.152Z</time></trkpt><trkpt lat="45.9863118" lon="12.9600316"><ele>50.4</ele><time>2026-03-28T10:22:08.153Z</time></trkpt><trkpt lat="45.9864221" lon="12.9600451"><ele>50.2</ele><time>2026-03-28T10:22:09.153Z</time></trkpt><trkpt lat="45.9865108" lon="12.9600586"><ele>50.0</ele><time>2026-03-28T10:22:10.152Z</time></trkpt><trkpt lat="45.9866179" lon="12.9600731"><ele>50.333333333333336</ele><time>2026-03-28T10:22:12.152Z</time></trkpt><trkpt lat="45.9866893" lon="12.9600829"><ele>50.66666666666667</ele><time>2026-03-28T10:22:14.153Z</time></trkpt><trkpt lat="45.9867747" lon="12.9601007"><ele>51.0</ele><time>2026-03-28T10:22:16.152Z</time></trkpt><trkpt lat="45.98689" lon="12.9601165"><ele>51.33333333333333</ele><time>2026-03-28T10:22:18.153Z</time></trkpt><trkpt lat="45.9869527" lon="12.960126"><ele>51.666666666666664</ele><time>2026-03-28T10:22:19.153Z</time></trkpt><trkpt lat="45.9870184" lon="12.9601318"><ele>52.0</ele><time>2026-03-28T10:22:20.153Z</time></trkpt><trkpt lat="45.9871461" lon="12.9601426"><ele>51.99999999999999</ele><time>2026-03-28T10:22:22.153Z</time></trkpt><trkpt lat="45.98722" lon="12.9601518"><ele>52.0</ele><time>2026-03-28T10:22:23.153Z</time></trkpt><trkpt lat="45.9873046" lon="12.9601637"><ele>52.0</ele><time>2026-03-28T10:22:24.153Z</time></trkpt><trkpt lat="45.9873836" lon="12.9601823"><ele>52.0</ele><time>2026-03-28T10:22:25.152Z</time></trkpt><trkpt lat="45.9874617" lon="12.960207"><ele>51.99999999999999</ele><time>2026-03-28T10:22:26.152Z</time></trkpt><trkpt lat="45.9875432" lon="12.9602412"><ele>52.0</ele><time>2026-03-28T10:22:27.153Z</time></trkpt><trkpt lat="45.9876336" lon="12.9602851"><ele>52.0</ele><time>2026-03-28T10:22:28.152Z</time></trkpt><trkpt lat="45.9877239" lon="12.9603218"><ele>52.0</ele><time>2026-03-28T10:22:29.152Z</time></trkpt><trkpt lat="45.9878188" lon="12.9603629"><ele>52.0</ele><time>2026-03-28T10:22:30.152Z</time></trkpt><trkpt lat="45.9879154" lon="12.9604052"><ele>52.0</ele><time>2026-03-28T10:22:31.152Z</time></trkpt><trkpt lat="45.9880108" lon="12.9604389"><ele>52.0</ele><time>2026-03-28T10:22:32.152Z</time></trkpt><trkpt lat="45.9881053" lon="12.960469"><ele>52.0</ele><time>2026-03-28T10:22:33.152Z</time></trkpt><trkpt lat="45.9881974" lon="12.9604929"><ele>52.0</ele><time>2026-03-28T10:22:34.152Z</time></trkpt><trkpt lat="45.9882858" lon="12.9605092"><ele>52.0</ele><time>2026-03-28T10:22:35.152Z</time></trkpt><trkpt lat="45.988369" lon="12.9605222"><ele>52.0</ele><time>2026-03-28T10:22:36.153Z</time></trkpt><trkpt lat="45.988459" lon="12.9605445"><ele>52.0</ele><time>2026-03-28T10:22:37.152Z</time></trkpt><trkpt lat="45.9885627" lon="12.960564"><ele>52.0</ele><time>2026-03-28T10:22:38.152Z</time></trkpt><trkpt lat="45.988667" lon="12.9605828"><ele>52.0</ele><time>2026-03-28T10:22:39.152Z</time></trkpt><trkpt lat="45.9887735" lon="12.9606036"><ele>52.0</ele><time>2026-03-28T10:22:40.152Z</time></trkpt><trkpt lat="45.9888833" lon="12.9606263"><ele>52.0</ele><time>2026-03-28T10:22:41.152Z</time></trkpt><trkpt lat="45.9889921" lon="12.9606494"><ele>52.0</ele><time>2026-03-28T10:22:42.152Z</time></trkpt><trkpt lat="45.9890988" lon="12.9606717"><ele>52.0</ele><time>2026-03-28T10:22:43.152Z</time></trkpt><trkpt lat="45.989201" lon="12.9607056"><ele>52.0</ele><time>2026-03-28T10:22:44.152Z</time></trkpt><trkpt lat="45.9892983" lon="12.9607445"><ele>52.0</ele><time>2026-03-28T10:22:45.152Z</time></trkpt><trkpt lat="45.9893951" lon="12.9607675"><ele>52.0</ele><time>2026-03-28T10:22:46.153Z</time></trkpt><trkpt lat="45.9894932" lon="12.960771"><ele>52.0</ele><time>2026-03-28T10:22:47.152Z</time></trkpt><trkpt lat="45.9895933" lon="12.9607675"><ele>52.0</ele><time>2026-03-28T10:22:48.153Z</time></trkpt><trkpt lat="45.9896932" lon="12.9607621"><ele>52.0</ele><time>2026-03-28T10:22:49.152Z</time></trkpt><trkpt lat="45.9897851" lon="12.9607532"><ele>52.0</ele><time>2026-03-28T10:22:50.152Z</time></trkpt><trkpt lat="45.9898739" lon="12.9607474"><ele>52.0</ele><time>2026-03-28T10:22:51.152Z</time></trkpt><trkpt lat="45.9899616" lon="12.960743"><ele>52.0</ele><time>2026-03-28T10:22:52.152Z</time></trkpt><trkpt lat="45.9900444" lon="12.9607374"><ele>52.2</ele><time>2026-03-28T10:22:53.152Z</time></trkpt><trkpt lat="45.9901309" lon="12.9607236"><ele>52.400000000000006</ele><time>2026-03-28T10:22:54.153Z</time></trkpt><trkpt lat="45.9902146" lon="12.960721"><ele>52.599999999999994</ele><time>2026-03-28T10:22:55.153Z</time></trkpt><trkpt lat="45.9902961" lon="12.9607143"><ele>52.8</ele><time>2026-03-28T10:22:56.152Z</time></trkpt><trkpt lat="45.9904036" lon="12.9607086"><ele>53.0</ele><time>2026-03-28T10:22:58.153Z</time></trkpt><trkpt lat="45.9905114" lon="12.96071"><ele>53.0</ele><time>2026-03-28T10:23:00.152Z</time></trkpt><trkpt lat="45.9905742" lon="12.9607167"><ele>53.0</ele><time>2026-03-28T10:23:01.153Z</time></trkpt><trkpt lat="45.9906455" lon="12.960729"><ele>53.0</ele><time>2026-03-28T10:23:02.152Z</time></trkpt><trkpt lat="45.9907169" lon="12.9607417"><ele>53.0</ele><time>2026-03-28T10:23:03.153Z</time></trkpt><trkpt lat="45.9907916" lon="12.9607609"><ele>53.0</ele><time>2026-03-28T10:23:04.152Z</time></trkpt><trkpt lat="45.9908659" lon="12.9607825"><ele>53.0</ele><time>2026-03-28T10:23:05.153Z</time></trkpt><trkpt lat="45.9909426" lon="12.9608121"><ele>53.0</ele><time>2026-03-28T10:23:06.152Z</time></trkpt><trkpt lat="45.9910199" lon="12.9608402"><ele>53.16666666666667</ele><time>2026-03-28T10:23:07.153Z</time></trkpt><trkpt lat="45.9910973" lon="12.9608661"><ele>53.333333333333336</ele><time>2026-03-28T10:23:08.153Z</time></trkpt><trkpt lat="45.9911774" lon="12.9608892"><ele>53.5</ele><time>2026-03-28T10:23:09.152Z</time></trkpt><trkpt lat="45.9912572" lon="12.9609108"><ele>53.66666666666667</ele><time>2026-03-28T10:23:10.152Z</time></trkpt><trkpt lat="45.9913329" lon="12.9609302"><ele>53.833333333333336</ele><time>2026-03-28T10:23:11.153Z</time></trkpt><trkpt lat="45.9914088" lon="12.9609492"><ele>54.0</ele><time>2026-03-28T10:23:12.152Z</time></trkpt><trkpt lat="45.9914853" lon="12.9609693"><ele>54.0</ele><time>2026-03-28T10:23:13.152Z</time></trkpt><trkpt lat="45.9915672" lon="12.9609978"><ele>54.0</ele><time>2026-03-28T10:23:14.153Z</time></trkpt><trkpt lat="45.9916529" lon="12.9610298"><ele>54.0</ele><time>2026-03-28T10:23:15.153Z</time></trkpt><trkpt lat="45.9917384" lon="12.9610606"><ele>54.0</ele><time>2026-03-28T10:23:16.152Z</time></trkpt><trkpt lat="45.9918215" lon="12.9610932"><ele>54.0</ele><time>2026-03-28T10:23:17.152Z</time></trkpt><trkpt lat="45.9919073" lon="12.9611243"><ele>54.0</ele><time>2026-03-28T10:23:18.152Z</time></trkpt><trkpt lat="45.9919923" lon="12.9611641"><ele>54.400000000000006</ele><time>2026-03-28T10:23:19.153Z</time></trkpt><trkpt lat="45.9920828" lon="12.9612154"><ele>54.800000000000004</ele><time>2026-03-28T10:23:20.152Z</time></trkpt><trkpt lat="45.9921744" lon="12.9612715"><ele>55.199999999999996</ele><time>2026-03-28T10:23:21.153Z</time></trkpt><trkpt lat="45.9922745" lon="12.9613222"><ele>55.599999999999994</ele><time>2026-03-28T10:23:22.152Z</time></trkpt><trkpt lat="45.9923732" lon="12.9613657"><ele>56.0</ele><time>2026-03-28T10:23:23.152Z</time></trkpt><trkpt lat="45.9924751" lon="12.9614013"><ele>55.4</ele><time>2026-03-28T10:23:24.153Z</time></trkpt><trkpt lat="45.9925821" lon="12.9614276"><ele>54.8</ele><time>2026-03-28T10:23:25.152Z</time></trkpt><trkpt lat="45.9926903" lon="12.9614418"><ele>54.199999999999996</ele><time>2026-03-28T10:23:26.152Z</time></trkpt><trkpt lat="45.9927915" lon="12.9614483"><ele>53.599999999999994</ele><time>2026-03-28T10:23:27.153Z</time></trkpt><trkpt lat="45.9928817" lon="12.9614517"><ele>53.0</ele><time>2026-03-28T10:23:28.152Z</time></trkpt><trkpt lat="45.9929711" lon="12.9614614"><ele>53.0</ele><time>2026-03-28T10:23:29.153Z</time></trkpt><trkpt lat="45.9930666" lon="12.9614726"><ele>53.0</ele><time>2026-03-28T10:23:30.152Z</time></trkpt><trkpt lat="45.9931646" lon="12.9614824"><ele>53.0</ele><time>2026-03-28T10:23:31.153Z</time></trkpt><trkpt lat="45.9932632" lon="12.9614898"><ele>53.0</ele><time>2026-03-28T10:23:32.152Z</time></trkpt><trkpt lat="45.993365" lon="12.961492"><ele>53.0</ele><time>2026-03-28T10:23:33.152Z</time></trkpt><trkpt lat="45.9934694" lon="12.9614985"><ele>53.4</ele><time>2026-03-28T10:23:34.152Z</time></trkpt><trkpt lat="45.9935764" lon="12.961504"><ele>53.8</ele><time>2026-03-28T10:23:35.152Z</time></trkpt><trkpt lat="45.9936847" lon="12.9615099"><ele>54.2</ele><time>2026-03-28T10:23:36.153Z</time></trkpt><trkpt lat="45.9937973" lon="12.9615226"><ele>54.6</ele><time>2026-03-28T10:23:37.152Z</time></trkpt><trkpt lat="45.9939093" lon="12.9615352"><ele>55.0</ele><time>2026-03-28T10:23:38.153Z</time></trkpt><trkpt lat="45.9940215" lon="12.9615466"><ele>55.0</ele><time>2026-03-28T10:23:39.152Z</time></trkpt><trkpt lat="45.9941377" lon="12.9615576"><ele>55.0</ele><time>2026-03-28T10:23:40.153Z</time></trkpt><trkpt lat="45.9942509" lon="12.961571"><ele>55.0</ele><time>2026-03-28T10:23:41.152Z</time></trkpt><trkpt lat="45.9943625" lon="12.9615887"><ele>55.0</ele><time>2026-03-28T10:23:42.153Z</time></trkpt><trkpt lat="45.9944777" lon="12.96161"><ele>54.8</ele><time>2026-03-28T10:23:43.152Z</time></trkpt><trkpt lat="45.99459" lon="12.9616309"><ele>54.6</ele><time>2026-03-28T10:23:44.153Z</time></trkpt><trkpt lat="45.9946945" lon="12.961646"><ele>54.400000000000006</ele><time>2026-03-28T10:23:45.152Z</time></trkpt><trkpt lat="45.9947978" lon="12.9616471"><ele>54.2</ele><time>2026-03-28T10:23:46.152Z</time></trkpt><trkpt lat="45.994901" lon="12.9616293"><ele>54.0</ele><time>2026-03-28T10:23:47.152Z</time></trkpt><trkpt lat="45.9950024" lon="12.9615902"><ele>54.6</ele><time>2026-03-28T10:23:48.152Z</time></trkpt><trkpt lat="45.9951062" lon="12.9615409"><ele>55.2</ele><time>2026-03-28T10:23:49.153Z</time></trkpt><trkpt lat="45.995207" lon="12.9614936"><ele>55.800000000000004</ele><time>2026-03-28T10:23:50.153Z</time></trkpt><trkpt lat="45.9953009" lon="12.961452"><ele>56.400000000000006</ele><time>2026-03-28T10:23:51.153Z</time></trkpt><trkpt lat="45.9953818" lon="12.9614146"><ele>57.0</ele><time>2026-03-28T10:23:52.153Z</time></trkpt><trkpt lat="45.9954794" lon="12.9613618"><ele>57.0</ele><time>2026-03-28T10:23:54.152Z</time></trkpt><trkpt lat="45.9955077" lon="12.9612621"><ele>57.0</ele><time>2026-03-28T10:23:57.152Z</time></trkpt><trkpt lat="45.9954626" lon="12.96118"><ele>57.0</ele><time>2026-03-28T10:23:59.152Z</time></trkpt><trkpt lat="45.9954047" lon="12.9611223"><ele>57.0</ele><time>2026-03-28T10:24:00.152Z</time></trkpt><trkpt lat="45.9953223" lon="12.9610389"><ele>57.0</ele><time>2026-03-28T10:24:01.153Z</time></trkpt><trkpt lat="45.995221" lon="12.9609317"><ele>57.0</ele><time>2026-03-28T10:24:02.152Z</time></trkpt><trkpt lat="45.9951028" lon="12.9608081"><ele>56.0</ele><time>2026-03-28T10:24:03.152Z</time></trkpt><trkpt lat="45.9949817" lon="12.9606724"><ele>55.0</ele><time>2026-03-28T10:24:04.153Z</time></trkpt><trkpt lat="45.9948604" lon="12.9605307"><ele>54.0</ele><time>2026-03-28T10:24:05.152Z</time></trkpt><trkpt lat="45.9947375" lon="12.96038"><ele>54.0</ele><time>2026-03-28T10:24:06.152Z</time></trkpt><trkpt lat="45.994613" lon="12.9602311"><ele>54.0</ele><time>2026-03-28T10:24:07.153Z</time></trkpt><trkpt lat="45.9944899" lon="12.9600813"><ele>54.0</ele><time>2026-03-28T10:24:08.152Z</time></trkpt><trkpt lat="45.9943678" lon="12.9599324"><ele>54.33333333333333</ele><time>2026-03-28T10:24:09.153Z</time></trkpt><trkpt lat="45.9942458" lon="12.9597866"><ele>54.666666666666664</ele><time>2026-03-28T10:24:10.153Z</time></trkpt><trkpt lat="45.9941185" lon="12.9596352"><ele>55.0</ele><time>2026-03-28T10:24:11.152Z</time></trkpt><trkpt lat="45.9939861" lon="12.9594907"><ele>55.0</ele><time>2026-03-28T10:24:12.152Z</time></trkpt><trkpt lat="45.9938568" lon="12.9593486"><ele>55.0</ele><time>2026-03-28T10:24:13.152Z</time></trkpt><trkpt lat="45.9937361" lon="12.9592063"><ele>55.0</ele><time>2026-03-28T10:24:14.152Z</time></trkpt><trkpt lat="45.9936178" lon="12.9590581"><ele>55.0</ele><time>2026-03-28T10:24:15.152Z</time></trkpt><trkpt lat="45.9935029" lon="12.9589109"><ele>55.0</ele><time>2026-03-28T10:24:16.153Z</time></trkpt><trkpt lat="45.9933933" lon="12.9587646"><ele>55.0</ele><time>2026-03-28T10:24:17.153Z</time></trkpt><trkpt lat="45.9932926" lon="12.9586212"><ele>55.0</ele><time>2026-03-28T10:24:18.152Z</time></trkpt><trkpt lat="45.9931932" lon="12.9584872"><ele>54.75</ele><time>2026-03-28T10:24:19.152Z</time></trkpt><trkpt lat="45.9930953" lon="12.9583622"><ele>54.5</ele><time>2026-03-28T10:24:20.153Z</time></trkpt><trkpt lat="45.9930033" lon="12.9582489"><ele>54.25</ele><time>2026-03-28T10:24:21.152Z</time></trkpt><trkpt lat="45.9929247" lon="12.9581309"><ele>54.0</ele><time>2026-03-28T10:24:22.152Z</time></trkpt><trkpt lat="45.9928506" lon="12.9579902"><ele>54.0</ele><time>2026-03-28T10:24:23.152Z</time></trkpt><trkpt lat="45.9927845" lon="12.9578301"><ele>54.0</ele><time>2026-03-28T10:24:24.152Z</time></trkpt><trkpt lat="45.9927264" lon="12.9576541"><ele>54.0</ele><time>2026-03-28T10:24:25.152Z</time></trkpt><trkpt lat="45.9926721" lon="12.9574656"><ele>54.0</ele><time>2026-03-28T10:24:26.152Z</time></trkpt><trkpt lat="45.9926202" lon="12.9572659"><ele>53.75</ele><time>2026-03-28T10:24:27.152Z</time></trkpt><trkpt lat="45.9925716" lon="12.9570612"><ele>53.5</ele><time>2026-03-28T10:24:28.152Z</time></trkpt><trkpt lat="45.9925347" lon="12.9568679"><ele>53.25</ele><time>2026-03-28T10:24:29.153Z</time></trkpt><trkpt lat="45.9924956" lon="12.9566853"><ele>53.0</ele><time>2026-03-28T10:24:30.152Z</time></trkpt><trkpt lat="45.9924527" lon="12.9565092"><ele>53.75</ele><time>2026-03-28T10:24:31.152Z</time></trkpt><trkpt lat="45.9923963" lon="12.9563418"><ele>54.5</ele><time>2026-03-28T10:24:32.152Z</time></trkpt><trkpt lat="45.9923298" lon="12.9561889"><ele>55.25</ele><time>2026-03-28T10:24:33.152Z</time></trkpt><trkpt lat="45.9922612" lon="12.9560459"><ele>56.0</ele><time>2026-03-28T10:24:34.152Z</time></trkpt><trkpt lat="45.9921815" lon="12.9559098"><ele>55.5</ele><time>2026-03-28T10:24:35.152Z</time></trkpt><trkpt lat="45.992098" lon="12.9557788"><ele>55.0</ele><time>2026-03-28T10:24:36.152Z</time></trkpt><trkpt lat="45.9920115" lon="12.9556329"><ele>54.5</ele><time>2026-03-28T10:24:37.152Z</time></trkpt><trkpt lat="45.9919178" lon="12.9554733"><ele>54.0</ele><time>2026-03-28T10:24:38.152Z</time></trkpt><trkpt lat="45.9918204" lon="12.9553173"><ele>54.0</ele><time>2026-03-28T10:24:39.153Z</time></trkpt><trkpt lat="45.9917211" lon="12.9551656"><ele>54.0</ele><time>2026-03-28T10:24:40.152Z</time></trkpt><trkpt lat="45.9916236" lon="12.955018"><ele>54.0</ele><time>2026-03-28T10:24:41.152Z</time></trkpt><trkpt lat="45.9915283" lon="12.9548831"><ele>54.0</ele><time>2026-03-28T10:24:42.153Z</time></trkpt><trkpt lat="45.9914294" lon="12.9547574"><ele>54.0</ele><time>2026-03-28T10:24:43.152Z</time></trkpt><trkpt lat="45.9913194" lon="12.9546417"><ele>54.0</ele><time>2026-03-28T10:24:44.152Z</time></trkpt><trkpt lat="45.9912005" lon="12.954526"><ele>54.0</ele><time>2026-03-28T10:24:45.152Z</time></trkpt><trkpt lat="45.9910806" lon="12.9544137"><ele>54.0</ele><time>2026-03-28T10:24:46.153Z</time></trkpt><trkpt lat="45.9909674" lon="12.9542988"><ele>54.0</ele><time>2026-03-28T10:24:47.152Z</time></trkpt><trkpt lat="45.9908601" lon="12.9541708"><ele>54.0</ele><time>2026-03-28T10:24:48.152Z</time></trkpt><trkpt lat="45.9907612" lon="12.9540366"><ele>54.0</ele><time>2026-03-28T10:24:49.152Z</time></trkpt><trkpt lat="45.9906755" lon="12.953905"><ele>54.0</ele><time>2026-03-28T10:24:50.152Z</time></trkpt><trkpt lat="45.9906017" lon="12.9537787"><ele>53.833333333333336</ele><time>2026-03-28T10:24:51.152Z</time></trkpt><trkpt lat="45.9905408" lon="12.9536596"><ele>53.66666666666667</ele><time>2026-03-28T10:24:52.153Z</time></trkpt><trkpt lat="45.9904898" lon="12.9535508"><ele>53.5</ele><time>2026-03-28T10:24:53.153Z</time></trkpt><trkpt lat="45.990453" lon="12.9534468"><ele>53.333333333333336</ele><time>2026-03-28T10:24:54.152Z</time></trkpt><trkpt lat="45.9904349" lon="12.9533527"><ele>53.16666666666667</ele><time>2026-03-28T10:24:55.152Z</time></trkpt><trkpt lat="45.9904402" lon="12.9532508"><ele>53.0</ele><time>2026-03-28T10:24:56.152Z</time></trkpt><trkpt lat="45.9904598" lon="12.9531413"><ele>53.0</ele><time>2026-03-28T10:24:57.152Z</time></trkpt><trkpt lat="45.9904961" lon="12.953037"><ele>53.0</ele><time>2026-03-28T10:24:58.152Z</time></trkpt><trkpt lat="45.9905459" lon="12.9529487"><ele>53.0</ele><time>2026-03-28T10:24:59.152Z</time></trkpt><trkpt lat="45.9906075" lon="12.9528705"><ele>53.0</ele><time>2026-03-28T10:25:00.152Z</time></trkpt><trkpt lat="45.9906895" lon="12.9527938"><ele>53.0</ele><time>2026-03-28T10:25:01.152Z</time></trkpt><trkpt lat="45.9907917" lon="12.9526981"><ele>53.2</ele><time>2026-03-28T10:25:02.152Z</time></trkpt><trkpt lat="45.990894" lon="12.952588"><ele>53.4</ele><time>2026-03-28T10:25:03.153Z</time></trkpt><trkpt lat="45.9909735" lon="12.9524684"><ele>53.60000000000001</ele><time>2026-03-28T10:25:04.152Z</time></trkpt><trkpt lat="45.9910284" lon="12.9523394"><ele>53.800000000000004</ele><time>2026-03-28T10:25:05.152Z</time></trkpt><trkpt lat="45.9910661" lon="12.9522113"><ele>54.0</ele><time>2026-03-28T10:25:06.153Z</time></trkpt><trkpt lat="45.9910886" lon="12.9520644"><ele>54.0</ele><time>2026-03-28T10:25:07.152Z</time></trkpt><trkpt lat="45.9910901" lon="12.9519011"><ele>54.0</ele><time>2026-03-28T10:25:08.152Z</time></trkpt><trkpt lat="45.9910813" lon="12.9517198"><ele>54.0</ele><time>2026-03-28T10:25:09.152Z</time></trkpt><trkpt lat="45.991058" lon="12.9515201"><ele>54.0</ele><time>2026-03-28T10:25:10.153Z</time></trkpt><trkpt lat="45.9910293" lon="12.9512976"><ele>54.0</ele><time>2026-03-28T10:25:11.152Z</time></trkpt><trkpt lat="45.9909997" lon="12.9510809"><ele>54.0</ele><time>2026-03-28T10:25:12.153Z</time></trkpt><trkpt lat="45.9909712" lon="12.9508828"><ele>54.0</ele><time>2026-03-28T10:25:13.152Z</time></trkpt><trkpt lat="45.9909467" lon="12.9506999"><ele>54.0</ele><time>2026-03-28T10:25:14.151Z</time></trkpt><trkpt lat="45.9909233" lon="12.9505264"><ele>54.25</ele><time>2026-03-28T10:25:15.151Z</time></trkpt><trkpt lat="45.9908913" lon="12.9503442"><ele>54.5</ele><time>2026-03-28T10:25:16.152Z</time></trkpt><trkpt lat="45.9908577" lon="12.9501538"><ele>54.75</ele><time>2026-03-28T10:25:17.151Z</time></trkpt><trkpt lat="45.9908242" lon="12.949968"><ele>55.0</ele><time>2026-03-28T10:25:18.151Z</time></trkpt><trkpt lat="45.990789" lon="12.9497924"><ele>55.0</ele><time>2026-03-28T10:25:19.151Z</time></trkpt><trkpt lat="45.9907558" lon="12.9496184"><ele>55.0</ele><time>2026-03-28T10:25:20.151Z</time></trkpt><trkpt lat="45.9907154" lon="12.9494441"><ele>55.0</ele><time>2026-03-28T10:25:21.152Z</time></trkpt><trkpt lat="45.990671" lon="12.9492674"><ele>55.0</ele><time>2026-03-28T10:25:22.152Z</time></trkpt><trkpt lat="45.9906277" lon="12.9491015"><ele>54.83333333333333</ele><time>2026-03-28T10:25:23.151Z</time></trkpt><trkpt lat="45.9905937" lon="12.9489645"><ele>54.666666666666664</ele><time>2026-03-28T10:25:24.152Z</time></trkpt><trkpt lat="45.990564" lon="12.948851"><ele>54.5</ele><time>2026-03-28T10:25:25.152Z</time></trkpt><trkpt lat="45.9905441" lon="12.9487385"><ele>54.33333333333333</ele><time>2026-03-28T10:25:26.152Z</time></trkpt><trkpt lat="45.9905324" lon="12.9486205"><ele>54.166666666666664</ele><time>2026-03-28T10:25:27.151Z</time></trkpt><trkpt lat="45.9905322" lon="12.9484954"><ele>54.0</ele><time>2026-03-28T10:25:28.152Z</time></trkpt><trkpt lat="45.9905425" lon="12.9483621"><ele>54.0</ele><time>2026-03-28T10:25:29.151Z</time></trkpt><trkpt lat="45.9905665" lon="12.9482322"><ele>54.00000000000001</ele><time>2026-03-28T10:25:30.151Z</time></trkpt><trkpt lat="45.9906028" lon="12.9481173"><ele>54.00000000000001</ele><time>2026-03-28T10:25:31.151Z</time></trkpt><trkpt lat="45.9906506" lon="12.948021"><ele>54.0</ele><time>2026-03-28T10:25:32.151Z</time></trkpt><trkpt lat="45.9907166" lon="12.9479328"><ele>54.0</ele><time>2026-03-28T10:25:33.151Z</time></trkpt><trkpt lat="45.9908167" lon="12.9478533"><ele>54.0</ele><time>2026-03-28T10:25:34.151Z</time></trkpt><trkpt lat="45.9909383" lon="12.9477533"><ele>54.0</ele><time>2026-03-28T10:25:35.151Z</time></trkpt><trkpt lat="45.99108" lon="12.947635"><ele>54.0</ele><time>2026-03-28T10:25:36.151Z</time></trkpt><trkpt lat="45.9912117" lon="12.947515"><ele>54.0</ele><time>2026-03-28T10:25:37.151Z</time></trkpt><trkpt lat="45.991335" lon="12.9473983"><ele>54.0</ele><time>2026-03-28T10:25:38.151Z</time></trkpt><trkpt lat="45.991475" lon="12.947275"><ele>54.0</ele><time>2026-03-28T10:25:39.151Z</time></trkpt><trkpt lat="45.9916033" lon="12.9471467"><ele>54.33333333333333</ele><time>2026-03-28T10:25:40.151Z</time></trkpt><trkpt lat="45.9917283" lon="12.9470067"><ele>54.666666666666664</ele><time>2026-03-28T10:25:41.151Z</time></trkpt><trkpt lat="45.991855" lon="12.9468817"><ele>55.0</ele><time>2026-03-28T10:25:42.151Z</time></trkpt><trkpt lat="45.9919817" lon="12.94677"><ele>54.666666666666664</ele><time>2026-03-28T10:25:43.151Z</time></trkpt><trkpt lat="45.99212" lon="12.9466733"><ele>54.33333333333333</ele><time>2026-03-28T10:25:44.152Z</time></trkpt><trkpt lat="45.992265" lon="12.9465817"><ele>54.0</ele><time>2026-03-28T10:25:45.152Z</time></trkpt><trkpt lat="45.9924117" lon="12.9464833"><ele>53.66666666666667</ele><time>2026-03-28T10:25:46.151Z</time></trkpt><trkpt lat="45.9925633" lon="12.9463917"><ele>53.333333333333336</ele><time>2026-03-28T10:25:47.151Z</time></trkpt><trkpt lat="45.99272" lon="12.9462883"><ele>53.0</ele><time>2026-03-28T10:25:48.151Z</time></trkpt><trkpt lat="45.99289" lon="12.9461733"><ele>53.0</ele><time>2026-03-28T10:25:49.151Z</time></trkpt><trkpt lat="45.9930583" lon="12.9460567"><ele>53.0</ele><time>2026-03-28T10:25:50.151Z</time></trkpt><trkpt lat="45.9932167" lon="12.9459333"><ele>53.0</ele><time>2026-03-28T10:25:51.151Z</time></trkpt><trkpt lat="45.99336" lon="12.9458217"><ele>53.25</ele><time>2026-03-28T10:25:52.151Z</time></trkpt><trkpt lat="45.9934917" lon="12.9457133"><ele>53.5</ele><time>2026-03-28T10:25:53.151Z</time></trkpt><trkpt lat="45.9936233" lon="12.9456167"><ele>53.75</ele><time>2026-03-28T10:25:54.151Z</time></trkpt><trkpt lat="45.993735" lon="12.945535"><ele>54.0</ele><time>2026-03-28T10:25:55.151Z</time></trkpt><trkpt lat="45.99383" lon="12.94547"><ele>54.0</ele><time>2026-03-28T10:25:56.151Z</time></trkpt><trkpt lat="45.9939317" lon="12.9454017"><ele>54.0</ele><time>2026-03-28T10:25:57.152Z</time></trkpt><trkpt lat="45.9940317" lon="12.9453333"><ele>54.0</ele><time>2026-03-28T10:25:58.151Z</time></trkpt><trkpt lat="45.994135" lon="12.9452617"><ele>54.0</ele><time>2026-03-28T10:25:59.152Z</time></trkpt><trkpt lat="45.99425" lon="12.9451817"><ele>54.0</ele><time>2026-03-28T10:26:00.151Z</time></trkpt><trkpt lat="45.99437" lon="12.9450967"><ele>54.0</ele><time>2026-03-28T10:26:01.151Z</time></trkpt><trkpt lat="45.9944867" lon="12.94501"><ele>54.0</ele><time>2026-03-28T10:26:02.152Z</time></trkpt><trkpt lat="45.994615" lon="12.9449167"><ele>54.0</ele><time>2026-03-28T10:26:03.151Z</time></trkpt><trkpt lat="45.9947333" lon="12.9448283"><ele>54.0</ele><time>2026-03-28T10:26:04.151Z</time></trkpt><trkpt lat="45.9948517" lon="12.9447567"><ele>54.00000000000001</ele><time>2026-03-28T10:26:05.151Z</time></trkpt><trkpt lat="45.9949583" lon="12.944705"><ele>54.00000000000001</ele><time>2026-03-28T10:26:06.152Z</time></trkpt><trkpt lat="45.9950667" lon="12.9446783"><ele>54.0</ele><time>2026-03-28T10:26:07.151Z</time></trkpt><trkpt lat="45.9951617" lon="12.9446683"><ele>54.0</ele><time>2026-03-28T10:26:08.152Z</time></trkpt><trkpt lat="45.9952483" lon="12.9446633"><ele>54.400000000000006</ele><time>2026-03-28T10:26:09.151Z</time></trkpt><trkpt lat="45.995315" lon="12.9446783"><ele>54.800000000000004</ele><time>2026-03-28T10:26:10.151Z</time></trkpt><trkpt lat="45.9954117" lon="12.9447867"><ele>55.199999999999996</ele><time>2026-03-28T10:26:12.151Z</time></trkpt><trkpt lat="45.9954533" lon="12.9449017"><ele>55.599999999999994</ele><time>2026-03-28T10:26:13.152Z</time></trkpt><trkpt lat="45.99549" lon="12.9450833"><ele>56.0</ele><time>2026-03-28T10:26:14.151Z</time></trkpt><trkpt lat="45.9955367" lon="12.9452933"><ele>57.0</ele><time>2026-03-28T10:26:15.151Z</time></trkpt><trkpt lat="45.9956017" lon="12.945495"><ele>58.0</ele><time>2026-03-28T10:26:16.151Z</time></trkpt><trkpt lat="45.9956817" lon="12.9456983"><ele>59.0</ele><time>2026-03-28T10:26:17.151Z</time></trkpt><trkpt lat="45.9957733" lon="12.9459017"><ele>59.0</ele><time>2026-03-28T10:26:18.152Z</time></trkpt><trkpt lat="45.9958733" lon="12.946105"><ele>59.0</ele><time>2026-03-28T10:26:19.151Z</time></trkpt><trkpt lat="45.9959767" lon="12.9463"><ele>59.0</ele><time>2026-03-28T10:26:20.151Z</time></trkpt><trkpt lat="45.9960783" lon="12.94649"><ele>59.0</ele><time>2026-03-28T10:26:21.151Z</time></trkpt><trkpt lat="45.9961883" lon="12.94668"><ele>59.0</ele><time>2026-03-28T10:26:22.151Z</time></trkpt><trkpt lat="45.9962933" lon="12.9468717"><ele>59.0</ele><time>2026-03-28T10:26:23.151Z</time></trkpt><trkpt lat="45.9963983" lon="12.9470683"><ele>59.0</ele><time>2026-03-28T10:26:24.151Z</time></trkpt><trkpt lat="45.9965033" lon="12.9472733"><ele>59.0</ele><time>2026-03-28T10:26:25.151Z</time></trkpt><trkpt lat="45.9966067" lon="12.9474867"><ele>59.0</ele><time>2026-03-28T10:26:26.151Z</time></trkpt><trkpt lat="45.9967083" lon="12.9477083"><ele>59.0</ele><time>2026-03-28T10:26:27.152Z</time></trkpt><trkpt lat="45.9967983" lon="12.9479467"><ele>59.0</ele><time>2026-03-28T10:26:28.151Z</time></trkpt><trkpt lat="45.9968867" lon="12.9481983"><ele>59.0</ele><time>2026-03-28T10:26:29.151Z</time></trkpt><trkpt lat="45.9969833" lon="12.9484567"><ele>59.0</ele><time>2026-03-28T10:26:30.151Z</time></trkpt><trkpt lat="45.9970817" lon="12.948725"><ele>59.0</ele><time>2026-03-28T10:26:31.151Z</time></trkpt><trkpt lat="45.997185" lon="12.9489867"><ele>59.0</ele><time>2026-03-28T10:26:32.151Z</time></trkpt><trkpt lat="45.9972817" lon="12.94926"><ele>59.0</ele><time>2026-03-28T10:26:33.152Z</time></trkpt><trkpt lat="45.9973783" lon="12.9495333"><ele>59.0</ele><time>2026-03-28T10:26:34.152Z</time></trkpt><trkpt lat="45.9974767" lon="12.9498167"><ele>59.0</ele><time>2026-03-28T10:26:35.151Z</time></trkpt><trkpt lat="45.9975733" lon="12.9501083"><ele>58.5</ele><time>2026-03-28T10:26:36.151Z</time></trkpt><trkpt lat="45.99767" lon="12.9504033"><ele>58.0</ele><time>2026-03-28T10:26:37.151Z</time></trkpt><trkpt lat="45.9977633" lon="12.9507083"><ele>58.5</ele><time>2026-03-28T10:26:38.151Z</time></trkpt><trkpt lat="45.9978533" lon="12.9510167"><ele>59.0</ele><time>2026-03-28T10:26:39.151Z</time></trkpt><trkpt lat="45.997945" lon="12.9513267"><ele>59.0</ele><time>2026-03-28T10:26:40.152Z</time></trkpt><trkpt lat="45.9980333" lon="12.9516367"><ele>59.0</ele><time>2026-03-28T10:26:41.151Z</time></trkpt><trkpt lat="45.9981217" lon="12.951945"><ele>58.5</ele><time>2026-03-28T10:26:42.151Z</time></trkpt><trkpt lat="45.9982067" lon="12.952255"><ele>58.0</ele><time>2026-03-28T10:26:43.151Z</time></trkpt><trkpt lat="45.9983" lon="12.9525633"><ele>58.5</ele><time>2026-03-28T10:26:44.152Z</time></trkpt><trkpt lat="45.9983917" lon="12.9528733"><ele>59.0</ele><time>2026-03-28T10:26:45.152Z</time></trkpt><trkpt lat="45.9984817" lon="12.953185"><ele>59.0</ele><time>2026-03-28T10:26:46.152Z</time></trkpt><trkpt lat="45.9985767" lon="12.953505"><ele>59.0</ele><time>2026-03-28T10:26:47.151Z</time></trkpt><trkpt lat="45.998755" lon="12.9541183"><ele>59.0</ele><time>2026-03-28T10:26:49.151Z</time></trkpt><trkpt lat="45.9988383" lon="12.9544067"><ele>59.0</ele><time>2026-03-28T10:26:50.151Z</time></trkpt><trkpt lat="45.9989217" lon="12.954685"><ele>59.0</ele><time>2026-03-28T10:26:51.151Z</time></trkpt><trkpt lat="45.999" lon="12.9549667"><ele>58.66666666666667</ele><time>2026-03-28T10:26:52.151Z</time></trkpt><trkpt lat="45.9990767" lon="12.9552467"><ele>58.33333333333333</ele><time>2026-03-28T10:26:53.151Z</time></trkpt><trkpt lat="45.9991517" lon="12.9555283"><ele>58.0</ele><time>2026-03-28T10:26:54.151Z</time></trkpt><trkpt lat="45.9992333" lon="12.9557983"><ele>58.33333333333333</ele><time>2026-03-28T10:26:55.151Z</time></trkpt><trkpt lat="45.9993133" lon="12.9560767"><ele>58.66666666666667</ele><time>2026-03-28T10:26:56.151Z</time></trkpt><trkpt lat="45.9993967" lon="12.956355"><ele>59.0</ele><time>2026-03-28T10:26:57.151Z</time></trkpt><trkpt lat="45.999475" lon="12.9566317"><ele>59.333333333333336</ele><time>2026-03-28T10:26:58.152Z</time></trkpt><trkpt lat="45.9995517" lon="12.9568933"><ele>59.66666666666667</ele><time>2026-03-28T10:26:59.151Z</time></trkpt><trkpt lat="45.9996283" lon="12.9571333"><ele>60.0</ele><time>2026-03-28T10:27:00.152Z</time></trkpt><trkpt lat="45.99969" lon="12.957375"><ele>60.0</ele><time>2026-03-28T10:27:01.151Z</time></trkpt><trkpt lat="45.9997533" lon="12.957595"><ele>60.0</ele><time>2026-03-28T10:27:02.151Z</time></trkpt><trkpt lat="45.9998067" lon="12.9577917"><ele>60.0</ele><time>2026-03-28T10:27:03.151Z</time></trkpt><trkpt lat="45.999855" lon="12.9579683"><ele>60.0</ele><time>2026-03-28T10:27:04.151Z</time></trkpt><trkpt lat="45.9999" lon="12.9581283"><ele>60.0</ele><time>2026-03-28T10:27:05.151Z</time></trkpt><trkpt lat="45.9999417" lon="12.958275"><ele>60.0</ele><time>2026-03-28T10:27:06.151Z</time></trkpt><trkpt lat="45.99997" lon="12.9584167"><ele>60.0</ele><time>2026-03-28T10:27:07.151Z</time></trkpt><trkpt lat="45.9999817" lon="12.9585517"><ele>60.0</ele><time>2026-03-28T10:27:08.151Z</time></trkpt><trkpt lat="45.9999733" lon="12.9586717"><ele>60.0</ele><time>2026-03-28T10:27:09.152Z</time></trkpt><trkpt lat="45.99999" lon="12.95877"><ele>59.8</ele><time>2026-03-28T10:27:10.151Z</time></trkpt><trkpt lat="46.00008" lon="12.9588633"><ele>59.6</ele><time>2026-03-28T10:27:12.151Z</time></trkpt><trkpt lat="46.0001467" lon="12.9588483"><ele>59.400000000000006</ele><time>2026-03-28T10:27:13.151Z</time></trkpt><trkpt lat="46.0002117" lon="12.9587867"><ele>59.2</ele><time>2026-03-28T10:27:14.152Z</time></trkpt><trkpt lat="46.0002817" lon="12.9586917"><ele>59.0</ele><time>2026-03-28T10:27:15.151Z</time></trkpt><trkpt lat="46.0003633" lon="12.95858"><ele>59.0</ele><time>2026-03-28T10:27:16.152Z</time></trkpt><trkpt lat="46.0004717" lon="12.9584817"><ele>59.0</ele><time>2026-03-28T10:27:17.151Z</time></trkpt><trkpt lat="46.0005917" lon="12.9583867"><ele>59.0</ele><time>2026-03-28T10:27:18.151Z</time></trkpt><trkpt lat="46.0007267" lon="12.9582833"><ele>59.0</ele><time>2026-03-28T10:27:19.151Z</time></trkpt><trkpt lat="46.000865" lon="12.9581733"><ele>59.333333333333336</ele><time>2026-03-28T10:27:20.151Z</time></trkpt><trkpt lat="46.0010067" lon="12.9580617"><ele>59.66666666666667</ele><time>2026-03-28T10:27:21.152Z</time></trkpt><trkpt lat="46.00115" lon="12.95795"><ele>60.0</ele><time>2026-03-28T10:27:22.152Z</time></trkpt><trkpt lat="46.0012967" lon="12.9578317"><ele>60.0</ele><time>2026-03-28T10:27:23.152Z</time></trkpt><trkpt lat="46.0014533" lon="12.9577083"><ele>60.0</ele><time>2026-03-28T10:27:24.152Z</time></trkpt><trkpt lat="46.0016017" lon="12.9575917"><ele>60.0</ele><time>2026-03-28T10:27:25.151Z</time></trkpt><trkpt lat="46.001755" lon="12.9574717"><ele>60.33333333333333</ele><time>2026-03-28T10:27:26.151Z</time></trkpt><trkpt lat="46.00191" lon="12.957355"><ele>60.666666666666664</ele><time>2026-03-28T10:27:27.151Z</time></trkpt><trkpt lat="46.0020583" lon="12.9572383"><ele>61.0</ele><time>2026-03-28T10:27:28.151Z</time></trkpt><trkpt lat="46.0021983" lon="12.9571333"><ele>61.0</ele><time>2026-03-28T10:27:29.151Z</time></trkpt><trkpt lat="46.0023317" lon="12.9570333"><ele>61.0</ele><time>2026-03-28T10:27:30.151Z</time></trkpt><trkpt lat="46.0024517" lon="12.95693"><ele>61.0</ele><time>2026-03-28T10:27:31.151Z</time></trkpt><trkpt lat="46.0025617" lon="12.9568317"><ele>61.0</ele><time>2026-03-28T10:27:32.151Z</time></trkpt><trkpt lat="46.0026633" lon="12.9567233"><ele>60.75</ele><time>2026-03-28T10:27:33.151Z</time></trkpt><trkpt lat="46.00275" lon="12.9565933"><ele>60.5</ele><time>2026-03-28T10:27:34.151Z</time></trkpt><trkpt lat="46.0028367" lon="12.9564333"><ele>60.25</ele><time>2026-03-28T10:27:35.151Z</time></trkpt><trkpt lat="46.00292" lon="12.95626"><ele>60.0</ele><time>2026-03-28T10:27:36.151Z</time></trkpt><trkpt lat="46.0030117" lon="12.956075"><ele>60.0</ele><time>2026-03-28T10:27:37.151Z</time></trkpt><trkpt lat="46.0031067" lon="12.9558767"><ele>60.0</ele><time>2026-03-28T10:27:38.152Z</time></trkpt><trkpt lat="46.0032067" lon="12.9556683"><ele>60.0</ele><time>2026-03-28T10:27:39.152Z</time></trkpt><trkpt lat="46.003305" lon="12.9554533"><ele>61.0</ele><time>2026-03-28T10:27:40.151Z</time></trkpt><trkpt lat="46.0034" lon="12.9552383"><ele>62.0</ele><time>2026-03-28T10:27:41.152Z</time></trkpt><trkpt lat="46.0034967" lon="12.9550283"><ele>63.0</ele><time>2026-03-28T10:27:42.151Z</time></trkpt><trkpt lat="46.0035933" lon="12.9548183"><ele>63.0</ele><time>2026-03-28T10:27:43.151Z</time></trkpt><trkpt lat="46.0036883" lon="12.954605"><ele>63.0</ele><time>2026-03-28T10:27:44.151Z</time></trkpt><trkpt lat="46.0037867" lon="12.9543833"><ele>63.0</ele><time>2026-03-28T10:27:45.152Z</time></trkpt><trkpt lat="46.003895" lon="12.9541583"><ele>63.0</ele><time>2026-03-28T10:27:46.151Z</time></trkpt><trkpt lat="46.0040017" lon="12.95393"><ele>63.0</ele><time>2026-03-28T10:27:47.151Z</time></trkpt><trkpt lat="46.0041033" lon="12.9537083"><ele>63.0</ele><time>2026-03-28T10:27:48.151Z</time></trkpt><trkpt lat="46.00421" lon="12.9534817"><ele>62.66666666666667</ele><time>2026-03-28T10:27:49.151Z</time></trkpt><trkpt lat="46.0043133" lon="12.953255"><ele>62.333333333333336</ele><time>2026-03-28T10:27:50.151Z</time></trkpt><trkpt lat="46.0044167" lon="12.9530267"><ele>62.0</ele><time>2026-03-28T10:27:51.151Z</time></trkpt><trkpt lat="46.0045217" lon="12.952805"><ele>62.0</ele><time>2026-03-28T10:27:52.151Z</time></trkpt><trkpt lat="46.004625" lon="12.95258"><ele>62.0</ele><time>2026-03-28T10:27:53.151Z</time></trkpt><trkpt lat="46.0047283" lon="12.952355"><ele>62.0</ele><time>2026-03-28T10:27:54.151Z</time></trkpt><trkpt lat="46.0048367" lon="12.9521333"><ele>62.0</ele><time>2026-03-28T10:27:55.152Z</time></trkpt><trkpt lat="46.0049383" lon="12.95191"><ele>62.0</ele><time>2026-03-28T10:27:56.151Z</time></trkpt><trkpt lat="46.0050433" lon="12.95169"><ele>62.0</ele><time>2026-03-28T10:27:57.151Z</time></trkpt><trkpt lat="46.00515" lon="12.9514617"><ele>62.0</ele><time>2026-03-28T10:27:58.151Z</time></trkpt><trkpt lat="46.0053683" lon="12.950995"><ele>62.0</ele><time>2026-03-28T10:28:00.152Z</time></trkpt><trkpt lat="46.0054767" lon="12.9507533"><ele>62.0</ele><time>2026-03-28T10:28:01.151Z</time></trkpt><trkpt lat="46.0055933" lon="12.950505"><ele>62.0</ele><time>2026-03-28T10:28:02.151Z</time></trkpt><trkpt lat="46.0057083" lon="12.9502517"><ele>62.0</ele><time>2026-03-28T10:28:03.152Z</time></trkpt><trkpt lat="46.005835" lon="12.949975"><ele>62.0</ele><time>2026-03-28T10:28:04.151Z</time></trkpt><trkpt lat="46.0059667" lon="12.94969"><ele>62.0</ele><time>2026-03-28T10:28:05.151Z</time></trkpt><trkpt lat="46.0061033" lon="12.9493933"><ele>62.0</ele><time>2026-03-28T10:28:06.152Z</time></trkpt><trkpt lat="46.0062433" lon="12.949095"><ele>62.0</ele><time>2026-03-28T10:28:07.151Z</time></trkpt><trkpt lat="46.0063867" lon="12.9487883"><ele>62.0</ele><time>2026-03-28T10:28:08.151Z</time></trkpt><trkpt lat="46.006525" lon="12.9484867"><ele>62.0</ele><time>2026-03-28T10:28:09.152Z</time></trkpt><trkpt lat="46.0066567" lon="12.9482017"><ele>62.333333333333336</ele><time>2026-03-28T10:28:10.152Z</time></trkpt><trkpt lat="46.00678" lon="12.947935"><ele>62.66666666666667</ele><time>2026-03-28T10:28:11.151Z</time></trkpt><trkpt lat="46.0068917" lon="12.9476883"><ele>63.0</ele><time>2026-03-28T10:28:12.152Z</time></trkpt><trkpt lat="46.0070033" lon="12.9474517"><ele>63.0</ele><time>2026-03-28T10:28:13.151Z</time></trkpt><trkpt lat="46.0071167" lon="12.947205"><ele>63.0</ele><time>2026-03-28T10:28:14.151Z</time></trkpt><trkpt lat="46.00723" lon="12.9469567"><ele>63.0</ele><time>2026-03-28T10:28:15.152Z</time></trkpt><trkpt lat="46.0073483" lon="12.9467033"><ele>63.0</ele><time>2026-03-28T10:28:16.152Z</time></trkpt><trkpt lat="46.0074683" lon="12.9464517"><ele>63.0</ele><time>2026-03-28T10:28:17.152Z</time></trkpt><trkpt lat="46.0075783" lon="12.9462117"><ele>63.0</ele><time>2026-03-28T10:28:18.151Z</time></trkpt><trkpt lat="46.0076833" lon="12.9459817"><ele>63.66666666666667</ele><time>2026-03-28T10:28:19.152Z</time></trkpt><trkpt lat="46.00779" lon="12.9457483"><ele>64.33333333333334</ele><time>2026-03-28T10:28:20.151Z</time></trkpt><trkpt lat="46.007905" lon="12.945505"><ele>65.0</ele><time>2026-03-28T10:28:21.151Z</time></trkpt><trkpt lat="46.0080183" lon="12.9452533"><ele>65.0</ele><time>2026-03-28T10:28:22.151Z</time></trkpt><trkpt lat="46.008135" lon="12.9450017"><ele>65.0</ele><time>2026-03-28T10:28:23.151Z</time></trkpt><trkpt lat="46.008255" lon="12.944745"><ele>65.0</ele><time>2026-03-28T10:28:24.152Z</time></trkpt><trkpt lat="46.0083683" lon="12.9444933"><ele>65.0</ele><time>2026-03-28T10:28:25.152Z</time></trkpt><trkpt lat="46.0084767" lon="12.94426"><ele>65.0</ele><time>2026-03-28T10:28:26.151Z</time></trkpt><trkpt lat="46.0085783" lon="12.9440417"><ele>65.0</ele><time>2026-03-28T10:28:27.152Z</time></trkpt><trkpt lat="46.0086767" lon="12.9438333"><ele>65.0</ele><time>2026-03-28T10:28:28.152Z</time></trkpt><trkpt lat="46.008765" lon="12.943635"><ele>65.0</ele><time>2026-03-28T10:28:29.151Z</time></trkpt><trkpt lat="46.0088483" lon="12.9434533"><ele>65.0</ele><time>2026-03-28T10:28:30.151Z</time></trkpt><trkpt lat="46.0089283" lon="12.9432767"><ele>65.0</ele><time>2026-03-28T10:28:31.151Z</time></trkpt><trkpt lat="46.0090067" lon="12.9430967"><ele>65.0</ele><time>2026-03-28T10:28:32.151Z</time></trkpt><trkpt lat="46.0090867" lon="12.9429267"><ele>65.0</ele><time>2026-03-28T10:28:33.151Z</time></trkpt><trkpt lat="46.0091567" lon="12.9427683"><ele>65.0</ele><time>2026-03-28T10:28:34.151Z</time></trkpt><trkpt lat="46.00921" lon="12.9426383"><ele>65.33333333333334</ele><time>2026-03-28T10:28:35.151Z</time></trkpt><trkpt lat="46.0092567" lon="12.9425483"><ele>65.66666666666667</ele><time>2026-03-28T10:28:36.151Z</time></trkpt><trkpt lat="46.0093183" lon="12.9424367"><ele>66.0</ele><time>2026-03-28T10:28:38.152Z</time></trkpt><trkpt lat="46.0093617" lon="12.94235"><ele>66.33333333333333</ele><time>2026-03-28T10:28:41.151Z</time></trkpt><trkpt lat="46.0093317" lon="12.9422467"><ele>66.66666666666666</ele><time>2026-03-28T10:28:44.152Z</time></trkpt><trkpt lat="46.0092683" lon="12.9422033"><ele>67.0</ele><time>2026-03-28T10:28:45.152Z</time></trkpt><trkpt lat="46.0091817" lon="12.9421567"><ele>66.5</ele><time>2026-03-28T10:28:46.151Z</time></trkpt><trkpt lat="46.0090683" lon="12.9421033"><ele>66.0</ele><time>2026-03-28T10:28:47.151Z</time></trkpt><trkpt lat="46.008925" lon="12.9420333"><ele>65.5</ele><time>2026-03-28T10:28:48.151Z</time></trkpt><trkpt lat="46.0087617" lon="12.9419467"><ele>65.0</ele><time>2026-03-28T10:28:49.151Z</time></trkpt><trkpt lat="46.0085917" lon="12.9418533"><ele>65.0</ele><time>2026-03-28T10:28:50.151Z</time></trkpt><trkpt lat="46.00841" lon="12.941755"><ele>65.0</ele><time>2026-03-28T10:28:51.151Z</time></trkpt><trkpt lat="46.0082467" lon="12.9416633"><ele>65.0</ele><time>2026-03-28T10:28:52.151Z</time></trkpt><trkpt lat="46.0081067" lon="12.9415833"><ele>65.33333333333334</ele><time>2026-03-28T10:28:53.151Z</time></trkpt><trkpt lat="46.0080017" lon="12.9415183"><ele>65.66666666666667</ele><time>2026-03-28T10:28:54.151Z</time></trkpt><trkpt lat="46.0079183" lon="12.94147"><ele>66.0</ele><time>2026-03-28T10:28:55.151Z</time></trkpt><trkpt lat="46.0078567" lon="12.9414317"><ele>66.33333333333333</ele><time>2026-03-28T10:28:56.151Z</time></trkpt><trkpt lat="46.0077933" lon="12.9413383"><ele>66.66666666666666</ele><time>2026-03-28T10:29:10.151Z</time></trkpt><trkpt lat="46.007775" lon="12.9414383"><ele>67.0</ele><time>2026-03-28T10:29:31.151Z</time></trkpt><trkpt lat="46.007885" lon="12.9415233"><ele>67.0</ele><time>2026-03-28T10:29:33.151Z</time></trkpt><trkpt lat="46.0080267" lon="12.9415933"><ele>67.0</ele><time>2026-03-28T10:29:34.151Z</time></trkpt><trkpt lat="46.0081933" lon="12.94168"><ele>67.0</ele><time>2026-03-28T10:29:35.151Z</time></trkpt><trkpt lat="46.00835" lon="12.9417667"><ele>66.5</ele><time>2026-03-28T10:29:36.151Z</time></trkpt><trkpt lat="46.00849" lon="12.941845"><ele>66.0</ele><time>2026-03-28T10:29:37.151Z</time></trkpt><trkpt lat="46.0086167" lon="12.9419217"><ele>65.5</ele><time>2026-03-28T10:29:38.151Z</time></trkpt><trkpt lat="46.0087367" lon="12.94199"><ele>65.0</ele><time>2026-03-28T10:29:39.151Z</time></trkpt><trkpt lat="46.008845" lon="12.9420517"><ele>65.0</ele><time>2026-03-28T10:29:40.151Z</time></trkpt><trkpt lat="46.0089433" lon="12.9421117"><ele>65.0</ele><time>2026-03-28T10:29:41.151Z</time></trkpt><trkpt lat="46.0090183" lon="12.9421617"><ele>65.0</ele><time>2026-03-28T10:29:42.151Z</time></trkpt><trkpt lat="46.0091083" lon="12.9421617"><ele>65.0</ele><time>2026-03-28T10:29:44.151Z</time></trkpt><trkpt lat="46.00909" lon="12.9419967"><ele>65.0</ele><time>2026-03-28T10:29:47.151Z</time></trkpt><trkpt lat="46.0090717" lon="12.941905"><ele>65.0</ele><time>2026-03-28T10:29:48.151Z</time></trkpt><trkpt lat="46.0090533" lon="12.94181"><ele>65.0</ele><time>2026-03-28T10:29:49.151Z</time></trkpt><trkpt lat="46.00903" lon="12.9417167"><ele>65.0</ele><time>2026-03-28T10:29:50.151Z</time></trkpt><trkpt lat="46.0090067" lon="12.941615"><ele>65.0</ele><time>2026-03-28T10:29:51.151Z</time></trkpt><trkpt lat="46.0089783" lon="12.9415017"><ele>65.0</ele><time>2026-03-28T10:29:52.151Z</time></trkpt><trkpt lat="46.0089433" lon="12.94138"><ele>65.0</ele><time>2026-03-28T10:29:53.151Z</time></trkpt><trkpt lat="46.0089117" lon="12.9412583"><ele>65.16666666666667</ele><time>2026-03-28T10:29:54.152Z</time></trkpt><trkpt lat="46.008885" lon="12.9411467"><ele>65.33333333333334</ele><time>2026-03-28T10:29:55.151Z</time></trkpt><trkpt lat="46.0088617" lon="12.9410417"><ele>65.5</ele><time>2026-03-28T10:29:56.151Z</time></trkpt><trkpt lat="46.008835" lon="12.9409467"><ele>65.66666666666667</ele><time>2026-03-28T10:29:57.151Z</time></trkpt><trkpt lat="46.0088067" lon="12.9408517"><ele>65.83333333333333</ele><time>2026-03-28T10:29:58.151Z</time></trkpt><trkpt lat="46.0087683" lon="12.940685"><ele>66.0</ele><time>2026-03-28T10:30:00.151Z</time></trkpt><trkpt lat="46.0087417" lon="12.9405933"><ele>66.0</ele><time>2026-03-28T10:30:01.151Z</time></trkpt><trkpt lat="46.0086583" lon="12.9404617"><ele>66.0</ele><time>2026-03-28T10:30:03.152Z</time></trkpt><trkpt lat="46.0085967" lon="12.940415"><ele>66.0</ele><time>2026-03-28T10:30:04.151Z</time></trkpt><trkpt lat="46.0085117" lon="12.9403617"><ele>66.0</ele><time>2026-03-28T10:30:05.151Z</time></trkpt><trkpt lat="46.0084033" lon="12.9403133"><ele>66.0</ele><time>2026-03-28T10:30:06.151Z</time></trkpt><trkpt lat="46.0082967" lon="12.940265"><ele>65.83333333333333</ele><time>2026-03-28T10:30:07.151Z</time></trkpt><trkpt lat="46.00821" lon="12.9402217"><ele>65.66666666666667</ele><time>2026-03-28T10:30:08.151Z</time></trkpt><trkpt lat="46.0081367" lon="12.9401967"><ele>65.5</ele><time>2026-03-28T10:30:09.151Z</time></trkpt><trkpt lat="46.0080633" lon="12.9401833"><ele>65.33333333333334</ele><time>2026-03-28T10:30:10.151Z</time></trkpt><trkpt lat="46.0079817" lon="12.9401867"><ele>65.16666666666667</ele><time>2026-03-28T10:30:11.151Z</time></trkpt><trkpt lat="46.00789" lon="12.9402067"><ele>65.0</ele><time>2026-03-28T10:30:12.151Z</time></trkpt><trkpt lat="46.0077933" lon="12.940245"><ele>65.0</ele><time>2026-03-28T10:30:13.151Z</time></trkpt><trkpt lat="46.007705" lon="12.9402933"><ele>65.0</ele><time>2026-03-28T10:30:14.151Z</time></trkpt><trkpt lat="46.0076083" lon="12.9403483"><ele>65.0</ele><time>2026-03-28T10:30:15.152Z</time></trkpt><trkpt lat="46.00751" lon="12.9404033"><ele>65.0</ele><time>2026-03-28T10:30:16.151Z</time></trkpt><trkpt lat="46.007415" lon="12.940455"><ele>65.0</ele><time>2026-03-28T10:30:17.151Z</time></trkpt><trkpt lat="46.0073283" lon="12.9404983"><ele>65.0</ele><time>2026-03-28T10:30:18.151Z</time></trkpt><trkpt lat="46.0072467" lon="12.940535"><ele>65.0</ele><time>2026-03-28T10:30:19.152Z</time></trkpt><trkpt lat="46.0071667" lon="12.9405617"><ele>65.0</ele><time>2026-03-28T10:30:20.151Z</time></trkpt><trkpt lat="46.007095" lon="12.940585"><ele>65.0</ele><time>2026-03-28T10:30:21.152Z</time></trkpt><trkpt lat="46.00703" lon="12.9405933"><ele>65.0</ele><time>2026-03-28T10:30:22.151Z</time></trkpt><trkpt lat="46.0069183" lon="12.9405683"><ele>65.0</ele><time>2026-03-28T10:30:24.152Z</time></trkpt><trkpt lat="46.006845" lon="12.940465"><ele>65.0</ele><time>2026-03-28T10:30:26.152Z</time></trkpt><trkpt lat="46.0068117" lon="12.9403567"><ele>65.0</ele><time>2026-03-28T10:30:27.151Z</time></trkpt><trkpt lat="46.006775" lon="12.9402083"><ele>65.0</ele><time>2026-03-28T10:30:28.152Z</time></trkpt><trkpt lat="46.0067217" lon="12.9400467"><ele>65.0</ele><time>2026-03-28T10:30:29.152Z</time></trkpt><trkpt lat="46.0066717" lon="12.9398867"><ele>65.0</ele><time>2026-03-28T10:30:30.152Z</time></trkpt><trkpt lat="46.006625" lon="12.939725"><ele>64.5</ele><time>2026-03-28T10:30:31.151Z</time></trkpt><trkpt lat="46.006575" lon="12.9395617"><ele>64.0</ele><time>2026-03-28T10:30:32.151Z</time></trkpt><trkpt lat="46.0065283" lon="12.9394067"><ele>63.5</ele><time>2026-03-28T10:30:33.151Z</time></trkpt><trkpt lat="46.00648" lon="12.9392483"><ele>63.0</ele><time>2026-03-28T10:30:34.152Z</time></trkpt><trkpt lat="46.00643" lon="12.9390967"><ele>63.0</ele><time>2026-03-28T10:30:35.151Z</time></trkpt><trkpt lat="46.0063833" lon="12.938945"><ele>63.0</ele><time>2026-03-28T10:30:36.151Z</time></trkpt><trkpt lat="46.0063367" lon="12.9388017"><ele>63.0</ele><time>2026-03-28T10:30:37.151Z</time></trkpt><trkpt lat="46.00629" lon="12.9386617"><ele>63.0</ele><time>2026-03-28T10:30:38.151Z</time></trkpt><trkpt lat="46.0062517" lon="12.938525"><ele>63.0</ele><time>2026-03-28T10:30:39.151Z</time></trkpt><trkpt lat="46.0062167" lon="12.9383983"><ele>63.0</ele><time>2026-03-28T10:30:40.151Z</time></trkpt><trkpt lat="46.006185" lon="12.9382867"><ele>63.0</ele><time>2026-03-28T10:30:41.151Z</time></trkpt><trkpt lat="46.0061483" lon="12.938185"><ele>63.0</ele><time>2026-03-28T10:30:42.151Z</time></trkpt><trkpt lat="46.006115" lon="12.9380933"><ele>63.0</ele><time>2026-03-28T10:30:43.151Z</time></trkpt><trkpt lat="46.00607" lon="12.9379483"><ele>63.0</ele><time>2026-03-28T10:30:45.151Z</time></trkpt><trkpt lat="46.006065" lon="12.9378483"><ele>63.0</ele><time>2026-03-28T10:30:47.151Z</time></trkpt><trkpt lat="46.0060933" lon="12.9377583"><ele>63.0</ele><time>2026-03-28T10:30:49.151Z</time></trkpt><trkpt lat="46.0061533" lon="12.9376817"><ele>63.0</ele><time>2026-03-28T10:30:51.151Z</time></trkpt><trkpt lat="46.0062233" lon="12.9375783"><ele>63.0</ele><time>2026-03-28T10:30:53.151Z</time></trkpt><trkpt lat="46.0063083" lon="12.937495"><ele>63.0</ele><time>2026-03-28T10:30:55.151Z</time></trkpt><trkpt lat="46.006395" lon="12.937435"><ele>63.0</ele><time>2026-03-28T10:30:57.151Z</time></trkpt><trkpt lat="46.006505" lon="12.937385"><ele>62.599999999999994</ele><time>2026-03-28T10:30:59.151Z</time></trkpt><trkpt lat="46.0065817" lon="12.9373517"><ele>62.199999999999996</ele><time>2026-03-28T10:31:00.151Z</time></trkpt><trkpt lat="46.0066717" lon="12.9373267"><ele>61.8</ele><time>2026-03-28T10:31:01.151Z</time></trkpt><trkpt lat="46.0067783" lon="12.9373017"><ele>61.4</ele><time>2026-03-28T10:31:02.151Z</time></trkpt><trkpt lat="46.006895" lon="12.9372633"><ele>61.0</ele><time>2026-03-28T10:31:03.151Z</time></trkpt><trkpt lat="46.0070183" lon="12.937215"><ele>61.5</ele><time>2026-03-28T10:31:04.151Z</time></trkpt><trkpt lat="46.0071467" lon="12.9371667"><ele>62.0</ele><time>2026-03-28T10:31:05.152Z</time></trkpt><trkpt lat="46.007275" lon="12.9371033"><ele>62.5</ele><time>2026-03-28T10:31:06.151Z</time></trkpt><trkpt lat="46.0074033" lon="12.93704"><ele>63.0</ele><time>2026-03-28T10:31:07.151Z</time></trkpt><trkpt lat="46.0075283" lon="12.936975"><ele>63.0</ele><time>2026-03-28T10:31:08.151Z</time></trkpt><trkpt lat="46.0076433" lon="12.9369033"><ele>63.0</ele><time>2026-03-28T10:31:09.151Z</time></trkpt><trkpt lat="46.00776" lon="12.9368283"><ele>63.0</ele><time>2026-03-28T10:31:10.152Z</time></trkpt><trkpt lat="46.0078717" lon="12.9367533"><ele>63.0</ele><time>2026-03-28T10:31:11.152Z</time></trkpt><trkpt lat="46.00799" lon="12.9366683"><ele>62.5</ele><time>2026-03-28T10:31:12.152Z</time></trkpt><trkpt lat="46.0080983" lon="12.93659"><ele>62.0</ele><time>2026-03-28T10:31:13.151Z</time></trkpt><trkpt lat="46.0082117" lon="12.9365033"><ele>61.5</ele><time>2026-03-28T10:31:14.151Z</time></trkpt><trkpt lat="46.008325" lon="12.9364133"><ele>61.0</ele><time>2026-03-28T10:31:15.152Z</time></trkpt><trkpt lat="46.008435" lon="12.9363167"><ele>62.0</ele><time>2026-03-28T10:31:16.151Z</time></trkpt><trkpt lat="46.0085417" lon="12.93622"><ele>63.0</ele><time>2026-03-28T10:31:17.151Z</time></trkpt><trkpt lat="46.008645" lon="12.936125"><ele>64.0</ele><time>2026-03-28T10:31:18.151Z</time></trkpt><trkpt lat="46.0087367" lon="12.9360467"><ele>65.0</ele><time>2026-03-28T10:31:19.151Z</time></trkpt><trkpt lat="46.008825" lon="12.9359783"><ele>65.0</ele><time>2026-03-28T10:31:20.151Z</time></trkpt><trkpt lat="46.008905" lon="12.9359117"><ele>65.0</ele><time>2026-03-28T10:31:21.151Z</time></trkpt><trkpt lat="46.0089817" lon="12.9358483"><ele>65.0</ele><time>2026-03-28T10:31:22.151Z</time></trkpt><trkpt lat="46.009065" lon="12.9357783"><ele>65.0</ele><time>2026-03-28T10:31:23.151Z</time></trkpt><trkpt lat="46.0091517" lon="12.935705"><ele>65.0</ele><time>2026-03-28T10:31:24.151Z</time></trkpt><trkpt lat="46.0092233" lon="12.935635"><ele>65.0</ele><time>2026-03-28T10:31:25.152Z</time></trkpt><trkpt lat="46.0092933" lon="12.9355683"><ele>65.0</ele><time>2026-03-28T10:31:26.151Z</time></trkpt><trkpt lat="46.009355" lon="12.9355167"><ele>65.0</ele><time>2026-03-28T10:31:27.151Z</time></trkpt><trkpt lat="46.0094167" lon="12.9354867"><ele>65.0</ele><time>2026-03-28T10:31:28.152Z</time></trkpt><trkpt lat="46.009535" lon="12.9354267"><ele>65.0</ele><time>2026-03-28T10:31:30.151Z</time></trkpt><trkpt lat="46.0096033" lon="12.9353717"><ele>65.0</ele><time>2026-03-28T10:31:31.151Z</time></trkpt><trkpt lat="46.0096917" lon="12.9353067"><ele>65.0</ele><time>2026-03-28T10:31:32.151Z</time></trkpt><trkpt lat="46.0098117" lon="12.93525"><ele>65.0</ele><time>2026-03-28T10:31:33.151Z</time></trkpt><trkpt lat="46.009965" lon="12.9352033"><ele>65.0</ele><time>2026-03-28T10:31:34.152Z</time></trkpt><trkpt lat="46.0101567" lon="12.9351533"><ele>65.33333333333334</ele><time>2026-03-28T10:31:35.151Z</time></trkpt><trkpt lat="46.0103633" lon="12.9350967"><ele>65.66666666666667</ele><time>2026-03-28T10:31:36.152Z</time></trkpt><trkpt lat="46.0105633" lon="12.9350367"><ele>66.0</ele><time>2026-03-28T10:31:37.151Z</time></trkpt><trkpt lat="46.0107533" lon="12.9349767"><ele>66.0</ele><time>2026-03-28T10:31:38.151Z</time></trkpt><trkpt lat="46.010925" lon="12.93492"><ele>66.0</ele><time>2026-03-28T10:31:39.151Z</time></trkpt><trkpt lat="46.0110867" lon="12.9348617"><ele>66.0</ele><time>2026-03-28T10:31:40.151Z</time></trkpt><trkpt lat="46.011235" lon="12.9347983"><ele>66.0</ele><time>2026-03-28T10:31:41.152Z</time></trkpt><trkpt lat="46.01137" lon="12.93474"><ele>66.0</ele><time>2026-03-28T10:31:42.151Z</time></trkpt><trkpt lat="46.0114883" lon="12.9346783"><ele>66.0</ele><time>2026-03-28T10:31:43.152Z</time></trkpt><trkpt lat="46.011605" lon="12.93461"><ele>66.0</ele><time>2026-03-28T10:31:44.151Z</time></trkpt><trkpt lat="46.0117217" lon="12.934535"><ele>66.39999999999999</ele><time>2026-03-28T10:31:45.151Z</time></trkpt><trkpt lat="46.0118283" lon="12.93446"><ele>66.8</ele><time>2026-03-28T10:31:46.152Z</time></trkpt><trkpt lat="46.011925" lon="12.9343917"><ele>67.19999999999999</ele><time>2026-03-28T10:31:47.151Z</time></trkpt><trkpt lat="46.0120167" lon="12.934325"><ele>67.6</ele><time>2026-03-28T10:31:48.151Z</time></trkpt><trkpt lat="46.0120967" lon="12.934265"><ele>68.0</ele><time>2026-03-28T10:31:49.15Z</time></trkpt><trkpt lat="46.0121633" lon="12.9342133"><ele>67.2</ele><time>2026-03-28T10:31:50.15Z</time></trkpt><trkpt lat="46.0122633" lon="12.9341383"><ele>66.4</ele><time>2026-03-28T10:31:52.151Z</time></trkpt><trkpt lat="46.01234" lon="12.9340917"><ele>65.60000000000001</ele><time>2026-03-28T10:31:54.151Z</time></trkpt><trkpt lat="46.0124133" lon="12.934035"><ele>64.8</ele><time>2026-03-28T10:31:58.15Z</time></trkpt><trkpt lat="46.0124283" lon="12.9339467"><ele>64.0</ele><time>2026-03-28T10:32:00.151Z</time></trkpt><trkpt lat="46.0124333" lon="12.9337917"><ele>63.99999999999999</ele><time>2026-03-28T10:32:02.15Z</time></trkpt><trkpt lat="46.0124633" lon="12.9337033"><ele>64.0</ele><time>2026-03-28T10:32:05.15Z</time></trkpt><trkpt lat="46.012535" lon="12.9336967"><ele>64.0</ele><time>2026-03-28T10:32:07.15Z</time></trkpt><trkpt lat="46.01267" lon="12.9336583"><ele>64.0</ele><time>2026-03-28T10:32:09.15Z</time></trkpt><trkpt lat="46.01275" lon="12.9336317"><ele>63.99999999999999</ele><time>2026-03-28T10:32:10.15Z</time></trkpt><trkpt lat="46.0128333" lon="12.933595"><ele>64.0</ele><time>2026-03-28T10:32:11.15Z</time></trkpt><trkpt lat="46.012925" lon="12.9335517"><ele>64.60000000000001</ele><time>2026-03-28T10:32:12.151Z</time></trkpt><trkpt lat="46.013025" lon="12.933525"><ele>65.2</ele><time>2026-03-28T10:32:13.15Z</time></trkpt><trkpt lat="46.0131283" lon="12.9334917"><ele>65.80000000000001</ele><time>2026-03-28T10:32:14.15Z</time></trkpt><trkpt lat="46.0132383" lon="12.9334583"><ele>66.4</ele><time>2026-03-28T10:32:15.15Z</time></trkpt><trkpt lat="46.013345" lon="12.933425"><ele>67.0</ele><time>2026-03-28T10:32:16.151Z</time></trkpt><trkpt lat="46.0134467" lon="12.9334067"><ele>67.25</ele><time>2026-03-28T10:32:17.15Z</time></trkpt><trkpt lat="46.01356" lon="12.9333967"><ele>67.5</ele><time>2026-03-28T10:32:18.15Z</time></trkpt><trkpt lat="46.0136767" lon="12.93339"><ele>67.75</ele><time>2026-03-28T10:32:19.151Z</time></trkpt><trkpt lat="46.0137883" lon="12.93338"><ele>68.0</ele><time>2026-03-28T10:32:20.15Z</time></trkpt><trkpt lat="46.013905" lon="12.9333467"><ele>67.33333333333334</ele><time>2026-03-28T10:32:21.15Z</time></trkpt><trkpt lat="46.0140367" lon="12.9332933"><ele>66.66666666666667</ele><time>2026-03-28T10:32:22.151Z</time></trkpt><trkpt lat="46.0141883" lon="12.9332417"><ele>66.0</ele><time>2026-03-28T10:32:23.15Z</time></trkpt><trkpt lat="46.0143483" lon="12.933195"><ele>66.0</ele><time>2026-03-28T10:32:24.15Z</time></trkpt><trkpt lat="46.0144917" lon="12.933165"><ele>66.0</ele><time>2026-03-28T10:32:25.15Z</time></trkpt><trkpt lat="46.01463" lon="12.9331383"><ele>66.0</ele><time>2026-03-28T10:32:26.15Z</time></trkpt><trkpt lat="46.0147583" lon="12.93311"><ele>66.0</ele><time>2026-03-28T10:32:27.15Z</time></trkpt><trkpt lat="46.0148717" lon="12.9330833"><ele>66.0</ele><time>2026-03-28T10:32:28.15Z</time></trkpt><trkpt lat="46.01498" lon="12.9330683"><ele>66.0</ele><time>2026-03-28T10:32:29.15Z</time></trkpt><trkpt lat="46.01508" lon="12.9330583"><ele>66.0</ele><time>2026-03-28T10:32:30.15Z</time></trkpt><trkpt lat="46.01517" lon="12.9330583"><ele>66.0</ele><time>2026-03-28T10:32:31.15Z</time></trkpt><trkpt lat="46.0152583" lon="12.9330517"><ele>66.0</ele><time>2026-03-28T10:32:32.15Z</time></trkpt><trkpt lat="46.0153517" lon="12.933035"><ele>66.2</ele><time>2026-03-28T10:32:33.15Z</time></trkpt><trkpt lat="46.0154383" lon="12.9330317"><ele>66.39999999999999</ele><time>2026-03-28T10:32:34.15Z</time></trkpt><trkpt lat="46.015525" lon="12.9330283"><ele>66.6</ele><time>2026-03-28T10:32:35.15Z</time></trkpt><trkpt lat="46.015615" lon="12.93303"><ele>66.8</ele><time>2026-03-28T10:32:36.151Z</time></trkpt><trkpt lat="46.0157117" lon="12.93303"><ele>67.0</ele><time>2026-03-28T10:32:37.15Z</time></trkpt><trkpt lat="46.015815" lon="12.93303"><ele>67.25</ele><time>2026-03-28T10:32:38.15Z</time></trkpt><trkpt lat="46.0159233" lon="12.9330267"><ele>67.5</ele><time>2026-03-28T10:32:39.151Z</time></trkpt><trkpt lat="46.0160417" lon="12.933015"><ele>67.75</ele><time>2026-03-28T10:32:40.151Z</time></trkpt><trkpt lat="46.016155" lon="12.9330017"><ele>68.0</ele><time>2026-03-28T10:32:41.15Z</time></trkpt><trkpt lat="46.0162767" lon="12.93299"><ele>68.0</ele><time>2026-03-28T10:32:42.15Z</time></trkpt><trkpt lat="46.0164067" lon="12.93298"><ele>68.0</ele><time>2026-03-28T10:32:43.15Z</time></trkpt><trkpt lat="46.0165517" lon="12.9329767"><ele>68.0</ele><time>2026-03-28T10:32:44.15Z</time></trkpt><trkpt lat="46.0166817" lon="12.932965"><ele>68.0</ele><time>2026-03-28T10:32:45.15Z</time></trkpt><trkpt lat="46.0168117" lon="12.9329467"><ele>68.0</ele><time>2026-03-28T10:32:46.15Z</time></trkpt><trkpt lat="46.0169483" lon="12.932915"><ele>68.0</ele><time>2026-03-28T10:32:47.151Z</time></trkpt><trkpt lat="46.0170883" lon="12.9328717"><ele>68.0</ele><time>2026-03-28T10:32:48.15Z</time></trkpt><trkpt lat="46.0172467" lon="12.9328"><ele>68.0</ele><time>2026-03-28T10:32:49.15Z</time></trkpt><trkpt lat="46.017395" lon="12.9327417"><ele>68.75</ele><time>2026-03-28T10:32:50.15Z</time></trkpt><trkpt lat="46.017525" lon="12.9326783"><ele>69.5</ele><time>2026-03-28T10:32:51.15Z</time></trkpt><trkpt lat="46.0176417" lon="12.9326433"><ele>70.25</ele><time>2026-03-28T10:32:52.151Z</time></trkpt><trkpt lat="46.0177633" lon="12.932615"><ele>71.0</ele><time>2026-03-28T10:32:53.151Z</time></trkpt><trkpt lat="46.0179067" lon="12.9325917"><ele>71.0</ele><time>2026-03-28T10:32:54.15Z</time></trkpt><trkpt lat="46.018055" lon="12.9325683"><ele>71.0</ele><time>2026-03-28T10:32:55.15Z</time></trkpt><trkpt lat="46.0182133" lon="12.9325417"><ele>71.0</ele><time>2026-03-28T10:32:56.15Z</time></trkpt><trkpt lat="46.01853" lon="12.9324633"><ele>71.0</ele><time>2026-03-28T10:32:58.15Z</time></trkpt><trkpt lat="46.0186883" lon="12.9324183"><ele>71.0</ele><time>2026-03-28T10:32:59.151Z</time></trkpt><trkpt lat="46.018845" lon="12.9323767"><ele>71.0</ele><time>2026-03-28T10:33:00.15Z</time></trkpt><trkpt lat="46.0189967" lon="12.9323417"><ele>71.0</ele><time>2026-03-28T10:33:01.15Z</time></trkpt><trkpt lat="46.01914" lon="12.9323183"><ele>71.0</ele><time>2026-03-28T10:33:02.15Z</time></trkpt><trkpt lat="46.019285" lon="12.93229"><ele>71.0</ele><time>2026-03-28T10:33:03.151Z</time></trkpt><trkpt lat="46.0194267" lon="12.9322767"><ele>71.0</ele><time>2026-03-28T10:33:04.15Z</time></trkpt><trkpt lat="46.019555" lon="12.9322633"><ele>71.0</ele><time>2026-03-28T10:33:05.15Z</time></trkpt><trkpt lat="46.0196733" lon="12.9322583"><ele>71.0</ele><time>2026-03-28T10:33:06.15Z</time></trkpt><trkpt lat="46.0197883" lon="12.9322883"><ele>71.0</ele><time>2026-03-28T10:33:07.15Z</time></trkpt><trkpt lat="46.01991" lon="12.9323267"><ele>71.0</ele><time>2026-03-28T10:33:08.15Z</time></trkpt><trkpt lat="46.020025" lon="12.9323517"><ele>71.0</ele><time>2026-03-28T10:33:09.15Z</time></trkpt><trkpt lat="46.0201533" lon="12.9323733"><ele>71.0</ele><time>2026-03-28T10:33:10.15Z</time></trkpt><trkpt lat="46.02029" lon="12.9323783"><ele>71.0</ele><time>2026-03-28T10:33:11.15Z</time></trkpt><trkpt lat="46.0204283" lon="12.93237"><ele>71.0</ele><time>2026-03-28T10:33:12.15Z</time></trkpt><trkpt lat="46.0205633" lon="12.9323583"><ele>71.0</ele><time>2026-03-28T10:33:13.15Z</time></trkpt><trkpt lat="46.02069" lon="12.9323417"><ele>71.0</ele><time>2026-03-28T10:33:14.151Z</time></trkpt><trkpt lat="46.02082" lon="12.9323283"><ele>71.0</ele><time>2026-03-28T10:33:15.15Z</time></trkpt><trkpt lat="46.02095" lon="12.9323117"><ele>71.0</ele><time>2026-03-28T10:33:16.15Z</time></trkpt><trkpt lat="46.0210783" lon="12.9322917"><ele>71.0</ele><time>2026-03-28T10:33:17.151Z</time></trkpt><trkpt lat="46.0212033" lon="12.9322783"><ele>71.0</ele><time>2026-03-28T10:33:18.151Z</time></trkpt><trkpt lat="46.0213167" lon="12.9322667"><ele>71.0</ele><time>2026-03-28T10:33:19.15Z</time></trkpt><trkpt lat="46.021435" lon="12.9322517"><ele>71.0</ele><time>2026-03-28T10:33:20.151Z</time></trkpt><trkpt lat="46.0215617" lon="12.93223"><ele>71.25</ele><time>2026-03-28T10:33:21.151Z</time></trkpt><trkpt lat="46.0216883" lon="12.9322117"><ele>71.5</ele><time>2026-03-28T10:33:22.15Z</time></trkpt><trkpt lat="46.0218117" lon="12.9321883"><ele>71.75</ele><time>2026-03-28T10:33:23.15Z</time></trkpt><trkpt lat="46.0219367" lon="12.9321633"><ele>72.0</ele><time>2026-03-28T10:33:24.15Z</time></trkpt><trkpt lat="46.022065" lon="12.9321433"><ele>72.0</ele><time>2026-03-28T10:33:25.15Z</time></trkpt><trkpt lat="46.0221933" lon="12.932115"><ele>72.0</ele><time>2026-03-28T10:33:26.15Z</time></trkpt><trkpt lat="46.0223233" lon="12.9320833"><ele>72.0</ele><time>2026-03-28T10:33:27.15Z</time></trkpt><trkpt lat="46.0224467" lon="12.9320467"><ele>72.0</ele><time>2026-03-28T10:33:28.151Z</time></trkpt><trkpt lat="46.022555" lon="12.9320217"><ele>72.2</ele><time>2026-03-28T10:33:29.151Z</time></trkpt><trkpt lat="46.0226567" lon="12.931985"><ele>72.4</ele><time>2026-03-28T10:33:30.15Z</time></trkpt><trkpt lat="46.022765" lon="12.9319317"><ele>72.6</ele><time>2026-03-28T10:33:31.15Z</time></trkpt><trkpt lat="46.0228633" lon="12.9318767"><ele>72.8</ele><time>2026-03-28T10:33:32.15Z</time></trkpt><trkpt lat="46.0229583" lon="12.93183"><ele>73.0</ele><time>2026-03-28T10:33:33.15Z</time></trkpt><trkpt lat="46.0230517" lon="12.9317833"><ele>72.8</ele><time>2026-03-28T10:33:34.15Z</time></trkpt><trkpt lat="46.023145" lon="12.9317233"><ele>72.6</ele><time>2026-03-28T10:33:35.15Z</time></trkpt><trkpt lat="46.02323" lon="12.9316683"><ele>72.4</ele><time>2026-03-28T10:33:36.15Z</time></trkpt><trkpt lat="46.0233167" lon="12.9316117"><ele>72.2</ele><time>2026-03-28T10:33:37.15Z</time></trkpt><trkpt lat="46.0234083" lon="12.9315717"><ele>72.0</ele><time>2026-03-28T10:33:38.15Z</time></trkpt><trkpt lat="46.023505" lon="12.931545"><ele>72.0</ele><time>2026-03-28T10:33:39.15Z</time></trkpt><trkpt lat="46.0236083" lon="12.93152"><ele>72.0</ele><time>2026-03-28T10:33:40.15Z</time></trkpt><trkpt lat="46.023715" lon="12.9315017"><ele>72.0</ele><time>2026-03-28T10:33:41.151Z</time></trkpt><trkpt lat="46.0238267" lon="12.9314717"><ele>72.0</ele><time>2026-03-28T10:33:42.151Z</time></trkpt><trkpt lat="46.0239467" lon="12.9314483"><ele>72.0</ele><time>2026-03-28T10:33:43.15Z</time></trkpt><trkpt lat="46.0240717" lon="12.9314283"><ele>72.25</ele><time>2026-03-28T10:33:44.15Z</time></trkpt><trkpt lat="46.024215" lon="12.931405"><ele>72.5</ele><time>2026-03-28T10:33:45.15Z</time></trkpt><trkpt lat="46.0243483" lon="12.9313733"><ele>72.75</ele><time>2026-03-28T10:33:46.15Z</time></trkpt><trkpt lat="46.0244717" lon="12.93134"><ele>73.0</ele><time>2026-03-28T10:33:47.15Z</time></trkpt><trkpt lat="46.0245883" lon="12.931315"><ele>73.0</ele><time>2026-03-28T10:33:48.151Z</time></trkpt><trkpt lat="46.0247067" lon="12.9312833"><ele>73.0</ele><time>2026-03-28T10:33:49.15Z</time></trkpt><trkpt lat="46.0248083" lon="12.93125"><ele>73.0</ele><time>2026-03-28T10:33:50.15Z</time></trkpt><trkpt lat="46.024915" lon="12.9312117"><ele>73.0</ele><time>2026-03-28T10:33:51.15Z</time></trkpt><trkpt lat="46.0250083" lon="12.9311817"><ele>73.0</ele><time>2026-03-28T10:33:52.15Z</time></trkpt><trkpt lat="46.0250933" lon="12.9311617"><ele>73.16666666666666</ele><time>2026-03-28T10:33:53.151Z</time></trkpt><trkpt lat="46.0251717" lon="12.93115"><ele>73.33333333333333</ele><time>2026-03-28T10:33:54.15Z</time></trkpt><trkpt lat="46.0252433" lon="12.9311333"><ele>73.5</ele><time>2026-03-28T10:33:55.151Z</time></trkpt><trkpt lat="46.0253183" lon="12.9311317"><ele>73.66666666666667</ele><time>2026-03-28T10:33:56.15Z</time></trkpt><trkpt lat="46.0253867" lon="12.9311167"><ele>73.83333333333334</ele><time>2026-03-28T10:33:57.15Z</time></trkpt><trkpt lat="46.02549" lon="12.93111"><ele>74.0</ele><time>2026-03-28T10:33:59.15Z</time></trkpt><trkpt lat="46.0256133" lon="12.9311017"><ele>74.0</ele><time>2026-03-28T10:34:01.15Z</time></trkpt><trkpt lat="46.025705" lon="12.9311117"><ele>74.0</ele><time>2026-03-28T10:34:02.15Z</time></trkpt><trkpt lat="46.025805" lon="12.9311217"><ele>74.0</ele><time>2026-03-28T10:34:03.151Z</time></trkpt><trkpt lat="46.02591" lon="12.9311083"><ele>74.0</ele><time>2026-03-28T10:34:04.15Z</time></trkpt><trkpt lat="46.02601" lon="12.93112"><ele>74.0</ele><time>2026-03-28T10:34:05.15Z</time></trkpt><trkpt lat="46.0261217" lon="12.9311217"><ele>74.5</ele><time>2026-03-28T10:34:06.15Z</time></trkpt><trkpt lat="46.0262417" lon="12.9311233"><ele>75.0</ele><time>2026-03-28T10:34:07.15Z</time></trkpt><trkpt lat="46.0263733" lon="12.931125"><ele>75.5</ele><time>2026-03-28T10:34:08.15Z</time></trkpt><trkpt lat="46.0265033" lon="12.9311117"><ele>76.0</ele><time>2026-03-28T10:34:09.15Z</time></trkpt><trkpt lat="46.0266083" lon="12.9311133"><ele>76.39999999999999</ele><time>2026-03-28T10:34:10.15Z</time></trkpt><trkpt lat="46.0267" lon="12.931105"><ele>76.8</ele><time>2026-03-28T10:34:11.151Z</time></trkpt><trkpt lat="46.0267833" lon="12.9311017"><ele>77.19999999999999</ele><time>2026-03-28T10:34:12.15Z</time></trkpt><trkpt lat="46.0268683" lon="12.9310983"><ele>77.6</ele><time>2026-03-28T10:34:13.15Z</time></trkpt><trkpt lat="46.0269567" lon="12.9310883"><ele>78.0</ele><time>2026-03-28T10:34:14.15Z</time></trkpt><trkpt lat="46.0270583" lon="12.93106"><ele>78.0</ele><time>2026-03-28T10:34:15.15Z</time></trkpt><trkpt lat="46.02717" lon="12.931025"><ele>78.0</ele><time>2026-03-28T10:34:16.15Z</time></trkpt><trkpt lat="46.027275" lon="12.93098"><ele>78.0</ele><time>2026-03-28T10:34:17.15Z</time></trkpt><trkpt lat="46.0273733" lon="12.930935"><ele>78.0</ele><time>2026-03-28T10:34:18.15Z</time></trkpt><trkpt lat="46.027455" lon="12.9309083"><ele>78.0</ele><time>2026-03-28T10:34:19.15Z</time></trkpt><trkpt lat="46.0275217" lon="12.9308817"><ele>77.5</ele><time>2026-03-28T10:34:20.15Z</time></trkpt><trkpt lat="46.0275967" lon="12.9308517"><ele>77.0</ele><time>2026-03-28T10:34:22.15Z</time></trkpt><trkpt lat="46.0276633" lon="12.9308433"><ele>76.5</ele><time>2026-03-28T10:34:25.15Z</time></trkpt><trkpt lat="46.02771" lon="12.93076"><ele>76.0</ele><time>2026-03-28T10:34:27.15Z</time></trkpt><trkpt lat="46.0277167" lon="12.930665"><ele>75.5</ele><time>2026-03-28T10:34:28.15Z</time></trkpt><trkpt lat="46.0277067" lon="12.9305367"><ele>75.0</ele><time>2026-03-28T10:34:29.15Z</time></trkpt><trkpt lat="46.02769" lon="12.9304117"><ele>75.0</ele><time>2026-03-28T10:34:30.15Z</time></trkpt><trkpt lat="46.02767" lon="12.9302767"><ele>75.0</ele><time>2026-03-28T10:34:31.15Z</time></trkpt><trkpt lat="46.02765" lon="12.9301617"><ele>75.0</ele><time>2026-03-28T10:34:32.15Z</time></trkpt><trkpt lat="46.0276383" lon="12.930055"><ele>75.0</ele><time>2026-03-28T10:34:33.151Z</time></trkpt><trkpt lat="46.0276367" lon="12.9299567"><ele>75.0</ele><time>2026-03-28T10:34:34.15Z</time></trkpt><trkpt lat="46.0276933" lon="12.92981"><ele>75.0</ele><time>2026-03-28T10:34:36.15Z</time></trkpt><trkpt lat="46.0278333" lon="12.9297467"><ele>75.0</ele><time>2026-03-28T10:34:38.15Z</time></trkpt><trkpt lat="46.0279167" lon="12.92969"><ele>75.0</ele><time>2026-03-28T10:34:39.15Z</time></trkpt><trkpt lat="46.0279933" lon="12.9296083"><ele>75.0</ele><time>2026-03-28T10:34:40.15Z</time></trkpt><trkpt lat="46.02805" lon="12.9295283"><ele>75.0</ele><time>2026-03-28T10:34:41.15Z</time></trkpt><trkpt lat="46.028095" lon="12.92946"><ele>75.0</ele><time>2026-03-28T10:34:42.15Z</time></trkpt><trkpt lat="46.0281317" lon="12.929315"><ele>75.0</ele><time>2026-03-28T10:34:44.15Z</time></trkpt><trkpt lat="46.0281483" lon="12.9291567"><ele>75.0</ele><time>2026-03-28T10:34:46.15Z</time></trkpt><trkpt lat="46.02816" lon="12.928985"><ele>75.0</ele><time>2026-03-28T10:34:48.15Z</time></trkpt><trkpt lat="46.0281633" lon="12.9288883"><ele>75.0</ele><time>2026-03-28T10:34:49.151Z</time></trkpt><trkpt lat="46.02817" lon="12.9287917"><ele>75.0</ele><time>2026-03-28T10:34:50.15Z</time></trkpt><trkpt lat="46.028175" lon="12.9286817"><ele>75.0</ele><time>2026-03-28T10:34:51.15Z</time></trkpt><trkpt lat="46.0281833" lon="12.9285783"><ele>75.0</ele><time>2026-03-28T10:34:52.151Z</time></trkpt><trkpt lat="46.0281967" lon="12.9284733"><ele>74.4</ele><time>2026-03-28T10:34:53.15Z</time></trkpt><trkpt lat="46.0282117" lon="12.92834"><ele>73.8</ele><time>2026-03-28T10:34:54.15Z</time></trkpt><trkpt lat="46.0282233" lon="12.9282117"><ele>73.2</ele><time>2026-03-28T10:34:55.15Z</time></trkpt><trkpt lat="46.0282217" lon="12.9280867"><ele>72.6</ele><time>2026-03-28T10:34:56.151Z</time></trkpt><trkpt lat="46.0282217" lon="12.9279533"><ele>72.0</ele><time>2026-03-28T10:34:57.15Z</time></trkpt><trkpt lat="46.0282317" lon="12.927815"><ele>72.0</ele><time>2026-03-28T10:34:58.15Z</time></trkpt><trkpt lat="46.0282367" lon="12.9276783"><ele>72.0</ele><time>2026-03-28T10:34:59.15Z</time></trkpt><trkpt lat="46.0282367" lon="12.927545"><ele>72.0</ele><time>2026-03-28T10:35:00.15Z</time></trkpt><trkpt lat="46.0282367" lon="12.92741"><ele>72.0</ele><time>2026-03-28T10:35:01.15Z</time></trkpt><trkpt lat="46.02824" lon="12.9272717"><ele>72.0</ele><time>2026-03-28T10:35:02.15Z</time></trkpt><trkpt lat="46.02824" lon="12.92714"><ele>71.66666666666667</ele><time>2026-03-28T10:35:03.151Z</time></trkpt><trkpt lat="46.02824" lon="12.9270183"><ele>71.33333333333333</ele><time>2026-03-28T10:35:04.15Z</time></trkpt><trkpt lat="46.0282467" lon="12.9269017"><ele>71.0</ele><time>2026-03-28T10:35:05.15Z</time></trkpt><trkpt lat="46.0282533" lon="12.926775"><ele>70.66666666666666</ele><time>2026-03-28T10:35:06.15Z</time></trkpt><trkpt lat="46.0282583" lon="12.926655"><ele>70.33333333333333</ele><time>2026-03-28T10:35:07.15Z</time></trkpt><trkpt lat="46.0282667" lon="12.92653"><ele>70.0</ele><time>2026-03-28T10:35:08.15Z</time></trkpt><trkpt lat="46.028275" lon="12.9264067"><ele>70.0</ele><time>2026-03-28T10:35:09.15Z</time></trkpt><trkpt lat="46.028275" lon="12.9262917"><ele>70.0</ele><time>2026-03-28T10:35:10.151Z</time></trkpt><trkpt lat="46.0282783" lon="12.9261817"><ele>70.0</ele><time>2026-03-28T10:35:11.15Z</time></trkpt><trkpt lat="46.028285" lon="12.92607"><ele>70.0</ele><time>2026-03-28T10:35:12.15Z</time></trkpt><trkpt lat="46.0282933" lon="12.9259583"><ele>70.0</ele><time>2026-03-28T10:35:13.151Z</time></trkpt><trkpt lat="46.0282933" lon="12.9258017"><ele>70.0</ele><time>2026-03-28T10:35:15.15Z</time></trkpt><trkpt lat="46.0283367" lon="12.9257317"><ele>70.0</ele><time>2026-03-28T10:35:17.15Z</time></trkpt><trkpt lat="46.02844" lon="12.9256983"><ele>70.0</ele><time>2026-03-28T10:35:19.15Z</time></trkpt><trkpt lat="46.028535" lon="12.9256767"><ele>70.0</ele><time>2026-03-28T10:35:20.151Z</time></trkpt><trkpt lat="46.02865" lon="12.92565"><ele>70.0</ele><time>2026-03-28T10:35:21.15Z</time></trkpt><trkpt lat="46.028775" lon="12.92561"><ele>70.0</ele><time>2026-03-28T10:35:22.15Z</time></trkpt><trkpt lat="46.028895" lon="12.92557"><ele>70.0</ele><time>2026-03-28T10:35:23.15Z</time></trkpt><trkpt lat="46.0290117" lon="12.925545"><ele>70.0</ele><time>2026-03-28T10:35:24.151Z</time></trkpt><trkpt lat="46.0291183" lon="12.9255267"><ele>70.0</ele><time>2026-03-28T10:35:25.15Z</time></trkpt><trkpt lat="46.0292333" lon="12.925515"><ele>70.0</ele><time>2026-03-28T10:35:26.15Z</time></trkpt><trkpt lat="46.029365" lon="12.9255067"><ele>70.25</ele><time>2026-03-28T10:35:27.151Z</time></trkpt><trkpt lat="46.029505" lon="12.9255"><ele>70.5</ele><time>2026-03-28T10:35:28.151Z</time></trkpt><trkpt lat="46.0296433" lon="12.9254933"><ele>70.75</ele><time>2026-03-28T10:35:29.15Z</time></trkpt><trkpt lat="46.02977" lon="12.9254867"><ele>71.0</ele><time>2026-03-28T10:35:30.15Z</time></trkpt><trkpt lat="46.029895" lon="12.9254867"><ele>70.8</ele><time>2026-03-28T10:35:31.15Z</time></trkpt><trkpt lat="46.0300033" lon="12.9254883"><ele>70.6</ele><time>2026-03-28T10:35:32.15Z</time></trkpt><trkpt lat="46.0301133" lon="12.9254967"><ele>70.4</ele><time>2026-03-28T10:35:33.15Z</time></trkpt><trkpt lat="46.0302067" lon="12.9254967"><ele>70.2</ele><time>2026-03-28T10:35:34.151Z</time></trkpt><trkpt lat="46.0302867" lon="12.9255067"><ele>70.0</ele><time>2026-03-28T10:35:35.15Z</time></trkpt><trkpt lat="46.0303733" lon="12.9255083"><ele>70.0</ele><time>2026-03-28T10:35:36.15Z</time></trkpt><trkpt lat="46.030475" lon="12.9255167"><ele>70.0</ele><time>2026-03-28T10:35:37.15Z</time></trkpt><trkpt lat="46.0305883" lon="12.9255367"><ele>70.0</ele><time>2026-03-28T10:35:38.15Z</time></trkpt><trkpt lat="46.030695" lon="12.9255583"><ele>70.0</ele><time>2026-03-28T10:35:39.15Z</time></trkpt><trkpt lat="46.03079" lon="12.9255767"><ele>70.0</ele><time>2026-03-28T10:35:40.15Z</time></trkpt><trkpt lat="46.0308767" lon="12.9255983"><ele>70.28571428571429</ele><time>2026-03-28T10:35:41.151Z</time></trkpt><trkpt lat="46.03095" lon="12.9256233"><ele>70.57142857142857</ele><time>2026-03-28T10:35:42.15Z</time></trkpt><trkpt lat="46.0310183" lon="12.9256467"><ele>70.85714285714286</ele><time>2026-03-28T10:35:43.15Z</time></trkpt><trkpt lat="46.0310883" lon="12.9256667"><ele>71.14285714285714</ele><time>2026-03-28T10:35:44.151Z</time></trkpt><trkpt lat="46.0311567" lon="12.92569"><ele>71.42857142857143</ele><time>2026-03-28T10:35:45.15Z</time></trkpt><trkpt lat="46.031225" lon="12.9257133"><ele>71.71428571428572</ele><time>2026-03-28T10:35:46.15Z</time></trkpt><trkpt lat="46.03131" lon="12.9257317"><ele>72.0</ele><time>2026-03-28T10:35:47.15Z</time></trkpt><trkpt lat="46.0313967" lon="12.925745"><ele>72.0</ele><time>2026-03-28T10:35:48.15Z</time></trkpt><trkpt lat="46.031485" lon="12.9257633"><ele>72.0</ele><time>2026-03-28T10:35:49.15Z</time></trkpt><trkpt lat="46.03157" lon="12.92578"><ele>72.0</ele><time>2026-03-28T10:35:50.15Z</time></trkpt><trkpt lat="46.03166" lon="12.9258033"><ele>72.0</ele><time>2026-03-28T10:35:51.15Z</time></trkpt><trkpt lat="46.031755" lon="12.92583"><ele>72.0</ele><time>2026-03-28T10:35:52.151Z</time></trkpt><trkpt lat="46.031855" lon="12.9258467"><ele>72.0</ele><time>2026-03-28T10:35:53.15Z</time></trkpt><trkpt lat="46.0319517" lon="12.9258617"><ele>72.0</ele><time>2026-03-28T10:35:54.15Z</time></trkpt><trkpt lat="46.03205" lon="12.9258783"><ele>72.0</ele><time>2026-03-28T10:35:55.15Z</time></trkpt><trkpt lat="46.0321483" lon="12.92589"><ele>72.0</ele><time>2026-03-28T10:35:56.15Z</time></trkpt><trkpt lat="46.032235" lon="12.9259067"><ele>72.0</ele><time>2026-03-28T10:35:57.15Z</time></trkpt><trkpt lat="46.0323183" lon="12.9259183"><ele>72.0</ele><time>2026-03-28T10:35:58.15Z</time></trkpt><trkpt lat="46.0323983" lon="12.9259183"><ele>72.0</ele><time>2026-03-28T10:35:59.15Z</time></trkpt><trkpt lat="46.032485" lon="12.9259217"><ele>72.0</ele><time>2026-03-28T10:36:00.15Z</time></trkpt><trkpt lat="46.0325833" lon="12.925915"><ele>72.0</ele><time>2026-03-28T10:36:01.15Z</time></trkpt><trkpt lat="46.0326833" lon="12.9259017"><ele>72.0</ele><time>2026-03-28T10:36:02.15Z</time></trkpt><trkpt lat="46.0327883" lon="12.925885"><ele>72.0</ele><time>2026-03-28T10:36:03.15Z</time></trkpt><trkpt lat="46.032895" lon="12.9258733"><ele>72.0</ele><time>2026-03-28T10:36:04.151Z</time></trkpt><trkpt lat="46.033" lon="12.9258533"><ele>72.0</ele><time>2026-03-28T10:36:05.151Z</time></trkpt><trkpt lat="46.0331033" lon="12.925835"><ele>72.0</ele><time>2026-03-28T10:36:06.15Z</time></trkpt><trkpt lat="46.0332" lon="12.9258267"><ele>72.0</ele><time>2026-03-28T10:36:07.15Z</time></trkpt><trkpt lat="46.0333017" lon="12.9258067"><ele>72.0</ele><time>2026-03-28T10:36:08.15Z</time></trkpt><trkpt lat="46.0334133" lon="12.92579"><ele>72.0</ele><time>2026-03-28T10:36:09.15Z</time></trkpt><trkpt lat="46.033535" lon="12.9257567"><ele>72.0</ele><time>2026-03-28T10:36:10.15Z</time></trkpt><trkpt lat="46.0336583" lon="12.9257183"><ele>72.0</ele><time>2026-03-28T10:36:11.151Z</time></trkpt><trkpt lat="46.0337667" lon="12.9256783"><ele>72.0</ele><time>2026-03-28T10:36:12.151Z</time></trkpt><trkpt lat="46.0338767" lon="12.92563"><ele>72.0</ele><time>2026-03-28T10:36:13.15Z</time></trkpt><trkpt lat="46.0339883" lon="12.92559"><ele>72.0</ele><time>2026-03-28T10:36:14.15Z</time></trkpt><trkpt lat="46.034105" lon="12.9255483"><ele>72.0</ele><time>2026-03-28T10:36:15.15Z</time></trkpt><trkpt lat="46.0342133" lon="12.9255"><ele>72.6</ele><time>2026-03-28T10:36:16.15Z</time></trkpt><trkpt lat="46.03432" lon="12.925455"><ele>73.2</ele><time>2026-03-28T10:36:17.15Z</time></trkpt><trkpt lat="46.0344233" lon="12.92541"><ele>73.8</ele><time>2026-03-28T10:36:18.151Z</time></trkpt><trkpt lat="46.0345233" lon="12.92537"><ele>74.4</ele><time>2026-03-28T10:36:19.15Z</time></trkpt><trkpt lat="46.0346217" lon="12.9253333"><ele>75.0</ele><time>2026-03-28T10:36:20.15Z</time></trkpt><trkpt lat="46.03472" lon="12.9252983"><ele>75.0</ele><time>2026-03-28T10:36:21.15Z</time></trkpt><trkpt lat="46.0348167" lon="12.92527"><ele>75.0</ele><time>2026-03-28T10:36:22.15Z</time></trkpt><trkpt lat="46.0349127" lon="12.925249"><ele>75.0</ele><time>2026-03-28T10:36:23.15Z</time></trkpt><trkpt lat="46.0350064" lon="12.9252426"><ele>75.0</ele><time>2026-03-28T10:36:24.151Z</time></trkpt><trkpt lat="46.0350992" lon="12.925242"><ele>75.0</ele><time>2026-03-28T10:36:25.15Z</time></trkpt><trkpt lat="46.035196" lon="12.9252529"><ele>74.6</ele><time>2026-03-28T10:36:26.15Z</time></trkpt><trkpt lat="46.0353012" lon="12.9252667"><ele>74.2</ele><time>2026-03-28T10:36:27.15Z</time></trkpt><trkpt lat="46.0354146" lon="12.9252838"><ele>73.8</ele><time>2026-03-28T10:36:28.15Z</time></trkpt><trkpt lat="46.0355277" lon="12.9252939"><ele>73.4</ele><time>2026-03-28T10:36:29.15Z</time></trkpt><trkpt lat="46.0356389" lon="12.9253148"><ele>73.0</ele><time>2026-03-28T10:36:30.15Z</time></trkpt><trkpt lat="46.0357507" lon="12.9253454"><ele>73.0</ele><time>2026-03-28T10:36:31.15Z</time></trkpt><trkpt lat="46.0358735" lon="12.9253784"><ele>73.0</ele><time>2026-03-28T10:36:32.151Z</time></trkpt><trkpt lat="46.0359994" lon="12.9254145"><ele>73.0</ele><time>2026-03-28T10:36:33.15Z</time></trkpt><trkpt lat="46.0361201" lon="12.9254447"><ele>73.0</ele><time>2026-03-28T10:36:34.15Z</time></trkpt><trkpt lat="46.0362314" lon="12.9254743"><ele>73.0</ele><time>2026-03-28T10:36:35.151Z</time></trkpt><trkpt lat="46.0363423" lon="12.9255043"><ele>73.0</ele><time>2026-03-28T10:36:36.15Z</time></trkpt><trkpt lat="46.036456" lon="12.9255383"><ele>73.0</ele><time>2026-03-28T10:36:37.151Z</time></trkpt><trkpt lat="46.0365679" lon="12.9255771"><ele>73.0</ele><time>2026-03-28T10:36:38.15Z</time></trkpt><trkpt lat="46.0366802" lon="12.9256192"><ele>73.0</ele><time>2026-03-28T10:36:39.15Z</time></trkpt><trkpt lat="46.036804" lon="12.925667"><ele>73.0</ele><time>2026-03-28T10:36:40.15Z</time></trkpt><trkpt lat="46.0369425" lon="12.9257247"><ele>73.0</ele><time>2026-03-28T10:36:41.15Z</time></trkpt><trkpt lat="46.0370895" lon="12.9257982"><ele>73.0</ele><time>2026-03-28T10:36:42.15Z</time></trkpt><trkpt lat="46.0372335" lon="12.9258648"><ele>73.0</ele><time>2026-03-28T10:36:43.15Z</time></trkpt><trkpt lat="46.0373643" lon="12.9259277"><ele>73.0</ele><time>2026-03-28T10:36:44.15Z</time></trkpt><trkpt lat="46.037483" lon="12.9259775"><ele>73.0</ele><time>2026-03-28T10:36:45.151Z</time></trkpt><trkpt lat="46.0375932" lon="12.9260262"><ele>73.0</ele><time>2026-03-28T10:36:46.15Z</time></trkpt><trkpt lat="46.0377011" lon="12.9260626"><ele>73.2</ele><time>2026-03-28T10:36:47.15Z</time></trkpt><trkpt lat="46.0378065" lon="12.9260986"><ele>73.4</ele><time>2026-03-28T10:36:48.15Z</time></trkpt><trkpt lat="46.0379085" lon="12.9261373"><ele>73.60000000000001</ele><time>2026-03-28T10:36:49.15Z</time></trkpt><trkpt lat="46.0380073" lon="12.9261727"><ele>73.8</ele><time>2026-03-28T10:36:50.151Z</time></trkpt><trkpt lat="46.0380972" lon="12.9262002"><ele>74.0</ele><time>2026-03-28T10:36:51.15Z</time></trkpt><trkpt lat="46.0381841" lon="12.9262204"><ele>74.0</ele><time>2026-03-28T10:36:52.151Z</time></trkpt><trkpt lat="46.0382643" lon="12.9262386"><ele>74.0</ele><time>2026-03-28T10:36:53.151Z</time></trkpt><trkpt lat="46.0383341" lon="12.926257"><ele>74.0</ele><time>2026-03-28T10:36:54.151Z</time></trkpt><trkpt lat="46.0384426" lon="12.9262812"><ele>74.0</ele><time>2026-03-28T10:36:56.15Z</time></trkpt><trkpt lat="46.0385228" lon="12.9262979"><ele>74.0</ele><time>2026-03-28T10:36:58.151Z</time></trkpt><trkpt lat="46.0385966" lon="12.9262914"><ele>74.0</ele><time>2026-03-28T10:37:00.15Z</time></trkpt><trkpt lat="46.0386598" lon="12.9262984"><ele>74.0</ele><time>2026-03-28T10:37:02.151Z</time></trkpt><trkpt lat="46.0387254" lon="12.9263142"><ele>74.0</ele><time>2026-03-28T10:37:06.15Z</time></trkpt><trkpt lat="46.0387917" lon="12.92629"><ele>74.0</ele><time>2026-03-28T10:39:38.15Z</time></trkpt><trkpt lat="46.0388967" lon="12.9262917"><ele>74.0</ele><time>2026-03-28T10:39:41.15Z</time></trkpt><trkpt lat="46.039" lon="12.9263083"><ele>74.0</ele><time>2026-03-28T10:39:43.151Z</time></trkpt><trkpt lat="46.0391067" lon="12.9263183"><ele>74.0</ele><time>2026-03-28T10:39:45.15Z</time></trkpt><trkpt lat="46.0392217" lon="12.9263167"><ele>74.0</ele><time>2026-03-28T10:39:47.151Z</time></trkpt><trkpt lat="46.0393217" lon="12.92632"><ele>74.0</ele><time>2026-03-28T10:39:49.15Z</time></trkpt><trkpt lat="46.0394233" lon="12.9263233"><ele>74.0</ele><time>2026-03-28T10:39:51.15Z</time></trkpt><trkpt lat="46.0394983" lon="12.9263283"><ele>74.0</ele><time>2026-03-28T10:39:53.151Z</time></trkpt><trkpt lat="46.039565" lon="12.926405"><ele>74.0</ele><time>2026-03-28T10:39:58.15Z</time></trkpt><trkpt lat="46.0395983" lon="12.9264833"><ele>74.0</ele><time>2026-03-28T10:40:00.151Z</time></trkpt><trkpt lat="46.0396333" lon="12.9265783"><ele>74.0</ele><time>2026-03-28T10:40:03.149Z</time></trkpt><trkpt lat="46.0396583" lon="12.9267067"><ele>74.0</ele><time>2026-03-28T10:40:06.149Z</time></trkpt><trkpt lat="46.039685" lon="12.92681"><ele>74.0</ele><time>2026-03-28T10:40:09.149Z</time></trkpt><trkpt lat="46.0397467" lon="12.92695"><ele>74.0</ele><time>2026-03-28T10:40:15.149Z</time></trkpt><trkpt lat="46.03985" lon="12.92703"><ele>74.0</ele><time>2026-03-28T10:40:17.149Z</time></trkpt><trkpt lat="46.0399433" lon="12.9270617"><ele>74.0</ele><time>2026-03-28T10:40:18.149Z</time></trkpt><trkpt lat="46.04005" lon="12.9270717"><ele>74.0</ele><time>2026-03-28T10:40:19.15Z</time></trkpt><trkpt lat="46.0401567" lon="12.9270867"><ele>74.0</ele><time>2026-03-28T10:40:20.149Z</time></trkpt><trkpt lat="46.040255" lon="12.9271117"><ele>74.0</ele><time>2026-03-28T10:40:21.149Z</time></trkpt><trkpt lat="46.0403467" lon="12.92715"><ele>74.2</ele><time>2026-03-28T10:40:22.149Z</time></trkpt><trkpt lat="46.0404317" lon="12.927195"><ele>74.4</ele><time>2026-03-28T10:40:23.149Z</time></trkpt><trkpt lat="46.040495" lon="12.927245"><ele>74.6</ele><time>2026-03-28T10:40:24.149Z</time></trkpt><trkpt lat="46.0405683" lon="12.927365"><ele>74.8</ele><time>2026-03-28T10:40:26.149Z</time></trkpt><trkpt lat="46.0405933" lon="12.927485"><ele>75.0</ele><time>2026-03-28T10:40:27.149Z</time></trkpt><trkpt lat="46.040625" lon="12.92768"><ele>75.0</ele><time>2026-03-28T10:40:28.15Z</time></trkpt><trkpt lat="46.0406583" lon="12.9279017"><ele>75.0</ele><time>2026-03-28T10:40:29.15Z</time></trkpt><trkpt lat="46.0406917" lon="12.92811"><ele>75.0</ele><time>2026-03-28T10:40:30.149Z</time></trkpt><trkpt lat="46.0407133" lon="12.9282933"><ele>75.0</ele><time>2026-03-28T10:40:31.149Z</time></trkpt><trkpt lat="46.0407183" lon="12.92846"><ele>75.0</ele><time>2026-03-28T10:40:32.15Z</time></trkpt><trkpt lat="46.040705" lon="12.92864"><ele>75.0</ele><time>2026-03-28T10:40:33.15Z</time></trkpt><trkpt lat="46.0406783" lon="12.928815"><ele>75.0</ele><time>2026-03-28T10:40:34.149Z</time></trkpt><trkpt lat="46.0406533" lon="12.9289583"><ele>75.0</ele><time>2026-03-28T10:40:35.15Z</time></trkpt><trkpt lat="46.0406333" lon="12.9290733"><ele>75.0</ele><time>2026-03-28T10:40:36.149Z</time></trkpt><trkpt lat="46.04061" lon="12.929165"><ele>75.0</ele><time>2026-03-28T10:40:37.149Z</time></trkpt><trkpt lat="46.04059" lon="12.9292733"><ele>75.0</ele><time>2026-03-28T10:40:38.15Z</time></trkpt><trkpt lat="46.0405783" lon="12.929425"><ele>75.0</ele><time>2026-03-28T10:40:39.149Z</time></trkpt><trkpt lat="46.0405767" lon="12.9295817"><ele>75.0</ele><time>2026-03-28T10:40:40.149Z</time></trkpt><trkpt lat="46.04059" lon="12.9297717"><ele>75.0</ele><time>2026-03-28T10:40:41.149Z</time></trkpt><trkpt lat="46.0406017" lon="12.9299833"><ele>76.5</ele><time>2026-03-28T10:40:42.149Z</time></trkpt><trkpt lat="46.0406283" lon="12.930215"><ele>78.0</ele><time>2026-03-28T10:40:43.149Z</time></trkpt><trkpt lat="46.0406533" lon="12.9304233"><ele>79.5</ele><time>2026-03-28T10:40:44.149Z</time></trkpt><trkpt lat="46.0406667" lon="12.9306067"><ele>81.0</ele><time>2026-03-28T10:40:45.149Z</time></trkpt><trkpt lat="46.0406583" lon="12.9307617"><ele>81.5</ele><time>2026-03-28T10:40:46.15Z</time></trkpt><trkpt lat="46.0406467" lon="12.930895"><ele>82.0</ele><time>2026-03-28T10:40:47.15Z</time></trkpt><trkpt lat="46.040635" lon="12.93099"><ele>82.5</ele><time>2026-03-28T10:40:48.149Z</time></trkpt><trkpt lat="46.040605" lon="12.9311133"><ele>83.0</ele><time>2026-03-28T10:40:50.149Z</time></trkpt><trkpt lat="46.0405667" lon="12.93124"><ele>83.5</ele><time>2026-03-28T10:40:52.149Z</time></trkpt><trkpt lat="46.040545" lon="12.9313333"><ele>84.0</ele><time>2026-03-28T10:40:54.149Z</time></trkpt><trkpt lat="46.0406017" lon="12.93139"><ele>84.0</ele><time>2026-03-28T10:41:03.15Z</time></trkpt><trkpt lat="46.0406417" lon="12.9315633"><ele>84.0</ele><time>2026-03-28T10:41:58.15Z</time></trkpt><trkpt lat="46.0406467" lon="12.931425"><ele>84.0</ele><time>2026-03-28T10:42:07.149Z</time></trkpt><trkpt lat="46.0405933" lon="12.931345"><ele>84.0</ele><time>2026-03-28T10:42:10.15Z</time></trkpt><trkpt lat="46.0405867" lon="12.93125"><ele>84.0</ele><time>2026-03-28T10:42:12.149Z</time></trkpt><trkpt lat="46.0406267" lon="12.9311733"><ele>84.0</ele><time>2026-03-28T10:42:14.149Z</time></trkpt><trkpt lat="46.04069" lon="12.931105"><ele>84.0</ele><time>2026-03-28T10:42:16.149Z</time></trkpt><trkpt lat="46.0407883" lon="12.9310183"><ele>84.0</ele><time>2026-03-28T10:42:18.149Z</time></trkpt><trkpt lat="46.0408917" lon="12.9309117"><ele>84.0</ele><time>2026-03-28T10:42:20.15Z</time></trkpt><trkpt lat="46.0409583" lon="12.930865"><ele>84.0</ele><time>2026-03-28T10:42:21.149Z</time></trkpt><trkpt lat="46.04103" lon="12.9308283"><ele>84.0</ele><time>2026-03-28T10:42:22.149Z</time></trkpt><trkpt lat="46.0411" lon="12.930805"><ele>83.57142857142857</ele><time>2026-03-28T10:42:23.149Z</time></trkpt><trkpt lat="46.0411783" lon="12.9307883"><ele>83.14285714285714</ele><time>2026-03-28T10:42:24.149Z</time></trkpt><trkpt lat="46.0412533" lon="12.9307933"><ele>82.71428571428572</ele><time>2026-03-28T10:42:25.149Z</time></trkpt><trkpt lat="46.0413333" lon="12.9308083"><ele>82.28571428571428</ele><time>2026-03-28T10:42:26.149Z</time></trkpt><trkpt lat="46.0414067" lon="12.9308483"><ele>81.85714285714286</ele><time>2026-03-28T10:42:27.149Z</time></trkpt><trkpt lat="46.04147" lon="12.9308833"><ele>81.42857142857143</ele><time>2026-03-28T10:42:28.15Z</time></trkpt><trkpt lat="46.0415333" lon="12.930885"><ele>81.0</ele><time>2026-03-28T10:42:29.15Z</time></trkpt><trkpt lat="46.0416033" lon="12.93086"><ele>81.0</ele><time>2026-03-28T10:42:30.149Z</time></trkpt><trkpt lat="46.0416767" lon="12.9308183"><ele>81.0</ele><time>2026-03-28T10:42:31.15Z</time></trkpt><trkpt lat="46.0417533" lon="12.9307617"><ele>81.0</ele><time>2026-03-28T10:42:32.15Z</time></trkpt><trkpt lat="46.0418233" lon="12.9307067"><ele>81.0</ele><time>2026-03-28T10:42:33.15Z</time></trkpt><trkpt lat="46.0419217" lon="12.9306583"><ele>81.0</ele><time>2026-03-28T10:42:35.15Z</time></trkpt><trkpt lat="46.0420217" lon="12.9306467"><ele>81.0</ele><time>2026-03-28T10:42:38.149Z</time></trkpt><trkpt lat="46.0421383" lon="12.9306367"><ele>81.0</ele><time>2026-03-28T10:42:40.15Z</time></trkpt><trkpt lat="46.0422067" lon="12.9306317"><ele>81.0</ele><time>2026-03-28T10:42:41.149Z</time></trkpt><trkpt lat="46.0423283" lon="12.9306467"><ele>81.0</ele><time>2026-03-28T10:42:43.15Z</time></trkpt><trkpt lat="46.0424583" lon="12.9307033"><ele>81.0</ele><time>2026-03-28T10:42:45.149Z</time></trkpt><trkpt lat="46.0425367" lon="12.9307317"><ele>81.0</ele><time>2026-03-28T10:42:46.149Z</time></trkpt><trkpt lat="46.0426183" lon="12.9307467"><ele>81.14285714285714</ele><time>2026-03-28T10:42:47.149Z</time></trkpt><trkpt lat="46.0426867" lon="12.930745"><ele>81.28571428571428</ele><time>2026-03-28T10:42:48.149Z</time></trkpt><trkpt lat="46.04275" lon="12.930745"><ele>81.42857142857142</ele><time>2026-03-28T10:42:49.149Z</time></trkpt><trkpt lat="46.0428183" lon="12.9307433"><ele>81.57142857142857</ele><time>2026-03-28T10:42:50.149Z</time></trkpt><trkpt lat="46.0428917" lon="12.9307483"><ele>81.71428571428571</ele><time>2026-03-28T10:42:51.149Z</time></trkpt><trkpt lat="46.04297" lon="12.9307533"><ele>81.85714285714285</ele><time>2026-03-28T10:42:52.149Z</time></trkpt><trkpt lat="46.043055" lon="12.9307517"><ele>82.0</ele><time>2026-03-28T10:42:53.15Z</time></trkpt><trkpt lat="46.04315" lon="12.9307467"><ele>82.0</ele><time>2026-03-28T10:42:54.15Z</time></trkpt><trkpt lat="46.043245" lon="12.9307383"><ele>82.0</ele><time>2026-03-28T10:42:55.149Z</time></trkpt><trkpt lat="46.0433433" lon="12.9307317"><ele>82.0</ele><time>2026-03-28T10:42:56.149Z</time></trkpt><trkpt lat="46.0434467" lon="12.93073"><ele>82.0</ele><time>2026-03-28T10:42:57.149Z</time></trkpt><trkpt lat="46.0435483" lon="12.9307383"><ele>82.0</ele><time>2026-03-28T10:42:58.149Z</time></trkpt><trkpt lat="46.04365" lon="12.93077"><ele>82.5</ele><time>2026-03-28T10:42:59.149Z</time></trkpt><trkpt lat="46.04375" lon="12.9308267"><ele>83.0</ele><time>2026-03-28T10:43:00.149Z</time></trkpt><trkpt lat="46.0438467" lon="12.9308983"><ele>83.5</ele><time>2026-03-28T10:43:01.149Z</time></trkpt><trkpt lat="46.043955" lon="12.9309833"><ele>84.0</ele><time>2026-03-28T10:43:02.149Z</time></trkpt><trkpt lat="46.0440667" lon="12.9310683"><ele>84.25</ele><time>2026-03-28T10:43:03.149Z</time></trkpt><trkpt lat="46.0441833" lon="12.931145"><ele>84.5</ele><time>2026-03-28T10:43:04.149Z</time></trkpt><trkpt lat="46.0442967" lon="12.9312233"><ele>84.75</ele><time>2026-03-28T10:43:05.149Z</time></trkpt><trkpt lat="46.0444033" lon="12.9313"><ele>85.0</ele><time>2026-03-28T10:43:06.149Z</time></trkpt><trkpt lat="46.0445033" lon="12.931365"><ele>85.0</ele><time>2026-03-28T10:43:07.149Z</time></trkpt><trkpt lat="46.044595" lon="12.9314267"><ele>85.0</ele><time>2026-03-28T10:43:08.149Z</time></trkpt><trkpt lat="46.04468" lon="12.9314883"><ele>85.0</ele><time>2026-03-28T10:43:09.15Z</time></trkpt><trkpt lat="46.044765" lon="12.9315633"><ele>85.0</ele><time>2026-03-28T10:43:10.149Z</time></trkpt><trkpt lat="46.0448483" lon="12.9316383"><ele>85.0</ele><time>2026-03-28T10:43:11.149Z</time></trkpt><trkpt lat="46.044925" lon="12.9316967"><ele>85.4</ele><time>2026-03-28T10:43:12.15Z</time></trkpt><trkpt lat="46.0449917" lon="12.9317483"><ele>85.8</ele><time>2026-03-28T10:43:13.149Z</time></trkpt><trkpt lat="46.0450683" lon="12.9318033"><ele>86.19999999999999</ele><time>2026-03-28T10:43:14.149Z</time></trkpt><trkpt lat="46.0451483" lon="12.93186"><ele>86.6</ele><time>2026-03-28T10:43:15.149Z</time></trkpt><trkpt lat="46.0452417" lon="12.93191"><ele>87.0</ele><time>2026-03-28T10:43:16.149Z</time></trkpt><trkpt lat="46.0453467" lon="12.93195"><ele>87.0</ele><time>2026-03-28T10:43:17.149Z</time></trkpt><trkpt lat="46.045445" lon="12.932005"><ele>87.0</ele><time>2026-03-28T10:43:18.149Z</time></trkpt><trkpt lat="46.0455317" lon="12.9320783"><ele>87.0</ele><time>2026-03-28T10:43:19.149Z</time></trkpt><trkpt lat="46.04562" lon="12.932155"><ele>87.0</ele><time>2026-03-28T10:43:20.149Z</time></trkpt><trkpt lat="46.0457083" lon="12.9322367"><ele>87.0</ele><time>2026-03-28T10:43:21.149Z</time></trkpt><trkpt lat="46.04579" lon="12.9323067"><ele>87.0</ele><time>2026-03-28T10:43:22.149Z</time></trkpt><trkpt lat="46.045875" lon="12.9323767"><ele>87.0</ele><time>2026-03-28T10:43:23.15Z</time></trkpt><trkpt lat="46.0459583" lon="12.93245"><ele>87.0</ele><time>2026-03-28T10:43:24.149Z</time></trkpt><trkpt lat="46.0460433" lon="12.932505"><ele>87.0</ele><time>2026-03-28T10:43:25.149Z</time></trkpt><trkpt lat="46.046115" lon="12.9325467"><ele>87.0</ele><time>2026-03-28T10:43:26.149Z</time></trkpt><trkpt lat="46.046185" lon="12.9325917"><ele>87.0</ele><time>2026-03-28T10:43:27.149Z</time></trkpt><trkpt lat="46.0462417" lon="12.932635"><ele>87.0</ele><time>2026-03-28T10:43:28.149Z</time></trkpt><trkpt lat="46.046295" lon="12.9326867"><ele>87.0</ele><time>2026-03-28T10:43:30.15Z</time></trkpt><trkpt lat="46.0463417" lon="12.9327833"><ele>87.0</ele><time>2026-03-28T10:43:45.15Z</time></trkpt><trkpt lat="46.0463667" lon="12.9328967"><ele>87.0</ele><time>2026-03-28T10:43:47.15Z</time></trkpt><trkpt lat="46.0463933" lon="12.9330667"><ele>87.0</ele><time>2026-03-28T10:43:49.149Z</time></trkpt><trkpt lat="46.0464117" lon="12.9332267"><ele>87.0</ele><time>2026-03-28T10:43:51.149Z</time></trkpt><trkpt lat="46.0464333" lon="12.9333717"><ele>87.0</ele><time>2026-03-28T10:43:53.15Z</time></trkpt><trkpt lat="46.0464467" lon="12.9334733"><ele>87.0</ele><time>2026-03-28T10:43:55.15Z</time></trkpt><trkpt lat="46.046465" lon="12.9335917"><ele>87.0</ele><time>2026-03-28T10:43:57.15Z</time></trkpt><trkpt lat="46.0464917" lon="12.9337833"><ele>87.0</ele><time>2026-03-28T10:43:59.149Z</time></trkpt><trkpt lat="46.0465083" lon="12.9338867"><ele>87.0</ele><time>2026-03-28T10:44:00.149Z</time></trkpt><trkpt lat="46.04652" lon="12.93398"><ele>87.0</ele><time>2026-03-28T10:44:01.15Z</time></trkpt><trkpt lat="46.0465317" lon="12.9340717"><ele>87.0</ele><time>2026-03-28T10:44:02.149Z</time></trkpt><trkpt lat="46.0465567" lon="12.9342433"><ele>87.0</ele><time>2026-03-28T10:44:04.149Z</time></trkpt><trkpt lat="46.0465817" lon="12.934405"><ele>87.0</ele><time>2026-03-28T10:44:06.15Z</time></trkpt><trkpt lat="46.046605" lon="12.9345283"><ele>87.16666666666667</ele><time>2026-03-28T10:44:08.149Z</time></trkpt><trkpt lat="46.0466167" lon="12.9346383"><ele>87.33333333333333</ele><time>2026-03-28T10:44:10.15Z</time></trkpt><trkpt lat="46.046635" lon="12.9347783"><ele>87.5</ele><time>2026-03-28T10:44:12.149Z</time></trkpt><trkpt lat="46.04665" lon="12.9348683"><ele>87.66666666666666</ele><time>2026-03-28T10:44:13.149Z</time></trkpt><trkpt lat="46.046665" lon="12.934975"><ele>87.83333333333333</ele><time>2026-03-28T10:44:14.15Z</time></trkpt><trkpt lat="46.046675" lon="12.935085"><ele>88.0</ele><time>2026-03-28T10:44:15.149Z</time></trkpt><trkpt lat="46.0466817" lon="12.9352067"><ele>88.16666666666666</ele><time>2026-03-28T10:44:16.149Z</time></trkpt><trkpt lat="46.0466833" lon="12.935325"><ele>88.33333333333333</ele><time>2026-03-28T10:44:17.149Z</time></trkpt><trkpt lat="46.0466883" lon="12.9354317"><ele>88.5</ele><time>2026-03-28T10:44:18.149Z</time></trkpt><trkpt lat="46.0466917" lon="12.9355317"><ele>88.66666666666667</ele><time>2026-03-28T10:44:19.149Z</time></trkpt><trkpt lat="46.0467033" lon="12.9356267"><ele>88.83333333333334</ele><time>2026-03-28T10:44:20.15Z</time></trkpt><trkpt lat="46.0467317" lon="12.93571"><ele>89.0</ele><time>2026-03-28T10:44:21.149Z</time></trkpt><trkpt lat="46.0468483" lon="12.9357517"><ele>89.0</ele><time>2026-03-28T10:44:23.149Z</time></trkpt><trkpt lat="46.046925" lon="12.9357217"><ele>89.0</ele><time>2026-03-28T10:44:24.149Z</time></trkpt><trkpt lat="46.0470117" lon="12.9356767"><ele>89.0</ele><time>2026-03-28T10:44:25.149Z</time></trkpt><trkpt lat="46.0471017" lon="12.9356333"><ele>89.0</ele><time>2026-03-28T10:44:26.149Z</time></trkpt><trkpt lat="46.0471967" lon="12.93559"><ele>89.0</ele><time>2026-03-28T10:44:27.149Z</time></trkpt><trkpt lat="46.0472933" lon="12.9355617"><ele>89.0</ele><time>2026-03-28T10:44:28.149Z</time></trkpt><trkpt lat="46.047375" lon="12.9355317"><ele>89.0</ele><time>2026-03-28T10:44:29.149Z</time></trkpt><trkpt lat="46.0474633" lon="12.9355067"><ele>89.0</ele><time>2026-03-28T10:44:30.149Z</time></trkpt><trkpt lat="46.0475517" lon="12.9354767"><ele>89.0</ele><time>2026-03-28T10:44:31.149Z</time></trkpt><trkpt lat="46.04765" lon="12.9354533"><ele>89.0</ele><time>2026-03-28T10:44:32.149Z</time></trkpt><trkpt lat="46.0477483" lon="12.9354233"><ele>88.80000000000001</ele><time>2026-03-28T10:44:33.15Z</time></trkpt><trkpt lat="46.047845" lon="12.9353883"><ele>88.60000000000001</ele><time>2026-03-28T10:44:34.149Z</time></trkpt><trkpt lat="46.0479433" lon="12.9353417"><ele>88.4</ele><time>2026-03-28T10:44:35.15Z</time></trkpt><trkpt lat="46.04803" lon="12.9352883"><ele>88.2</ele><time>2026-03-28T10:44:36.15Z</time></trkpt><trkpt lat="46.0481183" lon="12.9352433"><ele>88.0</ele><time>2026-03-28T10:44:37.15Z</time></trkpt><trkpt lat="46.0481867" lon="12.9352"><ele>88.0</ele><time>2026-03-28T10:44:38.149Z</time></trkpt><trkpt lat="46.0482517" lon="12.9351717"><ele>88.0</ele><time>2026-03-28T10:44:39.149Z</time></trkpt><trkpt lat="46.0483317" lon="12.9351317"><ele>88.0</ele><time>2026-03-28T10:44:41.149Z</time></trkpt><trkpt lat="46.048405" lon="12.9351067"><ele>88.0</ele><time>2026-03-28T10:44:44.15Z</time></trkpt><trkpt lat="46.0484567" lon="12.935025"><ele>88.0</ele><time>2026-03-28T10:44:48.149Z</time></trkpt><trkpt lat="46.048435" lon="12.9348717"><ele>88.0</ele><time>2026-03-28T10:44:50.149Z</time></trkpt><trkpt lat="46.0483817" lon="12.9347267"><ele>88.33333333333333</ele><time>2026-03-28T10:44:52.15Z</time></trkpt><trkpt lat="46.0483567" lon="12.934605"><ele>88.66666666666666</ele><time>2026-03-28T10:44:54.149Z</time></trkpt><trkpt lat="46.0483683" lon="12.9345"><ele>89.0</ele><time>2026-03-28T10:44:56.149Z</time></trkpt><trkpt lat="46.0484067" lon="12.9344233"><ele>89.33333333333333</ele><time>2026-03-28T10:44:59.149Z</time></trkpt><trkpt lat="46.048465" lon="12.9343533"><ele>89.66666666666667</ele><time>2026-03-28T10:45:28.15Z</time></trkpt><trkpt lat="46.0485667" lon="12.93423"><ele>90.0</ele><time>2026-03-28T10:45:30.15Z</time></trkpt><trkpt lat="46.04865" lon="12.9341667"><ele>90.0</ele><time>2026-03-28T10:45:31.15Z</time></trkpt><trkpt lat="46.0487267" lon="12.9340983"><ele>90.0</ele><time>2026-03-28T10:45:32.149Z</time></trkpt><trkpt lat="46.0487917" lon="12.9340167"><ele>90.0</ele><time>2026-03-28T10:45:33.149Z</time></trkpt><trkpt lat="46.0488583" lon="12.9339267"><ele>90.0</ele><time>2026-03-28T10:45:34.149Z</time></trkpt><trkpt lat="46.0489167" lon="12.9338417"><ele>90.0</ele><time>2026-03-28T10:45:35.149Z</time></trkpt><trkpt lat="46.0489667" lon="12.933765"><ele>90.0</ele><time>2026-03-28T10:45:36.149Z</time></trkpt><trkpt lat="46.04902" lon="12.9336933"><ele>90.0</ele><time>2026-03-28T10:45:37.149Z</time></trkpt><trkpt lat="46.0490717" lon="12.9336217"><ele>90.0</ele><time>2026-03-28T10:45:38.15Z</time></trkpt><trkpt lat="46.0491283" lon="12.9335533"><ele>90.0</ele><time>2026-03-28T10:45:39.15Z</time></trkpt><trkpt lat="46.0491917" lon="12.9334833"><ele>90.0</ele><time>2026-03-28T10:45:40.149Z</time></trkpt><trkpt lat="46.04926" lon="12.9333983"><ele>90.0</ele><time>2026-03-28T10:45:41.149Z</time></trkpt><trkpt lat="46.0493217" lon="12.93334"><ele>90.0</ele><time>2026-03-28T10:45:42.149Z</time></trkpt><trkpt lat="46.0493583" lon="12.93326"><ele>89.83333333333333</ele><time>2026-03-28T10:45:43.15Z</time></trkpt><trkpt lat="46.04938" lon="12.93316"><ele>89.66666666666667</ele><time>2026-03-28T10:45:44.149Z</time></trkpt><trkpt lat="46.0493983" lon="12.9330433"><ele>89.5</ele><time>2026-03-28T10:45:45.149Z</time></trkpt><trkpt lat="46.049415" lon="12.932915"><ele>89.33333333333334</ele><time>2026-03-28T10:45:46.149Z</time></trkpt><trkpt lat="46.0494267" lon="12.9327933"><ele>89.16666666666667</ele><time>2026-03-28T10:45:47.149Z</time></trkpt><trkpt lat="46.0494417" lon="12.9326817"><ele>89.0</ele><time>2026-03-28T10:45:48.149Z</time></trkpt><trkpt lat="46.04946" lon="12.9325633"><ele>88.83333333333334</ele><time>2026-03-28T10:45:49.149Z</time></trkpt><trkpt lat="46.0494883" lon="12.93244"><ele>88.66666666666667</ele><time>2026-03-28T10:45:50.15Z</time></trkpt><trkpt lat="46.0495367" lon="12.932335"><ele>88.5</ele><time>2026-03-28T10:45:51.149Z</time></trkpt><trkpt lat="46.0495967" lon="12.9322483"><ele>88.33333333333333</ele><time>2026-03-28T10:45:52.15Z</time></trkpt><trkpt lat="46.04967" lon="12.932175"><ele>88.16666666666666</ele><time>2026-03-28T10:45:53.149Z</time></trkpt><trkpt lat="46.049745" lon="12.9321083"><ele>88.0</ele><time>2026-03-28T10:45:54.149Z</time></trkpt><trkpt lat="46.049815" lon="12.9320367"><ele>88.0</ele><time>2026-03-28T10:45:55.149Z</time></trkpt><trkpt lat="46.0498817" lon="12.9319583"><ele>88.0</ele><time>2026-03-28T10:45:56.149Z</time></trkpt><trkpt lat="46.0499317" lon="12.9318917"><ele>88.0</ele><time>2026-03-28T10:45:57.149Z</time></trkpt><trkpt lat="46.0499967" lon="12.9318033"><ele>88.0</ele><time>2026-03-28T10:45:59.149Z</time></trkpt><trkpt lat="46.0500617" lon="12.931755"><ele>88.0</ele><time>2026-03-28T10:46:01.149Z</time></trkpt><trkpt lat="46.050165" lon="12.9317517"><ele>88.0</ele><time>2026-03-28T10:46:03.149Z</time></trkpt><trkpt lat="46.0502483" lon="12.9317767"><ele>88.60000000000001</ele><time>2026-03-28T10:46:04.149Z</time></trkpt><trkpt lat="46.05035" lon="12.931805"><ele>89.2</ele><time>2026-03-28T10:46:05.15Z</time></trkpt><trkpt lat="46.0504533" lon="12.93183"><ele>89.8</ele><time>2026-03-28T10:46:06.149Z</time></trkpt><trkpt lat="46.0505467" lon="12.9318333"><ele>90.4</ele><time>2026-03-28T10:46:07.15Z</time></trkpt><trkpt lat="46.0506217" lon="12.93184"><ele>91.0</ele><time>2026-03-28T10:46:08.149Z</time></trkpt><trkpt lat="46.0507033" lon="12.93185"><ele>91.0</ele><time>2026-03-28T10:46:09.149Z</time></trkpt><trkpt lat="46.05079" lon="12.9318683"><ele>91.0</ele><time>2026-03-28T10:46:10.149Z</time></trkpt><trkpt lat="46.0508783" lon="12.9318983"><ele>91.0</ele><time>2026-03-28T10:46:11.149Z</time></trkpt><trkpt lat="46.0509683" lon="12.9319317"><ele>91.0</ele><time>2026-03-28T10:46:12.15Z</time></trkpt><trkpt lat="46.051055" lon="12.931965"><ele>91.0</ele><time>2026-03-28T10:46:13.149Z</time></trkpt><trkpt lat="46.0511483" lon="12.9320033"><ele>90.6</ele><time>2026-03-28T10:46:14.149Z</time></trkpt><trkpt lat="46.05124" lon="12.932035"><ele>90.19999999999999</ele><time>2026-03-28T10:46:15.15Z</time></trkpt><trkpt lat="46.0513383" lon="12.9320517"><ele>89.80000000000001</ele><time>2026-03-28T10:46:16.149Z</time></trkpt><trkpt lat="46.0514417" lon="12.9320633"><ele>89.4</ele><time>2026-03-28T10:46:17.15Z</time></trkpt><trkpt lat="46.05155" lon="12.9320733"><ele>89.0</ele><time>2026-03-28T10:46:18.149Z</time></trkpt><trkpt lat="46.0516683" lon="12.9320783"><ele>88.6</ele><time>2026-03-28T10:46:19.15Z</time></trkpt><trkpt lat="46.0517818" lon="12.9320887"><ele>88.2</ele><time>2026-03-28T10:46:20.149Z</time></trkpt><trkpt lat="46.0518938" lon="12.9321011"><ele>87.8</ele><time>2026-03-28T10:46:21.149Z</time></trkpt><trkpt lat="46.0520016" lon="12.9321127"><ele>87.39999999999999</ele><time>2026-03-28T10:46:22.15Z</time></trkpt><trkpt lat="46.0521099" lon="12.9321352"><ele>87.0</ele><time>2026-03-28T10:46:23.149Z</time></trkpt><trkpt lat="46.0522228" lon="12.932168"><ele>87.0</ele><time>2026-03-28T10:46:24.149Z</time></trkpt><trkpt lat="46.0523386" lon="12.9322089"><ele>87.0</ele><time>2026-03-28T10:46:25.149Z</time></trkpt><trkpt lat="46.0524529" lon="12.9322576"><ele>87.0</ele><time>2026-03-28T10:46:26.15Z</time></trkpt><trkpt lat="46.0525625" lon="12.93231"><ele>87.0</ele><time>2026-03-28T10:46:27.15Z</time></trkpt><trkpt lat="46.0526719" lon="12.932366"><ele>87.0</ele><time>2026-03-28T10:46:28.149Z</time></trkpt><trkpt lat="46.052783" lon="12.932417"><ele>87.0</ele><time>2026-03-28T10:46:29.149Z</time></trkpt><trkpt lat="46.0528936" lon="12.9324624"><ele>87.0</ele><time>2026-03-28T10:46:30.149Z</time></trkpt><trkpt lat="46.0530038" lon="12.9325098"><ele>87.0</ele><time>2026-03-28T10:46:31.149Z</time></trkpt><trkpt lat="46.0531147" lon="12.9325563"><ele>87.25</ele><time>2026-03-28T10:46:32.149Z</time></trkpt><trkpt lat="46.0532264" lon="12.9326069"><ele>87.5</ele><time>2026-03-28T10:46:33.149Z</time></trkpt><trkpt lat="46.0533393" lon="12.9326528"><ele>87.75</ele><time>2026-03-28T10:46:34.149Z</time></trkpt><trkpt lat="46.0534583" lon="12.9326892"><ele>88.0</ele><time>2026-03-28T10:46:35.149Z</time></trkpt><trkpt lat="46.0535771" lon="12.9327268"><ele>89.0</ele><time>2026-03-28T10:46:36.149Z</time></trkpt><trkpt lat="46.053694" lon="12.9327655"><ele>90.0</ele><time>2026-03-28T10:46:37.149Z</time></trkpt><trkpt lat="46.0538102" lon="12.9328052"><ele>91.0</ele><time>2026-03-28T10:46:38.149Z</time></trkpt><trkpt lat="46.0539263" lon="12.9328442"><ele>92.0</ele><time>2026-03-28T10:46:39.149Z</time></trkpt><trkpt lat="46.0540439" lon="12.9328982"><ele>91.8</ele><time>2026-03-28T10:46:40.149Z</time></trkpt><trkpt lat="46.0541537" lon="12.9329595"><ele>91.6</ele><time>2026-03-28T10:46:41.149Z</time></trkpt><trkpt lat="46.0542521" lon="12.9330284"><ele>91.39999999999999</ele><time>2026-03-28T10:46:42.149Z</time></trkpt><trkpt lat="46.0543413" lon="12.9331041"><ele>91.19999999999999</ele><time>2026-03-28T10:46:43.149Z</time></trkpt><trkpt lat="46.0544284" lon="12.9331659"><ele>91.0</ele><time>2026-03-28T10:46:44.149Z</time></trkpt><trkpt lat="46.0545182" lon="12.933203"><ele>91.0</ele><time>2026-03-28T10:46:45.149Z</time></trkpt><trkpt lat="46.0546107" lon="12.9332157"><ele>91.0</ele><time>2026-03-28T10:46:46.149Z</time></trkpt><trkpt lat="46.0547098" lon="12.9332055"><ele>91.0</ele><time>2026-03-28T10:46:47.149Z</time></trkpt><trkpt lat="46.0548286" lon="12.9331797"><ele>91.0</ele><time>2026-03-28T10:46:48.149Z</time></trkpt><trkpt lat="46.0549612" lon="12.9331605"><ele>91.0</ele><time>2026-03-28T10:46:49.149Z</time></trkpt><trkpt lat="46.0551089" lon="12.9331568"><ele>91.0</ele><time>2026-03-28T10:46:50.15Z</time></trkpt><trkpt lat="46.0552732" lon="12.9331565"><ele>91.0</ele><time>2026-03-28T10:46:51.149Z</time></trkpt><trkpt lat="46.0554386" lon="12.9331612"><ele>91.0</ele><time>2026-03-28T10:46:52.15Z</time></trkpt><trkpt lat="46.0555886" lon="12.9331661"><ele>91.0</ele><time>2026-03-28T10:46:53.149Z</time></trkpt><trkpt lat="46.0557277" lon="12.9331722"><ele>91.0</ele><time>2026-03-28T10:46:54.149Z</time></trkpt><trkpt lat="46.0558644" lon="12.9331844"><ele>91.0</ele><time>2026-03-28T10:46:55.149Z</time></trkpt><trkpt lat="46.0559994" lon="12.9332087"><ele>91.0</ele><time>2026-03-28T10:46:56.149Z</time></trkpt><trkpt lat="46.0561312" lon="12.9332499"><ele>91.25</ele><time>2026-03-28T10:46:57.149Z</time></trkpt><trkpt lat="46.0562619" lon="12.9333082"><ele>91.5</ele><time>2026-03-28T10:46:58.149Z</time></trkpt><trkpt lat="46.0563888" lon="12.933383"><ele>91.75</ele><time>2026-03-28T10:46:59.149Z</time></trkpt><trkpt lat="46.0565093" lon="12.9334766"><ele>92.0</ele><time>2026-03-28T10:47:00.15Z</time></trkpt><trkpt lat="46.0566156" lon="12.9335787"><ele>92.0</ele><time>2026-03-28T10:47:01.149Z</time></trkpt><trkpt lat="46.0567122" lon="12.9336886"><ele>92.0</ele><time>2026-03-28T10:47:02.15Z</time></trkpt><trkpt lat="46.0568172" lon="12.9337989"><ele>92.0</ele><time>2026-03-28T10:47:03.149Z</time></trkpt><trkpt lat="46.0569227" lon="12.9338861"><ele>92.0</ele><time>2026-03-28T10:47:04.15Z</time></trkpt><trkpt lat="46.0570304" lon="12.9339497"><ele>92.0</ele><time>2026-03-28T10:47:05.148Z</time></trkpt><trkpt lat="46.0571406" lon="12.9339915"><ele>92.0</ele><time>2026-03-28T10:47:06.148Z</time></trkpt><trkpt lat="46.0572514" lon="12.9340189"><ele>92.0</ele><time>2026-03-28T10:47:07.148Z</time></trkpt><trkpt lat="46.0573596" lon="12.9340306"><ele>92.0</ele><time>2026-03-28T10:47:08.148Z</time></trkpt><trkpt lat="46.0574587" lon="12.934036"><ele>92.0</ele><time>2026-03-28T10:47:09.148Z</time></trkpt><trkpt lat="46.0575488" lon="12.9340423"><ele>92.0</ele><time>2026-03-28T10:47:10.149Z</time></trkpt><trkpt lat="46.057632" lon="12.9340521"><ele>92.0</ele><time>2026-03-28T10:47:11.148Z</time></trkpt><trkpt lat="46.0577169" lon="12.934068"><ele>92.0</ele><time>2026-03-28T10:47:12.148Z</time></trkpt><trkpt lat="46.0577974" lon="12.9340885"><ele>92.0</ele><time>2026-03-28T10:47:13.149Z</time></trkpt><trkpt lat="46.0578716" lon="12.9341228"><ele>92.0</ele><time>2026-03-28T10:47:14.148Z</time></trkpt><trkpt lat="46.0579513" lon="12.934172"><ele>92.0</ele><time>2026-03-28T10:47:15.148Z</time></trkpt><trkpt lat="46.058046" lon="12.9342325"><ele>92.0</ele><time>2026-03-28T10:47:16.148Z</time></trkpt><trkpt lat="46.0581477" lon="12.9342877"><ele>92.0</ele><time>2026-03-28T10:47:17.148Z</time></trkpt><trkpt lat="46.058257" lon="12.934336"><ele>92.0</ele><time>2026-03-28T10:47:18.149Z</time></trkpt><trkpt lat="46.0583668" lon="12.9343745"><ele>92.0</ele><time>2026-03-28T10:47:19.148Z</time></trkpt><trkpt lat="46.0584852" lon="12.9344204"><ele>92.75</ele><time>2026-03-28T10:47:20.148Z</time></trkpt><trkpt lat="46.0586068" lon="12.9344777"><ele>93.5</ele><time>2026-03-28T10:47:21.148Z</time></trkpt><trkpt lat="46.058729" lon="12.9345397"><ele>94.25</ele><time>2026-03-28T10:47:22.148Z</time></trkpt><trkpt lat="46.058842" lon="12.9346012"><ele>95.0</ele><time>2026-03-28T10:47:23.148Z</time></trkpt><trkpt lat="46.0589521" lon="12.9346662"><ele>95.0</ele><time>2026-03-28T10:47:24.148Z</time></trkpt><trkpt lat="46.0590567" lon="12.9347376"><ele>95.0</ele><time>2026-03-28T10:47:25.148Z</time></trkpt><trkpt lat="46.0591611" lon="12.9348066"><ele>95.0</ele><time>2026-03-28T10:47:26.149Z</time></trkpt><trkpt lat="46.0592641" lon="12.9348661"><ele>95.0</ele><time>2026-03-28T10:47:27.149Z</time></trkpt><trkpt lat="46.059367" lon="12.9349145"><ele>95.0</ele><time>2026-03-28T10:47:28.148Z</time></trkpt><trkpt lat="46.0594671" lon="12.9349494"><ele>95.0</ele><time>2026-03-28T10:47:29.149Z</time></trkpt><trkpt lat="46.059562" lon="12.9349918"><ele>95.0</ele><time>2026-03-28T10:47:30.148Z</time></trkpt><trkpt lat="46.0596538" lon="12.9350371"><ele>95.0</ele><time>2026-03-28T10:47:31.149Z</time></trkpt><trkpt lat="46.0597433" lon="12.9350765"><ele>95.0</ele><time>2026-03-28T10:47:32.148Z</time></trkpt><trkpt lat="46.0598336" lon="12.9350932"><ele>95.0</ele><time>2026-03-28T10:47:33.148Z</time></trkpt><trkpt lat="46.0599337" lon="12.9350852"><ele>95.0</ele><time>2026-03-28T10:47:34.148Z</time></trkpt><trkpt lat="46.0600588" lon="12.9350515"><ele>95.0</ele><time>2026-03-28T10:47:35.148Z</time></trkpt><trkpt lat="46.0601962" lon="12.9350053"><ele>95.0</ele><time>2026-03-28T10:47:36.148Z</time></trkpt><trkpt lat="46.0603261" lon="12.9349602"><ele>95.0</ele><time>2026-03-28T10:47:37.149Z</time></trkpt><trkpt lat="46.0604477" lon="12.9349171"><ele>95.0</ele><time>2026-03-28T10:47:38.148Z</time></trkpt><trkpt lat="46.0605609" lon="12.9348793"><ele>95.0</ele><time>2026-03-28T10:47:39.148Z</time></trkpt><trkpt lat="46.060674" lon="12.93485"><ele>95.0</ele><time>2026-03-28T10:47:40.148Z</time></trkpt><trkpt lat="46.06079" lon="12.9348371"><ele>95.25</ele><time>2026-03-28T10:47:41.148Z</time></trkpt><trkpt lat="46.0609122" lon="12.9348299"><ele>95.5</ele><time>2026-03-28T10:47:42.148Z</time></trkpt><trkpt lat="46.0610406" lon="12.9348331"><ele>95.75</ele><time>2026-03-28T10:47:43.148Z</time></trkpt><trkpt lat="46.0611774" lon="12.9348343"><ele>96.0</ele><time>2026-03-28T10:47:44.148Z</time></trkpt><trkpt lat="46.0613155" lon="12.9348349"><ele>96.0</ele><time>2026-03-28T10:47:45.148Z</time></trkpt><trkpt lat="46.0614433" lon="12.934826"><ele>96.0</ele><time>2026-03-28T10:47:46.149Z</time></trkpt><trkpt lat="46.0615649" lon="12.9348037"><ele>96.0</ele><time>2026-03-28T10:47:47.149Z</time></trkpt><trkpt lat="46.0616904" lon="12.9347669"><ele>96.0</ele><time>2026-03-28T10:47:48.148Z</time></trkpt><trkpt lat="46.0618234" lon="12.9347227"><ele>95.75</ele><time>2026-03-28T10:47:49.148Z</time></trkpt><trkpt lat="46.0619577" lon="12.9346776"><ele>95.5</ele><time>2026-03-28T10:47:50.148Z</time></trkpt><trkpt lat="46.0620971" lon="12.9346284"><ele>95.25</ele><time>2026-03-28T10:47:51.149Z</time></trkpt><trkpt lat="46.0622358" lon="12.9345831"><ele>95.0</ele><time>2026-03-28T10:47:52.148Z</time></trkpt><trkpt lat="46.0623744" lon="12.9345406"><ele>95.25</ele><time>2026-03-28T10:47:53.148Z</time></trkpt><trkpt lat="46.0625091" lon="12.9345007"><ele>95.5</ele><time>2026-03-28T10:47:54.149Z</time></trkpt><trkpt lat="46.0626394" lon="12.9344624"><ele>95.75</ele><time>2026-03-28T10:47:55.148Z</time></trkpt><trkpt lat="46.0627653" lon="12.9344279"><ele>96.0</ele><time>2026-03-28T10:47:56.148Z</time></trkpt><trkpt lat="46.06289" lon="12.9343965"><ele>96.0</ele><time>2026-03-28T10:47:57.149Z</time></trkpt><trkpt lat="46.0630158" lon="12.9343752"><ele>96.0</ele><time>2026-03-28T10:47:58.148Z</time></trkpt><trkpt lat="46.0631419" lon="12.9343568"><ele>96.0</ele><time>2026-03-28T10:47:59.148Z</time></trkpt><trkpt lat="46.0632684" lon="12.9343495"><ele>96.0</ele><time>2026-03-28T10:48:00.148Z</time></trkpt><trkpt lat="46.0633916" lon="12.9343489"><ele>96.4</ele><time>2026-03-28T10:48:01.149Z</time></trkpt><trkpt lat="46.0635042" lon="12.9343552"><ele>96.8</ele><time>2026-03-28T10:48:02.149Z</time></trkpt><trkpt lat="46.0636075" lon="12.9343587"><ele>97.2</ele><time>2026-03-28T10:48:03.148Z</time></trkpt><trkpt lat="46.0637026" lon="12.9343579"><ele>97.60000000000001</ele><time>2026-03-28T10:48:04.148Z</time></trkpt><trkpt lat="46.0637896" lon="12.9343509"><ele>98.0</ele><time>2026-03-28T10:48:05.148Z</time></trkpt><trkpt lat="46.0638657" lon="12.9343437"><ele>98.0</ele><time>2026-03-28T10:48:06.148Z</time></trkpt><trkpt lat="46.0639328" lon="12.9343229"><ele>98.0</ele><time>2026-03-28T10:48:07.148Z</time></trkpt><trkpt lat="46.06399" lon="12.9342755"><ele>98.0</ele><time>2026-03-28T10:48:08.148Z</time></trkpt><trkpt lat="46.0640422" lon="12.9342027"><ele>98.0</ele><time>2026-03-28T10:48:09.148Z</time></trkpt><trkpt lat="46.0640814" lon="12.9341058"><ele>98.0</ele><time>2026-03-28T10:48:10.148Z</time></trkpt><trkpt lat="46.0641104" lon="12.9340081"><ele>98.0</ele><time>2026-03-28T10:48:11.148Z</time></trkpt><trkpt lat="46.0641449" lon="12.933916"><ele>98.0</ele><time>2026-03-28T10:48:12.148Z</time></trkpt><trkpt lat="46.0641836" lon="12.9338442"><ele>97.80000000000001</ele><time>2026-03-28T10:48:13.149Z</time></trkpt><trkpt lat="46.0642843" lon="12.933734"><ele>97.6</ele><time>2026-03-28T10:48:15.148Z</time></trkpt><trkpt lat="46.0643535" lon="12.9336885"><ele>97.4</ele><time>2026-03-28T10:48:16.148Z</time></trkpt><trkpt lat="46.0644317" lon="12.9336532"><ele>97.19999999999999</ele><time>2026-03-28T10:48:17.148Z</time></trkpt><trkpt lat="46.0645208" lon="12.9336292"><ele>97.0</ele><time>2026-03-28T10:48:18.148Z</time></trkpt><trkpt lat="46.0646286" lon="12.9336141"><ele>97.0</ele><time>2026-03-28T10:48:19.148Z</time></trkpt><trkpt lat="46.0647455" lon="12.9336031"><ele>97.0</ele><time>2026-03-28T10:48:20.148Z</time></trkpt><trkpt lat="46.0648627" lon="12.9335834"><ele>97.0</ele><time>2026-03-28T10:48:21.149Z</time></trkpt><trkpt lat="46.0649791" lon="12.9335645"><ele>97.0</ele><time>2026-03-28T10:48:22.149Z</time></trkpt><trkpt lat="46.0650924" lon="12.9335484"><ele>97.25</ele><time>2026-03-28T10:48:23.149Z</time></trkpt><trkpt lat="46.0652087" lon="12.9335326"><ele>97.5</ele><time>2026-03-28T10:48:24.148Z</time></trkpt><trkpt lat="46.0653286" lon="12.9335231"><ele>97.75</ele><time>2026-03-28T10:48:25.148Z</time></trkpt><trkpt lat="46.065443" lon="12.9335134"><ele>98.0</ele><time>2026-03-28T10:48:26.148Z</time></trkpt><trkpt lat="46.065559" lon="12.9335068"><ele>98.0</ele><time>2026-03-28T10:48:27.148Z</time></trkpt><trkpt lat="46.0656674" lon="12.9335132"><ele>98.0</ele><time>2026-03-28T10:48:28.148Z</time></trkpt><trkpt lat="46.0657701" lon="12.9335316"><ele>98.0</ele><time>2026-03-28T10:48:29.149Z</time></trkpt><trkpt lat="46.0658737" lon="12.9335609"><ele>98.0</ele><time>2026-03-28T10:48:30.149Z</time></trkpt><trkpt lat="46.0659779" lon="12.933596"><ele>98.0</ele><time>2026-03-28T10:48:31.149Z</time></trkpt><trkpt lat="46.0660833" lon="12.9336228"><ele>98.0</ele><time>2026-03-28T10:48:32.148Z</time></trkpt><trkpt lat="46.0661916" lon="12.9336398"><ele>98.0</ele><time>2026-03-28T10:48:33.149Z</time></trkpt><trkpt lat="46.0663046" lon="12.933639"><ele>98.0</ele><time>2026-03-28T10:48:34.148Z</time></trkpt><trkpt lat="46.0664317" lon="12.933615"><ele>98.0</ele><time>2026-03-28T10:48:35.148Z</time></trkpt><trkpt lat="46.0665583" lon="12.9335933"><ele>98.25</ele><time>2026-03-28T10:48:36.148Z</time></trkpt><trkpt lat="46.0666933" lon="12.933575"><ele>98.5</ele><time>2026-03-28T10:48:37.149Z</time></trkpt><trkpt lat="46.0668283" lon="12.9335583"><ele>98.75</ele><time>2026-03-28T10:48:38.148Z</time></trkpt><trkpt lat="46.0669667" lon="12.9335483"><ele>99.0</ele><time>2026-03-28T10:48:39.148Z</time></trkpt><trkpt lat="46.0671167" lon="12.9335433"><ele>99.0</ele><time>2026-03-28T10:48:40.148Z</time></trkpt><trkpt lat="46.0673033" lon="12.93353"><ele>99.0</ele><time>2026-03-28T10:48:41.148Z</time></trkpt><trkpt lat="46.0675217" lon="12.9335167"><ele>99.0</ele><time>2026-03-28T10:48:42.148Z</time></trkpt><trkpt lat="46.06776" lon="12.9335067"><ele>99.0</ele><time>2026-03-28T10:48:43.148Z</time></trkpt><trkpt lat="46.0679983" lon="12.93349"><ele>99.0</ele><time>2026-03-28T10:48:44.149Z</time></trkpt><trkpt lat="46.06822" lon="12.9334833"><ele>99.66666666666666</ele><time>2026-03-28T10:48:45.148Z</time></trkpt><trkpt lat="46.0684183" lon="12.9334817"><ele>100.33333333333333</ele><time>2026-03-28T10:48:46.148Z</time></trkpt><trkpt lat="46.0686017" lon="12.9334867"><ele>101.0</ele><time>2026-03-28T10:48:47.149Z</time></trkpt><trkpt lat="46.0687733" lon="12.933495"><ele>101.0</ele><time>2026-03-28T10:48:48.148Z</time></trkpt><trkpt lat="46.0689317" lon="12.933505"><ele>101.0</ele><time>2026-03-28T10:48:49.148Z</time></trkpt><trkpt lat="46.0690867" lon="12.933515"><ele>101.0</ele><time>2026-03-28T10:48:50.148Z</time></trkpt><trkpt lat="46.0692433" lon="12.9335183"><ele>100.75</ele><time>2026-03-28T10:48:51.148Z</time></trkpt><trkpt lat="46.0694" lon="12.9335317"><ele>100.5</ele><time>2026-03-28T10:48:52.148Z</time></trkpt><trkpt lat="46.0695333" lon="12.93355"><ele>100.25</ele><time>2026-03-28T10:48:53.148Z</time></trkpt><trkpt lat="46.06966" lon="12.9335683"><ele>100.0</ele><time>2026-03-28T10:48:54.148Z</time></trkpt><trkpt lat="46.0697817" lon="12.933585"><ele>100.0</ele><time>2026-03-28T10:48:55.148Z</time></trkpt><trkpt lat="46.069905" lon="12.9336"><ele>100.0</ele><time>2026-03-28T10:48:56.148Z</time></trkpt><trkpt lat="46.0700217" lon="12.93362"><ele>100.0</ele><time>2026-03-28T10:48:57.148Z</time></trkpt><trkpt lat="46.07013" lon="12.9336333"><ele>100.0</ele><time>2026-03-28T10:48:58.148Z</time></trkpt><trkpt lat="46.0702267" lon="12.93365"><ele>100.0</ele><time>2026-03-28T10:48:59.149Z</time></trkpt><trkpt lat="46.0703183" lon="12.9336583"><ele>100.16666666666667</ele><time>2026-03-28T10:49:00.148Z</time></trkpt><trkpt lat="46.070405" lon="12.933665"><ele>100.33333333333334</ele><time>2026-03-28T10:49:01.149Z</time></trkpt><trkpt lat="46.070495" lon="12.9336717"><ele>100.5</ele><time>2026-03-28T10:49:02.148Z</time></trkpt><trkpt lat="46.070585" lon="12.9336783"><ele>100.66666666666666</ele><time>2026-03-28T10:49:03.149Z</time></trkpt><trkpt lat="46.0706733" lon="12.9336883"><ele>100.83333333333333</ele><time>2026-03-28T10:49:04.149Z</time></trkpt><trkpt lat="46.0707617" lon="12.9336967"><ele>101.0</ele><time>2026-03-28T10:49:05.148Z</time></trkpt><trkpt lat="46.0708533" lon="12.933705"><ele>101.0</ele><time>2026-03-28T10:49:06.148Z</time></trkpt><trkpt lat="46.0709517" lon="12.9337133"><ele>101.0</ele><time>2026-03-28T10:49:07.148Z</time></trkpt><trkpt lat="46.0710467" lon="12.9337217"><ele>101.0</ele><time>2026-03-28T10:49:08.149Z</time></trkpt><trkpt lat="46.071145" lon="12.9337283"><ele>101.0</ele><time>2026-03-28T10:49:09.148Z</time></trkpt><trkpt lat="46.0712417" lon="12.93373"><ele>101.0</ele><time>2026-03-28T10:49:10.149Z</time></trkpt><trkpt lat="46.0713383" lon="12.9337333"><ele>101.0</ele><time>2026-03-28T10:49:11.148Z</time></trkpt><trkpt lat="46.0714367" lon="12.9337367"><ele>101.0</ele><time>2026-03-28T10:49:12.148Z</time></trkpt><trkpt lat="46.07153" lon="12.9337383"><ele>101.0</ele><time>2026-03-28T10:49:13.148Z</time></trkpt><trkpt lat="46.0716267" lon="12.9337367"><ele>101.0</ele><time>2026-03-28T10:49:14.148Z</time></trkpt><trkpt lat="46.0717233" lon="12.933735"><ele>101.0</ele><time>2026-03-28T10:49:15.148Z</time></trkpt><trkpt lat="46.0718283" lon="12.933735"><ele>101.0</ele><time>2026-03-28T10:49:16.148Z</time></trkpt><trkpt lat="46.071935" lon="12.9337417"><ele>101.0</ele><time>2026-03-28T10:49:17.149Z</time></trkpt><trkpt lat="46.0720417" lon="12.9337417"><ele>101.0</ele><time>2026-03-28T10:49:18.148Z</time></trkpt><trkpt lat="46.072145" lon="12.9337433"><ele>101.0</ele><time>2026-03-28T10:49:19.149Z</time></trkpt><trkpt lat="46.0722467" lon="12.9337483"><ele>101.0</ele><time>2026-03-28T10:49:20.148Z</time></trkpt><trkpt lat="46.0723436" lon="12.9337483"><ele>100.99999999999999</ele><time>2026-03-28T10:49:21.149Z</time></trkpt><trkpt lat="46.0724328" lon="12.9337532"><ele>101.0</ele><time>2026-03-28T10:49:22.148Z</time></trkpt><trkpt lat="46.0725165" lon="12.9337547"><ele>101.0</ele><time>2026-03-28T10:49:23.149Z</time></trkpt><trkpt lat="46.0726012" lon="12.9337609"><ele>101.0</ele><time>2026-03-28T10:49:24.148Z</time></trkpt><trkpt lat="46.0726912" lon="12.9337667"><ele>100.99999999999999</ele><time>2026-03-28T10:49:25.148Z</time></trkpt><trkpt lat="46.0727734" lon="12.9337737"><ele>101.0</ele><time>2026-03-28T10:49:26.149Z</time></trkpt><trkpt lat="46.072852" lon="12.9337747"><ele>101.6</ele><time>2026-03-28T10:49:27.148Z</time></trkpt><trkpt lat="46.072918" lon="12.9337778"><ele>102.19999999999999</ele><time>2026-03-28T10:49:28.148Z</time></trkpt><trkpt lat="46.0730353" lon="12.9337621"><ele>102.80000000000001</ele><time>2026-03-28T10:49:30.148Z</time></trkpt><trkpt lat="46.0731493" lon="12.9336799"><ele>103.4</ele><time>2026-03-28T10:49:32.148Z</time></trkpt><trkpt lat="46.0732072" lon="12.9336142"><ele>104.0</ele><time>2026-03-28T10:49:33.148Z</time></trkpt><trkpt lat="46.0732664" lon="12.9335354"><ele>103.99999999999999</ele><time>2026-03-28T10:49:34.148Z</time></trkpt><trkpt lat="46.0733294" lon="12.9334496"><ele>104.0</ele><time>2026-03-28T10:49:35.148Z</time></trkpt><trkpt lat="46.0733844" lon="12.9333676"><ele>104.0</ele><time>2026-03-28T10:49:36.148Z</time></trkpt><trkpt lat="46.0734302" lon="12.9332921"><ele>104.0</ele><time>2026-03-28T10:49:37.148Z</time></trkpt><trkpt lat="46.0735176" lon="12.9331759"><ele>103.99999999999999</ele><time>2026-03-28T10:49:39.148Z</time></trkpt><trkpt lat="46.0735885" lon="12.9330936"><ele>104.0</ele><time>2026-03-28T10:49:41.149Z</time></trkpt><trkpt lat="46.0736599" lon="12.93304"><ele>103.83333333333333</ele><time>2026-03-28T10:49:44.148Z</time></trkpt><trkpt lat="46.0737415" lon="12.9330323"><ele>103.66666666666666</ele><time>2026-03-28T10:49:47.148Z</time></trkpt><trkpt lat="46.0738283" lon="12.9330717"><ele>103.5</ele><time>2026-03-28T10:50:03.148Z</time></trkpt><trkpt lat="46.0738633" lon="12.9331533"><ele>103.33333333333334</ele><time>2026-03-28T10:50:11.148Z</time></trkpt><trkpt lat="46.0739133" lon="12.933225"><ele>103.16666666666667</ele><time>2026-03-28T10:50:16.149Z</time></trkpt><trkpt lat="46.0739533" lon="12.93311"><ele>103.0</ele><time>2026-03-28T10:50:21.148Z</time></trkpt><trkpt lat="46.073915" lon="12.933"><ele>103.00000000000001</ele><time>2026-03-28T10:50:23.148Z</time></trkpt><trkpt lat="46.07386" lon="12.9329033"><ele>103.0</ele><time>2026-03-28T10:50:25.148Z</time></trkpt><trkpt lat="46.0737983" lon="12.9328267"><ele>103.0</ele><time>2026-03-28T10:50:27.149Z</time></trkpt><trkpt lat="46.073725" lon="12.9327617"><ele>103.0</ele><time>2026-03-28T10:50:29.149Z</time></trkpt><trkpt lat="46.0736417" lon="12.9326883"><ele>103.00000000000001</ele><time>2026-03-28T10:50:31.148Z</time></trkpt><trkpt lat="46.0735767" lon="12.93264"><ele>103.0</ele><time>2026-03-28T10:50:32.148Z</time></trkpt><trkpt lat="46.0735067" lon="12.93258"><ele>102.2</ele><time>2026-03-28T10:50:33.149Z</time></trkpt><trkpt lat="46.0734433" lon="12.9325267"><ele>101.4</ele><time>2026-03-28T10:50:34.148Z</time></trkpt><trkpt lat="46.0733483" lon="12.932405"><ele>100.60000000000001</ele><time>2026-03-28T10:50:36.149Z</time></trkpt><trkpt lat="46.0733167" lon="12.9323183"><ele>99.80000000000001</ele><time>2026-03-28T10:50:37.148Z</time></trkpt><trkpt lat="46.0732883" lon="12.932155"><ele>99.0</ele><time>2026-03-28T10:50:39.149Z</time></trkpt><trkpt lat="46.0732817" lon="12.9319883"><ele>98.6</ele><time>2026-03-28T10:50:41.148Z</time></trkpt><trkpt lat="46.0732683" lon="12.93183"><ele>98.2</ele><time>2026-03-28T10:50:43.148Z</time></trkpt><trkpt lat="46.0732567" lon="12.9316817"><ele>97.8</ele><time>2026-03-28T10:50:45.148Z</time></trkpt><trkpt lat="46.073245" lon="12.9315217"><ele>97.39999999999999</ele><time>2026-03-28T10:50:47.149Z</time></trkpt><trkpt lat="46.073215" lon="12.9313767"><ele>97.0</ele><time>2026-03-28T10:50:49.149Z</time></trkpt><trkpt lat="46.0731767" lon="12.9312417"><ele>96.00000000000001</ele><time>2026-03-28T10:50:51.149Z</time></trkpt><trkpt lat="46.0731417" lon="12.931155"><ele>95.0</ele><time>2026-03-28T10:50:53.148Z</time></trkpt><trkpt lat="46.0731033" lon="12.9310617"><ele>94.0</ele><time>2026-03-28T10:50:56.148Z</time></trkpt><trkpt lat="46.0731433" lon="12.9309583"><ele>93.0</ele><time>2026-03-28T10:50:59.148Z</time></trkpt><trkpt lat="46.0731517" lon="12.9308083"><ele>92.0</ele><time>2026-03-28T10:51:01.148Z</time></trkpt><trkpt lat="46.07314" lon="12.9307167"><ele>91.0</ele><time>2026-03-28T10:51:02.148Z</time></trkpt><trkpt lat="46.07314" lon="12.93057"><ele>91.0</ele><time>2026-03-28T10:51:04.149Z</time></trkpt><trkpt lat="46.0731283" lon="12.9304417"><ele>91.0</ele><time>2026-03-28T10:51:06.149Z</time></trkpt><trkpt lat="46.0731283" lon="12.9303233"><ele>91.0</ele><time>2026-03-28T10:51:08.148Z</time></trkpt><trkpt lat="46.073115" lon="12.93018"><ele>91.0</ele><time>2026-03-28T10:51:10.148Z</time></trkpt><trkpt lat="46.0731117" lon="12.9300333"><ele>91.0</ele><time>2026-03-28T10:51:12.148Z</time></trkpt><trkpt lat="46.0731117" lon="12.9298783"><ele>90.66666666666666</ele><time>2026-03-28T10:51:14.149Z</time></trkpt><trkpt lat="46.07311" lon="12.929755"><ele>90.33333333333333</ele><time>2026-03-28T10:51:16.148Z</time></trkpt><trkpt lat="46.0731717" lon="12.9296517"><ele>90.0</ele><time>2026-03-28T10:51:19.148Z</time></trkpt><trkpt lat="46.0732717" lon="12.9295633"><ele>89.66666666666667</ele><time>2026-03-28T10:51:21.148Z</time></trkpt><trkpt lat="46.0733333" lon="12.9295167"><ele>89.33333333333334</ele><time>2026-03-28T10:51:22.148Z</time></trkpt><trkpt lat="46.0734" lon="12.9294717"><ele>89.0</ele><time>2026-03-28T10:51:23.149Z</time></trkpt><trkpt lat="46.0734683" lon="12.9294317"><ele>89.0</ele><time>2026-03-28T10:51:24.149Z</time></trkpt><trkpt lat="46.0735383" lon="12.9293983"><ele>89.0</ele><time>2026-03-28T10:51:25.149Z</time></trkpt><trkpt lat="46.073605" lon="12.9293683"><ele>89.0</ele><time>2026-03-28T10:51:26.148Z</time></trkpt><trkpt lat="46.0736983" lon="12.9293433"><ele>89.0</ele><time>2026-03-28T10:51:28.148Z</time></trkpt><trkpt lat="46.0738117" lon="12.929345"><ele>89.0</ele><time>2026-03-28T10:51:30.148Z</time></trkpt><trkpt lat="46.0738783" lon="12.92935"><ele>89.0</ele><time>2026-03-28T10:51:31.148Z</time></trkpt><trkpt lat="46.0739467" lon="12.9293583"><ele>89.0</ele><time>2026-03-28T10:51:32.149Z</time></trkpt><trkpt lat="46.0740417" lon="12.9294033"><ele>89.0</ele><time>2026-03-28T10:51:34.149Z</time></trkpt><trkpt lat="46.07408" lon="12.92952"><ele>89.0</ele><time>2026-03-28T10:51:36.149Z</time></trkpt><trkpt lat="46.0740967" lon="12.9296667"><ele>89.0</ele><time>2026-03-28T10:51:38.148Z</time></trkpt><trkpt lat="46.0741433" lon="12.9297833"><ele>89.0</ele><time>2026-03-28T10:51:40.148Z</time></trkpt><trkpt lat="46.0742433" lon="12.929835"><ele>89.33333333333334</ele><time>2026-03-28T10:51:42.148Z</time></trkpt><trkpt lat="46.0743067" lon="12.9298483"><ele>89.66666666666667</ele><time>2026-03-28T10:51:43.148Z</time></trkpt><trkpt lat="46.074375" lon="12.9298483"><ele>90.0</ele><time>2026-03-28T10:51:44.149Z</time></trkpt><trkpt lat="46.0744567" lon="12.9298517"><ele>90.33333333333333</ele><time>2026-03-28T10:51:45.148Z</time></trkpt><trkpt lat="46.0745533" lon="12.9298533"><ele>90.66666666666666</ele><time>2026-03-28T10:51:46.148Z</time></trkpt><trkpt lat="46.074655" lon="12.9298433"><ele>91.0</ele><time>2026-03-28T10:51:47.148Z</time></trkpt><trkpt lat="46.0747517" lon="12.9298317"><ele>91.0</ele><time>2026-03-28T10:51:48.148Z</time></trkpt><trkpt lat="46.074835" lon="12.9298283"><ele>91.0</ele><time>2026-03-28T10:51:49.149Z</time></trkpt><trkpt lat="46.0749183" lon="12.9298317"><ele>91.0</ele><time>2026-03-28T10:51:50.149Z</time></trkpt><trkpt lat="46.0749983" lon="12.9298367"><ele>91.0</ele><time>2026-03-28T10:51:51.148Z</time></trkpt><trkpt lat="46.0750967" lon="12.92983"><ele>91.0</ele><time>2026-03-28T10:51:52.149Z</time></trkpt><trkpt lat="46.0751917" lon="12.9298217"><ele>91.0</ele><time>2026-03-28T10:51:53.148Z</time></trkpt><trkpt lat="46.0752817" lon="12.92981"><ele>90.83333333333333</ele><time>2026-03-28T10:51:54.148Z</time></trkpt><trkpt lat="46.0753667" lon="12.9297917"><ele>90.66666666666666</ele><time>2026-03-28T10:51:55.148Z</time></trkpt><trkpt lat="46.075445" lon="12.9297783"><ele>90.5</ele><time>2026-03-28T10:51:56.148Z</time></trkpt><trkpt lat="46.0755217" lon="12.9297583"><ele>90.33333333333333</ele><time>2026-03-28T10:51:57.148Z</time></trkpt><trkpt lat="46.0756" lon="12.9297467"><ele>90.16666666666667</ele><time>2026-03-28T10:51:58.148Z</time></trkpt><trkpt lat="46.075675" lon="12.929745"><ele>90.0</ele><time>2026-03-28T10:51:59.148Z</time></trkpt><trkpt lat="46.07576" lon="12.92974"><ele>90.0</ele><time>2026-03-28T10:52:00.148Z</time></trkpt><trkpt lat="46.0758383" lon="12.9297283"><ele>90.0</ele><time>2026-03-28T10:52:01.149Z</time></trkpt><trkpt lat="46.0759083" lon="12.9296917"><ele>90.0</ele><time>2026-03-28T10:52:02.148Z</time></trkpt><trkpt lat="46.0759717" lon="12.9296383"><ele>90.0</ele><time>2026-03-28T10:52:03.148Z</time></trkpt><trkpt lat="46.0760183" lon="12.9295717"><ele>90.0</ele><time>2026-03-28T10:52:04.148Z</time></trkpt><trkpt lat="46.0760883" lon="12.9294767"><ele>90.0</ele><time>2026-03-28T10:52:06.149Z</time></trkpt><trkpt lat="46.0761433" lon="12.9293883"><ele>90.0</ele><time>2026-03-28T10:52:15.148Z</time></trkpt><trkpt lat="46.0760917" lon="12.929305"><ele>90.0</ele><time>2026-03-28T10:52:18.148Z</time></trkpt><trkpt lat="46.0759833" lon="12.92922"><ele>90.0</ele><time>2026-03-28T10:52:20.149Z</time></trkpt><trkpt lat="46.0758867" lon="12.9291683"><ele>90.0</ele><time>2026-03-28T10:52:22.149Z</time></trkpt><trkpt lat="46.0758367" lon="12.9291067"><ele>90.0</ele><time>2026-03-28T10:52:24.148Z</time></trkpt><trkpt lat="46.0758217" lon="12.92897"><ele>90.0</ele><time>2026-03-28T10:52:26.148Z</time></trkpt><trkpt lat="46.075805" lon="12.9288617"><ele>90.0</ele><time>2026-03-28T10:52:28.148Z</time></trkpt><trkpt lat="46.0757433" lon="12.928835"><ele>90.0</ele><time>2026-03-28T10:52:30.148Z</time></trkpt><trkpt lat="46.0756083" lon="12.9288367"><ele>90.0</ele><time>2026-03-28T10:52:32.148Z</time></trkpt><trkpt lat="46.0755283" lon="12.9288267"><ele>90.0</ele><time>2026-03-28T10:52:33.148Z</time></trkpt><trkpt lat="46.0754583" lon="12.9288267"><ele>90.0</ele><time>2026-03-28T10:52:34.149Z</time></trkpt><trkpt lat="46.07535" lon="12.92883"><ele>90.0</ele><time>2026-03-28T10:52:36.148Z</time></trkpt><trkpt lat="46.075265" lon="12.9288033"><ele>90.0</ele><time>2026-03-28T10:52:38.148Z</time></trkpt><trkpt lat="46.075165" lon="12.9287183"><ele>90.0</ele><time>2026-03-28T10:52:40.148Z</time></trkpt><trkpt lat="46.0751033" lon="12.9286633"><ele>90.0</ele><time>2026-03-28T10:52:41.149Z</time></trkpt><trkpt lat="46.0750517" lon="12.9286017"><ele>90.0</ele><time>2026-03-28T10:52:42.148Z</time></trkpt><trkpt lat="46.0750033" lon="12.92852"><ele>90.0</ele><time>2026-03-28T10:52:43.148Z</time></trkpt><trkpt lat="46.0749517" lon="12.9284183"><ele>90.16666666666667</ele><time>2026-03-28T10:52:44.148Z</time></trkpt><trkpt lat="46.0749183" lon="12.9282967"><ele>90.33333333333333</ele><time>2026-03-28T10:52:45.149Z</time></trkpt><trkpt lat="46.074895" lon="12.9281933"><ele>90.5</ele><time>2026-03-28T10:52:46.148Z</time></trkpt><trkpt lat="46.074855" lon="12.9280583"><ele>90.66666666666666</ele><time>2026-03-28T10:52:48.148Z</time></trkpt><trkpt lat="46.07482" lon="12.927945"><ele>90.83333333333333</ele><time>2026-03-28T10:52:52.148Z</time></trkpt><trkpt lat="46.0748167" lon="12.9278467"><ele>91.0</ele><time>2026-03-28T10:52:54.148Z</time></trkpt><trkpt lat="46.074805" lon="12.9277283"><ele>91.0</ele><time>2026-03-28T10:52:56.148Z</time></trkpt><trkpt lat="46.0747567" lon="12.9276183"><ele>91.0</ele><time>2026-03-28T10:52:58.148Z</time></trkpt><trkpt lat="46.07472" lon="12.9275317"><ele>91.0</ele><time>2026-03-28T10:53:01.148Z</time></trkpt><trkpt lat="46.074765" lon="12.927465"><ele>91.0</ele><time>2026-03-28T10:53:11.149Z</time></trkpt><trkpt lat="46.0748183" lon="12.92753"><ele>91.0</ele><time>2026-03-28T10:53:15.148Z</time></trkpt><trkpt lat="46.0748383" lon="12.9276467"><ele>91.0</ele><time>2026-03-28T10:53:20.149Z</time></trkpt><trkpt lat="46.0748383" lon="12.9277433"><ele>91.0</ele><time>2026-03-28T10:53:23.148Z</time></trkpt><trkpt lat="46.074815" lon="12.9278633"><ele>91.0</ele><time>2026-03-28T10:53:26.148Z</time></trkpt><trkpt lat="46.07483" lon="12.9279567"><ele>91.0</ele><time>2026-03-28T10:53:28.148Z</time></trkpt><trkpt lat="46.0749033" lon="12.9279167"><ele>91.0</ele><time>2026-03-28T10:53:31.148Z</time></trkpt><trkpt lat="46.0749183" lon="12.9278183"><ele>91.0</ele><time>2026-03-28T10:53:33.148Z</time></trkpt><trkpt lat="46.0749217" lon="12.9277"><ele>91.0</ele><time>2026-03-28T10:53:35.148Z</time></trkpt><trkpt lat="46.0749317" lon="12.927605"><ele>91.0</ele><time>2026-03-28T10:53:37.148Z</time></trkpt><trkpt lat="46.0749883" lon="12.9275383"><ele>91.0</ele><time>2026-03-28T10:53:43.148Z</time></trkpt><trkpt lat="46.0750683" lon="12.9275667"><ele>91.0</ele><time>2026-03-28T10:53:46.148Z</time></trkpt><trkpt lat="46.07513" lon="12.927595"><ele>91.0</ele><time>2026-03-28T10:53:53.147Z</time></trkpt><trkpt lat="46.075225" lon="12.9276417"><ele>91.0</ele><time>2026-03-28T10:53:55.148Z</time></trkpt><trkpt lat="46.0752867" lon="12.9276683"><ele>91.0</ele><time>2026-03-28T10:53:56.147Z</time></trkpt><trkpt lat="46.07535" lon="12.927695"><ele>91.0</ele><time>2026-03-28T10:53:57.147Z</time></trkpt><trkpt lat="46.0754467" lon="12.9277433"><ele>91.0</ele><time>2026-03-28T10:53:59.147Z</time></trkpt><trkpt lat="46.07553" lon="12.927785"><ele>91.0</ele><time>2026-03-28T10:54:01.147Z</time></trkpt><trkpt lat="46.0756017" lon="12.9277617"><ele>91.0</ele><time>2026-03-28T10:54:03.147Z</time></trkpt><trkpt lat="46.0756633" lon="12.9276967"><ele>91.0</ele><time>2026-03-28T10:54:06.148Z</time></trkpt><trkpt lat="46.0756883" lon="12.92761"><ele>91.0</ele><time>2026-03-28T10:54:08.147Z</time></trkpt><trkpt lat="46.0757383" lon="12.9275283"><ele>91.0</ele><time>2026-03-28T10:54:11.147Z</time></trkpt><trkpt lat="46.075815" lon="12.92751"><ele>91.0</ele><time>2026-03-28T10:54:48.147Z</time></trkpt><trkpt lat="46.0759333" lon="12.9274883"><ele>90.83333333333333</ele><time>2026-03-28T10:54:50.147Z</time></trkpt><trkpt lat="46.075995" lon="12.9274633"><ele>90.66666666666666</ele><time>2026-03-28T10:54:51.147Z</time></trkpt><trkpt lat="46.076055" lon="12.9274333"><ele>90.5</ele><time>2026-03-28T10:54:52.147Z</time></trkpt><trkpt lat="46.07615" lon="12.9273817"><ele>90.33333333333333</ele><time>2026-03-28T10:54:54.147Z</time></trkpt><trkpt lat="46.0762233" lon="12.9273483"><ele>90.16666666666667</ele><time>2026-03-28T10:54:56.147Z</time></trkpt><trkpt lat="46.07629" lon="12.927285"><ele>90.0</ele><time>2026-03-28T10:54:58.148Z</time></trkpt><trkpt lat="46.0763667" lon="12.9272383"><ele>90.0</ele><time>2026-03-28T10:55:00.148Z</time></trkpt><trkpt lat="46.0764617" lon="12.92724"><ele>90.0</ele><time>2026-03-28T10:55:02.147Z</time></trkpt><trkpt lat="46.0765317" lon="12.927265"><ele>90.0</ele><time>2026-03-28T10:55:03.147Z</time></trkpt><trkpt lat="46.0766283" lon="12.9273133"><ele>90.0</ele><time>2026-03-28T10:55:04.147Z</time></trkpt><trkpt lat="46.0767367" lon="12.9273533"><ele>90.0</ele><time>2026-03-28T10:55:05.147Z</time></trkpt><trkpt lat="46.0768317" lon="12.9273883"><ele>90.0</ele><time>2026-03-28T10:55:06.147Z</time></trkpt><trkpt lat="46.0769183" lon="12.9274083"><ele>90.0</ele><time>2026-03-28T10:55:07.148Z</time></trkpt><trkpt lat="46.076995" lon="12.92742"><ele>90.0</ele><time>2026-03-28T10:55:08.147Z</time></trkpt><trkpt lat="46.0771167" lon="12.9274433"><ele>90.0</ele><time>2026-03-28T10:55:10.147Z</time></trkpt><trkpt lat="46.07724" lon="12.92748"><ele>90.0</ele><time>2026-03-28T10:55:12.147Z</time></trkpt><trkpt lat="46.0773067" lon="12.927495"><ele>90.0</ele><time>2026-03-28T10:55:13.147Z</time></trkpt><trkpt lat="46.0773817" lon="12.927505"><ele>90.0</ele><time>2026-03-28T10:55:14.148Z</time></trkpt><trkpt lat="46.077455" lon="12.927515"><ele>90.0</ele><time>2026-03-28T10:55:15.147Z</time></trkpt><trkpt lat="46.077525" lon="12.9275167"><ele>90.0</ele><time>2026-03-28T10:55:16.148Z</time></trkpt><trkpt lat="46.07764" lon="12.927545"><ele>90.0</ele><time>2026-03-28T10:55:18.148Z</time></trkpt><trkpt lat="46.0777433" lon="12.927555"><ele>90.0</ele><time>2026-03-28T10:55:20.147Z</time></trkpt><trkpt lat="46.07785" lon="12.9275233"><ele>90.0</ele><time>2026-03-28T10:55:22.148Z</time></trkpt><trkpt lat="46.07798" lon="12.92752"><ele>90.0</ele><time>2026-03-28T10:55:24.148Z</time></trkpt><trkpt lat="46.0780683" lon="12.9275267"><ele>90.0</ele><time>2026-03-28T10:55:25.147Z</time></trkpt><trkpt lat="46.078165" lon="12.9275367"><ele>90.0</ele><time>2026-03-28T10:55:26.147Z</time></trkpt><trkpt lat="46.0782533" lon="12.92756"><ele>90.0</ele><time>2026-03-28T10:55:27.147Z</time></trkpt><trkpt lat="46.0783383" lon="12.9275767"><ele>90.0</ele><time>2026-03-28T10:55:28.147Z</time></trkpt><trkpt lat="46.0784217" lon="12.927595"><ele>90.0</ele><time>2026-03-28T10:55:29.147Z</time></trkpt><trkpt lat="46.0785067" lon="12.9276117"><ele>90.0</ele><time>2026-03-28T10:55:30.148Z</time></trkpt><trkpt lat="46.0785817" lon="12.9276283"><ele>90.0</ele><time>2026-03-28T10:55:31.148Z</time></trkpt><trkpt lat="46.0786583" lon="12.9276417"><ele>90.0</ele><time>2026-03-28T10:55:32.147Z</time></trkpt><trkpt lat="46.0787267" lon="12.9276667"><ele>90.0</ele><time>2026-03-28T10:55:33.147Z</time></trkpt><trkpt lat="46.078795" lon="12.9276883"><ele>90.0</ele><time>2026-03-28T10:55:34.147Z</time></trkpt><trkpt lat="46.0788633" lon="12.9277167"><ele>90.0</ele><time>2026-03-28T10:55:35.147Z</time></trkpt><trkpt lat="46.0789333" lon="12.9277467"><ele>90.0</ele><time>2026-03-28T10:55:36.147Z</time></trkpt><trkpt lat="46.079" lon="12.9277717"><ele>90.0</ele><time>2026-03-28T10:55:37.147Z</time></trkpt><trkpt lat="46.0790733" lon="12.927795"><ele>90.0</ele><time>2026-03-28T10:55:38.147Z</time></trkpt><trkpt lat="46.079145" lon="12.9278217"><ele>90.0</ele><time>2026-03-28T10:55:39.147Z</time></trkpt><trkpt lat="46.0792133" lon="12.9278433"><ele>90.0</ele><time>2026-03-28T10:55:40.147Z</time></trkpt><trkpt lat="46.0792883" lon="12.92786"><ele>90.0</ele><time>2026-03-28T10:55:41.148Z</time></trkpt><trkpt lat="46.079355" lon="12.927875"><ele>90.0</ele><time>2026-03-28T10:55:42.147Z</time></trkpt><trkpt lat="46.07942" lon="12.92789"><ele>90.0</ele><time>2026-03-28T10:55:43.147Z</time></trkpt><trkpt lat="46.0794883" lon="12.9279083"><ele>90.0</ele><time>2026-03-28T10:55:44.148Z</time></trkpt><trkpt lat="46.0795583" lon="12.9279317"><ele>90.0</ele><time>2026-03-28T10:55:45.147Z</time></trkpt><trkpt lat="46.0796317" lon="12.9279567"><ele>90.0</ele><time>2026-03-28T10:55:46.148Z</time></trkpt><trkpt lat="46.0797133" lon="12.927985"><ele>90.0</ele><time>2026-03-28T10:55:47.147Z</time></trkpt><trkpt lat="46.0797917" lon="12.9280167"><ele>90.0</ele><time>2026-03-28T10:55:48.148Z</time></trkpt><trkpt lat="46.0798667" lon="12.9280517"><ele>90.0</ele><time>2026-03-28T10:55:49.147Z</time></trkpt><trkpt lat="46.0799383" lon="12.92809"><ele>90.0</ele><time>2026-03-28T10:55:50.147Z</time></trkpt><trkpt lat="46.08" lon="12.9281367"><ele>90.0</ele><time>2026-03-28T10:55:51.147Z</time></trkpt><trkpt lat="46.0800667" lon="12.9281717"><ele>90.0</ele><time>2026-03-28T10:55:52.147Z</time></trkpt><trkpt lat="46.0801367" lon="12.9281933"><ele>90.0</ele><time>2026-03-28T10:55:53.147Z</time></trkpt><trkpt lat="46.080205" lon="12.92822"><ele>90.0</ele><time>2026-03-28T10:55:54.147Z</time></trkpt><trkpt lat="46.0802767" lon="12.9282417"><ele>90.14285714285714</ele><time>2026-03-28T10:55:55.147Z</time></trkpt><trkpt lat="46.0803517" lon="12.9282767"><ele>90.28571428571429</ele><time>2026-03-28T10:55:56.148Z</time></trkpt><trkpt lat="46.08042" lon="12.9283133"><ele>90.42857142857143</ele><time>2026-03-28T10:55:57.147Z</time></trkpt><trkpt lat="46.08049" lon="12.928345"><ele>90.57142857142857</ele><time>2026-03-28T10:55:58.147Z</time></trkpt><trkpt lat="46.080555" lon="12.9283783"><ele>90.71428571428572</ele><time>2026-03-28T10:55:59.147Z</time></trkpt><trkpt lat="46.08062" lon="12.9284117"><ele>90.85714285714286</ele><time>2026-03-28T10:56:00.147Z</time></trkpt><trkpt lat="46.0806883" lon="12.92846"><ele>91.0</ele><time>2026-03-28T10:56:01.147Z</time></trkpt><trkpt lat="46.0807633" lon="12.9285217"><ele>91.4</ele><time>2026-03-28T10:56:02.147Z</time></trkpt><trkpt lat="46.0808467" lon="12.928585"><ele>91.8</ele><time>2026-03-28T10:56:03.147Z</time></trkpt><trkpt lat="46.08094" lon="12.9286383"><ele>92.2</ele><time>2026-03-28T10:56:04.147Z</time></trkpt><trkpt lat="46.08103" lon="12.9286783"><ele>92.60000000000001</ele><time>2026-03-28T10:56:05.147Z</time></trkpt><trkpt lat="46.0811133" lon="12.928715"><ele>93.0</ele><time>2026-03-28T10:56:06.147Z</time></trkpt><trkpt lat="46.0811883" lon="12.92876"><ele>93.0</ele><time>2026-03-28T10:56:07.147Z</time></trkpt><trkpt lat="46.0812683" lon="12.9288"><ele>93.0</ele><time>2026-03-28T10:56:08.147Z</time></trkpt><trkpt lat="46.081345" lon="12.928845"><ele>93.0</ele><time>2026-03-28T10:56:09.147Z</time></trkpt><trkpt lat="46.081415" lon="12.9288983"><ele>93.0</ele><time>2026-03-28T10:56:10.147Z</time></trkpt><trkpt lat="46.0814767" lon="12.9289467"><ele>93.0</ele><time>2026-03-28T10:56:11.147Z</time></trkpt><trkpt lat="46.081545" lon="12.92907"><ele>93.0</ele><time>2026-03-28T10:56:13.148Z</time></trkpt><trkpt lat="46.0816183" lon="12.9292033"><ele>93.0</ele><time>2026-03-28T10:56:15.147Z</time></trkpt><trkpt lat="46.08174" lon="12.9292633"><ele>93.0</ele><time>2026-03-28T10:56:17.147Z</time></trkpt><trkpt lat="46.0818083" lon="12.9292717"><ele>93.0</ele><time>2026-03-28T10:56:18.148Z</time></trkpt><trkpt lat="46.0818783" lon="12.9292667"><ele>93.0</ele><time>2026-03-28T10:56:19.147Z</time></trkpt><trkpt lat="46.0819933" lon="12.9292767"><ele>93.0</ele><time>2026-03-28T10:56:21.147Z</time></trkpt><trkpt lat="46.0820567" lon="12.9293067"><ele>93.0</ele><time>2026-03-28T10:56:22.147Z</time></trkpt><trkpt lat="46.082125" lon="12.929355"><ele>93.0</ele><time>2026-03-28T10:56:23.147Z</time></trkpt><trkpt lat="46.08219" lon="12.9294067"><ele>93.0</ele><time>2026-03-28T10:56:24.148Z</time></trkpt><trkpt lat="46.0822533" lon="12.9294517"><ele>93.0</ele><time>2026-03-28T10:56:25.147Z</time></trkpt><trkpt lat="46.0823117" lon="12.9294917"><ele>93.0</ele><time>2026-03-28T10:56:26.147Z</time></trkpt><trkpt lat="46.0824017" lon="12.929565"><ele>93.0</ele><time>2026-03-28T10:56:28.147Z</time></trkpt><trkpt lat="46.0824733" lon="12.9296483"><ele>93.0</ele><time>2026-03-28T10:56:30.147Z</time></trkpt><trkpt lat="46.082505" lon="12.9297433"><ele>92.80000000000001</ele><time>2026-03-28T10:56:32.147Z</time></trkpt><trkpt lat="46.0825" lon="12.9299117"><ele>92.6</ele><time>2026-03-28T10:56:34.148Z</time></trkpt><trkpt lat="46.0825017" lon="12.9300383"><ele>92.4</ele><time>2026-03-28T10:56:35.147Z</time></trkpt><trkpt lat="46.0825067" lon="12.9301633"><ele>92.19999999999999</ele><time>2026-03-28T10:56:36.148Z</time></trkpt><trkpt lat="46.0825133" lon="12.930285"><ele>92.0</ele><time>2026-03-28T10:56:37.147Z</time></trkpt><trkpt lat="46.0825233" lon="12.9304017"><ele>92.0</ele><time>2026-03-28T10:56:38.147Z</time></trkpt><trkpt lat="46.08253" lon="12.9305183"><ele>92.0</ele><time>2026-03-28T10:56:39.147Z</time></trkpt><trkpt lat="46.0825383" lon="12.9306333"><ele>92.0</ele><time>2026-03-28T10:56:40.148Z</time></trkpt><trkpt lat="46.0825567" lon="12.9307517"><ele>92.0</ele><time>2026-03-28T10:56:41.147Z</time></trkpt><trkpt lat="46.08258" lon="12.9308667"><ele>92.0</ele><time>2026-03-28T10:56:42.147Z</time></trkpt><trkpt lat="46.0826" lon="12.9309867"><ele>92.0</ele><time>2026-03-28T10:56:43.148Z</time></trkpt><trkpt lat="46.0826167" lon="12.9311117"><ele>92.19999999999999</ele><time>2026-03-28T10:56:44.147Z</time></trkpt><trkpt lat="46.0826467" lon="12.9312517"><ele>92.4</ele><time>2026-03-28T10:56:45.147Z</time></trkpt><trkpt lat="46.0826783" lon="12.9313983"><ele>92.6</ele><time>2026-03-28T10:56:46.148Z</time></trkpt><trkpt lat="46.082705" lon="12.9315317"><ele>92.80000000000001</ele><time>2026-03-28T10:56:47.147Z</time></trkpt><trkpt lat="46.08273" lon="12.931655"><ele>93.0</ele><time>2026-03-28T10:56:48.147Z</time></trkpt><trkpt lat="46.0827567" lon="12.9317867"><ele>93.0</ele><time>2026-03-28T10:56:49.147Z</time></trkpt><trkpt lat="46.0827867" lon="12.9319233"><ele>93.0</ele><time>2026-03-28T10:56:50.147Z</time></trkpt><trkpt lat="46.0828156" lon="12.9320746"><ele>93.0</ele><time>2026-03-28T10:56:51.147Z</time></trkpt><trkpt lat="46.082845" lon="12.9322208"><ele>93.0</ele><time>2026-03-28T10:56:52.148Z</time></trkpt><trkpt lat="46.0828735" lon="12.9323619"><ele>93.0</ele><time>2026-03-28T10:56:53.147Z</time></trkpt><trkpt lat="46.0829106" lon="12.932512"><ele>92.5</ele><time>2026-03-28T10:56:54.148Z</time></trkpt><trkpt lat="46.0829465" lon="12.9326813"><ele>92.0</ele><time>2026-03-28T10:56:55.147Z</time></trkpt><trkpt lat="46.0829776" lon="12.9328749"><ele>91.5</ele><time>2026-03-28T10:56:56.147Z</time></trkpt><trkpt lat="46.0830052" lon="12.9330928"><ele>91.0</ele><time>2026-03-28T10:56:57.147Z</time></trkpt><trkpt lat="46.0830335" lon="12.9333465"><ele>91.66666666666666</ele><time>2026-03-28T10:56:58.147Z</time></trkpt><trkpt lat="46.08306" lon="12.9336018"><ele>92.33333333333333</ele><time>2026-03-28T10:56:59.147Z</time></trkpt><trkpt lat="46.0830819" lon="12.9338348"><ele>93.0</ele><time>2026-03-28T10:57:00.147Z</time></trkpt><trkpt lat="46.0831075" lon="12.934047"><ele>94.25</ele><time>2026-03-28T10:57:01.147Z</time></trkpt><trkpt lat="46.0831307" lon="12.9342299"><ele>95.5</ele><time>2026-03-28T10:57:02.147Z</time></trkpt><trkpt lat="46.0831683" lon="12.9343687"><ele>96.75</ele><time>2026-03-28T10:57:03.148Z</time></trkpt><trkpt lat="46.0832342" lon="12.9344841"><ele>98.0</ele><time>2026-03-28T10:57:04.147Z</time></trkpt><trkpt lat="46.0833317" lon="12.9345776"><ele>98.2</ele><time>2026-03-28T10:57:05.148Z</time></trkpt><trkpt lat="46.083446" lon="12.93465"><ele>98.4</ele><time>2026-03-28T10:57:06.147Z</time></trkpt><trkpt lat="46.0835522" lon="12.9347132"><ele>98.60000000000001</ele><time>2026-03-28T10:57:07.147Z</time></trkpt><trkpt lat="46.0836355" lon="12.9347937"><ele>98.80000000000001</ele><time>2026-03-28T10:57:08.147Z</time></trkpt><trkpt lat="46.083687" lon="12.9348903"><ele>99.0</ele><time>2026-03-28T10:57:09.147Z</time></trkpt><trkpt lat="46.0837202" lon="12.9350136"><ele>100.75</ele><time>2026-03-28T10:57:10.147Z</time></trkpt><trkpt lat="46.0837445" lon="12.9351637"><ele>102.5</ele><time>2026-03-28T10:57:11.147Z</time></trkpt><trkpt lat="46.0837701" lon="12.9353369"><ele>104.25</ele><time>2026-03-28T10:57:12.147Z</time></trkpt><trkpt lat="46.0838055" lon="12.9354967"><ele>106.0</ele><time>2026-03-28T10:57:13.147Z</time></trkpt><trkpt lat="46.083868" lon="12.9356223"><ele>106.0</ele><time>2026-03-28T10:57:14.147Z</time></trkpt><trkpt lat="46.0839501" lon="12.9357177"><ele>106.0</ele><time>2026-03-28T10:57:15.147Z</time></trkpt><trkpt lat="46.0840428" lon="12.9357936"><ele>106.0</ele><time>2026-03-28T10:57:16.148Z</time></trkpt><trkpt lat="46.0841301" lon="12.935849"><ele>106.0</ele><time>2026-03-28T10:57:17.147Z</time></trkpt><trkpt lat="46.0842073" lon="12.9359028"><ele>106.0</ele><time>2026-03-28T10:57:18.147Z</time></trkpt><trkpt lat="46.0842796" lon="12.9359635"><ele>106.66666666666667</ele><time>2026-03-28T10:57:19.147Z</time></trkpt><trkpt lat="46.0843427" lon="12.9360442"><ele>107.33333333333334</ele><time>2026-03-28T10:57:20.147Z</time></trkpt><trkpt lat="46.0844097" lon="12.936135"><ele>108.0</ele><time>2026-03-28T10:57:21.148Z</time></trkpt><trkpt lat="46.0844818" lon="12.9362193"><ele>108.66666666666666</ele><time>2026-03-28T10:57:22.147Z</time></trkpt><trkpt lat="46.0845457" lon="12.9362845"><ele>109.33333333333333</ele><time>2026-03-28T10:57:23.148Z</time></trkpt><trkpt lat="46.0846033" lon="12.9363337"><ele>110.0</ele><time>2026-03-28T10:57:24.148Z</time></trkpt><trkpt lat="46.0846888" lon="12.9364212"><ele>109.99999999999999</ele><time>2026-03-28T10:57:26.147Z</time></trkpt><trkpt lat="46.0847408" lon="12.9364828"><ele>110.0</ele><time>2026-03-28T10:57:27.147Z</time></trkpt><trkpt lat="46.0847938" lon="12.9365593"><ele>110.0</ele><time>2026-03-28T10:57:28.147Z</time></trkpt><trkpt lat="46.0848384" lon="12.9366445"><ele>110.0</ele><time>2026-03-28T10:57:29.147Z</time></trkpt><trkpt lat="46.0848795" lon="12.9367297"><ele>110.0</ele><time>2026-03-28T10:57:30.147Z</time></trkpt><trkpt lat="46.0849168" lon="12.9368193"><ele>109.99999999999999</ele><time>2026-03-28T10:57:31.148Z</time></trkpt><trkpt lat="46.0849519" lon="12.9369139"><ele>110.0</ele><time>2026-03-28T10:57:32.148Z</time></trkpt><trkpt lat="46.084974" lon="12.9370032"><ele>110.49999999999999</ele><time>2026-03-28T10:57:33.147Z</time></trkpt><trkpt lat="46.0849898" lon="12.9370992"><ele>111.0</ele><time>2026-03-28T10:57:34.148Z</time></trkpt><trkpt lat="46.0849932" lon="12.9371924"><ele>111.5</ele><time>2026-03-28T10:57:35.147Z</time></trkpt><trkpt lat="46.084985" lon="12.93736"><ele>112.0</ele><time>2026-03-28T10:57:37.147Z</time></trkpt><trkpt lat="46.084985" lon="12.9375067"><ele>112.49999999999999</ele><time>2026-03-28T10:57:39.148Z</time></trkpt><trkpt lat="46.0849783" lon="12.9376267"><ele>113.0</ele><time>2026-03-28T10:57:41.148Z</time></trkpt><trkpt lat="46.0849683" lon="12.9377333"><ele>113.0</ele><time>2026-03-28T10:57:43.148Z</time></trkpt></trkseg><trkseg><trkpt lat="46.0852333" lon="12.9378817"><ele>112.99999999999999</ele><time>2026-03-28T11:19:18.154Z</time></trkpt><trkpt lat="46.0851833" lon="12.9379867"><ele>113.0</ele><time>2026-03-28T11:19:20.154Z</time></trkpt><trkpt lat="46.0852067" lon="12.9380767"><ele>113.0</ele><time>2026-03-28T11:19:23.154Z</time></trkpt><trkpt lat="46.085295" lon="12.938035"><ele>113.0</ele><time>2026-03-28T11:19:27.154Z</time></trkpt><trkpt lat="46.085395" lon="12.9379617"><ele>112.99999999999999</ele><time>2026-03-28T11:19:29.154Z</time></trkpt><trkpt lat="46.0854533" lon="12.9378983"><ele>113.0</ele><time>2026-03-28T11:19:30.155Z</time></trkpt><trkpt lat="46.0855033" lon="12.93783"><ele>112.99999999999999</ele><time>2026-03-28T11:19:31.154Z</time></trkpt><trkpt lat="46.0855533" lon="12.9377667"><ele>113.0</ele><time>2026-03-28T11:19:32.154Z</time></trkpt><trkpt lat="46.0856517" lon="12.9376767"><ele>113.0</ele><time>2026-03-28T11:19:34.154Z</time></trkpt><trkpt lat="46.085715" lon="12.93766"><ele>113.0</ele><time>2026-03-28T11:19:35.154Z</time></trkpt><trkpt lat="46.0857817" lon="12.937655"><ele>112.99999999999999</ele><time>2026-03-28T11:19:36.154Z</time></trkpt><trkpt lat="46.0858567" lon="12.9376683"><ele>113.0</ele><time>2026-03-28T11:19:37.154Z</time></trkpt><trkpt lat="46.0859367" lon="12.9376883"><ele>113.0</ele><time>2026-03-28T11:19:38.154Z</time></trkpt><trkpt lat="46.08603" lon="12.93771"><ele>113.00000000000001</ele><time>2026-03-28T11:19:39.154Z</time></trkpt><trkpt lat="46.08612" lon="12.9377417"><ele>113.00000000000001</ele><time>2026-03-28T11:19:40.154Z</time></trkpt><trkpt lat="46.0862117" lon="12.9377667"><ele>113.0</ele><time>2026-03-28T11:19:41.154Z</time></trkpt><trkpt lat="46.0863" lon="12.9377933"><ele>113.0</ele><time>2026-03-28T11:19:42.154Z</time></trkpt><trkpt lat="46.08639" lon="12.9378217"><ele>113.0</ele><time>2026-03-28T11:19:43.154Z</time></trkpt><trkpt lat="46.0864683" lon="12.93786"><ele>113.00000000000001</ele><time>2026-03-28T11:19:44.155Z</time></trkpt><trkpt lat="46.08656" lon="12.937905"><ele>113.00000000000001</ele><time>2026-03-28T11:19:45.154Z</time></trkpt><trkpt lat="46.0866583" lon="12.937945"><ele>113.0</ele><time>2026-03-28T11:19:46.154Z</time></trkpt><trkpt lat="46.0867633" lon="12.9379883"><ele>113.0</ele><time>2026-03-28T11:19:47.154Z</time></trkpt><trkpt lat="46.086855" lon="12.9380383"><ele>112.99999999999999</ele><time>2026-03-28T11:19:48.155Z</time></trkpt><trkpt lat="46.0869383" lon="12.9380883"><ele>113.0</ele><time>2026-03-28T11:19:49.154Z</time></trkpt><trkpt lat="46.0870117" lon="12.9381433"><ele>113.0</ele><time>2026-03-28T11:19:50.154Z</time></trkpt><trkpt lat="46.0870867" lon="12.9381967"><ele>113.0</ele><time>2026-03-28T11:19:51.155Z</time></trkpt><trkpt lat="46.0871567" lon="12.93825"><ele>112.99999999999999</ele><time>2026-03-28T11:19:52.154Z</time></trkpt><trkpt lat="46.0872283" lon="12.9383033"><ele>113.0</ele><time>2026-03-28T11:19:53.154Z</time></trkpt><trkpt lat="46.0872933" lon="12.9383583"><ele>112.83333333333333</ele><time>2026-03-28T11:19:54.154Z</time></trkpt><trkpt lat="46.087355" lon="12.93841"><ele>112.66666666666666</ele><time>2026-03-28T11:19:55.154Z</time></trkpt><trkpt lat="46.0874167" lon="12.93846"><ele>112.5</ele><time>2026-03-28T11:19:56.154Z</time></trkpt><trkpt lat="46.0874767" lon="12.9385267"><ele>112.33333333333334</ele><time>2026-03-28T11:19:57.155Z</time></trkpt><trkpt lat="46.087535" lon="12.9386017"><ele>112.16666666666667</ele><time>2026-03-28T11:19:58.154Z</time></trkpt><trkpt lat="46.0875917" lon="12.9386683"><ele>112.0</ele><time>2026-03-28T11:19:59.154Z</time></trkpt><trkpt lat="46.0876617" lon="12.9387267"><ele>112.0</ele><time>2026-03-28T11:20:00.154Z</time></trkpt><trkpt lat="46.0877333" lon="12.93877"><ele>111.99999999999999</ele><time>2026-03-28T11:20:01.154Z</time></trkpt><trkpt lat="46.0878133" lon="12.9388217"><ele>111.99999999999999</ele><time>2026-03-28T11:20:03.154Z</time></trkpt><trkpt lat="46.0879667" lon="12.9388883"><ele>112.0</ele><time>2026-03-28T11:20:11.154Z</time></trkpt><trkpt lat="46.0880817" lon="12.9389333"><ele>112.0</ele><time>2026-03-28T11:20:12.154Z</time></trkpt><trkpt lat="46.088175" lon="12.938985"><ele>112.00000000000001</ele><time>2026-03-28T11:20:13.155Z</time></trkpt><trkpt lat="46.088235" lon="12.9390467"><ele>112.0</ele><time>2026-03-28T11:20:14.155Z</time></trkpt><trkpt lat="46.0882667" lon="12.9391383"><ele>112.0</ele><time>2026-03-28T11:20:15.154Z</time></trkpt><trkpt lat="46.08828" lon="12.939255"><ele>112.0</ele><time>2026-03-28T11:20:16.154Z</time></trkpt><trkpt lat="46.0882817" lon="12.9393883"><ele>112.00000000000001</ele><time>2026-03-28T11:20:17.154Z</time></trkpt><trkpt lat="46.08827" lon="12.939535"><ele>112.0</ele><time>2026-03-28T11:20:18.154Z</time></trkpt><trkpt lat="46.0882517" lon="12.9396767"><ele>111.8</ele><time>2026-03-28T11:20:19.154Z</time></trkpt><trkpt lat="46.0882383" lon="12.9398117"><ele>111.6</ele><time>2026-03-28T11:20:20.154Z</time></trkpt><trkpt lat="46.0882317" lon="12.9399417"><ele>111.39999999999999</ele><time>2026-03-28T11:20:21.154Z</time></trkpt><trkpt lat="46.0882267" lon="12.940075"><ele>111.19999999999999</ele><time>2026-03-28T11:20:22.154Z</time></trkpt><trkpt lat="46.0882183" lon="12.940215"><ele>111.0</ele><time>2026-03-28T11:20:23.154Z</time></trkpt><trkpt lat="46.0882133" lon="12.94036"><ele>111.25</ele><time>2026-03-28T11:20:24.154Z</time></trkpt><trkpt lat="46.0882067" lon="12.9405167"><ele>111.5</ele><time>2026-03-28T11:20:25.154Z</time></trkpt><trkpt lat="46.0882" lon="12.9406883"><ele>111.75</ele><time>2026-03-28T11:20:26.155Z</time></trkpt><trkpt lat="46.088195" lon="12.9408683"><ele>112.0</ele><time>2026-03-28T11:20:27.154Z</time></trkpt><trkpt lat="46.0881867" lon="12.9410483"><ele>112.0</ele><time>2026-03-28T11:20:28.154Z</time></trkpt><trkpt lat="46.0881867" lon="12.9412267"><ele>112.0</ele><time>2026-03-28T11:20:29.154Z</time></trkpt><trkpt lat="46.0882117" lon="12.941405"><ele>112.0</ele><time>2026-03-28T11:20:30.154Z</time></trkpt><trkpt lat="46.08825" lon="12.941585"><ele>112.0</ele><time>2026-03-28T11:20:31.154Z</time></trkpt><trkpt lat="46.0883083" lon="12.9417717"><ele>112.0</ele><time>2026-03-28T11:20:32.154Z</time></trkpt><trkpt lat="46.088365" lon="12.9419667"><ele>112.0</ele><time>2026-03-28T11:20:33.154Z</time></trkpt><trkpt lat="46.0884217" lon="12.9421733"><ele>112.0</ele><time>2026-03-28T11:20:34.154Z</time></trkpt><trkpt lat="46.0884633" lon="12.9423883"><ele>112.66666666666667</ele><time>2026-03-28T11:20:35.154Z</time></trkpt><trkpt lat="46.088485" lon="12.94262"><ele>113.33333333333334</ele><time>2026-03-28T11:20:36.154Z</time></trkpt><trkpt lat="46.08849" lon="12.9428483"><ele>114.0</ele><time>2026-03-28T11:20:37.154Z</time></trkpt><trkpt lat="46.0884867" lon="12.943065"><ele>114.0</ele><time>2026-03-28T11:20:38.154Z</time></trkpt><trkpt lat="46.0884883" lon="12.9432783"><ele>114.0</ele><time>2026-03-28T11:20:39.154Z</time></trkpt><trkpt lat="46.0884967" lon="12.94348"><ele>114.0</ele><time>2026-03-28T11:20:40.154Z</time></trkpt><trkpt lat="46.088505" lon="12.9436683"><ele>114.0</ele><time>2026-03-28T11:20:41.154Z</time></trkpt><trkpt lat="46.088535" lon="12.94384"><ele>114.0</ele><time>2026-03-28T11:20:42.154Z</time></trkpt><trkpt lat="46.0885667" lon="12.9440117"><ele>114.0</ele><time>2026-03-28T11:20:43.155Z</time></trkpt><trkpt lat="46.0886033" lon="12.944165"><ele>114.0</ele><time>2026-03-28T11:20:44.154Z</time></trkpt><trkpt lat="46.08864" lon="12.9443"><ele>114.0</ele><time>2026-03-28T11:20:45.154Z</time></trkpt><trkpt lat="46.0886667" lon="12.9444233"><ele>114.0</ele><time>2026-03-28T11:20:46.154Z</time></trkpt><trkpt lat="46.088695" lon="12.9445267"><ele>113.6</ele><time>2026-03-28T11:20:47.154Z</time></trkpt><trkpt lat="46.0887317" lon="12.9446133"><ele>113.2</ele><time>2026-03-28T11:20:48.154Z</time></trkpt><trkpt lat="46.0888183" lon="12.9447033"><ele>112.79999999999998</ele><time>2026-03-28T11:20:50.154Z</time></trkpt><trkpt lat="46.0888967" lon="12.9447567"><ele>112.39999999999999</ele><time>2026-03-28T11:20:52.154Z</time></trkpt><trkpt lat="46.0889817" lon="12.9448267"><ele>112.0</ele><time>2026-03-28T11:20:54.154Z</time></trkpt><trkpt lat="46.08909" lon="12.94492"><ele>112.0</ele><time>2026-03-28T11:20:56.154Z</time></trkpt><trkpt lat="46.0891883" lon="12.9450217"><ele>111.99999999999999</ele><time>2026-03-28T11:20:58.155Z</time></trkpt><trkpt lat="46.089275" lon="12.94512"><ele>111.99999999999999</ele><time>2026-03-28T11:21:00.154Z</time></trkpt><trkpt lat="46.0893567" lon="12.9452067"><ele>112.0</ele><time>2026-03-28T11:21:02.154Z</time></trkpt><trkpt lat="46.0894183" lon="12.9453183"><ele>112.0</ele><time>2026-03-28T11:21:04.155Z</time></trkpt><trkpt lat="46.08946" lon="12.9454467"><ele>112.19999999999999</ele><time>2026-03-28T11:21:06.155Z</time></trkpt><trkpt lat="46.089505" lon="12.945535"><ele>112.39999999999999</ele><time>2026-03-28T11:21:08.154Z</time></trkpt><trkpt lat="46.0896033" lon="12.9455967"><ele>112.60000000000001</ele><time>2026-03-28T11:21:10.155Z</time></trkpt><trkpt lat="46.0896783" lon="12.9456317"><ele>112.80000000000001</ele><time>2026-03-28T11:21:11.154Z</time></trkpt><trkpt lat="46.0897683" lon="12.9456733"><ele>113.0</ele><time>2026-03-28T11:21:12.155Z</time></trkpt><trkpt lat="46.089865" lon="12.9457183"><ele>113.2</ele><time>2026-03-28T11:21:13.154Z</time></trkpt><trkpt lat="46.089955" lon="12.945765"><ele>113.4</ele><time>2026-03-28T11:21:14.154Z</time></trkpt><trkpt lat="46.0900533" lon="12.9458183"><ele>113.60000000000001</ele><time>2026-03-28T11:21:15.155Z</time></trkpt><trkpt lat="46.090155" lon="12.9458617"><ele>113.80000000000001</ele><time>2026-03-28T11:21:16.154Z</time></trkpt><trkpt lat="46.0902633" lon="12.9458983"><ele>114.0</ele><time>2026-03-28T11:21:17.154Z</time></trkpt><trkpt lat="46.0903667" lon="12.9459333"><ele>114.0</ele><time>2026-03-28T11:21:18.154Z</time></trkpt><trkpt lat="46.0904533" lon="12.9459533"><ele>114.0</ele><time>2026-03-28T11:21:19.154Z</time></trkpt><trkpt lat="46.09053" lon="12.9459667"><ele>114.0</ele><time>2026-03-28T11:21:20.155Z</time></trkpt><trkpt lat="46.0906133" lon="12.94601"><ele>114.0</ele><time>2026-03-28T11:21:21.154Z</time></trkpt><trkpt lat="46.0907033" lon="12.946055"><ele>114.0</ele><time>2026-03-28T11:21:22.155Z</time></trkpt><trkpt lat="46.0908117" lon="12.9461083"><ele>114.0</ele><time>2026-03-28T11:21:23.154Z</time></trkpt><trkpt lat="46.0909517" lon="12.946175"><ele>114.0</ele><time>2026-03-28T11:21:24.154Z</time></trkpt><trkpt lat="46.0910883" lon="12.9462517"><ele>114.0</ele><time>2026-03-28T11:21:25.155Z</time></trkpt><trkpt lat="46.0911983" lon="12.9463233"><ele>114.0</ele><time>2026-03-28T11:21:26.154Z</time></trkpt><trkpt lat="46.09128" lon="12.9463733"><ele>114.0</ele><time>2026-03-28T11:21:27.154Z</time></trkpt><trkpt lat="46.091345" lon="12.9464183"><ele>114.0</ele><time>2026-03-28T11:21:28.154Z</time></trkpt><trkpt lat="46.0914083" lon="12.9464583"><ele>114.0</ele><time>2026-03-28T11:21:29.155Z</time></trkpt><trkpt lat="46.091475" lon="12.9465"><ele>114.0</ele><time>2026-03-28T11:21:30.154Z</time></trkpt><trkpt lat="46.091545" lon="12.946555"><ele>114.0</ele><time>2026-03-28T11:21:31.154Z</time></trkpt><trkpt lat="46.0916233" lon="12.9466217"><ele>114.0</ele><time>2026-03-28T11:21:32.154Z</time></trkpt><trkpt lat="46.091725" lon="12.9467167"><ele>114.25</ele><time>2026-03-28T11:21:33.154Z</time></trkpt><trkpt lat="46.0918333" lon="12.9467983"><ele>114.5</ele><time>2026-03-28T11:21:34.155Z</time></trkpt><trkpt lat="46.0919367" lon="12.9468833"><ele>114.75</ele><time>2026-03-28T11:21:35.154Z</time></trkpt><trkpt lat="46.0920333" lon="12.9469533"><ele>115.0</ele><time>2026-03-28T11:21:36.154Z</time></trkpt><trkpt lat="46.092135" lon="12.94702"><ele>115.0</ele><time>2026-03-28T11:21:37.154Z</time></trkpt><trkpt lat="46.0922433" lon="12.9470767"><ele>115.0</ele><time>2026-03-28T11:21:38.154Z</time></trkpt><trkpt lat="46.0923483" lon="12.9471267"><ele>115.0</ele><time>2026-03-28T11:21:39.154Z</time></trkpt><trkpt lat="46.0924567" lon="12.9471667"><ele>115.0</ele><time>2026-03-28T11:21:40.154Z</time></trkpt><trkpt lat="46.0925667" lon="12.9472"><ele>114.75</ele><time>2026-03-28T11:21:41.155Z</time></trkpt><trkpt lat="46.0926783" lon="12.9472433"><ele>114.5</ele><time>2026-03-28T11:21:42.154Z</time></trkpt><trkpt lat="46.0927917" lon="12.9472883"><ele>114.25</ele><time>2026-03-28T11:21:43.154Z</time></trkpt><trkpt lat="46.0929117" lon="12.947345"><ele>114.0</ele><time>2026-03-28T11:21:44.154Z</time></trkpt><trkpt lat="46.0930283" lon="12.94741"><ele>114.0</ele><time>2026-03-28T11:21:45.154Z</time></trkpt><trkpt lat="46.0931433" lon="12.9474733"><ele>114.0</ele><time>2026-03-28T11:21:46.154Z</time></trkpt><trkpt lat="46.09325" lon="12.9475467"><ele>114.0</ele><time>2026-03-28T11:21:47.154Z</time></trkpt><trkpt lat="46.0933617" lon="12.9476283"><ele>114.0</ele><time>2026-03-28T11:21:48.154Z</time></trkpt><trkpt lat="46.0934733" lon="12.9477117"><ele>114.0</ele><time>2026-03-28T11:21:49.154Z</time></trkpt><trkpt lat="46.0935717" lon="12.94779"><ele>114.0</ele><time>2026-03-28T11:21:50.154Z</time></trkpt><trkpt lat="46.0936683" lon="12.9478733"><ele>114.0</ele><time>2026-03-28T11:21:51.155Z</time></trkpt><trkpt lat="46.0937717" lon="12.94796"><ele>114.0</ele><time>2026-03-28T11:21:52.154Z</time></trkpt><trkpt lat="46.0938767" lon="12.948055"><ele>114.0</ele><time>2026-03-28T11:21:53.154Z</time></trkpt><trkpt lat="46.093975" lon="12.9481467"><ele>114.0</ele><time>2026-03-28T11:21:54.154Z</time></trkpt><trkpt lat="46.09407" lon="12.9482283"><ele>114.0</ele><time>2026-03-28T11:21:55.155Z</time></trkpt><trkpt lat="46.0941517" lon="12.9483033"><ele>114.0</ele><time>2026-03-28T11:21:56.155Z</time></trkpt><trkpt lat="46.09421" lon="12.9483617"><ele>114.0</ele><time>2026-03-28T11:21:57.155Z</time></trkpt><trkpt lat="46.09429" lon="12.9484633"><ele>114.2</ele><time>2026-03-28T11:21:59.154Z</time></trkpt><trkpt lat="46.0943417" lon="12.948555"><ele>114.4</ele><time>2026-03-28T11:22:01.155Z</time></trkpt><trkpt lat="46.0944" lon="12.9486783"><ele>114.6</ele><time>2026-03-28T11:22:03.154Z</time></trkpt><trkpt lat="46.0944667" lon="12.9488117"><ele>114.8</ele><time>2026-03-28T11:22:05.154Z</time></trkpt><trkpt lat="46.0945283" lon="12.9489417"><ele>115.0</ele><time>2026-03-28T11:22:07.155Z</time></trkpt><trkpt lat="46.0945933" lon="12.9490433"><ele>115.00000000000001</ele><time>2026-03-28T11:22:09.155Z</time></trkpt><trkpt lat="46.094665" lon="12.9491083"><ele>115.0</ele><time>2026-03-28T11:22:11.155Z</time></trkpt><trkpt lat="46.0947567" lon="12.9491783"><ele>115.0</ele><time>2026-03-28T11:22:13.154Z</time></trkpt><trkpt lat="46.0948167" lon="12.9492183"><ele>115.0</ele><time>2026-03-28T11:22:14.155Z</time></trkpt><trkpt lat="46.0948867" lon="12.9492483"><ele>115.00000000000001</ele><time>2026-03-28T11:22:15.154Z</time></trkpt><trkpt lat="46.0949633" lon="12.94927"><ele>115.0</ele><time>2026-03-28T11:22:16.154Z</time></trkpt><trkpt lat="46.095035" lon="12.9493133"><ele>115.6</ele><time>2026-03-28T11:22:17.154Z</time></trkpt><trkpt lat="46.0951067" lon="12.94935"><ele>116.2</ele><time>2026-03-28T11:22:18.155Z</time></trkpt><trkpt lat="46.09519" lon="12.9493867"><ele>116.80000000000001</ele><time>2026-03-28T11:22:19.154Z</time></trkpt><trkpt lat="46.0952783" lon="12.949435"><ele>117.4</ele><time>2026-03-28T11:22:20.155Z</time></trkpt><trkpt lat="46.0953717" lon="12.9494967"><ele>118.0</ele><time>2026-03-28T11:22:21.154Z</time></trkpt><trkpt lat="46.0954717" lon="12.9495683"><ele>118.00000000000001</ele><time>2026-03-28T11:22:22.155Z</time></trkpt><trkpt lat="46.0955717" lon="12.9496433"><ele>118.0</ele><time>2026-03-28T11:22:23.155Z</time></trkpt><trkpt lat="46.0956567" lon="12.9497167"><ele>118.0</ele><time>2026-03-28T11:22:24.154Z</time></trkpt><trkpt lat="46.095725" lon="12.94979"><ele>118.0</ele><time>2026-03-28T11:22:25.155Z</time></trkpt><trkpt lat="46.0957817" lon="12.9498483"><ele>118.00000000000001</ele><time>2026-03-28T11:22:26.154Z</time></trkpt><trkpt lat="46.09582" lon="12.949925"><ele>118.0</ele><time>2026-03-28T11:22:27.154Z</time></trkpt><trkpt lat="46.09585" lon="12.950025"><ele>118.4</ele><time>2026-03-28T11:22:28.154Z</time></trkpt><trkpt lat="46.0958617" lon="12.9501717"><ele>118.80000000000001</ele><time>2026-03-28T11:22:29.155Z</time></trkpt><trkpt lat="46.0958533" lon="12.9503433"><ele>119.2</ele><time>2026-03-28T11:22:30.154Z</time></trkpt><trkpt lat="46.0958367" lon="12.9504967"><ele>119.6</ele><time>2026-03-28T11:22:31.154Z</time></trkpt><trkpt lat="46.09581" lon="12.95061"><ele>120.0</ele><time>2026-03-28T11:22:32.154Z</time></trkpt><trkpt lat="46.0957733" lon="12.9506967"><ele>119.83333333333333</ele><time>2026-03-28T11:22:34.154Z</time></trkpt><trkpt lat="46.09571" lon="12.9507833"><ele>119.66666666666666</ele><time>2026-03-28T11:22:41.154Z</time></trkpt><trkpt lat="46.0956583" lon="12.95086"><ele>119.5</ele><time>2026-03-28T11:22:43.154Z</time></trkpt><trkpt lat="46.0955917" lon="12.9509917"><ele>119.33333333333333</ele><time>2026-03-28T11:22:45.154Z</time></trkpt><trkpt lat="46.095575" lon="12.9511133"><ele>119.16666666666666</ele><time>2026-03-28T11:22:47.153Z</time></trkpt><trkpt lat="46.0956233" lon="12.9511867"><ele>119.0</ele><time>2026-03-28T11:22:49.153Z</time></trkpt><trkpt lat="46.0957083" lon="12.9512033"><ele>119.4</ele><time>2026-03-28T11:22:51.153Z</time></trkpt><trkpt lat="46.0957817" lon="12.9511883"><ele>119.80000000000001</ele><time>2026-03-28T11:22:52.154Z</time></trkpt><trkpt lat="46.0958683" lon="12.9511683"><ele>120.19999999999999</ele><time>2026-03-28T11:22:53.154Z</time></trkpt><trkpt lat="46.0959617" lon="12.9511517"><ele>120.6</ele><time>2026-03-28T11:22:54.153Z</time></trkpt><trkpt lat="46.096065" lon="12.951145"><ele>121.0</ele><time>2026-03-28T11:22:55.154Z</time></trkpt><trkpt lat="46.09617" lon="12.9511533"><ele>121.0</ele><time>2026-03-28T11:22:56.153Z</time></trkpt><trkpt lat="46.096265" lon="12.9511633"><ele>121.0</ele><time>2026-03-28T11:22:57.153Z</time></trkpt><trkpt lat="46.0963617" lon="12.9511783"><ele>121.0</ele><time>2026-03-28T11:22:58.153Z</time></trkpt><trkpt lat="46.0964617" lon="12.9511967"><ele>121.0</ele><time>2026-03-28T11:22:59.153Z</time></trkpt><trkpt lat="46.0965633" lon="12.9512183"><ele>121.0</ele><time>2026-03-28T11:23:00.153Z</time></trkpt><trkpt lat="46.09666" lon="12.9512517"><ele>120.6</ele><time>2026-03-28T11:23:01.153Z</time></trkpt><trkpt lat="46.0967567" lon="12.95131"><ele>120.19999999999999</ele><time>2026-03-28T11:23:02.153Z</time></trkpt><trkpt lat="46.0968517" lon="12.9513783"><ele>119.80000000000001</ele><time>2026-03-28T11:23:03.153Z</time></trkpt><trkpt lat="46.0969417" lon="12.9514517"><ele>119.4</ele><time>2026-03-28T11:23:04.153Z</time></trkpt><trkpt lat="46.0970317" lon="12.95153"><ele>119.0</ele><time>2026-03-28T11:23:05.154Z</time></trkpt><trkpt lat="46.097125" lon="12.9516033"><ele>119.0</ele><time>2026-03-28T11:23:06.153Z</time></trkpt><trkpt lat="46.0972233" lon="12.95168"><ele>119.0</ele><time>2026-03-28T11:23:07.153Z</time></trkpt><trkpt lat="46.0973267" lon="12.9517533"><ele>119.0</ele><time>2026-03-28T11:23:08.153Z</time></trkpt><trkpt lat="46.0974233" lon="12.9518267"><ele>119.0</ele><time>2026-03-28T11:23:09.153Z</time></trkpt><trkpt lat="46.0975233" lon="12.9519033"><ele>119.0</ele><time>2026-03-28T11:23:10.153Z</time></trkpt><trkpt lat="46.0976333" lon="12.9519833"><ele>119.75</ele><time>2026-03-28T11:23:11.154Z</time></trkpt><trkpt lat="46.09774" lon="12.9520517"><ele>120.5</ele><time>2026-03-28T11:23:12.153Z</time></trkpt><trkpt lat="46.097845" lon="12.9521083"><ele>121.25</ele><time>2026-03-28T11:23:13.153Z</time></trkpt><trkpt lat="46.0979517" lon="12.952165"><ele>122.0</ele><time>2026-03-28T11:23:14.153Z</time></trkpt><trkpt lat="46.098065" lon="12.9522367"><ele>122.0</ele><time>2026-03-28T11:23:15.153Z</time></trkpt><trkpt lat="46.098175" lon="12.95229"><ele>121.99999999999999</ele><time>2026-03-28T11:23:16.153Z</time></trkpt><trkpt lat="46.098275" lon="12.9523383"><ele>121.99999999999999</ele><time>2026-03-28T11:23:17.153Z</time></trkpt><trkpt lat="46.098365" lon="12.9523817"><ele>122.0</ele><time>2026-03-28T11:23:18.153Z</time></trkpt><trkpt lat="46.0984417" lon="12.9524117"><ele>122.0</ele><time>2026-03-28T11:23:19.153Z</time></trkpt><trkpt lat="46.0985083" lon="12.9524283"><ele>122.19999999999999</ele><time>2026-03-28T11:23:20.153Z</time></trkpt><trkpt lat="46.0986083" lon="12.95244"><ele>122.39999999999999</ele><time>2026-03-28T11:23:22.153Z</time></trkpt><trkpt lat="46.0986733" lon="12.9524367"><ele>122.60000000000001</ele><time>2026-03-28T11:23:24.153Z</time></trkpt><trkpt lat="46.09875" lon="12.9524183"><ele>122.80000000000001</ele><time>2026-03-28T11:23:27.154Z</time></trkpt><trkpt lat="46.0988967" lon="12.9523917"><ele>123.0</ele><time>2026-03-28T11:23:30.153Z</time></trkpt><trkpt lat="46.0989633" lon="12.9524"><ele>123.0</ele><time>2026-03-28T11:23:31.153Z</time></trkpt><trkpt lat="46.099035" lon="12.9524217"><ele>123.00000000000001</ele><time>2026-03-28T11:23:32.153Z</time></trkpt><trkpt lat="46.09912" lon="12.95245"><ele>123.00000000000001</ele><time>2026-03-28T11:23:33.153Z</time></trkpt><trkpt lat="46.0992183" lon="12.9524717"><ele>123.0</ele><time>2026-03-28T11:23:34.153Z</time></trkpt><trkpt lat="46.0993333" lon="12.9524867"><ele>123.0</ele><time>2026-03-28T11:23:35.153Z</time></trkpt><trkpt lat="46.0994583" lon="12.95249"><ele>123.25</ele><time>2026-03-28T11:23:36.153Z</time></trkpt><trkpt lat="46.0995817" lon="12.9524883"><ele>123.5</ele><time>2026-03-28T11:23:37.153Z</time></trkpt><trkpt lat="46.09971" lon="12.9524783"><ele>123.75</ele><time>2026-03-28T11:23:38.153Z</time></trkpt><trkpt lat="46.0998283" lon="12.9524767"><ele>124.0</ele><time>2026-03-28T11:23:39.153Z</time></trkpt><trkpt lat="46.0999417" lon="12.9524767"><ele>124.0</ele><time>2026-03-28T11:23:40.153Z</time></trkpt><trkpt lat="46.1000567" lon="12.9524767"><ele>124.0</ele><time>2026-03-28T11:23:41.153Z</time></trkpt><trkpt lat="46.1001633" lon="12.95248"><ele>124.0</ele><time>2026-03-28T11:23:42.153Z</time></trkpt><trkpt lat="46.1002683" lon="12.9524917"><ele>124.0</ele><time>2026-03-28T11:23:43.153Z</time></trkpt><trkpt lat="46.1003733" lon="12.9525083"><ele>124.0</ele><time>2026-03-28T11:23:44.153Z</time></trkpt><trkpt lat="46.10048" lon="12.9525467"><ele>124.0</ele><time>2026-03-28T11:23:45.153Z</time></trkpt><trkpt lat="46.1005917" lon="12.9525933"><ele>124.0</ele><time>2026-03-28T11:23:46.153Z</time></trkpt><trkpt lat="46.1007033" lon="12.9526383"><ele>124.0</ele><time>2026-03-28T11:23:47.153Z</time></trkpt><trkpt lat="46.1008133" lon="12.952685"><ele>124.0</ele><time>2026-03-28T11:23:48.153Z</time></trkpt><trkpt lat="46.100925" lon="12.95273"><ele>124.75</ele><time>2026-03-28T11:23:49.153Z</time></trkpt><trkpt lat="46.1010417" lon="12.95278"><ele>125.5</ele><time>2026-03-28T11:23:50.153Z</time></trkpt><trkpt lat="46.1011667" lon="12.95283"><ele>126.25</ele><time>2026-03-28T11:23:51.154Z</time></trkpt><trkpt lat="46.1012867" lon="12.9528717"><ele>127.0</ele><time>2026-03-28T11:23:52.153Z</time></trkpt><trkpt lat="46.1014033" lon="12.9529117"><ele>127.0</ele><time>2026-03-28T11:23:53.153Z</time></trkpt><trkpt lat="46.1015133" lon="12.95294"><ele>126.99999999999999</ele><time>2026-03-28T11:23:54.153Z</time></trkpt><trkpt lat="46.1016133" lon="12.9529717"><ele>126.99999999999999</ele><time>2026-03-28T11:23:55.153Z</time></trkpt><trkpt lat="46.1017067" lon="12.9530133"><ele>127.0</ele><time>2026-03-28T11:23:56.154Z</time></trkpt><trkpt lat="46.101785" lon="12.9530517"><ele>127.0</ele><time>2026-03-28T11:23:57.154Z</time></trkpt><trkpt lat="46.1018517" lon="12.9530583"><ele>126.75</ele><time>2026-03-28T11:23:58.154Z</time></trkpt><trkpt lat="46.1019583" lon="12.9530117"><ele>126.5</ele><time>2026-03-28T11:24:00.153Z</time></trkpt><trkpt lat="46.1020567" lon="12.9529867"><ele>126.25</ele><time>2026-03-28T11:24:02.153Z</time></trkpt><trkpt lat="46.1021933" lon="12.95308"><ele>126.0</ele><time>2026-03-28T11:24:04.153Z</time></trkpt><trkpt lat="46.102285" lon="12.9531717"><ele>126.0</ele><time>2026-03-28T11:24:05.153Z</time></trkpt><trkpt lat="46.1023817" lon="12.95327"><ele>126.0</ele><time>2026-03-28T11:24:06.154Z</time></trkpt><trkpt lat="46.1024817" lon="12.95337"><ele>126.0</ele><time>2026-03-28T11:24:07.153Z</time></trkpt><trkpt lat="46.1025733" lon="12.9534717"><ele>126.0</ele><time>2026-03-28T11:24:08.153Z</time></trkpt><trkpt lat="46.10266" lon="12.9535717"><ele>125.75</ele><time>2026-03-28T11:24:09.153Z</time></trkpt><trkpt lat="46.1027367" lon="12.9536767"><ele>125.5</ele><time>2026-03-28T11:24:10.153Z</time></trkpt><trkpt lat="46.1028217" lon="12.9537783"><ele>125.25</ele><time>2026-03-28T11:24:11.153Z</time></trkpt><trkpt lat="46.1029033" lon="12.9538917"><ele>125.0</ele><time>2026-03-28T11:24:12.154Z</time></trkpt><trkpt lat="46.1029967" lon="12.95401"><ele>125.0</ele><time>2026-03-28T11:24:13.153Z</time></trkpt><trkpt lat="46.10309" lon="12.9541383"><ele>125.0</ele><time>2026-03-28T11:24:14.153Z</time></trkpt><trkpt lat="46.1031867" lon="12.9542667"><ele>125.0</ele><time>2026-03-28T11:24:15.153Z</time></trkpt><trkpt lat="46.1032767" lon="12.9543867"><ele>125.0</ele><time>2026-03-28T11:24:16.153Z</time></trkpt><trkpt lat="46.10337" lon="12.9545083"><ele>125.5</ele><time>2026-03-28T11:24:17.153Z</time></trkpt><trkpt lat="46.103455" lon="12.9546317"><ele>126.0</ele><time>2026-03-28T11:24:18.153Z</time></trkpt><trkpt lat="46.1035317" lon="12.9547433"><ele>126.5</ele><time>2026-03-28T11:24:19.153Z</time></trkpt><trkpt lat="46.1036233" lon="12.9548467"><ele>127.0</ele><time>2026-03-28T11:24:20.153Z</time></trkpt><trkpt lat="46.10372" lon="12.9549467"><ele>127.0</ele><time>2026-03-28T11:24:21.153Z</time></trkpt><trkpt lat="46.1038283" lon="12.955045"><ele>127.0</ele><time>2026-03-28T11:24:22.153Z</time></trkpt><trkpt lat="46.103935" lon="12.9551383"><ele>127.0</ele><time>2026-03-28T11:24:23.153Z</time></trkpt><trkpt lat="46.1040533" lon="12.955225"><ele>127.0</ele><time>2026-03-28T11:24:24.153Z</time></trkpt><trkpt lat="46.1041767" lon="12.9553033"><ele>127.5</ele><time>2026-03-28T11:24:25.153Z</time></trkpt><trkpt lat="46.104305" lon="12.955375"><ele>128.0</ele><time>2026-03-28T11:24:26.153Z</time></trkpt><trkpt lat="46.1044317" lon="12.9554283"><ele>128.5</ele><time>2026-03-28T11:24:27.153Z</time></trkpt><trkpt lat="46.1045583" lon="12.9554883"><ele>129.0</ele><time>2026-03-28T11:24:28.153Z</time></trkpt><trkpt lat="46.1046867" lon="12.9555433"><ele>129.0</ele><time>2026-03-28T11:24:29.153Z</time></trkpt><trkpt lat="46.10482" lon="12.9555933"><ele>129.0</ele><time>2026-03-28T11:24:30.153Z</time></trkpt><trkpt lat="46.1049433" lon="12.9556383"><ele>129.0</ele><time>2026-03-28T11:24:31.153Z</time></trkpt><trkpt lat="46.1050717" lon="12.9557017"><ele>129.0</ele><time>2026-03-28T11:24:32.153Z</time></trkpt><trkpt lat="46.10521" lon="12.9557633"><ele>129.0</ele><time>2026-03-28T11:24:33.154Z</time></trkpt><trkpt lat="46.1053467" lon="12.955825"><ele>129.0</ele><time>2026-03-28T11:24:34.153Z</time></trkpt><trkpt lat="46.1054883" lon="12.955895"><ele>129.0</ele><time>2026-03-28T11:24:35.153Z</time></trkpt><trkpt lat="46.1056267" lon="12.9559633"><ele>129.0</ele><time>2026-03-28T11:24:36.153Z</time></trkpt><trkpt lat="46.105765" lon="12.956035"><ele>129.0</ele><time>2026-03-28T11:24:37.153Z</time></trkpt><trkpt lat="46.1059017" lon="12.956105"><ele>129.0</ele><time>2026-03-28T11:24:38.153Z</time></trkpt><trkpt lat="46.1060417" lon="12.9561783"><ele>129.0</ele><time>2026-03-28T11:24:39.154Z</time></trkpt><trkpt lat="46.10618" lon="12.9562567"><ele>129.0</ele><time>2026-03-28T11:24:40.153Z</time></trkpt><trkpt lat="46.106325" lon="12.9563283"><ele>129.0</ele><time>2026-03-28T11:24:41.153Z</time></trkpt><trkpt lat="46.1064567" lon="12.9563967"><ele>129.0</ele><time>2026-03-28T11:24:42.154Z</time></trkpt><trkpt lat="46.1065783" lon="12.9564733"><ele>129.0</ele><time>2026-03-28T11:24:43.153Z</time></trkpt><trkpt lat="46.1066967" lon="12.9565567"><ele>129.0</ele><time>2026-03-28T11:24:44.153Z</time></trkpt><trkpt lat="46.1068067" lon="12.956635"><ele>129.0</ele><time>2026-03-28T11:24:45.154Z</time></trkpt><trkpt lat="46.106925" lon="12.95669"><ele>129.0</ele><time>2026-03-28T11:24:46.153Z</time></trkpt><trkpt lat="46.10706" lon="12.9567383"><ele>129.0</ele><time>2026-03-28T11:24:47.154Z</time></trkpt><trkpt lat="46.1071967" lon="12.9567867"><ele>129.0</ele><time>2026-03-28T11:24:48.153Z</time></trkpt><trkpt lat="46.1073283" lon="12.9568267"><ele>129.0</ele><time>2026-03-28T11:24:49.153Z</time></trkpt><trkpt lat="46.1074717" lon="12.95687"><ele>129.0</ele><time>2026-03-28T11:24:50.153Z</time></trkpt><trkpt lat="46.1076183" lon="12.956925"><ele>129.0</ele><time>2026-03-28T11:24:51.153Z</time></trkpt><trkpt lat="46.1077767" lon="12.9569767"><ele>129.0</ele><time>2026-03-28T11:24:52.154Z</time></trkpt><trkpt lat="46.107925" lon="12.9570167"><ele>129.0</ele><time>2026-03-28T11:24:53.154Z</time></trkpt><trkpt lat="46.1080683" lon="12.9570467"><ele>129.0</ele><time>2026-03-28T11:24:54.153Z</time></trkpt><trkpt lat="46.1082183" lon="12.95707"><ele>129.0</ele><time>2026-03-28T11:24:55.153Z</time></trkpt><trkpt lat="46.108365" lon="12.9570983"><ele>128.75</ele><time>2026-03-28T11:24:56.153Z</time></trkpt><trkpt lat="46.10852" lon="12.9571283"><ele>128.5</ele><time>2026-03-28T11:24:57.153Z</time></trkpt><trkpt lat="46.1086667" lon="12.9571667"><ele>128.25</ele><time>2026-03-28T11:24:58.154Z</time></trkpt><trkpt lat="46.1088" lon="12.9572033"><ele>128.0</ele><time>2026-03-28T11:24:59.154Z</time></trkpt><trkpt lat="46.1089367" lon="12.9572283"><ele>128.75</ele><time>2026-03-28T11:25:00.153Z</time></trkpt><trkpt lat="46.1090833" lon="12.9572617"><ele>129.5</ele><time>2026-03-28T11:25:01.153Z</time></trkpt><trkpt lat="46.1092267" lon="12.9573083"><ele>130.25</ele><time>2026-03-28T11:25:02.153Z</time></trkpt><trkpt lat="46.1093667" lon="12.9573567"><ele>131.0</ele><time>2026-03-28T11:25:03.154Z</time></trkpt><trkpt lat="46.10951" lon="12.9574033"><ele>131.0</ele><time>2026-03-28T11:25:04.153Z</time></trkpt><trkpt lat="46.1096533" lon="12.9574383"><ele>131.0</ele><time>2026-03-28T11:25:05.153Z</time></trkpt><trkpt lat="46.1098" lon="12.957475"><ele>131.0</ele><time>2026-03-28T11:25:06.153Z</time></trkpt><trkpt lat="46.109945" lon="12.9575083"><ele>131.0</ele><time>2026-03-28T11:25:07.153Z</time></trkpt><trkpt lat="46.1100883" lon="12.9575433"><ele>131.0</ele><time>2026-03-28T11:25:08.154Z</time></trkpt><trkpt lat="46.1102367" lon="12.9575667"><ele>131.0</ele><time>2026-03-28T11:25:09.153Z</time></trkpt><trkpt lat="46.1103817" lon="12.9575867"><ele>131.0</ele><time>2026-03-28T11:25:10.153Z</time></trkpt><trkpt lat="46.11052" lon="12.957605"><ele>131.0</ele><time>2026-03-28T11:25:11.153Z</time></trkpt><trkpt lat="46.110645" lon="12.95762"><ele>131.25</ele><time>2026-03-28T11:25:12.153Z</time></trkpt><trkpt lat="46.11077" lon="12.9576367"><ele>131.5</ele><time>2026-03-28T11:25:13.154Z</time></trkpt><trkpt lat="46.1108967" lon="12.95768"><ele>131.75</ele><time>2026-03-28T11:25:14.153Z</time></trkpt><trkpt lat="46.1110283" lon="12.957735"><ele>132.0</ele><time>2026-03-28T11:25:15.153Z</time></trkpt><trkpt lat="46.11117" lon="12.9577967"><ele>132.0</ele><time>2026-03-28T11:25:16.153Z</time></trkpt><trkpt lat="46.1113033" lon="12.95786"><ele>132.0</ele><time>2026-03-28T11:25:17.153Z</time></trkpt><trkpt lat="46.11143" lon="12.9579217"><ele>132.0</ele><time>2026-03-28T11:25:18.154Z</time></trkpt><trkpt lat="46.1115533" lon="12.957985"><ele>132.0</ele><time>2026-03-28T11:25:19.153Z</time></trkpt><trkpt lat="46.111685" lon="12.9580333"><ele>132.25</ele><time>2026-03-28T11:25:20.153Z</time></trkpt><trkpt lat="46.1118167" lon="12.9580817"><ele>132.5</ele><time>2026-03-28T11:25:21.153Z</time></trkpt><trkpt lat="46.111935" lon="12.9581233"><ele>132.75</ele><time>2026-03-28T11:25:22.154Z</time></trkpt><trkpt lat="46.112055" lon="12.9581567"><ele>133.0</ele><time>2026-03-28T11:25:23.153Z</time></trkpt><trkpt lat="46.1121733" lon="12.9581883"><ele>133.0</ele><time>2026-03-28T11:25:24.153Z</time></trkpt><trkpt lat="46.1123017" lon="12.9582167"><ele>133.0</ele><time>2026-03-28T11:25:25.153Z</time></trkpt><trkpt lat="46.1124217" lon="12.9582417"><ele>133.0</ele><time>2026-03-28T11:25:26.153Z</time></trkpt><trkpt lat="46.1125383" lon="12.95826"><ele>133.0</ele><time>2026-03-28T11:25:27.153Z</time></trkpt><trkpt lat="46.1126617" lon="12.9582817"><ele>133.25</ele><time>2026-03-28T11:25:28.154Z</time></trkpt><trkpt lat="46.112785" lon="12.9583017"><ele>133.5</ele><time>2026-03-28T11:25:29.153Z</time></trkpt><trkpt lat="46.1129083" lon="12.9583283"><ele>133.75</ele><time>2026-03-28T11:25:30.153Z</time></trkpt><trkpt lat="46.1130317" lon="12.9583533"><ele>134.0</ele><time>2026-03-28T11:25:31.153Z</time></trkpt><trkpt lat="46.1131583" lon="12.9583867"><ele>134.0</ele><time>2026-03-28T11:25:32.153Z</time></trkpt><trkpt lat="46.1132867" lon="12.9584267"><ele>134.0</ele><time>2026-03-28T11:25:33.154Z</time></trkpt><trkpt lat="46.113415" lon="12.9584683"><ele>134.0</ele><time>2026-03-28T11:25:34.153Z</time></trkpt><trkpt lat="46.11355" lon="12.9584983"><ele>134.0</ele><time>2026-03-28T11:25:35.153Z</time></trkpt><trkpt lat="46.1136783" lon="12.9585333"><ele>134.0</ele><time>2026-03-28T11:25:36.153Z</time></trkpt><trkpt lat="46.11381" lon="12.9585667"><ele>134.0</ele><time>2026-03-28T11:25:37.153Z</time></trkpt><trkpt lat="46.1139367" lon="12.9586"><ele>134.0</ele><time>2026-03-28T11:25:38.153Z</time></trkpt><trkpt lat="46.11406" lon="12.9586283"><ele>134.0</ele><time>2026-03-28T11:25:39.153Z</time></trkpt><trkpt lat="46.1141733" lon="12.9586567"><ele>134.6</ele><time>2026-03-28T11:25:40.154Z</time></trkpt><trkpt lat="46.1142767" lon="12.95868"><ele>135.2</ele><time>2026-03-28T11:25:41.154Z</time></trkpt><trkpt lat="46.11436" lon="12.9586967"><ele>135.79999999999998</ele><time>2026-03-28T11:25:42.154Z</time></trkpt><trkpt lat="46.114465" lon="12.9587267"><ele>136.4</ele><time>2026-03-28T11:25:44.153Z</time></trkpt><trkpt lat="46.1145017" lon="12.9588067"><ele>137.0</ele><time>2026-03-28T11:25:47.153Z</time></trkpt><trkpt lat="46.1144667" lon="12.95894"><ele>137.0</ele><time>2026-03-28T11:25:49.153Z</time></trkpt><trkpt lat="46.1144433" lon="12.9590617"><ele>137.0</ele><time>2026-03-28T11:25:50.153Z</time></trkpt><trkpt lat="46.1144183" lon="12.95921"><ele>137.0</ele><time>2026-03-28T11:25:51.153Z</time></trkpt><trkpt lat="46.1143983" lon="12.9593817"><ele>137.0</ele><time>2026-03-28T11:25:52.153Z</time></trkpt><trkpt lat="46.1143817" lon="12.9595633"><ele>137.0</ele><time>2026-03-28T11:25:53.153Z</time></trkpt><trkpt lat="46.11437" lon="12.9597367"><ele>136.79999999999998</ele><time>2026-03-28T11:25:54.154Z</time></trkpt><trkpt lat="46.1143633" lon="12.9598817"><ele>136.6</ele><time>2026-03-28T11:25:55.153Z</time></trkpt><trkpt lat="46.1143767" lon="12.96"><ele>136.39999999999998</ele><time>2026-03-28T11:25:56.154Z</time></trkpt><trkpt lat="46.1144217" lon="12.960095"><ele>136.2</ele><time>2026-03-28T11:25:57.154Z</time></trkpt><trkpt lat="46.1145033" lon="12.9601617"><ele>136.0</ele><time>2026-03-28T11:25:58.154Z</time></trkpt><trkpt lat="46.1146167" lon="12.9602117"><ele>136.0</ele><time>2026-03-28T11:25:59.153Z</time></trkpt><trkpt lat="46.1147367" lon="12.9602633"><ele>136.0</ele><time>2026-03-28T11:26:00.153Z</time></trkpt><trkpt lat="46.11486" lon="12.9603183"><ele>136.0</ele><time>2026-03-28T11:26:01.153Z</time></trkpt><trkpt lat="46.1149517" lon="12.9603683"><ele>136.0</ele><time>2026-03-28T11:26:02.153Z</time></trkpt><trkpt lat="46.1150133" lon="12.96041"><ele>136.0</ele><time>2026-03-28T11:26:03.153Z</time></trkpt><trkpt lat="46.1151133" lon="12.9604717"><ele>136.0</ele><time>2026-03-28T11:26:05.153Z</time></trkpt><trkpt lat="46.11518" lon="12.9605217"><ele>136.0</ele><time>2026-03-28T11:26:07.153Z</time></trkpt><trkpt lat="46.1152433" lon="12.9605083"><ele>136.0</ele><time>2026-03-28T11:26:11.153Z</time></trkpt><trkpt lat="46.1151883" lon="12.9604583"><ele>136.0</ele><time>2026-03-28T11:26:14.153Z</time></trkpt><trkpt lat="46.1151017" lon="12.9604033"><ele>136.0</ele><time>2026-03-28T11:26:16.153Z</time></trkpt><trkpt lat="46.11499" lon="12.9603267"><ele>136.0</ele><time>2026-03-28T11:26:18.153Z</time></trkpt><trkpt lat="46.11493" lon="12.9602783"><ele>135.99999999999997</ele><time>2026-03-28T11:26:19.153Z</time></trkpt><trkpt lat="46.114865" lon="12.960235"><ele>136.0</ele><time>2026-03-28T11:26:20.153Z</time></trkpt><trkpt lat="46.1148017" lon="12.9602"><ele>136.0</ele><time>2026-03-28T11:26:21.153Z</time></trkpt><trkpt lat="46.11474" lon="12.960165"><ele>136.0</ele><time>2026-03-28T11:26:22.153Z</time></trkpt><trkpt lat="46.1146767" lon="12.9601267"><ele>136.0</ele><time>2026-03-28T11:26:23.154Z</time></trkpt><trkpt lat="46.11461" lon="12.9600967"><ele>135.99999999999997</ele><time>2026-03-28T11:26:24.153Z</time></trkpt><trkpt lat="46.1145483" lon="12.960065"><ele>136.0</ele><time>2026-03-28T11:26:25.153Z</time></trkpt><trkpt lat="46.1144467" lon="12.9600133"><ele>135.6</ele><time>2026-03-28T11:26:27.154Z</time></trkpt><trkpt lat="46.1143533" lon="12.9600717"><ele>135.2</ele><time>2026-03-28T11:26:30.153Z</time></trkpt><trkpt lat="46.1143167" lon="12.9601633"><ele>134.8</ele><time>2026-03-28T11:26:31.154Z</time></trkpt><trkpt lat="46.114285" lon="12.9602883"><ele>134.4</ele><time>2026-03-28T11:26:32.153Z</time></trkpt><trkpt lat="46.1142517" lon="12.9604583"><ele>134.0</ele><time>2026-03-28T11:26:33.153Z</time></trkpt><trkpt lat="46.114215" lon="12.9606383"><ele>134.0</ele><time>2026-03-28T11:26:34.153Z</time></trkpt><trkpt lat="46.1141733" lon="12.960825"><ele>134.0</ele><time>2026-03-28T11:26:35.153Z</time></trkpt><trkpt lat="46.1141283" lon="12.961005"><ele>134.0</ele><time>2026-03-28T11:26:36.154Z</time></trkpt><trkpt lat="46.114095" lon="12.96117"><ele>134.0</ele><time>2026-03-28T11:26:37.153Z</time></trkpt><trkpt lat="46.1140567" lon="12.9613317"><ele>134.2</ele><time>2026-03-28T11:26:38.153Z</time></trkpt><trkpt lat="46.11402" lon="12.9614917"><ele>134.4</ele><time>2026-03-28T11:26:39.153Z</time></trkpt><trkpt lat="46.1139817" lon="12.9616383"><ele>134.6</ele><time>2026-03-28T11:26:40.154Z</time></trkpt><trkpt lat="46.1139517" lon="12.9617683"><ele>134.8</ele><time>2026-03-28T11:26:41.153Z</time></trkpt><trkpt lat="46.1139433" lon="12.961885"><ele>135.0</ele><time>2026-03-28T11:26:42.153Z</time></trkpt><trkpt lat="46.1139567" lon="12.9619983"><ele>135.0</ele><time>2026-03-28T11:26:43.153Z</time></trkpt><trkpt lat="46.1139933" lon="12.9620983"><ele>135.0</ele><time>2026-03-28T11:26:44.154Z</time></trkpt><trkpt lat="46.1140617" lon="12.96218"><ele>135.0</ele><time>2026-03-28T11:26:45.153Z</time></trkpt><trkpt lat="46.114145" lon="12.9622467"><ele>135.0</ele><time>2026-03-28T11:26:46.153Z</time></trkpt><trkpt lat="46.1142467" lon="12.9622983"><ele>135.0</ele><time>2026-03-28T11:26:47.153Z</time></trkpt><trkpt lat="46.1143667" lon="12.9623433"><ele>135.0</ele><time>2026-03-28T11:26:48.154Z</time></trkpt><trkpt lat="46.1144783" lon="12.9623883"><ele>135.0</ele><time>2026-03-28T11:26:49.153Z</time></trkpt><trkpt lat="46.114595" lon="12.9624383"><ele>135.0</ele><time>2026-03-28T11:26:50.153Z</time></trkpt><trkpt lat="46.11471" lon="12.962495"><ele>135.0</ele><time>2026-03-28T11:26:51.153Z</time></trkpt><trkpt lat="46.11483" lon="12.9625467"><ele>135.25</ele><time>2026-03-28T11:26:52.153Z</time></trkpt><trkpt lat="46.1149617" lon="12.9626"><ele>135.5</ele><time>2026-03-28T11:26:53.153Z</time></trkpt><trkpt lat="46.1150933" lon="12.9626533"><ele>135.75</ele><time>2026-03-28T11:26:54.153Z</time></trkpt><trkpt lat="46.1152217" lon="12.9627117"><ele>136.0</ele><time>2026-03-28T11:26:55.153Z</time></trkpt><trkpt lat="46.11534" lon="12.9627683"><ele>136.0</ele><time>2026-03-28T11:26:56.154Z</time></trkpt><trkpt lat="46.1154467" lon="12.9628117"><ele>136.0</ele><time>2026-03-28T11:26:57.153Z</time></trkpt><trkpt lat="46.11553" lon="12.9628517"><ele>136.0</ele><time>2026-03-28T11:26:58.153Z</time></trkpt><trkpt lat="46.1155983" lon="12.9628733"><ele>136.0</ele><time>2026-03-28T11:26:59.153Z</time></trkpt><trkpt lat="46.1157083" lon="12.9629017"><ele>136.0</ele><time>2026-03-28T11:27:01.153Z</time></trkpt><trkpt lat="46.11576" lon="12.962975"><ele>136.0</ele><time>2026-03-28T11:27:03.154Z</time></trkpt><trkpt lat="46.1157333" lon="12.9631267"><ele>136.0</ele><time>2026-03-28T11:27:05.153Z</time></trkpt><trkpt lat="46.1156883" lon="12.96327"><ele>136.0</ele><time>2026-03-28T11:27:06.153Z</time></trkpt><trkpt lat="46.115645" lon="12.9634317"><ele>136.0</ele><time>2026-03-28T11:27:07.153Z</time></trkpt><trkpt lat="46.11562" lon="12.9635917"><ele>136.2</ele><time>2026-03-28T11:27:08.153Z</time></trkpt><trkpt lat="46.1156133" lon="12.96375"><ele>136.39999999999998</ele><time>2026-03-28T11:27:09.153Z</time></trkpt><trkpt lat="46.11562" lon="12.96391"><ele>136.6</ele><time>2026-03-28T11:27:10.153Z</time></trkpt><trkpt lat="46.1156317" lon="12.9640583"><ele>136.79999999999998</ele><time>2026-03-28T11:27:11.153Z</time></trkpt><trkpt lat="46.115645" lon="12.9641917"><ele>137.0</ele><time>2026-03-28T11:27:12.153Z</time></trkpt><trkpt lat="46.1156583" lon="12.9643283"><ele>137.16666666666666</ele><time>2026-03-28T11:27:13.153Z</time></trkpt><trkpt lat="46.115665" lon="12.9644567"><ele>137.33333333333331</ele><time>2026-03-28T11:27:14.154Z</time></trkpt><trkpt lat="46.1156683" lon="12.9645867"><ele>137.5</ele><time>2026-03-28T11:27:15.153Z</time></trkpt><trkpt lat="46.11567" lon="12.9647067"><ele>137.66666666666666</ele><time>2026-03-28T11:27:16.153Z</time></trkpt><trkpt lat="46.1156817" lon="12.964825"><ele>137.83333333333334</ele><time>2026-03-28T11:27:17.153Z</time></trkpt><trkpt lat="46.1156817" lon="12.9649633"><ele>138.0</ele><time>2026-03-28T11:27:18.153Z</time></trkpt><trkpt lat="46.1156783" lon="12.9651033"><ele>138.0</ele><time>2026-03-28T11:27:19.153Z</time></trkpt><trkpt lat="46.1156783" lon="12.9652417"><ele>138.0</ele><time>2026-03-28T11:27:20.153Z</time></trkpt><trkpt lat="46.11568" lon="12.9653817"><ele>138.0</ele><time>2026-03-28T11:27:21.153Z</time></trkpt><trkpt lat="46.1156783" lon="12.9655017"><ele>138.0</ele><time>2026-03-28T11:27:22.153Z</time></trkpt><trkpt lat="46.1156833" lon="12.9656067"><ele>138.0</ele><time>2026-03-28T11:27:23.153Z</time></trkpt><trkpt lat="46.1156917" lon="12.9657067"><ele>138.0</ele><time>2026-03-28T11:27:24.154Z</time></trkpt><trkpt lat="46.1157" lon="12.965815"><ele>138.20000000000002</ele><time>2026-03-28T11:27:25.154Z</time></trkpt><trkpt lat="46.1157067" lon="12.9659283"><ele>138.4</ele><time>2026-03-28T11:27:26.153Z</time></trkpt><trkpt lat="46.11571" lon="12.966035"><ele>138.60000000000002</ele><time>2026-03-28T11:27:27.153Z</time></trkpt><trkpt lat="46.1157167" lon="12.96614"><ele>138.8</ele><time>2026-03-28T11:27:28.153Z</time></trkpt><trkpt lat="46.115705" lon="12.9663033"><ele>139.0</ele><time>2026-03-28T11:27:30.154Z</time></trkpt><trkpt lat="46.1156417" lon="12.9664783"><ele>139.0</ele><time>2026-03-28T11:27:32.153Z</time></trkpt><trkpt lat="46.1155983" lon="12.966565"><ele>139.0</ele><time>2026-03-28T11:27:33.153Z</time></trkpt><trkpt lat="46.1155383" lon="12.96665"><ele>139.0</ele><time>2026-03-28T11:27:35.153Z</time></trkpt><trkpt lat="46.1154483" lon="12.9667183"><ele>139.0</ele><time>2026-03-28T11:27:46.153Z</time></trkpt><trkpt lat="46.1153683" lon="12.966715"><ele>139.0</ele><time>2026-03-28T11:27:48.153Z</time></trkpt><trkpt lat="46.11529" lon="12.9666917"><ele>139.0</ele><time>2026-03-28T11:28:10.154Z</time></trkpt><trkpt lat="46.1151833" lon="12.9666717"><ele>139.0</ele><time>2026-03-28T11:28:12.153Z</time></trkpt><trkpt lat="46.1150983" lon="12.9666533"><ele>139.0</ele><time>2026-03-28T11:28:15.153Z</time></trkpt><trkpt lat="46.115185" lon="12.96673"><ele>139.0</ele><time>2026-03-28T11:28:21.153Z</time></trkpt><trkpt lat="46.1152517" lon="12.9667467"><ele>139.0</ele><time>2026-03-28T11:28:22.153Z</time></trkpt><trkpt lat="46.115315" lon="12.9667567"><ele>139.0</ele><time>2026-03-28T11:28:23.153Z</time></trkpt><trkpt lat="46.1153833" lon="12.9667667"><ele>139.0</ele><time>2026-03-28T11:28:25.153Z</time></trkpt><trkpt lat="46.115335" lon="12.9668617"><ele>138.6</ele><time>2026-03-28T11:28:30.153Z</time></trkpt><trkpt lat="46.115265" lon="12.9669517"><ele>138.2</ele><time>2026-03-28T11:28:32.154Z</time></trkpt><trkpt lat="46.115195" lon="12.967075"><ele>137.79999999999998</ele><time>2026-03-28T11:28:34.153Z</time></trkpt><trkpt lat="46.1151517" lon="12.967145"><ele>137.4</ele><time>2026-03-28T11:28:35.153Z</time></trkpt><trkpt lat="46.1150767" lon="12.9672917"><ele>137.0</ele><time>2026-03-28T11:28:37.154Z</time></trkpt><trkpt lat="46.115035" lon="12.967365"><ele>137.0</ele><time>2026-03-28T11:28:38.153Z</time></trkpt><trkpt lat="46.1149817" lon="12.96744"><ele>137.0</ele><time>2026-03-28T11:28:39.153Z</time></trkpt><trkpt lat="46.1149117" lon="12.9675283"><ele>137.0</ele><time>2026-03-28T11:28:40.153Z</time></trkpt><trkpt lat="46.1148417" lon="12.96761"><ele>137.0</ele><time>2026-03-28T11:28:41.154Z</time></trkpt><trkpt lat="46.114775" lon="12.9676833"><ele>137.0</ele><time>2026-03-28T11:28:42.153Z</time></trkpt><trkpt lat="46.1147117" lon="12.9677667"><ele>137.0</ele><time>2026-03-28T11:28:43.153Z</time></trkpt><trkpt lat="46.1146467" lon="12.9678433"><ele>137.0</ele><time>2026-03-28T11:28:45.153Z</time></trkpt><trkpt lat="46.1145683" lon="12.9679333"><ele>137.0</ele><time>2026-03-28T11:28:58.152Z</time></trkpt><trkpt lat="46.1145233" lon="12.968045"><ele>137.0</ele><time>2026-03-28T11:29:04.152Z</time></trkpt><trkpt lat="46.1145417" lon="12.968135"><ele>137.0</ele><time>2026-03-28T11:29:08.153Z</time></trkpt><trkpt lat="46.11461" lon="12.9681533"><ele>137.0</ele><time>2026-03-28T11:29:11.152Z</time></trkpt><trkpt lat="46.1147067" lon="12.968225"><ele>137.0</ele><time>2026-03-28T11:29:13.153Z</time></trkpt><trkpt lat="46.114765" lon="12.9682767"><ele>137.0</ele><time>2026-03-28T11:29:14.153Z</time></trkpt><trkpt lat="46.1148217" lon="12.9683217"><ele>137.0</ele><time>2026-03-28T11:29:15.152Z</time></trkpt><trkpt lat="46.1149183" lon="12.9683867"><ele>137.0</ele><time>2026-03-28T11:29:17.152Z</time></trkpt><trkpt lat="46.1149783" lon="12.9684317"><ele>137.0</ele><time>2026-03-28T11:29:19.152Z</time></trkpt><trkpt lat="46.1150383" lon="12.9684717"><ele>137.0</ele><time>2026-03-28T11:29:21.152Z</time></trkpt><trkpt lat="46.1151083" lon="12.9685217"><ele>137.0</ele><time>2026-03-28T11:29:23.153Z</time></trkpt><trkpt lat="46.1151817" lon="12.9685617"><ele>137.0</ele><time>2026-03-28T11:29:25.152Z</time></trkpt><trkpt lat="46.1152583" lon="12.9685717"><ele>137.0</ele><time>2026-03-28T11:29:27.153Z</time></trkpt><trkpt lat="46.1153383" lon="12.9685683"><ele>137.0</ele><time>2026-03-28T11:29:29.152Z</time></trkpt><trkpt lat="46.1154133" lon="12.9686167"><ele>137.0</ele><time>2026-03-28T11:29:31.152Z</time></trkpt><trkpt lat="46.115505" lon="12.9686867"><ele>137.0</ele><time>2026-03-28T11:29:33.153Z</time></trkpt><trkpt lat="46.1155667" lon="12.9687467"><ele>137.0</ele><time>2026-03-28T11:29:34.152Z</time></trkpt><trkpt lat="46.1156267" lon="12.96882"><ele>137.00000000000003</ele><time>2026-03-28T11:29:35.152Z</time></trkpt><trkpt lat="46.1156883" lon="12.9688933"><ele>137.0</ele><time>2026-03-28T11:29:36.152Z</time></trkpt><trkpt lat="46.1157367" lon="12.9689533"><ele>137.0</ele><time>2026-03-28T11:29:37.152Z</time></trkpt><trkpt lat="46.115785" lon="12.9690417"><ele>137.0</ele><time>2026-03-28T11:29:39.152Z</time></trkpt><trkpt lat="46.11574" lon="12.9691217"><ele>137.0</ele><time>2026-03-28T11:29:43.152Z</time></trkpt><trkpt lat="46.1156733" lon="12.9691517"><ele>137.00000000000003</ele><time>2026-03-28T11:29:47.153Z</time></trkpt><trkpt lat="46.11562" lon="12.96923"><ele>137.0</ele><time>2026-03-28T11:29:50.152Z</time></trkpt><trkpt lat="46.115555" lon="12.9693417"><ele>137.16666666666666</ele><time>2026-03-28T11:29:52.152Z</time></trkpt><trkpt lat="46.11549" lon="12.96944"><ele>137.33333333333331</ele><time>2026-03-28T11:29:54.152Z</time></trkpt><trkpt lat="46.1154283" lon="12.969525"><ele>137.5</ele><time>2026-03-28T11:29:56.152Z</time></trkpt><trkpt lat="46.1153417" lon="12.9696333"><ele>137.66666666666666</ele><time>2026-03-28T11:29:58.152Z</time></trkpt><trkpt lat="46.1152917" lon="12.969695"><ele>137.83333333333334</ele><time>2026-03-28T11:29:59.152Z</time></trkpt><trkpt lat="46.1152467" lon="12.969765"><ele>138.0</ele><time>2026-03-28T11:30:00.153Z</time></trkpt><trkpt lat="46.1152233" lon="12.96986"><ele>138.0</ele><time>2026-03-28T11:30:01.153Z</time></trkpt><trkpt lat="46.115195" lon="12.9699683"><ele>138.0</ele><time>2026-03-28T11:30:02.152Z</time></trkpt><trkpt lat="46.1151733" lon="12.9700967"><ele>138.0</ele><time>2026-03-28T11:30:03.152Z</time></trkpt><trkpt lat="46.115165" lon="12.970245"><ele>138.0</ele><time>2026-03-28T11:30:04.152Z</time></trkpt><trkpt lat="46.115155" lon="12.9703983"><ele>138.0</ele><time>2026-03-28T11:30:05.152Z</time></trkpt><trkpt lat="46.1151483" lon="12.97054"><ele>138.25</ele><time>2026-03-28T11:30:06.153Z</time></trkpt><trkpt lat="46.1151317" lon="12.9706867"><ele>138.5</ele><time>2026-03-28T11:30:07.152Z</time></trkpt><trkpt lat="46.1150967" lon="12.9708417"><ele>138.75</ele><time>2026-03-28T11:30:08.153Z</time></trkpt><trkpt lat="46.1150583" lon="12.9710167"><ele>139.0</ele><time>2026-03-28T11:30:09.153Z</time></trkpt><trkpt lat="46.1150167" lon="12.9711867"><ele>139.0</ele><time>2026-03-28T11:30:10.153Z</time></trkpt><trkpt lat="46.11498" lon="12.9713583"><ele>139.0</ele><time>2026-03-28T11:30:11.152Z</time></trkpt><trkpt lat="46.114945" lon="12.9715167"><ele>139.0</ele><time>2026-03-28T11:30:12.153Z</time></trkpt><trkpt lat="46.1148983" lon="12.971685"><ele>139.0</ele><time>2026-03-28T11:30:13.153Z</time></trkpt><trkpt lat="46.1148517" lon="12.9718533"><ele>138.75</ele><time>2026-03-28T11:30:14.152Z</time></trkpt><trkpt lat="46.1148028" lon="12.9720172"><ele>138.5</ele><time>2026-03-28T11:30:15.152Z</time></trkpt><trkpt lat="46.114759" lon="12.9721885"><ele>138.25</ele><time>2026-03-28T11:30:16.152Z</time></trkpt><trkpt lat="46.1147267" lon="12.9723629"><ele>138.0</ele><time>2026-03-28T11:30:17.152Z</time></trkpt><trkpt lat="46.1146985" lon="12.9725476"><ele>138.0</ele><time>2026-03-28T11:30:18.152Z</time></trkpt><trkpt lat="46.1146674" lon="12.9727365"><ele>138.0</ele><time>2026-03-28T11:30:19.152Z</time></trkpt><trkpt lat="46.1146386" lon="12.9729275"><ele>138.0</ele><time>2026-03-28T11:30:20.152Z</time></trkpt><trkpt lat="46.114609" lon="12.9731198"><ele>138.0</ele><time>2026-03-28T11:30:21.152Z</time></trkpt><trkpt lat="46.1145788" lon="12.9733153"><ele>138.25</ele><time>2026-03-28T11:30:22.153Z</time></trkpt><trkpt lat="46.1145489" lon="12.973505"><ele>138.5</ele><time>2026-03-28T11:30:23.153Z</time></trkpt><trkpt lat="46.1145166" lon="12.9736814"><ele>138.75</ele><time>2026-03-28T11:30:24.153Z</time></trkpt><trkpt lat="46.1144817" lon="12.9738276"><ele>139.0</ele><time>2026-03-28T11:30:25.152Z</time></trkpt><trkpt lat="46.1144311" lon="12.9739518"><ele>139.0</ele><time>2026-03-28T11:30:26.152Z</time></trkpt><trkpt lat="46.1143688" lon="12.9740495"><ele>139.0</ele><time>2026-03-28T11:30:27.152Z</time></trkpt><trkpt lat="46.1142896" lon="12.9741386"><ele>139.0</ele><time>2026-03-28T11:30:28.152Z</time></trkpt><trkpt lat="46.1141841" lon="12.9742426"><ele>139.0</ele><time>2026-03-28T11:30:29.152Z</time></trkpt><trkpt lat="46.1140658" lon="12.9743597"><ele>138.25</ele><time>2026-03-28T11:30:30.152Z</time></trkpt><trkpt lat="46.1139563" lon="12.9744814"><ele>137.5</ele><time>2026-03-28T11:30:31.152Z</time></trkpt><trkpt lat="46.1138506" lon="12.9746144"><ele>136.75</ele><time>2026-03-28T11:30:32.152Z</time></trkpt><trkpt lat="46.1137456" lon="12.9747608"><ele>136.0</ele><time>2026-03-28T11:30:33.152Z</time></trkpt><trkpt lat="46.1136471" lon="12.9749106"><ele>136.25</ele><time>2026-03-28T11:30:34.152Z</time></trkpt><trkpt lat="46.1135643" lon="12.9750556"><ele>136.5</ele><time>2026-03-28T11:30:35.153Z</time></trkpt><trkpt lat="46.1134829" lon="12.9751981"><ele>136.75</ele><time>2026-03-28T11:30:36.152Z</time></trkpt><trkpt lat="46.1133995" lon="12.9753374"><ele>137.0</ele><time>2026-03-28T11:30:37.153Z</time></trkpt><trkpt lat="46.1133119" lon="12.9754626"><ele>137.2</ele><time>2026-03-28T11:30:38.152Z</time></trkpt><trkpt lat="46.1132229" lon="12.9755754"><ele>137.39999999999998</ele><time>2026-03-28T11:30:39.152Z</time></trkpt><trkpt lat="46.1131401" lon="12.9756738"><ele>137.60000000000002</ele><time>2026-03-28T11:30:40.152Z</time></trkpt><trkpt lat="46.1130582" lon="12.975753"><ele>137.8</ele><time>2026-03-28T11:30:41.152Z</time></trkpt><trkpt lat="46.1129733" lon="12.9758131"><ele>138.0</ele><time>2026-03-28T11:30:42.152Z</time></trkpt><trkpt lat="46.1128825" lon="12.9758675"><ele>138.0</ele><time>2026-03-28T11:30:43.152Z</time></trkpt><trkpt lat="46.1128041" lon="12.9759166"><ele>138.0</ele><time>2026-03-28T11:30:44.152Z</time></trkpt><trkpt lat="46.1127421" lon="12.9759741"><ele>138.0</ele><time>2026-03-28T11:30:45.152Z</time></trkpt><trkpt lat="46.1126991" lon="12.9760489"><ele>138.0</ele><time>2026-03-28T11:30:46.152Z</time></trkpt><trkpt lat="46.112671" lon="12.9762076"><ele>138.0</ele><time>2026-03-28T11:30:48.152Z</time></trkpt><trkpt lat="46.1127263" lon="12.9763207"><ele>138.0</ele><time>2026-03-28T11:30:50.152Z</time></trkpt><trkpt lat="46.1127923" lon="12.9763528"><ele>138.0</ele><time>2026-03-28T11:30:51.152Z</time></trkpt><trkpt lat="46.112892" lon="12.9763762"><ele>138.0</ele><time>2026-03-28T11:30:52.152Z</time></trkpt><trkpt lat="46.1130209" lon="12.9763983"><ele>138.0</ele><time>2026-03-28T11:30:53.152Z</time></trkpt><trkpt lat="46.1131651" lon="12.9764215"><ele>138.0</ele><time>2026-03-28T11:30:54.152Z</time></trkpt><trkpt lat="46.1133141" lon="12.9764397"><ele>138.0</ele><time>2026-03-28T11:30:55.152Z</time></trkpt><trkpt lat="46.1134507" lon="12.9764653"><ele>138.0</ele><time>2026-03-28T11:30:56.152Z</time></trkpt><trkpt lat="46.113587" lon="12.976496"><ele>138.0</ele><time>2026-03-28T11:30:57.152Z</time></trkpt><trkpt lat="46.1137366" lon="12.9765226"><ele>138.0</ele><time>2026-03-28T11:30:58.152Z</time></trkpt><trkpt lat="46.1139083" lon="12.9765433"><ele>139.0</ele><time>2026-03-28T11:30:59.152Z</time></trkpt><trkpt lat="46.11409" lon="12.9765667"><ele>140.0</ele><time>2026-03-28T11:31:00.152Z</time></trkpt><trkpt lat="46.1142583" lon="12.9765867"><ele>141.0</ele><time>2026-03-28T11:31:01.152Z</time></trkpt><trkpt lat="46.1144033" lon="12.9766"><ele>141.0</ele><time>2026-03-28T11:31:02.152Z</time></trkpt><trkpt lat="46.114525" lon="12.9766067"><ele>141.0</ele><time>2026-03-28T11:31:03.152Z</time></trkpt><trkpt lat="46.1146217" lon="12.9766117"><ele>141.0</ele><time>2026-03-28T11:31:04.152Z</time></trkpt><trkpt lat="46.1147" lon="12.9766117"><ele>141.0</ele><time>2026-03-28T11:31:05.152Z</time></trkpt><trkpt lat="46.1147817" lon="12.9766017"><ele>141.0</ele><time>2026-03-28T11:31:07.152Z</time></trkpt><trkpt lat="46.1148067" lon="12.9767333"><ele>141.0</ele><time>2026-03-28T11:31:10.152Z</time></trkpt><trkpt lat="46.1147883" lon="12.97684"><ele>141.0</ele><time>2026-03-28T11:31:11.153Z</time></trkpt><trkpt lat="46.114765" lon="12.9769717"><ele>141.0</ele><time>2026-03-28T11:31:12.152Z</time></trkpt><trkpt lat="46.1147383" lon="12.9771317"><ele>141.0</ele><time>2026-03-28T11:31:13.152Z</time></trkpt><trkpt lat="46.1147117" lon="12.97731"><ele>141.0</ele><time>2026-03-28T11:31:14.153Z</time></trkpt><trkpt lat="46.1146833" lon="12.9775017"><ele>141.0</ele><time>2026-03-28T11:31:15.152Z</time></trkpt><trkpt lat="46.114655" lon="12.97771"><ele>141.0</ele><time>2026-03-28T11:31:16.152Z</time></trkpt><trkpt lat="46.1146317" lon="12.977915"><ele>141.0</ele><time>2026-03-28T11:31:17.152Z</time></trkpt><trkpt lat="46.11461" lon="12.9781167"><ele>141.0</ele><time>2026-03-28T11:31:18.152Z</time></trkpt><trkpt lat="46.11459" lon="12.9783133"><ele>140.5</ele><time>2026-03-28T11:31:19.152Z</time></trkpt><trkpt lat="46.11457" lon="12.9785117"><ele>140.0</ele><time>2026-03-28T11:31:20.152Z</time></trkpt><trkpt lat="46.1145483" lon="12.9787233"><ele>139.5</ele><time>2026-03-28T11:31:21.153Z</time></trkpt><trkpt lat="46.11453" lon="12.9789367"><ele>139.0</ele><time>2026-03-28T11:31:22.153Z</time></trkpt><trkpt lat="46.1145083" lon="12.979155"><ele>139.66666666666669</ele><time>2026-03-28T11:31:23.153Z</time></trkpt><trkpt lat="46.1144833" lon="12.9793783"><ele>140.33333333333334</ele><time>2026-03-28T11:31:24.152Z</time></trkpt><trkpt lat="46.1144617" lon="12.9796083"><ele>141.0</ele><time>2026-03-28T11:31:25.152Z</time></trkpt><trkpt lat="46.1144367" lon="12.9798517"><ele>141.33333333333334</ele><time>2026-03-28T11:31:26.153Z</time></trkpt><trkpt lat="46.114415" lon="12.980095"><ele>141.66666666666669</ele><time>2026-03-28T11:31:27.153Z</time></trkpt><trkpt lat="46.1143917" lon="12.9803467"><ele>142.0</ele><time>2026-03-28T11:31:28.152Z</time></trkpt><trkpt lat="46.11436" lon="12.9806283"><ele>141.66666666666669</ele><time>2026-03-28T11:31:29.153Z</time></trkpt><trkpt lat="46.1143283" lon="12.98094"><ele>141.33333333333334</ele><time>2026-03-28T11:31:30.153Z</time></trkpt><trkpt lat="46.1142983" lon="12.9812467"><ele>141.0</ele><time>2026-03-28T11:31:31.152Z</time></trkpt><trkpt lat="46.114265" lon="12.9815567"><ele>140.66666666666666</ele><time>2026-03-28T11:31:32.152Z</time></trkpt><trkpt lat="46.1142317" lon="12.9818533"><ele>140.33333333333331</ele><time>2026-03-28T11:31:33.152Z</time></trkpt><trkpt lat="46.1142017" lon="12.982145"><ele>140.0</ele><time>2026-03-28T11:31:34.152Z</time></trkpt><trkpt lat="46.11417" lon="12.9824417"><ele>140.33333333333331</ele><time>2026-03-28T11:31:35.152Z</time></trkpt><trkpt lat="46.1141383" lon="12.98273"><ele>140.66666666666666</ele><time>2026-03-28T11:31:36.153Z</time></trkpt><trkpt lat="46.114105" lon="12.983015"><ele>141.0</ele><time>2026-03-28T11:31:37.152Z</time></trkpt><trkpt lat="46.1140717" lon="12.983305"><ele>141.0</ele><time>2026-03-28T11:31:38.152Z</time></trkpt><trkpt lat="46.1140483" lon="12.9835917"><ele>141.0</ele><time>2026-03-28T11:31:39.152Z</time></trkpt><trkpt lat="46.1140167" lon="12.9838783"><ele>141.0</ele><time>2026-03-28T11:31:40.152Z</time></trkpt><trkpt lat="46.1139833" lon="12.9841633"><ele>141.0</ele><time>2026-03-28T11:31:41.152Z</time></trkpt><trkpt lat="46.1139533" lon="12.9844467"><ele>141.0</ele><time>2026-03-28T11:31:42.152Z</time></trkpt><trkpt lat="46.11392" lon="12.9847317"><ele>141.0</ele><time>2026-03-28T11:31:43.152Z</time></trkpt><trkpt lat="46.1138917" lon="12.985015"><ele>141.0</ele><time>2026-03-28T11:31:44.152Z</time></trkpt><trkpt lat="46.1138617" lon="12.9852933"><ele>141.0</ele><time>2026-03-28T11:31:45.153Z</time></trkpt><trkpt lat="46.1138317" lon="12.985575"><ele>141.0</ele><time>2026-03-28T11:31:46.152Z</time></trkpt><trkpt lat="46.1138067" lon="12.9858417"><ele>141.0</ele><time>2026-03-28T11:31:47.152Z</time></trkpt><trkpt lat="46.1137833" lon="12.986075"><ele>141.0</ele><time>2026-03-28T11:31:48.152Z</time></trkpt><trkpt lat="46.113765" lon="12.98627"><ele>141.0</ele><time>2026-03-28T11:31:49.152Z</time></trkpt><trkpt lat="46.1137517" lon="12.986435"><ele>141.0</ele><time>2026-03-28T11:31:50.153Z</time></trkpt><trkpt lat="46.1137367" lon="12.9865683"><ele>141.0</ele><time>2026-03-28T11:31:51.152Z</time></trkpt><trkpt lat="46.1137317" lon="12.9866633"><ele>141.0</ele><time>2026-03-28T11:31:52.152Z</time></trkpt><trkpt lat="46.11375" lon="12.9867967"><ele>141.0</ele><time>2026-03-28T11:31:54.152Z</time></trkpt><trkpt lat="46.1138183" lon="12.9868383"><ele>141.0</ele><time>2026-03-28T11:31:56.152Z</time></trkpt><trkpt lat="46.113935" lon="12.9868367"><ele>141.0</ele><time>2026-03-28T11:31:58.152Z</time></trkpt><trkpt lat="46.114015" lon="12.9868517"><ele>141.0</ele><time>2026-03-28T11:31:59.152Z</time></trkpt><trkpt lat="46.114105" lon="12.9868633"><ele>141.16666666666666</ele><time>2026-03-28T11:32:00.152Z</time></trkpt><trkpt lat="46.1141967" lon="12.986865"><ele>141.33333333333334</ele><time>2026-03-28T11:32:01.153Z</time></trkpt><trkpt lat="46.1142783" lon="12.9868567"><ele>141.5</ele><time>2026-03-28T11:32:02.152Z</time></trkpt><trkpt lat="46.114355" lon="12.986845"><ele>141.66666666666669</ele><time>2026-03-28T11:32:03.152Z</time></trkpt><trkpt lat="46.1144233" lon="12.9868267"><ele>141.83333333333334</ele><time>2026-03-28T11:32:04.152Z</time></trkpt><trkpt lat="46.1145" lon="12.9868"><ele>142.0</ele><time>2026-03-28T11:32:05.152Z</time></trkpt><trkpt lat="46.114565" lon="12.9867783"><ele>142.0</ele><time>2026-03-28T11:32:06.153Z</time></trkpt><trkpt lat="46.11463" lon="12.9868167"><ele>142.0</ele><time>2026-03-28T11:32:08.152Z</time></trkpt><trkpt lat="46.1146417" lon="12.986955"><ele>142.0</ele><time>2026-03-28T11:32:10.153Z</time></trkpt><trkpt lat="46.114655" lon="12.9871017"><ele>142.0</ele><time>2026-03-28T11:32:11.152Z</time></trkpt><trkpt lat="46.114675" lon="12.9872883"><ele>142.0</ele><time>2026-03-28T11:32:12.152Z</time></trkpt><trkpt lat="46.1146933" lon="12.9874917"><ele>142.75</ele><time>2026-03-28T11:32:13.153Z</time></trkpt><trkpt lat="46.11471" lon="12.9876833"><ele>143.5</ele><time>2026-03-28T11:32:14.152Z</time></trkpt><trkpt lat="46.11472" lon="12.987855"><ele>144.25</ele><time>2026-03-28T11:32:15.152Z</time></trkpt><trkpt lat="46.1147333" lon="12.9880217"><ele>145.0</ele><time>2026-03-28T11:32:16.152Z</time></trkpt><trkpt lat="46.11474" lon="12.9882067"><ele>144.75</ele><time>2026-03-28T11:32:17.152Z</time></trkpt><trkpt lat="46.114755" lon="12.9884083"><ele>144.5</ele><time>2026-03-28T11:32:18.153Z</time></trkpt><trkpt lat="46.1147717" lon="12.9886117"><ele>144.25</ele><time>2026-03-28T11:32:19.152Z</time></trkpt><trkpt lat="46.1147917" lon="12.9888083"><ele>144.0</ele><time>2026-03-28T11:32:20.152Z</time></trkpt><trkpt lat="46.1148183" lon="12.989005"><ele>144.0</ele><time>2026-03-28T11:32:21.152Z</time></trkpt><trkpt lat="46.11485" lon="12.9891933"><ele>144.0</ele><time>2026-03-28T11:32:22.152Z</time></trkpt><trkpt lat="46.11488" lon="12.9893917"><ele>144.0</ele><time>2026-03-28T11:32:23.152Z</time></trkpt><trkpt lat="46.114915" lon="12.98959"><ele>144.0</ele><time>2026-03-28T11:32:24.153Z</time></trkpt><trkpt lat="46.1149483" lon="12.989785"><ele>144.0</ele><time>2026-03-28T11:32:25.153Z</time></trkpt><trkpt lat="46.1149817" lon="12.9899833"><ele>144.0</ele><time>2026-03-28T11:32:26.152Z</time></trkpt><trkpt lat="46.11501" lon="12.9901867"><ele>144.0</ele><time>2026-03-28T11:32:27.152Z</time></trkpt><trkpt lat="46.11504" lon="12.99039"><ele>144.0</ele><time>2026-03-28T11:32:28.152Z</time></trkpt><trkpt lat="46.1150617" lon="12.99059"><ele>144.0</ele><time>2026-03-28T11:32:29.152Z</time></trkpt><trkpt lat="46.1150883" lon="12.99077"><ele>144.0</ele><time>2026-03-28T11:32:30.153Z</time></trkpt><trkpt lat="46.1151033" lon="12.9909383"><ele>144.0</ele><time>2026-03-28T11:32:31.152Z</time></trkpt><trkpt lat="46.1151217" lon="12.9911083"><ele>144.0</ele><time>2026-03-28T11:32:32.153Z</time></trkpt><trkpt lat="46.1151433" lon="12.991295"><ele>144.0</ele><time>2026-03-28T11:32:33.152Z</time></trkpt><trkpt lat="46.1151667" lon="12.9914833"><ele>144.0</ele><time>2026-03-28T11:32:34.152Z</time></trkpt><trkpt lat="46.1152067" lon="12.9916617"><ele>144.0</ele><time>2026-03-28T11:32:35.152Z</time></trkpt><trkpt lat="46.1152483" lon="12.99181"><ele>144.0</ele><time>2026-03-28T11:32:36.152Z</time></trkpt><trkpt lat="46.1152883" lon="12.9919383"><ele>144.2</ele><time>2026-03-28T11:32:37.152Z</time></trkpt><trkpt lat="46.1153283" lon="12.992055"><ele>144.4</ele><time>2026-03-28T11:32:38.153Z</time></trkpt><trkpt lat="46.1153617" lon="12.9921583"><ele>144.6</ele><time>2026-03-28T11:32:39.152Z</time></trkpt><trkpt lat="46.1153917" lon="12.9922517"><ele>144.8</ele><time>2026-03-28T11:32:40.153Z</time></trkpt><trkpt lat="46.115435" lon="12.9923833"><ele>145.0</ele><time>2026-03-28T11:32:42.152Z</time></trkpt><trkpt lat="46.1154933" lon="12.99254"><ele>144.66666666666669</ele><time>2026-03-28T11:32:50.153Z</time></trkpt><trkpt lat="46.1155267" lon="12.9926317"><ele>144.33333333333334</ele><time>2026-03-28T11:32:51.152Z</time></trkpt><trkpt lat="46.1155567" lon="12.9927133"><ele>144.0</ele><time>2026-03-28T11:32:52.152Z</time></trkpt><trkpt lat="46.1155967" lon="12.9928117"><ele>143.66666666666666</ele><time>2026-03-28T11:32:54.152Z</time></trkpt><trkpt lat="46.1155767" lon="12.9929267"><ele>143.33333333333331</ele><time>2026-03-28T11:32:56.152Z</time></trkpt><trkpt lat="46.1155417" lon="12.9930317"><ele>143.0</ele><time>2026-03-28T11:32:57.153Z</time></trkpt><trkpt lat="46.115495" lon="12.9931833"><ele>143.5</ele><time>2026-03-28T11:32:58.152Z</time></trkpt><trkpt lat="46.115445" lon="12.9933733"><ele>144.0</ele><time>2026-03-28T11:32:59.152Z</time></trkpt><trkpt lat="46.1154" lon="12.993565"><ele>144.5</ele><time>2026-03-28T11:33:00.152Z</time></trkpt><trkpt lat="46.1153667" lon="12.9937483"><ele>145.0</ele><time>2026-03-28T11:33:01.153Z</time></trkpt><trkpt lat="46.115325" lon="12.9939333"><ele>145.0</ele><time>2026-03-28T11:33:02.153Z</time></trkpt><trkpt lat="46.115275" lon="12.9941083"><ele>145.0</ele><time>2026-03-28T11:33:03.152Z</time></trkpt><trkpt lat="46.1152283" lon="12.99428"><ele>145.0</ele><time>2026-03-28T11:33:04.153Z</time></trkpt><trkpt lat="46.1151933" lon="12.99446"><ele>145.0</ele><time>2026-03-28T11:33:05.152Z</time></trkpt><trkpt lat="46.1151633" lon="12.9946483"><ele>145.25</ele><time>2026-03-28T11:33:06.152Z</time></trkpt><trkpt lat="46.1151417" lon="12.99484"><ele>145.5</ele><time>2026-03-28T11:33:07.153Z</time></trkpt><trkpt lat="46.1151233" lon="12.99504"><ele>145.75</ele><time>2026-03-28T11:33:08.152Z</time></trkpt><trkpt lat="46.1151083" lon="12.9952417"><ele>146.0</ele><time>2026-03-28T11:33:09.152Z</time></trkpt><trkpt lat="46.1150967" lon="12.9954467"><ele>146.0</ele><time>2026-03-28T11:33:10.153Z</time></trkpt><trkpt lat="46.1150867" lon="12.9956483"><ele>146.0</ele><time>2026-03-28T11:33:11.152Z</time></trkpt><trkpt lat="46.1150783" lon="12.9958533"><ele>146.0</ele><time>2026-03-28T11:33:12.152Z</time></trkpt><trkpt lat="46.1150733" lon="12.9960667"><ele>146.0</ele><time>2026-03-28T11:33:13.152Z</time></trkpt><trkpt lat="46.11506" lon="12.996285"><ele>145.75</ele><time>2026-03-28T11:33:14.152Z</time></trkpt><trkpt lat="46.115045" lon="12.99649"><ele>145.5</ele><time>2026-03-28T11:33:15.152Z</time></trkpt><trkpt lat="46.1150267" lon="12.99669"><ele>145.25</ele><time>2026-03-28T11:33:16.153Z</time></trkpt><trkpt lat="46.1150083" lon="12.9969067"><ele>145.0</ele><time>2026-03-28T11:33:17.152Z</time></trkpt><trkpt lat="46.115" lon="12.9971117"><ele>145.0</ele><time>2026-03-28T11:33:18.152Z</time></trkpt><trkpt lat="46.1149867" lon="12.9973033"><ele>145.0</ele><time>2026-03-28T11:33:19.152Z</time></trkpt><trkpt lat="46.11497" lon="12.997485"><ele>145.0</ele><time>2026-03-28T11:33:20.152Z</time></trkpt><trkpt lat="46.11494" lon="12.9976767"><ele>145.0</ele><time>2026-03-28T11:33:21.152Z</time></trkpt><trkpt lat="46.114895" lon="12.9978833"><ele>145.0</ele><time>2026-03-28T11:33:22.152Z</time></trkpt><trkpt lat="46.11485" lon="12.998085"><ele>145.0</ele><time>2026-03-28T11:33:23.153Z</time></trkpt><trkpt lat="46.1148067" lon="12.9982717"><ele>145.0</ele><time>2026-03-28T11:33:24.152Z</time></trkpt><trkpt lat="46.11475" lon="12.9984367"><ele>145.0</ele><time>2026-03-28T11:33:25.152Z</time></trkpt><trkpt lat="46.1146933" lon="12.99859"><ele>145.0</ele><time>2026-03-28T11:33:26.152Z</time></trkpt><trkpt lat="46.1146383" lon="12.99875"><ele>145.0</ele><time>2026-03-28T11:33:27.152Z</time></trkpt><trkpt lat="46.1145967" lon="12.998915"><ele>145.0</ele><time>2026-03-28T11:33:28.152Z</time></trkpt><trkpt lat="46.11456" lon="12.9991033"><ele>145.0</ele><time>2026-03-28T11:33:29.152Z</time></trkpt><trkpt lat="46.114515" lon="12.9993283"><ele>145.0</ele><time>2026-03-28T11:33:30.153Z</time></trkpt><trkpt lat="46.1144733" lon="12.9995467"><ele>145.0</ele><time>2026-03-28T11:33:31.153Z</time></trkpt><trkpt lat="46.1144317" lon="12.9997683"><ele>145.0</ele><time>2026-03-28T11:33:32.153Z</time></trkpt><trkpt lat="46.1143933" lon="12.99998"><ele>145.0</ele><time>2026-03-28T11:33:33.152Z</time></trkpt><trkpt lat="46.1143583" lon="13.0001833"><ele>145.0</ele><time>2026-03-28T11:33:34.152Z</time></trkpt><trkpt lat="46.114325" lon="13.00037"><ele>145.0</ele><time>2026-03-28T11:33:35.152Z</time></trkpt><trkpt lat="46.1142983" lon="13.0005467"><ele>145.0</ele><time>2026-03-28T11:33:36.152Z</time></trkpt><trkpt lat="46.11428" lon="13.0007167"><ele>145.0</ele><time>2026-03-28T11:33:37.152Z</time></trkpt><trkpt lat="46.1142583" lon="13.0008817"><ele>145.0</ele><time>2026-03-28T11:33:38.152Z</time></trkpt><trkpt lat="46.1142383" lon="13.001055"><ele>145.0</ele><time>2026-03-28T11:33:39.153Z</time></trkpt><trkpt lat="46.1142183" lon="13.0012133"><ele>145.0</ele><time>2026-03-28T11:33:40.153Z</time></trkpt><trkpt lat="46.1142017" lon="13.0013667"><ele>145.0</ele><time>2026-03-28T11:33:41.152Z</time></trkpt><trkpt lat="46.1141867" lon="13.001505"><ele>145.0</ele><time>2026-03-28T11:33:42.152Z</time></trkpt><trkpt lat="46.1141717" lon="13.0016267"><ele>145.0</ele><time>2026-03-28T11:33:43.152Z</time></trkpt><trkpt lat="46.1141617" lon="13.0017317"><ele>145.0</ele><time>2026-03-28T11:33:44.153Z</time></trkpt><trkpt lat="46.1141517" lon="13.0018883"><ele>145.0</ele><time>2026-03-28T11:33:46.152Z</time></trkpt><trkpt lat="46.11423" lon="13.0020067"><ele>145.2</ele><time>2026-03-28T11:33:48.152Z</time></trkpt><trkpt lat="46.1143267" lon="13.002085"><ele>145.4</ele><time>2026-03-28T11:33:49.152Z</time></trkpt><trkpt lat="46.114425" lon="13.0021717"><ele>145.6</ele><time>2026-03-28T11:33:50.152Z</time></trkpt><trkpt lat="46.11452" lon="13.0022583"><ele>145.8</ele><time>2026-03-28T11:33:51.153Z</time></trkpt><trkpt lat="46.1145967" lon="13.0023333"><ele>146.0</ele><time>2026-03-28T11:33:52.152Z</time></trkpt><trkpt lat="46.1146583" lon="13.0023883"><ele>146.0</ele><time>2026-03-28T11:33:53.152Z</time></trkpt><trkpt lat="46.1147583" lon="13.0024867"><ele>146.0</ele><time>2026-03-28T11:33:55.152Z</time></trkpt><trkpt lat="46.1148267" lon="13.0025517"><ele>146.0</ele><time>2026-03-28T11:33:57.152Z</time></trkpt><trkpt lat="46.1148317" lon="13.002655"><ele>146.0</ele><time>2026-03-28T11:34:00.152Z</time></trkpt><trkpt lat="46.1147533" lon="13.0027583"><ele>146.0</ele><time>2026-03-28T11:34:02.153Z</time></trkpt><trkpt lat="46.1146683" lon="13.00284"><ele>146.25</ele><time>2026-03-28T11:34:03.153Z</time></trkpt><trkpt lat="46.1145617" lon="13.0029117"><ele>146.5</ele><time>2026-03-28T11:34:04.152Z</time></trkpt><trkpt lat="46.1144317" lon="13.00297"><ele>146.75</ele><time>2026-03-28T11:34:05.153Z</time></trkpt><trkpt lat="46.1143033" lon="13.0030083"><ele>147.0</ele><time>2026-03-28T11:34:06.152Z</time></trkpt><trkpt lat="46.114175" lon="13.0030517"><ele>146.75</ele><time>2026-03-28T11:34:07.152Z</time></trkpt><trkpt lat="46.1140467" lon="13.00309"><ele>146.5</ele><time>2026-03-28T11:34:08.152Z</time></trkpt><trkpt lat="46.11392" lon="13.00313"><ele>146.25</ele><time>2026-03-28T11:34:09.152Z</time></trkpt><trkpt lat="46.1138" lon="13.0031717"><ele>146.0</ele><time>2026-03-28T11:34:10.153Z</time></trkpt><trkpt lat="46.1136867" lon="13.0032067"><ele>146.0</ele><time>2026-03-28T11:34:11.152Z</time></trkpt><trkpt lat="46.1135717" lon="13.0032433"><ele>146.0</ele><time>2026-03-28T11:34:12.153Z</time></trkpt><trkpt lat="46.1134517" lon="13.00327"><ele>146.0</ele><time>2026-03-28T11:34:13.152Z</time></trkpt><trkpt lat="46.1133217" lon="13.0033133"><ele>146.0</ele><time>2026-03-28T11:34:14.153Z</time></trkpt><trkpt lat="46.113195" lon="13.0033567"><ele>145.75</ele><time>2026-03-28T11:34:15.152Z</time></trkpt><trkpt lat="46.1130667" lon="13.00339"><ele>145.5</ele><time>2026-03-28T11:34:16.152Z</time></trkpt><trkpt lat="46.1129383" lon="13.003425"><ele>145.25</ele><time>2026-03-28T11:34:17.152Z</time></trkpt><trkpt lat="46.1128183" lon="13.0034483"><ele>145.0</ele><time>2026-03-28T11:34:18.152Z</time></trkpt><trkpt lat="46.1127083" lon="13.0034767"><ele>145.0</ele><time>2026-03-28T11:34:19.152Z</time></trkpt><trkpt lat="46.1126017" lon="13.0034983"><ele>145.0</ele><time>2026-03-28T11:34:20.152Z</time></trkpt><trkpt lat="46.1125033" lon="13.0035083"><ele>145.0</ele><time>2026-03-28T11:34:21.152Z</time></trkpt><trkpt lat="46.1124183" lon="13.0035083"><ele>145.0</ele><time>2026-03-28T11:34:22.152Z</time></trkpt><trkpt lat="46.1123383" lon="13.003485"><ele>145.0</ele><time>2026-03-28T11:34:23.152Z</time></trkpt><trkpt lat="46.1122767" lon="13.0034517"><ele>145.0</ele><time>2026-03-28T11:34:24.152Z</time></trkpt><trkpt lat="46.1122033" lon="13.00339"><ele>145.2</ele><time>2026-03-28T11:34:26.152Z</time></trkpt><trkpt lat="46.1121217" lon="13.00333"><ele>145.4</ele><time>2026-03-28T11:34:29.152Z</time></trkpt><trkpt lat="46.11203" lon="13.0033667"><ele>145.6</ele><time>2026-03-28T11:34:31.152Z</time></trkpt><trkpt lat="46.11198" lon="13.0035267"><ele>145.8</ele><time>2026-03-28T11:34:33.152Z</time></trkpt><trkpt lat="46.1119533" lon="13.0036533"><ele>146.0</ele><time>2026-03-28T11:34:34.152Z</time></trkpt><trkpt lat="46.1119267" lon="13.0037967"><ele>146.0</ele><time>2026-03-28T11:34:35.152Z</time></trkpt><trkpt lat="46.1119083" lon="13.0039417"><ele>146.0</ele><time>2026-03-28T11:34:36.152Z</time></trkpt><trkpt lat="46.1118917" lon="13.00408"><ele>146.0</ele><time>2026-03-28T11:34:37.152Z</time></trkpt><trkpt lat="46.11188" lon="13.0042167"><ele>146.0</ele><time>2026-03-28T11:34:38.152Z</time></trkpt><trkpt lat="46.1118717" lon="13.0043667"><ele>146.0</ele><time>2026-03-28T11:34:39.153Z</time></trkpt><trkpt lat="46.111865" lon="13.0045233"><ele>145.6</ele><time>2026-03-28T11:34:40.152Z</time></trkpt><trkpt lat="46.111865" lon="13.0046883"><ele>145.2</ele><time>2026-03-28T11:34:41.153Z</time></trkpt><trkpt lat="46.1118567" lon="13.0048483"><ele>144.8</ele><time>2026-03-28T11:34:42.152Z</time></trkpt><trkpt lat="46.1118517" lon="13.0050017"><ele>144.4</ele><time>2026-03-28T11:34:43.153Z</time></trkpt><trkpt lat="46.1118367" lon="13.0051533"><ele>144.0</ele><time>2026-03-28T11:34:44.152Z</time></trkpt><trkpt lat="46.11181" lon="13.005315"><ele>143.25</ele><time>2026-03-28T11:34:45.152Z</time></trkpt><trkpt lat="46.1117717" lon="13.00548"><ele>142.5</ele><time>2026-03-28T11:34:46.153Z</time></trkpt><trkpt lat="46.1117333" lon="13.0056517"><ele>141.75</ele><time>2026-03-28T11:34:47.152Z</time></trkpt><trkpt lat="46.1116883" lon="13.0058267"><ele>141.0</ele><time>2026-03-28T11:34:48.153Z</time></trkpt><trkpt lat="46.1116567" lon="13.0060017"><ele>140.0</ele><time>2026-03-28T11:34:49.152Z</time></trkpt><trkpt lat="46.1116467" lon="13.0061867"><ele>139.0</ele><time>2026-03-28T11:34:50.153Z</time></trkpt><trkpt lat="46.11165" lon="13.006385"><ele>138.0</ele><time>2026-03-28T11:34:51.152Z</time></trkpt><trkpt lat="46.1116783" lon="13.006575"><ele>137.0</ele><time>2026-03-28T11:34:52.152Z</time></trkpt><trkpt lat="46.1117233" lon="13.00676"><ele>135.0</ele><time>2026-03-28T11:34:53.152Z</time></trkpt><trkpt lat="46.111775" lon="13.00696"><ele>133.0</ele><time>2026-03-28T11:34:54.153Z</time></trkpt><trkpt lat="46.1118367" lon="13.0071783"><ele>131.0</ele><time>2026-03-28T11:34:55.152Z</time></trkpt><trkpt lat="46.1118867" lon="13.0073917"><ele>130.5</ele><time>2026-03-28T11:34:56.153Z</time></trkpt><trkpt lat="46.111935" lon="13.0076033"><ele>130.0</ele><time>2026-03-28T11:34:57.152Z</time></trkpt><trkpt lat="46.111985" lon="13.0077983"><ele>129.5</ele><time>2026-03-28T11:34:58.153Z</time></trkpt><trkpt lat="46.1120317" lon="13.00799"><ele>129.0</ele><time>2026-03-28T11:34:59.152Z</time></trkpt><trkpt lat="46.1120733" lon="13.0081717"><ele>128.75</ele><time>2026-03-28T11:35:00.152Z</time></trkpt><trkpt lat="46.112115" lon="13.0083483"><ele>128.5</ele><time>2026-03-28T11:35:01.153Z</time></trkpt><trkpt lat="46.1121517" lon="13.0085117"><ele>128.25</ele><time>2026-03-28T11:35:02.152Z</time></trkpt><trkpt lat="46.1121867" lon="13.008685"><ele>128.0</ele><time>2026-03-28T11:35:03.152Z</time></trkpt><trkpt lat="46.112225" lon="13.00886"><ele>128.0</ele><time>2026-03-28T11:35:04.152Z</time></trkpt><trkpt lat="46.112265" lon="13.009035"><ele>128.0</ele><time>2026-03-28T11:35:05.152Z</time></trkpt><trkpt lat="46.1123033" lon="13.0092133"><ele>128.0</ele><time>2026-03-28T11:35:06.152Z</time></trkpt><trkpt lat="46.1123483" lon="13.0093883"><ele>128.0</ele><time>2026-03-28T11:35:07.152Z</time></trkpt><trkpt lat="46.1123883" lon="13.0095667"><ele>127.25</ele><time>2026-03-28T11:35:08.153Z</time></trkpt><trkpt lat="46.112435" lon="13.0097383"><ele>126.5</ele><time>2026-03-28T11:35:09.152Z</time></trkpt><trkpt lat="46.1124783" lon="13.0099167"><ele>125.75</ele><time>2026-03-28T11:35:10.152Z</time></trkpt><trkpt lat="46.1125083" lon="13.0101"><ele>125.0</ele><time>2026-03-28T11:35:11.153Z</time></trkpt><trkpt lat="46.1125267" lon="13.0102983"><ele>124.5</ele><time>2026-03-28T11:35:12.152Z</time></trkpt><trkpt lat="46.1125417" lon="13.0104883"><ele>124.0</ele><time>2026-03-28T11:35:13.152Z</time></trkpt><trkpt lat="46.1125517" lon="13.0106833"><ele>123.5</ele><time>2026-03-28T11:35:14.152Z</time></trkpt><trkpt lat="46.1125567" lon="13.0108717"><ele>123.0</ele><time>2026-03-28T11:35:15.152Z</time></trkpt><trkpt lat="46.1125533" lon="13.01106"><ele>123.0</ele><time>2026-03-28T11:35:16.152Z</time></trkpt><trkpt lat="46.112555" lon="13.0112467"><ele>123.0</ele><time>2026-03-28T11:35:17.152Z</time></trkpt><trkpt lat="46.1125533" lon="13.0114367"><ele>123.0</ele><time>2026-03-28T11:35:18.152Z</time></trkpt><trkpt lat="46.112555" lon="13.0116233"><ele>123.0</ele><time>2026-03-28T11:35:19.152Z</time></trkpt><trkpt lat="46.1125517" lon="13.0118117"><ele>123.0</ele><time>2026-03-28T11:35:20.152Z</time></trkpt><trkpt lat="46.112555" lon="13.0119967"><ele>123.0</ele><time>2026-03-28T11:35:21.152Z</time></trkpt><trkpt lat="46.11256" lon="13.0121717"><ele>123.0</ele><time>2026-03-28T11:35:22.152Z</time></trkpt><trkpt lat="46.11256" lon="13.0123517"><ele>123.0</ele><time>2026-03-28T11:35:23.153Z</time></trkpt><trkpt lat="46.1125683" lon="13.0125383"><ele>123.5</ele><time>2026-03-28T11:35:24.152Z</time></trkpt><trkpt lat="46.1125717" lon="13.0127167"><ele>124.0</ele><time>2026-03-28T11:35:25.152Z</time></trkpt><trkpt lat="46.1125683" lon="13.0129"><ele>124.5</ele><time>2026-03-28T11:35:26.153Z</time></trkpt><trkpt lat="46.112555" lon="13.0130833"><ele>125.0</ele><time>2026-03-28T11:35:27.152Z</time></trkpt><trkpt lat="46.1125433" lon="13.0132617"><ele>124.83333333333333</ele><time>2026-03-28T11:35:28.153Z</time></trkpt><trkpt lat="46.11254" lon="13.01342"><ele>124.66666666666666</ele><time>2026-03-28T11:35:29.152Z</time></trkpt><trkpt lat="46.1125417" lon="13.01354"><ele>124.5</ele><time>2026-03-28T11:35:30.152Z</time></trkpt><trkpt lat="46.11254" lon="13.01367"><ele>124.33333333333334</ele><time>2026-03-28T11:35:32.152Z</time></trkpt><trkpt lat="46.11252" lon="13.01377"><ele>124.16666666666667</ele><time>2026-03-28T11:35:35.152Z</time></trkpt><trkpt lat="46.1125017" lon="13.01389"><ele>124.0</ele><time>2026-03-28T11:35:37.153Z</time></trkpt><trkpt lat="46.1124933" lon="13.0139983"><ele>124.0</ele><time>2026-03-28T11:35:38.152Z</time></trkpt><trkpt lat="46.1124883" lon="13.0141317"><ele>124.0</ele><time>2026-03-28T11:35:39.152Z</time></trkpt><trkpt lat="46.11248" lon="13.0142983"><ele>124.0</ele><time>2026-03-28T11:35:40.152Z</time></trkpt><trkpt lat="46.11247" lon="13.014475"><ele>124.0</ele><time>2026-03-28T11:35:41.152Z</time></trkpt><trkpt lat="46.11246" lon="13.0146633"><ele>123.75</ele><time>2026-03-28T11:35:42.153Z</time></trkpt><trkpt lat="46.1124517" lon="13.0148517"><ele>123.5</ele><time>2026-03-28T11:35:43.152Z</time></trkpt><trkpt lat="46.1124533" lon="13.015035"><ele>123.25</ele><time>2026-03-28T11:35:44.152Z</time></trkpt><trkpt lat="46.11246" lon="13.0152133"><ele>123.0</ele><time>2026-03-28T11:35:45.152Z</time></trkpt><trkpt lat="46.1124833" lon="13.0153733"><ele>123.0</ele><time>2026-03-28T11:35:46.152Z</time></trkpt><trkpt lat="46.1124867" lon="13.01554"><ele>123.0</ele><time>2026-03-28T11:35:47.153Z</time></trkpt><trkpt lat="46.1124833" lon="13.0157083"><ele>123.0</ele><time>2026-03-28T11:35:48.152Z</time></trkpt><trkpt lat="46.11247" lon="13.0158833"><ele>123.0</ele><time>2026-03-28T11:35:49.152Z</time></trkpt><trkpt lat="46.1124533" lon="13.0160717"><ele>123.25</ele><time>2026-03-28T11:35:50.152Z</time></trkpt><trkpt lat="46.1124383" lon="13.0162717"><ele>123.5</ele><time>2026-03-28T11:35:51.153Z</time></trkpt><trkpt lat="46.1124283" lon="13.0164733"><ele>123.75</ele><time>2026-03-28T11:35:52.152Z</time></trkpt><trkpt lat="46.1124267" lon="13.01667"><ele>124.0</ele><time>2026-03-28T11:35:53.153Z</time></trkpt><trkpt lat="46.1124383" lon="13.0168567"><ele>124.25</ele><time>2026-03-28T11:35:54.152Z</time></trkpt><trkpt lat="46.1124667" lon="13.017035"><ele>124.5</ele><time>2026-03-28T11:35:55.152Z</time></trkpt><trkpt lat="46.1125183" lon="13.0172133"><ele>124.75</ele><time>2026-03-28T11:35:56.152Z</time></trkpt><trkpt lat="46.1125817" lon="13.0173917"><ele>125.0</ele><time>2026-03-28T11:35:57.152Z</time></trkpt><trkpt lat="46.11265" lon="13.0175667"><ele>125.5</ele><time>2026-03-28T11:35:58.152Z</time></trkpt><trkpt lat="46.1127167" lon="13.0177533"><ele>126.0</ele><time>2026-03-28T11:35:59.152Z</time></trkpt><trkpt lat="46.1127767" lon="13.017945"><ele>126.5</ele><time>2026-03-28T11:36:00.152Z</time></trkpt><trkpt lat="46.1128417" lon="13.0181133"><ele>127.0</ele><time>2026-03-28T11:36:01.152Z</time></trkpt><trkpt lat="46.1129117" lon="13.0182717"><ele>126.75</ele><time>2026-03-28T11:36:02.152Z</time></trkpt><trkpt lat="46.1129683" lon="13.0184483"><ele>126.5</ele><time>2026-03-28T11:36:03.153Z</time></trkpt><trkpt lat="46.1130083" lon="13.0186367"><ele>126.25</ele><time>2026-03-28T11:36:04.152Z</time></trkpt><trkpt lat="46.113035" lon="13.018825"><ele>126.0</ele><time>2026-03-28T11:36:05.152Z</time></trkpt><trkpt lat="46.1130533" lon="13.0190133"><ele>126.0</ele><time>2026-03-28T11:36:06.152Z</time></trkpt><trkpt lat="46.1130533" lon="13.0191983"><ele>126.0</ele><time>2026-03-28T11:36:07.152Z</time></trkpt><trkpt lat="46.1130433" lon="13.0193783"><ele>126.0</ele><time>2026-03-28T11:36:08.153Z</time></trkpt><trkpt lat="46.1130317" lon="13.0195517"><ele>126.0</ele><time>2026-03-28T11:36:09.152Z</time></trkpt><trkpt lat="46.1130167" lon="13.019725"><ele>126.0</ele><time>2026-03-28T11:36:10.152Z</time></trkpt><trkpt lat="46.1130033" lon="13.0198983"><ele>126.0</ele><time>2026-03-28T11:36:11.153Z</time></trkpt><trkpt lat="46.113" lon="13.020075"><ele>126.0</ele><time>2026-03-28T11:36:12.152Z</time></trkpt><trkpt lat="46.112995" lon="13.020265"><ele>126.0</ele><time>2026-03-28T11:36:13.151Z</time></trkpt><trkpt lat="46.112975" lon="13.0204733"><ele>125.75</ele><time>2026-03-28T11:36:14.151Z</time></trkpt><trkpt lat="46.112965" lon="13.020685"><ele>125.5</ele><time>2026-03-28T11:36:15.152Z</time></trkpt><trkpt lat="46.1129617" lon="13.02089"><ele>125.25</ele><time>2026-03-28T11:36:16.151Z</time></trkpt><trkpt lat="46.112955" lon="13.021095"><ele>125.0</ele><time>2026-03-28T11:36:17.151Z</time></trkpt><trkpt lat="46.1129383" lon="13.0213183"><ele>126.0</ele><time>2026-03-28T11:36:18.151Z</time></trkpt><trkpt lat="46.11293" lon="13.0215733"><ele>127.0</ele><time>2026-03-28T11:36:19.151Z</time></trkpt><trkpt lat="46.1129217" lon="13.021825"><ele>128.0</ele><time>2026-03-28T11:36:20.151Z</time></trkpt><trkpt lat="46.1129067" lon="13.0220633"><ele>129.0</ele><time>2026-03-28T11:36:21.151Z</time></trkpt><trkpt lat="46.11288" lon="13.0222783"><ele>130.0</ele><time>2026-03-28T11:36:22.151Z</time></trkpt><trkpt lat="46.1128467" lon="13.0224767"><ele>131.0</ele><time>2026-03-28T11:36:23.151Z</time></trkpt><trkpt lat="46.1128067" lon="13.02267"><ele>132.0</ele><time>2026-03-28T11:36:24.151Z</time></trkpt><trkpt lat="46.112765" lon="13.02286"><ele>134.25</ele><time>2026-03-28T11:36:25.151Z</time></trkpt><trkpt lat="46.1127267" lon="13.0230383"><ele>136.5</ele><time>2026-03-28T11:36:26.152Z</time></trkpt><trkpt lat="46.1126933" lon="13.0232"><ele>138.75</ele><time>2026-03-28T11:36:27.151Z</time></trkpt><trkpt lat="46.1126567" lon="13.02335"><ele>141.0</ele><time>2026-03-28T11:36:28.151Z</time></trkpt><trkpt lat="46.11261" lon="13.0234917"><ele>141.75</ele><time>2026-03-28T11:36:29.151Z</time></trkpt><trkpt lat="46.1125567" lon="13.0236267"><ele>142.5</ele><time>2026-03-28T11:36:30.151Z</time></trkpt><trkpt lat="46.1125167" lon="13.0237767"><ele>143.25</ele><time>2026-03-28T11:36:31.151Z</time></trkpt><trkpt lat="46.1124667" lon="13.0239283"><ele>144.0</ele><time>2026-03-28T11:36:32.152Z</time></trkpt><trkpt lat="46.1124183" lon="13.024095"><ele>143.6</ele><time>2026-03-28T11:36:33.151Z</time></trkpt><trkpt lat="46.1123833" lon="13.0242567"><ele>143.2</ele><time>2026-03-28T11:36:34.152Z</time></trkpt><trkpt lat="46.1123667" lon="13.0244067"><ele>142.79999999999998</ele><time>2026-03-28T11:36:35.151Z</time></trkpt><trkpt lat="46.11236" lon="13.0245283"><ele>142.4</ele><time>2026-03-28T11:36:36.151Z</time></trkpt><trkpt lat="46.1123583" lon="13.0246233"><ele>142.0</ele><time>2026-03-28T11:36:37.151Z</time></trkpt><trkpt lat="46.11236" lon="13.0247417"><ele>142.0</ele><time>2026-03-28T11:36:39.151Z</time></trkpt><trkpt lat="46.11237" lon="13.0248433"><ele>142.0</ele><time>2026-03-28T11:36:41.151Z</time></trkpt><trkpt lat="46.112385" lon="13.0249633"><ele>142.0</ele><time>2026-03-28T11:36:44.151Z</time></trkpt><trkpt lat="46.11244" lon="13.0249"><ele>142.0</ele><time>2026-03-28T11:36:54.151Z</time></trkpt><trkpt lat="46.1124283" lon="13.0247517"><ele>142.0</ele><time>2026-03-28T11:36:56.151Z</time></trkpt><trkpt lat="46.11248" lon="13.024685"><ele>142.0</ele><time>2026-03-28T11:36:58.152Z</time></trkpt><trkpt lat="46.1125433" lon="13.0247017"><ele>142.83333333333334</ele><time>2026-03-28T11:36:59.151Z</time></trkpt><trkpt lat="46.112625" lon="13.024745"><ele>143.66666666666669</ele><time>2026-03-28T11:37:00.151Z</time></trkpt><trkpt lat="46.1127133" lon="13.0247983"><ele>144.5</ele><time>2026-03-28T11:37:01.152Z</time></trkpt><trkpt lat="46.1127867" lon="13.024835"><ele>145.33333333333334</ele><time>2026-03-28T11:37:02.151Z</time></trkpt><trkpt lat="46.1128483" lon="13.0248783"><ele>146.16666666666666</ele><time>2026-03-28T11:37:03.151Z</time></trkpt><trkpt lat="46.1129067" lon="13.02493"><ele>147.0</ele><time>2026-03-28T11:37:04.151Z</time></trkpt><trkpt lat="46.1129617" lon="13.0250067"><ele>147.0</ele><time>2026-03-28T11:37:05.152Z</time></trkpt><trkpt lat="46.1130183" lon="13.0251217"><ele>147.0</ele><time>2026-03-28T11:37:06.152Z</time></trkpt><trkpt lat="46.1130783" lon="13.02526"><ele>147.0</ele><time>2026-03-28T11:37:07.151Z</time></trkpt><trkpt lat="46.11314" lon="13.0254133"><ele>147.0</ele><time>2026-03-28T11:37:08.151Z</time></trkpt><trkpt lat="46.1132017" lon="13.0255817"><ele>147.25</ele><time>2026-03-28T11:37:09.151Z</time></trkpt><trkpt lat="46.1132633" lon="13.02576"><ele>147.5</ele><time>2026-03-28T11:37:10.151Z</time></trkpt><trkpt lat="46.1133217" lon="13.0259333"><ele>147.75</ele><time>2026-03-28T11:37:11.151Z</time></trkpt><trkpt lat="46.1133767" lon="13.0260983"><ele>148.0</ele><time>2026-03-28T11:37:12.151Z</time></trkpt><trkpt lat="46.1134283" lon="13.026245"><ele>148.0</ele><time>2026-03-28T11:37:13.152Z</time></trkpt><trkpt lat="46.1134833" lon="13.026385"><ele>148.0</ele><time>2026-03-28T11:37:14.151Z</time></trkpt><trkpt lat="46.1135367" lon="13.0265067"><ele>148.0</ele><time>2026-03-28T11:37:15.151Z</time></trkpt><trkpt lat="46.1135933" lon="13.0266217"><ele>148.0</ele><time>2026-03-28T11:37:16.151Z</time></trkpt><trkpt lat="46.1136467" lon="13.0267433"><ele>148.0</ele><time>2026-03-28T11:37:17.151Z</time></trkpt><trkpt lat="46.1137" lon="13.026875"><ele>148.0</ele><time>2026-03-28T11:37:18.151Z</time></trkpt><trkpt lat="46.1137467" lon="13.0270167"><ele>148.0</ele><time>2026-03-28T11:37:19.151Z</time></trkpt><trkpt lat="46.11379" lon="13.0271617"><ele>148.0</ele><time>2026-03-28T11:37:20.152Z</time></trkpt><trkpt lat="46.1138233" lon="13.0273"><ele>148.0</ele><time>2026-03-28T11:37:21.151Z</time></trkpt><trkpt lat="46.113855" lon="13.0274517"><ele>148.0</ele><time>2026-03-28T11:37:22.152Z</time></trkpt><trkpt lat="46.1138917" lon="13.0276033"><ele>148.0</ele><time>2026-03-28T11:37:23.151Z</time></trkpt><trkpt lat="46.1139367" lon="13.027755"><ele>148.0</ele><time>2026-03-28T11:37:24.151Z</time></trkpt><trkpt lat="46.1139833" lon="13.0279133"><ele>148.0</ele><time>2026-03-28T11:37:25.151Z</time></trkpt><trkpt lat="46.11402" lon="13.0280717"><ele>148.0</ele><time>2026-03-28T11:37:26.151Z</time></trkpt><trkpt lat="46.1140567" lon="13.02823"><ele>148.0</ele><time>2026-03-28T11:37:27.151Z</time></trkpt><trkpt lat="46.1140883" lon="13.028395"><ele>148.0</ele><time>2026-03-28T11:37:28.151Z</time></trkpt><trkpt lat="46.114125" lon="13.0285633"><ele>148.0</ele><time>2026-03-28T11:37:29.151Z</time></trkpt><trkpt lat="46.11416" lon="13.0287267"><ele>148.0</ele><time>2026-03-28T11:37:30.151Z</time></trkpt><trkpt lat="46.1141983" lon="13.0288917"><ele>148.0</ele><time>2026-03-28T11:37:31.151Z</time></trkpt><trkpt lat="46.1142383" lon="13.02905"><ele>148.0</ele><time>2026-03-28T11:37:32.151Z</time></trkpt><trkpt lat="46.114275" lon="13.0292017"><ele>148.0</ele><time>2026-03-28T11:37:33.151Z</time></trkpt><trkpt lat="46.1143083" lon="13.02935"><ele>148.0</ele><time>2026-03-28T11:37:34.152Z</time></trkpt><trkpt lat="46.1143367" lon="13.0295033"><ele>148.0</ele><time>2026-03-28T11:37:35.151Z</time></trkpt><trkpt lat="46.1143583" lon="13.0296667"><ele>148.0</ele><time>2026-03-28T11:37:36.151Z</time></trkpt><trkpt lat="46.1143767" lon="13.02984"><ele>148.0</ele><time>2026-03-28T11:37:37.151Z</time></trkpt><trkpt lat="46.114395" lon="13.0300283"><ele>148.0</ele><time>2026-03-28T11:37:38.151Z</time></trkpt><trkpt lat="46.1144133" lon="13.030225"><ele>148.0</ele><time>2026-03-28T11:37:39.152Z</time></trkpt><trkpt lat="46.1144383" lon="13.03042"><ele>148.25</ele><time>2026-03-28T11:37:40.151Z</time></trkpt><trkpt lat="46.114465" lon="13.0306017"><ele>148.5</ele><time>2026-03-28T11:37:41.152Z</time></trkpt><trkpt lat="46.114495" lon="13.03077"><ele>148.75</ele><time>2026-03-28T11:37:42.152Z</time></trkpt><trkpt lat="46.1145283" lon="13.0309383"><ele>149.0</ele><time>2026-03-28T11:37:43.152Z</time></trkpt><trkpt lat="46.1145633" lon="13.0310967"><ele>149.0</ele><time>2026-03-28T11:37:44.151Z</time></trkpt><trkpt lat="46.1146" lon="13.0312633"><ele>149.0</ele><time>2026-03-28T11:37:45.152Z</time></trkpt><trkpt lat="46.1146383" lon="13.03143"><ele>149.0</ele><time>2026-03-28T11:37:46.151Z</time></trkpt><trkpt lat="46.114675" lon="13.0315967"><ele>149.0</ele><time>2026-03-28T11:37:47.151Z</time></trkpt><trkpt lat="46.11472" lon="13.0317583"><ele>149.2</ele><time>2026-03-28T11:37:48.151Z</time></trkpt><trkpt lat="46.1147567" lon="13.031915"><ele>149.4</ele><time>2026-03-28T11:37:49.151Z</time></trkpt><trkpt lat="46.1147883" lon="13.0320667"><ele>149.6</ele><time>2026-03-28T11:37:50.152Z</time></trkpt><trkpt lat="46.11481" lon="13.0322267"><ele>149.8</ele><time>2026-03-28T11:37:51.151Z</time></trkpt><trkpt lat="46.1148283" lon="13.0323733"><ele>150.0</ele><time>2026-03-28T11:37:52.151Z</time></trkpt><trkpt lat="46.11485" lon="13.0325083"><ele>150.0</ele><time>2026-03-28T11:37:53.152Z</time></trkpt><trkpt lat="46.11487" lon="13.0326217"><ele>150.0</ele><time>2026-03-28T11:37:54.151Z</time></trkpt><trkpt lat="46.1148967" lon="13.03272"><ele>150.0</ele><time>2026-03-28T11:37:55.151Z</time></trkpt><trkpt lat="46.1149367" lon="13.0327917"><ele>150.0</ele><time>2026-03-28T11:37:56.152Z</time></trkpt><trkpt lat="46.1150583" lon="13.03281"><ele>150.0</ele><time>2026-03-28T11:37:58.151Z</time></trkpt><trkpt lat="46.1151417" lon="13.03276"><ele>150.0</ele><time>2026-03-28T11:37:59.152Z</time></trkpt><trkpt lat="46.115245" lon="13.032705"><ele>149.75</ele><time>2026-03-28T11:38:00.152Z</time></trkpt><trkpt lat="46.11536" lon="13.032655"><ele>149.5</ele><time>2026-03-28T11:38:01.151Z</time></trkpt><trkpt lat="46.1154817" lon="13.0326"><ele>149.25</ele><time>2026-03-28T11:38:02.151Z</time></trkpt><trkpt lat="46.1155917" lon="13.0325467"><ele>149.0</ele><time>2026-03-28T11:38:03.151Z</time></trkpt><trkpt lat="46.1156917" lon="13.0324883"><ele>149.0</ele><time>2026-03-28T11:38:04.151Z</time></trkpt><trkpt lat="46.11577" lon="13.0324217"><ele>149.0</ele><time>2026-03-28T11:38:05.151Z</time></trkpt><trkpt lat="46.11583" lon="13.0323533"><ele>149.0</ele><time>2026-03-28T11:38:06.151Z</time></trkpt><trkpt lat="46.1158883" lon="13.0323117"><ele>149.0</ele><time>2026-03-28T11:38:07.151Z</time></trkpt><trkpt lat="46.115985" lon="13.0323317"><ele>149.0</ele><time>2026-03-28T11:38:09.151Z</time></trkpt><trkpt lat="46.1160283" lon="13.0324017"><ele>149.0</ele><time>2026-03-28T11:38:10.152Z</time></trkpt><trkpt lat="46.1160783" lon="13.032515"><ele>149.2</ele><time>2026-03-28T11:38:11.151Z</time></trkpt><trkpt lat="46.11614" lon="13.0326333"><ele>149.4</ele><time>2026-03-28T11:38:12.151Z</time></trkpt><trkpt lat="46.116205" lon="13.032745"><ele>149.6</ele><time>2026-03-28T11:38:13.151Z</time></trkpt><trkpt lat="46.1162767" lon="13.032855"><ele>149.8</ele><time>2026-03-28T11:38:14.151Z</time></trkpt><trkpt lat="46.1163483" lon="13.0329633"><ele>150.0</ele><time>2026-03-28T11:38:15.151Z</time></trkpt><trkpt lat="46.1164233" lon="13.0330783"><ele>150.0</ele><time>2026-03-28T11:38:16.151Z</time></trkpt><trkpt lat="46.11649" lon="13.03321"><ele>150.0</ele><time>2026-03-28T11:38:17.151Z</time></trkpt><trkpt lat="46.1165467" lon="13.0333383"><ele>150.0</ele><time>2026-03-28T11:38:18.151Z</time></trkpt><trkpt lat="46.1165883" lon="13.0334517"><ele>150.0</ele><time>2026-03-28T11:38:19.151Z</time></trkpt><trkpt lat="46.1166283" lon="13.03355"><ele>150.0</ele><time>2026-03-28T11:38:20.151Z</time></trkpt><trkpt lat="46.1166783" lon="13.0336333"><ele>150.16666666666666</ele><time>2026-03-28T11:38:21.151Z</time></trkpt><trkpt lat="46.1167333" lon="13.0337033"><ele>150.33333333333334</ele><time>2026-03-28T11:38:22.151Z</time></trkpt><trkpt lat="46.1167967" lon="13.0337383"><ele>150.5</ele><time>2026-03-28T11:38:23.151Z</time></trkpt><trkpt lat="46.11687" lon="13.0337467"><ele>150.66666666666669</ele><time>2026-03-28T11:38:24.151Z</time></trkpt><trkpt lat="46.116975" lon="13.03374"><ele>150.83333333333334</ele><time>2026-03-28T11:38:25.151Z</time></trkpt><trkpt lat="46.1170917" lon="13.033735"><ele>151.0</ele><time>2026-03-28T11:38:26.151Z</time></trkpt><trkpt lat="46.1172133" lon="13.03375"><ele>151.0</ele><time>2026-03-28T11:38:27.151Z</time></trkpt><trkpt lat="46.11733" lon="13.033775"><ele>151.0</ele><time>2026-03-28T11:38:28.152Z</time></trkpt><trkpt lat="46.11745" lon="13.0338067"><ele>151.0</ele><time>2026-03-28T11:38:29.151Z</time></trkpt><trkpt lat="46.1175667" lon="13.0338383"><ele>151.0</ele><time>2026-03-28T11:38:30.151Z</time></trkpt><trkpt lat="46.11768" lon="13.033875"><ele>151.25</ele><time>2026-03-28T11:38:31.151Z</time></trkpt><trkpt lat="46.1177933" lon="13.0339083"><ele>151.5</ele><time>2026-03-28T11:38:32.152Z</time></trkpt><trkpt lat="46.1179067" lon="13.0339367"><ele>151.75</ele><time>2026-03-28T11:38:33.151Z</time></trkpt><trkpt lat="46.118015" lon="13.033935"><ele>152.0</ele><time>2026-03-28T11:38:34.151Z</time></trkpt><trkpt lat="46.118125" lon="13.0339117"><ele>152.0</ele><time>2026-03-28T11:38:35.151Z</time></trkpt><trkpt lat="46.1182333" lon="13.0338783"><ele>152.0</ele><time>2026-03-28T11:38:36.152Z</time></trkpt><trkpt lat="46.1183483" lon="13.0338333"><ele>152.0</ele><time>2026-03-28T11:38:37.151Z</time></trkpt><trkpt lat="46.11845" lon="13.033775"><ele>152.0</ele><time>2026-03-28T11:38:38.151Z</time></trkpt><trkpt lat="46.1185583" lon="13.0337067"><ele>152.6</ele><time>2026-03-28T11:38:39.152Z</time></trkpt><trkpt lat="46.1186617" lon="13.0336367"><ele>153.2</ele><time>2026-03-28T11:38:40.151Z</time></trkpt><trkpt lat="46.1187567" lon="13.0335783"><ele>153.8</ele><time>2026-03-28T11:38:41.151Z</time></trkpt><trkpt lat="46.1188417" lon="13.03354"><ele>154.4</ele><time>2026-03-28T11:38:42.152Z</time></trkpt><trkpt lat="46.1189183" lon="13.03353"><ele>155.0</ele><time>2026-03-28T11:38:43.151Z</time></trkpt><trkpt lat="46.1189917" lon="13.0335517"><ele>155.0</ele><time>2026-03-28T11:38:44.151Z</time></trkpt><trkpt lat="46.11906" lon="13.0335983"><ele>155.0</ele><time>2026-03-28T11:38:45.152Z</time></trkpt><trkpt lat="46.119125" lon="13.03365"><ele>155.0</ele><time>2026-03-28T11:38:46.151Z</time></trkpt><trkpt lat="46.11921" lon="13.03374"><ele>155.0</ele><time>2026-03-28T11:38:48.152Z</time></trkpt><trkpt lat="46.1192833" lon="13.03375"><ele>155.0</ele><time>2026-03-28T11:38:51.151Z</time></trkpt><trkpt lat="46.1193367" lon="13.0336317"><ele>155.0</ele><time>2026-03-28T11:38:53.151Z</time></trkpt><trkpt lat="46.119375" lon="13.03353"><ele>155.0</ele><time>2026-03-28T11:38:54.151Z</time></trkpt><trkpt lat="46.1194183" lon="13.0334067"><ele>155.0</ele><time>2026-03-28T11:38:55.151Z</time></trkpt><trkpt lat="46.1194683" lon="13.03326"><ele>155.0</ele><time>2026-03-28T11:38:56.151Z</time></trkpt><trkpt lat="46.1195233" lon="13.0331067"><ele>155.0</ele><time>2026-03-28T11:38:57.151Z</time></trkpt><trkpt lat="46.119585" lon="13.03294"><ele>155.0</ele><time>2026-03-28T11:38:58.152Z</time></trkpt><trkpt lat="46.1196467" lon="13.032755"><ele>155.0</ele><time>2026-03-28T11:38:59.151Z</time></trkpt><trkpt lat="46.1197033" lon="13.0325617"><ele>155.0</ele><time>2026-03-28T11:39:00.151Z</time></trkpt><trkpt lat="46.11975" lon="13.0323717"><ele>155.0</ele><time>2026-03-28T11:39:01.151Z</time></trkpt><trkpt lat="46.1197933" lon="13.0321717"><ele>155.0</ele><time>2026-03-28T11:39:02.152Z</time></trkpt><trkpt lat="46.1198283" lon="13.03198"><ele>155.0</ele><time>2026-03-28T11:39:03.152Z</time></trkpt><trkpt lat="46.1198633" lon="13.031795"><ele>155.0</ele><time>2026-03-28T11:39:04.151Z</time></trkpt><trkpt lat="46.1198917" lon="13.03162"><ele>155.0</ele><time>2026-03-28T11:39:05.151Z</time></trkpt><trkpt lat="46.119925" lon="13.031455"><ele>155.5</ele><time>2026-03-28T11:39:06.151Z</time></trkpt><trkpt lat="46.119955" lon="13.0312983"><ele>156.0</ele><time>2026-03-28T11:39:07.152Z</time></trkpt><trkpt lat="46.12" lon="13.03113"><ele>156.5</ele><time>2026-03-28T11:39:08.151Z</time></trkpt><trkpt lat="46.120055" lon="13.030965"><ele>157.0</ele><time>2026-03-28T11:39:09.151Z</time></trkpt><trkpt lat="46.1201167" lon="13.030815"><ele>156.25</ele><time>2026-03-28T11:39:10.152Z</time></trkpt><trkpt lat="46.120185" lon="13.030655"><ele>155.5</ele><time>2026-03-28T11:39:11.151Z</time></trkpt><trkpt lat="46.120255" lon="13.0305067"><ele>154.75</ele><time>2026-03-28T11:39:12.151Z</time></trkpt><trkpt lat="46.1203217" lon="13.0303683"><ele>154.0</ele><time>2026-03-28T11:39:13.151Z</time></trkpt><trkpt lat="46.1203917" lon="13.0302233"><ele>154.0</ele><time>2026-03-28T11:39:14.151Z</time></trkpt><trkpt lat="46.1204617" lon="13.0300767"><ele>154.0</ele><time>2026-03-28T11:39:15.152Z</time></trkpt><trkpt lat="46.1205333" lon="13.02993"><ele>154.0</ele><time>2026-03-28T11:39:16.151Z</time></trkpt><trkpt lat="46.1206083" lon="13.0297883"><ele>154.0</ele><time>2026-03-28T11:39:17.152Z</time></trkpt><trkpt lat="46.120685" lon="13.029655"><ele>154.0</ele><time>2026-03-28T11:39:18.152Z</time></trkpt><trkpt lat="46.1207633" lon="13.0295233"><ele>154.0</ele><time>2026-03-28T11:39:19.151Z</time></trkpt><trkpt lat="46.1208467" lon="13.0293983"><ele>154.0</ele><time>2026-03-28T11:39:20.151Z</time></trkpt><trkpt lat="46.12094" lon="13.0292767"><ele>154.0</ele><time>2026-03-28T11:39:21.152Z</time></trkpt><trkpt lat="46.1210483" lon="13.02918"><ele>154.25</ele><time>2026-03-28T11:39:22.151Z</time></trkpt><trkpt lat="46.12116" lon="13.0290983"><ele>154.5</ele><time>2026-03-28T11:39:23.151Z</time></trkpt><trkpt lat="46.1212733" lon="13.0290117"><ele>154.75</ele><time>2026-03-28T11:39:24.151Z</time></trkpt><trkpt lat="46.1213767" lon="13.0289283"><ele>155.0</ele><time>2026-03-28T11:39:25.151Z</time></trkpt><trkpt lat="46.121465" lon="13.0288367"><ele>155.0</ele><time>2026-03-28T11:39:26.151Z</time></trkpt><trkpt lat="46.1215433" lon="13.028745"><ele>155.0</ele><time>2026-03-28T11:39:27.151Z</time></trkpt><trkpt lat="46.1216167" lon="13.0286567"><ele>155.0</ele><time>2026-03-28T11:39:28.151Z</time></trkpt><trkpt lat="46.1216833" lon="13.028575"><ele>155.0</ele><time>2026-03-28T11:39:29.152Z</time></trkpt><trkpt lat="46.1217467" lon="13.0285133"><ele>155.0</ele><time>2026-03-28T11:39:30.152Z</time></trkpt><trkpt lat="46.121805" lon="13.028455"><ele>155.0</ele><time>2026-03-28T11:39:31.152Z</time></trkpt><trkpt lat="46.121925" lon="13.0283983"><ele>155.0</ele><time>2026-03-28T11:39:33.151Z</time></trkpt><trkpt lat="46.12201" lon="13.0283817"><ele>155.0</ele><time>2026-03-28T11:39:34.151Z</time></trkpt><trkpt lat="46.12211" lon="13.028395"><ele>155.0</ele><time>2026-03-28T11:39:35.151Z</time></trkpt><trkpt lat="46.1222383" lon="13.0284283"><ele>155.0</ele><time>2026-03-28T11:39:36.151Z</time></trkpt><trkpt lat="46.1223717" lon="13.0284567"><ele>154.0</ele><time>2026-03-28T11:39:37.151Z</time></trkpt><trkpt lat="46.1225167" lon="13.0284783"><ele>153.0</ele><time>2026-03-28T11:39:38.151Z</time></trkpt><trkpt lat="46.1226583" lon="13.028495"><ele>152.0</ele><time>2026-03-28T11:39:39.152Z</time></trkpt><trkpt lat="46.1228017" lon="13.02851"><ele>151.0</ele><time>2026-03-28T11:39:40.151Z</time></trkpt><trkpt lat="46.1229417" lon="13.02852"><ele>151.0</ele><time>2026-03-28T11:39:41.151Z</time></trkpt><trkpt lat="46.12307" lon="13.0285333"><ele>151.0</ele><time>2026-03-28T11:39:42.151Z</time></trkpt><trkpt lat="46.1231917" lon="13.0285317"><ele>151.0</ele><time>2026-03-28T11:39:43.151Z</time></trkpt><trkpt lat="46.123305" lon="13.0285283"><ele>151.0</ele><time>2026-03-28T11:39:44.151Z</time></trkpt><trkpt lat="46.12342" lon="13.0285267"><ele>151.2</ele><time>2026-03-28T11:39:45.151Z</time></trkpt><trkpt lat="46.1235217" lon="13.0285217"><ele>151.39999999999998</ele><time>2026-03-28T11:39:46.151Z</time></trkpt><trkpt lat="46.1236267" lon="13.028515"><ele>151.6</ele><time>2026-03-28T11:39:47.151Z</time></trkpt><trkpt lat="46.1237333" lon="13.0285017"><ele>151.79999999999998</ele><time>2026-03-28T11:39:48.151Z</time></trkpt><trkpt lat="46.1238483" lon="13.0284733"><ele>152.0</ele><time>2026-03-28T11:39:49.151Z</time></trkpt><trkpt lat="46.1239567" lon="13.0284383"><ele>153.0</ele><time>2026-03-28T11:39:50.151Z</time></trkpt><trkpt lat="46.124065" lon="13.0283967"><ele>154.0</ele><time>2026-03-28T11:39:51.152Z</time></trkpt><trkpt lat="46.1241733" lon="13.0283583"><ele>155.0</ele><time>2026-03-28T11:39:52.151Z</time></trkpt><trkpt lat="46.1242933" lon="13.028315"><ele>156.0</ele><time>2026-03-28T11:39:53.151Z</time></trkpt><trkpt lat="46.1244033" lon="13.0282683"><ele>154.4</ele><time>2026-03-28T11:39:54.151Z</time></trkpt><trkpt lat="46.1245133" lon="13.0282367"><ele>152.8</ele><time>2026-03-28T11:39:55.152Z</time></trkpt><trkpt lat="46.1246233" lon="13.0282"><ele>151.20000000000002</ele><time>2026-03-28T11:39:56.151Z</time></trkpt><trkpt lat="46.1247267" lon="13.0281883"><ele>149.6</ele><time>2026-03-28T11:39:57.151Z</time></trkpt><trkpt lat="46.1248133" lon="13.0281867"><ele>148.0</ele><time>2026-03-28T11:39:58.151Z</time></trkpt><trkpt lat="46.1248983" lon="13.028195"><ele>148.0</ele><time>2026-03-28T11:39:59.152Z</time></trkpt><trkpt lat="46.124985" lon="13.0282167"><ele>148.0</ele><time>2026-03-28T11:40:00.151Z</time></trkpt><trkpt lat="46.1250833" lon="13.0282933"><ele>148.0</ele><time>2026-03-28T11:40:01.152Z</time></trkpt><trkpt lat="46.125175" lon="13.028405"><ele>148.0</ele><time>2026-03-28T11:40:02.151Z</time></trkpt><trkpt lat="46.125365" lon="13.0288167"><ele>149.5</ele><time>2026-03-28T11:40:05.151Z</time></trkpt><trkpt lat="46.1253867" lon="13.028935"><ele>151.0</ele><time>2026-03-28T11:40:06.152Z</time></trkpt><trkpt lat="46.1254033" lon="13.02904"><ele>152.5</ele><time>2026-03-28T11:40:07.151Z</time></trkpt><trkpt lat="46.1254233" lon="13.0292"><ele>154.0</ele><time>2026-03-28T11:40:09.152Z</time></trkpt><trkpt lat="46.1254467" lon="13.0293183"><ele>155.5</ele><time>2026-03-28T11:40:11.152Z</time></trkpt><trkpt lat="46.1254667" lon="13.0294167"><ele>157.0</ele><time>2026-03-28T11:40:14.151Z</time></trkpt><trkpt lat="46.1255167" lon="13.0294867"><ele>157.0</ele><time>2026-03-28T11:40:20.151Z</time></trkpt><trkpt lat="46.125575" lon="13.0294267"><ele>157.0</ele><time>2026-03-28T11:40:43.151Z</time></trkpt><trkpt lat="46.1255533" lon="13.0292183"><ele>157.0</ele><time>2026-03-28T11:40:45.151Z</time></trkpt><trkpt lat="46.125515" lon="13.0290817"><ele>157.0</ele><time>2026-03-28T11:40:46.152Z</time></trkpt><trkpt lat="46.1254783" lon="13.0289467"><ele>157.0</ele><time>2026-03-28T11:40:47.151Z</time></trkpt><trkpt lat="46.12544" lon="13.0288083"><ele>157.0</ele><time>2026-03-28T11:40:48.151Z</time></trkpt><trkpt lat="46.1254083" lon="13.0286733"><ele>157.0</ele><time>2026-03-28T11:40:49.151Z</time></trkpt><trkpt lat="46.1253767" lon="13.0285517"><ele>157.0</ele><time>2026-03-28T11:40:50.151Z</time></trkpt><trkpt lat="46.12535" lon="13.02843"><ele>157.0</ele><time>2026-03-28T11:40:51.151Z</time></trkpt><trkpt lat="46.1253233" lon="13.028325"><ele>157.0</ele><time>2026-03-28T11:40:52.151Z</time></trkpt><trkpt lat="46.1253017" lon="13.0282317"><ele>157.0</ele><time>2026-03-28T11:40:53.151Z</time></trkpt><trkpt lat="46.125275" lon="13.0280683"><ele>155.5</ele><time>2026-03-28T11:40:55.151Z</time></trkpt><trkpt lat="46.1252667" lon="13.0279017"><ele>154.0</ele><time>2026-03-28T11:40:57.151Z</time></trkpt><trkpt lat="46.1252617" lon="13.0278067"><ele>152.5</ele><time>2026-03-28T11:40:58.151Z</time></trkpt><trkpt lat="46.125255" lon="13.0276983"><ele>151.0</ele><time>2026-03-28T11:40:59.151Z</time></trkpt><trkpt lat="46.1252533" lon="13.02759"><ele>149.5</ele><time>2026-03-28T11:41:00.151Z</time></trkpt><trkpt lat="46.12525" lon="13.0274883"><ele>148.0</ele><time>2026-03-28T11:41:01.151Z</time></trkpt><trkpt lat="46.1252483" lon="13.0273283"><ele>147.5</ele><time>2026-03-28T11:41:03.152Z</time></trkpt><trkpt lat="46.1252667" lon="13.0271767"><ele>147.0</ele><time>2026-03-28T11:41:06.151Z</time></trkpt><trkpt lat="46.1253283" lon="13.0271433"><ele>146.5</ele><time>2026-03-28T11:41:09.151Z</time></trkpt><trkpt lat="46.12539" lon="13.027115"><ele>146.0</ele><time>2026-03-28T11:41:11.151Z</time></trkpt><trkpt lat="46.125465" lon="13.0271183"><ele>145.5</ele><time>2026-03-28T11:41:14.151Z</time></trkpt><trkpt lat="46.1255467" lon="13.0271483"><ele>145.0</ele><time>2026-03-28T11:41:17.151Z</time></trkpt><trkpt lat="46.12562" lon="13.0271533"><ele>145.0</ele><time>2026-03-28T11:41:20.151Z</time></trkpt><trkpt lat="46.1256917" lon="13.0271433"><ele>145.0</ele><time>2026-03-28T11:41:25.152Z</time></trkpt><trkpt lat="46.1257667" lon="13.0271183"><ele>145.0</ele><time>2026-03-28T11:41:41.151Z</time></trkpt><trkpt lat="46.1258333" lon="13.02708"><ele>145.0</ele><time>2026-03-28T11:41:45.151Z</time></trkpt><trkpt lat="46.12578" lon="13.02702"><ele>145.0</ele><time>2026-03-28T11:41:49.151Z</time></trkpt><trkpt lat="46.1256917" lon="13.0270467"><ele>145.0</ele><time>2026-03-28T11:42:01.151Z</time></trkpt><trkpt lat="46.125595" lon="13.02708"><ele>145.0</ele><time>2026-03-28T11:42:03.152Z</time></trkpt><trkpt lat="46.1254917" lon="13.0271"><ele>145.0</ele><time>2026-03-28T11:42:05.152Z</time></trkpt><trkpt lat="46.1254267" lon="13.0271067"><ele>145.0</ele><time>2026-03-28T11:42:07.151Z</time></trkpt><trkpt lat="46.1253517" lon="13.0271067"><ele>145.0</ele><time>2026-03-28T11:42:09.151Z</time></trkpt><trkpt lat="46.1252883" lon="13.0271033"><ele>145.0</ele><time>2026-03-28T11:42:11.151Z</time></trkpt><trkpt lat="46.1252167" lon="13.0270133"><ele>145.0</ele><time>2026-03-28T11:42:14.151Z</time></trkpt><trkpt lat="46.1251833" lon="13.0268433"><ele>145.0</ele><time>2026-03-28T11:42:16.151Z</time></trkpt><trkpt lat="46.1251617" lon="13.0267133"><ele>145.0</ele><time>2026-03-28T11:42:18.151Z</time></trkpt><trkpt lat="46.12515" lon="13.02659"><ele>145.0</ele><time>2026-03-28T11:42:20.151Z</time></trkpt><trkpt lat="46.1251367" lon="13.0264"><ele>145.0</ele><time>2026-03-28T11:42:22.151Z</time></trkpt><trkpt lat="46.1251167" lon="13.02629"><ele>145.0</ele><time>2026-03-28T11:42:23.151Z</time></trkpt><trkpt lat="46.125095" lon="13.0261833"><ele>144.33333333333334</ele><time>2026-03-28T11:42:24.152Z</time></trkpt><trkpt lat="46.1250733" lon="13.0260733"><ele>143.66666666666669</ele><time>2026-03-28T11:42:25.151Z</time></trkpt><trkpt lat="46.12506" lon="13.025965"><ele>143.0</ele><time>2026-03-28T11:42:26.151Z</time></trkpt><trkpt lat="46.1250517" lon="13.0258317"><ele>142.33333333333334</ele><time>2026-03-28T11:42:27.151Z</time></trkpt><trkpt lat="46.1250683" lon="13.0257133"><ele>141.66666666666666</ele><time>2026-03-28T11:42:28.151Z</time></trkpt><trkpt lat="46.12511" lon="13.0256"><ele>141.0</ele><time>2026-03-28T11:42:29.151Z</time></trkpt><trkpt lat="46.12517" lon="13.0254917"><ele>140.33333333333334</ele><time>2026-03-28T11:42:30.151Z</time></trkpt><trkpt lat="46.1252317" lon="13.0253833"><ele>139.66666666666666</ele><time>2026-03-28T11:42:31.151Z</time></trkpt><trkpt lat="46.12529" lon="13.02528"><ele>139.0</ele><time>2026-03-28T11:42:32.151Z</time></trkpt><trkpt lat="46.125345" lon="13.0251767"><ele>138.33333333333331</ele><time>2026-03-28T11:42:33.151Z</time></trkpt><trkpt lat="46.1253983" lon="13.02508"><ele>137.66666666666666</ele><time>2026-03-28T11:42:34.152Z</time></trkpt><trkpt lat="46.1254483" lon="13.02499"><ele>137.0</ele><time>2026-03-28T11:42:35.151Z</time></trkpt><trkpt lat="46.125495" lon="13.02491"><ele>137.0</ele><time>2026-03-28T11:42:36.151Z</time></trkpt><trkpt lat="46.1255467" lon="13.0248267"><ele>137.0</ele><time>2026-03-28T11:42:37.151Z</time></trkpt><trkpt lat="46.1256067" lon="13.0247483"><ele>137.0</ele><time>2026-03-28T11:42:38.151Z</time></trkpt><trkpt lat="46.1256833" lon="13.02468"><ele>137.0</ele><time>2026-03-28T11:42:39.151Z</time></trkpt><trkpt lat="46.1257767" lon="13.0246233"><ele>137.0</ele><time>2026-03-28T11:42:40.151Z</time></trkpt><trkpt lat="46.1258833" lon="13.0245817"><ele>136.79999999999998</ele><time>2026-03-28T11:42:41.152Z</time></trkpt><trkpt lat="46.12599" lon="13.02455"><ele>136.6</ele><time>2026-03-28T11:42:42.151Z</time></trkpt><trkpt lat="46.1260967" lon="13.024535"><ele>136.39999999999998</ele><time>2026-03-28T11:42:43.152Z</time></trkpt><trkpt lat="46.1262" lon="13.02452"><ele>136.2</ele><time>2026-03-28T11:42:44.151Z</time></trkpt><trkpt lat="46.1263017" lon="13.0245017"><ele>136.0</ele><time>2026-03-28T11:42:45.151Z</time></trkpt><trkpt lat="46.1264" lon="13.024485"><ele>136.0</ele><time>2026-03-28T11:42:46.151Z</time></trkpt><trkpt lat="46.12649" lon="13.0244733"><ele>136.0</ele><time>2026-03-28T11:42:47.151Z</time></trkpt><trkpt lat="46.1265683" lon="13.0244583"><ele>136.0</ele><time>2026-03-28T11:42:48.151Z</time></trkpt><trkpt lat="46.1266367" lon="13.0244417"><ele>136.0</ele><time>2026-03-28T11:42:49.151Z</time></trkpt><trkpt lat="46.1267433" lon="13.0244"><ele>136.0</ele><time>2026-03-28T11:42:51.151Z</time></trkpt><trkpt lat="46.1268067" lon="13.0243533"><ele>136.0</ele><time>2026-03-28T11:42:53.151Z</time></trkpt><trkpt lat="46.1268817" lon="13.0242817"><ele>136.0</ele><time>2026-03-28T11:42:56.151Z</time></trkpt><trkpt lat="46.1269633" lon="13.0242033"><ele>136.0</ele><time>2026-03-28T11:42:58.151Z</time></trkpt><trkpt lat="46.127025" lon="13.0241383"><ele>136.0</ele><time>2026-03-28T11:42:59.151Z</time></trkpt><trkpt lat="46.1270967" lon="13.02406"><ele>136.0</ele><time>2026-03-28T11:43:00.151Z</time></trkpt><trkpt lat="46.1271767" lon="13.0239733"><ele>136.0</ele><time>2026-03-28T11:43:01.151Z</time></trkpt><trkpt lat="46.1272583" lon="13.023885"><ele>136.0</ele><time>2026-03-28T11:43:02.151Z</time></trkpt><trkpt lat="46.1273433" lon="13.0237983"><ele>136.0</ele><time>2026-03-28T11:43:03.151Z</time></trkpt><trkpt lat="46.1274417" lon="13.02373"><ele>136.0</ele><time>2026-03-28T11:43:04.151Z</time></trkpt><trkpt lat="46.127555" lon="13.02367"><ele>136.0</ele><time>2026-03-28T11:43:05.151Z</time></trkpt><trkpt lat="46.1276883" lon="13.0236183"><ele>136.33333333333334</ele><time>2026-03-28T11:43:06.151Z</time></trkpt><trkpt lat="46.12784" lon="13.02356"><ele>136.66666666666666</ele><time>2026-03-28T11:43:07.151Z</time></trkpt><trkpt lat="46.1279967" lon="13.023495"><ele>137.0</ele><time>2026-03-28T11:43:08.151Z</time></trkpt><trkpt lat="46.1281583" lon="13.02344"><ele>137.66666666666666</ele><time>2026-03-28T11:43:09.151Z</time></trkpt><trkpt lat="46.12833" lon="13.0234"><ele>138.33333333333334</ele><time>2026-03-28T11:43:10.151Z</time></trkpt><trkpt lat="46.1285033" lon="13.0233733"><ele>139.0</ele><time>2026-03-28T11:43:11.151Z</time></trkpt><trkpt lat="46.128675" lon="13.02335"><ele>139.0</ele><time>2026-03-28T11:43:12.151Z</time></trkpt><trkpt lat="46.1288483" lon="13.0233333"><ele>139.0</ele><time>2026-03-28T11:43:13.151Z</time></trkpt><trkpt lat="46.1290133" lon="13.0233083"><ele>139.0</ele><time>2026-03-28T11:43:14.151Z</time></trkpt><trkpt lat="46.1291583" lon="13.0233067"><ele>138.5</ele><time>2026-03-28T11:43:15.151Z</time></trkpt><trkpt lat="46.129305" lon="13.0233117"><ele>138.0</ele><time>2026-03-28T11:43:16.151Z</time></trkpt><trkpt lat="46.1294433" lon="13.0233367"><ele>137.5</ele><time>2026-03-28T11:43:17.151Z</time></trkpt><trkpt lat="46.1295817" lon="13.02337"><ele>137.0</ele><time>2026-03-28T11:43:18.151Z</time></trkpt><trkpt lat="46.1297117" lon="13.0234067"><ele>137.0</ele><time>2026-03-28T11:43:19.151Z</time></trkpt><trkpt lat="46.1298383" lon="13.0234567"><ele>137.0</ele><time>2026-03-28T11:43:20.151Z</time></trkpt><trkpt lat="46.1299567" lon="13.0235167"><ele>137.0</ele><time>2026-03-28T11:43:21.151Z</time></trkpt><trkpt lat="46.130065" lon="13.0235817"><ele>137.0</ele><time>2026-03-28T11:43:22.151Z</time></trkpt><trkpt lat="46.130165" lon="13.0236533"><ele>136.5</ele><time>2026-03-28T11:43:23.151Z</time></trkpt><trkpt lat="46.1302667" lon="13.0237317"><ele>136.0</ele><time>2026-03-28T11:43:24.152Z</time></trkpt><trkpt lat="46.1303733" lon="13.0238167"><ele>135.5</ele><time>2026-03-28T11:43:25.151Z</time></trkpt><trkpt lat="46.1304767" lon="13.0238917"><ele>135.0</ele><time>2026-03-28T11:43:26.151Z</time></trkpt><trkpt lat="46.1305817" lon="13.0239717"><ele>135.0</ele><time>2026-03-28T11:43:27.152Z</time></trkpt><trkpt lat="46.1306967" lon="13.0240483"><ele>135.0</ele><time>2026-03-28T11:43:28.151Z</time></trkpt><trkpt lat="46.1308167" lon="13.0241067"><ele>135.0</ele><time>2026-03-28T11:43:29.151Z</time></trkpt><trkpt lat="46.1309383" lon="13.0241467"><ele>135.0</ele><time>2026-03-28T11:43:30.151Z</time></trkpt><trkpt lat="46.1310583" lon="13.0241733"><ele>136.25</ele><time>2026-03-28T11:43:31.151Z</time></trkpt><trkpt lat="46.1311717" lon="13.0241883"><ele>137.5</ele><time>2026-03-28T11:43:32.151Z</time></trkpt><trkpt lat="46.1312917" lon="13.0242017"><ele>138.75</ele><time>2026-03-28T11:43:33.151Z</time></trkpt><trkpt lat="46.1314217" lon="13.024225"><ele>140.0</ele><time>2026-03-28T11:43:34.152Z</time></trkpt><trkpt lat="46.1315517" lon="13.0242467"><ele>139.5</ele><time>2026-03-28T11:43:35.151Z</time></trkpt><trkpt lat="46.131685" lon="13.0242633"><ele>139.0</ele><time>2026-03-28T11:43:36.151Z</time></trkpt><trkpt lat="46.1318167" lon="13.0242867"><ele>138.5</ele><time>2026-03-28T11:43:37.151Z</time></trkpt><trkpt lat="46.1319567" lon="13.0243133"><ele>138.0</ele><time>2026-03-28T11:43:38.151Z</time></trkpt><trkpt lat="46.1320883" lon="13.024345"><ele>138.0</ele><time>2026-03-28T11:43:39.152Z</time></trkpt><trkpt lat="46.1322217" lon="13.0243767"><ele>138.0</ele><time>2026-03-28T11:43:40.151Z</time></trkpt><trkpt lat="46.132355" lon="13.0244083"><ele>138.0</ele><time>2026-03-28T11:43:41.151Z</time></trkpt><trkpt lat="46.1324917" lon="13.0244383"><ele>138.0</ele><time>2026-03-28T11:43:42.151Z</time></trkpt><trkpt lat="46.1326383" lon="13.02446"><ele>137.66666666666666</ele><time>2026-03-28T11:43:43.151Z</time></trkpt><trkpt lat="46.1327883" lon="13.0244733"><ele>137.33333333333331</ele><time>2026-03-28T11:43:44.151Z</time></trkpt><trkpt lat="46.132945" lon="13.0244783"><ele>137.0</ele><time>2026-03-28T11:43:45.152Z</time></trkpt><trkpt lat="46.1331067" lon="13.0244767"><ele>136.66666666666666</ele><time>2026-03-28T11:43:46.152Z</time></trkpt><trkpt lat="46.1332667" lon="13.0244767"><ele>136.33333333333334</ele><time>2026-03-28T11:43:47.151Z</time></trkpt><trkpt lat="46.1334217" lon="13.0244867"><ele>136.0</ele><time>2026-03-28T11:43:48.151Z</time></trkpt><trkpt lat="46.1335717" lon="13.024515"><ele>136.0</ele><time>2026-03-28T11:43:49.152Z</time></trkpt><trkpt lat="46.1337067" lon="13.024575"><ele>136.0</ele><time>2026-03-28T11:43:50.151Z</time></trkpt><trkpt lat="46.1338133" lon="13.02463"><ele>136.0</ele><time>2026-03-28T11:43:51.151Z</time></trkpt><trkpt lat="46.1338933" lon="13.0246817"><ele>136.0</ele><time>2026-03-28T11:43:52.151Z</time></trkpt><trkpt lat="46.13395" lon="13.0247233"><ele>136.0</ele><time>2026-03-28T11:43:53.151Z</time></trkpt><trkpt lat="46.1340183" lon="13.0247833"><ele>136.5</ele><time>2026-03-28T11:43:55.151Z</time></trkpt><trkpt lat="46.134135" lon="13.0248383"><ele>137.0</ele><time>2026-03-28T11:44:37.15Z</time></trkpt><trkpt lat="46.1342217" lon="13.0248517"><ele>137.5</ele><time>2026-03-28T11:44:39.15Z</time></trkpt><trkpt lat="46.1342867" lon="13.0248683"><ele>138.0</ele><time>2026-03-28T11:44:40.15Z</time></trkpt><trkpt lat="46.1343617" lon="13.0248933"><ele>138.5</ele><time>2026-03-28T11:44:41.151Z</time></trkpt><trkpt lat="46.134455" lon="13.024925"><ele>139.0</ele><time>2026-03-28T11:44:42.15Z</time></trkpt><trkpt lat="46.134565" lon="13.0249583"><ele>139.25</ele><time>2026-03-28T11:44:43.15Z</time></trkpt><trkpt lat="46.1346883" lon="13.0249833"><ele>139.5</ele><time>2026-03-28T11:44:44.15Z</time></trkpt><trkpt lat="46.1348117" lon="13.0250017"><ele>139.75</ele><time>2026-03-28T11:44:45.151Z</time></trkpt><trkpt lat="46.1349367" lon="13.0250217"><ele>140.0</ele><time>2026-03-28T11:44:46.15Z</time></trkpt><trkpt lat="46.13506" lon="13.025045"><ele>140.0</ele><time>2026-03-28T11:44:47.15Z</time></trkpt><trkpt lat="46.1351817" lon="13.0250683"><ele>140.0</ele><time>2026-03-28T11:44:48.15Z</time></trkpt><trkpt lat="46.1352867" lon="13.02509"><ele>140.0</ele><time>2026-03-28T11:44:49.15Z</time></trkpt><trkpt lat="46.1353733" lon="13.025105"><ele>140.0</ele><time>2026-03-28T11:44:50.151Z</time></trkpt><trkpt lat="46.13544" lon="13.02512"><ele>140.0</ele><time>2026-03-28T11:44:51.151Z</time></trkpt><trkpt lat="46.1355383" lon="13.025135"><ele>140.0</ele><time>2026-03-28T11:44:53.15Z</time></trkpt><trkpt lat="46.1356333" lon="13.0250733"><ele>140.0</ele><time>2026-03-28T11:44:55.15Z</time></trkpt><trkpt lat="46.1357183" lon="13.0249483"><ele>140.0</ele><time>2026-03-28T11:44:57.15Z</time></trkpt><trkpt lat="46.1358133" lon="13.02484"><ele>140.0</ele><time>2026-03-28T11:44:59.15Z</time></trkpt><trkpt lat="46.1358667" lon="13.024775"><ele>140.0</ele><time>2026-03-28T11:45:00.151Z</time></trkpt><trkpt lat="46.1359267" lon="13.024715"><ele>140.2</ele><time>2026-03-28T11:45:01.151Z</time></trkpt><trkpt lat="46.1360017" lon="13.0246683"><ele>140.4</ele><time>2026-03-28T11:45:02.15Z</time></trkpt><trkpt lat="46.13609" lon="13.0246267"><ele>140.6</ele><time>2026-03-28T11:45:03.15Z</time></trkpt><trkpt lat="46.13618" lon="13.0245883"><ele>140.8</ele><time>2026-03-28T11:45:04.15Z</time></trkpt><trkpt lat="46.13627" lon="13.0245417"><ele>141.0</ele><time>2026-03-28T11:45:05.15Z</time></trkpt><trkpt lat="46.1363533" lon="13.0244767"><ele>141.0</ele><time>2026-03-28T11:45:06.15Z</time></trkpt><trkpt lat="46.136425" lon="13.0244017"><ele>141.0</ele><time>2026-03-28T11:45:07.15Z</time></trkpt><trkpt lat="46.1364883" lon="13.024325"><ele>141.0</ele><time>2026-03-28T11:45:08.151Z</time></trkpt><trkpt lat="46.1365517" lon="13.0242467"><ele>141.0</ele><time>2026-03-28T11:45:09.15Z</time></trkpt><trkpt lat="46.1366067" lon="13.0241567"><ele>141.0</ele><time>2026-03-28T11:45:10.15Z</time></trkpt><trkpt lat="46.1366717" lon="13.024065"><ele>141.0</ele><time>2026-03-28T11:45:11.15Z</time></trkpt><trkpt lat="46.1367483" lon="13.0239883"><ele>143.4</ele><time>2026-03-28T11:45:12.15Z</time></trkpt><trkpt lat="46.136825" lon="13.0239383"><ele>145.8</ele><time>2026-03-28T11:45:13.15Z</time></trkpt><trkpt lat="46.1369133" lon="13.0239233"><ele>148.20000000000002</ele><time>2026-03-28T11:45:14.15Z</time></trkpt><trkpt lat="46.137005" lon="13.023925"><ele>150.6</ele><time>2026-03-28T11:45:15.15Z</time></trkpt><trkpt lat="46.1371033" lon="13.0239283"><ele>153.0</ele><time>2026-03-28T11:45:16.151Z</time></trkpt><trkpt lat="46.137215" lon="13.0239333"><ele>153.0</ele><time>2026-03-28T11:45:17.151Z</time></trkpt><trkpt lat="46.13733" lon="13.0239433"><ele>153.0</ele><time>2026-03-28T11:45:18.15Z</time></trkpt><trkpt lat="46.13745" lon="13.023945"><ele>153.0</ele><time>2026-03-28T11:45:19.15Z</time></trkpt><trkpt lat="46.1375767" lon="13.0239533"><ele>153.0</ele><time>2026-03-28T11:45:20.15Z</time></trkpt><trkpt lat="46.1377083" lon="13.0239667"><ele>154.0</ele><time>2026-03-28T11:45:21.151Z</time></trkpt><trkpt lat="46.137845" lon="13.0239833"><ele>155.0</ele><time>2026-03-28T11:45:22.151Z</time></trkpt><trkpt lat="46.1379717" lon="13.023995"><ele>156.0</ele><time>2026-03-28T11:45:23.15Z</time></trkpt><trkpt lat="46.1380917" lon="13.02401"><ele>157.0</ele><time>2026-03-28T11:45:24.15Z</time></trkpt><trkpt lat="46.1382" lon="13.02402"><ele>157.83333333333334</ele><time>2026-03-28T11:45:25.15Z</time></trkpt><trkpt lat="46.1383017" lon="13.02402"><ele>158.66666666666669</ele><time>2026-03-28T11:45:26.15Z</time></trkpt><trkpt lat="46.1383883" lon="13.024"><ele>159.5</ele><time>2026-03-28T11:45:27.15Z</time></trkpt><trkpt lat="46.1384533" lon="13.0239483"><ele>160.33333333333334</ele><time>2026-03-28T11:45:28.15Z</time></trkpt><trkpt lat="46.1384917" lon="13.023865"><ele>161.16666666666666</ele><time>2026-03-28T11:45:29.15Z</time></trkpt><trkpt lat="46.1385133" lon="13.023755"><ele>162.0</ele><time>2026-03-28T11:45:30.15Z</time></trkpt><trkpt lat="46.1384983" lon="13.02364"><ele>162.0</ele><time>2026-03-28T11:45:31.15Z</time></trkpt><trkpt lat="46.1384567" lon="13.023535"><ele>162.0</ele><time>2026-03-28T11:45:32.15Z</time></trkpt><trkpt lat="46.1383867" lon="13.0234367"><ele>162.0</ele><time>2026-03-28T11:45:33.15Z</time></trkpt><trkpt lat="46.1382783" lon="13.0233333"><ele>162.0</ele><time>2026-03-28T11:45:34.15Z</time></trkpt><trkpt lat="46.1381417" lon="13.0232233"><ele>163.0</ele><time>2026-03-28T11:45:35.15Z</time></trkpt><trkpt lat="46.1379983" lon="13.0230983"><ele>164.0</ele><time>2026-03-28T11:45:36.151Z</time></trkpt><trkpt lat="46.137875" lon="13.0229767"><ele>165.0</ele><time>2026-03-28T11:45:37.15Z</time></trkpt><trkpt lat="46.13777" lon="13.0228733"><ele>166.0</ele><time>2026-03-28T11:45:38.151Z</time></trkpt><trkpt lat="46.1376817" lon="13.0227783"><ele>166.0</ele><time>2026-03-28T11:45:39.15Z</time></trkpt><trkpt lat="46.1376033" lon="13.022695"><ele>166.0</ele><time>2026-03-28T11:45:40.151Z</time></trkpt><trkpt lat="46.137535" lon="13.0226267"><ele>166.0</ele><time>2026-03-28T11:45:41.15Z</time></trkpt><trkpt lat="46.1374633" lon="13.022535"><ele>166.0</ele><time>2026-03-28T11:45:43.15Z</time></trkpt><trkpt lat="46.1375333" lon="13.02246"><ele>166.0</ele><time>2026-03-28T11:45:47.15Z</time></trkpt><trkpt lat="46.1376117" lon="13.022535"><ele>166.0</ele><time>2026-03-28T11:45:49.15Z</time></trkpt><trkpt lat="46.13766" lon="13.0225967"><ele>166.0</ele><time>2026-03-28T11:45:50.151Z</time></trkpt><trkpt lat="46.137755" lon="13.0226883"><ele>166.0</ele><time>2026-03-28T11:45:52.15Z</time></trkpt><trkpt lat="46.1378517" lon="13.0227633"><ele>166.0</ele><time>2026-03-28T11:45:54.15Z</time></trkpt><trkpt lat="46.1379317" lon="13.0228267"><ele>166.0</ele><time>2026-03-28T11:45:56.15Z</time></trkpt><trkpt lat="46.138035" lon="13.0228883"><ele>166.0</ele><time>2026-03-28T11:45:58.15Z</time></trkpt><trkpt lat="46.138145" lon="13.0229367"><ele>166.0</ele><time>2026-03-28T11:46:00.151Z</time></trkpt><trkpt lat="46.1382717" lon="13.0229433"><ele>166.0</ele><time>2026-03-28T11:46:02.15Z</time></trkpt><trkpt lat="46.1383517" lon="13.0229333"><ele>166.0</ele><time>2026-03-28T11:46:03.15Z</time></trkpt><trkpt lat="46.1384467" lon="13.0229217"><ele>166.0</ele><time>2026-03-28T11:46:04.15Z</time></trkpt><trkpt lat="46.1385517" lon="13.022905"><ele>167.75</ele><time>2026-03-28T11:46:05.15Z</time></trkpt><trkpt lat="46.1386733" lon="13.0228833"><ele>169.5</ele><time>2026-03-28T11:46:06.15Z</time></trkpt><trkpt lat="46.138805" lon="13.0228617"><ele>171.25</ele><time>2026-03-28T11:46:07.15Z</time></trkpt><trkpt lat="46.138945" lon="13.0228317"><ele>173.0</ele><time>2026-03-28T11:46:08.151Z</time></trkpt><trkpt lat="46.13909" lon="13.0228083"><ele>174.33333333333331</ele><time>2026-03-28T11:46:09.151Z</time></trkpt><trkpt lat="46.1392383" lon="13.0227817"><ele>175.66666666666666</ele><time>2026-03-28T11:46:10.151Z</time></trkpt><trkpt lat="46.13939" lon="13.022755"><ele>177.0</ele><time>2026-03-28T11:46:11.15Z</time></trkpt><trkpt lat="46.1395467" lon="13.022735"><ele>177.0</ele><time>2026-03-28T11:46:12.15Z</time></trkpt><trkpt lat="46.1397083" lon="13.0227117"><ele>177.0</ele><time>2026-03-28T11:46:13.15Z</time></trkpt><trkpt lat="46.1398667" lon="13.022685"><ele>177.0</ele><time>2026-03-28T11:46:14.15Z</time></trkpt><trkpt lat="46.1400283" lon="13.02266"><ele>177.0</ele><time>2026-03-28T11:46:15.15Z</time></trkpt><trkpt lat="46.14019" lon="13.02264"><ele>177.0</ele><time>2026-03-28T11:46:16.15Z</time></trkpt><trkpt lat="46.1403383" lon="13.022615"><ele>177.0</ele><time>2026-03-28T11:46:17.15Z</time></trkpt><trkpt lat="46.1404783" lon="13.022575"><ele>177.0</ele><time>2026-03-28T11:46:18.15Z</time></trkpt><trkpt lat="46.1406117" lon="13.022525"><ele>177.0</ele><time>2026-03-28T11:46:19.15Z</time></trkpt><trkpt lat="46.1407533" lon="13.0224517"><ele>177.0</ele><time>2026-03-28T11:46:20.15Z</time></trkpt><trkpt lat="46.140905" lon="13.0223717"><ele>178.0</ele><time>2026-03-28T11:46:21.151Z</time></trkpt><trkpt lat="46.1410583" lon="13.0222933"><ele>179.0</ele><time>2026-03-28T11:46:22.15Z</time></trkpt><trkpt lat="46.1412133" lon="13.0222133"><ele>180.0</ele><time>2026-03-28T11:46:23.151Z</time></trkpt><trkpt lat="46.14137" lon="13.0221383"><ele>180.0</ele><time>2026-03-28T11:46:24.151Z</time></trkpt><trkpt lat="46.1415217" lon="13.0220683"><ele>180.0</ele><time>2026-03-28T11:46:25.151Z</time></trkpt><trkpt lat="46.1416767" lon="13.02201"><ele>180.0</ele><time>2026-03-28T11:46:26.15Z</time></trkpt><trkpt lat="46.1418383" lon="13.02195"><ele>180.0</ele><time>2026-03-28T11:46:27.15Z</time></trkpt><trkpt lat="46.1420067" lon="13.021895"><ele>180.0</ele><time>2026-03-28T11:46:28.15Z</time></trkpt><trkpt lat="46.14217" lon="13.0218433"><ele>180.0</ele><time>2026-03-28T11:46:29.15Z</time></trkpt><trkpt lat="46.14233" lon="13.0217983"><ele>180.5</ele><time>2026-03-28T11:46:30.15Z</time></trkpt><trkpt lat="46.1424817" lon="13.021755"><ele>181.0</ele><time>2026-03-28T11:46:31.15Z</time></trkpt><trkpt lat="46.1426217" lon="13.02171"><ele>181.5</ele><time>2026-03-28T11:46:32.15Z</time></trkpt><trkpt lat="46.1427417" lon="13.0216583"><ele>182.0</ele><time>2026-03-28T11:46:33.151Z</time></trkpt><trkpt lat="46.1428567" lon="13.021595"><ele>182.5</ele><time>2026-03-28T11:46:34.15Z</time></trkpt><trkpt lat="46.1429567" lon="13.0215167"><ele>183.0</ele><time>2026-03-28T11:46:35.15Z</time></trkpt><trkpt lat="46.14305" lon="13.0214233"><ele>183.5</ele><time>2026-03-28T11:46:36.15Z</time></trkpt><trkpt lat="46.1431467" lon="13.0213133"><ele>184.0</ele><time>2026-03-28T11:46:37.151Z</time></trkpt><trkpt lat="46.14324" lon="13.021195"><ele>184.39999999999998</ele><time>2026-03-28T11:46:38.15Z</time></trkpt><trkpt lat="46.1433217" lon="13.0210817"><ele>184.8</ele><time>2026-03-28T11:46:39.151Z</time></trkpt><trkpt lat="46.143385" lon="13.02099"><ele>185.2</ele><time>2026-03-28T11:46:40.15Z</time></trkpt><trkpt lat="46.14344" lon="13.0209167"><ele>185.60000000000002</ele><time>2026-03-28T11:46:41.15Z</time></trkpt><trkpt lat="46.1435117" lon="13.0208233"><ele>186.0</ele><time>2026-03-28T11:46:43.15Z</time></trkpt><trkpt lat="46.1435733" lon="13.0207533"><ele>186.0</ele><time>2026-03-28T11:46:46.151Z</time></trkpt><trkpt lat="46.1435933" lon="13.020655"><ele>186.0</ele><time>2026-03-28T11:46:55.15Z</time></trkpt><trkpt lat="46.143525" lon="13.0206867"><ele>186.0</ele><time>2026-03-28T11:46:58.151Z</time></trkpt><trkpt lat="46.1434533" lon="13.020805"><ele>186.0</ele><time>2026-03-28T11:47:00.15Z</time></trkpt><trkpt lat="46.1434083" lon="13.0208833"><ele>186.0</ele><time>2026-03-28T11:47:01.15Z</time></trkpt><trkpt lat="46.143365" lon="13.0209517"><ele>186.0</ele><time>2026-03-28T11:47:02.15Z</time></trkpt><trkpt lat="46.1432817" lon="13.0210717"><ele>185.60000000000002</ele><time>2026-03-28T11:47:04.15Z</time></trkpt><trkpt lat="46.1432283" lon="13.02116"><ele>185.2</ele><time>2026-03-28T11:47:05.15Z</time></trkpt><trkpt lat="46.1431567" lon="13.02126"><ele>184.8</ele><time>2026-03-28T11:47:06.15Z</time></trkpt><trkpt lat="46.1430617" lon="13.0213683"><ele>184.39999999999998</ele><time>2026-03-28T11:47:07.15Z</time></trkpt><trkpt lat="46.1429533" lon="13.0214683"><ele>184.0</ele><time>2026-03-28T11:47:08.15Z</time></trkpt><trkpt lat="46.1428367" lon="13.0215517"><ele>184.0</ele><time>2026-03-28T11:47:09.15Z</time></trkpt><trkpt lat="46.1427" lon="13.0216217"><ele>184.0</ele><time>2026-03-28T11:47:10.151Z</time></trkpt><trkpt lat="46.1425467" lon="13.0216783"><ele>184.0</ele><time>2026-03-28T11:47:11.15Z</time></trkpt><trkpt lat="46.1423917" lon="13.0217217"><ele>183.0</ele><time>2026-03-28T11:47:12.15Z</time></trkpt><trkpt lat="46.14224" lon="13.0217583"><ele>182.0</ele><time>2026-03-28T11:47:13.151Z</time></trkpt><trkpt lat="46.1420967" lon="13.0217983"><ele>181.0</ele><time>2026-03-28T11:47:14.15Z</time></trkpt><trkpt lat="46.1419733" lon="13.0218317"><ele>180.0</ele><time>2026-03-28T11:47:15.15Z</time></trkpt><trkpt lat="46.1418783" lon="13.0218533"><ele>180.0</ele><time>2026-03-28T11:47:16.15Z</time></trkpt><trkpt lat="46.1417867" lon="13.0218567"><ele>180.0</ele><time>2026-03-28T11:47:18.15Z</time></trkpt><trkpt lat="46.1417183" lon="13.0218433"><ele>180.0</ele><time>2026-03-28T11:47:20.15Z</time></trkpt><trkpt lat="46.1416217" lon="13.0218267"><ele>180.0</ele><time>2026-03-28T11:47:22.15Z</time></trkpt><trkpt lat="46.1415333" lon="13.0218267"><ele>180.0</ele><time>2026-03-28T11:47:24.15Z</time></trkpt><trkpt lat="46.1414267" lon="13.02188"><ele>180.0</ele><time>2026-03-28T11:47:26.15Z</time></trkpt><trkpt lat="46.1413517" lon="13.02192"><ele>180.0</ele><time>2026-03-28T11:47:27.15Z</time></trkpt><trkpt lat="46.1412617" lon="13.0219717"><ele>180.0</ele><time>2026-03-28T11:47:28.15Z</time></trkpt><trkpt lat="46.141165" lon="13.02203"><ele>180.0</ele><time>2026-03-28T11:47:29.151Z</time></trkpt><trkpt lat="46.1410717" lon="13.0220733"><ele>180.0</ele><time>2026-03-28T11:47:30.151Z</time></trkpt><trkpt lat="46.1409817" lon="13.0221083"><ele>180.0</ele><time>2026-03-28T11:47:31.15Z</time></trkpt><trkpt lat="46.1408883" lon="13.0221333"><ele>180.0</ele><time>2026-03-28T11:47:32.15Z</time></trkpt><trkpt lat="46.1407917" lon="13.022145"><ele>180.0</ele><time>2026-03-28T11:47:33.15Z</time></trkpt><trkpt lat="46.1406817" lon="13.0221217"><ele>180.0</ele><time>2026-03-28T11:47:34.15Z</time></trkpt><trkpt lat="46.140535" lon="13.0220783"><ele>180.0</ele><time>2026-03-28T11:47:35.15Z</time></trkpt><trkpt lat="46.1403683" lon="13.0220367"><ele>180.0</ele><time>2026-03-28T11:47:36.151Z</time></trkpt><trkpt lat="46.1402233" lon="13.0219917"><ele>180.0</ele><time>2026-03-28T11:47:37.151Z</time></trkpt><trkpt lat="46.140095" lon="13.021945"><ele>180.0</ele><time>2026-03-28T11:47:38.15Z</time></trkpt><trkpt lat="46.139995" lon="13.0219017"><ele>180.0</ele><time>2026-03-28T11:47:39.15Z</time></trkpt><trkpt lat="46.1399033" lon="13.0218367"><ele>180.0</ele><time>2026-03-28T11:47:40.151Z</time></trkpt><trkpt lat="46.1398183" lon="13.0217617"><ele>180.0</ele><time>2026-03-28T11:47:41.151Z</time></trkpt><trkpt lat="46.13973" lon="13.0216783"><ele>180.0</ele><time>2026-03-28T11:47:42.151Z</time></trkpt><trkpt lat="46.1396383" lon="13.0215833"><ele>180.2</ele><time>2026-03-28T11:47:43.15Z</time></trkpt><trkpt lat="46.13954" lon="13.02149"><ele>180.4</ele><time>2026-03-28T11:47:44.15Z</time></trkpt><trkpt lat="46.1394433" lon="13.0214083"><ele>180.60000000000002</ele><time>2026-03-28T11:47:45.15Z</time></trkpt><trkpt lat="46.139345" lon="13.02133"><ele>180.8</ele><time>2026-03-28T11:47:46.15Z</time></trkpt><trkpt lat="46.1392533" lon="13.021265"><ele>181.0</ele><time>2026-03-28T11:47:47.15Z</time></trkpt><trkpt lat="46.13917" lon="13.0212117"><ele>181.0</ele><time>2026-03-28T11:47:48.151Z</time></trkpt><trkpt lat="46.1391033" lon="13.0211633"><ele>181.0</ele><time>2026-03-28T11:47:49.15Z</time></trkpt><trkpt lat="46.1390483" lon="13.0211133"><ele>181.0</ele><time>2026-03-28T11:47:50.15Z</time></trkpt><trkpt lat="46.1389567" lon="13.0209817"><ele>181.0</ele><time>2026-03-28T11:47:52.15Z</time></trkpt><trkpt lat="46.138915" lon="13.020895"><ele>181.0</ele><time>2026-03-28T11:47:53.15Z</time></trkpt><trkpt lat="46.13887" lon="13.02079"><ele>181.0</ele><time>2026-03-28T11:47:54.15Z</time></trkpt><trkpt lat="46.1388233" lon="13.020675"><ele>180.4</ele><time>2026-03-28T11:47:55.15Z</time></trkpt><trkpt lat="46.1387717" lon="13.0205533"><ele>179.8</ele><time>2026-03-28T11:47:56.15Z</time></trkpt><trkpt lat="46.1387183" lon="13.0204267"><ele>179.20000000000002</ele><time>2026-03-28T11:47:57.15Z</time></trkpt><trkpt lat="46.1386633" lon="13.020305"><ele>178.60000000000002</ele><time>2026-03-28T11:47:58.15Z</time></trkpt><trkpt lat="46.138595" lon="13.0201817"><ele>178.0</ele><time>2026-03-28T11:47:59.15Z</time></trkpt><trkpt lat="46.1385167" lon="13.0200533"><ele>177.75</ele><time>2026-03-28T11:48:00.151Z</time></trkpt><trkpt lat="46.1384367" lon="13.0199283"><ele>177.5</ele><time>2026-03-28T11:48:01.15Z</time></trkpt><trkpt lat="46.1383567" lon="13.019805"><ele>177.25</ele><time>2026-03-28T11:48:02.151Z</time></trkpt><trkpt lat="46.1382783" lon="13.0196867"><ele>177.0</ele><time>2026-03-28T11:48:03.151Z</time></trkpt><trkpt lat="46.1381983" lon="13.01957"><ele>176.8</ele><time>2026-03-28T11:48:04.15Z</time></trkpt><trkpt lat="46.138125" lon="13.01946"><ele>176.6</ele><time>2026-03-28T11:48:05.15Z</time></trkpt><trkpt lat="46.1380467" lon="13.019355"><ele>176.4</ele><time>2026-03-28T11:48:06.15Z</time></trkpt><trkpt lat="46.13797" lon="13.0192467"><ele>176.20000000000002</ele><time>2026-03-28T11:48:07.15Z</time></trkpt><trkpt lat="46.1378983" lon="13.01914"><ele>176.0</ele><time>2026-03-28T11:48:08.15Z</time></trkpt><trkpt lat="46.1378283" lon="13.0190317"><ele>176.4</ele><time>2026-03-28T11:48:09.15Z</time></trkpt><trkpt lat="46.1377467" lon="13.0189267"><ele>176.8</ele><time>2026-03-28T11:48:10.15Z</time></trkpt><trkpt lat="46.1376633" lon="13.0188333"><ele>177.20000000000002</ele><time>2026-03-28T11:48:11.15Z</time></trkpt><trkpt lat="46.1375817" lon="13.0187617"><ele>177.60000000000002</ele><time>2026-03-28T11:48:12.15Z</time></trkpt><trkpt lat="46.1375" lon="13.0186967"><ele>178.0</ele><time>2026-03-28T11:48:13.151Z</time></trkpt><trkpt lat="46.137425" lon="13.0186283"><ele>177.8</ele><time>2026-03-28T11:48:14.15Z</time></trkpt><trkpt lat="46.1373617" lon="13.0185467"><ele>177.60000000000002</ele><time>2026-03-28T11:48:15.15Z</time></trkpt><trkpt lat="46.1373017" lon="13.0184533"><ele>177.39999999999998</ele><time>2026-03-28T11:48:16.15Z</time></trkpt><trkpt lat="46.1372417" lon="13.0183517"><ele>177.2</ele><time>2026-03-28T11:48:17.15Z</time></trkpt><trkpt lat="46.137185" lon="13.0182467"><ele>177.0</ele><time>2026-03-28T11:48:18.151Z</time></trkpt><trkpt lat="46.1371167" lon="13.0181517"><ele>176.66666666666666</ele><time>2026-03-28T11:48:19.15Z</time></trkpt><trkpt lat="46.1370433" lon="13.0180667"><ele>176.33333333333334</ele><time>2026-03-28T11:48:20.15Z</time></trkpt><trkpt lat="46.1369667" lon="13.0179917"><ele>176.0</ele><time>2026-03-28T11:48:21.15Z</time></trkpt><trkpt lat="46.1368917" lon="13.01793"><ele>175.66666666666669</ele><time>2026-03-28T11:48:22.15Z</time></trkpt><trkpt lat="46.1368183" lon="13.0178633"><ele>175.33333333333334</ele><time>2026-03-28T11:48:23.151Z</time></trkpt><trkpt lat="46.1367517" lon="13.0177933"><ele>175.0</ele><time>2026-03-28T11:48:24.15Z</time></trkpt><trkpt lat="46.136685" lon="13.0177233"><ele>175.0</ele><time>2026-03-28T11:48:25.15Z</time></trkpt><trkpt lat="46.1366267" lon="13.0176617"><ele>175.0</ele><time>2026-03-28T11:48:26.15Z</time></trkpt><trkpt lat="46.1365783" lon="13.0175467"><ele>175.0</ele><time>2026-03-28T11:48:28.15Z</time></trkpt><trkpt lat="46.1366133" lon="13.0174533"><ele>175.0</ele><time>2026-03-28T11:48:30.15Z</time></trkpt><trkpt lat="46.136665" lon="13.0174"><ele>175.0</ele><time>2026-03-28T11:48:31.15Z</time></trkpt><trkpt lat="46.1367383" lon="13.0173267"><ele>175.0</ele><time>2026-03-28T11:48:32.15Z</time></trkpt><trkpt lat="46.1368233" lon="13.017245"><ele>175.0</ele><time>2026-03-28T11:48:33.151Z</time></trkpt><trkpt lat="46.136925" lon="13.0171517"><ele>175.0</ele><time>2026-03-28T11:48:34.15Z</time></trkpt><trkpt lat="46.1370367" lon="13.0170467"><ele>175.0</ele><time>2026-03-28T11:48:35.15Z</time></trkpt><trkpt lat="46.1371467" lon="13.01694"><ele>175.0</ele><time>2026-03-28T11:48:36.15Z</time></trkpt><trkpt lat="46.13725" lon="13.0168367"><ele>175.0</ele><time>2026-03-28T11:48:37.15Z</time></trkpt><trkpt lat="46.13735" lon="13.0167317"><ele>175.0</ele><time>2026-03-28T11:48:38.15Z</time></trkpt><trkpt lat="46.1374467" lon="13.016635"><ele>175.0</ele><time>2026-03-28T11:48:39.15Z</time></trkpt><trkpt lat="46.137535" lon="13.016545"><ele>175.0</ele><time>2026-03-28T11:48:40.15Z</time></trkpt><trkpt lat="46.137625" lon="13.0164717"><ele>175.8</ele><time>2026-03-28T11:48:41.151Z</time></trkpt><trkpt lat="46.1377133" lon="13.0164317"><ele>176.6</ele><time>2026-03-28T11:48:42.151Z</time></trkpt><trkpt lat="46.13781" lon="13.0164217"><ele>177.39999999999998</ele><time>2026-03-28T11:48:43.15Z</time></trkpt><trkpt lat="46.1379117" lon="13.0164233"><ele>178.2</ele><time>2026-03-28T11:48:44.15Z</time></trkpt><trkpt lat="46.1380183" lon="13.01641"><ele>179.0</ele><time>2026-03-28T11:48:45.151Z</time></trkpt><trkpt lat="46.1381183" lon="13.016375"><ele>179.5</ele><time>2026-03-28T11:48:46.15Z</time></trkpt><trkpt lat="46.1382317" lon="13.0163017"><ele>180.0</ele><time>2026-03-28T11:48:47.15Z</time></trkpt><trkpt lat="46.13836" lon="13.016215"><ele>180.5</ele><time>2026-03-28T11:48:48.15Z</time></trkpt><trkpt lat="46.1384817" lon="13.0161333"><ele>181.0</ele><time>2026-03-28T11:48:49.15Z</time></trkpt><trkpt lat="46.138595" lon="13.01606"><ele>181.0</ele><time>2026-03-28T11:48:50.15Z</time></trkpt><trkpt lat="46.1387167" lon="13.0159717"><ele>181.0</ele><time>2026-03-28T11:48:51.15Z</time></trkpt><trkpt lat="46.138835" lon="13.0158883"><ele>181.0</ele><time>2026-03-28T11:48:52.15Z</time></trkpt><trkpt lat="46.1389483" lon="13.01581"><ele>181.0</ele><time>2026-03-28T11:48:53.15Z</time></trkpt><trkpt lat="46.139065" lon="13.0157317"><ele>180.33333333333334</ele><time>2026-03-28T11:48:54.15Z</time></trkpt><trkpt lat="46.13919" lon="13.01564"><ele>179.66666666666666</ele><time>2026-03-28T11:48:55.15Z</time></trkpt><trkpt lat="46.1393283" lon="13.0155333"><ele>179.0</ele><time>2026-03-28T11:48:56.15Z</time></trkpt><trkpt lat="46.1394817" lon="13.015415"><ele>179.0</ele><time>2026-03-28T11:48:57.15Z</time></trkpt><trkpt lat="46.1396217" lon="13.0153017"><ele>179.0</ele><time>2026-03-28T11:48:58.15Z</time></trkpt><trkpt lat="46.1397517" lon="13.0152083"><ele>179.0</ele><time>2026-03-28T11:48:59.15Z</time></trkpt><trkpt lat="46.139865" lon="13.0151383"><ele>179.0</ele><time>2026-03-28T11:49:00.15Z</time></trkpt><trkpt lat="46.1399683" lon="13.0150817"><ele>179.0</ele><time>2026-03-28T11:49:01.151Z</time></trkpt><trkpt lat="46.140055" lon="13.0150317"><ele>179.0</ele><time>2026-03-28T11:49:02.15Z</time></trkpt><trkpt lat="46.1401233" lon="13.015"><ele>179.0</ele><time>2026-03-28T11:49:03.151Z</time></trkpt><trkpt lat="46.1402083" lon="13.014985"><ele>179.0</ele><time>2026-03-28T11:49:05.151Z</time></trkpt><trkpt lat="46.140245" lon="13.0149067"><ele>179.0</ele><time>2026-03-28T11:49:08.151Z</time></trkpt><trkpt lat="46.140195" lon="13.0148133"><ele>179.0</ele><time>2026-03-28T11:49:10.15Z</time></trkpt><trkpt lat="46.140085" lon="13.0146783"><ele>179.0</ele><time>2026-03-28T11:49:12.151Z</time></trkpt><trkpt lat="46.1400133" lon="13.0145767"><ele>179.0</ele><time>2026-03-28T11:49:13.151Z</time></trkpt><trkpt lat="46.1399417" lon="13.0144617"><ele>179.0</ele><time>2026-03-28T11:49:14.15Z</time></trkpt><trkpt lat="46.1398567" lon="13.0143333"><ele>179.0</ele><time>2026-03-28T11:49:15.15Z</time></trkpt><trkpt lat="46.13976" lon="13.0141833"><ele>178.75</ele><time>2026-03-28T11:49:16.15Z</time></trkpt><trkpt lat="46.13966" lon="13.01404"><ele>178.5</ele><time>2026-03-28T11:49:17.15Z</time></trkpt><trkpt lat="46.1395533" lon="13.0139"><ele>178.25</ele><time>2026-03-28T11:49:18.15Z</time></trkpt><trkpt lat="46.13945" lon="13.0137783"><ele>178.0</ele><time>2026-03-28T11:49:19.15Z</time></trkpt><trkpt lat="46.13934" lon="13.0136617"><ele>178.0</ele><time>2026-03-28T11:49:20.15Z</time></trkpt><trkpt lat="46.1392217" lon="13.01354"><ele>178.0</ele><time>2026-03-28T11:49:21.15Z</time></trkpt><trkpt lat="46.1391" lon="13.0134217"><ele>178.0</ele><time>2026-03-28T11:49:22.15Z</time></trkpt><trkpt lat="46.1389767" lon="13.0132983"><ele>178.0</ele><time>2026-03-28T11:49:23.15Z</time></trkpt><trkpt lat="46.1388533" lon="13.01318"><ele>177.0</ele><time>2026-03-28T11:49:24.151Z</time></trkpt><trkpt lat="46.1387317" lon="13.0130483"><ele>176.0</ele><time>2026-03-28T11:49:25.15Z</time></trkpt><trkpt lat="46.13861" lon="13.0129133"><ele>175.0</ele><time>2026-03-28T11:49:26.15Z</time></trkpt><trkpt lat="46.138495" lon="13.0127833"><ele>175.0</ele><time>2026-03-28T11:49:27.15Z</time></trkpt><trkpt lat="46.1383933" lon="13.0126533"><ele>175.0</ele><time>2026-03-28T11:49:28.15Z</time></trkpt><trkpt lat="46.1383033" lon="13.0125233"><ele>175.0</ele><time>2026-03-28T11:49:29.15Z</time></trkpt><trkpt lat="46.1382167" lon="13.01238"><ele>175.0</ele><time>2026-03-28T11:49:30.15Z</time></trkpt><trkpt lat="46.1381283" lon="13.0122233"><ele>174.75</ele><time>2026-03-28T11:49:31.15Z</time></trkpt><trkpt lat="46.1380383" lon="13.0120767"><ele>174.5</ele><time>2026-03-28T11:49:32.151Z</time></trkpt><trkpt lat="46.1379417" lon="13.0119367"><ele>174.25</ele><time>2026-03-28T11:49:33.151Z</time></trkpt><trkpt lat="46.1378367" lon="13.0117917"><ele>174.0</ele><time>2026-03-28T11:49:34.15Z</time></trkpt><trkpt lat="46.1377267" lon="13.011645"><ele>173.75</ele><time>2026-03-28T11:49:35.151Z</time></trkpt><trkpt lat="46.1376167" lon="13.0114967"><ele>173.5</ele><time>2026-03-28T11:49:36.151Z</time></trkpt><trkpt lat="46.13751" lon="13.011355"><ele>173.25</ele><time>2026-03-28T11:49:37.15Z</time></trkpt><trkpt lat="46.1374083" lon="13.0112133"><ele>173.0</ele><time>2026-03-28T11:49:38.15Z</time></trkpt><trkpt lat="46.1373033" lon="13.0110617"><ele>173.0</ele><time>2026-03-28T11:49:39.15Z</time></trkpt><trkpt lat="46.1371967" lon="13.0109033"><ele>173.0</ele><time>2026-03-28T11:49:40.15Z</time></trkpt><trkpt lat="46.1370933" lon="13.0107567"><ele>173.0</ele><time>2026-03-28T11:49:41.15Z</time></trkpt><trkpt lat="46.136985" lon="13.0106233"><ele>173.0</ele><time>2026-03-28T11:49:42.15Z</time></trkpt><trkpt lat="46.1368617" lon="13.010495"><ele>172.75</ele><time>2026-03-28T11:49:43.151Z</time></trkpt><trkpt lat="46.1367317" lon="13.0103767"><ele>172.5</ele><time>2026-03-28T11:49:44.15Z</time></trkpt><trkpt lat="46.13661" lon="13.01027"><ele>172.25</ele><time>2026-03-28T11:49:45.15Z</time></trkpt><trkpt lat="46.1364983" lon="13.0101767"><ele>172.0</ele><time>2026-03-28T11:49:46.15Z</time></trkpt><trkpt lat="46.136395" lon="13.010085"><ele>171.83333333333334</ele><time>2026-03-28T11:49:47.15Z</time></trkpt><trkpt lat="46.1363067" lon="13.0099967"><ele>171.66666666666669</ele><time>2026-03-28T11:49:48.15Z</time></trkpt><trkpt lat="46.1362267" lon="13.009925"><ele>171.5</ele><time>2026-03-28T11:49:49.15Z</time></trkpt><trkpt lat="46.1361633" lon="13.0098767"><ele>171.33333333333334</ele><time>2026-03-28T11:49:50.15Z</time></trkpt><trkpt lat="46.1360767" lon="13.009805"><ele>171.16666666666666</ele><time>2026-03-28T11:49:52.15Z</time></trkpt><trkpt lat="46.1360633" lon="13.0097"><ele>171.0</ele><time>2026-03-28T11:49:54.15Z</time></trkpt><trkpt lat="46.1361217" lon="13.0095867"><ele>170.8</ele><time>2026-03-28T11:49:56.15Z</time></trkpt><trkpt lat="46.13618" lon="13.0095067"><ele>170.60000000000002</ele><time>2026-03-28T11:49:57.15Z</time></trkpt><trkpt lat="46.1362533" lon="13.0094067"><ele>170.4</ele><time>2026-03-28T11:49:58.15Z</time></trkpt><trkpt lat="46.1363433" lon="13.009285"><ele>170.2</ele><time>2026-03-28T11:49:59.15Z</time></trkpt><trkpt lat="46.13644" lon="13.00914"><ele>170.0</ele><time>2026-03-28T11:50:00.15Z</time></trkpt><trkpt lat="46.1365383" lon="13.0089867"><ele>170.5</ele><time>2026-03-28T11:50:01.15Z</time></trkpt><trkpt lat="46.1366333" lon="13.0088417"><ele>171.0</ele><time>2026-03-28T11:50:02.15Z</time></trkpt><trkpt lat="46.1367233" lon="13.0087133"><ele>171.5</ele><time>2026-03-28T11:50:03.15Z</time></trkpt><trkpt lat="46.1368083" lon="13.008605"><ele>172.0</ele><time>2026-03-28T11:50:04.15Z</time></trkpt><trkpt lat="46.1369033" lon="13.008505"><ele>172.0</ele><time>2026-03-28T11:50:05.15Z</time></trkpt><trkpt lat="46.1369983" lon="13.0084167"><ele>172.0</ele><time>2026-03-28T11:50:06.15Z</time></trkpt><trkpt lat="46.137085" lon="13.0083433"><ele>172.0</ele><time>2026-03-28T11:50:07.151Z</time></trkpt><trkpt lat="46.137155" lon="13.0082733"><ele>172.0</ele><time>2026-03-28T11:50:08.15Z</time></trkpt><trkpt lat="46.1372167" lon="13.0081767"><ele>172.0</ele><time>2026-03-28T11:50:09.15Z</time></trkpt><trkpt lat="46.1372717" lon="13.00805"><ele>172.0</ele><time>2026-03-28T11:50:10.15Z</time></trkpt><trkpt lat="46.1373283" lon="13.0079033"><ele>172.0</ele><time>2026-03-28T11:50:11.15Z</time></trkpt><trkpt lat="46.1373917" lon="13.007745"><ele>172.0</ele><time>2026-03-28T11:50:12.15Z</time></trkpt><trkpt lat="46.1374583" lon="13.0075833"><ele>172.0</ele><time>2026-03-28T11:50:13.15Z</time></trkpt><trkpt lat="46.137535" lon="13.0074233"><ele>171.75</ele><time>2026-03-28T11:50:14.15Z</time></trkpt><trkpt lat="46.1376133" lon="13.007275"><ele>171.5</ele><time>2026-03-28T11:50:15.151Z</time></trkpt><trkpt lat="46.1377033" lon="13.007125"><ele>171.25</ele><time>2026-03-28T11:50:16.15Z</time></trkpt><trkpt lat="46.1377933" lon="13.0069767"><ele>171.0</ele><time>2026-03-28T11:50:17.15Z</time></trkpt><trkpt lat="46.1378683" lon="13.00682"><ele>171.0</ele><time>2026-03-28T11:50:18.15Z</time></trkpt><trkpt lat="46.1379467" lon="13.00666"><ele>171.0</ele><time>2026-03-28T11:50:19.151Z</time></trkpt><trkpt lat="46.13803" lon="13.0064983"><ele>171.0</ele><time>2026-03-28T11:50:20.15Z</time></trkpt><trkpt lat="46.1381283" lon="13.0063317"><ele>171.0</ele><time>2026-03-28T11:50:21.15Z</time></trkpt><trkpt lat="46.1382417" lon="13.0061717"><ele>171.0</ele><time>2026-03-28T11:50:22.15Z</time></trkpt><trkpt lat="46.1383567" lon="13.00602"><ele>171.0</ele><time>2026-03-28T11:50:23.15Z</time></trkpt><trkpt lat="46.138475" lon="13.005865"><ele>171.0</ele><time>2026-03-28T11:50:24.15Z</time></trkpt><trkpt lat="46.1385917" lon="13.0057133"><ele>170.75</ele><time>2026-03-28T11:50:25.15Z</time></trkpt><trkpt lat="46.1387083" lon="13.00557"><ele>170.5</ele><time>2026-03-28T11:50:26.15Z</time></trkpt><trkpt lat="46.1388217" lon="13.0054283"><ele>170.25</ele><time>2026-03-28T11:50:27.151Z</time></trkpt><trkpt lat="46.1389283" lon="13.0052883"><ele>170.0</ele><time>2026-03-28T11:50:28.15Z</time></trkpt><trkpt lat="46.1390333" lon="13.0051467"><ele>168.66666666666666</ele><time>2026-03-28T11:50:29.15Z</time></trkpt><trkpt lat="46.1392317" lon="13.0048367"><ele>167.33333333333334</ele><time>2026-03-28T11:50:31.15Z</time></trkpt><trkpt lat="46.1393233" lon="13.0046767"><ele>166.0</ele><time>2026-03-28T11:50:32.15Z</time></trkpt><trkpt lat="46.139415" lon="13.0045083"><ele>166.0</ele><time>2026-03-28T11:50:33.15Z</time></trkpt><trkpt lat="46.1395117" lon="13.004345"><ele>166.0</ele><time>2026-03-28T11:50:34.15Z</time></trkpt><trkpt lat="46.1396017" lon="13.0041817"><ele>166.0</ele><time>2026-03-28T11:50:35.151Z</time></trkpt><trkpt lat="46.1396883" lon="13.0040183"><ele>166.0</ele><time>2026-03-28T11:50:36.15Z</time></trkpt><trkpt lat="46.1397717" lon="13.0038583"><ele>166.25</ele><time>2026-03-28T11:50:37.151Z</time></trkpt><trkpt lat="46.13986" lon="13.0037"><ele>166.5</ele><time>2026-03-28T11:50:38.15Z</time></trkpt><trkpt lat="46.1399467" lon="13.003555"><ele>166.75</ele><time>2026-03-28T11:50:39.15Z</time></trkpt><trkpt lat="46.1400317" lon="13.003425"><ele>167.0</ele><time>2026-03-28T11:50:40.15Z</time></trkpt><trkpt lat="46.14011" lon="13.0033017"><ele>167.16666666666666</ele><time>2026-03-28T11:50:41.151Z</time></trkpt><trkpt lat="46.1401783" lon="13.0031833"><ele>167.33333333333331</ele><time>2026-03-28T11:50:42.151Z</time></trkpt><trkpt lat="46.1402367" lon="13.003075"><ele>167.5</ele><time>2026-03-28T11:50:43.15Z</time></trkpt><trkpt lat="46.1402817" lon="13.0029983"><ele>167.66666666666666</ele><time>2026-03-28T11:50:44.151Z</time></trkpt><trkpt lat="46.1403283" lon="13.0029133"><ele>167.83333333333334</ele><time>2026-03-28T11:50:46.15Z</time></trkpt><trkpt lat="46.1403767" lon="13.0028267"><ele>168.0</ele><time>2026-03-28T11:50:49.15Z</time></trkpt><trkpt lat="46.1404417" lon="13.0027183"><ele>168.0</ele><time>2026-03-28T11:50:51.15Z</time></trkpt><trkpt lat="46.140425" lon="13.0025567"><ele>168.0</ele><time>2026-03-28T11:50:59.15Z</time></trkpt><trkpt lat="46.1404483" lon="13.0023733"><ele>168.0</ele><time>2026-03-28T11:51:01.151Z</time></trkpt><trkpt lat="46.14049" lon="13.0022467"><ele>168.0</ele><time>2026-03-28T11:51:02.15Z</time></trkpt><trkpt lat="46.1405433" lon="13.0021"><ele>167.75</ele><time>2026-03-28T11:51:03.15Z</time></trkpt><trkpt lat="46.1406117" lon="13.0019217"><ele>167.5</ele><time>2026-03-28T11:51:04.15Z</time></trkpt><trkpt lat="46.14068" lon="13.0017467"><ele>167.25</ele><time>2026-03-28T11:51:05.15Z</time></trkpt><trkpt lat="46.140745" lon="13.0015883"><ele>167.0</ele><time>2026-03-28T11:51:06.15Z</time></trkpt><trkpt lat="46.1408033" lon="13.0014517"><ele>167.33333333333331</ele><time>2026-03-28T11:51:07.15Z</time></trkpt><trkpt lat="46.140865" lon="13.001335"><ele>167.66666666666666</ele><time>2026-03-28T11:51:08.15Z</time></trkpt><trkpt lat="46.140915" lon="13.0012283"><ele>168.0</ele><time>2026-03-28T11:51:09.15Z</time></trkpt><trkpt lat="46.1409683" lon="13.0011333"><ele>168.33333333333334</ele><time>2026-03-28T11:51:10.15Z</time></trkpt><trkpt lat="46.14102" lon="13.0010483"><ele>168.66666666666669</ele><time>2026-03-28T11:51:11.15Z</time></trkpt><trkpt lat="46.1410717" lon="13.0009683"><ele>169.0</ele><time>2026-03-28T11:51:12.151Z</time></trkpt><trkpt lat="46.1411283" lon="13.0008883"><ele>169.33333333333334</ele><time>2026-03-28T11:51:13.15Z</time></trkpt><trkpt lat="46.1412183" lon="13.0007633"><ele>169.66666666666669</ele><time>2026-03-28T11:51:15.15Z</time></trkpt><trkpt lat="46.1412633" lon="13.0006933"><ele>170.0</ele><time>2026-03-28T11:51:16.15Z</time></trkpt><trkpt lat="46.1413083" lon="13.0006233"><ele>170.33333333333334</ele><time>2026-03-28T11:51:17.15Z</time></trkpt><trkpt lat="46.1413533" lon="13.0005533"><ele>170.66666666666666</ele><time>2026-03-28T11:51:18.15Z</time></trkpt><trkpt lat="46.1414033" lon="13.000485"><ele>171.0</ele><time>2026-03-28T11:51:19.15Z</time></trkpt><trkpt lat="46.14145" lon="13.000415"><ele>171.0</ele><time>2026-03-28T11:51:20.15Z</time></trkpt><trkpt lat="46.1414983" lon="13.0003433"><ele>171.0</ele><time>2026-03-28T11:51:21.15Z</time></trkpt><trkpt lat="46.14154" lon="13.00027"><ele>171.0</ele><time>2026-03-28T11:51:22.15Z</time></trkpt><trkpt lat="46.1415817" lon="13.0001983"><ele>171.0</ele><time>2026-03-28T11:51:23.151Z</time></trkpt><trkpt lat="46.1416433" lon="13.00007"><ele>171.0</ele><time>2026-03-28T11:51:25.15Z</time></trkpt><trkpt lat="46.1416333" lon="12.9999617"><ele>171.0</ele><time>2026-03-28T11:51:27.15Z</time></trkpt><trkpt lat="46.141545" lon="12.9998317"><ele>171.0</ele><time>2026-03-28T11:51:29.151Z</time></trkpt><trkpt lat="46.141475" lon="12.9997417"><ele>171.0</ele><time>2026-03-28T11:51:30.151Z</time></trkpt><trkpt lat="46.1413983" lon="12.9996333"><ele>171.0</ele><time>2026-03-28T11:51:31.15Z</time></trkpt><trkpt lat="46.1413" lon="12.9995317"><ele>171.0</ele><time>2026-03-28T11:51:32.151Z</time></trkpt><trkpt lat="46.1411867" lon="12.9994183"><ele>171.0</ele><time>2026-03-28T11:51:33.15Z</time></trkpt><trkpt lat="46.1410767" lon="12.9992983"><ele>171.0</ele><time>2026-03-28T11:51:34.151Z</time></trkpt><trkpt lat="46.1409567" lon="12.9991733"><ele>171.0</ele><time>2026-03-28T11:51:35.15Z</time></trkpt><trkpt lat="46.14084" lon="12.9990483"><ele>171.0</ele><time>2026-03-28T11:51:36.15Z</time></trkpt><trkpt lat="46.1407267" lon="12.998925"><ele>170.5</ele><time>2026-03-28T11:51:37.15Z</time></trkpt><trkpt lat="46.14061" lon="12.998805"><ele>170.0</ele><time>2026-03-28T11:51:38.15Z</time></trkpt><trkpt lat="46.1404983" lon="12.9986783"><ele>169.5</ele><time>2026-03-28T11:51:39.15Z</time></trkpt><trkpt lat="46.1403817" lon="12.9985633"><ele>169.0</ele><time>2026-03-28T11:51:40.15Z</time></trkpt><trkpt lat="46.140265" lon="12.9984433"><ele>169.0</ele><time>2026-03-28T11:51:41.151Z</time></trkpt><trkpt lat="46.1401567" lon="12.998325"><ele>169.0</ele><time>2026-03-28T11:51:42.151Z</time></trkpt><trkpt lat="46.1400483" lon="12.998205"><ele>169.0</ele><time>2026-03-28T11:51:43.15Z</time></trkpt><trkpt lat="46.1399333" lon="12.9980817"><ele>169.0</ele><time>2026-03-28T11:51:44.15Z</time></trkpt><trkpt lat="46.1398117" lon="12.9979617"><ele>168.0</ele><time>2026-03-28T11:51:45.151Z</time></trkpt><trkpt lat="46.1396833" lon="12.99784"><ele>167.0</ele><time>2026-03-28T11:51:46.15Z</time></trkpt><trkpt lat="46.1395467" lon="12.9977283"><ele>166.0</ele><time>2026-03-28T11:51:47.15Z</time></trkpt><trkpt lat="46.139405" lon="12.9976233"><ele>166.0</ele><time>2026-03-28T11:51:48.15Z</time></trkpt><trkpt lat="46.1392667" lon="12.99752"><ele>166.0</ele><time>2026-03-28T11:51:49.151Z</time></trkpt><trkpt lat="46.139125" lon="12.997405"><ele>166.0</ele><time>2026-03-28T11:51:50.151Z</time></trkpt><trkpt lat="46.1389833" lon="12.997285"><ele>166.0</ele><time>2026-03-28T11:51:51.15Z</time></trkpt><trkpt lat="46.13885" lon="12.9971717"><ele>166.0</ele><time>2026-03-28T11:51:52.15Z</time></trkpt><trkpt lat="46.13871" lon="12.9970667"><ele>166.0</ele><time>2026-03-28T11:51:53.15Z</time></trkpt><trkpt lat="46.1385633" lon="12.9969683"><ele>166.0</ele><time>2026-03-28T11:51:54.15Z</time></trkpt><trkpt lat="46.1384183" lon="12.9968617"><ele>166.0</ele><time>2026-03-28T11:51:55.15Z</time></trkpt><trkpt lat="46.1382733" lon="12.9967433"><ele>166.0</ele><time>2026-03-28T11:51:56.151Z</time></trkpt><trkpt lat="46.13813" lon="12.99662"><ele>165.66666666666669</ele><time>2026-03-28T11:51:57.15Z</time></trkpt><trkpt lat="46.1379917" lon="12.9964933"><ele>165.33333333333334</ele><time>2026-03-28T11:51:58.15Z</time></trkpt><trkpt lat="46.137855" lon="12.99637"><ele>165.0</ele><time>2026-03-28T11:51:59.15Z</time></trkpt><trkpt lat="46.13773" lon="12.99625"><ele>165.0</ele><time>2026-03-28T11:52:00.15Z</time></trkpt><trkpt lat="46.1376133" lon="12.996135"><ele>165.0</ele><time>2026-03-28T11:52:01.151Z</time></trkpt><trkpt lat="46.137505" lon="12.996025"><ele>165.0</ele><time>2026-03-28T11:52:02.15Z</time></trkpt><trkpt lat="46.13741" lon="12.9959283"><ele>165.0</ele><time>2026-03-28T11:52:03.15Z</time></trkpt><trkpt lat="46.1373283" lon="12.9958383"><ele>165.0</ele><time>2026-03-28T11:52:04.15Z</time></trkpt><trkpt lat="46.1372533" lon="12.9957617"><ele>165.0</ele><time>2026-03-28T11:52:05.15Z</time></trkpt><trkpt lat="46.1371867" lon="12.995695"><ele>165.0</ele><time>2026-03-28T11:52:06.15Z</time></trkpt><trkpt lat="46.13713" lon="12.9956117"><ele>165.0</ele><time>2026-03-28T11:52:07.15Z</time></trkpt><trkpt lat="46.137075" lon="12.9955017"><ele>165.0</ele><time>2026-03-28T11:52:08.15Z</time></trkpt><trkpt lat="46.13703" lon="12.9953667"><ele>165.0</ele><time>2026-03-28T11:52:09.15Z</time></trkpt><trkpt lat="46.13699" lon="12.9951917"><ele>165.0</ele><time>2026-03-28T11:52:10.15Z</time></trkpt><trkpt lat="46.1369567" lon="12.9950017"><ele>165.0</ele><time>2026-03-28T11:52:11.15Z</time></trkpt><trkpt lat="46.136935" lon="12.99483"><ele>165.0</ele><time>2026-03-28T11:52:12.15Z</time></trkpt><trkpt lat="46.1369167" lon="12.9946733"><ele>165.0</ele><time>2026-03-28T11:52:13.15Z</time></trkpt><trkpt lat="46.1369083" lon="12.994525"><ele>165.0</ele><time>2026-03-28T11:52:14.15Z</time></trkpt><trkpt lat="46.136915" lon="12.9943933"><ele>165.0</ele><time>2026-03-28T11:52:15.15Z</time></trkpt><trkpt lat="46.136945" lon="12.994265"><ele>165.0</ele><time>2026-03-28T11:52:16.151Z</time></trkpt><trkpt lat="46.137" lon="12.9941383"><ele>165.0</ele><time>2026-03-28T11:52:17.15Z</time></trkpt><trkpt lat="46.1370633" lon="12.9939867"><ele>164.6</ele><time>2026-03-28T11:52:18.15Z</time></trkpt><trkpt lat="46.1371117" lon="12.9938417"><ele>164.2</ele><time>2026-03-28T11:52:19.151Z</time></trkpt><trkpt lat="46.1371617" lon="12.9937"><ele>163.8</ele><time>2026-03-28T11:52:20.15Z</time></trkpt><trkpt lat="46.1372033" lon="12.9935583"><ele>163.4</ele><time>2026-03-28T11:52:21.151Z</time></trkpt><trkpt lat="46.1372467" lon="12.993405"><ele>163.0</ele><time>2026-03-28T11:52:22.15Z</time></trkpt><trkpt lat="46.1372917" lon="12.9932517"><ele>163.0</ele><time>2026-03-28T11:52:23.15Z</time></trkpt><trkpt lat="46.1373367" lon="12.9930967"><ele>163.0</ele><time>2026-03-28T11:52:24.15Z</time></trkpt><trkpt lat="46.1373833" lon="12.992935"><ele>163.0</ele><time>2026-03-28T11:52:25.15Z</time></trkpt><trkpt lat="46.1374317" lon="12.9927683"><ele>163.0</ele><time>2026-03-28T11:52:26.15Z</time></trkpt><trkpt lat="46.137485" lon="12.99259"><ele>163.0</ele><time>2026-03-28T11:52:27.15Z</time></trkpt><trkpt lat="46.13754" lon="12.9924067"><ele>163.0</ele><time>2026-03-28T11:52:28.15Z</time></trkpt><trkpt lat="46.1376" lon="12.99223"><ele>163.0</ele><time>2026-03-28T11:52:29.15Z</time></trkpt><trkpt lat="46.1376617" lon="12.9920633"><ele>163.0</ele><time>2026-03-28T11:52:30.15Z</time></trkpt><trkpt lat="46.1377217" lon="12.9919017"><ele>163.0</ele><time>2026-03-28T11:52:31.151Z</time></trkpt><trkpt lat="46.1377833" lon="12.9917483"><ele>163.0</ele><time>2026-03-28T11:52:32.151Z</time></trkpt><trkpt lat="46.1378467" lon="12.9916017"><ele>163.0</ele><time>2026-03-28T11:52:33.151Z</time></trkpt><trkpt lat="46.1379133" lon="12.9914667"><ele>163.0</ele><time>2026-03-28T11:52:34.15Z</time></trkpt><trkpt lat="46.1379783" lon="12.9913367"><ele>163.0</ele><time>2026-03-28T11:52:35.15Z</time></trkpt><trkpt lat="46.1380417" lon="12.9912083"><ele>163.0</ele><time>2026-03-28T11:52:36.15Z</time></trkpt><trkpt lat="46.1381017" lon="12.99107"><ele>163.0</ele><time>2026-03-28T11:52:37.15Z</time></trkpt><trkpt lat="46.1381617" lon="12.990925"><ele>163.0</ele><time>2026-03-28T11:52:38.15Z</time></trkpt><trkpt lat="46.1382167" lon="12.9907683"><ele>162.75</ele><time>2026-03-28T11:52:39.15Z</time></trkpt><trkpt lat="46.1382667" lon="12.9906167"><ele>162.5</ele><time>2026-03-28T11:52:40.15Z</time></trkpt><trkpt lat="46.1383167" lon="12.9904567"><ele>162.25</ele><time>2026-03-28T11:52:41.151Z</time></trkpt><trkpt lat="46.13836" lon="12.9903033"><ele>162.0</ele><time>2026-03-28T11:52:42.15Z</time></trkpt><trkpt lat="46.138405" lon="12.9901483"><ele>161.5</ele><time>2026-03-28T11:52:43.15Z</time></trkpt><trkpt lat="46.1384617" lon="12.9899867"><ele>161.0</ele><time>2026-03-28T11:52:44.15Z</time></trkpt><trkpt lat="46.1385167" lon="12.9898183"><ele>160.5</ele><time>2026-03-28T11:52:45.15Z</time></trkpt><trkpt lat="46.1385733" lon="12.9896333"><ele>160.0</ele><time>2026-03-28T11:52:46.15Z</time></trkpt><trkpt lat="46.1386333" lon="12.9894383"><ele>160.0</ele><time>2026-03-28T11:52:47.151Z</time></trkpt><trkpt lat="46.1386917" lon="12.9892467"><ele>160.0</ele><time>2026-03-28T11:52:48.15Z</time></trkpt><trkpt lat="46.1387467" lon="12.9890533"><ele>160.0</ele><time>2026-03-28T11:52:49.15Z</time></trkpt><trkpt lat="46.1388017" lon="12.9888633"><ele>160.0</ele><time>2026-03-28T11:52:50.151Z</time></trkpt><trkpt lat="46.1388567" lon="12.98867"><ele>160.5</ele><time>2026-03-28T11:52:51.15Z</time></trkpt><trkpt lat="46.138915" lon="12.988475"><ele>161.0</ele><time>2026-03-28T11:52:52.15Z</time></trkpt><trkpt lat="46.1389817" lon="12.988285"><ele>161.5</ele><time>2026-03-28T11:52:53.15Z</time></trkpt><trkpt lat="46.1390583" lon="12.9881033"><ele>162.0</ele><time>2026-03-28T11:52:54.15Z</time></trkpt><trkpt lat="46.1391333" lon="12.98793"><ele>162.0</ele><time>2026-03-28T11:52:55.151Z</time></trkpt><trkpt lat="46.1392083" lon="12.9877683"><ele>162.0</ele><time>2026-03-28T11:52:56.15Z</time></trkpt><trkpt lat="46.1392733" lon="12.98761"><ele>162.0</ele><time>2026-03-28T11:52:57.15Z</time></trkpt><trkpt lat="46.1393383" lon="12.9874367"><ele>162.0</ele><time>2026-03-28T11:52:58.15Z</time></trkpt><trkpt lat="46.13941" lon="12.9872717"><ele>161.5</ele><time>2026-03-28T11:52:59.15Z</time></trkpt><trkpt lat="46.1394667" lon="12.987115"><ele>161.0</ele><time>2026-03-28T11:53:00.15Z</time></trkpt><trkpt lat="46.13953" lon="12.9869633"><ele>160.5</ele><time>2026-03-28T11:53:01.15Z</time></trkpt><trkpt lat="46.1395933" lon="12.9868033"><ele>160.0</ele><time>2026-03-28T11:53:02.15Z</time></trkpt><trkpt lat="46.139655" lon="12.9866367"><ele>160.0</ele><time>2026-03-28T11:53:03.15Z</time></trkpt><trkpt lat="46.1397117" lon="12.98647"><ele>160.0</ele><time>2026-03-28T11:53:04.15Z</time></trkpt><trkpt lat="46.1397667" lon="12.986295"><ele>160.0</ele><time>2026-03-28T11:53:05.15Z</time></trkpt><trkpt lat="46.13982" lon="12.986125"><ele>160.0</ele><time>2026-03-28T11:53:06.15Z</time></trkpt><trkpt lat="46.1398817" lon="12.98595"><ele>160.75</ele><time>2026-03-28T11:53:07.151Z</time></trkpt><trkpt lat="46.139945" lon="12.9857767"><ele>161.5</ele><time>2026-03-28T11:53:08.15Z</time></trkpt><trkpt lat="46.1400117" lon="12.98561"><ele>162.25</ele><time>2026-03-28T11:53:09.15Z</time></trkpt><trkpt lat="46.1400783" lon="12.9854517"><ele>163.0</ele><time>2026-03-28T11:53:10.15Z</time></trkpt><trkpt lat="46.1401533" lon="12.985305"><ele>163.0</ele><time>2026-03-28T11:53:11.15Z</time></trkpt><trkpt lat="46.14022" lon="12.9851533"><ele>163.0</ele><time>2026-03-28T11:53:12.15Z</time></trkpt><trkpt lat="46.1402733" lon="12.9849933"><ele>163.0</ele><time>2026-03-28T11:53:13.151Z</time></trkpt><trkpt lat="46.1403183" lon="12.9848233"><ele>163.0</ele><time>2026-03-28T11:53:14.151Z</time></trkpt><trkpt lat="46.1403717" lon="12.98464"><ele>162.5</ele><time>2026-03-28T11:53:15.151Z</time></trkpt><trkpt lat="46.1404233" lon="12.98445"><ele>162.0</ele><time>2026-03-28T11:53:16.15Z</time></trkpt><trkpt lat="46.1404733" lon="12.9842617"><ele>161.5</ele><time>2026-03-28T11:53:17.15Z</time></trkpt><trkpt lat="46.1405267" lon="12.9840733"><ele>161.0</ele><time>2026-03-28T11:53:18.15Z</time></trkpt><trkpt lat="46.1405783" lon="12.9838883"><ele>160.75</ele><time>2026-03-28T11:53:19.15Z</time></trkpt><trkpt lat="46.1406283" lon="12.9837083"><ele>160.5</ele><time>2026-03-28T11:53:20.15Z</time></trkpt><trkpt lat="46.1406833" lon="12.9835233"><ele>160.25</ele><time>2026-03-28T11:53:21.151Z</time></trkpt><trkpt lat="46.1407267" lon="12.9833433"><ele>160.0</ele><time>2026-03-28T11:53:22.15Z</time></trkpt><trkpt lat="46.1407667" lon="12.9831433"><ele>160.0</ele><time>2026-03-28T11:53:23.15Z</time></trkpt><trkpt lat="46.1408117" lon="12.9829383"><ele>160.0</ele><time>2026-03-28T11:53:24.15Z</time></trkpt><trkpt lat="46.1408467" lon="12.9827333"><ele>160.0</ele><time>2026-03-28T11:53:25.15Z</time></trkpt><trkpt lat="46.1408767" lon="12.9825467"><ele>160.0</ele><time>2026-03-28T11:53:26.15Z</time></trkpt><trkpt lat="46.1408983" lon="12.98238"><ele>160.0</ele><time>2026-03-28T11:53:27.15Z</time></trkpt><trkpt lat="46.1409283" lon="12.9822133"><ele>160.0</ele><time>2026-03-28T11:53:28.15Z</time></trkpt><trkpt lat="46.1409617" lon="12.98204"><ele>160.0</ele><time>2026-03-28T11:53:29.15Z</time></trkpt><trkpt lat="46.1409967" lon="12.9818617"><ele>160.0</ele><time>2026-03-28T11:53:30.15Z</time></trkpt><trkpt lat="46.1410383" lon="12.9816983"><ele>160.0</ele><time>2026-03-28T11:53:31.151Z</time></trkpt><trkpt lat="46.1410867" lon="12.9815517"><ele>160.0</ele><time>2026-03-28T11:53:32.15Z</time></trkpt><trkpt lat="46.1411433" lon="12.9814067"><ele>160.0</ele><time>2026-03-28T11:53:33.15Z</time></trkpt><trkpt lat="46.1411983" lon="12.9812617"><ele>160.0</ele><time>2026-03-28T11:53:34.149Z</time></trkpt><trkpt lat="46.1412417" lon="12.9811283"><ele>160.0</ele><time>2026-03-28T11:53:35.149Z</time></trkpt><trkpt lat="46.14128" lon="12.9809883"><ele>159.8</ele><time>2026-03-28T11:53:36.149Z</time></trkpt><trkpt lat="46.14131" lon="12.9808483"><ele>159.6</ele><time>2026-03-28T11:53:37.149Z</time></trkpt><trkpt lat="46.1413333" lon="12.980695"><ele>159.4</ele><time>2026-03-28T11:53:38.149Z</time></trkpt><trkpt lat="46.141355" lon="12.9805317"><ele>159.2</ele><time>2026-03-28T11:53:39.149Z</time></trkpt><trkpt lat="46.141375" lon="12.98036"><ele>159.0</ele><time>2026-03-28T11:53:40.149Z</time></trkpt><trkpt lat="46.1413967" lon="12.9801833"><ele>159.25</ele><time>2026-03-28T11:53:41.149Z</time></trkpt><trkpt lat="46.141425" lon="12.98"><ele>159.5</ele><time>2026-03-28T11:53:42.149Z</time></trkpt><trkpt lat="46.1414533" lon="12.97982"><ele>159.75</ele><time>2026-03-28T11:53:43.149Z</time></trkpt><trkpt lat="46.14148" lon="12.9796367"><ele>160.0</ele><time>2026-03-28T11:53:44.149Z</time></trkpt><trkpt lat="46.141505" lon="12.9794533"><ele>160.0</ele><time>2026-03-28T11:53:45.149Z</time></trkpt><trkpt lat="46.14154" lon="12.9792717"><ele>160.0</ele><time>2026-03-28T11:53:46.15Z</time></trkpt><trkpt lat="46.14157" lon="12.9790983"><ele>160.0</ele><time>2026-03-28T11:53:47.149Z</time></trkpt><trkpt lat="46.1415983" lon="12.9789367"><ele>160.0</ele><time>2026-03-28T11:53:48.149Z</time></trkpt><trkpt lat="46.1416283" lon="12.9787767"><ele>159.75</ele><time>2026-03-28T11:53:49.15Z</time></trkpt><trkpt lat="46.1416567" lon="12.9786133"><ele>159.5</ele><time>2026-03-28T11:53:50.149Z</time></trkpt><trkpt lat="46.141685" lon="12.9784417"><ele>159.25</ele><time>2026-03-28T11:53:51.149Z</time></trkpt><trkpt lat="46.1417133" lon="12.97828"><ele>159.0</ele><time>2026-03-28T11:53:52.149Z</time></trkpt><trkpt lat="46.14174" lon="12.9781283"><ele>159.0</ele><time>2026-03-28T11:53:53.149Z</time></trkpt><trkpt lat="46.1417633" lon="12.9779883"><ele>159.0</ele><time>2026-03-28T11:53:54.149Z</time></trkpt><trkpt lat="46.1417883" lon="12.9778617"><ele>159.0</ele><time>2026-03-28T11:53:55.149Z</time></trkpt><trkpt lat="46.1418133" lon="12.977745"><ele>159.0</ele><time>2026-03-28T11:53:56.15Z</time></trkpt><trkpt lat="46.141845" lon="12.9776517"><ele>159.0</ele><time>2026-03-28T11:53:57.149Z</time></trkpt><trkpt lat="46.14189" lon="12.9775783"><ele>159.0</ele><time>2026-03-28T11:53:58.149Z</time></trkpt><trkpt lat="46.14194" lon="12.9775133"><ele>158.8</ele><time>2026-03-28T11:53:59.15Z</time></trkpt><trkpt lat="46.14205" lon="12.9774367"><ele>158.60000000000002</ele><time>2026-03-28T11:54:01.149Z</time></trkpt><trkpt lat="46.1421617" lon="12.9774417"><ele>158.4</ele><time>2026-03-28T11:54:03.149Z</time></trkpt><trkpt lat="46.1422583" lon="12.97746"><ele>158.20000000000002</ele><time>2026-03-28T11:54:05.149Z</time></trkpt><trkpt lat="46.142335" lon="12.97747"><ele>158.0</ele><time>2026-03-28T11:54:07.149Z</time></trkpt><trkpt lat="46.1424083" lon="12.9774717"><ele>158.33333333333331</ele><time>2026-03-28T11:54:10.149Z</time></trkpt><trkpt lat="46.14249" lon="12.9775167"><ele>158.66666666666666</ele><time>2026-03-28T11:54:14.15Z</time></trkpt><trkpt lat="46.1423406" lon="12.9778199"><ele>159.0</ele><time>2026-03-28T12:51:11.336Z</time></trkpt><trkpt lat="46.1425367" lon="12.9776383"><ele>159.2</ele><time>2026-03-28T12:57:30.154Z</time></trkpt><trkpt lat="46.1425617" lon="12.9775383"><ele>159.4</ele><time>2026-03-28T12:57:40.154Z</time></trkpt><trkpt lat="46.1425017" lon="12.9774517"><ele>159.6</ele><time>2026-03-28T12:57:42.153Z</time></trkpt><trkpt lat="46.1424033" lon="12.9773483"><ele>159.8</ele><time>2026-03-28T12:57:44.153Z</time></trkpt><trkpt lat="46.1423333" lon="12.97728"><ele>160.0</ele><time>2026-03-28T12:57:45.154Z</time></trkpt><trkpt lat="46.1422417" lon="12.9771883"><ele>159.33333333333334</ele><time>2026-03-28T12:57:46.153Z</time></trkpt><trkpt lat="46.1421083" lon="12.9770733"><ele>158.66666666666666</ele><time>2026-03-28T12:57:47.153Z</time></trkpt><trkpt lat="46.141965" lon="12.9769517"><ele>158.0</ele><time>2026-03-28T12:57:48.153Z</time></trkpt><trkpt lat="46.1418333" lon="12.97684"><ele>158.0</ele><time>2026-03-28T12:57:49.153Z</time></trkpt><trkpt lat="46.1417133" lon="12.9767417"><ele>158.0</ele><time>2026-03-28T12:57:50.153Z</time></trkpt><trkpt lat="46.1416083" lon="12.97665"><ele>158.0</ele><time>2026-03-28T12:57:51.153Z</time></trkpt><trkpt lat="46.1415117" lon="12.9765667"><ele>158.0</ele><time>2026-03-28T12:57:52.153Z</time></trkpt><trkpt lat="46.14142" lon="12.97649"><ele>158.20000000000002</ele><time>2026-03-28T12:57:53.153Z</time></trkpt><trkpt lat="46.14134" lon="12.9764233"><ele>158.4</ele><time>2026-03-28T12:57:54.153Z</time></trkpt><trkpt lat="46.1412683" lon="12.97636"><ele>158.60000000000002</ele><time>2026-03-28T12:57:55.154Z</time></trkpt><trkpt lat="46.1411883" lon="12.9763017"><ele>158.8</ele><time>2026-03-28T12:57:56.153Z</time></trkpt><trkpt lat="46.1411017" lon="12.9762383"><ele>159.0</ele><time>2026-03-28T12:57:57.153Z</time></trkpt><trkpt lat="46.1410217" lon="12.976175"><ele>159.0</ele><time>2026-03-28T12:57:58.153Z</time></trkpt><trkpt lat="46.1409383" lon="12.9761"><ele>159.0</ele><time>2026-03-28T12:58:00.154Z</time></trkpt><trkpt lat="46.1408967" lon="12.9760183"><ele>159.0</ele><time>2026-03-28T12:58:03.153Z</time></trkpt><trkpt lat="46.1408767" lon="12.975915"><ele>159.0</ele><time>2026-03-28T12:58:07.153Z</time></trkpt><trkpt lat="46.1408117" lon="12.9758717"><ele>159.0</ele><time>2026-03-28T12:58:11.154Z</time></trkpt><trkpt lat="46.1408033" lon="12.9760017"><ele>159.0</ele><time>2026-03-28T12:58:51.153Z</time></trkpt><trkpt lat="46.1408433" lon="12.9760833"><ele>159.0</ele><time>2026-03-28T12:58:52.153Z</time></trkpt><trkpt lat="46.1409933" lon="12.9762367"><ele>159.0</ele><time>2026-03-28T12:58:54.153Z</time></trkpt><trkpt lat="46.1411167" lon="12.9763383"><ele>159.0</ele><time>2026-03-28T12:58:55.153Z</time></trkpt><trkpt lat="46.1412617" lon="12.976455"><ele>159.0</ele><time>2026-03-28T12:58:56.153Z</time></trkpt><trkpt lat="46.1413867" lon="12.9765467"><ele>159.0</ele><time>2026-03-28T12:58:57.153Z</time></trkpt><trkpt lat="46.1414833" lon="12.976605"><ele>159.0</ele><time>2026-03-28T12:58:58.153Z</time></trkpt><trkpt lat="46.1415617" lon="12.9766567"><ele>159.0</ele><time>2026-03-28T12:58:59.153Z</time></trkpt><trkpt lat="46.1416317" lon="12.9766617"><ele>159.0</ele><time>2026-03-28T12:59:00.153Z</time></trkpt><trkpt lat="46.141735" lon="12.9765883"><ele>158.8</ele><time>2026-03-28T12:59:02.153Z</time></trkpt><trkpt lat="46.141785" lon="12.9764633"><ele>158.60000000000002</ele><time>2026-03-28T12:59:04.153Z</time></trkpt><trkpt lat="46.14184" lon="12.97632"><ele>158.4</ele><time>2026-03-28T12:59:06.153Z</time></trkpt><trkpt lat="46.1418767" lon="12.9762367"><ele>158.20000000000002</ele><time>2026-03-28T12:59:07.153Z</time></trkpt><trkpt lat="46.14192" lon="12.9761233"><ele>158.0</ele><time>2026-03-28T12:59:08.154Z</time></trkpt><trkpt lat="46.1419633" lon="12.97601"><ele>158.0</ele><time>2026-03-28T12:59:09.153Z</time></trkpt><trkpt lat="46.1420083" lon="12.97591"><ele>158.0</ele><time>2026-03-28T12:59:10.153Z</time></trkpt><trkpt lat="46.1420417" lon="12.975815"><ele>158.0</ele><time>2026-03-28T12:59:11.153Z</time></trkpt><trkpt lat="46.14208" lon="12.9757317"><ele>158.0</ele><time>2026-03-28T12:59:12.154Z</time></trkpt><trkpt lat="46.1421183" lon="12.9756433"><ele>158.0</ele><time>2026-03-28T12:59:13.153Z</time></trkpt><trkpt lat="46.142155" lon="12.975545"><ele>158.0</ele><time>2026-03-28T12:59:14.153Z</time></trkpt><trkpt lat="46.14219" lon="12.9754433"><ele>158.33333333333331</ele><time>2026-03-28T12:59:15.154Z</time></trkpt><trkpt lat="46.14223" lon="12.975345"><ele>158.66666666666666</ele><time>2026-03-28T12:59:16.153Z</time></trkpt><trkpt lat="46.1422733" lon="12.9752483"><ele>159.0</ele><time>2026-03-28T12:59:17.153Z</time></trkpt><trkpt lat="46.142315" lon="12.97514"><ele>159.33333333333334</ele><time>2026-03-28T12:59:18.153Z</time></trkpt><trkpt lat="46.1423633" lon="12.9750317"><ele>159.66666666666669</ele><time>2026-03-28T12:59:19.154Z</time></trkpt><trkpt lat="46.14241" lon="12.9749217"><ele>160.0</ele><time>2026-03-28T12:59:20.153Z</time></trkpt><trkpt lat="46.1424683" lon="12.97482"><ele>160.0</ele><time>2026-03-28T12:59:21.153Z</time></trkpt><trkpt lat="46.142545" lon="12.97475"><ele>160.0</ele><time>2026-03-28T12:59:22.153Z</time></trkpt><trkpt lat="46.1426267" lon="12.9747133"><ele>160.0</ele><time>2026-03-28T12:59:23.154Z</time></trkpt><trkpt lat="46.1427117" lon="12.97472"><ele>160.0</ele><time>2026-03-28T12:59:24.153Z</time></trkpt><trkpt lat="46.1427967" lon="12.9747617"><ele>160.0</ele><time>2026-03-28T12:59:25.153Z</time></trkpt><trkpt lat="46.1428867" lon="12.9748267"><ele>160.0</ele><time>2026-03-28T12:59:26.153Z</time></trkpt><trkpt lat="46.1429617" lon="12.974915"><ele>160.0</ele><time>2026-03-28T12:59:27.153Z</time></trkpt><trkpt lat="46.1430417" lon="12.9749883"><ele>160.0</ele><time>2026-03-28T12:59:28.153Z</time></trkpt><trkpt lat="46.143125" lon="12.9750667"><ele>160.0</ele><time>2026-03-28T12:59:29.153Z</time></trkpt><trkpt lat="46.1432083" lon="12.975135"><ele>160.0</ele><time>2026-03-28T12:59:30.154Z</time></trkpt><trkpt lat="46.1432917" lon="12.9752017"><ele>160.0</ele><time>2026-03-28T12:59:31.153Z</time></trkpt><trkpt lat="46.1433783" lon="12.975265"><ele>160.0</ele><time>2026-03-28T12:59:32.154Z</time></trkpt><trkpt lat="46.14346" lon="12.9753317"><ele>160.0</ele><time>2026-03-28T12:59:33.153Z</time></trkpt><trkpt lat="46.1435467" lon="12.9754017"><ele>160.0</ele><time>2026-03-28T12:59:34.153Z</time></trkpt><trkpt lat="46.143645" lon="12.97548"><ele>160.0</ele><time>2026-03-28T12:59:35.153Z</time></trkpt><trkpt lat="46.1437617" lon="12.9755617"><ele>160.0</ele><time>2026-03-28T12:59:36.153Z</time></trkpt><trkpt lat="46.1439017" lon="12.9756733"><ele>160.0</ele><time>2026-03-28T12:59:37.153Z</time></trkpt><trkpt lat="46.1440417" lon="12.9757883"><ele>160.0</ele><time>2026-03-28T12:59:38.153Z</time></trkpt><trkpt lat="46.14417" lon="12.9759017"><ele>160.0</ele><time>2026-03-28T12:59:39.153Z</time></trkpt><trkpt lat="46.1442917" lon="12.9760017"><ele>160.0</ele><time>2026-03-28T12:59:40.154Z</time></trkpt><trkpt lat="46.144405" lon="12.9760883"><ele>160.0</ele><time>2026-03-28T12:59:41.153Z</time></trkpt><trkpt lat="46.1444917" lon="12.97615"><ele>160.0</ele><time>2026-03-28T12:59:42.153Z</time></trkpt><trkpt lat="46.14455" lon="12.9761933"><ele>160.0</ele><time>2026-03-28T12:59:43.153Z</time></trkpt><trkpt lat="46.1446217" lon="12.9762483"><ele>160.0</ele><time>2026-03-28T12:59:45.153Z</time></trkpt><trkpt lat="46.144675" lon="12.9761767"><ele>160.0</ele><time>2026-03-28T12:59:48.153Z</time></trkpt><trkpt lat="46.14463" lon="12.9760917"><ele>160.0</ele><time>2026-03-28T12:59:51.153Z</time></trkpt><trkpt lat="46.1446317" lon="12.976"><ele>160.0</ele><time>2026-03-28T12:59:53.153Z</time></trkpt><trkpt lat="46.1446967" lon="12.9758167"><ele>160.0</ele><time>2026-03-28T12:59:55.154Z</time></trkpt><trkpt lat="46.144765" lon="12.975665"><ele>160.2</ele><time>2026-03-28T12:59:56.153Z</time></trkpt><trkpt lat="46.1448317" lon="12.9755333"><ele>160.4</ele><time>2026-03-28T12:59:57.154Z</time></trkpt><trkpt lat="46.1448867" lon="12.97543"><ele>160.60000000000002</ele><time>2026-03-28T12:59:58.153Z</time></trkpt><trkpt lat="46.1449267" lon="12.975355"><ele>160.8</ele><time>2026-03-28T12:59:59.153Z</time></trkpt><trkpt lat="46.1449883" lon="12.9752183"><ele>161.0</ele><time>2026-03-28T13:00:01.154Z</time></trkpt><trkpt lat="46.1450383" lon="12.975105"><ele>160.8</ele><time>2026-03-28T13:00:03.153Z</time></trkpt><trkpt lat="46.145105" lon="12.974995"><ele>160.60000000000002</ele><time>2026-03-28T13:01:02.154Z</time></trkpt><trkpt lat="46.1451533" lon="12.9749117"><ele>160.4</ele><time>2026-03-28T13:01:03.153Z</time></trkpt><trkpt lat="46.14521" lon="12.974785"><ele>160.2</ele><time>2026-03-28T13:01:04.154Z</time></trkpt><trkpt lat="46.1452883" lon="12.9746083"><ele>160.0</ele><time>2026-03-28T13:01:05.153Z</time></trkpt><trkpt lat="46.14539" lon="12.9744033"><ele>160.33333333333334</ele><time>2026-03-28T13:01:06.153Z</time></trkpt><trkpt lat="46.1455033" lon="12.974185"><ele>160.66666666666666</ele><time>2026-03-28T13:01:07.153Z</time></trkpt><trkpt lat="46.1455983" lon="12.9740033"><ele>161.0</ele><time>2026-03-28T13:01:08.154Z</time></trkpt><trkpt lat="46.1456833" lon="12.9738483"><ele>161.60000000000002</ele><time>2026-03-28T13:01:09.154Z</time></trkpt><trkpt lat="46.145755" lon="12.973705"><ele>162.2</ele><time>2026-03-28T13:01:10.154Z</time></trkpt><trkpt lat="46.1458167" lon="12.9735733"><ele>162.8</ele><time>2026-03-28T13:01:11.153Z</time></trkpt><trkpt lat="46.14587" lon="12.9734467"><ele>163.39999999999998</ele><time>2026-03-28T13:01:12.154Z</time></trkpt><trkpt lat="46.1459183" lon="12.9733167"><ele>164.0</ele><time>2026-03-28T13:01:13.153Z</time></trkpt><trkpt lat="46.14596" lon="12.97318"><ele>164.0</ele><time>2026-03-28T13:01:14.154Z</time></trkpt><trkpt lat="46.1459967" lon="12.9730333"><ele>164.0</ele><time>2026-03-28T13:01:15.154Z</time></trkpt><trkpt lat="46.1460283" lon="12.9728583"><ele>164.0</ele><time>2026-03-28T13:01:16.153Z</time></trkpt><trkpt lat="46.1460567" lon="12.9726617"><ele>164.0</ele><time>2026-03-28T13:01:17.153Z</time></trkpt><trkpt lat="46.1460817" lon="12.9724717"><ele>164.0</ele><time>2026-03-28T13:01:18.153Z</time></trkpt><trkpt lat="46.146105" lon="12.9722983"><ele>164.0</ele><time>2026-03-28T13:01:19.153Z</time></trkpt><trkpt lat="46.1461267" lon="12.9721417"><ele>164.0</ele><time>2026-03-28T13:01:20.153Z</time></trkpt><trkpt lat="46.146145" lon="12.972005"><ele>164.0</ele><time>2026-03-28T13:01:21.153Z</time></trkpt><trkpt lat="46.1461567" lon="12.9718833"><ele>164.0</ele><time>2026-03-28T13:01:22.154Z</time></trkpt><trkpt lat="46.1461633" lon="12.97178"><ele>163.99999999999997</ele><time>2026-03-28T13:01:23.153Z</time></trkpt><trkpt lat="46.146175" lon="12.971675"><ele>164.0</ele><time>2026-03-28T13:01:25.153Z</time></trkpt><trkpt lat="46.14617" lon="12.9717717"><ele>164.0</ele><time>2026-03-28T13:01:57.154Z</time></trkpt><trkpt lat="46.1461617" lon="12.9718683"><ele>164.0</ele><time>2026-03-28T13:01:59.153Z</time></trkpt><trkpt lat="46.1461767" lon="12.971995"><ele>164.0</ele><time>2026-03-28T13:02:12.153Z</time></trkpt><trkpt lat="46.146235" lon="12.9720583"><ele>163.99999999999997</ele><time>2026-03-28T13:02:14.154Z</time></trkpt><trkpt lat="46.1462933" lon="12.9720983"><ele>164.0</ele><time>2026-03-28T13:02:15.153Z</time></trkpt><trkpt lat="46.1463633" lon="12.9721417"><ele>163.99999999999997</ele><time>2026-03-28T13:02:16.153Z</time></trkpt><trkpt lat="46.1464283" lon="12.972185"><ele>164.0</ele><time>2026-03-28T13:02:17.153Z</time></trkpt><trkpt lat="46.1464883" lon="12.972225"><ele>164.0</ele><time>2026-03-28T13:02:18.153Z</time></trkpt><trkpt lat="46.1465467" lon="12.9722617"><ele>164.0</ele><time>2026-03-28T13:02:19.153Z</time></trkpt><trkpt lat="46.146605" lon="12.9723"><ele>164.0</ele><time>2026-03-28T13:02:20.153Z</time></trkpt><trkpt lat="46.14667" lon="12.9723417"><ele>163.99999999999997</ele><time>2026-03-28T13:02:21.154Z</time></trkpt><trkpt lat="46.1467417" lon="12.9723883"><ele>164.0</ele><time>2026-03-28T13:02:22.154Z</time></trkpt><trkpt lat="46.1469067" lon="12.9724683"><ele>164.2</ele><time>2026-03-28T13:02:24.154Z</time></trkpt><trkpt lat="46.1469983" lon="12.9724933"><ele>164.39999999999998</ele><time>2026-03-28T13:02:25.154Z</time></trkpt><trkpt lat="46.1470883" lon="12.97251"><ele>164.6</ele><time>2026-03-28T13:02:26.153Z</time></trkpt><trkpt lat="46.1471783" lon="12.9725133"><ele>164.8</ele><time>2026-03-28T13:02:27.154Z</time></trkpt><trkpt lat="46.14727" lon="12.9725083"><ele>165.0</ele><time>2026-03-28T13:02:28.153Z</time></trkpt><trkpt lat="46.1473717" lon="12.9724983"><ele>164.8</ele><time>2026-03-28T13:02:29.154Z</time></trkpt><trkpt lat="46.14747" lon="12.9724867"><ele>164.6</ele><time>2026-03-28T13:02:30.154Z</time></trkpt><trkpt lat="46.1475667" lon="12.9724767"><ele>164.39999999999998</ele><time>2026-03-28T13:02:31.154Z</time></trkpt><trkpt lat="46.14766" lon="12.9724733"><ele>164.2</ele><time>2026-03-28T13:02:32.153Z</time></trkpt><trkpt lat="46.14775" lon="12.9724717"><ele>164.0</ele><time>2026-03-28T13:02:33.153Z</time></trkpt><trkpt lat="46.1478383" lon="12.9724717"><ele>164.0</ele><time>2026-03-28T13:02:34.154Z</time></trkpt><trkpt lat="46.147925" lon="12.9724733"><ele>164.0</ele><time>2026-03-28T13:02:35.154Z</time></trkpt><trkpt lat="46.1480083" lon="12.9724783"><ele>164.0</ele><time>2026-03-28T13:02:36.154Z</time></trkpt><trkpt lat="46.14809" lon="12.97249"><ele>164.0</ele><time>2026-03-28T13:02:37.153Z</time></trkpt><trkpt lat="46.1481717" lon="12.97251"><ele>164.0</ele><time>2026-03-28T13:02:38.153Z</time></trkpt><trkpt lat="46.14825" lon="12.972545"><ele>164.0</ele><time>2026-03-28T13:02:39.153Z</time></trkpt><trkpt lat="46.1483283" lon="12.9725883"><ele>164.16666666666666</ele><time>2026-03-28T13:02:40.154Z</time></trkpt><trkpt lat="46.1484033" lon="12.97264"><ele>164.33333333333331</ele><time>2026-03-28T13:02:41.154Z</time></trkpt><trkpt lat="46.1484883" lon="12.9726883"><ele>164.5</ele><time>2026-03-28T13:02:42.153Z</time></trkpt><trkpt lat="46.14857" lon="12.9727333"><ele>164.66666666666666</ele><time>2026-03-28T13:02:43.153Z</time></trkpt><trkpt lat="46.1486483" lon="12.9727867"><ele>164.83333333333334</ele><time>2026-03-28T13:02:44.153Z</time></trkpt><trkpt lat="46.1487317" lon="12.972825"><ele>165.0</ele><time>2026-03-28T13:02:45.153Z</time></trkpt><trkpt lat="46.1488183" lon="12.972875"><ele>165.0</ele><time>2026-03-28T13:02:46.154Z</time></trkpt><trkpt lat="46.148905" lon="12.9729267"><ele>165.0</ele><time>2026-03-28T13:02:47.153Z</time></trkpt><trkpt lat="46.1489967" lon="12.97298"><ele>165.0</ele><time>2026-03-28T13:02:48.153Z</time></trkpt><trkpt lat="46.1490817" lon="12.9730317"><ele>165.0</ele><time>2026-03-28T13:02:49.153Z</time></trkpt><trkpt lat="46.1491683" lon="12.97308"><ele>165.0</ele><time>2026-03-28T13:02:50.153Z</time></trkpt><trkpt lat="46.1492533" lon="12.9731283"><ele>165.33333333333334</ele><time>2026-03-28T13:02:51.153Z</time></trkpt><trkpt lat="46.1493367" lon="12.9731767"><ele>165.66666666666666</ele><time>2026-03-28T13:02:52.153Z</time></trkpt><trkpt lat="46.1494167" lon="12.97322"><ele>166.0</ele><time>2026-03-28T13:02:53.153Z</time></trkpt><trkpt lat="46.149485" lon="12.97326"><ele>166.33333333333331</ele><time>2026-03-28T13:02:54.153Z</time></trkpt><trkpt lat="46.1495783" lon="12.97331"><ele>166.66666666666666</ele><time>2026-03-28T13:02:56.153Z</time></trkpt><trkpt lat="46.149645" lon="12.9733067"><ele>167.0</ele><time>2026-03-28T13:02:59.154Z</time></trkpt><trkpt lat="46.1496917" lon="12.973195"><ele>167.0</ele><time>2026-03-28T13:03:01.153Z</time></trkpt><trkpt lat="46.1497167" lon="12.973085"><ele>167.0</ele><time>2026-03-28T13:03:02.153Z</time></trkpt><trkpt lat="46.149735" lon="12.972945"><ele>167.0</ele><time>2026-03-28T13:03:03.153Z</time></trkpt><trkpt lat="46.1497567" lon="12.972785"><ele>167.0</ele><time>2026-03-28T13:03:04.153Z</time></trkpt><trkpt lat="46.1497783" lon="12.9726183"><ele>167.0</ele><time>2026-03-28T13:03:05.153Z</time></trkpt><trkpt lat="46.1497983" lon="12.9724483"><ele>167.0</ele><time>2026-03-28T13:03:06.153Z</time></trkpt><trkpt lat="46.1498233" lon="12.97228"><ele>167.0</ele><time>2026-03-28T13:03:07.153Z</time></trkpt><trkpt lat="46.1498483" lon="12.9721067"><ele>167.0</ele><time>2026-03-28T13:03:08.153Z</time></trkpt><trkpt lat="46.149875" lon="12.9719317"><ele>167.0</ele><time>2026-03-28T13:03:09.154Z</time></trkpt><trkpt lat="46.1499" lon="12.9717517"><ele>167.5</ele><time>2026-03-28T13:03:10.153Z</time></trkpt><trkpt lat="46.149915" lon="12.9715617"><ele>168.0</ele><time>2026-03-28T13:03:11.153Z</time></trkpt><trkpt lat="46.149915" lon="12.971365"><ele>168.5</ele><time>2026-03-28T13:03:12.153Z</time></trkpt><trkpt lat="46.1499" lon="12.9711717"><ele>169.0</ele><time>2026-03-28T13:03:13.154Z</time></trkpt><trkpt lat="46.1498717" lon="12.9709633"><ele>168.5</ele><time>2026-03-28T13:03:14.153Z</time></trkpt><trkpt lat="46.1498433" lon="12.97076"><ele>168.0</ele><time>2026-03-28T13:03:15.154Z</time></trkpt><trkpt lat="46.1498167" lon="12.97057"><ele>167.5</ele><time>2026-03-28T13:03:16.153Z</time></trkpt><trkpt lat="46.1497917" lon="12.970385"><ele>167.0</ele><time>2026-03-28T13:03:17.153Z</time></trkpt><trkpt lat="46.149765" lon="12.9702033"><ele>167.0</ele><time>2026-03-28T13:03:18.153Z</time></trkpt><trkpt lat="46.1497367" lon="12.97002"><ele>167.0</ele><time>2026-03-28T13:03:19.153Z</time></trkpt><trkpt lat="46.1497117" lon="12.9698383"><ele>167.0</ele><time>2026-03-28T13:03:20.153Z</time></trkpt><trkpt lat="46.1496883" lon="12.9696583"><ele>167.0</ele><time>2026-03-28T13:03:21.153Z</time></trkpt><trkpt lat="46.1496633" lon="12.9694783"><ele>167.0</ele><time>2026-03-28T13:03:22.153Z</time></trkpt><trkpt lat="46.1496417" lon="12.969295"><ele>167.0</ele><time>2026-03-28T13:03:23.154Z</time></trkpt><trkpt lat="46.1496183" lon="12.96911"><ele>167.0</ele><time>2026-03-28T13:03:24.154Z</time></trkpt><trkpt lat="46.1495917" lon="12.96893"><ele>167.0</ele><time>2026-03-28T13:03:25.154Z</time></trkpt><trkpt lat="46.14957" lon="12.968755"><ele>167.0</ele><time>2026-03-28T13:03:26.154Z</time></trkpt><trkpt lat="46.1495583" lon="12.968585"><ele>167.0</ele><time>2026-03-28T13:03:27.154Z</time></trkpt><trkpt lat="46.1495517" lon="12.9684267"><ele>167.0</ele><time>2026-03-28T13:03:28.153Z</time></trkpt><trkpt lat="46.1495433" lon="12.96828"><ele>167.0</ele><time>2026-03-28T13:03:29.153Z</time></trkpt><trkpt lat="46.14954" lon="12.96814"><ele>167.0</ele><time>2026-03-28T13:03:30.153Z</time></trkpt><trkpt lat="46.149535" lon="12.9680017"><ele>167.0</ele><time>2026-03-28T13:03:31.153Z</time></trkpt><trkpt lat="46.1495283" lon="12.9678633"><ele>167.0</ele><time>2026-03-28T13:03:32.153Z</time></trkpt><trkpt lat="46.1495233" lon="12.9677167"><ele>167.0</ele><time>2026-03-28T13:03:33.153Z</time></trkpt><trkpt lat="46.1495183" lon="12.967585"><ele>167.0</ele><time>2026-03-28T13:03:34.153Z</time></trkpt><trkpt lat="46.1495183" lon="12.9674717"><ele>167.0</ele><time>2026-03-28T13:03:35.153Z</time></trkpt><trkpt lat="46.1495183" lon="12.9673733"><ele>167.0</ele><time>2026-03-28T13:03:36.153Z</time></trkpt><trkpt lat="46.1495167" lon="12.9671933"><ele>167.2</ele><time>2026-03-28T13:03:38.153Z</time></trkpt><trkpt lat="46.1495117" lon="12.9670367"><ele>167.39999999999998</ele><time>2026-03-28T13:03:40.154Z</time></trkpt><trkpt lat="46.149505" lon="12.9669167"><ele>167.60000000000002</ele><time>2026-03-28T13:03:42.153Z</time></trkpt><trkpt lat="46.1494683" lon="12.96684"><ele>167.8</ele><time>2026-03-28T13:03:44.153Z</time></trkpt><trkpt lat="46.1493817" lon="12.9668267"><ele>168.0</ele><time>2026-03-28T13:03:47.154Z</time></trkpt><trkpt lat="46.1492783" lon="12.96686"><ele>168.0</ele><time>2026-03-28T13:04:40.152Z</time></trkpt><trkpt lat="46.1492033" lon="12.9668683"><ele>168.0</ele><time>2026-03-28T13:04:41.152Z</time></trkpt><trkpt lat="46.14912" lon="12.9668733"><ele>168.0</ele><time>2026-03-28T13:04:42.152Z</time></trkpt><trkpt lat="46.1490383" lon="12.9668717"><ele>168.0</ele><time>2026-03-28T13:04:43.152Z</time></trkpt><trkpt lat="46.1489617" lon="12.9668633"><ele>168.0</ele><time>2026-03-28T13:04:44.153Z</time></trkpt><trkpt lat="46.148895" lon="12.9668433"><ele>168.0</ele><time>2026-03-28T13:04:45.152Z</time></trkpt><trkpt lat="46.1487917" lon="12.9667533"><ele>167.66666666666666</ele><time>2026-03-28T13:04:47.152Z</time></trkpt><trkpt lat="46.148765" lon="12.9666667"><ele>167.33333333333334</ele><time>2026-03-28T13:04:48.152Z</time></trkpt><trkpt lat="46.1487617" lon="12.96655"><ele>167.0</ele><time>2026-03-28T13:04:49.153Z</time></trkpt><trkpt lat="46.1487717" lon="12.96641"><ele>166.66666666666669</ele><time>2026-03-28T13:04:50.152Z</time></trkpt><trkpt lat="46.1487817" lon="12.9662817"><ele>166.33333333333334</ele><time>2026-03-28T13:04:51.153Z</time></trkpt><trkpt lat="46.148785" lon="12.9661883"><ele>166.0</ele><time>2026-03-28T13:04:52.152Z</time></trkpt><trkpt lat="46.1487967" lon="12.9660583"><ele>166.0</ele><time>2026-03-28T13:04:54.153Z</time></trkpt><trkpt lat="46.1488017" lon="12.9659483"><ele>166.0</ele><time>2026-03-28T13:04:56.152Z</time></trkpt><trkpt lat="46.1488017" lon="12.9658067"><ele>166.0</ele><time>2026-03-28T13:04:58.152Z</time></trkpt><trkpt lat="46.1488067" lon="12.965715"><ele>166.0</ele><time>2026-03-28T13:04:59.152Z</time></trkpt><trkpt lat="46.148805" lon="12.9656183"><ele>166.0</ele><time>2026-03-28T13:05:00.153Z</time></trkpt><trkpt lat="46.1487983" lon="12.9655133"><ele>166.0</ele><time>2026-03-28T13:05:01.152Z</time></trkpt><trkpt lat="46.1487933" lon="12.9654133"><ele>166.0</ele><time>2026-03-28T13:05:02.152Z</time></trkpt><trkpt lat="46.148795" lon="12.96532"><ele>166.20000000000002</ele><time>2026-03-28T13:05:03.152Z</time></trkpt><trkpt lat="46.1488017" lon="12.9651567"><ele>166.4</ele><time>2026-03-28T13:05:05.152Z</time></trkpt><trkpt lat="46.14882" lon="12.965015"><ele>166.6</ele><time>2026-03-28T13:05:07.152Z</time></trkpt><trkpt lat="46.1488617" lon="12.9649"><ele>166.8</ele><time>2026-03-28T13:05:09.152Z</time></trkpt><trkpt lat="46.14896" lon="12.9648217"><ele>167.0</ele><time>2026-03-28T13:05:11.153Z</time></trkpt><trkpt lat="46.149025" lon="12.9648033"><ele>167.16666666666666</ele><time>2026-03-28T13:05:12.152Z</time></trkpt><trkpt lat="46.1491133" lon="12.9647933"><ele>167.33333333333331</ele><time>2026-03-28T13:05:13.152Z</time></trkpt><trkpt lat="46.1492133" lon="12.9647867"><ele>167.5</ele><time>2026-03-28T13:05:14.152Z</time></trkpt><trkpt lat="46.1493083" lon="12.9647783"><ele>167.66666666666666</ele><time>2026-03-28T13:05:15.153Z</time></trkpt><trkpt lat="46.1493883" lon="12.9647467"><ele>167.83333333333334</ele><time>2026-03-28T13:05:16.152Z</time></trkpt><trkpt lat="46.1494517" lon="12.9646867"><ele>168.0</ele><time>2026-03-28T13:05:17.152Z</time></trkpt><trkpt lat="46.149495" lon="12.9646"><ele>168.0</ele><time>2026-03-28T13:05:18.153Z</time></trkpt><trkpt lat="46.14952" lon="12.96448"><ele>168.0</ele><time>2026-03-28T13:05:19.152Z</time></trkpt><trkpt lat="46.149525" lon="12.9643167"><ele>168.0</ele><time>2026-03-28T13:05:20.152Z</time></trkpt><trkpt lat="46.14952" lon="12.9641283"><ele>168.0</ele><time>2026-03-28T13:05:21.152Z</time></trkpt><trkpt lat="46.1495117" lon="12.9639367"><ele>168.0</ele><time>2026-03-28T13:05:22.152Z</time></trkpt><trkpt lat="46.1495067" lon="12.963755"><ele>168.0</ele><time>2026-03-28T13:05:23.152Z</time></trkpt><trkpt lat="46.1495017" lon="12.9635717"><ele>168.0</ele><time>2026-03-28T13:05:24.153Z</time></trkpt><trkpt lat="46.1494983" lon="12.963395"><ele>168.0</ele><time>2026-03-28T13:05:25.152Z</time></trkpt><trkpt lat="46.149495" lon="12.96323"><ele>168.0</ele><time>2026-03-28T13:05:26.152Z</time></trkpt><trkpt lat="46.14949" lon="12.9630667"><ele>168.0</ele><time>2026-03-28T13:05:27.152Z</time></trkpt><trkpt lat="46.14949" lon="12.962905"><ele>168.0</ele><time>2026-03-28T13:05:28.152Z</time></trkpt><trkpt lat="46.14949" lon="12.96276"><ele>168.0</ele><time>2026-03-28T13:05:29.152Z</time></trkpt><trkpt lat="46.1494867" lon="12.962625"><ele>168.0</ele><time>2026-03-28T13:05:30.152Z</time></trkpt><trkpt lat="46.149485" lon="12.9625033"><ele>168.0</ele><time>2026-03-28T13:05:31.152Z</time></trkpt><trkpt lat="46.149485" lon="12.9623717"><ele>168.0</ele><time>2026-03-28T13:05:32.153Z</time></trkpt><trkpt lat="46.1494817" lon="12.9622183"><ele>168.0</ele><time>2026-03-28T13:05:33.152Z</time></trkpt><trkpt lat="46.1494833" lon="12.962045"><ele>168.0</ele><time>2026-03-28T13:05:34.152Z</time></trkpt><trkpt lat="46.14949" lon="12.9618583"><ele>168.0</ele><time>2026-03-28T13:05:35.153Z</time></trkpt><trkpt lat="46.149495" lon="12.9616567"><ele>168.33333333333334</ele><time>2026-03-28T13:05:36.152Z</time></trkpt><trkpt lat="46.1495067" lon="12.9614433"><ele>168.66666666666669</ele><time>2026-03-28T13:05:37.152Z</time></trkpt><trkpt lat="46.1495233" lon="12.9612267"><ele>169.0</ele><time>2026-03-28T13:05:38.152Z</time></trkpt><trkpt lat="46.149545" lon="12.96101"><ele>168.75</ele><time>2026-03-28T13:05:39.152Z</time></trkpt><trkpt lat="46.1495567" lon="12.9608017"><ele>168.5</ele><time>2026-03-28T13:05:40.152Z</time></trkpt><trkpt lat="46.1495683" lon="12.9606083"><ele>168.25</ele><time>2026-03-28T13:05:41.152Z</time></trkpt><trkpt lat="46.14958" lon="12.9604167"><ele>168.0</ele><time>2026-03-28T13:05:42.153Z</time></trkpt><trkpt lat="46.1495933" lon="12.96022"><ele>168.0</ele><time>2026-03-28T13:05:43.152Z</time></trkpt><trkpt lat="46.1496067" lon="12.960025"><ele>168.0</ele><time>2026-03-28T13:05:44.152Z</time></trkpt><trkpt lat="46.149615" lon="12.9598333"><ele>168.0</ele><time>2026-03-28T13:05:45.152Z</time></trkpt><trkpt lat="46.1496267" lon="12.959645"><ele>168.0</ele><time>2026-03-28T13:05:46.152Z</time></trkpt><trkpt lat="46.14964" lon="12.9594483"><ele>168.0</ele><time>2026-03-28T13:05:47.152Z</time></trkpt><trkpt lat="46.1496567" lon="12.9592517"><ele>168.0</ele><time>2026-03-28T13:05:48.152Z</time></trkpt><trkpt lat="46.1496683" lon="12.9590633"><ele>168.0</ele><time>2026-03-28T13:05:49.152Z</time></trkpt><trkpt lat="46.1496817" lon="12.9588883"><ele>168.0</ele><time>2026-03-28T13:05:50.152Z</time></trkpt><trkpt lat="46.1496917" lon="12.95873"><ele>168.2</ele><time>2026-03-28T13:05:51.153Z</time></trkpt><trkpt lat="46.1497033" lon="12.95859"><ele>168.4</ele><time>2026-03-28T13:05:52.152Z</time></trkpt><trkpt lat="46.1497133" lon="12.95846"><ele>168.6</ele><time>2026-03-28T13:05:53.152Z</time></trkpt><trkpt lat="46.1497217" lon="12.958345"><ele>168.79999999999998</ele><time>2026-03-28T13:05:54.153Z</time></trkpt><trkpt lat="46.14973" lon="12.9582467"><ele>169.0</ele><time>2026-03-28T13:05:55.152Z</time></trkpt><trkpt lat="46.14969" lon="12.95809"><ele>169.0</ele><time>2026-03-28T13:05:57.152Z</time></trkpt><trkpt lat="46.149565" lon="12.9580083"><ele>169.0</ele><time>2026-03-28T13:05:59.152Z</time></trkpt><trkpt lat="46.1494683" lon="12.9579783"><ele>169.0</ele><time>2026-03-28T13:06:00.152Z</time></trkpt><trkpt lat="46.1493517" lon="12.9579467"><ele>169.0</ele><time>2026-03-28T13:06:01.152Z</time></trkpt><trkpt lat="46.14923" lon="12.9579067"><ele>169.0</ele><time>2026-03-28T13:06:02.152Z</time></trkpt><trkpt lat="46.149115" lon="12.9578683"><ele>169.0</ele><time>2026-03-28T13:06:03.152Z</time></trkpt><trkpt lat="46.1490083" lon="12.9578317"><ele>169.0</ele><time>2026-03-28T13:06:04.152Z</time></trkpt><trkpt lat="46.148905" lon="12.9577883"><ele>169.0</ele><time>2026-03-28T13:06:05.153Z</time></trkpt><trkpt lat="46.1488017" lon="12.9577283"><ele>169.0</ele><time>2026-03-28T13:06:06.153Z</time></trkpt><trkpt lat="46.1487033" lon="12.9576633"><ele>169.0</ele><time>2026-03-28T13:06:07.153Z</time></trkpt><trkpt lat="46.14861" lon="12.9576067"><ele>169.0</ele><time>2026-03-28T13:06:08.152Z</time></trkpt><trkpt lat="46.14852" lon="12.957545"><ele>169.0</ele><time>2026-03-28T13:06:09.152Z</time></trkpt><trkpt lat="46.1484367" lon="12.9574933"><ele>169.0</ele><time>2026-03-28T13:06:10.152Z</time></trkpt><trkpt lat="46.14835" lon="12.9574433"><ele>169.0</ele><time>2026-03-28T13:06:11.152Z</time></trkpt><trkpt lat="46.1482517" lon="12.9573917"><ele>168.79999999999998</ele><time>2026-03-28T13:06:12.152Z</time></trkpt><trkpt lat="46.148135" lon="12.9573283"><ele>168.6</ele><time>2026-03-28T13:06:13.152Z</time></trkpt><trkpt lat="46.148025" lon="12.9572733"><ele>168.4</ele><time>2026-03-28T13:06:14.152Z</time></trkpt><trkpt lat="46.1479333" lon="12.95722"><ele>168.2</ele><time>2026-03-28T13:06:15.152Z</time></trkpt><trkpt lat="46.1478617" lon="12.9571717"><ele>168.0</ele><time>2026-03-28T13:06:16.152Z</time></trkpt><trkpt lat="46.1478017" lon="12.9571217"><ele>168.0</ele><time>2026-03-28T13:06:17.153Z</time></trkpt><trkpt lat="46.147715" lon="12.95703"><ele>168.0</ele><time>2026-03-28T13:06:19.153Z</time></trkpt><trkpt lat="46.14776" lon="12.957135"><ele>168.0</ele><time>2026-03-28T13:06:26.152Z</time></trkpt><trkpt lat="46.1478567" lon="12.9572017"><ele>168.0</ele><time>2026-03-28T13:06:28.153Z</time></trkpt><trkpt lat="46.147935" lon="12.9572433"><ele>168.0</ele><time>2026-03-28T13:06:30.152Z</time></trkpt><trkpt lat="46.147935" lon="12.9573383"><ele>168.0</ele><time>2026-03-28T13:06:35.153Z</time></trkpt><trkpt lat="46.1478267" lon="12.957295"><ele>168.0</ele><time>2026-03-28T13:07:19.152Z</time></trkpt><trkpt lat="46.14776" lon="12.957315"><ele>168.0</ele><time>2026-03-28T13:07:21.152Z</time></trkpt><trkpt lat="46.1476483" lon="12.957335"><ele>168.0</ele><time>2026-03-28T13:07:23.152Z</time></trkpt><trkpt lat="46.1475333" lon="12.9573433"><ele>168.0</ele><time>2026-03-28T13:07:25.152Z</time></trkpt><trkpt lat="46.1474433" lon="12.9573817"><ele>168.0</ele><time>2026-03-28T13:07:27.153Z</time></trkpt><trkpt lat="46.1473967" lon="12.9574467"><ele>168.0</ele><time>2026-03-28T13:07:33.152Z</time></trkpt><trkpt lat="46.1475033" lon="12.9574183"><ele>168.0</ele><time>2026-03-28T13:07:46.152Z</time></trkpt><trkpt lat="46.147575" lon="12.9574067"><ele>168.0</ele><time>2026-03-28T13:07:48.152Z</time></trkpt><trkpt lat="46.1477233" lon="12.95741"><ele>168.0</ele><time>2026-03-28T13:08:02.152Z</time></trkpt><trkpt lat="46.1477867" lon="12.9573783"><ele>168.0</ele><time>2026-03-28T13:08:04.152Z</time></trkpt><trkpt lat="46.1477617" lon="12.9572917"><ele>168.0</ele><time>2026-03-28T13:08:08.152Z</time></trkpt><trkpt lat="46.14767" lon="12.9572567"><ele>168.0</ele><time>2026-03-28T13:08:11.153Z</time></trkpt><trkpt lat="46.147595" lon="12.9572383"><ele>168.0</ele><time>2026-03-28T13:08:13.152Z</time></trkpt><trkpt lat="46.1475167" lon="12.9572167"><ele>168.0</ele><time>2026-03-28T13:08:15.152Z</time></trkpt><trkpt lat="46.147445" lon="12.95719"><ele>168.0</ele><time>2026-03-28T13:08:17.152Z</time></trkpt><trkpt lat="46.1473733" lon="12.9571667"><ele>168.0</ele><time>2026-03-28T13:08:19.153Z</time></trkpt><trkpt lat="46.1473033" lon="12.9571467"><ele>167.83333333333334</ele><time>2026-03-28T13:08:21.152Z</time></trkpt><trkpt lat="46.1472183" lon="12.95714"><ele>167.66666666666666</ele><time>2026-03-28T13:08:23.152Z</time></trkpt><trkpt lat="46.1471333" lon="12.9571367"><ele>167.5</ele><time>2026-03-28T13:08:25.152Z</time></trkpt><trkpt lat="46.14706" lon="12.95709"><ele>167.33333333333331</ele><time>2026-03-28T13:08:27.152Z</time></trkpt><trkpt lat="46.1469833" lon="12.9570233"><ele>167.16666666666666</ele><time>2026-03-28T13:08:29.153Z</time></trkpt><trkpt lat="46.146915" lon="12.9569567"><ele>167.0</ele><time>2026-03-28T13:08:31.152Z</time></trkpt><trkpt lat="46.1468317" lon="12.9569033"><ele>167.0</ele><time>2026-03-28T13:08:33.153Z</time></trkpt><trkpt lat="46.14674" lon="12.9568517"><ele>167.0</ele><time>2026-03-28T13:08:35.152Z</time></trkpt><trkpt lat="46.1466533" lon="12.9568067"><ele>167.0</ele><time>2026-03-28T13:08:37.153Z</time></trkpt><trkpt lat="46.1465767" lon="12.9567683"><ele>167.0</ele><time>2026-03-28T13:08:39.152Z</time></trkpt><trkpt lat="46.146495" lon="12.956735"><ele>167.0</ele><time>2026-03-28T13:08:41.153Z</time></trkpt><trkpt lat="46.146405" lon="12.9566933"><ele>165.0</ele><time>2026-03-28T13:08:43.152Z</time></trkpt><trkpt lat="46.1462867" lon="12.9566483"><ele>163.0</ele><time>2026-03-28T13:08:45.152Z</time></trkpt><trkpt lat="46.1462233" lon="12.9566367"><ele>161.0</ele><time>2026-03-28T13:08:46.152Z</time></trkpt><trkpt lat="46.14611" lon="12.9566217"><ele>159.0</ele><time>2026-03-28T13:08:48.152Z</time></trkpt><trkpt lat="46.1459883" lon="12.9566167"><ele>157.0</ele><time>2026-03-28T13:08:50.152Z</time></trkpt><trkpt lat="46.1459217" lon="12.9566167"><ele>157.0</ele><time>2026-03-28T13:08:51.152Z</time></trkpt><trkpt lat="46.1458033" lon="12.9566117"><ele>157.0</ele><time>2026-03-28T13:08:53.152Z</time></trkpt><trkpt lat="46.145695" lon="12.9565817"><ele>157.0</ele><time>2026-03-28T13:08:55.152Z</time></trkpt><trkpt lat="46.1456" lon="12.956545"><ele>157.0</ele><time>2026-03-28T13:08:57.152Z</time></trkpt><trkpt lat="46.1455133" lon="12.9564883"><ele>157.0</ele><time>2026-03-28T13:08:59.152Z</time></trkpt><trkpt lat="46.14544" lon="12.9563933"><ele>156.16666666666669</ele><time>2026-03-28T13:09:01.152Z</time></trkpt><trkpt lat="46.14538" lon="12.956255"><ele>155.33333333333334</ele><time>2026-03-28T13:09:03.153Z</time></trkpt><trkpt lat="46.1453467" lon="12.9561583"><ele>154.5</ele><time>2026-03-28T13:09:04.152Z</time></trkpt><trkpt lat="46.14532" lon="12.9560633"><ele>153.66666666666666</ele><time>2026-03-28T13:09:05.152Z</time></trkpt><trkpt lat="46.1452933" lon="12.9559583"><ele>152.83333333333331</ele><time>2026-03-28T13:09:06.152Z</time></trkpt><trkpt lat="46.1452633" lon="12.955865"><ele>152.0</ele><time>2026-03-28T13:09:07.152Z</time></trkpt><trkpt lat="46.145235" lon="12.9557817"><ele>150.5</ele><time>2026-03-28T13:09:08.152Z</time></trkpt><trkpt lat="46.1452033" lon="12.9556333"><ele>149.0</ele><time>2026-03-28T13:09:10.152Z</time></trkpt><trkpt lat="46.1451783" lon="12.9555433"><ele>147.5</ele><time>2026-03-28T13:09:11.152Z</time></trkpt><trkpt lat="46.14517" lon="12.9554333"><ele>146.0</ele><time>2026-03-28T13:09:12.152Z</time></trkpt><trkpt lat="46.14518" lon="12.9553133"><ele>144.5</ele><time>2026-03-28T13:09:13.153Z</time></trkpt><trkpt lat="46.145205" lon="12.95521"><ele>143.0</ele><time>2026-03-28T13:09:14.153Z</time></trkpt><trkpt lat="46.1452383" lon="12.9551217"><ele>141.20000000000002</ele><time>2026-03-28T13:09:15.152Z</time></trkpt><trkpt lat="46.1452933" lon="12.9549967"><ele>139.4</ele><time>2026-03-28T13:09:17.152Z</time></trkpt><trkpt lat="46.14535" lon="12.9549017"><ele>137.60000000000002</ele><time>2026-03-28T13:09:27.152Z</time></trkpt><trkpt lat="46.1453667" lon="12.954785"><ele>135.8</ele><time>2026-03-28T13:09:37.152Z</time></trkpt><trkpt lat="46.1452983" lon="12.95463"><ele>134.0</ele><time>2026-03-28T13:09:45.152Z</time></trkpt><trkpt lat="46.1452267" lon="12.9545567"><ele>134.0</ele><time>2026-03-28T13:09:48.152Z</time></trkpt><trkpt lat="46.1451733" lon="12.95446"><ele>134.0</ele><time>2026-03-28T13:09:51.152Z</time></trkpt><trkpt lat="46.145135" lon="12.9543783"><ele>134.0</ele><time>2026-03-28T13:09:53.152Z</time></trkpt><trkpt lat="46.14509" lon="12.9542667"><ele>134.0</ele><time>2026-03-28T13:09:55.152Z</time></trkpt><trkpt lat="46.1450483" lon="12.9541683"><ele>134.0</ele><time>2026-03-28T13:09:57.153Z</time></trkpt><trkpt lat="46.145015" lon="12.9540833"><ele>134.0</ele><time>2026-03-28T13:09:59.153Z</time></trkpt><trkpt lat="46.14498" lon="12.9540017"><ele>132.66666666666666</ele><time>2026-03-28T13:10:01.152Z</time></trkpt><trkpt lat="46.1449517" lon="12.9538917"><ele>131.33333333333331</ele><time>2026-03-28T13:10:04.152Z</time></trkpt><trkpt lat="46.1449317" lon="12.9537833"><ele>130.0</ele><time>2026-03-28T13:10:06.152Z</time></trkpt><trkpt lat="46.14491" lon="12.9536717"><ele>128.66666666666666</ele><time>2026-03-28T13:10:08.152Z</time></trkpt><trkpt lat="46.1448917" lon="12.9535517"><ele>127.33333333333333</ele><time>2026-03-28T13:10:11.152Z</time></trkpt><trkpt lat="46.1448517" lon="12.9534283"><ele>126.0</ele><time>2026-03-28T13:10:14.152Z</time></trkpt><trkpt lat="46.144785" lon="12.95336"><ele>124.83333333333333</ele><time>2026-03-28T13:10:17.152Z</time></trkpt><trkpt lat="46.1447167" lon="12.9533433"><ele>123.66666666666666</ele><time>2026-03-28T13:10:19.152Z</time></trkpt><trkpt lat="46.1446333" lon="12.9533233"><ele>122.5</ele><time>2026-03-28T13:10:21.153Z</time></trkpt><trkpt lat="46.1445283" lon="12.9533217"><ele>121.33333333333333</ele><time>2026-03-28T13:10:37.152Z</time></trkpt><trkpt lat="46.144465" lon="12.9532967"><ele>120.16666666666666</ele><time>2026-03-28T13:10:39.153Z</time></trkpt><trkpt lat="46.1443967" lon="12.9533267"><ele>119.0</ele><time>2026-03-28T13:11:44.657Z</time></trkpt><trkpt lat="46.1443467" lon="12.9532383"><ele>119.0</ele><time>2026-03-28T13:13:07.158Z</time></trkpt><trkpt lat="46.14426" lon="12.953225"><ele>119.0</ele><time>2026-03-28T13:13:09.157Z</time></trkpt><trkpt lat="46.1441517" lon="12.953185"><ele>119.0</ele><time>2026-03-28T13:13:11.157Z</time></trkpt><trkpt lat="46.1440617" lon="12.95314"><ele>119.0</ele><time>2026-03-28T13:13:13.157Z</time></trkpt><trkpt lat="46.143995" lon="12.9530767"><ele>119.0</ele><time>2026-03-28T13:13:15.158Z</time></trkpt><trkpt lat="46.1439133" lon="12.9529833"><ele>119.16666666666666</ele><time>2026-03-28T13:13:17.157Z</time></trkpt><trkpt lat="46.1438633" lon="12.9529217"><ele>119.33333333333333</ele><time>2026-03-28T13:13:18.157Z</time></trkpt><trkpt lat="46.1438033" lon="12.9528617"><ele>119.5</ele><time>2026-03-28T13:13:19.157Z</time></trkpt><trkpt lat="46.1437417" lon="12.95282"><ele>119.66666666666666</ele><time>2026-03-28T13:13:20.157Z</time></trkpt><trkpt lat="46.1436683" lon="12.952795"><ele>119.83333333333333</ele><time>2026-03-28T13:13:21.157Z</time></trkpt><trkpt lat="46.14358" lon="12.9527867"><ele>120.0</ele><time>2026-03-28T13:13:22.157Z</time></trkpt><trkpt lat="46.1434833" lon="12.9527883"><ele>120.0</ele><time>2026-03-28T13:13:23.158Z</time></trkpt><trkpt lat="46.1433867" lon="12.952805"><ele>120.0</ele><time>2026-03-28T13:13:24.157Z</time></trkpt><trkpt lat="46.1433" lon="12.952835"><ele>120.0</ele><time>2026-03-28T13:13:25.157Z</time></trkpt><trkpt lat="46.1432183" lon="12.9528767"><ele>120.0</ele><time>2026-03-28T13:13:26.157Z</time></trkpt><trkpt lat="46.1431333" lon="12.9529233"><ele>120.0</ele><time>2026-03-28T13:13:27.157Z</time></trkpt><trkpt lat="46.1430567" lon="12.95297"><ele>120.0</ele><time>2026-03-28T13:13:28.157Z</time></trkpt><trkpt lat="46.1429783" lon="12.95301"><ele>119.66666666666667</ele><time>2026-03-28T13:13:29.158Z</time></trkpt><trkpt lat="46.1429117" lon="12.953035"><ele>119.33333333333334</ele><time>2026-03-28T13:13:30.157Z</time></trkpt><trkpt lat="46.142845" lon="12.9530517"><ele>119.0</ele><time>2026-03-28T13:13:31.157Z</time></trkpt><trkpt lat="46.1427833" lon="12.95307"><ele>118.66666666666667</ele><time>2026-03-28T13:13:32.157Z</time></trkpt><trkpt lat="46.1427183" lon="12.953095"><ele>118.33333333333334</ele><time>2026-03-28T13:13:33.157Z</time></trkpt><trkpt lat="46.14262" lon="12.9531517"><ele>118.0</ele><time>2026-03-28T13:13:34.158Z</time></trkpt><trkpt lat="46.1424983" lon="12.9532283"><ele>118.0</ele><time>2026-03-28T13:13:35.157Z</time></trkpt><trkpt lat="46.1423783" lon="12.9533117"><ele>118.0</ele><time>2026-03-28T13:13:36.157Z</time></trkpt><trkpt lat="46.1422683" lon="12.9533933"><ele>118.0</ele><time>2026-03-28T13:13:37.157Z</time></trkpt><trkpt lat="46.1421633" lon="12.9534583"><ele>118.0</ele><time>2026-03-28T13:13:38.158Z</time></trkpt><trkpt lat="46.1420717" lon="12.9535267"><ele>118.2</ele><time>2026-03-28T13:13:39.157Z</time></trkpt><trkpt lat="46.1419783" lon="12.953585"><ele>118.4</ele><time>2026-03-28T13:13:40.157Z</time></trkpt><trkpt lat="46.14188" lon="12.953625"><ele>118.60000000000001</ele><time>2026-03-28T13:13:41.158Z</time></trkpt><trkpt lat="46.14177" lon="12.9536667"><ele>118.80000000000001</ele><time>2026-03-28T13:13:42.158Z</time></trkpt><trkpt lat="46.1416683" lon="12.9537"><ele>119.0</ele><time>2026-03-28T13:13:43.158Z</time></trkpt><trkpt lat="46.1415617" lon="12.9537167"><ele>119.4</ele><time>2026-03-28T13:13:44.157Z</time></trkpt><trkpt lat="46.1414567" lon="12.9537233"><ele>119.80000000000001</ele><time>2026-03-28T13:13:45.157Z</time></trkpt><trkpt lat="46.1413483" lon="12.9537317"><ele>120.19999999999999</ele><time>2026-03-28T13:13:46.157Z</time></trkpt><trkpt lat="46.141255" lon="12.953735"><ele>120.6</ele><time>2026-03-28T13:13:47.158Z</time></trkpt><trkpt lat="46.1411583" lon="12.953735"><ele>121.0</ele><time>2026-03-28T13:13:48.158Z</time></trkpt><trkpt lat="46.14105" lon="12.9537367"><ele>121.0</ele><time>2026-03-28T13:13:49.157Z</time></trkpt><trkpt lat="46.140925" lon="12.9537367"><ele>121.0</ele><time>2026-03-28T13:13:50.157Z</time></trkpt><trkpt lat="46.140795" lon="12.9537417"><ele>121.0</ele><time>2026-03-28T13:13:51.157Z</time></trkpt><trkpt lat="46.1406783" lon="12.9537367"><ele>121.0</ele><time>2026-03-28T13:13:52.158Z</time></trkpt><trkpt lat="46.140575" lon="12.953735"><ele>120.6</ele><time>2026-03-28T13:13:53.157Z</time></trkpt><trkpt lat="46.1404683" lon="12.9537367"><ele>120.19999999999999</ele><time>2026-03-28T13:13:54.158Z</time></trkpt><trkpt lat="46.1403667" lon="12.95374"><ele>119.80000000000001</ele><time>2026-03-28T13:13:55.157Z</time></trkpt><trkpt lat="46.1402583" lon="12.9537417"><ele>119.4</ele><time>2026-03-28T13:13:56.157Z</time></trkpt><trkpt lat="46.1401583" lon="12.9537433"><ele>119.0</ele><time>2026-03-28T13:13:57.157Z</time></trkpt><trkpt lat="46.14007" lon="12.9537467"><ele>118.99999999999999</ele><time>2026-03-28T13:13:58.158Z</time></trkpt><trkpt lat="46.1399883" lon="12.95374"><ele>119.0</ele><time>2026-03-28T13:13:59.158Z</time></trkpt><trkpt lat="46.1399033" lon="12.95375"><ele>119.0</ele><time>2026-03-28T13:14:00.157Z</time></trkpt><trkpt lat="46.1398117" lon="12.95377"><ele>119.0</ele><time>2026-03-28T13:14:01.158Z</time></trkpt><trkpt lat="46.1397183" lon="12.9537867"><ele>118.99999999999999</ele><time>2026-03-28T13:14:02.157Z</time></trkpt><trkpt lat="46.13963" lon="12.953795"><ele>119.0</ele><time>2026-03-28T13:14:03.157Z</time></trkpt><trkpt lat="46.1395417" lon="12.9538317"><ele>118.99999999999999</ele><time>2026-03-28T13:14:04.157Z</time></trkpt><trkpt lat="46.1394633" lon="12.9538917"><ele>119.0</ele><time>2026-03-28T13:14:05.158Z</time></trkpt><trkpt lat="46.139385" lon="12.9539683"><ele>119.0</ele><time>2026-03-28T13:14:06.157Z</time></trkpt><trkpt lat="46.139305" lon="12.9540333"><ele>119.0</ele><time>2026-03-28T13:14:07.158Z</time></trkpt><trkpt lat="46.139235" lon="12.9540983"><ele>118.99999999999999</ele><time>2026-03-28T13:14:08.157Z</time></trkpt><trkpt lat="46.1391633" lon="12.9541667"><ele>119.0</ele><time>2026-03-28T13:14:09.158Z</time></trkpt><trkpt lat="46.13909" lon="12.954225"><ele>120.4</ele><time>2026-03-28T13:14:10.158Z</time></trkpt><trkpt lat="46.13901" lon="12.9542817"><ele>121.80000000000001</ele><time>2026-03-28T13:14:11.158Z</time></trkpt><trkpt lat="46.1389167" lon="12.9543483"><ele>123.19999999999999</ele><time>2026-03-28T13:14:12.157Z</time></trkpt><trkpt lat="46.1388167" lon="12.954405"><ele>124.6</ele><time>2026-03-28T13:14:13.158Z</time></trkpt><trkpt lat="46.13873" lon="12.954445"><ele>126.0</ele><time>2026-03-28T13:14:14.157Z</time></trkpt><trkpt lat="46.1386417" lon="12.9544733"><ele>126.0</ele><time>2026-03-28T13:14:15.157Z</time></trkpt><trkpt lat="46.1385467" lon="12.954495"><ele>126.0</ele><time>2026-03-28T13:14:16.157Z</time></trkpt><trkpt lat="46.1384617" lon="12.9545167"><ele>126.0</ele><time>2026-03-28T13:14:17.157Z</time></trkpt><trkpt lat="46.1383817" lon="12.9545417"><ele>126.0</ele><time>2026-03-28T13:14:18.157Z</time></trkpt><trkpt lat="46.138305" lon="12.9545583"><ele>126.0</ele><time>2026-03-28T13:14:19.157Z</time></trkpt><trkpt lat="46.138225" lon="12.954585"><ele>126.0</ele><time>2026-03-28T13:14:20.157Z</time></trkpt><trkpt lat="46.1381567" lon="12.9546033"><ele>126.33333333333333</ele><time>2026-03-28T13:14:21.157Z</time></trkpt><trkpt lat="46.1380817" lon="12.954615"><ele>126.66666666666666</ele><time>2026-03-28T13:14:22.157Z</time></trkpt><trkpt lat="46.1380083" lon="12.9546083"><ele>127.0</ele><time>2026-03-28T13:14:23.157Z</time></trkpt><trkpt lat="46.137925" lon="12.9545917"><ele>127.33333333333333</ele><time>2026-03-28T13:14:24.157Z</time></trkpt><trkpt lat="46.1378383" lon="12.9545717"><ele>127.66666666666666</ele><time>2026-03-28T13:14:25.157Z</time></trkpt><trkpt lat="46.1377433" lon="12.9545517"><ele>128.0</ele><time>2026-03-28T13:14:26.157Z</time></trkpt><trkpt lat="46.1376567" lon="12.9545483"><ele>127.99999999999999</ele><time>2026-03-28T13:14:27.157Z</time></trkpt><trkpt lat="46.1375867" lon="12.9545483"><ele>128.0</ele><time>2026-03-28T13:14:28.158Z</time></trkpt><trkpt lat="46.1374833" lon="12.9545683"><ele>128.0</ele><time>2026-03-28T13:14:30.157Z</time></trkpt><trkpt lat="46.1374167" lon="12.9545917"><ele>128.0</ele><time>2026-03-28T13:14:32.157Z</time></trkpt><trkpt lat="46.1373333" lon="12.9546083"><ele>127.99999999999999</ele><time>2026-03-28T13:14:35.158Z</time></trkpt><trkpt lat="46.13726" lon="12.9546033"><ele>128.0</ele><time>2026-03-28T13:14:37.157Z</time></trkpt><trkpt lat="46.137175" lon="12.9545833"><ele>127.2</ele><time>2026-03-28T13:14:39.157Z</time></trkpt><trkpt lat="46.1370683" lon="12.9545633"><ele>126.4</ele><time>2026-03-28T13:14:41.158Z</time></trkpt><trkpt lat="46.136985" lon="12.9545317"><ele>125.60000000000001</ele><time>2026-03-28T13:14:43.158Z</time></trkpt><trkpt lat="46.136875" lon="12.954495"><ele>124.80000000000001</ele><time>2026-03-28T13:14:45.157Z</time></trkpt><trkpt lat="46.1368017" lon="12.954475"><ele>124.0</ele><time>2026-03-28T13:14:46.157Z</time></trkpt><trkpt lat="46.1367317" lon="12.9544567"><ele>124.00000000000001</ele><time>2026-03-28T13:14:47.157Z</time></trkpt><trkpt lat="46.1366683" lon="12.9544283"><ele>124.0</ele><time>2026-03-28T13:14:48.157Z</time></trkpt><trkpt lat="46.1365483" lon="12.9543833"><ele>124.0</ele><time>2026-03-28T13:14:50.158Z</time></trkpt><trkpt lat="46.136473" lon="12.9543608"><ele>124.0</ele><time>2026-03-28T13:14:51.157Z</time></trkpt><trkpt lat="46.1364043" lon="12.9543414"><ele>124.00000000000001</ele><time>2026-03-28T13:14:52.158Z</time></trkpt><trkpt lat="46.1363379" lon="12.9543185"><ele>124.0</ele><time>2026-03-28T13:14:53.157Z</time></trkpt><trkpt lat="46.1362739" lon="12.9542933"><ele>124.33333333333334</ele><time>2026-03-28T13:14:54.157Z</time></trkpt><trkpt lat="46.136178" lon="12.9542604"><ele>124.66666666666667</ele><time>2026-03-28T13:14:56.157Z</time></trkpt><trkpt lat="46.1361119" lon="12.9542412"><ele>125.0</ele><time>2026-03-28T13:14:58.157Z</time></trkpt><trkpt lat="46.1360374" lon="12.9542827"><ele>125.33333333333334</ele><time>2026-03-28T13:15:01.158Z</time></trkpt><trkpt lat="46.1359945" lon="12.9543803"><ele>125.66666666666667</ele><time>2026-03-28T13:15:03.158Z</time></trkpt><trkpt lat="46.1359635" lon="12.9544926"><ele>126.0</ele><time>2026-03-28T13:15:04.157Z</time></trkpt><trkpt lat="46.1359153" lon="12.9546459"><ele>126.0</ele><time>2026-03-28T13:15:05.157Z</time></trkpt><trkpt lat="46.1358516" lon="12.9548052"><ele>126.0</ele><time>2026-03-28T13:15:06.157Z</time></trkpt><trkpt lat="46.1357781" lon="12.9549473"><ele>126.0</ele><time>2026-03-28T13:15:07.157Z</time></trkpt><trkpt lat="46.1356971" lon="12.9550629"><ele>126.0</ele><time>2026-03-28T13:15:08.158Z</time></trkpt><trkpt lat="46.1356088" lon="12.9551578"><ele>127.5</ele><time>2026-03-28T13:15:09.158Z</time></trkpt><trkpt lat="46.1355052" lon="12.9552453"><ele>129.0</ele><time>2026-03-28T13:15:10.157Z</time></trkpt><trkpt lat="46.135404" lon="12.9553286"><ele>130.5</ele><time>2026-03-28T13:15:11.157Z</time></trkpt><trkpt lat="46.1353061" lon="12.9554163"><ele>132.0</ele><time>2026-03-28T13:15:12.157Z</time></trkpt><trkpt lat="46.1352053" lon="12.9555079"><ele>132.0</ele><time>2026-03-28T13:15:13.158Z</time></trkpt><trkpt lat="46.1351139" lon="12.9556078"><ele>132.0</ele><time>2026-03-28T13:15:14.157Z</time></trkpt><trkpt lat="46.1350235" lon="12.9557162"><ele>132.0</ele><time>2026-03-28T13:15:15.158Z</time></trkpt><trkpt lat="46.1349352" lon="12.9558385"><ele>132.0</ele><time>2026-03-28T13:15:16.157Z</time></trkpt><trkpt lat="46.1348497" lon="12.9559659"><ele>135.25</ele><time>2026-03-28T13:15:17.158Z</time></trkpt><trkpt lat="46.134751" lon="12.9560969"><ele>138.5</ele><time>2026-03-28T13:15:18.158Z</time></trkpt><trkpt lat="46.1346548" lon="12.9562405"><ele>141.75</ele><time>2026-03-28T13:15:19.157Z</time></trkpt><trkpt lat="46.1345616" lon="12.9563869"><ele>145.0</ele><time>2026-03-28T13:15:20.158Z</time></trkpt><trkpt lat="46.1344661" lon="12.9565387"><ele>145.0</ele><time>2026-03-28T13:15:21.157Z</time></trkpt><trkpt lat="46.1343717" lon="12.9566974"><ele>145.0</ele><time>2026-03-28T13:15:22.157Z</time></trkpt><trkpt lat="46.1342835" lon="12.9568628"><ele>145.0</ele><time>2026-03-28T13:15:23.157Z</time></trkpt><trkpt lat="46.1341991" lon="12.9570327"><ele>145.0</ele><time>2026-03-28T13:15:24.157Z</time></trkpt><trkpt lat="46.1341284" lon="12.9572004"><ele>145.25</ele><time>2026-03-28T13:15:25.157Z</time></trkpt><trkpt lat="46.1340713" lon="12.9573606"><ele>145.5</ele><time>2026-03-28T13:15:26.157Z</time></trkpt><trkpt lat="46.1340217" lon="12.9575204"><ele>145.75</ele><time>2026-03-28T13:15:27.157Z</time></trkpt><trkpt lat="46.1339753" lon="12.9576776"><ele>146.0</ele><time>2026-03-28T13:15:28.157Z</time></trkpt><trkpt lat="46.133922" lon="12.9578308"><ele>146.8</ele><time>2026-03-28T13:15:29.157Z</time></trkpt><trkpt lat="46.1338642" lon="12.9579792"><ele>147.6</ele><time>2026-03-28T13:15:30.157Z</time></trkpt><trkpt lat="46.1338054" lon="12.9581177"><ele>148.4</ele><time>2026-03-28T13:15:31.157Z</time></trkpt><trkpt lat="46.1337442" lon="12.9582403"><ele>149.2</ele><time>2026-03-28T13:15:32.157Z</time></trkpt><trkpt lat="46.1336899" lon="12.9583398"><ele>150.0</ele><time>2026-03-28T13:15:33.157Z</time></trkpt><trkpt lat="46.1336368" lon="12.9584348"><ele>150.33333333333334</ele><time>2026-03-28T13:15:34.157Z</time></trkpt><trkpt lat="46.1335803" lon="12.9585375"><ele>150.66666666666666</ele><time>2026-03-28T13:15:35.157Z</time></trkpt><trkpt lat="46.1335286" lon="12.9586543"><ele>151.0</ele><time>2026-03-28T13:15:36.158Z</time></trkpt><trkpt lat="46.1334907" lon="12.9587742"><ele>151.33333333333331</ele><time>2026-03-28T13:15:37.158Z</time></trkpt><trkpt lat="46.1334697" lon="12.9588829"><ele>151.66666666666666</ele><time>2026-03-28T13:15:38.158Z</time></trkpt><trkpt lat="46.1334551" lon="12.9589778"><ele>152.0</ele><time>2026-03-28T13:15:39.157Z</time></trkpt><trkpt lat="46.1334254" lon="12.9591224"><ele>152.0</ele><time>2026-03-28T13:15:41.158Z</time></trkpt><trkpt lat="46.1333627" lon="12.9591712"><ele>152.0</ele><time>2026-03-28T13:15:44.157Z</time></trkpt><trkpt lat="46.1333095" lon="12.9590941"><ele>152.0</ele><time>2026-03-28T13:15:47.157Z</time></trkpt><trkpt lat="46.133284" lon="12.9589592"><ele>152.0</ele><time>2026-03-28T13:15:49.157Z</time></trkpt><trkpt lat="46.1332765" lon="12.9587916"><ele>152.0</ele><time>2026-03-28T13:15:51.157Z</time></trkpt><trkpt lat="46.1332851" lon="12.9586721"><ele>152.0</ele><time>2026-03-28T13:15:53.158Z</time></trkpt><trkpt lat="46.1333039" lon="12.9585281"><ele>152.0</ele><time>2026-03-28T13:15:55.157Z</time></trkpt><trkpt lat="46.1333288" lon="12.9583884"><ele>152.0</ele><time>2026-03-28T13:15:57.157Z</time></trkpt><trkpt lat="46.1333962" lon="12.9582883"><ele>152.0</ele><time>2026-03-28T13:16:00.158Z</time></trkpt><trkpt lat="46.1334768" lon="12.9582093"><ele>152.0</ele><time>2026-03-28T13:16:02.157Z</time></trkpt><trkpt lat="46.1335547" lon="12.9581416"><ele>152.0</ele><time>2026-03-28T13:16:04.157Z</time></trkpt><trkpt lat="46.1336104" lon="12.9580781"><ele>151.6</ele><time>2026-03-28T13:16:07.158Z</time></trkpt><trkpt lat="46.1336699" lon="12.9579472"><ele>151.2</ele><time>2026-03-28T13:16:15.157Z</time></trkpt><trkpt lat="46.1336979" lon="12.9578449"><ele>150.8</ele><time>2026-03-28T13:16:16.158Z</time></trkpt><trkpt lat="46.1337391" lon="12.9576983"><ele>150.4</ele><time>2026-03-28T13:16:17.157Z</time></trkpt><trkpt lat="46.133781" lon="12.9575362"><ele>150.0</ele><time>2026-03-28T13:16:18.158Z</time></trkpt><trkpt lat="46.1338147" lon="12.9573927"><ele>150.0</ele><time>2026-03-28T13:16:19.157Z</time></trkpt><trkpt lat="46.1338456" lon="12.9572731"><ele>150.0</ele><time>2026-03-28T13:16:20.157Z</time></trkpt><trkpt lat="46.1338762" lon="12.9571814"><ele>150.0</ele><time>2026-03-28T13:16:21.157Z</time></trkpt><trkpt lat="46.1339274" lon="12.9570737"><ele>150.0</ele><time>2026-03-28T13:16:23.157Z</time></trkpt><trkpt lat="46.1339251" lon="12.9565635"><ele>150.0</ele><time>2026-03-28T13:17:19.156Z</time></trkpt><trkpt lat="46.13394" lon="12.9566616"><ele>150.0</ele><time>2026-03-28T13:17:24.157Z</time></trkpt><trkpt lat="46.1339347" lon="12.9567574"><ele>150.0</ele><time>2026-03-28T13:17:29.156Z</time></trkpt><trkpt lat="46.133926" lon="12.9568475"><ele>150.0</ele><time>2026-03-28T13:17:40.157Z</time></trkpt><trkpt lat="46.1339278" lon="12.9569481"><ele>150.0</ele><time>2026-03-28T13:17:45.152Z</time></trkpt><trkpt lat="46.1339105" lon="12.9570367"><ele>150.0</ele><time>2026-03-28T13:17:51.139Z</time></trkpt><trkpt lat="46.1338337" lon="12.9571876"><ele>150.0</ele><time>2026-03-28T13:18:17.195Z</time></trkpt><trkpt lat="46.1337919" lon="12.9573935"><ele>150.0</ele><time>2026-03-28T13:18:19.157Z</time></trkpt><trkpt lat="46.1337433" lon="12.9576017"><ele>150.0</ele><time>2026-03-28T13:18:20.157Z</time></trkpt><trkpt lat="46.133705" lon="12.9577483"><ele>150.0</ele><time>2026-03-28T13:18:21.156Z</time></trkpt><trkpt lat="46.1336717" lon="12.9578667"><ele>150.0</ele><time>2026-03-28T13:18:22.156Z</time></trkpt><trkpt lat="46.1336333" lon="12.957955"><ele>150.0</ele><time>2026-03-28T13:18:23.156Z</time></trkpt><trkpt lat="46.1335933" lon="12.958035"><ele>150.0</ele><time>2026-03-28T13:18:24.156Z</time></trkpt><trkpt lat="46.1335333" lon="12.958105"><ele>150.0</ele><time>2026-03-28T13:18:25.156Z</time></trkpt><trkpt lat="46.1334533" lon="12.9581833"><ele>150.0</ele><time>2026-03-28T13:18:26.156Z</time></trkpt><trkpt lat="46.13338" lon="12.95826"><ele>150.0</ele><time>2026-03-28T13:18:27.156Z</time></trkpt><trkpt lat="46.13333" lon="12.95833"><ele>150.4</ele><time>2026-03-28T13:18:28.156Z</time></trkpt><trkpt lat="46.1332817" lon="12.9584867"><ele>150.8</ele><time>2026-03-28T13:18:36.156Z</time></trkpt><trkpt lat="46.13327" lon="12.9586217"><ele>151.2</ele><time>2026-03-28T13:18:38.156Z</time></trkpt><trkpt lat="46.1332667" lon="12.9587833"><ele>151.6</ele><time>2026-03-28T13:18:40.156Z</time></trkpt><trkpt lat="46.13329" lon="12.9589233"><ele>152.0</ele><time>2026-03-28T13:18:42.156Z</time></trkpt><trkpt lat="46.133305" lon="12.9590283"><ele>152.0</ele><time>2026-03-28T13:18:44.156Z</time></trkpt><trkpt lat="46.1331933" lon="12.9591317"><ele>152.0</ele><time>2026-03-28T13:19:02.157Z</time></trkpt><trkpt lat="46.1331267" lon="12.9591483"><ele>152.0</ele><time>2026-03-28T13:19:03.157Z</time></trkpt><trkpt lat="46.1330367" lon="12.9591633"><ele>152.0</ele><time>2026-03-28T13:19:04.156Z</time></trkpt><trkpt lat="46.1329317" lon="12.9591817"><ele>152.0</ele><time>2026-03-28T13:19:05.156Z</time></trkpt><trkpt lat="46.1328333" lon="12.9591867"><ele>152.0</ele><time>2026-03-28T13:19:06.157Z</time></trkpt><trkpt lat="46.1327367" lon="12.959185"><ele>152.0</ele><time>2026-03-28T13:19:08.157Z</time></trkpt><trkpt lat="46.1326367" lon="12.9591933"><ele>152.0</ele><time>2026-03-28T13:19:42.156Z</time></trkpt><trkpt lat="46.1325483" lon="12.9592"><ele>152.0</ele><time>2026-03-28T13:19:43.156Z</time></trkpt><trkpt lat="46.1324683" lon="12.95922"><ele>152.0</ele><time>2026-03-28T13:19:44.157Z</time></trkpt><trkpt lat="46.1324017" lon="12.959235"><ele>152.0</ele><time>2026-03-28T13:19:45.156Z</time></trkpt><trkpt lat="46.1323367" lon="12.9592467"><ele>152.0</ele><time>2026-03-28T13:19:46.156Z</time></trkpt><trkpt lat="46.13222" lon="12.9592783"><ele>152.0</ele><time>2026-03-28T13:19:48.156Z</time></trkpt><trkpt lat="46.1320983" lon="12.9593117"><ele>152.0</ele><time>2026-03-28T13:19:50.156Z</time></trkpt><trkpt lat="46.1319883" lon="12.9593333"><ele>152.0</ele><time>2026-03-28T13:19:52.156Z</time></trkpt><trkpt lat="46.1318717" lon="12.9593667"><ele>152.0</ele><time>2026-03-28T13:19:54.157Z</time></trkpt><trkpt lat="46.1318017" lon="12.959395"><ele>152.0</ele><time>2026-03-28T13:19:55.156Z</time></trkpt><trkpt lat="46.13172" lon="12.9594333"><ele>152.0</ele><time>2026-03-28T13:19:56.156Z</time></trkpt><trkpt lat="46.1316217" lon="12.95947"><ele>152.0</ele><time>2026-03-28T13:19:57.156Z</time></trkpt><trkpt lat="46.1315183" lon="12.9594983"><ele>152.0</ele><time>2026-03-28T13:19:58.157Z</time></trkpt><trkpt lat="46.131405" lon="12.95953"><ele>152.0</ele><time>2026-03-28T13:19:59.156Z</time></trkpt><trkpt lat="46.1312983" lon="12.95957"><ele>152.0</ele><time>2026-03-28T13:20:00.156Z</time></trkpt><trkpt lat="46.1311867" lon="12.9595917"><ele>152.0</ele><time>2026-03-28T13:20:01.156Z</time></trkpt><trkpt lat="46.1310383" lon="12.9596017"><ele>152.0</ele><time>2026-03-28T13:20:02.156Z</time></trkpt><trkpt lat="46.1308583" lon="12.9596217"><ele>150.66666666666666</ele><time>2026-03-28T13:20:03.156Z</time></trkpt><trkpt lat="46.1306583" lon="12.959655"><ele>149.33333333333334</ele><time>2026-03-28T13:20:04.157Z</time></trkpt><trkpt lat="46.1304817" lon="12.9597"><ele>148.0</ele><time>2026-03-28T13:20:05.156Z</time></trkpt><trkpt lat="46.1303217" lon="12.959755"><ele>148.0</ele><time>2026-03-28T13:20:06.156Z</time></trkpt><trkpt lat="46.130175" lon="12.95981"><ele>148.0</ele><time>2026-03-28T13:20:07.156Z</time></trkpt><trkpt lat="46.1300383" lon="12.95986"><ele>148.0</ele><time>2026-03-28T13:20:08.156Z</time></trkpt><trkpt lat="46.1299083" lon="12.9598983"><ele>148.0</ele><time>2026-03-28T13:20:09.156Z</time></trkpt><trkpt lat="46.12979" lon="12.959935"><ele>148.0</ele><time>2026-03-28T13:20:10.156Z</time></trkpt><trkpt lat="46.1296833" lon="12.9599733"><ele>148.0</ele><time>2026-03-28T13:20:11.156Z</time></trkpt><trkpt lat="46.1295867" lon="12.96001"><ele>148.0</ele><time>2026-03-28T13:20:12.156Z</time></trkpt><trkpt lat="46.129495" lon="12.9600483"><ele>148.0</ele><time>2026-03-28T13:20:13.156Z</time></trkpt><trkpt lat="46.1294067" lon="12.9600817"><ele>148.0</ele><time>2026-03-28T13:20:14.156Z</time></trkpt><trkpt lat="46.129315" lon="12.96011"><ele>148.0</ele><time>2026-03-28T13:20:15.157Z</time></trkpt><trkpt lat="46.1292217" lon="12.9601317"><ele>148.0</ele><time>2026-03-28T13:20:16.157Z</time></trkpt><trkpt lat="46.1291383" lon="12.9601383"><ele>148.0</ele><time>2026-03-28T13:20:17.156Z</time></trkpt><trkpt lat="46.1290383" lon="12.9601367"><ele>148.0</ele><time>2026-03-28T13:20:18.156Z</time></trkpt><trkpt lat="46.1289517" lon="12.96014"><ele>148.0</ele><time>2026-03-28T13:20:19.156Z</time></trkpt><trkpt lat="46.1288767" lon="12.9601417"><ele>148.0</ele><time>2026-03-28T13:20:20.156Z</time></trkpt><trkpt lat="46.1288033" lon="12.960145"><ele>148.16666666666669</ele><time>2026-03-28T13:20:21.156Z</time></trkpt><trkpt lat="46.128725" lon="12.96015"><ele>148.33333333333334</ele><time>2026-03-28T13:20:22.156Z</time></trkpt><trkpt lat="46.12865" lon="12.96016"><ele>148.5</ele><time>2026-03-28T13:20:23.156Z</time></trkpt><trkpt lat="46.1285717" lon="12.96017"><ele>148.66666666666666</ele><time>2026-03-28T13:20:24.156Z</time></trkpt><trkpt lat="46.1284883" lon="12.960185"><ele>148.83333333333331</ele><time>2026-03-28T13:20:25.157Z</time></trkpt><trkpt lat="46.1283933" lon="12.960205"><ele>149.0</ele><time>2026-03-28T13:20:26.157Z</time></trkpt><trkpt lat="46.1283067" lon="12.9602217"><ele>149.33333333333331</ele><time>2026-03-28T13:20:27.157Z</time></trkpt><trkpt lat="46.1282262" lon="12.960229"><ele>149.66666666666666</ele><time>2026-03-28T13:20:28.156Z</time></trkpt><trkpt lat="46.1281478" lon="12.9602382"><ele>150.0</ele><time>2026-03-28T13:20:29.156Z</time></trkpt><trkpt lat="46.1280593" lon="12.9602619"><ele>150.33333333333334</ele><time>2026-03-28T13:20:30.156Z</time></trkpt><trkpt lat="46.1279724" lon="12.9602823"><ele>150.66666666666669</ele><time>2026-03-28T13:20:31.156Z</time></trkpt><trkpt lat="46.1278859" lon="12.9602746"><ele>151.0</ele><time>2026-03-28T13:20:32.156Z</time></trkpt><trkpt lat="46.1277866" lon="12.9602452"><ele>151.0</ele><time>2026-03-28T13:20:33.157Z</time></trkpt><trkpt lat="46.1276794" lon="12.9602178"><ele>151.0</ele><time>2026-03-28T13:20:34.156Z</time></trkpt><trkpt lat="46.1275715" lon="12.9601961"><ele>151.0</ele><time>2026-03-28T13:20:35.156Z</time></trkpt><trkpt lat="46.1274606" lon="12.9601873"><ele>151.0</ele><time>2026-03-28T13:20:36.157Z</time></trkpt><trkpt lat="46.1273474" lon="12.9601957"><ele>151.0</ele><time>2026-03-28T13:20:37.156Z</time></trkpt><trkpt lat="46.1272354" lon="12.9602087"><ele>150.0</ele><time>2026-03-28T13:20:38.156Z</time></trkpt><trkpt lat="46.1271242" lon="12.9602239"><ele>149.0</ele><time>2026-03-28T13:20:39.156Z</time></trkpt><trkpt lat="46.1270158" lon="12.9602381"><ele>148.0</ele><time>2026-03-28T13:20:40.156Z</time></trkpt><trkpt lat="46.1269069" lon="12.9602499"><ele>147.0</ele><time>2026-03-28T13:20:41.157Z</time></trkpt><trkpt lat="46.1268015" lon="12.9602602"><ele>146.0</ele><time>2026-03-28T13:20:42.156Z</time></trkpt><trkpt lat="46.1266988" lon="12.9602755"><ele>146.0</ele><time>2026-03-28T13:20:43.156Z</time></trkpt><trkpt lat="46.1265925" lon="12.9602904"><ele>146.0</ele><time>2026-03-28T13:20:44.157Z</time></trkpt><trkpt lat="46.1264893" lon="12.9602981"><ele>146.0</ele><time>2026-03-28T13:20:45.157Z</time></trkpt><trkpt lat="46.1263929" lon="12.9602964"><ele>146.0</ele><time>2026-03-28T13:20:46.156Z</time></trkpt><trkpt lat="46.1262998" lon="12.9602898"><ele>146.0</ele><time>2026-03-28T13:20:47.156Z</time></trkpt><trkpt lat="46.1261875" lon="12.960275"><ele>146.25</ele><time>2026-03-28T13:20:48.156Z</time></trkpt><trkpt lat="46.1260504" lon="12.9602561"><ele>146.5</ele><time>2026-03-28T13:20:49.157Z</time></trkpt><trkpt lat="46.1259073" lon="12.9602327"><ele>146.75</ele><time>2026-03-28T13:20:50.156Z</time></trkpt><trkpt lat="46.125774" lon="12.960214"><ele>147.0</ele><time>2026-03-28T13:20:51.156Z</time></trkpt><trkpt lat="46.1256525" lon="12.9601959"><ele>146.2</ele><time>2026-03-28T13:20:52.156Z</time></trkpt><trkpt lat="46.125545" lon="12.9601796"><ele>145.39999999999998</ele><time>2026-03-28T13:20:53.156Z</time></trkpt><trkpt lat="46.1254356" lon="12.9601588"><ele>144.60000000000002</ele><time>2026-03-28T13:20:54.156Z</time></trkpt><trkpt lat="46.1253148" lon="12.9601371"><ele>143.8</ele><time>2026-03-28T13:20:55.156Z</time></trkpt><trkpt lat="46.1252096" lon="12.9601189"><ele>143.0</ele><time>2026-03-28T13:20:56.156Z</time></trkpt><trkpt lat="46.1251226" lon="12.9601048"><ele>143.0</ele><time>2026-03-28T13:20:57.156Z</time></trkpt><trkpt lat="46.1250445" lon="12.9600864"><ele>143.0</ele><time>2026-03-28T13:20:58.156Z</time></trkpt><trkpt lat="46.1249692" lon="12.9600558"><ele>143.0</ele><time>2026-03-28T13:20:59.157Z</time></trkpt><trkpt lat="46.1248976" lon="12.9600062"><ele>143.0</ele><time>2026-03-28T13:21:00.156Z</time></trkpt><trkpt lat="46.124825" lon="12.9599419"><ele>143.0</ele><time>2026-03-28T13:21:01.157Z</time></trkpt><trkpt lat="46.1247455" lon="12.9598634"><ele>143.0</ele><time>2026-03-28T13:21:02.157Z</time></trkpt><trkpt lat="46.1246616" lon="12.9597807"><ele>143.4</ele><time>2026-03-28T13:21:03.156Z</time></trkpt><trkpt lat="46.1245761" lon="12.9596955"><ele>143.8</ele><time>2026-03-28T13:21:04.156Z</time></trkpt><trkpt lat="46.1244868" lon="12.9596195"><ele>144.2</ele><time>2026-03-28T13:21:05.157Z</time></trkpt><trkpt lat="46.1243888" lon="12.9595558"><ele>144.6</ele><time>2026-03-28T13:21:06.156Z</time></trkpt><trkpt lat="46.1242812" lon="12.9594965"><ele>145.0</ele><time>2026-03-28T13:21:07.157Z</time></trkpt><trkpt lat="46.1241692" lon="12.9594301"><ele>145.0</ele><time>2026-03-28T13:21:08.157Z</time></trkpt><trkpt lat="46.1240576" lon="12.9593518"><ele>145.0</ele><time>2026-03-28T13:21:09.156Z</time></trkpt><trkpt lat="46.1239589" lon="12.9592702"><ele>145.0</ele><time>2026-03-28T13:21:10.156Z</time></trkpt><trkpt lat="46.1238663" lon="12.9591787"><ele>145.0</ele><time>2026-03-28T13:21:11.157Z</time></trkpt><trkpt lat="46.1237825" lon="12.9590646"><ele>145.0</ele><time>2026-03-28T13:21:12.156Z</time></trkpt><trkpt lat="46.1237033" lon="12.9589267"><ele>145.0</ele><time>2026-03-28T13:21:13.157Z</time></trkpt><trkpt lat="46.1236317" lon="12.9587833"><ele>145.0</ele><time>2026-03-28T13:21:14.156Z</time></trkpt><trkpt lat="46.12356" lon="12.9586483"><ele>145.0</ele><time>2026-03-28T13:21:15.156Z</time></trkpt><trkpt lat="46.1234883" lon="12.9585467"><ele>145.0</ele><time>2026-03-28T13:21:16.156Z</time></trkpt><trkpt lat="46.123405" lon="12.9584783"><ele>145.0</ele><time>2026-03-28T13:21:17.156Z</time></trkpt><trkpt lat="46.123305" lon="12.95844"><ele>145.0</ele><time>2026-03-28T13:21:18.156Z</time></trkpt><trkpt lat="46.123185" lon="12.95841"><ele>145.0</ele><time>2026-03-28T13:21:19.156Z</time></trkpt><trkpt lat="46.1230517" lon="12.95839"><ele>145.0</ele><time>2026-03-28T13:21:20.156Z</time></trkpt><trkpt lat="46.12292" lon="12.9583683"><ele>145.0</ele><time>2026-03-28T13:21:21.156Z</time></trkpt><trkpt lat="46.1227917" lon="12.95835"><ele>145.0</ele><time>2026-03-28T13:21:22.156Z</time></trkpt><trkpt lat="46.122675" lon="12.9583333"><ele>145.0</ele><time>2026-03-28T13:21:23.157Z</time></trkpt><trkpt lat="46.122565" lon="12.9583183"><ele>144.8</ele><time>2026-03-28T13:21:24.156Z</time></trkpt><trkpt lat="46.122475" lon="12.9583033"><ele>144.6</ele><time>2026-03-28T13:21:25.156Z</time></trkpt><trkpt lat="46.12241" lon="12.95828"><ele>144.4</ele><time>2026-03-28T13:21:26.157Z</time></trkpt><trkpt lat="46.1223283" lon="12.9581333"><ele>144.2</ele><time>2026-03-28T13:21:39.156Z</time></trkpt><trkpt lat="46.1222783" lon="12.9580483"><ele>144.0</ele><time>2026-03-28T13:21:40.157Z</time></trkpt><trkpt lat="46.1222" lon="12.95795"><ele>144.0</ele><time>2026-03-28T13:21:41.156Z</time></trkpt><trkpt lat="46.122105" lon="12.9578517"><ele>144.0</ele><time>2026-03-28T13:21:42.157Z</time></trkpt><trkpt lat="46.121995" lon="12.9577783"><ele>144.0</ele><time>2026-03-28T13:21:43.156Z</time></trkpt><trkpt lat="46.121885" lon="12.9577033"><ele>144.0</ele><time>2026-03-28T13:21:44.156Z</time></trkpt><trkpt lat="46.121785" lon="12.9576333"><ele>144.0</ele><time>2026-03-28T13:21:45.156Z</time></trkpt><trkpt lat="46.1216867" lon="12.957575"><ele>144.0</ele><time>2026-03-28T13:21:46.156Z</time></trkpt><trkpt lat="46.1215867" lon="12.9575317"><ele>144.0</ele><time>2026-03-28T13:21:47.156Z</time></trkpt><trkpt lat="46.121495" lon="12.957485"><ele>144.0</ele><time>2026-03-28T13:21:48.157Z</time></trkpt><trkpt lat="46.1214133" lon="12.95744"><ele>144.0</ele><time>2026-03-28T13:21:49.156Z</time></trkpt><trkpt lat="46.121345" lon="12.9573967"><ele>143.8</ele><time>2026-03-28T13:21:50.156Z</time></trkpt><trkpt lat="46.121255" lon="12.9573317"><ele>143.60000000000002</ele><time>2026-03-28T13:21:52.156Z</time></trkpt><trkpt lat="46.12116" lon="12.957285"><ele>143.4</ele><time>2026-03-28T13:21:54.156Z</time></trkpt><trkpt lat="46.1210933" lon="12.9572633"><ele>143.20000000000002</ele><time>2026-03-28T13:21:55.156Z</time></trkpt><trkpt lat="46.1210033" lon="12.95727"><ele>143.0</ele><time>2026-03-28T13:21:56.156Z</time></trkpt><trkpt lat="46.1208767" lon="12.9573"><ele>143.0</ele><time>2026-03-28T13:21:57.156Z</time></trkpt><trkpt lat="46.1207683" lon="12.9573483"><ele>143.0</ele><time>2026-03-28T13:21:58.156Z</time></trkpt><trkpt lat="46.1206583" lon="12.9574017"><ele>143.0</ele><time>2026-03-28T13:21:59.156Z</time></trkpt><trkpt lat="46.1205533" lon="12.957415"><ele>143.0</ele><time>2026-03-28T13:22:00.156Z</time></trkpt><trkpt lat="46.1204733" lon="12.9574117"><ele>143.0</ele><time>2026-03-28T13:22:01.156Z</time></trkpt><trkpt lat="46.120395" lon="12.9573817"><ele>142.83333333333331</ele><time>2026-03-28T13:22:02.156Z</time></trkpt><trkpt lat="46.1203233" lon="12.9573433"><ele>142.66666666666666</ele><time>2026-03-28T13:22:03.156Z</time></trkpt><trkpt lat="46.1202467" lon="12.9572967"><ele>142.5</ele><time>2026-03-28T13:22:04.156Z</time></trkpt><trkpt lat="46.1201833" lon="12.9572617"><ele>142.33333333333334</ele><time>2026-03-28T13:22:05.156Z</time></trkpt><trkpt lat="46.12009" lon="12.957205"><ele>142.16666666666669</ele><time>2026-03-28T13:22:07.157Z</time></trkpt><trkpt lat="46.1200283" lon="12.9571833"><ele>142.0</ele><time>2026-03-28T13:22:09.157Z</time></trkpt><trkpt lat="46.1199267" lon="12.957125"><ele>141.79999999999998</ele><time>2026-03-28T13:22:11.156Z</time></trkpt><trkpt lat="46.1198533" lon="12.95709"><ele>141.6</ele><time>2026-03-28T13:22:12.156Z</time></trkpt><trkpt lat="46.1197817" lon="12.9570467"><ele>141.39999999999998</ele><time>2026-03-28T13:22:13.157Z</time></trkpt><trkpt lat="46.1197217" lon="12.957005"><ele>141.2</ele><time>2026-03-28T13:22:14.156Z</time></trkpt><trkpt lat="46.1196417" lon="12.956895"><ele>141.0</ele><time>2026-03-28T13:22:16.156Z</time></trkpt><trkpt lat="46.1196167" lon="12.9567267"><ele>140.8</ele><time>2026-03-28T13:22:18.157Z</time></trkpt><trkpt lat="46.11962" lon="12.9565933"><ele>140.6</ele><time>2026-03-28T13:22:19.156Z</time></trkpt><trkpt lat="46.1196217" lon="12.9564417"><ele>140.4</ele><time>2026-03-28T13:22:20.156Z</time></trkpt><trkpt lat="46.11963" lon="12.9562683"><ele>140.2</ele><time>2026-03-28T13:22:21.156Z</time></trkpt><trkpt lat="46.11963" lon="12.95613"><ele>140.0</ele><time>2026-03-28T13:22:22.156Z</time></trkpt><trkpt lat="46.1196367" lon="12.9559883"><ele>140.0</ele><time>2026-03-28T13:22:23.156Z</time></trkpt><trkpt lat="46.1196367" lon="12.9558683"><ele>140.0</ele><time>2026-03-28T13:22:24.156Z</time></trkpt><trkpt lat="46.1196417" lon="12.9557583"><ele>140.0</ele><time>2026-03-28T13:22:25.157Z</time></trkpt><trkpt lat="46.1196317" lon="12.9556617"><ele>140.0</ele><time>2026-03-28T13:22:26.156Z</time></trkpt><trkpt lat="46.1196283" lon="12.95557"><ele>140.0</ele><time>2026-03-28T13:22:27.157Z</time></trkpt><trkpt lat="46.1196283" lon="12.955395"><ele>140.0</ele><time>2026-03-28T13:22:29.156Z</time></trkpt><trkpt lat="46.1196367" lon="12.955295"><ele>140.0</ele><time>2026-03-28T13:22:30.156Z</time></trkpt><trkpt lat="46.11964" lon="12.9551817"><ele>140.0</ele><time>2026-03-28T13:22:31.156Z</time></trkpt><trkpt lat="46.119625" lon="12.955075"><ele>140.0</ele><time>2026-03-28T13:22:32.157Z</time></trkpt><trkpt lat="46.119605" lon="12.954935"><ele>140.0</ele><time>2026-03-28T13:22:34.156Z</time></trkpt><trkpt lat="46.1195967" lon="12.9547867"><ele>140.0</ele><time>2026-03-28T13:22:36.156Z</time></trkpt><trkpt lat="46.119595" lon="12.9546783"><ele>140.0</ele><time>2026-03-28T13:22:37.156Z</time></trkpt><trkpt lat="46.1195983" lon="12.954585"><ele>139.66666666666666</ele><time>2026-03-28T13:22:38.157Z</time></trkpt><trkpt lat="46.1196133" lon="12.9544667"><ele>139.33333333333331</ele><time>2026-03-28T13:22:40.156Z</time></trkpt><trkpt lat="46.1196267" lon="12.954365"><ele>139.0</ele><time>2026-03-28T13:22:42.156Z</time></trkpt><trkpt lat="46.1196433" lon="12.954265"><ele>138.66666666666666</ele><time>2026-03-28T13:22:44.156Z</time></trkpt><trkpt lat="46.119645" lon="12.9541533"><ele>138.33333333333334</ele><time>2026-03-28T13:22:46.157Z</time></trkpt><trkpt lat="46.1196317" lon="12.954035"><ele>138.0</ele><time>2026-03-28T13:22:48.156Z</time></trkpt><trkpt lat="46.1196117" lon="12.95392"><ele>137.6</ele><time>2026-03-28T13:22:50.156Z</time></trkpt><trkpt lat="46.11957" lon="12.953795"><ele>137.20000000000002</ele><time>2026-03-28T13:22:52.156Z</time></trkpt><trkpt lat="46.1195267" lon="12.9536817"><ele>136.8</ele><time>2026-03-28T13:22:54.156Z</time></trkpt><trkpt lat="46.1194983" lon="12.953555"><ele>136.4</ele><time>2026-03-28T13:22:56.156Z</time></trkpt><trkpt lat="46.1194933" lon="12.9534183"><ele>136.0</ele><time>2026-03-28T13:22:58.156Z</time></trkpt><trkpt lat="46.1195083" lon="12.953275"><ele>134.6</ele><time>2026-03-28T13:23:00.156Z</time></trkpt><trkpt lat="46.1195333" lon="12.9531417"><ele>133.2</ele><time>2026-03-28T13:23:02.156Z</time></trkpt><trkpt lat="46.1195567" lon="12.953025"><ele>131.8</ele><time>2026-03-28T13:23:04.156Z</time></trkpt><trkpt lat="46.119565" lon="12.9529267"><ele>130.4</ele><time>2026-03-28T13:23:05.156Z</time></trkpt><trkpt lat="46.1195817" lon="12.952785"><ele>129.0</ele><time>2026-03-28T13:23:06.156Z</time></trkpt><trkpt lat="46.1195983" lon="12.95262"><ele>126.80000000000001</ele><time>2026-03-28T13:23:07.156Z</time></trkpt><trkpt lat="46.1196217" lon="12.952465"><ele>124.60000000000001</ele><time>2026-03-28T13:23:08.156Z</time></trkpt><trkpt lat="46.1196517" lon="12.9523167"><ele>122.4</ele><time>2026-03-28T13:23:09.156Z</time></trkpt><trkpt lat="46.1196867" lon="12.9521733"><ele>120.2</ele><time>2026-03-28T13:23:10.156Z</time></trkpt><trkpt lat="46.1197183" lon="12.9520283"><ele>118.0</ele><time>2026-03-28T13:23:11.156Z</time></trkpt><trkpt lat="46.11975" lon="12.951885"><ele>118.00000000000001</ele><time>2026-03-28T13:23:12.156Z</time></trkpt><trkpt lat="46.119775" lon="12.9517633"><ele>118.0</ele><time>2026-03-28T13:23:13.157Z</time></trkpt><trkpt lat="46.1197967" lon="12.95166"><ele>118.0</ele><time>2026-03-28T13:23:14.156Z</time></trkpt><trkpt lat="46.1198217" lon="12.9515567"><ele>118.0</ele><time>2026-03-28T13:23:15.156Z</time></trkpt><trkpt lat="46.1198417" lon="12.9514617"><ele>118.00000000000001</ele><time>2026-03-28T13:23:16.156Z</time></trkpt><trkpt lat="46.1198717" lon="12.9513717"><ele>118.0</ele><time>2026-03-28T13:23:17.157Z</time></trkpt><trkpt lat="46.119905" lon="12.9512583"><ele>116.75</ele><time>2026-03-28T13:23:18.156Z</time></trkpt><trkpt lat="46.1199433" lon="12.95111"><ele>115.5</ele><time>2026-03-28T13:23:19.156Z</time></trkpt><trkpt lat="46.1199817" lon="12.950945"><ele>114.25</ele><time>2026-03-28T13:23:20.156Z</time></trkpt><trkpt lat="46.120025" lon="12.95078"><ele>113.0</ele><time>2026-03-28T13:23:21.157Z</time></trkpt><trkpt lat="46.120065" lon="12.9506367"><ele>112.83333333333333</ele><time>2026-03-28T13:23:22.156Z</time></trkpt><trkpt lat="46.1201" lon="12.9505117"><ele>112.66666666666666</ele><time>2026-03-28T13:23:23.156Z</time></trkpt><trkpt lat="46.1201383" lon="12.9504017"><ele>112.5</ele><time>2026-03-28T13:23:24.156Z</time></trkpt><trkpt lat="46.120175" lon="12.9503033"><ele>112.33333333333334</ele><time>2026-03-28T13:23:25.156Z</time></trkpt><trkpt lat="46.1202033" lon="12.9502083"><ele>112.16666666666667</ele><time>2026-03-28T13:23:26.156Z</time></trkpt><trkpt lat="46.1202533" lon="12.9500717"><ele>112.0</ele><time>2026-03-28T13:23:28.156Z</time></trkpt><trkpt lat="46.1203017" lon="12.9499967"><ele>112.00000000000001</ele><time>2026-03-28T13:23:30.156Z</time></trkpt><trkpt lat="46.12025" lon="12.9499383"><ele>112.0</ele><time>2026-03-28T13:23:35.156Z</time></trkpt><trkpt lat="46.12021" lon="12.9500367"><ele>112.0</ele><time>2026-03-28T13:23:38.157Z</time></trkpt><trkpt lat="46.120175" lon="12.950135"><ele>112.0</ele><time>2026-03-28T13:23:40.156Z</time></trkpt><trkpt lat="46.12014" lon="12.95023"><ele>112.00000000000001</ele><time>2026-03-28T13:23:42.155Z</time></trkpt><trkpt lat="46.1201033" lon="12.9503583"><ele>112.0</ele><time>2026-03-28T13:23:44.155Z</time></trkpt><trkpt lat="46.12006" lon="12.9505217"><ele>112.0</ele><time>2026-03-28T13:23:46.155Z</time></trkpt><trkpt lat="46.12004" lon="12.9506133"><ele>112.0</ele><time>2026-03-28T13:23:47.155Z</time></trkpt><trkpt lat="46.1200183" lon="12.9507067"><ele>112.0</ele><time>2026-03-28T13:23:48.156Z</time></trkpt><trkpt lat="46.11999" lon="12.9508067"><ele>112.0</ele><time>2026-03-28T13:23:49.155Z</time></trkpt><trkpt lat="46.1199667" lon="12.9509017"><ele>112.0</ele><time>2026-03-28T13:23:50.155Z</time></trkpt><trkpt lat="46.1199417" lon="12.9509983"><ele>112.0</ele><time>2026-03-28T13:23:51.155Z</time></trkpt><trkpt lat="46.1199117" lon="12.9511067"><ele>112.0</ele><time>2026-03-28T13:23:52.155Z</time></trkpt><trkpt lat="46.119885" lon="12.9512167"><ele>111.8</ele><time>2026-03-28T13:23:53.155Z</time></trkpt><trkpt lat="46.11986" lon="12.9513083"><ele>111.6</ele><time>2026-03-28T13:23:54.155Z</time></trkpt><trkpt lat="46.1198233" lon="12.9514367"><ele>111.39999999999999</ele><time>2026-03-28T13:23:56.156Z</time></trkpt><trkpt lat="46.1198033" lon="12.9515433"><ele>111.19999999999999</ele><time>2026-03-28T13:23:58.155Z</time></trkpt><trkpt lat="46.1197817" lon="12.9516667"><ele>111.0</ele><time>2026-03-28T13:24:00.155Z</time></trkpt><trkpt lat="46.1197367" lon="12.95185"><ele>112.16666666666667</ele><time>2026-03-28T13:24:02.156Z</time></trkpt><trkpt lat="46.1197133" lon="12.9519383"><ele>113.33333333333334</ele><time>2026-03-28T13:24:03.155Z</time></trkpt><trkpt lat="46.1196733" lon="12.95205"><ele>114.5</ele><time>2026-03-28T13:24:05.156Z</time></trkpt><trkpt lat="46.1195517" lon="12.9520967"><ele>115.66666666666667</ele><time>2026-03-28T13:24:24.155Z</time></trkpt><trkpt lat="46.11948" lon="12.9521117"><ele>116.83333333333334</ele><time>2026-03-28T13:24:25.155Z</time></trkpt><trkpt lat="46.1194117" lon="12.95214"><ele>118.0</ele><time>2026-03-28T13:24:26.155Z</time></trkpt><trkpt lat="46.1193417" lon="12.9521667"><ele>118.0</ele><time>2026-03-28T13:24:27.155Z</time></trkpt><trkpt lat="46.1192667" lon="12.9521933"><ele>118.0</ele><time>2026-03-28T13:24:28.156Z</time></trkpt><trkpt lat="46.1191983" lon="12.9522183"><ele>118.0</ele><time>2026-03-28T13:24:29.155Z</time></trkpt><trkpt lat="46.1191267" lon="12.95224"><ele>118.0</ele><time>2026-03-28T13:24:30.155Z</time></trkpt><trkpt lat="46.1190567" lon="12.9522633"><ele>118.0</ele><time>2026-03-28T13:24:31.155Z</time></trkpt><trkpt lat="46.1189833" lon="12.9522883"><ele>118.0</ele><time>2026-03-28T13:24:32.155Z</time></trkpt><trkpt lat="46.1189117" lon="12.95231"><ele>118.0</ele><time>2026-03-28T13:24:33.156Z</time></trkpt><trkpt lat="46.118835" lon="12.95232"><ele>117.83333333333334</ele><time>2026-03-28T13:24:34.155Z</time></trkpt><trkpt lat="46.118755" lon="12.9523233"><ele>117.66666666666667</ele><time>2026-03-28T13:24:35.155Z</time></trkpt><trkpt lat="46.1186767" lon="12.9523133"><ele>117.5</ele><time>2026-03-28T13:24:36.156Z</time></trkpt><trkpt lat="46.1186" lon="12.9522967"><ele>117.33333333333334</ele><time>2026-03-28T13:24:37.155Z</time></trkpt><trkpt lat="46.1185217" lon="12.9522783"><ele>117.16666666666667</ele><time>2026-03-28T13:24:38.155Z</time></trkpt><trkpt lat="46.1184433" lon="12.9522533"><ele>117.0</ele><time>2026-03-28T13:24:39.156Z</time></trkpt><trkpt lat="46.1183583" lon="12.9522267"><ele>117.0</ele><time>2026-03-28T13:24:40.155Z</time></trkpt><trkpt lat="46.1182767" lon="12.9521917"><ele>117.0</ele><time>2026-03-28T13:24:41.155Z</time></trkpt><trkpt lat="46.1182" lon="12.9521517"><ele>117.0</ele><time>2026-03-28T13:24:42.155Z</time></trkpt><trkpt lat="46.1181233" lon="12.9521017"><ele>117.0</ele><time>2026-03-28T13:24:43.155Z</time></trkpt><trkpt lat="46.1180517" lon="12.952045"><ele>117.0</ele><time>2026-03-28T13:24:44.156Z</time></trkpt><trkpt lat="46.117995" lon="12.9519883"><ele>117.0</ele><time>2026-03-28T13:24:45.155Z</time></trkpt><trkpt lat="46.1179117" lon="12.9518667"><ele>116.66666666666667</ele><time>2026-03-28T13:24:47.156Z</time></trkpt><trkpt lat="46.1178733" lon="12.951785"><ele>116.33333333333334</ele><time>2026-03-28T13:24:48.156Z</time></trkpt><trkpt lat="46.1178267" lon="12.9517033"><ele>116.0</ele><time>2026-03-28T13:24:49.156Z</time></trkpt><trkpt lat="46.117765" lon="12.95164"><ele>115.66666666666667</ele><time>2026-03-28T13:24:50.155Z</time></trkpt><trkpt lat="46.11769" lon="12.9515867"><ele>115.33333333333334</ele><time>2026-03-28T13:24:51.155Z</time></trkpt><trkpt lat="46.1175983" lon="12.9515467"><ele>115.0</ele><time>2026-03-28T13:24:52.155Z</time></trkpt><trkpt lat="46.1175017" lon="12.9515017"><ele>113.8</ele><time>2026-03-28T13:24:53.155Z</time></trkpt><trkpt lat="46.1174067" lon="12.9514567"><ele>112.6</ele><time>2026-03-28T13:24:54.156Z</time></trkpt><trkpt lat="46.1173217" lon="12.95139"><ele>111.4</ele><time>2026-03-28T13:24:55.155Z</time></trkpt><trkpt lat="46.1172467" lon="12.95131"><ele>110.2</ele><time>2026-03-28T13:24:56.155Z</time></trkpt><trkpt lat="46.1171883" lon="12.9512067"><ele>109.0</ele><time>2026-03-28T13:24:57.156Z</time></trkpt><trkpt lat="46.11713" lon="12.951095"><ele>108.80000000000001</ele><time>2026-03-28T13:24:58.155Z</time></trkpt><trkpt lat="46.1170783" lon="12.9509783"><ele>108.60000000000001</ele><time>2026-03-28T13:24:59.155Z</time></trkpt><trkpt lat="46.117025" lon="12.9508533"><ele>108.4</ele><time>2026-03-28T13:25:00.155Z</time></trkpt><trkpt lat="46.1169717" lon="12.9507367"><ele>108.2</ele><time>2026-03-28T13:25:01.156Z</time></trkpt><trkpt lat="46.1169233" lon="12.950615"><ele>108.0</ele><time>2026-03-28T13:25:02.155Z</time></trkpt><trkpt lat="46.1168817" lon="12.9504933"><ele>108.0</ele><time>2026-03-28T13:25:03.155Z</time></trkpt><trkpt lat="46.11686" lon="12.9503567"><ele>108.00000000000001</ele><time>2026-03-28T13:25:04.155Z</time></trkpt><trkpt lat="46.116855" lon="12.95021"><ele>108.00000000000001</ele><time>2026-03-28T13:25:05.155Z</time></trkpt><trkpt lat="46.11686" lon="12.9500767"><ele>108.0</ele><time>2026-03-28T13:25:06.155Z</time></trkpt><trkpt lat="46.1168617" lon="12.9499617"><ele>108.0</ele><time>2026-03-28T13:25:07.155Z</time></trkpt><trkpt lat="46.1168733" lon="12.9498133"><ele>107.83333333333333</ele><time>2026-03-28T13:25:09.155Z</time></trkpt><trkpt lat="46.11688" lon="12.9497083"><ele>107.66666666666666</ele><time>2026-03-28T13:25:11.155Z</time></trkpt><trkpt lat="46.1168833" lon="12.9496"><ele>107.5</ele><time>2026-03-28T13:25:13.155Z</time></trkpt><trkpt lat="46.1168883" lon="12.9495067"><ele>107.33333333333333</ele><time>2026-03-28T13:25:14.155Z</time></trkpt><trkpt lat="46.1168933" lon="12.9493533"><ele>107.16666666666666</ele><time>2026-03-28T13:25:16.155Z</time></trkpt><trkpt lat="46.1168667" lon="12.949255"><ele>107.0</ele><time>2026-03-28T13:25:19.155Z</time></trkpt><trkpt lat="46.1167267" lon="12.9492667"><ele>107.0</ele><time>2026-03-28T13:28:14.155Z</time></trkpt><trkpt lat="46.1166167" lon="12.949275"><ele>106.99999999999999</ele><time>2026-03-28T13:28:16.155Z</time></trkpt><trkpt lat="46.11655" lon="12.9492783"><ele>106.99999999999999</ele><time>2026-03-28T13:28:17.155Z</time></trkpt><trkpt lat="46.1164617" lon="12.9492867"><ele>107.0</ele><time>2026-03-28T13:28:18.156Z</time></trkpt><trkpt lat="46.116345" lon="12.9492917"><ele>107.0</ele><time>2026-03-28T13:28:19.155Z</time></trkpt><trkpt lat="46.1162167" lon="12.9492867"><ele>107.25</ele><time>2026-03-28T13:28:20.155Z</time></trkpt><trkpt lat="46.116085" lon="12.9492833"><ele>107.5</ele><time>2026-03-28T13:28:21.155Z</time></trkpt><trkpt lat="46.115965" lon="12.949275"><ele>107.75</ele><time>2026-03-28T13:28:22.155Z</time></trkpt><trkpt lat="46.1158417" lon="12.9492833"><ele>108.0</ele><time>2026-03-28T13:28:23.155Z</time></trkpt><trkpt lat="46.1157167" lon="12.9493"><ele>108.5</ele><time>2026-03-28T13:28:24.155Z</time></trkpt><trkpt lat="46.11559" lon="12.94932"><ele>109.0</ele><time>2026-03-28T13:28:25.155Z</time></trkpt><trkpt lat="46.1154517" lon="12.9493483"><ele>109.5</ele><time>2026-03-28T13:28:26.155Z</time></trkpt><trkpt lat="46.1153083" lon="12.9493833"><ele>110.0</ele><time>2026-03-28T13:28:27.155Z</time></trkpt><trkpt lat="46.1151783" lon="12.9494083"><ele>109.99999999999999</ele><time>2026-03-28T13:28:28.155Z</time></trkpt><trkpt lat="46.115075" lon="12.9494333"><ele>110.0</ele><time>2026-03-28T13:28:29.155Z</time></trkpt><trkpt lat="46.114995" lon="12.9494517"><ele>110.0</ele><time>2026-03-28T13:28:30.155Z</time></trkpt><trkpt lat="46.1149117" lon="12.9494683"><ele>110.0</ele><time>2026-03-28T13:28:31.155Z</time></trkpt><trkpt lat="46.1148283" lon="12.9494767"><ele>109.99999999999999</ele><time>2026-03-28T13:28:32.156Z</time></trkpt><trkpt lat="46.1147417" lon="12.94948"><ele>110.0</ele><time>2026-03-28T13:28:33.155Z</time></trkpt><trkpt lat="46.1146517" lon="12.94949"><ele>110.33333333333333</ele><time>2026-03-28T13:28:34.156Z</time></trkpt><trkpt lat="46.1145683" lon="12.9494967"><ele>110.66666666666666</ele><time>2026-03-28T13:28:35.155Z</time></trkpt><trkpt lat="46.1144933" lon="12.9495"><ele>111.0</ele><time>2026-03-28T13:28:36.155Z</time></trkpt><trkpt lat="46.1144167" lon="12.9494933"><ele>111.33333333333334</ele><time>2026-03-28T13:28:37.156Z</time></trkpt><trkpt lat="46.1143367" lon="12.949475"><ele>111.66666666666667</ele><time>2026-03-28T13:28:38.155Z</time></trkpt><trkpt lat="46.1142617" lon="12.949475"><ele>112.0</ele><time>2026-03-28T13:28:39.155Z</time></trkpt><trkpt lat="46.11419" lon="12.9494867"><ele>112.00000000000001</ele><time>2026-03-28T13:28:40.156Z</time></trkpt><trkpt lat="46.114115" lon="12.9494983"><ele>112.0</ele><time>2026-03-28T13:28:41.155Z</time></trkpt><trkpt lat="46.1140383" lon="12.9495033"><ele>112.0</ele><time>2026-03-28T13:28:42.155Z</time></trkpt><trkpt lat="46.1139517" lon="12.9495067"><ele>112.0</ele><time>2026-03-28T13:28:43.155Z</time></trkpt><trkpt lat="46.11387" lon="12.9495117"><ele>112.00000000000001</ele><time>2026-03-28T13:28:44.156Z</time></trkpt><trkpt lat="46.1137883" lon="12.9495083"><ele>112.0</ele><time>2026-03-28T13:28:45.155Z</time></trkpt><trkpt lat="46.1137033" lon="12.9495033"><ele>113.25</ele><time>2026-03-28T13:28:46.155Z</time></trkpt><trkpt lat="46.1136117" lon="12.9494967"><ele>114.5</ele><time>2026-03-28T13:28:47.156Z</time></trkpt><trkpt lat="46.1135017" lon="12.94948"><ele>115.75</ele><time>2026-03-28T13:28:48.155Z</time></trkpt><trkpt lat="46.11338" lon="12.9494533"><ele>117.0</ele><time>2026-03-28T13:28:49.156Z</time></trkpt><trkpt lat="46.1132483" lon="12.9494233"><ele>116.25</ele><time>2026-03-28T13:28:50.155Z</time></trkpt><trkpt lat="46.1131217" lon="12.949395"><ele>115.5</ele><time>2026-03-28T13:28:51.155Z</time></trkpt><trkpt lat="46.1130067" lon="12.9493617"><ele>114.75</ele><time>2026-03-28T13:28:52.155Z</time></trkpt><trkpt lat="46.112895" lon="12.949325"><ele>114.0</ele><time>2026-03-28T13:28:53.156Z</time></trkpt><trkpt lat="46.1127933" lon="12.9493033"><ele>114.0</ele><time>2026-03-28T13:28:54.155Z</time></trkpt><trkpt lat="46.1127117" lon="12.9492933"><ele>114.0</ele><time>2026-03-28T13:28:55.155Z</time></trkpt><trkpt lat="46.1125967" lon="12.9493067"><ele>114.0</ele><time>2026-03-28T13:28:57.155Z</time></trkpt><trkpt lat="46.1124817" lon="12.9493617"><ele>114.0</ele><time>2026-03-28T13:28:59.155Z</time></trkpt><trkpt lat="46.1124117" lon="12.949375"><ele>114.0</ele><time>2026-03-28T13:29:00.155Z</time></trkpt><trkpt lat="46.1123417" lon="12.9493783"><ele>113.4</ele><time>2026-03-28T13:29:01.156Z</time></trkpt><trkpt lat="46.112245" lon="12.9493433"><ele>112.80000000000001</ele><time>2026-03-28T13:29:03.155Z</time></trkpt><trkpt lat="46.1121867" lon="12.949295"><ele>112.19999999999999</ele><time>2026-03-28T13:29:05.155Z</time></trkpt><trkpt lat="46.1121483" lon="12.9491933"><ele>111.6</ele><time>2026-03-28T13:29:07.155Z</time></trkpt><trkpt lat="46.1120533" lon="12.9491567"><ele>111.0</ele><time>2026-03-28T13:29:10.155Z</time></trkpt><trkpt lat="46.11195" lon="12.94913"><ele>111.0</ele><time>2026-03-28T13:29:12.155Z</time></trkpt><trkpt lat="46.1118467" lon="12.9491467"><ele>111.0</ele><time>2026-03-28T13:29:14.156Z</time></trkpt><trkpt lat="46.1117483" lon="12.9491483"><ele>111.0</ele><time>2026-03-28T13:29:16.155Z</time></trkpt><trkpt lat="46.1116433" lon="12.9490833"><ele>111.0</ele><time>2026-03-28T13:29:18.155Z</time></trkpt><trkpt lat="46.1115767" lon="12.94905"><ele>111.0</ele><time>2026-03-28T13:29:19.155Z</time></trkpt><trkpt lat="46.1114667" lon="12.94899"><ele>111.19999999999999</ele><time>2026-03-28T13:29:21.155Z</time></trkpt><trkpt lat="46.1114" lon="12.9489"><ele>111.39999999999999</ele><time>2026-03-28T13:29:23.155Z</time></trkpt><trkpt lat="46.1113233" lon="12.94877"><ele>111.6</ele><time>2026-03-28T13:29:25.155Z</time></trkpt><trkpt lat="46.111195" lon="12.9486767"><ele>111.8</ele><time>2026-03-28T13:29:27.155Z</time></trkpt><trkpt lat="46.1111283" lon="12.9486583"><ele>112.0</ele><time>2026-03-28T13:29:28.155Z</time></trkpt><trkpt lat="46.1110567" lon="12.9486483"><ele>112.0</ele><time>2026-03-28T13:29:29.155Z</time></trkpt><trkpt lat="46.110985" lon="12.94865"><ele>111.99999999999999</ele><time>2026-03-28T13:29:30.155Z</time></trkpt><trkpt lat="46.1108533" lon="12.9486517"><ele>111.99999999999999</ele><time>2026-03-28T13:29:32.155Z</time></trkpt><trkpt lat="46.11077" lon="12.94865"><ele>112.0</ele><time>2026-03-28T13:29:33.155Z</time></trkpt><trkpt lat="46.1106667" lon="12.9486567"><ele>112.0</ele><time>2026-03-28T13:29:34.155Z</time></trkpt><trkpt lat="46.1105767" lon="12.94866"><ele>111.83333333333334</ele><time>2026-03-28T13:29:35.156Z</time></trkpt><trkpt lat="46.1105067" lon="12.94867"><ele>111.66666666666667</ele><time>2026-03-28T13:29:36.155Z</time></trkpt><trkpt lat="46.1104433" lon="12.9486767"><ele>111.5</ele><time>2026-03-28T13:29:37.155Z</time></trkpt><trkpt lat="46.1103833" lon="12.948705"><ele>111.33333333333334</ele><time>2026-03-28T13:29:38.155Z</time></trkpt><trkpt lat="46.1103017" lon="12.9488367"><ele>111.16666666666667</ele><time>2026-03-28T13:29:40.155Z</time></trkpt><trkpt lat="46.1102917" lon="12.9489667"><ele>111.0</ele><time>2026-03-28T13:29:41.155Z</time></trkpt><trkpt lat="46.1102867" lon="12.9491"><ele>110.83333333333333</ele><time>2026-03-28T13:29:42.155Z</time></trkpt><trkpt lat="46.1102983" lon="12.9492383"><ele>110.66666666666666</ele><time>2026-03-28T13:29:43.155Z</time></trkpt><trkpt lat="46.11032" lon="12.949365"><ele>110.5</ele><time>2026-03-28T13:29:44.155Z</time></trkpt><trkpt lat="46.1103517" lon="12.9494817"><ele>110.33333333333333</ele><time>2026-03-28T13:29:45.155Z</time></trkpt><trkpt lat="46.110385" lon="12.9495833"><ele>110.16666666666666</ele><time>2026-03-28T13:29:46.155Z</time></trkpt><trkpt lat="46.1104267" lon="12.9496917"><ele>110.0</ele><time>2026-03-28T13:29:47.155Z</time></trkpt><trkpt lat="46.1104583" lon="12.9497933"><ele>110.0</ele><time>2026-03-28T13:29:48.155Z</time></trkpt><trkpt lat="46.1104683" lon="12.9499417"><ele>110.0</ele><time>2026-03-28T13:29:50.155Z</time></trkpt><trkpt lat="46.1104533" lon="12.9501017"><ele>110.0</ele><time>2026-03-28T13:29:52.155Z</time></trkpt><trkpt lat="46.1104083" lon="12.9502233"><ele>110.0</ele><time>2026-03-28T13:29:54.156Z</time></trkpt><trkpt lat="46.1103483" lon="12.950295"><ele>110.0</ele><time>2026-03-28T13:29:56.155Z</time></trkpt><trkpt lat="46.1102733" lon="12.9502733"><ele>109.99999999999999</ele><time>2026-03-28T13:30:03.155Z</time></trkpt><trkpt lat="46.1102567" lon="12.950185"><ele>110.0</ele><time>2026-03-28T13:30:05.156Z</time></trkpt><trkpt lat="46.1102467" lon="12.9500183"><ele>110.0</ele><time>2026-03-28T13:30:07.155Z</time></trkpt><trkpt lat="46.1102433" lon="12.9499267"><ele>110.0</ele><time>2026-03-28T13:30:08.155Z</time></trkpt><trkpt lat="46.1102467" lon="12.94977"><ele>109.99999999999999</ele><time>2026-03-28T13:30:10.155Z</time></trkpt><trkpt lat="46.1102433" lon="12.949655"><ele>110.0</ele><time>2026-03-28T13:30:12.155Z</time></trkpt><trkpt lat="46.1102033" lon="12.949565"><ele>109.99999999999999</ele><time>2026-03-28T13:30:15.155Z</time></trkpt><trkpt lat="46.11014" lon="12.94966"><ele>110.0</ele><time>2026-03-28T13:30:18.155Z</time></trkpt><trkpt lat="46.11012" lon="12.9497667"><ele>110.0</ele><time>2026-03-28T13:30:20.155Z</time></trkpt><trkpt lat="46.1101017" lon="12.9498917"><ele>110.0</ele><time>2026-03-28T13:30:22.155Z</time></trkpt><trkpt lat="46.1100783" lon="12.9500167"><ele>109.99999999999999</ele><time>2026-03-28T13:30:24.155Z</time></trkpt><trkpt lat="46.1100533" lon="12.950125"><ele>110.0</ele><time>2026-03-28T13:30:26.154Z</time></trkpt><trkpt lat="46.11" lon="12.9501867"><ele>110.2</ele><time>2026-03-28T13:30:29.154Z</time></trkpt><trkpt lat="46.1098417" lon="12.9501667"><ele>110.4</ele><time>2026-03-28T13:30:39.154Z</time></trkpt><trkpt lat="46.1097333" lon="12.95014"><ele>110.6</ele><time>2026-03-28T13:30:41.154Z</time></trkpt><trkpt lat="46.109655" lon="12.9500983"><ele>110.8</ele><time>2026-03-28T13:30:42.154Z</time></trkpt><trkpt lat="46.10957" lon="12.9500583"><ele>111.0</ele><time>2026-03-28T13:30:43.155Z</time></trkpt><trkpt lat="46.1094833" lon="12.95002"><ele>111.0</ele><time>2026-03-28T13:30:44.154Z</time></trkpt><trkpt lat="46.1094033" lon="12.9499833"><ele>111.0</ele><time>2026-03-28T13:30:45.155Z</time></trkpt><trkpt lat="46.1092783" lon="12.9499417"><ele>111.0</ele><time>2026-03-28T13:30:46.154Z</time></trkpt><trkpt lat="46.1091567" lon="12.9498833"><ele>111.0</ele><time>2026-03-28T13:30:48.154Z</time></trkpt><trkpt lat="46.1091033" lon="12.949795"><ele>111.0</ele><time>2026-03-28T13:30:50.155Z</time></trkpt><trkpt lat="46.1091133" lon="12.949695"><ele>111.0</ele><time>2026-03-28T13:30:52.154Z</time></trkpt><trkpt lat="46.109165" lon="12.9495267"><ele>111.0</ele><time>2026-03-28T13:30:54.154Z</time></trkpt><trkpt lat="46.1091933" lon="12.9494333"><ele>111.0</ele><time>2026-03-28T13:30:55.154Z</time></trkpt><trkpt lat="46.109245" lon="12.9493367"><ele>111.0</ele><time>2026-03-28T13:30:56.155Z</time></trkpt><trkpt lat="46.10928" lon="12.9492383"><ele>111.0</ele><time>2026-03-28T13:30:57.155Z</time></trkpt><trkpt lat="46.10932" lon="12.9491383"><ele>111.0</ele><time>2026-03-28T13:30:58.154Z</time></trkpt><trkpt lat="46.1093483" lon="12.94904"><ele>110.33333333333333</ele><time>2026-03-28T13:30:59.154Z</time></trkpt><trkpt lat="46.10937" lon="12.9489333"><ele>109.66666666666666</ele><time>2026-03-28T13:31:00.155Z</time></trkpt><trkpt lat="46.1094" lon="12.9488317"><ele>109.0</ele><time>2026-03-28T13:31:01.154Z</time></trkpt><trkpt lat="46.1094333" lon="12.9487417"><ele>108.33333333333333</ele><time>2026-03-28T13:31:02.155Z</time></trkpt><trkpt lat="46.109465" lon="12.9486383"><ele>107.66666666666666</ele><time>2026-03-28T13:31:03.154Z</time></trkpt><trkpt lat="46.1094983" lon="12.9485417"><ele>107.0</ele><time>2026-03-28T13:31:04.155Z</time></trkpt><trkpt lat="46.1095333" lon="12.94844"><ele>106.83333333333333</ele><time>2026-03-28T13:31:05.154Z</time></trkpt><trkpt lat="46.1095633" lon="12.9483383"><ele>106.66666666666666</ele><time>2026-03-28T13:31:06.154Z</time></trkpt><trkpt lat="46.109595" lon="12.9482417"><ele>106.5</ele><time>2026-03-28T13:31:07.154Z</time></trkpt><trkpt lat="46.1096233" lon="12.9481567"><ele>106.33333333333334</ele><time>2026-03-28T13:31:08.154Z</time></trkpt><trkpt lat="46.1096883" lon="12.9480167"><ele>106.16666666666667</ele><time>2026-03-28T13:31:10.154Z</time></trkpt><trkpt lat="46.1097283" lon="12.947905"><ele>106.0</ele><time>2026-03-28T13:31:12.154Z</time></trkpt><trkpt lat="46.10973" lon="12.9477867"><ele>106.0</ele><time>2026-03-28T13:31:15.154Z</time></trkpt><trkpt lat="46.10964" lon="12.947735"><ele>106.0</ele><time>2026-03-28T13:31:25.154Z</time></trkpt><trkpt lat="46.109515" lon="12.9476717"><ele>106.0</ele><time>2026-03-28T13:31:27.155Z</time></trkpt><trkpt lat="46.1094317" lon="12.9476483"><ele>106.0</ele><time>2026-03-28T13:31:28.154Z</time></trkpt><trkpt lat="46.109335" lon="12.94764"><ele>106.0</ele><time>2026-03-28T13:31:29.155Z</time></trkpt><trkpt lat="46.1092283" lon="12.947635"><ele>106.0</ele><time>2026-03-28T13:31:30.154Z</time></trkpt><trkpt lat="46.1091167" lon="12.9476417"><ele>106.0</ele><time>2026-03-28T13:31:31.154Z</time></trkpt><trkpt lat="46.1090133" lon="12.9476533"><ele>106.0</ele><time>2026-03-28T13:31:32.154Z</time></trkpt><trkpt lat="46.108915" lon="12.9476683"><ele>106.0</ele><time>2026-03-28T13:31:33.154Z</time></trkpt><trkpt lat="46.10882" lon="12.9476767"><ele>106.0</ele><time>2026-03-28T13:31:34.154Z</time></trkpt><trkpt lat="46.108725" lon="12.9476833"><ele>105.6</ele><time>2026-03-28T13:31:35.154Z</time></trkpt><trkpt lat="46.1086333" lon="12.9476883"><ele>105.19999999999999</ele><time>2026-03-28T13:31:36.154Z</time></trkpt><trkpt lat="46.1085432" lon="12.947691"><ele>104.80000000000001</ele><time>2026-03-28T13:31:37.155Z</time></trkpt><trkpt lat="46.1084561" lon="12.9476858"><ele>104.4</ele><time>2026-03-28T13:31:38.154Z</time></trkpt><trkpt lat="46.1083609" lon="12.947677"><ele>104.0</ele><time>2026-03-28T13:31:39.154Z</time></trkpt><trkpt lat="46.1082562" lon="12.947671"><ele>105.0</ele><time>2026-03-28T13:31:40.154Z</time></trkpt><trkpt lat="46.1081435" lon="12.9476608"><ele>106.0</ele><time>2026-03-28T13:31:41.154Z</time></trkpt><trkpt lat="46.1080262" lon="12.947642"><ele>107.0</ele><time>2026-03-28T13:31:42.154Z</time></trkpt><trkpt lat="46.1079089" lon="12.9476193"><ele>108.0</ele><time>2026-03-28T13:31:43.155Z</time></trkpt><trkpt lat="46.1077838" lon="12.9475892"><ele>108.0</ele><time>2026-03-28T13:31:44.154Z</time></trkpt><trkpt lat="46.1076616" lon="12.9475493"><ele>108.0</ele><time>2026-03-28T13:31:45.155Z</time></trkpt><trkpt lat="46.1075357" lon="12.9474976"><ele>108.0</ele><time>2026-03-28T13:31:46.154Z</time></trkpt><trkpt lat="46.1074086" lon="12.9474451"><ele>108.0</ele><time>2026-03-28T13:31:47.154Z</time></trkpt><trkpt lat="46.1072834" lon="12.947384"><ele>107.75</ele><time>2026-03-28T13:31:48.155Z</time></trkpt><trkpt lat="46.1071606" lon="12.9473178"><ele>107.5</ele><time>2026-03-28T13:31:49.155Z</time></trkpt><trkpt lat="46.1070346" lon="12.9472489"><ele>107.25</ele><time>2026-03-28T13:31:50.154Z</time></trkpt><trkpt lat="46.1069084" lon="12.9471842"><ele>107.0</ele><time>2026-03-28T13:31:51.154Z</time></trkpt><trkpt lat="46.1067777" lon="12.9471213"><ele>107.0</ele><time>2026-03-28T13:31:52.154Z</time></trkpt><trkpt lat="46.1066483" lon="12.9470568"><ele>107.0</ele><time>2026-03-28T13:31:53.155Z</time></trkpt><trkpt lat="46.1065178" lon="12.946994"><ele>107.0</ele><time>2026-03-28T13:31:54.154Z</time></trkpt><trkpt lat="46.1063962" lon="12.9469206"><ele>107.0</ele><time>2026-03-28T13:31:55.154Z</time></trkpt><trkpt lat="46.106281" lon="12.946835"><ele>107.0</ele><time>2026-03-28T13:31:56.154Z</time></trkpt><trkpt lat="46.1061696" lon="12.9467339"><ele>107.0</ele><time>2026-03-28T13:31:57.154Z</time></trkpt><trkpt lat="46.1060558" lon="12.9466202"><ele>107.0</ele><time>2026-03-28T13:31:58.155Z</time></trkpt><trkpt lat="46.1059392" lon="12.946509"><ele>107.0</ele><time>2026-03-28T13:31:59.155Z</time></trkpt><trkpt lat="46.1058202" lon="12.9464089"><ele>106.25</ele><time>2026-03-28T13:32:00.154Z</time></trkpt><trkpt lat="46.1056931" lon="12.9463205"><ele>105.5</ele><time>2026-03-28T13:32:01.154Z</time></trkpt><trkpt lat="46.1055681" lon="12.9462503"><ele>104.75</ele><time>2026-03-28T13:32:02.154Z</time></trkpt><trkpt lat="46.1054463" lon="12.9461994"><ele>104.0</ele><time>2026-03-28T13:32:03.154Z</time></trkpt><trkpt lat="46.1053208" lon="12.9461599"><ele>104.0</ele><time>2026-03-28T13:32:04.154Z</time></trkpt><trkpt lat="46.1051934" lon="12.9461178"><ele>104.0</ele><time>2026-03-28T13:32:05.154Z</time></trkpt><trkpt lat="46.1050697" lon="12.9460608"><ele>104.0</ele><time>2026-03-28T13:32:06.155Z</time></trkpt><trkpt lat="46.1049543" lon="12.9459882"><ele>104.0</ele><time>2026-03-28T13:32:07.155Z</time></trkpt><trkpt lat="46.1048381" lon="12.945913"><ele>104.0</ele><time>2026-03-28T13:32:08.155Z</time></trkpt><trkpt lat="46.1047274" lon="12.9458282"><ele>104.0</ele><time>2026-03-28T13:32:09.154Z</time></trkpt><trkpt lat="46.1046096" lon="12.9457411"><ele>104.0</ele><time>2026-03-28T13:32:10.154Z</time></trkpt><trkpt lat="46.104499" lon="12.9456475"><ele>104.0</ele><time>2026-03-28T13:32:11.155Z</time></trkpt><trkpt lat="46.10439" lon="12.9455375"><ele>104.0</ele><time>2026-03-28T13:32:12.154Z</time></trkpt><trkpt lat="46.1042918" lon="12.9454197"><ele>104.0</ele><time>2026-03-28T13:32:13.155Z</time></trkpt><trkpt lat="46.1042047" lon="12.9452904"><ele>104.0</ele><time>2026-03-28T13:32:14.154Z</time></trkpt><trkpt lat="46.1041261" lon="12.9451524"><ele>104.0</ele><time>2026-03-28T13:32:15.155Z</time></trkpt><trkpt lat="46.1040484" lon="12.945006"><ele>103.75</ele><time>2026-03-28T13:32:16.154Z</time></trkpt><trkpt lat="46.1039684" lon="12.9448698"><ele>103.5</ele><time>2026-03-28T13:32:17.154Z</time></trkpt><trkpt lat="46.1038938" lon="12.9447444"><ele>103.25</ele><time>2026-03-28T13:32:18.154Z</time></trkpt><trkpt lat="46.1038167" lon="12.944623"><ele>103.0</ele><time>2026-03-28T13:32:19.154Z</time></trkpt><trkpt lat="46.1037492" lon="12.9444965"><ele>103.0</ele><time>2026-03-28T13:32:20.154Z</time></trkpt><trkpt lat="46.103695" lon="12.94437"><ele>103.0</ele><time>2026-03-28T13:32:21.154Z</time></trkpt><trkpt lat="46.1036483" lon="12.9442367"><ele>103.0</ele><time>2026-03-28T13:32:22.155Z</time></trkpt><trkpt lat="46.1036033" lon="12.94411"><ele>103.0</ele><time>2026-03-28T13:32:23.155Z</time></trkpt><trkpt lat="46.1035567" lon="12.9439983"><ele>103.0</ele><time>2026-03-28T13:32:24.154Z</time></trkpt><trkpt lat="46.1035067" lon="12.9438983"><ele>103.0</ele><time>2026-03-28T13:32:25.155Z</time></trkpt><trkpt lat="46.1034467" lon="12.9438"><ele>103.0</ele><time>2026-03-28T13:32:26.154Z</time></trkpt><trkpt lat="46.1033817" lon="12.9437167"><ele>103.0</ele><time>2026-03-28T13:32:27.155Z</time></trkpt><trkpt lat="46.1032983" lon="12.9436467"><ele>103.0</ele><time>2026-03-28T13:32:28.154Z</time></trkpt><trkpt lat="46.1032017" lon="12.9435817"><ele>103.0</ele><time>2026-03-28T13:32:29.155Z</time></trkpt><trkpt lat="46.1031067" lon="12.94353"><ele>103.0</ele><time>2026-03-28T13:32:30.154Z</time></trkpt><trkpt lat="46.1030083" lon="12.9434833"><ele>103.0</ele><time>2026-03-28T13:32:31.154Z</time></trkpt><trkpt lat="46.1028967" lon="12.9434367"><ele>103.0</ele><time>2026-03-28T13:32:32.154Z</time></trkpt><trkpt lat="46.1027817" lon="12.94338"><ele>103.0</ele><time>2026-03-28T13:32:33.154Z</time></trkpt><trkpt lat="46.1026567" lon="12.943315"><ele>102.5</ele><time>2026-03-28T13:32:34.155Z</time></trkpt><trkpt lat="46.1025383" lon="12.9432417"><ele>102.0</ele><time>2026-03-28T13:32:35.154Z</time></trkpt><trkpt lat="46.1024267" lon="12.94315"><ele>101.5</ele><time>2026-03-28T13:32:36.154Z</time></trkpt><trkpt lat="46.1023217" lon="12.9430567"><ele>101.0</ele><time>2026-03-28T13:32:37.154Z</time></trkpt><trkpt lat="46.102215" lon="12.9429717"><ele>101.0</ele><time>2026-03-28T13:32:38.155Z</time></trkpt><trkpt lat="46.1020983" lon="12.94289"><ele>101.0</ele><time>2026-03-28T13:32:39.154Z</time></trkpt><trkpt lat="46.1019833" lon="12.9428067"><ele>101.0</ele><time>2026-03-28T13:32:40.154Z</time></trkpt><trkpt lat="46.1018733" lon="12.94274"><ele>101.0</ele><time>2026-03-28T13:32:41.155Z</time></trkpt><trkpt lat="46.1017717" lon="12.9426783"><ele>101.0</ele><time>2026-03-28T13:32:42.154Z</time></trkpt><trkpt lat="46.1016817" lon="12.9426217"><ele>101.0</ele><time>2026-03-28T13:32:43.155Z</time></trkpt><trkpt lat="46.1016" lon="12.9425617"><ele>101.0</ele><time>2026-03-28T13:32:44.154Z</time></trkpt><trkpt lat="46.101535" lon="12.9425083"><ele>101.0</ele><time>2026-03-28T13:32:45.154Z</time></trkpt><trkpt lat="46.1014433" lon="12.9424333"><ele>101.0</ele><time>2026-03-28T13:32:47.154Z</time></trkpt><trkpt lat="46.1013483" lon="12.9424"><ele>101.0</ele><time>2026-03-28T13:32:49.155Z</time></trkpt><trkpt lat="46.1012017" lon="12.9423683"><ele>101.0</ele><time>2026-03-28T13:32:51.155Z</time></trkpt><trkpt lat="46.1010933" lon="12.942355"><ele>101.0</ele><time>2026-03-28T13:32:52.155Z</time></trkpt><trkpt lat="46.10098" lon="12.942345"><ele>101.0</ele><time>2026-03-28T13:32:53.155Z</time></trkpt><trkpt lat="46.1008667" lon="12.942325"><ele>101.0</ele><time>2026-03-28T13:32:54.154Z</time></trkpt><trkpt lat="46.1007583" lon="12.9423"><ele>101.0</ele><time>2026-03-28T13:32:55.155Z</time></trkpt><trkpt lat="46.1006417" lon="12.9422583"><ele>101.0</ele><time>2026-03-28T13:32:56.154Z</time></trkpt><trkpt lat="46.1005233" lon="12.9422067"><ele>101.0</ele><time>2026-03-28T13:32:57.154Z</time></trkpt><trkpt lat="46.1004033" lon="12.9421517"><ele>100.8</ele><time>2026-03-28T13:32:58.154Z</time></trkpt><trkpt lat="46.1002867" lon="12.9421017"><ele>100.6</ele><time>2026-03-28T13:32:59.154Z</time></trkpt><trkpt lat="46.1001767" lon="12.9420467"><ele>100.4</ele><time>2026-03-28T13:33:00.154Z</time></trkpt><trkpt lat="46.1000817" lon="12.942"><ele>100.2</ele><time>2026-03-28T13:33:01.154Z</time></trkpt><trkpt lat="46.1" lon="12.9419633"><ele>100.0</ele><time>2026-03-28T13:33:02.154Z</time></trkpt><trkpt lat="46.0999017" lon="12.94191"><ele>100.0</ele><time>2026-03-28T13:33:04.154Z</time></trkpt><trkpt lat="46.099875" lon="12.9417767"><ele>100.0</ele><time>2026-03-28T13:33:07.154Z</time></trkpt><trkpt lat="46.0999133" lon="12.9415917"><ele>100.0</ele><time>2026-03-28T13:33:09.154Z</time></trkpt><trkpt lat="46.099935" lon="12.9414317"><ele>100.0</ele><time>2026-03-28T13:33:11.155Z</time></trkpt><trkpt lat="46.0999167" lon="12.94129"><ele>100.0</ele><time>2026-03-28T13:33:13.154Z</time></trkpt><trkpt lat="46.099825" lon="12.9411533"><ele>99.83333333333334</ele><time>2026-03-28T13:33:15.154Z</time></trkpt><trkpt lat="46.0997583" lon="12.9411033"><ele>99.66666666666667</ele><time>2026-03-28T13:33:16.154Z</time></trkpt><trkpt lat="46.0996933" lon="12.9410617"><ele>99.5</ele><time>2026-03-28T13:33:17.154Z</time></trkpt><trkpt lat="46.0996267" lon="12.9410217"><ele>99.33333333333334</ele><time>2026-03-28T13:33:18.154Z</time></trkpt><trkpt lat="46.0995183" lon="12.940965"><ele>99.16666666666667</ele><time>2026-03-28T13:33:20.155Z</time></trkpt><trkpt lat="46.0994533" lon="12.9409317"><ele>99.0</ele><time>2026-03-28T13:33:22.154Z</time></trkpt><trkpt lat="46.0993833" lon="12.9409083"><ele>99.0</ele><time>2026-03-28T13:33:32.154Z</time></trkpt><trkpt lat="46.09931" lon="12.94088"><ele>99.0</ele><time>2026-03-28T13:33:33.154Z</time></trkpt><trkpt lat="46.0992183" lon="12.9408433"><ele>99.0</ele><time>2026-03-28T13:33:34.154Z</time></trkpt><trkpt lat="46.09913" lon="12.9408017"><ele>99.0</ele><time>2026-03-28T13:33:35.154Z</time></trkpt><trkpt lat="46.0990383" lon="12.9407583"><ele>99.0</ele><time>2026-03-28T13:33:36.154Z</time></trkpt><trkpt lat="46.0989467" lon="12.940715"><ele>99.0</ele><time>2026-03-28T13:33:37.154Z</time></trkpt><trkpt lat="46.0988533" lon="12.9406683"><ele>99.0</ele><time>2026-03-28T13:33:38.154Z</time></trkpt><trkpt lat="46.0987683" lon="12.9406183"><ele>99.0</ele><time>2026-03-28T13:33:39.154Z</time></trkpt><trkpt lat="46.098685" lon="12.9405683"><ele>99.0</ele><time>2026-03-28T13:33:40.154Z</time></trkpt><trkpt lat="46.0986067" lon="12.9405233"><ele>99.0</ele><time>2026-03-28T13:33:41.154Z</time></trkpt><trkpt lat="46.0985383" lon="12.940485"><ele>99.0</ele><time>2026-03-28T13:33:42.154Z</time></trkpt><trkpt lat="46.09848" lon="12.94045"><ele>99.0</ele><time>2026-03-28T13:33:43.154Z</time></trkpt><trkpt lat="46.0984167" lon="12.9404233"><ele>99.0</ele><time>2026-03-28T13:33:44.154Z</time></trkpt><trkpt lat="46.0983467" lon="12.9403933"><ele>99.0</ele><time>2026-03-28T13:33:45.154Z</time></trkpt><trkpt lat="46.098265" lon="12.9403617"><ele>99.0</ele><time>2026-03-28T13:33:46.155Z</time></trkpt><trkpt lat="46.09818" lon="12.9403333"><ele>99.0</ele><time>2026-03-28T13:33:47.155Z</time></trkpt><trkpt lat="46.0980933" lon="12.9403083"><ele>99.0</ele><time>2026-03-28T13:33:48.154Z</time></trkpt><trkpt lat="46.0980183" lon="12.9402817"><ele>99.0</ele><time>2026-03-28T13:33:49.154Z</time></trkpt><trkpt lat="46.09795" lon="12.940255"><ele>99.0</ele><time>2026-03-28T13:33:50.154Z</time></trkpt><trkpt lat="46.09788" lon="12.9402167"><ele>99.0</ele><time>2026-03-28T13:33:51.154Z</time></trkpt><trkpt lat="46.0978083" lon="12.940165"><ele>99.0</ele><time>2026-03-28T13:33:52.154Z</time></trkpt><trkpt lat="46.0977333" lon="12.9400983"><ele>99.0</ele><time>2026-03-28T13:33:53.154Z</time></trkpt><trkpt lat="46.0976633" lon="12.9400383"><ele>99.0</ele><time>2026-03-28T13:33:54.154Z</time></trkpt><trkpt lat="46.0975883" lon="12.939985"><ele>99.0</ele><time>2026-03-28T13:33:55.154Z</time></trkpt><trkpt lat="46.0975" lon="12.9399417"><ele>99.0</ele><time>2026-03-28T13:33:56.154Z</time></trkpt><trkpt lat="46.0974067" lon="12.93989"><ele>99.0</ele><time>2026-03-28T13:33:57.154Z</time></trkpt><trkpt lat="46.0973167" lon="12.939845"><ele>99.0</ele><time>2026-03-28T13:33:58.154Z</time></trkpt><trkpt lat="46.0972317" lon="12.9398"><ele>99.0</ele><time>2026-03-28T13:33:59.154Z</time></trkpt><trkpt lat="46.0971417" lon="12.9397567"><ele>98.66666666666667</ele><time>2026-03-28T13:34:00.154Z</time></trkpt><trkpt lat="46.0970617" lon="12.9397167"><ele>98.33333333333334</ele><time>2026-03-28T13:34:01.155Z</time></trkpt><trkpt lat="46.0969817" lon="12.9396717"><ele>98.0</ele><time>2026-03-28T13:34:02.154Z</time></trkpt><trkpt lat="46.0969083" lon="12.9396267"><ele>97.66666666666667</ele><time>2026-03-28T13:34:03.154Z</time></trkpt><trkpt lat="46.0968383" lon="12.9395867"><ele>97.33333333333334</ele><time>2026-03-28T13:34:04.155Z</time></trkpt><trkpt lat="46.0967733" lon="12.9395567"><ele>97.0</ele><time>2026-03-28T13:34:05.154Z</time></trkpt><trkpt lat="46.0966983" lon="12.93953"><ele>97.00000000000001</ele><time>2026-03-28T13:34:06.155Z</time></trkpt><trkpt lat="46.09661" lon="12.9395183"><ele>97.0</ele><time>2026-03-28T13:34:07.155Z</time></trkpt><trkpt lat="46.09652" lon="12.939515"><ele>97.0</ele><time>2026-03-28T13:34:08.154Z</time></trkpt><trkpt lat="46.096435" lon="12.9395067"><ele>97.0</ele><time>2026-03-28T13:34:09.155Z</time></trkpt><trkpt lat="46.0963517" lon="12.9394933"><ele>97.00000000000001</ele><time>2026-03-28T13:34:10.154Z</time></trkpt><trkpt lat="46.0962683" lon="12.93948"><ele>97.0</ele><time>2026-03-28T13:34:11.154Z</time></trkpt><trkpt lat="46.0961817" lon="12.9394633"><ele>97.0</ele><time>2026-03-28T13:34:12.154Z</time></trkpt><trkpt lat="46.0960883" lon="12.9394383"><ele>97.0</ele><time>2026-03-28T13:34:13.154Z</time></trkpt><trkpt lat="46.09597" lon="12.9394033"><ele>97.0</ele><time>2026-03-28T13:34:14.155Z</time></trkpt><trkpt lat="46.0958183" lon="12.9393567"><ele>97.0</ele><time>2026-03-28T13:34:15.154Z</time></trkpt><trkpt lat="46.0956383" lon="12.9392983"><ele>97.0</ele><time>2026-03-28T13:34:16.155Z</time></trkpt><trkpt lat="46.0954633" lon="12.9392383"><ele>97.0</ele><time>2026-03-28T13:34:17.155Z</time></trkpt><trkpt lat="46.095335" lon="12.9391933"><ele>97.0</ele><time>2026-03-28T13:34:18.155Z</time></trkpt><trkpt lat="46.09524" lon="12.9391583"><ele>97.0</ele><time>2026-03-28T13:34:19.155Z</time></trkpt><trkpt lat="46.095165" lon="12.939125"><ele>97.14285714285714</ele><time>2026-03-28T13:34:20.154Z</time></trkpt><trkpt lat="46.0950967" lon="12.9390433"><ele>97.28571428571429</ele><time>2026-03-28T13:34:22.154Z</time></trkpt><trkpt lat="46.095055" lon="12.938935"><ele>97.42857142857143</ele><time>2026-03-28T13:34:24.154Z</time></trkpt><trkpt lat="46.09502" lon="12.9388583"><ele>97.57142857142857</ele><time>2026-03-28T13:34:25.154Z</time></trkpt><trkpt lat="46.0949833" lon="12.9387833"><ele>97.71428571428572</ele><time>2026-03-28T13:34:26.154Z</time></trkpt><trkpt lat="46.09494" lon="12.9387083"><ele>97.85714285714286</ele><time>2026-03-28T13:34:27.154Z</time></trkpt><trkpt lat="46.0948833" lon="12.9386433"><ele>98.0</ele><time>2026-03-28T13:34:28.155Z</time></trkpt><trkpt lat="46.09482" lon="12.9385833"><ele>97.99999999999999</ele><time>2026-03-28T13:34:29.154Z</time></trkpt><trkpt lat="46.09476" lon="12.9385233"><ele>98.0</ele><time>2026-03-28T13:34:30.154Z</time></trkpt><trkpt lat="46.09469" lon="12.9384633"><ele>98.0</ele><time>2026-03-28T13:34:31.155Z</time></trkpt><trkpt lat="46.09463" lon="12.9384167"><ele>98.0</ele><time>2026-03-28T13:34:32.155Z</time></trkpt><trkpt lat="46.0945683" lon="12.9383567"><ele>97.99999999999999</ele><time>2026-03-28T13:34:33.154Z</time></trkpt><trkpt lat="46.09451" lon="12.9383067"><ele>98.0</ele><time>2026-03-28T13:34:34.154Z</time></trkpt><trkpt lat="46.0944133" lon="12.938255"><ele>98.16666666666666</ele><time>2026-03-28T13:34:36.154Z</time></trkpt><trkpt lat="46.09433" lon="12.9382167"><ele>98.33333333333333</ele><time>2026-03-28T13:34:39.154Z</time></trkpt><trkpt lat="46.094265" lon="12.9381767"><ele>98.5</ele><time>2026-03-28T13:34:41.154Z</time></trkpt><trkpt lat="46.0941767" lon="12.9381233"><ele>98.66666666666666</ele><time>2026-03-28T13:34:43.154Z</time></trkpt><trkpt lat="46.0941017" lon="12.9380667"><ele>98.83333333333333</ele><time>2026-03-28T13:34:45.155Z</time></trkpt><trkpt lat="46.0940283" lon="12.9380283"><ele>99.0</ele><time>2026-03-28T13:34:48.155Z</time></trkpt><trkpt lat="46.093945" lon="12.9379767"><ele>99.0</ele><time>2026-03-28T13:34:51.155Z</time></trkpt><trkpt lat="46.0938817" lon="12.93796"><ele>99.0</ele><time>2026-03-28T13:34:53.154Z</time></trkpt><trkpt lat="46.0938017" lon="12.9379483"><ele>99.0</ele><time>2026-03-28T13:34:56.155Z</time></trkpt><trkpt lat="46.09373" lon="12.938"><ele>99.0</ele><time>2026-03-28T13:34:59.154Z</time></trkpt><trkpt lat="46.0936767" lon="12.9380683"><ele>99.0</ele><time>2026-03-28T13:35:01.154Z</time></trkpt><trkpt lat="46.09359" lon="12.938055"><ele>99.0</ele><time>2026-03-28T13:35:04.154Z</time></trkpt><trkpt lat="46.093465" lon="12.93799"><ele>99.0</ele><time>2026-03-28T13:35:06.154Z</time></trkpt><trkpt lat="46.093385" lon="12.9379417"><ele>99.0</ele><time>2026-03-28T13:35:07.155Z</time></trkpt><trkpt lat="46.093305" lon="12.9378817"><ele>99.0</ele><time>2026-03-28T13:35:08.154Z</time></trkpt><trkpt lat="46.09324" lon="12.9378383"><ele>99.0</ele><time>2026-03-28T13:35:09.154Z</time></trkpt><trkpt lat="46.09318" lon="12.9378083"><ele>99.0</ele><time>2026-03-28T13:35:10.154Z</time></trkpt><trkpt lat="46.0930717" lon="12.9377517"><ele>99.0</ele><time>2026-03-28T13:35:12.155Z</time></trkpt><trkpt lat="46.0929867" lon="12.9376933"><ele>98.66666666666667</ele><time>2026-03-28T13:35:14.155Z</time></trkpt><trkpt lat="46.092915" lon="12.93762"><ele>98.33333333333334</ele><time>2026-03-28T13:35:23.154Z</time></trkpt><trkpt lat="46.0928417" lon="12.9376117"><ele>98.0</ele><time>2026-03-28T13:35:25.155Z</time></trkpt><trkpt lat="46.092765" lon="12.9376367"><ele>97.66666666666667</ele><time>2026-03-28T13:35:27.154Z</time></trkpt><trkpt lat="46.0926917" lon="12.9376617"><ele>97.33333333333334</ele><time>2026-03-28T13:35:30.154Z</time></trkpt><trkpt lat="46.0925817" lon="12.9376367"><ele>97.0</ele><time>2026-03-28T13:35:33.154Z</time></trkpt><trkpt lat="46.092515" lon="12.9376017"><ele>97.19999999999999</ele><time>2026-03-28T13:35:34.154Z</time></trkpt><trkpt lat="46.0924283" lon="12.9375483"><ele>97.4</ele><time>2026-03-28T13:35:35.154Z</time></trkpt><trkpt lat="46.0923317" lon="12.9374883"><ele>97.6</ele><time>2026-03-28T13:35:36.155Z</time></trkpt><trkpt lat="46.0922333" lon="12.9374267"><ele>97.80000000000001</ele><time>2026-03-28T13:35:37.154Z</time></trkpt><trkpt lat="46.0921417" lon="12.9373617"><ele>98.0</ele><time>2026-03-28T13:35:38.154Z</time></trkpt><trkpt lat="46.0920417" lon="12.937295"><ele>97.5</ele><time>2026-03-28T13:35:39.154Z</time></trkpt><trkpt lat="46.09194" lon="12.9372233"><ele>97.0</ele><time>2026-03-28T13:35:40.154Z</time></trkpt><trkpt lat="46.091835" lon="12.9371533"><ele>96.5</ele><time>2026-03-28T13:35:41.154Z</time></trkpt><trkpt lat="46.0917333" lon="12.9370883"><ele>96.0</ele><time>2026-03-28T13:35:42.154Z</time></trkpt><trkpt lat="46.0916233" lon="12.937025"><ele>95.25</ele><time>2026-03-28T13:35:43.155Z</time></trkpt><trkpt lat="46.0915117" lon="12.9369583"><ele>94.5</ele><time>2026-03-28T13:35:44.154Z</time></trkpt><trkpt lat="46.0913933" lon="12.9368817"><ele>93.75</ele><time>2026-03-28T13:35:45.154Z</time></trkpt><trkpt lat="46.0912667" lon="12.9368083"><ele>93.0</ele><time>2026-03-28T13:35:46.154Z</time></trkpt><trkpt lat="46.0911433" lon="12.9367317"><ele>93.5</ele><time>2026-03-28T13:35:47.154Z</time></trkpt><trkpt lat="46.0910267" lon="12.9366517"><ele>94.0</ele><time>2026-03-28T13:35:48.154Z</time></trkpt><trkpt lat="46.090905" lon="12.936575"><ele>94.5</ele><time>2026-03-28T13:35:49.155Z</time></trkpt><trkpt lat="46.09078" lon="12.9365017"><ele>95.0</ele><time>2026-03-28T13:35:50.155Z</time></trkpt><trkpt lat="46.09066" lon="12.9364317"><ele>95.2</ele><time>2026-03-28T13:35:51.154Z</time></trkpt><trkpt lat="46.09055" lon="12.9363667"><ele>95.4</ele><time>2026-03-28T13:35:52.155Z</time></trkpt><trkpt lat="46.0904483" lon="12.9363083"><ele>95.6</ele><time>2026-03-28T13:35:53.154Z</time></trkpt><trkpt lat="46.0903633" lon="12.936255"><ele>95.8</ele><time>2026-03-28T13:35:54.154Z</time></trkpt><trkpt lat="46.0902933" lon="12.9362167"><ele>96.0</ele><time>2026-03-28T13:35:55.154Z</time></trkpt><trkpt lat="46.090155" lon="12.9361633"><ele>96.0</ele><time>2026-03-28T13:36:49.154Z</time></trkpt><trkpt lat="46.0902267" lon="12.9361983"><ele>96.0</ele><time>2026-03-28T13:36:55.154Z</time></trkpt><trkpt lat="46.0901267" lon="12.9361167"><ele>96.0</ele><time>2026-03-28T13:37:24.154Z</time></trkpt><trkpt lat="46.0900383" lon="12.9360617"><ele>96.0</ele><time>2026-03-28T13:37:25.154Z</time></trkpt><trkpt lat="46.0899417" lon="12.9360067"><ele>96.0</ele><time>2026-03-28T13:37:26.154Z</time></trkpt><trkpt lat="46.0898467" lon="12.9359483"><ele>95.4</ele><time>2026-03-28T13:37:27.154Z</time></trkpt><trkpt lat="46.08975" lon="12.9358833"><ele>94.8</ele><time>2026-03-28T13:37:28.154Z</time></trkpt><trkpt lat="46.089655" lon="12.9358217"><ele>94.2</ele><time>2026-03-28T13:37:29.154Z</time></trkpt><trkpt lat="46.0895617" lon="12.9357567"><ele>93.60000000000001</ele><time>2026-03-28T13:37:30.154Z</time></trkpt><trkpt lat="46.089465" lon="12.9356917"><ele>93.0</ele><time>2026-03-28T13:37:31.154Z</time></trkpt><trkpt lat="46.0893683" lon="12.93563"><ele>93.0</ele><time>2026-03-28T13:37:32.154Z</time></trkpt><trkpt lat="46.0892717" lon="12.9355633"><ele>93.0</ele><time>2026-03-28T13:37:33.154Z</time></trkpt><trkpt lat="46.0891717" lon="12.9355"><ele>93.0</ele><time>2026-03-28T13:37:34.155Z</time></trkpt><trkpt lat="46.0890667" lon="12.9354383"><ele>93.0</ele><time>2026-03-28T13:37:35.154Z</time></trkpt><trkpt lat="46.08896" lon="12.93538"><ele>93.0</ele><time>2026-03-28T13:37:36.154Z</time></trkpt><trkpt lat="46.088855" lon="12.93533"><ele>93.0</ele><time>2026-03-28T13:37:37.155Z</time></trkpt><trkpt lat="46.0887517" lon="12.9352883"><ele>93.0</ele><time>2026-03-28T13:37:38.154Z</time></trkpt><trkpt lat="46.08865" lon="12.9352483"><ele>93.0</ele><time>2026-03-28T13:37:39.154Z</time></trkpt><trkpt lat="46.0885633" lon="12.9352167"><ele>93.0</ele><time>2026-03-28T13:37:40.154Z</time></trkpt><trkpt lat="46.088475" lon="12.9351833"><ele>93.0</ele><time>2026-03-28T13:37:41.154Z</time></trkpt><trkpt lat="46.0883933" lon="12.9351533"><ele>93.0</ele><time>2026-03-28T13:37:42.155Z</time></trkpt><trkpt lat="46.08832" lon="12.935125"><ele>93.0</ele><time>2026-03-28T13:37:43.154Z</time></trkpt><trkpt lat="46.0882233" lon="12.93508"><ele>93.0</ele><time>2026-03-28T13:37:45.154Z</time></trkpt><trkpt lat="46.0881583" lon="12.93505"><ele>93.0</ele><time>2026-03-28T13:37:48.154Z</time></trkpt><trkpt lat="46.0880983" lon="12.9349983"><ele>93.0</ele><time>2026-03-28T13:37:50.155Z</time></trkpt><trkpt lat="46.0880433" lon="12.9349433"><ele>93.0</ele><time>2026-03-28T13:37:51.155Z</time></trkpt><trkpt lat="46.0879883" lon="12.93488"><ele>94.0</ele><time>2026-03-28T13:37:52.154Z</time></trkpt><trkpt lat="46.08793" lon="12.934815"><ele>95.0</ele><time>2026-03-28T13:37:53.154Z</time></trkpt><trkpt lat="46.087875" lon="12.9347517"><ele>96.0</ele><time>2026-03-28T13:37:54.155Z</time></trkpt><trkpt lat="46.0877783" lon="12.9346467"><ele>97.0</ele><time>2026-03-28T13:37:56.154Z</time></trkpt><trkpt lat="46.0877283" lon="12.934585"><ele>98.0</ele><time>2026-03-28T13:37:57.155Z</time></trkpt><trkpt lat="46.0876783" lon="12.9345283"><ele>99.0</ele><time>2026-03-28T13:37:58.154Z</time></trkpt><trkpt lat="46.087575" lon="12.9344667"><ele>99.0</ele><time>2026-03-28T13:38:00.154Z</time></trkpt><trkpt lat="46.0874717" lon="12.9344733"><ele>99.0</ele><time>2026-03-28T13:38:02.154Z</time></trkpt><trkpt lat="46.0873967" lon="12.9344767"><ele>99.0</ele><time>2026-03-28T13:38:04.155Z</time></trkpt><trkpt lat="46.0873283" lon="12.9344983"><ele>99.0</ele><time>2026-03-28T13:38:06.154Z</time></trkpt><trkpt lat="46.08725" lon="12.9345867"><ele>99.0</ele><time>2026-03-28T13:38:09.154Z</time></trkpt><trkpt lat="46.0871883" lon="12.9346383"><ele>99.0</ele><time>2026-03-28T13:38:11.155Z</time></trkpt><trkpt lat="46.0871333" lon="12.9347117"><ele>98.83333333333333</ele><time>2026-03-28T13:38:13.155Z</time></trkpt><trkpt lat="46.0870983" lon="12.93484"><ele>98.66666666666666</ele><time>2026-03-28T13:38:15.154Z</time></trkpt><trkpt lat="46.087085" lon="12.9349317"><ele>98.5</ele><time>2026-03-28T13:38:16.155Z</time></trkpt><trkpt lat="46.0870683" lon="12.9350233"><ele>98.33333333333333</ele><time>2026-03-28T13:38:17.155Z</time></trkpt><trkpt lat="46.0870267" lon="12.93519"><ele>98.16666666666666</ele><time>2026-03-28T13:38:19.154Z</time></trkpt><trkpt lat="46.08699" lon="12.93529"><ele>98.0</ele><time>2026-03-28T13:38:20.155Z</time></trkpt><trkpt lat="46.0869567" lon="12.9353683"><ele>97.99999999999999</ele><time>2026-03-28T13:38:21.154Z</time></trkpt><trkpt lat="46.0869033" lon="12.93547"><ele>98.0</ele><time>2026-03-28T13:38:23.154Z</time></trkpt><trkpt lat="46.0868417" lon="12.9355"><ele>98.0</ele><time>2026-03-28T13:38:25.154Z</time></trkpt><trkpt lat="46.086765" lon="12.9354483"><ele>98.0</ele><time>2026-03-28T13:38:27.154Z</time></trkpt><trkpt lat="46.0866583" lon="12.9353617"><ele>97.99999999999999</ele><time>2026-03-28T13:38:29.154Z</time></trkpt><trkpt lat="46.0865967" lon="12.9353167"><ele>98.0</ele><time>2026-03-28T13:38:30.154Z</time></trkpt><trkpt lat="46.0865383" lon="12.935275"><ele>98.0</ele><time>2026-03-28T13:38:31.154Z</time></trkpt><trkpt lat="46.086445" lon="12.9352183"><ele>98.0</ele><time>2026-03-28T13:38:33.154Z</time></trkpt><trkpt lat="46.0863433" lon="12.9352083"><ele>98.0</ele><time>2026-03-28T13:38:35.154Z</time></trkpt><trkpt lat="46.0862567" lon="12.9352"><ele>98.0</ele><time>2026-03-28T13:38:36.154Z</time></trkpt><trkpt lat="46.086175" lon="12.9352"><ele>98.0</ele><time>2026-03-28T13:38:37.155Z</time></trkpt><trkpt lat="46.086095" lon="12.9351967"><ele>98.0</ele><time>2026-03-28T13:38:38.154Z</time></trkpt><trkpt lat="46.08602" lon="12.9352"><ele>98.0</ele><time>2026-03-28T13:38:39.154Z</time></trkpt><trkpt lat="46.0859117" lon="12.9352333"><ele>98.0</ele><time>2026-03-28T13:38:41.154Z</time></trkpt><trkpt lat="46.0858417" lon="12.9353617"><ele>98.0</ele><time>2026-03-28T13:38:43.155Z</time></trkpt><trkpt lat="46.0858167" lon="12.9354667"><ele>98.0</ele><time>2026-03-28T13:38:44.154Z</time></trkpt><trkpt lat="46.0857967" lon="12.9355783"><ele>98.0</ele><time>2026-03-28T13:38:45.154Z</time></trkpt><trkpt lat="46.08578" lon="12.93567"><ele>98.0</ele><time>2026-03-28T13:38:46.155Z</time></trkpt><trkpt lat="46.0857317" lon="12.9358467"><ele>98.0</ele><time>2026-03-28T13:38:48.154Z</time></trkpt><trkpt lat="46.0856933" lon="12.9359433"><ele>98.0</ele><time>2026-03-28T13:38:49.154Z</time></trkpt><trkpt lat="46.08563" lon="12.9360383"><ele>98.0</ele><time>2026-03-28T13:38:50.154Z</time></trkpt><trkpt lat="46.085555" lon="12.9361283"><ele>99.99999999999999</ele><time>2026-03-28T13:38:51.154Z</time></trkpt><trkpt lat="46.08548" lon="12.9362"><ele>102.0</ele><time>2026-03-28T13:38:52.154Z</time></trkpt><trkpt lat="46.085415" lon="12.9362583"><ele>104.0</ele><time>2026-03-28T13:38:53.155Z</time></trkpt><trkpt lat="46.0853533" lon="12.9363167"><ele>106.0</ele><time>2026-03-28T13:38:54.154Z</time></trkpt><trkpt lat="46.0852967" lon="12.9363867"><ele>107.99999999999999</ele><time>2026-03-28T13:38:55.154Z</time></trkpt><trkpt lat="46.0852483" lon="12.9364733"><ele>110.0</ele><time>2026-03-28T13:38:56.154Z</time></trkpt><trkpt lat="46.0852067" lon="12.93657"><ele>109.99999999999999</ele><time>2026-03-28T13:38:57.154Z</time></trkpt><trkpt lat="46.0851783" lon="12.936665"><ele>110.0</ele><time>2026-03-28T13:38:58.154Z</time></trkpt><trkpt lat="46.0851533" lon="12.936765"><ele>110.0</ele><time>2026-03-28T13:38:59.154Z</time></trkpt><trkpt lat="46.0851267" lon="12.93686"><ele>110.0</ele><time>2026-03-28T13:39:00.154Z</time></trkpt><trkpt lat="46.0850983" lon="12.9369417"><ele>110.0</ele><time>2026-03-28T13:39:01.154Z</time></trkpt><trkpt lat="46.0850833" lon="12.937065"><ele>109.99999999999999</ele><time>2026-03-28T13:39:03.154Z</time></trkpt><trkpt lat="46.08502" lon="12.9370483"><ele>110.0</ele><time>2026-03-28T13:39:08.154Z</time></trkpt><trkpt lat="46.0850033" lon="12.93691"><ele>110.0</ele><time>2026-03-28T13:39:10.154Z</time></trkpt><trkpt lat="46.0849367" lon="12.93678"><ele>110.0</ele><time>2026-03-28T13:39:12.154Z</time></trkpt><trkpt lat="46.084885" lon="12.936685"><ele>110.0</ele><time>2026-03-28T13:39:13.154Z</time></trkpt><trkpt lat="46.0848333" lon="12.9365867"><ele>110.0</ele><time>2026-03-28T13:39:14.155Z</time></trkpt><trkpt lat="46.0847733" lon="12.93648"><ele>110.0</ele><time>2026-03-28T13:39:15.154Z</time></trkpt><trkpt lat="46.0847267" lon="12.9363817"><ele>110.0</ele><time>2026-03-28T13:39:16.155Z</time></trkpt><trkpt lat="46.08469" lon="12.9363"><ele>110.0</ele><time>2026-03-28T13:39:17.155Z</time></trkpt><trkpt lat="46.08462" lon="12.9361333"><ele>110.0</ele><time>2026-03-28T13:39:19.154Z</time></trkpt><trkpt lat="46.0845717" lon="12.9360383"><ele>110.0</ele><time>2026-03-28T13:39:20.154Z</time></trkpt><trkpt lat="46.084515" lon="12.93592"><ele>110.0</ele><time>2026-03-28T13:39:21.154Z</time></trkpt><trkpt lat="46.0844583" lon="12.9358017"><ele>108.99999999999999</ele><time>2026-03-28T13:39:22.154Z</time></trkpt><trkpt lat="46.084405" lon="12.9356883"><ele>108.0</ele><time>2026-03-28T13:39:23.155Z</time></trkpt><trkpt lat="46.0843533" lon="12.935585"><ele>107.0</ele><time>2026-03-28T13:39:24.154Z</time></trkpt><trkpt lat="46.0843033" lon="12.9354817"><ele>106.0</ele><time>2026-03-28T13:39:25.154Z</time></trkpt><trkpt lat="46.084255" lon="12.9353767"><ele>104.99999999999999</ele><time>2026-03-28T13:39:26.154Z</time></trkpt><trkpt lat="46.0841983" lon="12.935275"><ele>104.0</ele><time>2026-03-28T13:39:27.154Z</time></trkpt><trkpt lat="46.0841483" lon="12.93518"><ele>103.99999999999999</ele><time>2026-03-28T13:39:28.155Z</time></trkpt><trkpt lat="46.084105" lon="12.9350783"><ele>104.0</ele><time>2026-03-28T13:39:29.154Z</time></trkpt><trkpt lat="46.0840633" lon="12.9349733"><ele>104.0</ele><time>2026-03-28T13:39:30.154Z</time></trkpt><trkpt lat="46.08403" lon="12.934875"><ele>104.0</ele><time>2026-03-28T13:39:31.154Z</time></trkpt><trkpt lat="46.0840017" lon="12.9347633"><ele>103.99999999999999</ele><time>2026-03-28T13:39:32.154Z</time></trkpt><trkpt lat="46.0839683" lon="12.934645"><ele>104.0</ele><time>2026-03-28T13:39:33.154Z</time></trkpt><trkpt lat="46.08394" lon="12.9345183"><ele>103.0</ele><time>2026-03-28T13:39:34.154Z</time></trkpt><trkpt lat="46.083915" lon="12.9343917"><ele>102.0</ele><time>2026-03-28T13:39:35.154Z</time></trkpt><trkpt lat="46.0838917" lon="12.934255"><ele>101.0</ele><time>2026-03-28T13:39:36.154Z</time></trkpt><trkpt lat="46.0838783" lon="12.9341183"><ele>100.0</ele><time>2026-03-28T13:39:37.154Z</time></trkpt><trkpt lat="46.08387" lon="12.93398"><ele>99.0</ele><time>2026-03-28T13:39:38.155Z</time></trkpt><trkpt lat="46.0838683" lon="12.9338417"><ele>98.33333333333333</ele><time>2026-03-28T13:39:39.154Z</time></trkpt><trkpt lat="46.0838683" lon="12.93371"><ele>97.66666666666667</ele><time>2026-03-28T13:39:40.155Z</time></trkpt><trkpt lat="46.0838733" lon="12.9335833"><ele>97.0</ele><time>2026-03-28T13:39:41.154Z</time></trkpt><trkpt lat="46.0838817" lon="12.9334567"><ele>96.33333333333334</ele><time>2026-03-28T13:39:42.154Z</time></trkpt><trkpt lat="46.083895" lon="12.9333383"><ele>95.66666666666667</ele><time>2026-03-28T13:39:43.154Z</time></trkpt><trkpt lat="46.0839083" lon="12.9332283"><ele>95.0</ele><time>2026-03-28T13:39:44.154Z</time></trkpt><trkpt lat="46.0839167" lon="12.9331317"><ele>94.8</ele><time>2026-03-28T13:39:45.155Z</time></trkpt><trkpt lat="46.0839317" lon="12.933"><ele>94.6</ele><time>2026-03-28T13:39:47.154Z</time></trkpt><trkpt lat="46.083945" lon="12.9328617"><ele>94.4</ele><time>2026-03-28T13:39:57.153Z</time></trkpt><trkpt lat="46.0839767" lon="12.932695"><ele>94.2</ele><time>2026-03-28T13:39:59.153Z</time></trkpt><trkpt lat="46.0840067" lon="12.932595"><ele>94.0</ele><time>2026-03-28T13:40:00.153Z</time></trkpt><trkpt lat="46.0840417" lon="12.9324883"><ele>94.2</ele><time>2026-03-28T13:40:01.154Z</time></trkpt><trkpt lat="46.08408" lon="12.9323683"><ele>94.4</ele><time>2026-03-28T13:40:02.154Z</time></trkpt><trkpt lat="46.0841117" lon="12.9322367"><ele>94.6</ele><time>2026-03-28T13:40:03.154Z</time></trkpt><trkpt lat="46.0841417" lon="12.932095"><ele>94.8</ele><time>2026-03-28T13:40:04.153Z</time></trkpt><trkpt lat="46.0841783" lon="12.9319383"><ele>95.0</ele><time>2026-03-28T13:40:05.154Z</time></trkpt><trkpt lat="46.084235" lon="12.931755"><ele>95.33333333333334</ele><time>2026-03-28T13:40:06.153Z</time></trkpt><trkpt lat="46.0843083" lon="12.931555"><ele>95.66666666666667</ele><time>2026-03-28T13:40:07.154Z</time></trkpt><trkpt lat="46.0843783" lon="12.9313667"><ele>96.0</ele><time>2026-03-28T13:40:08.154Z</time></trkpt><trkpt lat="46.08445" lon="12.9311733"><ele>96.0</ele><time>2026-03-28T13:40:09.153Z</time></trkpt><trkpt lat="46.0845167" lon="12.9309767"><ele>96.0</ele><time>2026-03-28T13:40:10.153Z</time></trkpt><trkpt lat="46.084585" lon="12.93078"><ele>96.0</ele><time>2026-03-28T13:40:11.153Z</time></trkpt><trkpt lat="46.08464" lon="12.93059"><ele>96.0</ele><time>2026-03-28T13:40:12.153Z</time></trkpt><trkpt lat="46.0846917" lon="12.9304067"><ele>95.75</ele><time>2026-03-28T13:40:13.154Z</time></trkpt><trkpt lat="46.0847417" lon="12.9302283"><ele>95.5</ele><time>2026-03-28T13:40:14.153Z</time></trkpt><trkpt lat="46.084795" lon="12.9300417"><ele>95.25</ele><time>2026-03-28T13:40:15.154Z</time></trkpt><trkpt lat="46.0848517" lon="12.92986"><ele>95.0</ele><time>2026-03-28T13:40:16.153Z</time></trkpt><trkpt lat="46.084905" lon="12.929675"><ele>94.5</ele><time>2026-03-28T13:40:17.153Z</time></trkpt><trkpt lat="46.0849583" lon="12.9294917"><ele>94.0</ele><time>2026-03-28T13:40:18.153Z</time></trkpt><trkpt lat="46.0850117" lon="12.9293033"><ele>93.5</ele><time>2026-03-28T13:40:19.153Z</time></trkpt><trkpt lat="46.085065" lon="12.92912"><ele>93.0</ele><time>2026-03-28T13:40:20.153Z</time></trkpt><trkpt lat="46.0851233" lon="12.928935"><ele>92.5</ele><time>2026-03-28T13:40:21.154Z</time></trkpt><trkpt lat="46.0851717" lon="12.9287433"><ele>92.0</ele><time>2026-03-28T13:40:22.154Z</time></trkpt><trkpt lat="46.0852233" lon="12.9285517"><ele>91.5</ele><time>2026-03-28T13:40:23.153Z</time></trkpt><trkpt lat="46.0852783" lon="12.928355"><ele>91.0</ele><time>2026-03-28T13:40:24.153Z</time></trkpt><trkpt lat="46.0853333" lon="12.9281583"><ele>91.0</ele><time>2026-03-28T13:40:25.153Z</time></trkpt><trkpt lat="46.0853917" lon="12.9279633"><ele>91.0</ele><time>2026-03-28T13:40:26.153Z</time></trkpt><trkpt lat="46.0854467" lon="12.9277717"><ele>91.0</ele><time>2026-03-28T13:40:27.153Z</time></trkpt><trkpt lat="46.0855" lon="12.9275817"><ele>91.0</ele><time>2026-03-28T13:40:28.154Z</time></trkpt><trkpt lat="46.0855583" lon="12.9273867"><ele>91.0</ele><time>2026-03-28T13:40:29.153Z</time></trkpt><trkpt lat="46.0856133" lon="12.9271883"><ele>91.0</ele><time>2026-03-28T13:40:30.153Z</time></trkpt><trkpt lat="46.0856717" lon="12.9269817"><ele>91.0</ele><time>2026-03-28T13:40:31.153Z</time></trkpt><trkpt lat="46.0857333" lon="12.926775"><ele>90.66666666666666</ele><time>2026-03-28T13:40:32.153Z</time></trkpt><trkpt lat="46.08579" lon="12.9265733"><ele>90.33333333333333</ele><time>2026-03-28T13:40:33.153Z</time></trkpt><trkpt lat="46.0858467" lon="12.9263733"><ele>90.0</ele><time>2026-03-28T13:40:34.153Z</time></trkpt><trkpt lat="46.0859067" lon="12.9261683"><ele>90.0</ele><time>2026-03-28T13:40:35.154Z</time></trkpt><trkpt lat="46.085965" lon="12.9259667"><ele>90.0</ele><time>2026-03-28T13:40:36.154Z</time></trkpt><trkpt lat="46.086025" lon="12.9257583"><ele>90.0</ele><time>2026-03-28T13:40:37.154Z</time></trkpt><trkpt lat="46.0860833" lon="12.92555"><ele>90.0</ele><time>2026-03-28T13:40:38.153Z</time></trkpt><trkpt lat="46.086145" lon="12.92534"><ele>90.0</ele><time>2026-03-28T13:40:39.153Z</time></trkpt><trkpt lat="46.086205" lon="12.9251233"><ele>90.0</ele><time>2026-03-28T13:40:40.153Z</time></trkpt><trkpt lat="46.086265" lon="12.9249067"><ele>91.0</ele><time>2026-03-28T13:40:41.153Z</time></trkpt><trkpt lat="46.0863267" lon="12.92469"><ele>92.0</ele><time>2026-03-28T13:40:42.154Z</time></trkpt><trkpt lat="46.08639" lon="12.9244733"><ele>93.0</ele><time>2026-03-28T13:40:43.153Z</time></trkpt><trkpt lat="46.0864517" lon="12.92426"><ele>93.0</ele><time>2026-03-28T13:40:44.153Z</time></trkpt><trkpt lat="46.0865117" lon="12.9240533"><ele>93.0</ele><time>2026-03-28T13:40:45.153Z</time></trkpt><trkpt lat="46.0865717" lon="12.92384"><ele>93.0</ele><time>2026-03-28T13:40:46.153Z</time></trkpt><trkpt lat="46.086635" lon="12.9236233"><ele>93.0</ele><time>2026-03-28T13:40:47.153Z</time></trkpt><trkpt lat="46.0866983" lon="12.9234083"><ele>93.0</ele><time>2026-03-28T13:40:48.153Z</time></trkpt><trkpt lat="46.08676" lon="12.92319"><ele>93.0</ele><time>2026-03-28T13:40:49.154Z</time></trkpt><trkpt lat="46.0868217" lon="12.9229733"><ele>92.66666666666667</ele><time>2026-03-28T13:40:50.153Z</time></trkpt><trkpt lat="46.08688" lon="12.9227583"><ele>92.33333333333334</ele><time>2026-03-28T13:40:51.153Z</time></trkpt><trkpt lat="46.08694" lon="12.9225467"><ele>92.0</ele><time>2026-03-28T13:40:52.153Z</time></trkpt><trkpt lat="46.0870017" lon="12.9223267"><ele>92.33333333333334</ele><time>2026-03-28T13:40:53.153Z</time></trkpt><trkpt lat="46.0870633" lon="12.92211"><ele>92.66666666666667</ele><time>2026-03-28T13:40:54.153Z</time></trkpt><trkpt lat="46.0871267" lon="12.9218933"><ele>93.0</ele><time>2026-03-28T13:40:55.153Z</time></trkpt><trkpt lat="46.0871917" lon="12.9216717"><ele>93.0</ele><time>2026-03-28T13:40:56.153Z</time></trkpt><trkpt lat="46.0872533" lon="12.9214533"><ele>93.0</ele><time>2026-03-28T13:40:57.153Z</time></trkpt><trkpt lat="46.0873117" lon="12.92124"><ele>93.0</ele><time>2026-03-28T13:40:58.154Z</time></trkpt><trkpt lat="46.087375" lon="12.9210233"><ele>92.66666666666667</ele><time>2026-03-28T13:40:59.153Z</time></trkpt><trkpt lat="46.0874367" lon="12.92081"><ele>92.33333333333334</ele><time>2026-03-28T13:41:00.154Z</time></trkpt><trkpt lat="46.0874967" lon="12.9205867"><ele>92.0</ele><time>2026-03-28T13:41:01.154Z</time></trkpt><trkpt lat="46.0875567" lon="12.9203667"><ele>92.0</ele><time>2026-03-28T13:41:02.153Z</time></trkpt><trkpt lat="46.0876217" lon="12.9201467"><ele>92.0</ele><time>2026-03-28T13:41:03.153Z</time></trkpt><trkpt lat="46.0876833" lon="12.9199233"><ele>92.0</ele><time>2026-03-28T13:41:04.153Z</time></trkpt><trkpt lat="46.087745" lon="12.91971"><ele>92.0</ele><time>2026-03-28T13:41:05.153Z</time></trkpt><trkpt lat="46.0878083" lon="12.9194933"><ele>92.0</ele><time>2026-03-28T13:41:06.153Z</time></trkpt><trkpt lat="46.087865" lon="12.9192867"><ele>92.0</ele><time>2026-03-28T13:41:07.153Z</time></trkpt><trkpt lat="46.0879217" lon="12.9190833"><ele>92.66666666666667</ele><time>2026-03-28T13:41:08.154Z</time></trkpt><trkpt lat="46.087985" lon="12.91888"><ele>93.33333333333333</ele><time>2026-03-28T13:41:09.153Z</time></trkpt><trkpt lat="46.0880433" lon="12.9186783"><ele>94.0</ele><time>2026-03-28T13:41:10.153Z</time></trkpt><trkpt lat="46.0881033" lon="12.9184683"><ele>94.33333333333333</ele><time>2026-03-28T13:41:11.153Z</time></trkpt><trkpt lat="46.08817" lon="12.9182483"><ele>94.66666666666667</ele><time>2026-03-28T13:41:12.153Z</time></trkpt><trkpt lat="46.08823" lon="12.9180167"><ele>95.0</ele><time>2026-03-28T13:41:13.153Z</time></trkpt><trkpt lat="46.0882917" lon="12.917785"><ele>95.0</ele><time>2026-03-28T13:41:14.154Z</time></trkpt><trkpt lat="46.08836" lon="12.9175583"><ele>95.0</ele><time>2026-03-28T13:41:15.153Z</time></trkpt><trkpt lat="46.088425" lon="12.9173333"><ele>95.0</ele><time>2026-03-28T13:41:16.154Z</time></trkpt><trkpt lat="46.0884917" lon="12.9171117"><ele>95.0</ele><time>2026-03-28T13:41:17.153Z</time></trkpt><trkpt lat="46.0885517" lon="12.9168917"><ele>95.0</ele><time>2026-03-28T13:41:18.154Z</time></trkpt><trkpt lat="46.0886167" lon="12.9166667"><ele>95.0</ele><time>2026-03-28T13:41:19.153Z</time></trkpt><trkpt lat="46.0886883" lon="12.9164383"><ele>94.33333333333334</ele><time>2026-03-28T13:41:20.153Z</time></trkpt><trkpt lat="46.0887517" lon="12.9162083"><ele>93.66666666666667</ele><time>2026-03-28T13:41:21.153Z</time></trkpt><trkpt lat="46.0888133" lon="12.91598"><ele>93.0</ele><time>2026-03-28T13:41:22.154Z</time></trkpt><trkpt lat="46.088875" lon="12.915755"><ele>93.0</ele><time>2026-03-28T13:41:23.154Z</time></trkpt><trkpt lat="46.08894" lon="12.9155317"><ele>93.0</ele><time>2026-03-28T13:41:24.153Z</time></trkpt><trkpt lat="46.0890017" lon="12.9153067"><ele>93.0</ele><time>2026-03-28T13:41:25.153Z</time></trkpt><trkpt lat="46.08907" lon="12.91508"><ele>93.66666666666667</ele><time>2026-03-28T13:41:26.154Z</time></trkpt><trkpt lat="46.089135" lon="12.9148533"><ele>94.33333333333334</ele><time>2026-03-28T13:41:27.153Z</time></trkpt><trkpt lat="46.0891967" lon="12.914625"><ele>95.0</ele><time>2026-03-28T13:41:28.153Z</time></trkpt><trkpt lat="46.089265" lon="12.914395"><ele>95.0</ele><time>2026-03-28T13:41:29.153Z</time></trkpt><trkpt lat="46.0893283" lon="12.9141633"><ele>95.0</ele><time>2026-03-28T13:41:30.153Z</time></trkpt><trkpt lat="46.0893933" lon="12.9139317"><ele>95.0</ele><time>2026-03-28T13:41:31.153Z</time></trkpt><trkpt lat="46.0894567" lon="12.9137"><ele>95.0</ele><time>2026-03-28T13:41:32.153Z</time></trkpt><trkpt lat="46.089525" lon="12.9134667"><ele>95.0</ele><time>2026-03-28T13:41:33.153Z</time></trkpt><trkpt lat="46.0895917" lon="12.913235"><ele>95.0</ele><time>2026-03-28T13:41:34.154Z</time></trkpt><trkpt lat="46.08966" lon="12.913"><ele>95.0</ele><time>2026-03-28T13:41:35.154Z</time></trkpt><trkpt lat="46.0897233" lon="12.9127633"><ele>95.0</ele><time>2026-03-28T13:41:36.153Z</time></trkpt><trkpt lat="46.0897917" lon="12.91253"><ele>95.0</ele><time>2026-03-28T13:41:37.153Z</time></trkpt><trkpt lat="46.0898633" lon="12.9122983"><ele>94.66666666666667</ele><time>2026-03-28T13:41:38.154Z</time></trkpt><trkpt lat="46.089925" lon="12.9120583"><ele>94.33333333333333</ele><time>2026-03-28T13:41:39.153Z</time></trkpt><trkpt lat="46.0899883" lon="12.9118267"><ele>94.0</ele><time>2026-03-28T13:41:40.154Z</time></trkpt><trkpt lat="46.0900483" lon="12.9115967"><ele>93.75</ele><time>2026-03-28T13:41:41.153Z</time></trkpt><trkpt lat="46.0901" lon="12.9113867"><ele>93.5</ele><time>2026-03-28T13:41:42.154Z</time></trkpt><trkpt lat="46.0901483" lon="12.9111867"><ele>93.25</ele><time>2026-03-28T13:41:43.153Z</time></trkpt><trkpt lat="46.0901983" lon="12.9110017"><ele>93.0</ele><time>2026-03-28T13:41:44.153Z</time></trkpt><trkpt lat="46.0902533" lon="12.910835"><ele>92.83333333333333</ele><time>2026-03-28T13:41:45.154Z</time></trkpt><trkpt lat="46.090305" lon="12.9106967"><ele>92.66666666666667</ele><time>2026-03-28T13:41:46.153Z</time></trkpt><trkpt lat="46.0903517" lon="12.9105833"><ele>92.5</ele><time>2026-03-28T13:41:47.153Z</time></trkpt><trkpt lat="46.0903917" lon="12.91048"><ele>92.33333333333334</ele><time>2026-03-28T13:41:48.153Z</time></trkpt><trkpt lat="46.090415" lon="12.910375"><ele>92.16666666666667</ele><time>2026-03-28T13:41:49.153Z</time></trkpt><trkpt lat="46.0904217" lon="12.910265"><ele>92.0</ele><time>2026-03-28T13:41:50.153Z</time></trkpt><trkpt lat="46.0904183" lon="12.910145"><ele>92.6</ele><time>2026-03-28T13:41:51.153Z</time></trkpt><trkpt lat="46.090395" lon="12.910025"><ele>93.19999999999999</ele><time>2026-03-28T13:41:52.153Z</time></trkpt><trkpt lat="46.090355" lon="12.9099033"><ele>93.8</ele><time>2026-03-28T13:41:53.154Z</time></trkpt><trkpt lat="46.0902983" lon="12.9097667"><ele>94.4</ele><time>2026-03-28T13:41:54.153Z</time></trkpt><trkpt lat="46.0902317" lon="12.9096283"><ele>95.0</ele><time>2026-03-28T13:41:55.153Z</time></trkpt><trkpt lat="46.09016" lon="12.9094817"><ele>95.0</ele><time>2026-03-28T13:41:56.154Z</time></trkpt><trkpt lat="46.0900867" lon="12.9093317"><ele>95.0</ele><time>2026-03-28T13:41:57.153Z</time></trkpt><trkpt lat="46.09001" lon="12.9091767"><ele>95.0</ele><time>2026-03-28T13:41:58.154Z</time></trkpt><trkpt lat="46.0899367" lon="12.9090167"><ele>95.0</ele><time>2026-03-28T13:41:59.154Z</time></trkpt><trkpt lat="46.0898567" lon="12.9088517"><ele>95.0</ele><time>2026-03-28T13:42:00.153Z</time></trkpt><trkpt lat="46.0897783" lon="12.9086933"><ele>95.0</ele><time>2026-03-28T13:42:01.153Z</time></trkpt><trkpt lat="46.0896933" lon="12.90854"><ele>95.0</ele><time>2026-03-28T13:42:02.153Z</time></trkpt><trkpt lat="46.0896017" lon="12.9083983"><ele>95.0</ele><time>2026-03-28T13:42:03.153Z</time></trkpt><trkpt lat="46.089505" lon="12.9082683"><ele>95.0</ele><time>2026-03-28T13:42:04.153Z</time></trkpt><trkpt lat="46.089405" lon="12.9081517"><ele>95.0</ele><time>2026-03-28T13:42:05.153Z</time></trkpt><trkpt lat="46.0893017" lon="12.9080433"><ele>95.0</ele><time>2026-03-28T13:42:06.153Z</time></trkpt><trkpt lat="46.0891883" lon="12.9079517"><ele>95.0</ele><time>2026-03-28T13:42:07.153Z</time></trkpt><trkpt lat="46.0890817" lon="12.9078667"><ele>95.0</ele><time>2026-03-28T13:42:08.153Z</time></trkpt><trkpt lat="46.0889683" lon="12.9077817"><ele>95.0</ele><time>2026-03-28T13:42:09.153Z</time></trkpt><trkpt lat="46.0888533" lon="12.9076967"><ele>95.0</ele><time>2026-03-28T13:42:10.153Z</time></trkpt><trkpt lat="46.0887333" lon="12.9076017"><ele>95.0</ele><time>2026-03-28T13:42:11.154Z</time></trkpt><trkpt lat="46.088605" lon="12.9075"><ele>95.0</ele><time>2026-03-28T13:42:12.153Z</time></trkpt><trkpt lat="46.0884667" lon="12.9073967"><ele>95.0</ele><time>2026-03-28T13:42:13.154Z</time></trkpt><trkpt lat="46.0883233" lon="12.90728"><ele>95.0</ele><time>2026-03-28T13:42:14.153Z</time></trkpt><trkpt lat="46.0881733" lon="12.90716"><ele>94.0</ele><time>2026-03-28T13:42:15.153Z</time></trkpt><trkpt lat="46.0880183" lon="12.9070367"><ele>93.0</ele><time>2026-03-28T13:42:16.153Z</time></trkpt><trkpt lat="46.08786" lon="12.9069083"><ele>92.0</ele><time>2026-03-28T13:42:17.153Z</time></trkpt><trkpt lat="46.0877" lon="12.9067833"><ele>92.33333333333334</ele><time>2026-03-28T13:42:18.153Z</time></trkpt><trkpt lat="46.0875317" lon="12.90665"><ele>92.66666666666667</ele><time>2026-03-28T13:42:19.153Z</time></trkpt><trkpt lat="46.0873617" lon="12.9065183"><ele>93.0</ele><time>2026-03-28T13:42:20.154Z</time></trkpt><trkpt lat="46.0871883" lon="12.906385"><ele>93.0</ele><time>2026-03-28T13:42:21.153Z</time></trkpt><trkpt lat="46.087015" lon="12.906245"><ele>93.0</ele><time>2026-03-28T13:42:22.153Z</time></trkpt><trkpt lat="46.08685" lon="12.9061017"><ele>93.0</ele><time>2026-03-28T13:42:23.153Z</time></trkpt><trkpt lat="46.0866817" lon="12.9059683"><ele>93.0</ele><time>2026-03-28T13:42:24.154Z</time></trkpt><trkpt lat="46.0865117" lon="12.9058317"><ele>93.0</ele><time>2026-03-28T13:42:25.154Z</time></trkpt><trkpt lat="46.0863517" lon="12.9056967"><ele>93.0</ele><time>2026-03-28T13:42:26.153Z</time></trkpt><trkpt lat="46.086185" lon="12.905565"><ele>93.0</ele><time>2026-03-28T13:42:27.153Z</time></trkpt><trkpt lat="46.0860233" lon="12.9054333"><ele>93.0</ele><time>2026-03-28T13:42:28.153Z</time></trkpt><trkpt lat="46.085855" lon="12.9053067"><ele>93.0</ele><time>2026-03-28T13:42:29.153Z</time></trkpt><trkpt lat="46.085695" lon="12.905175"><ele>94.66666666666666</ele><time>2026-03-28T13:42:30.153Z</time></trkpt><trkpt lat="46.085525" lon="12.9050433"><ele>96.33333333333333</ele><time>2026-03-28T13:42:31.153Z</time></trkpt><trkpt lat="46.08536" lon="12.9049167"><ele>98.0</ele><time>2026-03-28T13:42:32.153Z</time></trkpt><trkpt lat="46.0852183" lon="12.9048"><ele>98.0</ele><time>2026-03-28T13:42:33.153Z</time></trkpt><trkpt lat="46.0851017" lon="12.9047033"><ele>98.0</ele><time>2026-03-28T13:42:34.154Z</time></trkpt><trkpt lat="46.0850067" lon="12.9046217"><ele>98.0</ele><time>2026-03-28T13:42:35.154Z</time></trkpt><trkpt lat="46.0849233" lon="12.9045583"><ele>98.0</ele><time>2026-03-28T13:42:36.153Z</time></trkpt><trkpt lat="46.0848383" lon="12.904495"><ele>98.0</ele><time>2026-03-28T13:42:37.153Z</time></trkpt><trkpt lat="46.0847617" lon="12.90444"><ele>97.4</ele><time>2026-03-28T13:42:38.153Z</time></trkpt><trkpt lat="46.084695" lon="12.9043967"><ele>96.80000000000001</ele><time>2026-03-28T13:42:39.153Z</time></trkpt><trkpt lat="46.0846033" lon="12.9044133"><ele>96.2</ele><time>2026-03-28T13:42:41.153Z</time></trkpt><trkpt lat="46.084525" lon="12.9045167"><ele>95.6</ele><time>2026-03-28T13:42:43.153Z</time></trkpt><trkpt lat="46.084475" lon="12.9046067"><ele>95.0</ele><time>2026-03-28T13:42:44.153Z</time></trkpt><trkpt lat="46.0844167" lon="12.90472"><ele>95.0</ele><time>2026-03-28T13:42:45.154Z</time></trkpt><trkpt lat="46.0843617" lon="12.904835"><ele>95.0</ele><time>2026-03-28T13:42:46.153Z</time></trkpt><trkpt lat="46.0843117" lon="12.9049433"><ele>95.0</ele><time>2026-03-28T13:42:47.154Z</time></trkpt><trkpt lat="46.0842617" lon="12.9050567"><ele>95.0</ele><time>2026-03-28T13:42:48.154Z</time></trkpt><trkpt lat="46.08421" lon="12.9051667"><ele>95.0</ele><time>2026-03-28T13:42:49.153Z</time></trkpt><trkpt lat="46.0841633" lon="12.9052717"><ele>94.8</ele><time>2026-03-28T13:42:50.153Z</time></trkpt><trkpt lat="46.0841233" lon="12.905365"><ele>94.6</ele><time>2026-03-28T13:42:51.153Z</time></trkpt><trkpt lat="46.0840883" lon="12.905445"><ele>94.4</ele><time>2026-03-28T13:42:52.153Z</time></trkpt><trkpt lat="46.0840033" lon="12.905545"><ele>94.2</ele><time>2026-03-28T13:42:54.153Z</time></trkpt><trkpt lat="46.0839083" lon="12.9055883"><ele>94.0</ele><time>2026-03-28T13:42:56.154Z</time></trkpt><trkpt lat="46.083812" lon="12.9056565"><ele>94.0</ele><time>2026-03-28T13:42:58.153Z</time></trkpt><trkpt lat="46.0837632" lon="12.9057903"><ele>94.0</ele><time>2026-03-28T13:43:00.153Z</time></trkpt><trkpt lat="46.0837507" lon="12.9059654"><ele>94.0</ele><time>2026-03-28T13:43:02.153Z</time></trkpt><trkpt lat="46.083741" lon="12.9060726"><ele>94.0</ele><time>2026-03-28T13:43:03.153Z</time></trkpt><trkpt lat="46.0837319" lon="12.906189"><ele>94.0</ele><time>2026-03-28T13:43:04.154Z</time></trkpt><trkpt lat="46.083718" lon="12.9063208"><ele>93.6</ele><time>2026-03-28T13:43:05.154Z</time></trkpt><trkpt lat="46.0837062" lon="12.906459"><ele>93.2</ele><time>2026-03-28T13:43:06.153Z</time></trkpt><trkpt lat="46.0836952" lon="12.9066031"><ele>92.8</ele><time>2026-03-28T13:43:07.154Z</time></trkpt><trkpt lat="46.0836876" lon="12.9067545"><ele>92.39999999999999</ele><time>2026-03-28T13:43:08.153Z</time></trkpt><trkpt lat="46.0836801" lon="12.9069031"><ele>92.0</ele><time>2026-03-28T13:43:09.153Z</time></trkpt><trkpt lat="46.0836744" lon="12.9070419"><ele>92.0</ele><time>2026-03-28T13:43:10.153Z</time></trkpt><trkpt lat="46.0836705" lon="12.9071693"><ele>92.0</ele><time>2026-03-28T13:43:11.153Z</time></trkpt><trkpt lat="46.083666" lon="12.9072873"><ele>92.0</ele><time>2026-03-28T13:43:12.153Z</time></trkpt><trkpt lat="46.0836637" lon="12.9074005"><ele>92.0</ele><time>2026-03-28T13:43:13.153Z</time></trkpt><trkpt lat="46.0836553" lon="12.9074965"><ele>92.0</ele><time>2026-03-28T13:43:14.153Z</time></trkpt><trkpt lat="46.0835969" lon="12.9076396"><ele>92.0</ele><time>2026-03-28T13:43:16.153Z</time></trkpt><trkpt lat="46.0834895" lon="12.9077035"><ele>92.0</ele><time>2026-03-28T13:43:18.153Z</time></trkpt><trkpt lat="46.0834039" lon="12.9077135"><ele>92.0</ele><time>2026-03-28T13:43:19.153Z</time></trkpt><trkpt lat="46.083294" lon="12.9077123"><ele>92.0</ele><time>2026-03-28T13:43:20.154Z</time></trkpt><trkpt lat="46.0831808" lon="12.9077085"><ele>92.0</ele><time>2026-03-28T13:43:21.153Z</time></trkpt><trkpt lat="46.0830755" lon="12.9077039"><ele>92.0</ele><time>2026-03-28T13:43:22.153Z</time></trkpt><trkpt lat="46.0829678" lon="12.9077012"><ele>91.75</ele><time>2026-03-28T13:43:23.153Z</time></trkpt><trkpt lat="46.0828576" lon="12.9077035"><ele>91.5</ele><time>2026-03-28T13:43:24.153Z</time></trkpt><trkpt lat="46.0827434" lon="12.9077055"><ele>91.25</ele><time>2026-03-28T13:43:25.154Z</time></trkpt><trkpt lat="46.0826255" lon="12.9077047"><ele>91.0</ele><time>2026-03-28T13:43:26.154Z</time></trkpt><trkpt lat="46.0825051" lon="12.9077047"><ele>91.0</ele><time>2026-03-28T13:43:27.154Z</time></trkpt><trkpt lat="46.0823781" lon="12.9077071"><ele>91.0</ele><time>2026-03-28T13:43:28.153Z</time></trkpt><trkpt lat="46.082248" lon="12.9077078"><ele>91.0</ele><time>2026-03-28T13:43:29.153Z</time></trkpt><trkpt lat="46.0821168" lon="12.907716"><ele>91.0</ele><time>2026-03-28T13:43:30.154Z</time></trkpt><trkpt lat="46.0819822" lon="12.9077275"><ele>91.0</ele><time>2026-03-28T13:43:31.153Z</time></trkpt><trkpt lat="46.0818483" lon="12.9077324"><ele>91.0</ele><time>2026-03-28T13:43:32.153Z</time></trkpt><trkpt lat="46.0817134" lon="12.9077329"><ele>91.0</ele><time>2026-03-28T13:43:33.153Z</time></trkpt><trkpt lat="46.0815772" lon="12.9077343"><ele>91.0</ele><time>2026-03-28T13:43:34.153Z</time></trkpt><trkpt lat="46.081441" lon="12.9077359"><ele>90.75</ele><time>2026-03-28T13:43:35.153Z</time></trkpt><trkpt lat="46.081304" lon="12.9077409"><ele>90.5</ele><time>2026-03-28T13:43:36.154Z</time></trkpt><trkpt lat="46.0811654" lon="12.9077482"><ele>90.25</ele><time>2026-03-28T13:43:37.153Z</time></trkpt><trkpt lat="46.0810314" lon="12.9077573"><ele>90.0</ele><time>2026-03-28T13:43:38.154Z</time></trkpt><trkpt lat="46.0808986" lon="12.9077702"><ele>90.0</ele><time>2026-03-28T13:43:39.154Z</time></trkpt><trkpt lat="46.0807662" lon="12.90778"><ele>90.0</ele><time>2026-03-28T13:43:40.153Z</time></trkpt><trkpt lat="46.0806289" lon="12.9077923"><ele>90.0</ele><time>2026-03-28T13:43:41.153Z</time></trkpt><trkpt lat="46.0804885" lon="12.9078021"><ele>90.0</ele><time>2026-03-28T13:43:42.154Z</time></trkpt><trkpt lat="46.0803441" lon="12.9078143"><ele>89.75</ele><time>2026-03-28T13:43:43.153Z</time></trkpt><trkpt lat="46.0801959" lon="12.9078216"><ele>89.5</ele><time>2026-03-28T13:43:44.153Z</time></trkpt><trkpt lat="46.0800519" lon="12.9078138"><ele>89.25</ele><time>2026-03-28T13:43:45.153Z</time></trkpt><trkpt lat="46.0799124" lon="12.9077988"><ele>89.0</ele><time>2026-03-28T13:43:46.153Z</time></trkpt><trkpt lat="46.0797753" lon="12.9078019"><ele>89.0</ele><time>2026-03-28T13:43:47.154Z</time></trkpt><trkpt lat="46.0796341" lon="12.9078197"><ele>89.0</ele><time>2026-03-28T13:43:48.153Z</time></trkpt><trkpt lat="46.0794941" lon="12.9078458"><ele>89.0</ele><time>2026-03-28T13:43:49.153Z</time></trkpt><trkpt lat="46.079357" lon="12.9078755"><ele>89.0</ele><time>2026-03-28T13:43:50.154Z</time></trkpt><trkpt lat="46.0792237" lon="12.9078965"><ele>89.0</ele><time>2026-03-28T13:43:51.154Z</time></trkpt><trkpt lat="46.0790921" lon="12.9079101"><ele>89.0</ele><time>2026-03-28T13:43:52.154Z</time></trkpt><trkpt lat="46.0789627" lon="12.9079199"><ele>89.0</ele><time>2026-03-28T13:43:53.153Z</time></trkpt><trkpt lat="46.0788411" lon="12.9079329"><ele>89.0</ele><time>2026-03-28T13:43:54.153Z</time></trkpt><trkpt lat="46.0787206" lon="12.9079503"><ele>89.0</ele><time>2026-03-28T13:43:55.153Z</time></trkpt><trkpt lat="46.0785999" lon="12.9079663"><ele>89.0</ele><time>2026-03-28T13:43:56.153Z</time></trkpt><trkpt lat="46.0784813" lon="12.9079804"><ele>89.0</ele><time>2026-03-28T13:43:57.154Z</time></trkpt><trkpt lat="46.0783706" lon="12.9079884"><ele>89.0</ele><time>2026-03-28T13:43:58.153Z</time></trkpt><trkpt lat="46.0782683" lon="12.9079984"><ele>88.75</ele><time>2026-03-28T13:43:59.153Z</time></trkpt><trkpt lat="46.0781599" lon="12.9080085"><ele>88.5</ele><time>2026-03-28T13:44:00.153Z</time></trkpt><trkpt lat="46.0780444" lon="12.9080186"><ele>88.25</ele><time>2026-03-28T13:44:01.153Z</time></trkpt><trkpt lat="46.0779272" lon="12.9080388"><ele>88.0</ele><time>2026-03-28T13:44:02.153Z</time></trkpt><trkpt lat="46.0778134" lon="12.9080624"><ele>88.0</ele><time>2026-03-28T13:44:03.153Z</time></trkpt><trkpt lat="46.0777096" lon="12.9080784"><ele>88.0</ele><time>2026-03-28T13:44:04.153Z</time></trkpt><trkpt lat="46.0776175" lon="12.908088"><ele>88.0</ele><time>2026-03-28T13:44:05.153Z</time></trkpt><trkpt lat="46.0775311" lon="12.9080962"><ele>88.0</ele><time>2026-03-28T13:44:06.153Z</time></trkpt><trkpt lat="46.077436" lon="12.9081011"><ele>88.0</ele><time>2026-03-28T13:44:07.153Z</time></trkpt><trkpt lat="46.0773411" lon="12.908111"><ele>88.0</ele><time>2026-03-28T13:44:08.153Z</time></trkpt><trkpt lat="46.0772488" lon="12.9081224"><ele>88.0</ele><time>2026-03-28T13:44:09.153Z</time></trkpt><trkpt lat="46.077153" lon="12.9081319"><ele>88.0</ele><time>2026-03-28T13:44:10.153Z</time></trkpt><trkpt lat="46.07705" lon="12.9081398"><ele>88.0</ele><time>2026-03-28T13:44:11.153Z</time></trkpt><trkpt lat="46.0769444" lon="12.9081447"><ele>88.0</ele><time>2026-03-28T13:44:12.153Z</time></trkpt><trkpt lat="46.0768462" lon="12.9081419"><ele>88.0</ele><time>2026-03-28T13:44:13.153Z</time></trkpt><trkpt lat="46.0767456" lon="12.9081398"><ele>88.0</ele><time>2026-03-28T13:44:14.153Z</time></trkpt><trkpt lat="46.0766396" lon="12.9081334"><ele>88.0</ele><time>2026-03-28T13:44:15.153Z</time></trkpt><trkpt lat="46.0765284" lon="12.9081182"><ele>88.0</ele><time>2026-03-28T13:44:16.153Z</time></trkpt><trkpt lat="46.0764105" lon="12.9080904"><ele>88.0</ele><time>2026-03-28T13:44:17.153Z</time></trkpt><trkpt lat="46.0762899" lon="12.9080485"><ele>87.75</ele><time>2026-03-28T13:44:18.153Z</time></trkpt><trkpt lat="46.0761674" lon="12.908001"><ele>87.5</ele><time>2026-03-28T13:44:19.153Z</time></trkpt><trkpt lat="46.0760431" lon="12.9079576"><ele>87.25</ele><time>2026-03-28T13:44:20.154Z</time></trkpt><trkpt lat="46.075926" lon="12.9079216"><ele>87.0</ele><time>2026-03-28T13:44:21.154Z</time></trkpt><trkpt lat="46.0758201" lon="12.9078886"><ele>87.39999999999999</ele><time>2026-03-28T13:44:22.153Z</time></trkpt><trkpt lat="46.07572" lon="12.9078556"><ele>87.8</ele><time>2026-03-28T13:44:23.153Z</time></trkpt><trkpt lat="46.0756122" lon="12.907823"><ele>88.2</ele><time>2026-03-28T13:44:24.153Z</time></trkpt><trkpt lat="46.0755022" lon="12.9077896"><ele>88.6</ele><time>2026-03-28T13:44:25.153Z</time></trkpt><trkpt lat="46.0753945" lon="12.9077531"><ele>89.0</ele><time>2026-03-28T13:44:26.153Z</time></trkpt><trkpt lat="46.0752851" lon="12.9077112"><ele>89.0</ele><time>2026-03-28T13:44:27.153Z</time></trkpt><trkpt lat="46.0751869" lon="12.9076737"><ele>89.0</ele><time>2026-03-28T13:44:28.153Z</time></trkpt><trkpt lat="46.0750888" lon="12.9076417"><ele>89.0</ele><time>2026-03-28T13:44:29.153Z</time></trkpt><trkpt lat="46.0749925" lon="12.9076081"><ele>89.0</ele><time>2026-03-28T13:44:30.153Z</time></trkpt><trkpt lat="46.0748927" lon="12.9075768"><ele>89.0</ele><time>2026-03-28T13:44:31.153Z</time></trkpt><trkpt lat="46.0747844" lon="12.9075449"><ele>89.0</ele><time>2026-03-28T13:44:32.153Z</time></trkpt><trkpt lat="46.0746754" lon="12.9075148"><ele>89.0</ele><time>2026-03-28T13:44:33.153Z</time></trkpt><trkpt lat="46.0745683" lon="12.9074814"><ele>89.0</ele><time>2026-03-28T13:44:34.153Z</time></trkpt><trkpt lat="46.074459" lon="12.907451"><ele>89.0</ele><time>2026-03-28T13:44:35.153Z</time></trkpt><trkpt lat="46.0743627" lon="12.9074285"><ele>89.0</ele><time>2026-03-28T13:44:36.153Z</time></trkpt><trkpt lat="46.0742755" lon="12.9074065"><ele>89.0</ele><time>2026-03-28T13:44:37.153Z</time></trkpt><trkpt lat="46.0741984" lon="12.9073866"><ele>89.0</ele><time>2026-03-28T13:44:38.153Z</time></trkpt><trkpt lat="46.074122" lon="12.9073668"><ele>89.0</ele><time>2026-03-28T13:44:39.153Z</time></trkpt><trkpt lat="46.0740395" lon="12.9073444"><ele>89.0</ele><time>2026-03-28T13:44:40.153Z</time></trkpt><trkpt lat="46.073953" lon="12.9073165"><ele>89.0</ele><time>2026-03-28T13:44:41.153Z</time></trkpt><trkpt lat="46.0738562" lon="12.9072901"><ele>89.0</ele><time>2026-03-28T13:44:42.153Z</time></trkpt><trkpt lat="46.0737505" lon="12.9072592"><ele>88.80000000000001</ele><time>2026-03-28T13:44:43.153Z</time></trkpt><trkpt lat="46.0736418" lon="12.9072269"><ele>88.60000000000001</ele><time>2026-03-28T13:44:44.153Z</time></trkpt><trkpt lat="46.0735352" lon="12.9071949"><ele>88.4</ele><time>2026-03-28T13:44:45.154Z</time></trkpt><trkpt lat="46.0734271" lon="12.9071699"><ele>88.2</ele><time>2026-03-28T13:44:46.153Z</time></trkpt><trkpt lat="46.073316" lon="12.9071506"><ele>88.0</ele><time>2026-03-28T13:44:47.153Z</time></trkpt><trkpt lat="46.0732054" lon="12.9071383"><ele>87.75</ele><time>2026-03-28T13:44:48.153Z</time></trkpt><trkpt lat="46.0730932" lon="12.9071304"><ele>87.5</ele><time>2026-03-28T13:44:49.153Z</time></trkpt><trkpt lat="46.0729779" lon="12.9071272"><ele>87.25</ele><time>2026-03-28T13:44:50.153Z</time></trkpt><trkpt lat="46.0728618" lon="12.9071279"><ele>87.0</ele><time>2026-03-28T13:44:51.153Z</time></trkpt><trkpt lat="46.0727463" lon="12.907127"><ele>87.0</ele><time>2026-03-28T13:44:52.153Z</time></trkpt><trkpt lat="46.0726273" lon="12.9071231"><ele>87.0</ele><time>2026-03-28T13:44:53.153Z</time></trkpt><trkpt lat="46.0725075" lon="12.9071178"><ele>87.0</ele><time>2026-03-28T13:44:54.153Z</time></trkpt><trkpt lat="46.0723926" lon="12.9071157"><ele>87.0</ele><time>2026-03-28T13:44:55.153Z</time></trkpt><trkpt lat="46.072284" lon="12.9071132"><ele>86.8</ele><time>2026-03-28T13:44:56.154Z</time></trkpt><trkpt lat="46.0721803" lon="12.9071101"><ele>86.6</ele><time>2026-03-28T13:44:57.153Z</time></trkpt><trkpt lat="46.072075" lon="12.9071025"><ele>86.39999999999999</ele><time>2026-03-28T13:44:58.154Z</time></trkpt><trkpt lat="46.0719751" lon="12.9070955"><ele>86.19999999999999</ele><time>2026-03-28T13:44:59.153Z</time></trkpt><trkpt lat="46.071872" lon="12.9070894"><ele>86.0</ele><time>2026-03-28T13:45:00.153Z</time></trkpt><trkpt lat="46.0717659" lon="12.9070847"><ele>86.0</ele><time>2026-03-28T13:45:01.153Z</time></trkpt><trkpt lat="46.0716588" lon="12.9070798"><ele>86.0</ele><time>2026-03-28T13:45:02.154Z</time></trkpt><trkpt lat="46.0715459" lon="12.90707"><ele>86.0</ele><time>2026-03-28T13:45:03.153Z</time></trkpt><trkpt lat="46.0714277" lon="12.9070612"><ele>86.0</ele><time>2026-03-28T13:45:04.153Z</time></trkpt><trkpt lat="46.0713051" lon="12.9070535"><ele>86.25</ele><time>2026-03-28T13:45:05.153Z</time></trkpt><trkpt lat="46.0711845" lon="12.9070465"><ele>86.5</ele><time>2026-03-28T13:45:06.153Z</time></trkpt><trkpt lat="46.0710667" lon="12.9070426"><ele>86.75</ele><time>2026-03-28T13:45:07.153Z</time></trkpt><trkpt lat="46.0709506" lon="12.9070435"><ele>87.0</ele><time>2026-03-28T13:45:08.154Z</time></trkpt><trkpt lat="46.070833" lon="12.9070421"><ele>86.75</ele><time>2026-03-28T13:45:09.154Z</time></trkpt><trkpt lat="46.0707174" lon="12.9070393"><ele>86.5</ele><time>2026-03-28T13:45:10.154Z</time></trkpt><trkpt lat="46.0705995" lon="12.907033"><ele>86.25</ele><time>2026-03-28T13:45:11.153Z</time></trkpt><trkpt lat="46.0704783" lon="12.9070219"><ele>86.0</ele><time>2026-03-28T13:45:12.153Z</time></trkpt><trkpt lat="46.0703567" lon="12.90701"><ele>86.0</ele><time>2026-03-28T13:45:13.154Z</time></trkpt><trkpt lat="46.0702483" lon="12.9070017"><ele>86.0</ele><time>2026-03-28T13:45:14.154Z</time></trkpt><trkpt lat="46.0701417" lon="12.907"><ele>86.0</ele><time>2026-03-28T13:45:15.153Z</time></trkpt><trkpt lat="46.0700333" lon="12.9070033"><ele>86.0</ele><time>2026-03-28T13:45:16.154Z</time></trkpt><trkpt lat="46.0699217" lon="12.907005"><ele>86.0</ele><time>2026-03-28T13:45:17.154Z</time></trkpt><trkpt lat="46.0698083" lon="12.9070083"><ele>85.6</ele><time>2026-03-28T13:45:18.154Z</time></trkpt><trkpt lat="46.06969" lon="12.9070067"><ele>85.19999999999999</ele><time>2026-03-28T13:45:19.153Z</time></trkpt><trkpt lat="46.0695783" lon="12.9070017"><ele>84.80000000000001</ele><time>2026-03-28T13:45:20.153Z</time></trkpt><trkpt lat="46.06947" lon="12.9069967"><ele>84.4</ele><time>2026-03-28T13:45:21.153Z</time></trkpt><trkpt lat="46.0693633" lon="12.9070017"><ele>84.0</ele><time>2026-03-28T13:45:22.154Z</time></trkpt><trkpt lat="46.06925" lon="12.9070017"><ele>84.0</ele><time>2026-03-28T13:45:23.153Z</time></trkpt><trkpt lat="46.0691367" lon="12.907"><ele>84.0</ele><time>2026-03-28T13:45:24.153Z</time></trkpt><trkpt lat="46.069025" lon="12.9070033"><ele>84.0</ele><time>2026-03-28T13:45:25.153Z</time></trkpt><trkpt lat="46.0689033" lon="12.9069983"><ele>84.0</ele><time>2026-03-28T13:45:26.153Z</time></trkpt><trkpt lat="46.0687917" lon="12.9069883"><ele>84.4</ele><time>2026-03-28T13:45:27.153Z</time></trkpt><trkpt lat="46.0686883" lon="12.9069817"><ele>84.80000000000001</ele><time>2026-03-28T13:45:28.153Z</time></trkpt><trkpt lat="46.0685833" lon="12.9069833"><ele>85.19999999999999</ele><time>2026-03-28T13:45:29.153Z</time></trkpt><trkpt lat="46.0684683" lon="12.9069817"><ele>85.6</ele><time>2026-03-28T13:45:30.154Z</time></trkpt><trkpt lat="46.0683483" lon="12.906965"><ele>86.0</ele><time>2026-03-28T13:45:31.154Z</time></trkpt><trkpt lat="46.0682283" lon="12.9069517"><ele>86.19999999999999</ele><time>2026-03-28T13:45:32.153Z</time></trkpt><trkpt lat="46.0681067" lon="12.9069383"><ele>86.39999999999999</ele><time>2026-03-28T13:45:33.154Z</time></trkpt><trkpt lat="46.06799" lon="12.90693"><ele>86.6</ele><time>2026-03-28T13:45:34.153Z</time></trkpt><trkpt lat="46.067885" lon="12.9069233"><ele>86.8</ele><time>2026-03-28T13:45:35.153Z</time></trkpt><trkpt lat="46.0677867" lon="12.906915"><ele>87.0</ele><time>2026-03-28T13:45:36.153Z</time></trkpt><trkpt lat="46.0676983" lon="12.9069117"><ele>87.0</ele><time>2026-03-28T13:45:37.154Z</time></trkpt><trkpt lat="46.0676167" lon="12.9069067"><ele>87.0</ele><time>2026-03-28T13:45:38.154Z</time></trkpt><trkpt lat="46.06754" lon="12.9069017"><ele>87.0</ele><time>2026-03-28T13:45:39.154Z</time></trkpt><trkpt lat="46.0674633" lon="12.9068917"><ele>87.0</ele><time>2026-03-28T13:45:40.153Z</time></trkpt><trkpt lat="46.0673933" lon="12.9068833"><ele>87.0</ele><time>2026-03-28T13:45:41.153Z</time></trkpt><trkpt lat="46.0673233" lon="12.9068683"><ele>87.0</ele><time>2026-03-28T13:45:42.153Z</time></trkpt><trkpt lat="46.0672533" lon="12.9068617"><ele>87.0</ele><time>2026-03-28T13:45:43.153Z</time></trkpt><trkpt lat="46.06718" lon="12.9068567"><ele>87.0</ele><time>2026-03-28T13:45:44.153Z</time></trkpt><trkpt lat="46.067105" lon="12.9068517"><ele>87.0</ele><time>2026-03-28T13:45:45.154Z</time></trkpt><trkpt lat="46.0670267" lon="12.9068467"><ele>87.0</ele><time>2026-03-28T13:45:46.153Z</time></trkpt><trkpt lat="46.0669533" lon="12.906855"><ele>87.0</ele><time>2026-03-28T13:45:47.153Z</time></trkpt><trkpt lat="46.0668833" lon="12.9068567"><ele>87.0</ele><time>2026-03-28T13:45:48.154Z</time></trkpt><trkpt lat="46.0668133" lon="12.9068483"><ele>87.0</ele><time>2026-03-28T13:45:49.153Z</time></trkpt><trkpt lat="46.0667467" lon="12.906835"><ele>87.0</ele><time>2026-03-28T13:45:50.153Z</time></trkpt><trkpt lat="46.0666767" lon="12.9068283"><ele>86.6</ele><time>2026-03-28T13:45:51.153Z</time></trkpt><trkpt lat="46.0666083" lon="12.9068267"><ele>86.19999999999999</ele><time>2026-03-28T13:45:52.153Z</time></trkpt><trkpt lat="46.0664783" lon="12.9068283"><ele>85.8</ele><time>2026-03-28T13:45:54.153Z</time></trkpt><trkpt lat="46.06641" lon="12.9068217"><ele>85.4</ele><time>2026-03-28T13:45:55.153Z</time></trkpt><trkpt lat="46.0663467" lon="12.9068167"><ele>85.0</ele><time>2026-03-28T13:45:56.153Z</time></trkpt><trkpt lat="46.066225" lon="12.9068183"><ele>85.0</ele><time>2026-03-28T13:45:58.153Z</time></trkpt><trkpt lat="46.06616" lon="12.90681"><ele>85.0</ele><time>2026-03-28T13:45:59.153Z</time></trkpt><trkpt lat="46.06609" lon="12.9067967"><ele>85.0</ele><time>2026-03-28T13:46:00.153Z</time></trkpt><trkpt lat="46.06602" lon="12.9067933"><ele>85.0</ele><time>2026-03-28T13:46:01.153Z</time></trkpt><trkpt lat="46.0659433" lon="12.9067883"><ele>85.0</ele><time>2026-03-28T13:46:02.153Z</time></trkpt><trkpt lat="46.06587" lon="12.9067883"><ele>85.0</ele><time>2026-03-28T13:46:03.154Z</time></trkpt><trkpt lat="46.0657967" lon="12.906785"><ele>85.0</ele><time>2026-03-28T13:46:04.153Z</time></trkpt><trkpt lat="46.0657283" lon="12.9067783"><ele>84.66666666666666</ele><time>2026-03-28T13:46:05.153Z</time></trkpt><trkpt lat="46.0656183" lon="12.9067667"><ele>84.33333333333333</ele><time>2026-03-28T13:46:07.154Z</time></trkpt><trkpt lat="46.065535" lon="12.9067333"><ele>84.0</ele><time>2026-03-28T13:46:09.154Z</time></trkpt><trkpt lat="46.0654983" lon="12.9066567"><ele>83.66666666666667</ele><time>2026-03-28T13:46:11.153Z</time></trkpt><trkpt lat="46.06553" lon="12.9065667"><ele>83.33333333333334</ele><time>2026-03-28T13:46:13.154Z</time></trkpt><trkpt lat="46.0655767" lon="12.9064683"><ele>83.0</ele><time>2026-03-28T13:46:15.153Z</time></trkpt><trkpt lat="46.06549" lon="12.90647"><ele>83.0</ele><time>2026-03-28T13:46:19.153Z</time></trkpt><trkpt lat="46.06545" lon="12.9065467"><ele>83.0</ele><time>2026-03-28T13:46:21.153Z</time></trkpt><trkpt lat="46.0654067" lon="12.9066167"><ele>83.0</ele><time>2026-03-28T13:46:23.153Z</time></trkpt><trkpt lat="46.0653417" lon="12.906715"><ele>83.0</ele><time>2026-03-28T13:46:26.153Z</time></trkpt><trkpt lat="46.0652867" lon="12.9067917"><ele>83.0</ele><time>2026-03-28T13:46:28.153Z</time></trkpt><trkpt lat="46.0652133" lon="12.9068617"><ele>83.0</ele><time>2026-03-28T13:46:31.153Z</time></trkpt><trkpt lat="46.0651417" lon="12.9068467"><ele>83.0</ele><time>2026-03-28T13:46:40.154Z</time></trkpt><trkpt lat="46.0650917" lon="12.906775"><ele>83.0</ele><time>2026-03-28T13:46:43.153Z</time></trkpt><trkpt lat="46.0650717" lon="12.9066683"><ele>83.0</ele><time>2026-03-28T13:46:45.154Z</time></trkpt><trkpt lat="46.0650383" lon="12.9065167"><ele>83.0</ele><time>2026-03-28T13:46:47.154Z</time></trkpt><trkpt lat="46.0650017" lon="12.9063617"><ele>83.0</ele><time>2026-03-28T13:46:49.154Z</time></trkpt><trkpt lat="46.0649767" lon="12.9062283"><ele>83.0</ele><time>2026-03-28T13:46:51.153Z</time></trkpt><trkpt lat="46.064955" lon="12.9061117"><ele>83.0</ele><time>2026-03-28T13:46:53.153Z</time></trkpt><trkpt lat="46.064925" lon="12.905975"><ele>83.0</ele><time>2026-03-28T13:46:55.153Z</time></trkpt><trkpt lat="46.06487" lon="12.90583"><ele>83.0</ele><time>2026-03-28T13:46:57.154Z</time></trkpt><trkpt lat="46.0648267" lon="12.9057333"><ele>83.0</ele><time>2026-03-28T13:46:58.154Z</time></trkpt><trkpt lat="46.064775" lon="12.9056167"><ele>83.4</ele><time>2026-03-28T13:46:59.154Z</time></trkpt><trkpt lat="46.064725" lon="12.9055017"><ele>83.80000000000001</ele><time>2026-03-28T13:47:00.153Z</time></trkpt><trkpt lat="46.06468" lon="12.9053817"><ele>84.2</ele><time>2026-03-28T13:47:01.153Z</time></trkpt><trkpt lat="46.0646333" lon="12.90526"><ele>84.6</ele><time>2026-03-28T13:47:02.153Z</time></trkpt><trkpt lat="46.0645967" lon="12.9051683"><ele>85.0</ele><time>2026-03-28T13:47:03.154Z</time></trkpt><trkpt lat="46.064535" lon="12.9050533"><ele>85.16666666666666</ele><time>2026-03-28T13:47:05.153Z</time></trkpt><trkpt lat="46.064465" lon="12.9049667"><ele>85.33333333333333</ele><time>2026-03-28T13:47:07.153Z</time></trkpt><trkpt lat="46.06442" lon="12.90489"><ele>85.5</ele><time>2026-03-28T13:47:09.153Z</time></trkpt><trkpt lat="46.0644333" lon="12.9047917"><ele>85.66666666666667</ele><time>2026-03-28T13:47:11.154Z</time></trkpt><trkpt lat="46.0644733" lon="12.9046783"><ele>85.83333333333334</ele><time>2026-03-28T13:47:13.153Z</time></trkpt><trkpt lat="46.0644067" lon="12.90468"><ele>86.0</ele><time>2026-03-28T13:47:27.154Z</time></trkpt><trkpt lat="46.06435" lon="12.9048133"><ele>86.0</ele><time>2026-03-28T13:47:37.153Z</time></trkpt><trkpt lat="46.0643133" lon="12.90489"><ele>86.0</ele><time>2026-03-28T13:47:38.153Z</time></trkpt><trkpt lat="46.064265" lon="12.90498"><ele>86.0</ele><time>2026-03-28T13:47:39.153Z</time></trkpt><trkpt lat="46.0642117" lon="12.9050733"><ele>86.0</ele><time>2026-03-28T13:47:40.153Z</time></trkpt><trkpt lat="46.0641567" lon="12.90517"><ele>86.0</ele><time>2026-03-28T13:47:41.154Z</time></trkpt><trkpt lat="46.0641017" lon="12.9052617"><ele>86.0</ele><time>2026-03-28T13:47:42.154Z</time></trkpt><trkpt lat="46.0640483" lon="12.9053483"><ele>85.8</ele><time>2026-03-28T13:47:43.153Z</time></trkpt><trkpt lat="46.0639933" lon="12.90544"><ele>85.6</ele><time>2026-03-28T13:47:44.153Z</time></trkpt><trkpt lat="46.0639317" lon="12.9055383"><ele>85.4</ele><time>2026-03-28T13:47:45.153Z</time></trkpt><trkpt lat="46.063865" lon="12.905635"><ele>85.2</ele><time>2026-03-28T13:47:46.153Z</time></trkpt><trkpt lat="46.0637883" lon="12.9057317"><ele>85.0</ele><time>2026-03-28T13:47:47.153Z</time></trkpt><trkpt lat="46.0637033" lon="12.9058283"><ele>84.6</ele><time>2026-03-28T13:47:48.153Z</time></trkpt><trkpt lat="46.063615" lon="12.9059133"><ele>84.2</ele><time>2026-03-28T13:47:49.154Z</time></trkpt><trkpt lat="46.0635233" lon="12.906005"><ele>83.80000000000001</ele><time>2026-03-28T13:47:50.153Z</time></trkpt><trkpt lat="46.06343" lon="12.9060933"><ele>83.4</ele><time>2026-03-28T13:47:51.154Z</time></trkpt><trkpt lat="46.0633433" lon="12.906185"><ele>83.0</ele><time>2026-03-28T13:47:52.153Z</time></trkpt><trkpt lat="46.0632517" lon="12.9062667"><ele>83.0</ele><time>2026-03-28T13:47:53.154Z</time></trkpt><trkpt lat="46.0631517" lon="12.9063367"><ele>83.0</ele><time>2026-03-28T13:47:54.153Z</time></trkpt><trkpt lat="46.0630517" lon="12.9064017"><ele>83.0</ele><time>2026-03-28T13:47:55.153Z</time></trkpt><trkpt lat="46.0629433" lon="12.906455"><ele>83.0</ele><time>2026-03-28T13:47:56.154Z</time></trkpt><trkpt lat="46.0628317" lon="12.9065083"><ele>83.0</ele><time>2026-03-28T13:47:57.153Z</time></trkpt><trkpt lat="46.06272" lon="12.9065567"><ele>83.0</ele><time>2026-03-28T13:47:58.154Z</time></trkpt><trkpt lat="46.0626017" lon="12.9066083"><ele>83.0</ele><time>2026-03-28T13:47:59.153Z</time></trkpt><trkpt lat="46.06249" lon="12.906655"><ele>83.0</ele><time>2026-03-28T13:48:00.154Z</time></trkpt><trkpt lat="46.062375" lon="12.9067"><ele>82.5</ele><time>2026-03-28T13:48:01.153Z</time></trkpt><trkpt lat="46.0622567" lon="12.9067367"><ele>82.0</ele><time>2026-03-28T13:48:02.153Z</time></trkpt><trkpt lat="46.0621433" lon="12.9067517"><ele>81.5</ele><time>2026-03-28T13:48:03.154Z</time></trkpt><trkpt lat="46.0620233" lon="12.90676"><ele>81.0</ele><time>2026-03-28T13:48:04.153Z</time></trkpt><trkpt lat="46.0619017" lon="12.9067667"><ele>81.0</ele><time>2026-03-28T13:48:05.153Z</time></trkpt><trkpt lat="46.06178" lon="12.906765"><ele>81.0</ele><time>2026-03-28T13:48:06.154Z</time></trkpt><trkpt lat="46.061655" lon="12.90676"><ele>81.0</ele><time>2026-03-28T13:48:07.153Z</time></trkpt><trkpt lat="46.0615333" lon="12.9067533"><ele>81.0</ele><time>2026-03-28T13:48:08.153Z</time></trkpt><trkpt lat="46.0614117" lon="12.9067433"><ele>81.0</ele><time>2026-03-28T13:48:09.153Z</time></trkpt><trkpt lat="46.0612883" lon="12.9067167"><ele>81.0</ele><time>2026-03-28T13:48:10.153Z</time></trkpt><trkpt lat="46.0611583" lon="12.9066867"><ele>81.0</ele><time>2026-03-28T13:48:11.153Z</time></trkpt><trkpt lat="46.0610217" lon="12.9066567"><ele>81.0</ele><time>2026-03-28T13:48:12.153Z</time></trkpt><trkpt lat="46.0608817" lon="12.9066283"><ele>80.75</ele><time>2026-03-28T13:48:13.153Z</time></trkpt><trkpt lat="46.0607367" lon="12.9065983"><ele>80.5</ele><time>2026-03-28T13:48:14.154Z</time></trkpt><trkpt lat="46.06059" lon="12.9065717"><ele>80.25</ele><time>2026-03-28T13:48:15.154Z</time></trkpt><trkpt lat="46.0604417" lon="12.9065383"><ele>80.0</ele><time>2026-03-28T13:48:16.154Z</time></trkpt><trkpt lat="46.0602933" lon="12.90651"><ele>80.0</ele><time>2026-03-28T13:48:17.154Z</time></trkpt><trkpt lat="46.0601433" lon="12.9064733"><ele>80.0</ele><time>2026-03-28T13:48:18.153Z</time></trkpt><trkpt lat="46.0599933" lon="12.9064383"><ele>80.0</ele><time>2026-03-28T13:48:19.153Z</time></trkpt><trkpt lat="46.0598417" lon="12.9064067"><ele>80.0</ele><time>2026-03-28T13:48:20.153Z</time></trkpt><trkpt lat="46.0596883" lon="12.906375"><ele>80.0</ele><time>2026-03-28T13:48:21.153Z</time></trkpt><trkpt lat="46.059535" lon="12.9063417"><ele>80.0</ele><time>2026-03-28T13:48:22.153Z</time></trkpt><trkpt lat="46.0593767" lon="12.9063017"><ele>80.0</ele><time>2026-03-28T13:48:23.154Z</time></trkpt><trkpt lat="46.059215" lon="12.9062633"><ele>80.0</ele><time>2026-03-28T13:48:24.153Z</time></trkpt><trkpt lat="46.0590533" lon="12.9062317"><ele>80.0</ele><time>2026-03-28T13:48:25.153Z</time></trkpt><trkpt lat="46.0588867" lon="12.906195"><ele>80.66666666666667</ele><time>2026-03-28T13:48:26.154Z</time></trkpt><trkpt lat="46.0587283" lon="12.906165"><ele>81.33333333333333</ele><time>2026-03-28T13:48:27.153Z</time></trkpt><trkpt lat="46.05857" lon="12.9061283"><ele>82.0</ele><time>2026-03-28T13:48:28.153Z</time></trkpt><trkpt lat="46.0584133" lon="12.9060967"><ele>82.0</ele><time>2026-03-28T13:48:29.153Z</time></trkpt><trkpt lat="46.058255" lon="12.9060667"><ele>82.0</ele><time>2026-03-28T13:48:30.154Z</time></trkpt><trkpt lat="46.0580983" lon="12.9060367"><ele>82.0</ele><time>2026-03-28T13:48:31.153Z</time></trkpt><trkpt lat="46.0579367" lon="12.9060033"><ele>82.0</ele><time>2026-03-28T13:48:32.153Z</time></trkpt><trkpt lat="46.0577783" lon="12.9059683"><ele>82.0</ele><time>2026-03-28T13:48:33.153Z</time></trkpt><trkpt lat="46.0576167" lon="12.9059283"><ele>82.0</ele><time>2026-03-28T13:48:34.153Z</time></trkpt><trkpt lat="46.05746" lon="12.905895"><ele>81.66666666666666</ele><time>2026-03-28T13:48:35.153Z</time></trkpt><trkpt lat="46.057305" lon="12.9058583"><ele>81.33333333333333</ele><time>2026-03-28T13:48:36.154Z</time></trkpt><trkpt lat="46.0571533" lon="12.9058317"><ele>81.0</ele><time>2026-03-28T13:48:37.153Z</time></trkpt><trkpt lat="46.0570017" lon="12.9058017"><ele>81.0</ele><time>2026-03-28T13:48:38.154Z</time></trkpt><trkpt lat="46.05685" lon="12.9057683"><ele>81.0</ele><time>2026-03-28T13:48:39.153Z</time></trkpt><trkpt lat="46.056695" lon="12.9057367"><ele>81.0</ele><time>2026-03-28T13:48:40.154Z</time></trkpt><trkpt lat="46.0565433" lon="12.9057067"><ele>80.75</ele><time>2026-03-28T13:48:41.153Z</time></trkpt><trkpt lat="46.0564033" lon="12.9056867"><ele>80.5</ele><time>2026-03-28T13:48:42.153Z</time></trkpt><trkpt lat="46.056265" lon="12.9056617"><ele>80.25</ele><time>2026-03-28T13:48:43.154Z</time></trkpt><trkpt lat="46.0561233" lon="12.9056233"><ele>80.0</ele><time>2026-03-28T13:48:44.153Z</time></trkpt><trkpt lat="46.05598" lon="12.9055883"><ele>80.0</ele><time>2026-03-28T13:48:45.153Z</time></trkpt><trkpt lat="46.0558333" lon="12.9055533"><ele>80.0</ele><time>2026-03-28T13:48:46.153Z</time></trkpt><trkpt lat="46.0556767" lon="12.9055233"><ele>80.0</ele><time>2026-03-28T13:48:47.153Z</time></trkpt><trkpt lat="46.055515" lon="12.9054917"><ele>80.33333333333334</ele><time>2026-03-28T13:48:48.154Z</time></trkpt><trkpt lat="46.055355" lon="12.90546"><ele>80.66666666666667</ele><time>2026-03-28T13:48:49.153Z</time></trkpt><trkpt lat="46.0551967" lon="12.9054233"><ele>81.0</ele><time>2026-03-28T13:48:50.153Z</time></trkpt><trkpt lat="46.0550383" lon="12.9053817"><ele>81.0</ele><time>2026-03-28T13:48:51.153Z</time></trkpt><trkpt lat="46.05489" lon="12.905345"><ele>81.0</ele><time>2026-03-28T13:48:52.154Z</time></trkpt><trkpt lat="46.05476" lon="12.9053183"><ele>81.0</ele><time>2026-03-28T13:48:53.153Z</time></trkpt><trkpt lat="46.0546467" lon="12.9053017"><ele>81.0</ele><time>2026-03-28T13:48:54.153Z</time></trkpt><trkpt lat="46.054545" lon="12.9052833"><ele>81.0</ele><time>2026-03-28T13:48:55.154Z</time></trkpt><trkpt lat="46.0544617" lon="12.90527"><ele>81.0</ele><time>2026-03-28T13:48:56.153Z</time></trkpt><trkpt lat="46.0543667" lon="12.905245"><ele>81.0</ele><time>2026-03-28T13:48:57.154Z</time></trkpt><trkpt lat="46.054245" lon="12.905215"><ele>81.0</ele><time>2026-03-28T13:48:58.153Z</time></trkpt><trkpt lat="46.05411" lon="12.9051917"><ele>81.0</ele><time>2026-03-28T13:48:59.154Z</time></trkpt><trkpt lat="46.0539667" lon="12.9051617"><ele>80.0</ele><time>2026-03-28T13:49:00.153Z</time></trkpt><trkpt lat="46.05382" lon="12.90513"><ele>79.0</ele><time>2026-03-28T13:49:01.153Z</time></trkpt><trkpt lat="46.0536683" lon="12.9050917"><ele>78.0</ele><time>2026-03-28T13:49:02.153Z</time></trkpt><trkpt lat="46.0535083" lon="12.9050583"><ele>78.0</ele><time>2026-03-28T13:49:03.153Z</time></trkpt><trkpt lat="46.05335" lon="12.905025"><ele>78.0</ele><time>2026-03-28T13:49:04.153Z</time></trkpt><trkpt lat="46.0532033" lon="12.905"><ele>78.0</ele><time>2026-03-28T13:49:05.153Z</time></trkpt><trkpt lat="46.0530633" lon="12.9049733"><ele>78.0</ele><time>2026-03-28T13:49:06.153Z</time></trkpt><trkpt lat="46.05293" lon="12.9049467"><ele>78.0</ele><time>2026-03-28T13:49:07.154Z</time></trkpt><trkpt lat="46.0527967" lon="12.90492"><ele>78.0</ele><time>2026-03-28T13:49:08.154Z</time></trkpt><trkpt lat="46.05266" lon="12.904895"><ele>78.0</ele><time>2026-03-28T13:49:09.153Z</time></trkpt><trkpt lat="46.0525133" lon="12.90486"><ele>78.0</ele><time>2026-03-28T13:49:10.153Z</time></trkpt><trkpt lat="46.0523633" lon="12.90482"><ele>78.0</ele><time>2026-03-28T13:49:11.153Z</time></trkpt><trkpt lat="46.0522117" lon="12.9047833"><ele>78.0</ele><time>2026-03-28T13:49:12.153Z</time></trkpt><trkpt lat="46.05206" lon="12.90475"><ele>78.0</ele><time>2026-03-28T13:49:13.153Z</time></trkpt><trkpt lat="46.0519117" lon="12.9047217"><ele>78.0</ele><time>2026-03-28T13:49:14.153Z</time></trkpt><trkpt lat="46.05176" lon="12.9046917"><ele>78.0</ele><time>2026-03-28T13:49:15.153Z</time></trkpt><trkpt lat="46.0516033" lon="12.9046567"><ele>78.0</ele><time>2026-03-28T13:49:16.153Z</time></trkpt><trkpt lat="46.051445" lon="12.90462"><ele>78.25</ele><time>2026-03-28T13:49:17.153Z</time></trkpt><trkpt lat="46.05129" lon="12.9045883"><ele>78.5</ele><time>2026-03-28T13:49:18.154Z</time></trkpt><trkpt lat="46.0511433" lon="12.904565"><ele>78.75</ele><time>2026-03-28T13:49:19.153Z</time></trkpt><trkpt lat="46.051" lon="12.9045333"><ele>79.0</ele><time>2026-03-28T13:49:20.153Z</time></trkpt><trkpt lat="46.0508583" lon="12.9044983"><ele>78.25</ele><time>2026-03-28T13:49:21.153Z</time></trkpt><trkpt lat="46.0507133" lon="12.90446"><ele>77.5</ele><time>2026-03-28T13:49:22.154Z</time></trkpt><trkpt lat="46.0505683" lon="12.9044267"><ele>76.75</ele><time>2026-03-28T13:49:23.154Z</time></trkpt><trkpt lat="46.05043" lon="12.9044017"><ele>76.0</ele><time>2026-03-28T13:49:24.153Z</time></trkpt><trkpt lat="46.0503083" lon="12.9043783"><ele>76.0</ele><time>2026-03-28T13:49:25.153Z</time></trkpt><trkpt lat="46.050185" lon="12.904355"><ele>76.0</ele><time>2026-03-28T13:49:26.153Z</time></trkpt><trkpt lat="46.0500733" lon="12.9043317"><ele>76.0</ele><time>2026-03-28T13:49:27.153Z</time></trkpt><trkpt lat="46.0499567" lon="12.9043133"><ele>76.0</ele><time>2026-03-28T13:49:28.154Z</time></trkpt><trkpt lat="46.0498433" lon="12.904285"><ele>76.25</ele><time>2026-03-28T13:49:29.153Z</time></trkpt><trkpt lat="46.04972" lon="12.90425"><ele>76.5</ele><time>2026-03-28T13:49:30.153Z</time></trkpt><trkpt lat="46.0495917" lon="12.90422"><ele>76.75</ele><time>2026-03-28T13:49:31.153Z</time></trkpt><trkpt lat="46.049455" lon="12.90419"><ele>77.0</ele><time>2026-03-28T13:49:32.153Z</time></trkpt><trkpt lat="46.0493167" lon="12.9041517"><ele>77.0</ele><time>2026-03-28T13:49:33.153Z</time></trkpt><trkpt lat="46.0491867" lon="12.9041233"><ele>77.0</ele><time>2026-03-28T13:49:34.153Z</time></trkpt><trkpt lat="46.0490533" lon="12.9040933"><ele>77.0</ele><time>2026-03-28T13:49:35.153Z</time></trkpt><trkpt lat="46.04892" lon="12.9040617"><ele>77.0</ele><time>2026-03-28T13:49:36.153Z</time></trkpt><trkpt lat="46.048785" lon="12.90404"><ele>77.0</ele><time>2026-03-28T13:49:37.153Z</time></trkpt><trkpt lat="46.0486567" lon="12.9040117"><ele>77.0</ele><time>2026-03-28T13:49:38.153Z</time></trkpt><trkpt lat="46.0485283" lon="12.90398"><ele>77.0</ele><time>2026-03-28T13:49:39.153Z</time></trkpt><trkpt lat="46.048395" lon="12.9039533"><ele>77.0</ele><time>2026-03-28T13:49:40.153Z</time></trkpt><trkpt lat="46.0482617" lon="12.9039267"><ele>76.5</ele><time>2026-03-28T13:49:41.153Z</time></trkpt><trkpt lat="46.0481283" lon="12.9039017"><ele>76.0</ele><time>2026-03-28T13:49:42.153Z</time></trkpt><trkpt lat="46.0479967" lon="12.903875"><ele>75.5</ele><time>2026-03-28T13:49:43.153Z</time></trkpt><trkpt lat="46.0478683" lon="12.9038467"><ele>75.0</ele><time>2026-03-28T13:49:44.153Z</time></trkpt><trkpt lat="46.047605" lon="12.903795"><ele>75.0</ele><time>2026-03-28T13:49:46.154Z</time></trkpt><trkpt lat="46.0474733" lon="12.90377"><ele>75.0</ele><time>2026-03-28T13:49:47.153Z</time></trkpt><trkpt lat="46.047345" lon="12.903745"><ele>75.0</ele><time>2026-03-28T13:49:48.154Z</time></trkpt><trkpt lat="46.0472267" lon="12.90372"><ele>75.0</ele><time>2026-03-28T13:49:49.153Z</time></trkpt><trkpt lat="46.04712" lon="12.9036933"><ele>75.33333333333333</ele><time>2026-03-28T13:49:50.154Z</time></trkpt><trkpt lat="46.0470283" lon="12.903675"><ele>75.66666666666667</ele><time>2026-03-28T13:49:51.153Z</time></trkpt><trkpt lat="46.04695" lon="12.9036567"><ele>76.0</ele><time>2026-03-28T13:49:52.154Z</time></trkpt><trkpt lat="46.046885" lon="12.903645"><ele>76.33333333333334</ele><time>2026-03-28T13:49:53.153Z</time></trkpt><trkpt lat="46.0467867" lon="12.9036233"><ele>76.66666666666667</ele><time>2026-03-28T13:49:55.153Z</time></trkpt><trkpt lat="46.04669" lon="12.903605"><ele>77.0</ele><time>2026-03-28T13:49:57.153Z</time></trkpt><trkpt lat="46.04661" lon="12.90359"><ele>77.0</ele><time>2026-03-28T13:49:58.153Z</time></trkpt><trkpt lat="46.0465283" lon="12.903575"><ele>77.0</ele><time>2026-03-28T13:49:59.153Z</time></trkpt><trkpt lat="46.0464433" lon="12.9035567"><ele>77.0</ele><time>2026-03-28T13:50:00.153Z</time></trkpt><trkpt lat="46.0463567" lon="12.9035367"><ele>77.0</ele><time>2026-03-28T13:50:01.153Z</time></trkpt><trkpt lat="46.0462567" lon="12.9035083"><ele>77.0</ele><time>2026-03-28T13:50:02.152Z</time></trkpt><trkpt lat="46.0461517" lon="12.9034833"><ele>77.0</ele><time>2026-03-28T13:50:03.152Z</time></trkpt><trkpt lat="46.04604" lon="12.9034617"><ele>77.0</ele><time>2026-03-28T13:50:04.153Z</time></trkpt><trkpt lat="46.0459233" lon="12.9034333"><ele>77.0</ele><time>2026-03-28T13:50:05.152Z</time></trkpt><trkpt lat="46.045805" lon="12.9034033"><ele>77.0</ele><time>2026-03-28T13:50:06.152Z</time></trkpt><trkpt lat="46.045685" lon="12.9033833"><ele>76.5</ele><time>2026-03-28T13:50:07.152Z</time></trkpt><trkpt lat="46.045555" lon="12.9033633"><ele>76.0</ele><time>2026-03-28T13:50:08.153Z</time></trkpt><trkpt lat="46.0454233" lon="12.9033333"><ele>75.5</ele><time>2026-03-28T13:50:09.152Z</time></trkpt><trkpt lat="46.0453017" lon="12.9033083"><ele>75.0</ele><time>2026-03-28T13:50:10.152Z</time></trkpt><trkpt lat="46.045185" lon="12.9032867"><ele>75.0</ele><time>2026-03-28T13:50:11.152Z</time></trkpt><trkpt lat="46.045065" lon="12.9032633"><ele>75.0</ele><time>2026-03-28T13:50:12.152Z</time></trkpt><trkpt lat="46.0449383" lon="12.9032333"><ele>75.0</ele><time>2026-03-28T13:50:13.153Z</time></trkpt><trkpt lat="46.0448133" lon="12.9032067"><ele>75.0</ele><time>2026-03-28T13:50:14.152Z</time></trkpt><trkpt lat="46.04469" lon="12.90318"><ele>75.0</ele><time>2026-03-28T13:50:15.152Z</time></trkpt><trkpt lat="46.0445667" lon="12.903155"><ele>75.0</ele><time>2026-03-28T13:50:16.152Z</time></trkpt><trkpt lat="46.0444417" lon="12.903135"><ele>75.0</ele><time>2026-03-28T13:50:17.152Z</time></trkpt><trkpt lat="46.044315" lon="12.903105"><ele>75.0</ele><time>2026-03-28T13:50:18.152Z</time></trkpt><trkpt lat="46.044185" lon="12.903075"><ele>75.0</ele><time>2026-03-28T13:50:19.152Z</time></trkpt><trkpt lat="46.0440533" lon="12.9030483"><ele>75.0</ele><time>2026-03-28T13:50:20.152Z</time></trkpt><trkpt lat="46.0439267" lon="12.9030233"><ele>75.0</ele><time>2026-03-28T13:50:21.152Z</time></trkpt><trkpt lat="46.0438" lon="12.9029967"><ele>75.0</ele><time>2026-03-28T13:50:22.152Z</time></trkpt><trkpt lat="46.0436717" lon="12.9029667"><ele>75.0</ele><time>2026-03-28T13:50:23.152Z</time></trkpt><trkpt lat="46.0435467" lon="12.9029383"><ele>75.0</ele><time>2026-03-28T13:50:24.152Z</time></trkpt><trkpt lat="46.0434067" lon="12.9029117"><ele>75.0</ele><time>2026-03-28T13:50:25.152Z</time></trkpt><trkpt lat="46.04327" lon="12.902885"><ele>75.0</ele><time>2026-03-28T13:50:26.152Z</time></trkpt><trkpt lat="46.0431417" lon="12.9028567"><ele>74.75</ele><time>2026-03-28T13:50:27.152Z</time></trkpt><trkpt lat="46.043015" lon="12.9028317"><ele>74.5</ele><time>2026-03-28T13:50:28.152Z</time></trkpt><trkpt lat="46.042885" lon="12.9028033"><ele>74.25</ele><time>2026-03-28T13:50:29.152Z</time></trkpt><trkpt lat="46.0427567" lon="12.9027783"><ele>74.0</ele><time>2026-03-28T13:50:30.152Z</time></trkpt><trkpt lat="46.04264" lon="12.9027583"><ele>74.0</ele><time>2026-03-28T13:50:31.152Z</time></trkpt><trkpt lat="46.0425283" lon="12.9027367"><ele>74.0</ele><time>2026-03-28T13:50:32.152Z</time></trkpt><trkpt lat="46.042415" lon="12.9027117"><ele>74.0</ele><time>2026-03-28T13:50:33.153Z</time></trkpt><trkpt lat="46.0422967" lon="12.902685"><ele>74.0</ele><time>2026-03-28T13:50:34.152Z</time></trkpt><trkpt lat="46.0421733" lon="12.9026533"><ele>74.0</ele><time>2026-03-28T13:50:35.152Z</time></trkpt><trkpt lat="46.0420383" lon="12.9026233"><ele>74.0</ele><time>2026-03-28T13:50:36.152Z</time></trkpt><trkpt lat="46.0418983" lon="12.9025967"><ele>74.0</ele><time>2026-03-28T13:50:37.152Z</time></trkpt><trkpt lat="46.0417567" lon="12.9025733"><ele>74.0</ele><time>2026-03-28T13:50:38.152Z</time></trkpt><trkpt lat="46.041615" lon="12.902545"><ele>74.25</ele><time>2026-03-28T13:50:39.152Z</time></trkpt><trkpt lat="46.04147" lon="12.90252"><ele>74.5</ele><time>2026-03-28T13:50:40.152Z</time></trkpt><trkpt lat="46.0413283" lon="12.9024917"><ele>74.75</ele><time>2026-03-28T13:50:41.152Z</time></trkpt><trkpt lat="46.041185" lon="12.902465"><ele>75.0</ele><time>2026-03-28T13:50:42.153Z</time></trkpt><trkpt lat="46.0410517" lon="12.90244"><ele>75.0</ele><time>2026-03-28T13:50:43.152Z</time></trkpt><trkpt lat="46.040925" lon="12.90241"><ele>75.0</ele><time>2026-03-28T13:50:44.152Z</time></trkpt><trkpt lat="46.0408033" lon="12.9023867"><ele>75.0</ele><time>2026-03-28T13:50:45.152Z</time></trkpt><trkpt lat="46.0406967" lon="12.90236"><ele>75.0</ele><time>2026-03-28T13:50:46.153Z</time></trkpt><trkpt lat="46.040605" lon="12.9023383"><ele>74.66666666666667</ele><time>2026-03-28T13:50:47.152Z</time></trkpt><trkpt lat="46.0405233" lon="12.9023267"><ele>74.33333333333333</ele><time>2026-03-28T13:50:48.152Z</time></trkpt><trkpt lat="46.04043" lon="12.9023117"><ele>74.0</ele><time>2026-03-28T13:50:50.153Z</time></trkpt><trkpt lat="46.040365" lon="12.9023167"><ele>73.66666666666666</ele><time>2026-03-28T13:50:53.152Z</time></trkpt><trkpt lat="46.0403233" lon="12.902465"><ele>73.33333333333333</ele><time>2026-03-28T13:51:12.152Z</time></trkpt><trkpt lat="46.0403083" lon="12.9025767"><ele>73.0</ele><time>2026-03-28T13:51:13.152Z</time></trkpt><trkpt lat="46.0402917" lon="12.902715"><ele>73.0</ele><time>2026-03-28T13:51:14.152Z</time></trkpt><trkpt lat="46.0402717" lon="12.90287"><ele>73.0</ele><time>2026-03-28T13:51:15.152Z</time></trkpt><trkpt lat="46.0402483" lon="12.9030517"><ele>73.0</ele><time>2026-03-28T13:51:16.152Z</time></trkpt><trkpt lat="46.040225" lon="12.90322"><ele>73.0</ele><time>2026-03-28T13:51:17.152Z</time></trkpt><trkpt lat="46.04021" lon="12.9033667"><ele>73.2</ele><time>2026-03-28T13:51:18.152Z</time></trkpt><trkpt lat="46.040205" lon="12.9035083"><ele>73.4</ele><time>2026-03-28T13:51:19.152Z</time></trkpt><trkpt lat="46.0401967" lon="12.9036533"><ele>73.60000000000001</ele><time>2026-03-28T13:51:20.152Z</time></trkpt><trkpt lat="46.0401883" lon="12.9038017"><ele>73.8</ele><time>2026-03-28T13:51:21.152Z</time></trkpt><trkpt lat="46.0401767" lon="12.90395"><ele>74.0</ele><time>2026-03-28T13:51:22.152Z</time></trkpt><trkpt lat="46.0401733" lon="12.9041067"><ele>74.0</ele><time>2026-03-28T13:51:23.152Z</time></trkpt><trkpt lat="46.040175" lon="12.904265"><ele>74.0</ele><time>2026-03-28T13:51:24.152Z</time></trkpt><trkpt lat="46.0401867" lon="12.90444"><ele>74.0</ele><time>2026-03-28T13:51:25.152Z</time></trkpt><trkpt lat="46.0402033" lon="12.9046233"><ele>74.0</ele><time>2026-03-28T13:51:26.152Z</time></trkpt><trkpt lat="46.040225" lon="12.904805"><ele>74.0</ele><time>2026-03-28T13:51:27.152Z</time></trkpt><trkpt lat="46.04025" lon="12.9049817"><ele>74.0</ele><time>2026-03-28T13:51:28.153Z</time></trkpt><trkpt lat="46.04028" lon="12.9051533"><ele>74.0</ele><time>2026-03-28T13:51:29.153Z</time></trkpt><trkpt lat="46.0403167" lon="12.90532"><ele>74.0</ele><time>2026-03-28T13:51:30.153Z</time></trkpt><trkpt lat="46.0403617" lon="12.905485"><ele>74.2</ele><time>2026-03-28T13:51:31.152Z</time></trkpt><trkpt lat="46.0404167" lon="12.90565"><ele>74.4</ele><time>2026-03-28T13:51:32.152Z</time></trkpt><trkpt lat="46.0404683" lon="12.9058017"><ele>74.6</ele><time>2026-03-28T13:51:33.152Z</time></trkpt><trkpt lat="46.0405117" lon="12.90594"><ele>74.8</ele><time>2026-03-28T13:51:34.152Z</time></trkpt><trkpt lat="46.0405383" lon="12.9060733"><ele>75.0</ele><time>2026-03-28T13:51:35.152Z</time></trkpt><trkpt lat="46.0405483" lon="12.9062367"><ele>75.0</ele><time>2026-03-28T13:51:36.152Z</time></trkpt><trkpt lat="46.0405567" lon="12.9064417"><ele>75.0</ele><time>2026-03-28T13:51:37.153Z</time></trkpt><trkpt lat="46.040565" lon="12.906635"><ele>75.0</ele><time>2026-03-28T13:51:38.152Z</time></trkpt><trkpt lat="46.0405683" lon="12.9068"><ele>75.0</ele><time>2026-03-28T13:51:39.152Z</time></trkpt><trkpt lat="46.04057" lon="12.906945"><ele>75.0</ele><time>2026-03-28T13:51:40.152Z</time></trkpt><trkpt lat="46.0405767" lon="12.9070767"><ele>75.0</ele><time>2026-03-28T13:51:41.152Z</time></trkpt><trkpt lat="46.04058" lon="12.9071983"><ele>75.0</ele><time>2026-03-28T13:51:42.152Z</time></trkpt><trkpt lat="46.0405767" lon="12.9073067"><ele>75.0</ele><time>2026-03-28T13:51:43.152Z</time></trkpt><trkpt lat="46.0405267" lon="12.907465"><ele>75.0</ele><time>2026-03-28T13:51:45.152Z</time></trkpt><trkpt lat="46.040445" lon="12.9075717"><ele>75.0</ele><time>2026-03-28T13:51:47.152Z</time></trkpt><trkpt lat="46.0403417" lon="12.907605"><ele>75.0</ele><time>2026-03-28T13:51:49.152Z</time></trkpt><trkpt lat="46.040245" lon="12.9075467"><ele>75.0</ele><time>2026-03-28T13:51:51.152Z</time></trkpt><trkpt lat="46.04013" lon="12.9074367"><ele>75.0</ele><time>2026-03-28T13:51:53.153Z</time></trkpt><trkpt lat="46.0400483" lon="12.9073667"><ele>75.0</ele><time>2026-03-28T13:51:54.152Z</time></trkpt><trkpt lat="46.039955" lon="12.9072867"><ele>74.6</ele><time>2026-03-28T13:51:55.153Z</time></trkpt><trkpt lat="46.03986" lon="12.9072167"><ele>74.2</ele><time>2026-03-28T13:51:56.153Z</time></trkpt><trkpt lat="46.039765" lon="12.9071567"><ele>73.8</ele><time>2026-03-28T13:51:57.152Z</time></trkpt><trkpt lat="46.0396683" lon="12.9071017"><ele>73.4</ele><time>2026-03-28T13:51:58.153Z</time></trkpt><trkpt lat="46.03957" lon="12.9070517"><ele>73.0</ele><time>2026-03-28T13:51:59.153Z</time></trkpt><trkpt lat="46.0394633" lon="12.9070017"><ele>73.0</ele><time>2026-03-28T13:52:00.152Z</time></trkpt><trkpt lat="46.039355" lon="12.9069567"><ele>73.0</ele><time>2026-03-28T13:52:01.152Z</time></trkpt><trkpt lat="46.0392433" lon="12.9069333"><ele>73.0</ele><time>2026-03-28T13:52:02.152Z</time></trkpt><trkpt lat="46.039125" lon="12.90692"><ele>73.0</ele><time>2026-03-28T13:52:03.152Z</time></trkpt><trkpt lat="46.0390083" lon="12.9069217"><ele>73.0</ele><time>2026-03-28T13:52:04.152Z</time></trkpt><trkpt lat="46.0388917" lon="12.9069367"><ele>73.0</ele><time>2026-03-28T13:52:05.153Z</time></trkpt><trkpt lat="46.03878" lon="12.9069533"><ele>73.0</ele><time>2026-03-28T13:52:06.152Z</time></trkpt><trkpt lat="46.0386767" lon="12.9069833"><ele>73.0</ele><time>2026-03-28T13:52:07.152Z</time></trkpt><trkpt lat="46.038585" lon="12.9070267"><ele>73.0</ele><time>2026-03-28T13:52:08.152Z</time></trkpt><trkpt lat="46.0384983" lon="12.9070883"><ele>73.0</ele><time>2026-03-28T13:52:09.153Z</time></trkpt><trkpt lat="46.0384117" lon="12.9071433"><ele>73.0</ele><time>2026-03-28T13:52:10.152Z</time></trkpt><trkpt lat="46.0383233" lon="12.9071717"><ele>73.0</ele><time>2026-03-28T13:52:11.152Z</time></trkpt><trkpt lat="46.0382217" lon="12.9071833"><ele>73.0</ele><time>2026-03-28T13:52:12.152Z</time></trkpt><trkpt lat="46.0381167" lon="12.9071783"><ele>73.0</ele><time>2026-03-28T13:52:13.152Z</time></trkpt><trkpt lat="46.03802" lon="12.9071567"><ele>73.16666666666666</ele><time>2026-03-28T13:52:14.152Z</time></trkpt><trkpt lat="46.0379367" lon="12.9071317"><ele>73.33333333333333</ele><time>2026-03-28T13:52:15.152Z</time></trkpt><trkpt lat="46.0378567" lon="12.907095"><ele>73.5</ele><time>2026-03-28T13:52:16.152Z</time></trkpt><trkpt lat="46.0377717" lon="12.9070533"><ele>73.66666666666667</ele><time>2026-03-28T13:52:17.152Z</time></trkpt><trkpt lat="46.0376883" lon="12.907005"><ele>73.83333333333334</ele><time>2026-03-28T13:52:18.152Z</time></trkpt><trkpt lat="46.0376067" lon="12.9069517"><ele>74.0</ele><time>2026-03-28T13:52:19.153Z</time></trkpt><trkpt lat="46.037525" lon="12.9069017"><ele>73.5</ele><time>2026-03-28T13:52:20.152Z</time></trkpt><trkpt lat="46.03745" lon="12.9068617"><ele>73.0</ele><time>2026-03-28T13:52:21.152Z</time></trkpt><trkpt lat="46.037375" lon="12.90683"><ele>72.5</ele><time>2026-03-28T13:52:22.152Z</time></trkpt><trkpt lat="46.0373" lon="12.906805"><ele>72.0</ele><time>2026-03-28T13:52:23.153Z</time></trkpt><trkpt lat="46.0372317" lon="12.906785"><ele>71.5</ele><time>2026-03-28T13:52:24.152Z</time></trkpt><trkpt lat="46.03711" lon="12.9067567"><ele>71.0</ele><time>2026-03-28T13:52:26.152Z</time></trkpt><trkpt lat="46.0370017" lon="12.90673"><ele>71.0</ele><time>2026-03-28T13:52:28.152Z</time></trkpt><trkpt lat="46.0369133" lon="12.9067083"><ele>71.0</ele><time>2026-03-28T13:52:30.152Z</time></trkpt><trkpt lat="46.0368383" lon="12.90669"><ele>71.0</ele><time>2026-03-28T13:52:32.153Z</time></trkpt><trkpt lat="46.03675" lon="12.9066667"><ele>71.0</ele><time>2026-03-28T13:52:34.152Z</time></trkpt><trkpt lat="46.0366633" lon="12.9066433"><ele>71.0</ele><time>2026-03-28T13:52:36.152Z</time></trkpt><trkpt lat="46.0365883" lon="12.9066167"><ele>71.0</ele><time>2026-03-28T13:52:38.152Z</time></trkpt><trkpt lat="46.0365233" lon="12.906585"><ele>70.8</ele><time>2026-03-28T13:52:40.152Z</time></trkpt><trkpt lat="46.0364417" lon="12.9065483"><ele>70.6</ele><time>2026-03-28T13:52:42.152Z</time></trkpt><trkpt lat="46.0363583" lon="12.9065117"><ele>70.4</ele><time>2026-03-28T13:52:44.153Z</time></trkpt><trkpt lat="46.03624" lon="12.9064483"><ele>70.2</ele><time>2026-03-28T13:52:46.152Z</time></trkpt><trkpt lat="46.0361467" lon="12.9064017"><ele>70.0</ele><time>2026-03-28T13:52:47.152Z</time></trkpt><trkpt lat="46.0360417" lon="12.9063533"><ele>70.0</ele><time>2026-03-28T13:52:48.152Z</time></trkpt><trkpt lat="46.0359133" lon="12.90631"><ele>70.0</ele><time>2026-03-28T13:52:49.152Z</time></trkpt><trkpt lat="46.03575" lon="12.906275"><ele>70.0</ele><time>2026-03-28T13:52:50.152Z</time></trkpt><trkpt lat="46.0355667" lon="12.9062333"><ele>71.0</ele><time>2026-03-28T13:52:51.152Z</time></trkpt><trkpt lat="46.035385" lon="12.9061967"><ele>72.0</ele><time>2026-03-28T13:52:52.152Z</time></trkpt><trkpt lat="46.0352217" lon="12.90616"><ele>73.0</ele><time>2026-03-28T13:52:53.152Z</time></trkpt><trkpt lat="46.03507" lon="12.9061083"><ele>72.33333333333333</ele><time>2026-03-28T13:52:54.152Z</time></trkpt><trkpt lat="46.0349017" lon="12.9060417"><ele>71.66666666666667</ele><time>2026-03-28T13:52:55.152Z</time></trkpt><trkpt lat="46.03473" lon="12.90597"><ele>71.0</ele><time>2026-03-28T13:52:56.152Z</time></trkpt><trkpt lat="46.0345683" lon="12.9059033"><ele>71.0</ele><time>2026-03-28T13:52:57.152Z</time></trkpt><trkpt lat="46.03441" lon="12.905825"><ele>71.0</ele><time>2026-03-28T13:52:58.153Z</time></trkpt><trkpt lat="46.0342717" lon="12.9057617"><ele>71.0</ele><time>2026-03-28T13:52:59.152Z</time></trkpt><trkpt lat="46.034145" lon="12.9057"><ele>71.0</ele><time>2026-03-28T13:53:00.153Z</time></trkpt><trkpt lat="46.0340267" lon="12.9056433"><ele>70.8</ele><time>2026-03-28T13:53:01.152Z</time></trkpt><trkpt lat="46.0339183" lon="12.9055867"><ele>70.6</ele><time>2026-03-28T13:53:02.153Z</time></trkpt><trkpt lat="46.03382" lon="12.9055283"><ele>70.4</ele><time>2026-03-28T13:53:03.152Z</time></trkpt><trkpt lat="46.03373" lon="12.90548"><ele>70.2</ele><time>2026-03-28T13:53:04.152Z</time></trkpt><trkpt lat="46.0336483" lon="12.9054433"><ele>70.0</ele><time>2026-03-28T13:53:05.152Z</time></trkpt><trkpt lat="46.0335717" lon="12.9054167"><ele>70.0</ele><time>2026-03-28T13:53:06.152Z</time></trkpt><trkpt lat="46.0335083" lon="12.905405"><ele>70.0</ele><time>2026-03-28T13:53:07.152Z</time></trkpt><trkpt lat="46.033415" lon="12.9053967"><ele>70.0</ele><time>2026-03-28T13:53:09.153Z</time></trkpt><trkpt lat="46.0333333" lon="12.905575"><ele>70.0</ele><time>2026-03-28T13:53:22.152Z</time></trkpt><trkpt lat="46.0333067" lon="12.90573"><ele>70.0</ele><time>2026-03-28T13:53:23.152Z</time></trkpt><trkpt lat="46.03328" lon="12.90587"><ele>70.0</ele><time>2026-03-28T13:53:24.152Z</time></trkpt><trkpt lat="46.0332567" lon="12.9059817"><ele>70.0</ele><time>2026-03-28T13:53:25.152Z</time></trkpt><trkpt lat="46.0332367" lon="12.9060717"><ele>70.0</ele><time>2026-03-28T13:53:26.153Z</time></trkpt><trkpt lat="46.0331933" lon="12.906165"><ele>70.0</ele><time>2026-03-28T13:53:28.152Z</time></trkpt><trkpt lat="46.0331083" lon="12.90618"><ele>70.0</ele><time>2026-03-28T13:53:31.153Z</time></trkpt><trkpt lat="46.033035" lon="12.9061517"><ele>70.0</ele><time>2026-03-28T13:53:33.152Z</time></trkpt><trkpt lat="46.0329667" lon="12.90611"><ele>70.0</ele><time>2026-03-28T13:53:35.152Z</time></trkpt><trkpt lat="46.0328683" lon="12.9060567"><ele>70.0</ele><time>2026-03-28T13:53:37.152Z</time></trkpt><trkpt lat="46.0327633" lon="12.9060317"><ele>70.0</ele><time>2026-03-28T13:53:39.153Z</time></trkpt><trkpt lat="46.0326867" lon="12.90602"><ele>70.0</ele><time>2026-03-28T13:53:41.153Z</time></trkpt><trkpt lat="46.0326183" lon="12.90602"><ele>70.0</ele><time>2026-03-28T13:53:44.152Z</time></trkpt><trkpt lat="46.0325412" lon="12.9060357"><ele>70.0</ele><time>2026-03-28T13:53:48.123Z</time></trkpt><trkpt lat="46.0324314" lon="12.9060153"><ele>70.0</ele><time>2026-03-28T13:53:49.153Z</time></trkpt><trkpt lat="46.0323128" lon="12.9060033"><ele>70.0</ele><time>2026-03-28T13:53:51.152Z</time></trkpt><trkpt lat="46.0322016" lon="12.9059931"><ele>70.0</ele><time>2026-03-28T13:53:53.152Z</time></trkpt><trkpt lat="46.0321029" lon="12.9059906"><ele>70.0</ele><time>2026-03-28T13:53:55.153Z</time></trkpt><trkpt lat="46.0320157" lon="12.9059844"><ele>70.0</ele><time>2026-03-28T13:53:57.152Z</time></trkpt><trkpt lat="46.0319323" lon="12.9059435"><ele>70.0</ele><time>2026-03-28T13:53:59.152Z</time></trkpt><trkpt lat="46.031841" lon="12.9058985"><ele>70.0</ele><time>2026-03-28T13:54:01.152Z</time></trkpt><trkpt lat="46.0317421" lon="12.9058684"><ele>70.0</ele><time>2026-03-28T13:54:03.152Z</time></trkpt><trkpt lat="46.0316751" lon="12.9058533"><ele>70.0</ele><time>2026-03-28T13:54:04.152Z</time></trkpt><trkpt lat="46.0315981" lon="12.9058356"><ele>70.0</ele><time>2026-03-28T13:54:05.153Z</time></trkpt><trkpt lat="46.0315173" lon="12.9058225"><ele>70.0</ele><time>2026-03-28T13:54:06.152Z</time></trkpt><trkpt lat="46.0314335" lon="12.9057988"><ele>69.83333333333333</ele><time>2026-03-28T13:54:07.152Z</time></trkpt><trkpt lat="46.0313461" lon="12.9057749"><ele>69.66666666666666</ele><time>2026-03-28T13:54:08.152Z</time></trkpt><trkpt lat="46.0312632" lon="12.9057565"><ele>69.5</ele><time>2026-03-28T13:54:09.153Z</time></trkpt><trkpt lat="46.0311956" lon="12.9057298"><ele>69.33333333333333</ele><time>2026-03-28T13:54:10.152Z</time></trkpt><trkpt lat="46.0311237" lon="12.9056957"><ele>69.16666666666667</ele><time>2026-03-28T13:54:11.152Z</time></trkpt><trkpt lat="46.0310398" lon="12.9056454"><ele>69.0</ele><time>2026-03-28T13:54:12.152Z</time></trkpt><trkpt lat="46.030945" lon="12.9055855"><ele>69.0</ele><time>2026-03-28T13:54:13.152Z</time></trkpt><trkpt lat="46.0308572" lon="12.9055253"><ele>69.0</ele><time>2026-03-28T13:54:14.152Z</time></trkpt><trkpt lat="46.0307785" lon="12.9054694"><ele>69.0</ele><time>2026-03-28T13:54:15.153Z</time></trkpt><trkpt lat="46.0307098" lon="12.9054263"><ele>69.0</ele><time>2026-03-28T13:54:16.152Z</time></trkpt><trkpt lat="46.0306445" lon="12.9053866"><ele>69.0</ele><time>2026-03-28T13:54:17.152Z</time></trkpt><trkpt lat="46.0305853" lon="12.9053501"><ele>69.0</ele><time>2026-03-28T13:54:18.152Z</time></trkpt><trkpt lat="46.0305249" lon="12.9053212"><ele>68.66666666666667</ele><time>2026-03-28T13:54:19.152Z</time></trkpt><trkpt lat="46.0304606" lon="12.9052883"><ele>68.33333333333333</ele><time>2026-03-28T13:54:20.152Z</time></trkpt><trkpt lat="46.0303944" lon="12.9052578"><ele>68.0</ele><time>2026-03-28T13:54:21.152Z</time></trkpt><trkpt lat="46.0303281" lon="12.9052318"><ele>67.66666666666666</ele><time>2026-03-28T13:54:22.152Z</time></trkpt><trkpt lat="46.030199" lon="12.9052051"><ele>67.33333333333333</ele><time>2026-03-28T13:54:24.152Z</time></trkpt><trkpt lat="46.030123" lon="12.9052038"><ele>67.0</ele><time>2026-03-28T13:54:25.152Z</time></trkpt><trkpt lat="46.0300459" lon="12.9052131"><ele>67.16666666666666</ele><time>2026-03-28T13:54:26.152Z</time></trkpt><trkpt lat="46.0299668" lon="12.90523"><ele>67.33333333333333</ele><time>2026-03-28T13:54:27.152Z</time></trkpt><trkpt lat="46.0298852" lon="12.9052517"><ele>67.5</ele><time>2026-03-28T13:54:28.152Z</time></trkpt><trkpt lat="46.0298038" lon="12.9052754"><ele>67.66666666666667</ele><time>2026-03-28T13:54:29.152Z</time></trkpt><trkpt lat="46.0297274" lon="12.9052926"><ele>67.83333333333334</ele><time>2026-03-28T13:54:30.152Z</time></trkpt><trkpt lat="46.0296484" lon="12.9053079"><ele>68.0</ele><time>2026-03-28T13:54:31.152Z</time></trkpt><trkpt lat="46.0295717" lon="12.9053193"><ele>68.0</ele><time>2026-03-28T13:54:32.152Z</time></trkpt><trkpt lat="46.0294923" lon="12.9053247"><ele>68.0</ele><time>2026-03-28T13:54:33.153Z</time></trkpt><trkpt lat="46.0294074" lon="12.905325"><ele>68.0</ele><time>2026-03-28T13:54:34.153Z</time></trkpt><trkpt lat="46.0293199" lon="12.9053175"><ele>68.0</ele><time>2026-03-28T13:54:35.152Z</time></trkpt><trkpt lat="46.0292246" lon="12.905306"><ele>68.0</ele><time>2026-03-28T13:54:36.152Z</time></trkpt><trkpt lat="46.0291251" lon="12.9052931"><ele>68.0</ele><time>2026-03-28T13:54:37.152Z</time></trkpt><trkpt lat="46.0290312" lon="12.9052745"><ele>67.8</ele><time>2026-03-28T13:54:38.152Z</time></trkpt><trkpt lat="46.0289348" lon="12.9052518"><ele>67.6</ele><time>2026-03-28T13:54:39.153Z</time></trkpt><trkpt lat="46.0288376" lon="12.9052262"><ele>67.4</ele><time>2026-03-28T13:54:40.152Z</time></trkpt><trkpt lat="46.0287377" lon="12.9051958"><ele>67.2</ele><time>2026-03-28T13:54:41.153Z</time></trkpt><trkpt lat="46.0286474" lon="12.9051594"><ele>67.0</ele><time>2026-03-28T13:54:42.152Z</time></trkpt><trkpt lat="46.0285587" lon="12.9051195"><ele>67.0</ele><time>2026-03-28T13:54:43.152Z</time></trkpt><trkpt lat="46.0284615" lon="12.9050806"><ele>67.0</ele><time>2026-03-28T13:54:44.152Z</time></trkpt><trkpt lat="46.0283702" lon="12.9050467"><ele>67.0</ele><time>2026-03-28T13:54:45.153Z</time></trkpt><trkpt lat="46.0282782" lon="12.9050153"><ele>67.0</ele><time>2026-03-28T13:54:46.152Z</time></trkpt><trkpt lat="46.0281815" lon="12.904981"><ele>67.0</ele><time>2026-03-28T13:54:47.152Z</time></trkpt><trkpt lat="46.0280796" lon="12.9049482"><ele>67.0</ele><time>2026-03-28T13:54:48.152Z</time></trkpt><trkpt lat="46.0279726" lon="12.9049142"><ele>67.0</ele><time>2026-03-28T13:54:49.152Z</time></trkpt><trkpt lat="46.0278673" lon="12.9048836"><ele>67.0</ele><time>2026-03-28T13:54:50.153Z</time></trkpt><trkpt lat="46.0277632" lon="12.9048562"><ele>67.0</ele><time>2026-03-28T13:54:51.152Z</time></trkpt><trkpt lat="46.0276596" lon="12.9048329"><ele>67.0</ele><time>2026-03-28T13:54:52.152Z</time></trkpt><trkpt lat="46.0275548" lon="12.9048015"><ele>67.4</ele><time>2026-03-28T13:54:53.152Z</time></trkpt><trkpt lat="46.0274528" lon="12.9047774"><ele>67.80000000000001</ele><time>2026-03-28T13:54:54.152Z</time></trkpt><trkpt lat="46.0273515" lon="12.9047565"><ele>68.2</ele><time>2026-03-28T13:54:55.152Z</time></trkpt><trkpt lat="46.0272529" lon="12.9047348"><ele>68.60000000000001</ele><time>2026-03-28T13:54:56.152Z</time></trkpt><trkpt lat="46.0271533" lon="12.9047124"><ele>69.0</ele><time>2026-03-28T13:54:57.152Z</time></trkpt><trkpt lat="46.0270587" lon="12.9046938"><ele>69.0</ele><time>2026-03-28T13:54:58.153Z</time></trkpt><trkpt lat="46.0269753" lon="12.904677"><ele>69.0</ele><time>2026-03-28T13:54:59.153Z</time></trkpt><trkpt lat="46.0268956" lon="12.9046545"><ele>69.0</ele><time>2026-03-28T13:55:00.152Z</time></trkpt><trkpt lat="46.0268112" lon="12.9046319"><ele>69.0</ele><time>2026-03-28T13:55:01.152Z</time></trkpt><trkpt lat="46.0267146" lon="12.9046037"><ele>69.0</ele><time>2026-03-28T13:55:02.152Z</time></trkpt><trkpt lat="46.0266075" lon="12.9045739"><ele>68.60000000000001</ele><time>2026-03-28T13:55:03.152Z</time></trkpt><trkpt lat="46.0265082" lon="12.904548"><ele>68.2</ele><time>2026-03-28T13:55:04.152Z</time></trkpt><trkpt lat="46.0264108" lon="12.9045183"><ele>67.80000000000001</ele><time>2026-03-28T13:55:05.152Z</time></trkpt><trkpt lat="46.0263073" lon="12.9044853"><ele>67.4</ele><time>2026-03-28T13:55:06.153Z</time></trkpt><trkpt lat="46.02619" lon="12.9044506"><ele>67.0</ele><time>2026-03-28T13:55:07.152Z</time></trkpt><trkpt lat="46.0260709" lon="12.9044136"><ele>67.0</ele><time>2026-03-28T13:55:08.152Z</time></trkpt><trkpt lat="46.025956" lon="12.9043735"><ele>67.0</ele><time>2026-03-28T13:55:09.153Z</time></trkpt><trkpt lat="46.0258436" lon="12.9043287"><ele>67.0</ele><time>2026-03-28T13:55:10.153Z</time></trkpt><trkpt lat="46.0257267" lon="12.9042835"><ele>67.0</ele><time>2026-03-28T13:55:11.152Z</time></trkpt><trkpt lat="46.0256048" lon="12.9042403"><ele>66.75</ele><time>2026-03-28T13:55:12.152Z</time></trkpt><trkpt lat="46.0254766" lon="12.9041917"><ele>66.5</ele><time>2026-03-28T13:55:13.152Z</time></trkpt><trkpt lat="46.0253508" lon="12.9041418"><ele>66.25</ele><time>2026-03-28T13:55:14.152Z</time></trkpt><trkpt lat="46.025235" lon="12.9040953"><ele>66.0</ele><time>2026-03-28T13:55:15.152Z</time></trkpt><trkpt lat="46.0251299" lon="12.904056"><ele>66.0</ele><time>2026-03-28T13:55:16.152Z</time></trkpt><trkpt lat="46.0250312" lon="12.9040219"><ele>66.0</ele><time>2026-03-28T13:55:17.152Z</time></trkpt><trkpt lat="46.0249375" lon="12.9039847"><ele>66.0</ele><time>2026-03-28T13:55:18.153Z</time></trkpt><trkpt lat="46.0248311" lon="12.9039398"><ele>66.0</ele><time>2026-03-28T13:55:19.152Z</time></trkpt><trkpt lat="46.0247006" lon="12.9038829"><ele>66.0</ele><time>2026-03-28T13:55:20.152Z</time></trkpt><trkpt lat="46.0245474" lon="12.9038117"><ele>66.33333333333333</ele><time>2026-03-28T13:55:21.152Z</time></trkpt><trkpt lat="46.024381" lon="12.9037339"><ele>66.66666666666666</ele><time>2026-03-28T13:55:22.152Z</time></trkpt><trkpt lat="46.0242148" lon="12.9036584"><ele>67.0</ele><time>2026-03-28T13:55:23.152Z</time></trkpt><trkpt lat="46.0240521" lon="12.9035856"><ele>67.0</ele><time>2026-03-28T13:55:24.152Z</time></trkpt><trkpt lat="46.0239036" lon="12.9035256"><ele>67.0</ele><time>2026-03-28T13:55:25.152Z</time></trkpt><trkpt lat="46.023761" lon="12.90347"><ele>67.0</ele><time>2026-03-28T13:55:26.152Z</time></trkpt><trkpt lat="46.0236251" lon="12.9034177"><ele>67.0</ele><time>2026-03-28T13:55:27.153Z</time></trkpt><trkpt lat="46.0234898" lon="12.9033766"><ele>67.0</ele><time>2026-03-28T13:55:28.153Z</time></trkpt><trkpt lat="46.0233534" lon="12.9033406"><ele>67.0</ele><time>2026-03-28T13:55:29.152Z</time></trkpt><trkpt lat="46.0232195" lon="12.9033065"><ele>67.0</ele><time>2026-03-28T13:55:30.152Z</time></trkpt><trkpt lat="46.0230874" lon="12.9032696"><ele>67.0</ele><time>2026-03-28T13:55:31.153Z</time></trkpt><trkpt lat="46.0229518" lon="12.9032408"><ele>67.0</ele><time>2026-03-28T13:55:32.152Z</time></trkpt><trkpt lat="46.0228124" lon="12.90322"><ele>67.0</ele><time>2026-03-28T13:55:33.152Z</time></trkpt><trkpt lat="46.0226717" lon="12.9032018"><ele>67.0</ele><time>2026-03-28T13:55:34.152Z</time></trkpt><trkpt lat="46.0225351" lon="12.9031837"><ele>67.0</ele><time>2026-03-28T13:55:35.153Z</time></trkpt><trkpt lat="46.0224084" lon="12.9031657"><ele>65.0</ele><time>2026-03-28T13:55:36.152Z</time></trkpt><trkpt lat="46.0222916" lon="12.9031467"><ele>65.0</ele><time>2026-03-28T13:55:37.152Z</time></trkpt><trkpt lat="46.0221867" lon="12.903125"><ele>65.0</ele><time>2026-03-28T13:55:38.152Z</time></trkpt><trkpt lat="46.0220767" lon="12.9030983"><ele>65.0</ele><time>2026-03-28T13:55:39.153Z</time></trkpt><trkpt lat="46.021965" lon="12.9030717"><ele>65.0</ele><time>2026-03-28T13:55:40.152Z</time></trkpt></trkseg><trkseg><trkpt lat="46.0196183" lon="12.9027317"><ele>65.0</ele><time>2026-03-28T14:01:58.154Z</time></trkpt><trkpt lat="46.0195383" lon="12.9027433"><ele>65.0</ele><time>2026-03-28T14:01:59.154Z</time></trkpt><trkpt lat="46.0194483" lon="12.902745"><ele>65.0</ele><time>2026-03-28T14:02:00.154Z</time></trkpt><trkpt lat="46.0193583" lon="12.9027467"><ele>65.0</ele><time>2026-03-28T14:02:01.155Z</time></trkpt><trkpt lat="46.01926" lon="12.9027383"><ele>65.0</ele><time>2026-03-28T14:02:02.154Z</time></trkpt><trkpt lat="46.0191533" lon="12.9027183"><ele>65.0</ele><time>2026-03-28T14:02:03.154Z</time></trkpt><trkpt lat="46.0190617" lon="12.90269"><ele>65.0</ele><time>2026-03-28T14:02:04.154Z</time></trkpt><trkpt lat="46.0189717" lon="12.9026483"><ele>65.0</ele><time>2026-03-28T14:02:05.154Z</time></trkpt><trkpt lat="46.0188917" lon="12.9026033"><ele>65.0</ele><time>2026-03-28T14:02:06.155Z</time></trkpt><trkpt lat="46.0188117" lon="12.9025467"><ele>65.0</ele><time>2026-03-28T14:02:07.154Z</time></trkpt><trkpt lat="46.01873" lon="12.9024817"><ele>65.0</ele><time>2026-03-28T14:02:08.154Z</time></trkpt><trkpt lat="46.0186417" lon="12.902415"><ele>65.0</ele><time>2026-03-28T14:02:09.154Z</time></trkpt><trkpt lat="46.01856" lon="12.9023433"><ele>65.0</ele><time>2026-03-28T14:02:10.155Z</time></trkpt><trkpt lat="46.018485" lon="12.90226"><ele>65.0</ele><time>2026-03-28T14:02:11.155Z</time></trkpt><trkpt lat="46.0184233" lon="12.9021683"><ele>65.0</ele><time>2026-03-28T14:02:12.154Z</time></trkpt><trkpt lat="46.0183633" lon="12.90206"><ele>64.8</ele><time>2026-03-28T14:02:13.155Z</time></trkpt><trkpt lat="46.018305" lon="12.9019533"><ele>64.6</ele><time>2026-03-28T14:02:14.154Z</time></trkpt><trkpt lat="46.018245" lon="12.9018467"><ele>64.4</ele><time>2026-03-28T14:02:15.155Z</time></trkpt><trkpt lat="46.0181983" lon="12.9017533"><ele>64.2</ele><time>2026-03-28T14:02:16.154Z</time></trkpt><trkpt lat="46.01815" lon="12.9016883"><ele>64.0</ele><time>2026-03-28T14:02:17.154Z</time></trkpt><trkpt lat="46.018035" lon="12.90161"><ele>64.0</ele><time>2026-03-28T14:02:19.154Z</time></trkpt><trkpt lat="46.017955" lon="12.901565"><ele>64.0</ele><time>2026-03-28T14:02:20.155Z</time></trkpt><trkpt lat="46.0178517" lon="12.9015183"><ele>64.0</ele><time>2026-03-28T14:02:21.154Z</time></trkpt><trkpt lat="46.017755" lon="12.9014867"><ele>64.0</ele><time>2026-03-28T14:02:22.154Z</time></trkpt><trkpt lat="46.0176583" lon="12.9014617"><ele>64.0</ele><time>2026-03-28T14:02:23.155Z</time></trkpt><trkpt lat="46.017575" lon="12.9014417"><ele>64.0</ele><time>2026-03-28T14:02:24.154Z</time></trkpt><trkpt lat="46.0174883" lon="12.9014283"><ele>64.0</ele><time>2026-03-28T14:02:25.155Z</time></trkpt><trkpt lat="46.0173967" lon="12.9014267"><ele>64.0</ele><time>2026-03-28T14:02:26.154Z</time></trkpt><trkpt lat="46.01729" lon="12.9014417"><ele>64.0</ele><time>2026-03-28T14:02:27.154Z</time></trkpt><trkpt lat="46.0171783" lon="12.901475"><ele>64.0</ele><time>2026-03-28T14:02:28.155Z</time></trkpt><trkpt lat="46.0170617" lon="12.9015133"><ele>64.0</ele><time>2026-03-28T14:02:29.155Z</time></trkpt><trkpt lat="46.016945" lon="12.9015533"><ele>64.0</ele><time>2026-03-28T14:02:30.154Z</time></trkpt><trkpt lat="46.0168317" lon="12.901595"><ele>64.0</ele><time>2026-03-28T14:02:31.154Z</time></trkpt><trkpt lat="46.0167183" lon="12.9016467"><ele>64.0</ele><time>2026-03-28T14:02:32.154Z</time></trkpt><trkpt lat="46.0165933" lon="12.901695"><ele>64.0</ele><time>2026-03-28T14:02:33.154Z</time></trkpt><trkpt lat="46.0164667" lon="12.901735"><ele>64.0</ele><time>2026-03-28T14:02:34.155Z</time></trkpt><trkpt lat="46.0163383" lon="12.9017817"><ele>64.0</ele><time>2026-03-28T14:02:35.155Z</time></trkpt><trkpt lat="46.0162067" lon="12.9018267"><ele>64.0</ele><time>2026-03-28T14:02:36.155Z</time></trkpt><trkpt lat="46.0160667" lon="12.9018667"><ele>64.0</ele><time>2026-03-28T14:02:37.155Z</time></trkpt><trkpt lat="46.0159267" lon="12.9019083"><ele>64.0</ele><time>2026-03-28T14:02:38.155Z</time></trkpt><trkpt lat="46.01579" lon="12.9019333"><ele>64.0</ele><time>2026-03-28T14:02:39.154Z</time></trkpt><trkpt lat="46.01565" lon="12.9019483"><ele>64.0</ele><time>2026-03-28T14:02:40.154Z</time></trkpt><trkpt lat="46.0155183" lon="12.9019633"><ele>64.25</ele><time>2026-03-28T14:02:41.154Z</time></trkpt><trkpt lat="46.0153817" lon="12.90197"><ele>64.5</ele><time>2026-03-28T14:02:42.154Z</time></trkpt><trkpt lat="46.015245" lon="12.9019733"><ele>64.75</ele><time>2026-03-28T14:02:43.154Z</time></trkpt><trkpt lat="46.0151133" lon="12.9019683"><ele>65.0</ele><time>2026-03-28T14:02:44.154Z</time></trkpt><trkpt lat="46.0149933" lon="12.9019517"><ele>65.0</ele><time>2026-03-28T14:02:45.154Z</time></trkpt><trkpt lat="46.0148733" lon="12.90192"><ele>65.0</ele><time>2026-03-28T14:02:46.154Z</time></trkpt><trkpt lat="46.0147527" lon="12.9018757"><ele>65.0</ele><time>2026-03-28T14:02:47.155Z</time></trkpt><trkpt lat="46.0146263" lon="12.9018271"><ele>65.0</ele><time>2026-03-28T14:02:48.155Z</time></trkpt><trkpt lat="46.0144981" lon="12.9017802"><ele>65.0</ele><time>2026-03-28T14:02:49.155Z</time></trkpt><trkpt lat="46.0143703" lon="12.9017407"><ele>65.0</ele><time>2026-03-28T14:02:50.155Z</time></trkpt><trkpt lat="46.0142373" lon="12.9017091"><ele>65.0</ele><time>2026-03-28T14:02:51.154Z</time></trkpt><trkpt lat="46.0141042" lon="12.9016895"><ele>65.0</ele><time>2026-03-28T14:02:52.154Z</time></trkpt><trkpt lat="46.0139686" lon="12.9016832"><ele>65.0</ele><time>2026-03-28T14:02:53.154Z</time></trkpt><trkpt lat="46.0138231" lon="12.9016821"><ele>65.0</ele><time>2026-03-28T14:02:54.154Z</time></trkpt><trkpt lat="46.0136792" lon="12.9016829"><ele>65.0</ele><time>2026-03-28T14:02:55.154Z</time></trkpt><trkpt lat="46.0135367" lon="12.9016843"><ele>65.0</ele><time>2026-03-28T14:02:56.155Z</time></trkpt><trkpt lat="46.0133897" lon="12.9016814"><ele>65.0</ele><time>2026-03-28T14:02:57.154Z</time></trkpt><trkpt lat="46.0132406" lon="12.9016816"><ele>65.0</ele><time>2026-03-28T14:02:58.154Z</time></trkpt><trkpt lat="46.0130861" lon="12.9016828"><ele>65.0</ele><time>2026-03-28T14:02:59.154Z</time></trkpt><trkpt lat="46.0129287" lon="12.9016844"><ele>65.0</ele><time>2026-03-28T14:03:00.154Z</time></trkpt><trkpt lat="46.0127676" lon="12.9016896"><ele>65.0</ele><time>2026-03-28T14:03:01.154Z</time></trkpt><trkpt lat="46.0126002" lon="12.9016949"><ele>65.0</ele><time>2026-03-28T14:03:02.154Z</time></trkpt><trkpt lat="46.0124379" lon="12.9017035"><ele>64.66666666666667</ele><time>2026-03-28T14:03:03.154Z</time></trkpt><trkpt lat="46.0122819" lon="12.9017176"><ele>64.33333333333333</ele><time>2026-03-28T14:03:04.154Z</time></trkpt><trkpt lat="46.012125" lon="12.9017404"><ele>64.0</ele><time>2026-03-28T14:03:05.154Z</time></trkpt><trkpt lat="46.0119794" lon="12.901752"><ele>63.75</ele><time>2026-03-28T14:03:06.154Z</time></trkpt><trkpt lat="46.0118491" lon="12.9017734"><ele>63.5</ele><time>2026-03-28T14:03:07.154Z</time></trkpt><trkpt lat="46.0117258" lon="12.9018098"><ele>63.25</ele><time>2026-03-28T14:03:08.154Z</time></trkpt><trkpt lat="46.0116025" lon="12.9018505"><ele>63.0</ele><time>2026-03-28T14:03:09.154Z</time></trkpt><trkpt lat="46.0114822" lon="12.9018868"><ele>63.0</ele><time>2026-03-28T14:03:10.154Z</time></trkpt><trkpt lat="46.0113661" lon="12.9019219"><ele>63.0</ele><time>2026-03-28T14:03:11.155Z</time></trkpt><trkpt lat="46.0112615" lon="12.9019612"><ele>63.0</ele><time>2026-03-28T14:03:12.154Z</time></trkpt><trkpt lat="46.0111579" lon="12.9019847"><ele>63.0</ele><time>2026-03-28T14:03:13.154Z</time></trkpt><trkpt lat="46.0110532" lon="12.902003"><ele>63.0</ele><time>2026-03-28T14:03:14.154Z</time></trkpt><trkpt lat="46.0109478" lon="12.9020099"><ele>63.0</ele><time>2026-03-28T14:03:15.155Z</time></trkpt><trkpt lat="46.0108406" lon="12.9020065"><ele>63.0</ele><time>2026-03-28T14:03:16.154Z</time></trkpt><trkpt lat="46.0107326" lon="12.9019885"><ele>63.0</ele><time>2026-03-28T14:03:17.154Z</time></trkpt><trkpt lat="46.0106195" lon="12.901965"><ele>63.0</ele><time>2026-03-28T14:03:18.155Z</time></trkpt><trkpt lat="46.0105151" lon="12.901959"><ele>63.0</ele><time>2026-03-28T14:03:19.154Z</time></trkpt><trkpt lat="46.0104186" lon="12.9019631"><ele>62.75</ele><time>2026-03-28T14:03:20.154Z</time></trkpt><trkpt lat="46.0103251" lon="12.9019817"><ele>62.5</ele><time>2026-03-28T14:03:21.154Z</time></trkpt><trkpt lat="46.0102184" lon="12.9020116"><ele>62.25</ele><time>2026-03-28T14:03:22.155Z</time></trkpt><trkpt lat="46.0100971" lon="12.9020567"><ele>62.0</ele><time>2026-03-28T14:03:23.154Z</time></trkpt><trkpt lat="46.0099712" lon="12.9021189"><ele>61.75</ele><time>2026-03-28T14:03:24.154Z</time></trkpt><trkpt lat="46.0098502" lon="12.9021953"><ele>61.5</ele><time>2026-03-28T14:03:25.155Z</time></trkpt><trkpt lat="46.0097315" lon="12.9022683"><ele>61.25</ele><time>2026-03-28T14:03:26.154Z</time></trkpt><trkpt lat="46.009617" lon="12.9023408"><ele>61.0</ele><time>2026-03-28T14:03:27.155Z</time></trkpt><trkpt lat="46.0094938" lon="12.9024169"><ele>61.0</ele><time>2026-03-28T14:03:28.154Z</time></trkpt><trkpt lat="46.0093729" lon="12.9024908"><ele>61.0</ele><time>2026-03-28T14:03:29.154Z</time></trkpt><trkpt lat="46.0092483" lon="12.9025619"><ele>61.0</ele><time>2026-03-28T14:03:30.154Z</time></trkpt><trkpt lat="46.0091317" lon="12.9026383"><ele>61.0</ele><time>2026-03-28T14:03:31.154Z</time></trkpt><trkpt lat="46.009035" lon="12.9027283"><ele>60.8</ele><time>2026-03-28T14:03:32.154Z</time></trkpt><trkpt lat="46.0089433" lon="12.902815"><ele>60.599999999999994</ele><time>2026-03-28T14:03:33.155Z</time></trkpt><trkpt lat="46.00886" lon="12.9028933"><ele>60.4</ele><time>2026-03-28T14:03:34.155Z</time></trkpt><trkpt lat="46.0087717" lon="12.9029683"><ele>60.2</ele><time>2026-03-28T14:03:35.154Z</time></trkpt><trkpt lat="46.0086767" lon="12.9030367"><ele>60.0</ele><time>2026-03-28T14:03:36.155Z</time></trkpt><trkpt lat="46.0085717" lon="12.9031033"><ele>60.0</ele><time>2026-03-28T14:03:37.154Z</time></trkpt><trkpt lat="46.00845" lon="12.9031567"><ele>60.0</ele><time>2026-03-28T14:03:38.155Z</time></trkpt><trkpt lat="46.0083133" lon="12.90321"><ele>60.0</ele><time>2026-03-28T14:03:39.154Z</time></trkpt><trkpt lat="46.0081783" lon="12.90328"><ele>60.0</ele><time>2026-03-28T14:03:40.155Z</time></trkpt><trkpt lat="46.0080467" lon="12.90335"><ele>60.0</ele><time>2026-03-28T14:03:41.154Z</time></trkpt><trkpt lat="46.007915" lon="12.9034117"><ele>60.0</ele><time>2026-03-28T14:03:42.155Z</time></trkpt><trkpt lat="46.00778" lon="12.903455"><ele>60.0</ele><time>2026-03-28T14:03:43.154Z</time></trkpt><trkpt lat="46.0076567" lon="12.90351"><ele>60.0</ele><time>2026-03-28T14:03:44.155Z</time></trkpt><trkpt lat="46.0075383" lon="12.9035667"><ele>60.0</ele><time>2026-03-28T14:03:45.154Z</time></trkpt><trkpt lat="46.0074267" lon="12.9036233"><ele>60.0</ele><time>2026-03-28T14:03:46.154Z</time></trkpt><trkpt lat="46.007315" lon="12.9036767"><ele>60.0</ele><time>2026-03-28T14:03:47.155Z</time></trkpt><trkpt lat="46.0072033" lon="12.9037283"><ele>60.0</ele><time>2026-03-28T14:03:48.154Z</time></trkpt><trkpt lat="46.0071" lon="12.903775"><ele>60.0</ele><time>2026-03-28T14:03:49.154Z</time></trkpt><trkpt lat="46.0070017" lon="12.90383"><ele>60.0</ele><time>2026-03-28T14:03:50.155Z</time></trkpt><trkpt lat="46.0069083" lon="12.90389"><ele>60.0</ele><time>2026-03-28T14:03:51.154Z</time></trkpt><trkpt lat="46.0068133" lon="12.90395"><ele>60.0</ele><time>2026-03-28T14:03:52.155Z</time></trkpt><trkpt lat="46.00671" lon="12.9040083"><ele>60.0</ele><time>2026-03-28T14:03:53.155Z</time></trkpt><trkpt lat="46.0066133" lon="12.9040683"><ele>60.0</ele><time>2026-03-28T14:03:54.154Z</time></trkpt><trkpt lat="46.0065233" lon="12.9041283"><ele>60.0</ele><time>2026-03-28T14:03:55.154Z</time></trkpt><trkpt lat="46.006445" lon="12.9041833"><ele>60.0</ele><time>2026-03-28T14:03:56.154Z</time></trkpt><trkpt lat="46.006305" lon="12.9043"><ele>60.0</ele><time>2026-03-28T14:03:58.154Z</time></trkpt><trkpt lat="46.0062383" lon="12.904355"><ele>60.0</ele><time>2026-03-28T14:03:59.154Z</time></trkpt><trkpt lat="46.0061617" lon="12.9043967"><ele>60.0</ele><time>2026-03-28T14:04:00.154Z</time></trkpt><trkpt lat="46.0060733" lon="12.90444"><ele>60.0</ele><time>2026-03-28T14:04:01.155Z</time></trkpt><trkpt lat="46.00596" lon="12.9044833"><ele>60.0</ele><time>2026-03-28T14:04:02.154Z</time></trkpt><trkpt lat="46.00584" lon="12.9045267"><ele>60.0</ele><time>2026-03-28T14:04:03.155Z</time></trkpt><trkpt lat="46.0057417" lon="12.90456"><ele>60.0</ele><time>2026-03-28T14:04:04.154Z</time></trkpt><trkpt lat="46.0056567" lon="12.9045983"><ele>59.8</ele><time>2026-03-28T14:04:05.154Z</time></trkpt><trkpt lat="46.0055767" lon="12.9046267"><ele>59.6</ele><time>2026-03-28T14:04:06.154Z</time></trkpt><trkpt lat="46.00549" lon="12.9046633"><ele>59.400000000000006</ele><time>2026-03-28T14:04:07.155Z</time></trkpt><trkpt lat="46.0054" lon="12.9046933"><ele>59.2</ele><time>2026-03-28T14:04:08.154Z</time></trkpt><trkpt lat="46.0053017" lon="12.9047433"><ele>59.0</ele><time>2026-03-28T14:04:09.154Z</time></trkpt><trkpt lat="46.00519" lon="12.9047967"><ele>59.0</ele><time>2026-03-28T14:04:10.155Z</time></trkpt><trkpt lat="46.005075" lon="12.9048467"><ele>59.0</ele><time>2026-03-28T14:04:11.155Z</time></trkpt><trkpt lat="46.00496" lon="12.9049133"><ele>59.0</ele><time>2026-03-28T14:04:12.154Z</time></trkpt><trkpt lat="46.004845" lon="12.904975"><ele>59.0</ele><time>2026-03-28T14:04:13.154Z</time></trkpt><trkpt lat="46.0047333" lon="12.9050233"><ele>59.0</ele><time>2026-03-28T14:04:14.154Z</time></trkpt><trkpt lat="46.0046217" lon="12.90506"><ele>59.0</ele><time>2026-03-28T14:04:15.155Z</time></trkpt><trkpt lat="46.0045067" lon="12.9050733"><ele>59.0</ele><time>2026-03-28T14:04:16.154Z</time></trkpt><trkpt lat="46.0043833" lon="12.90508"><ele>59.0</ele><time>2026-03-28T14:04:17.154Z</time></trkpt><trkpt lat="46.0042533" lon="12.905085"><ele>59.5</ele><time>2026-03-28T14:04:18.154Z</time></trkpt><trkpt lat="46.0041167" lon="12.9050933"><ele>60.0</ele><time>2026-03-28T14:04:19.154Z</time></trkpt><trkpt lat="46.0039767" lon="12.9051133"><ele>60.5</ele><time>2026-03-28T14:04:20.154Z</time></trkpt><trkpt lat="46.003835" lon="12.9051317"><ele>61.0</ele><time>2026-03-28T14:04:21.154Z</time></trkpt><trkpt lat="46.0036967" lon="12.905145"><ele>61.0</ele><time>2026-03-28T14:04:22.154Z</time></trkpt><trkpt lat="46.0035583" lon="12.9051617"><ele>61.0</ele><time>2026-03-28T14:04:23.155Z</time></trkpt><trkpt lat="46.0034183" lon="12.9051733"><ele>61.0</ele><time>2026-03-28T14:04:24.154Z</time></trkpt><trkpt lat="46.00328" lon="12.905185"><ele>61.0</ele><time>2026-03-28T14:04:25.155Z</time></trkpt><trkpt lat="46.0031383" lon="12.9051867"><ele>60.33333333333333</ele><time>2026-03-28T14:04:26.155Z</time></trkpt><trkpt lat="46.00299" lon="12.9051783"><ele>59.66666666666667</ele><time>2026-03-28T14:04:27.154Z</time></trkpt><trkpt lat="46.0028333" lon="12.9051633"><ele>59.0</ele><time>2026-03-28T14:04:28.154Z</time></trkpt><trkpt lat="46.002675" lon="12.905135"><ele>59.0</ele><time>2026-03-28T14:04:29.154Z</time></trkpt><trkpt lat="46.0025133" lon="12.905115"><ele>59.0</ele><time>2026-03-28T14:04:30.154Z</time></trkpt><trkpt lat="46.0023467" lon="12.9050933"><ele>59.0</ele><time>2026-03-28T14:04:31.154Z</time></trkpt><trkpt lat="46.0021833" lon="12.9050717"><ele>58.333333333333336</ele><time>2026-03-28T14:04:32.154Z</time></trkpt><trkpt lat="46.00203" lon="12.9050517"><ele>57.66666666666667</ele><time>2026-03-28T14:04:33.154Z</time></trkpt><trkpt lat="46.0018783" lon="12.9050267"><ele>57.0</ele><time>2026-03-28T14:04:34.154Z</time></trkpt><trkpt lat="46.0017233" lon="12.90501"><ele>57.33333333333333</ele><time>2026-03-28T14:04:35.154Z</time></trkpt><trkpt lat="46.001565" lon="12.90499"><ele>57.666666666666664</ele><time>2026-03-28T14:04:36.154Z</time></trkpt><trkpt lat="46.00141" lon="12.9049617"><ele>58.0</ele><time>2026-03-28T14:04:37.154Z</time></trkpt><trkpt lat="46.0012617" lon="12.904945"><ele>58.0</ele><time>2026-03-28T14:04:38.155Z</time></trkpt><trkpt lat="46.0011133" lon="12.9049233"><ele>58.0</ele><time>2026-03-28T14:04:39.154Z</time></trkpt><trkpt lat="46.00097" lon="12.9049067"><ele>58.0</ele><time>2026-03-28T14:04:40.154Z</time></trkpt><trkpt lat="46.00083" lon="12.9049017"><ele>58.0</ele><time>2026-03-28T14:04:41.154Z</time></trkpt><trkpt lat="46.0006883" lon="12.9049067"><ele>58.0</ele><time>2026-03-28T14:04:42.154Z</time></trkpt><trkpt lat="46.000545" lon="12.9049117"><ele>58.0</ele><time>2026-03-28T14:04:43.155Z</time></trkpt><trkpt lat="46.0003967" lon="12.9049133"><ele>58.0</ele><time>2026-03-28T14:04:44.154Z</time></trkpt><trkpt lat="46.00025" lon="12.9049"><ele>58.0</ele><time>2026-03-28T14:04:45.155Z</time></trkpt><trkpt lat="46.0000983" lon="12.90487"><ele>58.0</ele><time>2026-03-28T14:04:46.154Z</time></trkpt><trkpt lat="45.9999367" lon="12.9048317"><ele>58.0</ele><time>2026-03-28T14:04:47.154Z</time></trkpt><trkpt lat="45.99978" lon="12.904785"><ele>58.0</ele><time>2026-03-28T14:04:48.154Z</time></trkpt><trkpt lat="45.99963" lon="12.9047383"><ele>58.0</ele><time>2026-03-28T14:04:49.154Z</time></trkpt><trkpt lat="45.999485" lon="12.9046917"><ele>58.0</ele><time>2026-03-28T14:04:50.154Z</time></trkpt><trkpt lat="45.99934" lon="12.9046433"><ele>58.0</ele><time>2026-03-28T14:04:51.154Z</time></trkpt><trkpt lat="45.999205" lon="12.9045917"><ele>58.0</ele><time>2026-03-28T14:04:52.154Z</time></trkpt><trkpt lat="45.9990767" lon="12.904535"><ele>57.5</ele><time>2026-03-28T14:04:53.155Z</time></trkpt><trkpt lat="45.998955" lon="12.9044933"><ele>57.0</ele><time>2026-03-28T14:04:54.154Z</time></trkpt><trkpt lat="45.99884" lon="12.9044417"><ele>56.5</ele><time>2026-03-28T14:04:55.155Z</time></trkpt><trkpt lat="45.998715" lon="12.9043917"><ele>56.0</ele><time>2026-03-28T14:04:56.154Z</time></trkpt><trkpt lat="45.9985867" lon="12.9043417"><ele>56.0</ele><time>2026-03-28T14:04:57.154Z</time></trkpt><trkpt lat="45.99846" lon="12.9042917"><ele>56.0</ele><time>2026-03-28T14:04:58.154Z</time></trkpt><trkpt lat="45.99835" lon="12.90424"><ele>56.0</ele><time>2026-03-28T14:04:59.154Z</time></trkpt><trkpt lat="45.9982433" lon="12.9041767"><ele>56.0</ele><time>2026-03-28T14:05:00.154Z</time></trkpt><trkpt lat="45.9981417" lon="12.9041"><ele>56.25</ele><time>2026-03-28T14:05:01.154Z</time></trkpt><trkpt lat="45.9980417" lon="12.9040033"><ele>56.5</ele><time>2026-03-28T14:05:02.154Z</time></trkpt><trkpt lat="45.99793" lon="12.9038767"><ele>56.75</ele><time>2026-03-28T14:05:03.155Z</time></trkpt><trkpt lat="45.9978133" lon="12.9037333"><ele>57.0</ele><time>2026-03-28T14:05:04.154Z</time></trkpt><trkpt lat="45.9976883" lon="12.9035967"><ele>57.0</ele><time>2026-03-28T14:05:05.155Z</time></trkpt><trkpt lat="45.9975633" lon="12.9034617"><ele>57.0</ele><time>2026-03-28T14:05:06.154Z</time></trkpt><trkpt lat="45.997435" lon="12.9033333"><ele>57.0</ele><time>2026-03-28T14:05:07.154Z</time></trkpt><trkpt lat="45.9973017" lon="12.9032033"><ele>57.66666666666667</ele><time>2026-03-28T14:05:08.154Z</time></trkpt><trkpt lat="45.9971717" lon="12.9030783"><ele>58.333333333333336</ele><time>2026-03-28T14:05:09.154Z</time></trkpt><trkpt lat="45.9970483" lon="12.902935"><ele>59.0</ele><time>2026-03-28T14:05:10.154Z</time></trkpt><trkpt lat="45.9969233" lon="12.9027867"><ele>59.0</ele><time>2026-03-28T14:05:11.154Z</time></trkpt><trkpt lat="45.9968" lon="12.9026317"><ele>59.0</ele><time>2026-03-28T14:05:12.154Z</time></trkpt><trkpt lat="45.9966817" lon="12.9024883"><ele>59.0</ele><time>2026-03-28T14:05:13.154Z</time></trkpt><trkpt lat="45.9965633" lon="12.902365"><ele>58.75</ele><time>2026-03-28T14:05:14.155Z</time></trkpt><trkpt lat="45.9964383" lon="12.90227"><ele>58.5</ele><time>2026-03-28T14:05:15.154Z</time></trkpt><trkpt lat="45.9963133" lon="12.90219"><ele>58.25</ele><time>2026-03-28T14:05:16.154Z</time></trkpt><trkpt lat="45.9961917" lon="12.9021267"><ele>58.0</ele><time>2026-03-28T14:05:17.155Z</time></trkpt><trkpt lat="45.9960683" lon="12.9020733"><ele>58.0</ele><time>2026-03-28T14:05:18.155Z</time></trkpt><trkpt lat="45.9959467" lon="12.9020317"><ele>58.0</ele><time>2026-03-28T14:05:19.154Z</time></trkpt><trkpt lat="45.9958167" lon="12.9019883"><ele>58.0</ele><time>2026-03-28T14:05:20.154Z</time></trkpt><trkpt lat="45.99568" lon="12.9019417"><ele>58.0</ele><time>2026-03-28T14:05:21.154Z</time></trkpt><trkpt lat="45.9955333" lon="12.901885"><ele>58.0</ele><time>2026-03-28T14:05:22.154Z</time></trkpt><trkpt lat="45.9953767" lon="12.901825"><ele>58.0</ele><time>2026-03-28T14:05:23.154Z</time></trkpt><trkpt lat="45.995215" lon="12.9017667"><ele>58.0</ele><time>2026-03-28T14:05:24.154Z</time></trkpt><trkpt lat="45.99505" lon="12.9017267"><ele>57.33333333333333</ele><time>2026-03-28T14:05:25.154Z</time></trkpt><trkpt lat="45.99489" lon="12.9017067"><ele>56.66666666666667</ele><time>2026-03-28T14:05:26.154Z</time></trkpt><trkpt lat="45.9947333" lon="12.9017"><ele>56.0</ele><time>2026-03-28T14:05:27.154Z</time></trkpt><trkpt lat="45.9945717" lon="12.9017083"><ele>56.0</ele><time>2026-03-28T14:05:28.154Z</time></trkpt><trkpt lat="45.9944067" lon="12.90173"><ele>56.0</ele><time>2026-03-28T14:05:29.154Z</time></trkpt><trkpt lat="45.9942383" lon="12.9017617"><ele>56.0</ele><time>2026-03-28T14:05:30.154Z</time></trkpt><trkpt lat="45.9940667" lon="12.9018083"><ele>55.66666666666667</ele><time>2026-03-28T14:05:31.154Z</time></trkpt><trkpt lat="45.9938967" lon="12.9018517"><ele>55.33333333333333</ele><time>2026-03-28T14:05:32.155Z</time></trkpt><trkpt lat="45.9937367" lon="12.9019083"><ele>55.0</ele><time>2026-03-28T14:05:33.155Z</time></trkpt><trkpt lat="45.9935867" lon="12.9019617"><ele>55.0</ele><time>2026-03-28T14:05:34.154Z</time></trkpt><trkpt lat="45.9934483" lon="12.9020117"><ele>55.0</ele><time>2026-03-28T14:05:35.154Z</time></trkpt><trkpt lat="45.9933233" lon="12.902055"><ele>55.0</ele><time>2026-03-28T14:05:36.154Z</time></trkpt><trkpt lat="45.9931983" lon="12.90208"><ele>55.0</ele><time>2026-03-28T14:05:37.154Z</time></trkpt><trkpt lat="45.9930733" lon="12.9020767"><ele>54.666666666666664</ele><time>2026-03-28T14:05:38.154Z</time></trkpt><trkpt lat="45.992925" lon="12.9020567"><ele>54.33333333333333</ele><time>2026-03-28T14:05:39.153Z</time></trkpt><trkpt lat="45.992775" lon="12.9020233"><ele>54.0</ele><time>2026-03-28T14:05:40.153Z</time></trkpt><trkpt lat="45.9926067" lon="12.901995"><ele>54.0</ele><time>2026-03-28T14:05:41.153Z</time></trkpt><trkpt lat="45.9924383" lon="12.9019717"><ele>54.0</ele><time>2026-03-28T14:05:42.154Z</time></trkpt><trkpt lat="45.99227" lon="12.9019517"><ele>54.0</ele><time>2026-03-28T14:05:43.153Z</time></trkpt><trkpt lat="45.9921067" lon="12.901935"><ele>54.0</ele><time>2026-03-28T14:05:44.153Z</time></trkpt><trkpt lat="45.991945" lon="12.9019367"><ele>54.0</ele><time>2026-03-28T14:05:45.153Z</time></trkpt><trkpt lat="45.9917867" lon="12.90194"><ele>54.0</ele><time>2026-03-28T14:05:46.153Z</time></trkpt><trkpt lat="45.9916333" lon="12.90195"><ele>54.25</ele><time>2026-03-28T14:05:47.153Z</time></trkpt><trkpt lat="45.99148" lon="12.901955"><ele>54.5</ele><time>2026-03-28T14:05:48.153Z</time></trkpt><trkpt lat="45.9913283" lon="12.90196"><ele>54.75</ele><time>2026-03-28T14:05:49.153Z</time></trkpt><trkpt lat="45.99119" lon="12.9019633"><ele>55.0</ele><time>2026-03-28T14:05:50.153Z</time></trkpt><trkpt lat="45.9910533" lon="12.9019567"><ele>55.0</ele><time>2026-03-28T14:05:51.153Z</time></trkpt><trkpt lat="45.990915" lon="12.9019383"><ele>55.0</ele><time>2026-03-28T14:05:52.154Z</time></trkpt><trkpt lat="45.9907617" lon="12.9018917"><ele>55.0</ele><time>2026-03-28T14:05:53.153Z</time></trkpt><trkpt lat="45.9906083" lon="12.9018317"><ele>54.666666666666664</ele><time>2026-03-28T14:05:54.153Z</time></trkpt><trkpt lat="45.99045" lon="12.9017533"><ele>54.33333333333333</ele><time>2026-03-28T14:05:55.154Z</time></trkpt><trkpt lat="45.9902833" lon="12.9016667"><ele>54.0</ele><time>2026-03-28T14:05:56.154Z</time></trkpt><trkpt lat="45.9901067" lon="12.9015717"><ele>54.33333333333333</ele><time>2026-03-28T14:05:57.153Z</time></trkpt><trkpt lat="45.9899333" lon="12.9014883"><ele>54.666666666666664</ele><time>2026-03-28T14:05:58.153Z</time></trkpt><trkpt lat="45.989765" lon="12.901405"><ele>55.0</ele><time>2026-03-28T14:05:59.154Z</time></trkpt><trkpt lat="45.9895983" lon="12.90134"><ele>55.0</ele><time>2026-03-28T14:06:00.153Z</time></trkpt><trkpt lat="45.9894383" lon="12.9012883"><ele>55.0</ele><time>2026-03-28T14:06:01.154Z</time></trkpt><trkpt lat="45.9892683" lon="12.9012417"><ele>55.0</ele><time>2026-03-28T14:06:02.154Z</time></trkpt><trkpt lat="45.9891" lon="12.901205"><ele>54.33333333333333</ele><time>2026-03-28T14:06:03.154Z</time></trkpt><trkpt lat="45.98895" lon="12.90116"><ele>53.66666666666667</ele><time>2026-03-28T14:06:04.154Z</time></trkpt><trkpt lat="45.988805" lon="12.9011067"><ele>53.0</ele><time>2026-03-28T14:06:05.153Z</time></trkpt><trkpt lat="45.988665" lon="12.901035"><ele>53.0</ele><time>2026-03-28T14:06:06.154Z</time></trkpt><trkpt lat="45.9885283" lon="12.90092"><ele>53.0</ele><time>2026-03-28T14:06:07.154Z</time></trkpt><trkpt lat="45.9883967" lon="12.9007867"><ele>53.0</ele><time>2026-03-28T14:06:08.153Z</time></trkpt><trkpt lat="45.988255" lon="12.90064"><ele>53.333333333333336</ele><time>2026-03-28T14:06:09.153Z</time></trkpt><trkpt lat="45.9881117" lon="12.9005117"><ele>53.66666666666667</ele><time>2026-03-28T14:06:10.153Z</time></trkpt><trkpt lat="45.987965" lon="12.9004"><ele>54.0</ele><time>2026-03-28T14:06:11.153Z</time></trkpt><trkpt lat="45.9878117" lon="12.90031"><ele>54.0</ele><time>2026-03-28T14:06:12.154Z</time></trkpt><trkpt lat="45.9876533" lon="12.9002333"><ele>54.0</ele><time>2026-03-28T14:06:13.153Z</time></trkpt><trkpt lat="45.987485" lon="12.90017"><ele>54.0</ele><time>2026-03-28T14:06:14.153Z</time></trkpt><trkpt lat="45.9873017" lon="12.90011"><ele>53.33333333333333</ele><time>2026-03-28T14:06:15.153Z</time></trkpt><trkpt lat="45.9871267" lon="12.9000567"><ele>52.666666666666664</ele><time>2026-03-28T14:06:16.154Z</time></trkpt><trkpt lat="45.986955" lon="12.9000083"><ele>52.0</ele><time>2026-03-28T14:06:17.153Z</time></trkpt><trkpt lat="45.98678" lon="12.899955"><ele>52.0</ele><time>2026-03-28T14:06:18.154Z</time></trkpt><trkpt lat="45.9865983" lon="12.8999"><ele>52.0</ele><time>2026-03-28T14:06:19.153Z</time></trkpt><trkpt lat="45.9864133" lon="12.8998483"><ele>52.0</ele><time>2026-03-28T14:06:20.153Z</time></trkpt><trkpt lat="45.9862233" lon="12.8997983"><ele>52.0</ele><time>2026-03-28T14:06:21.154Z</time></trkpt><trkpt lat="45.98605" lon="12.899755"><ele>52.0</ele><time>2026-03-28T14:06:22.153Z</time></trkpt><trkpt lat="45.985885" lon="12.8997233"><ele>52.0</ele><time>2026-03-28T14:06:23.154Z</time></trkpt><trkpt lat="45.9857333" lon="12.8996933"><ele>51.75</ele><time>2026-03-28T14:06:24.153Z</time></trkpt><trkpt lat="45.9855917" lon="12.899655"><ele>51.5</ele><time>2026-03-28T14:06:25.153Z</time></trkpt><trkpt lat="45.9854633" lon="12.8996033"><ele>51.25</ele><time>2026-03-28T14:06:26.153Z</time></trkpt><trkpt lat="45.9853367" lon="12.8995317"><ele>51.0</ele><time>2026-03-28T14:06:27.154Z</time></trkpt><trkpt lat="45.9852033" lon="12.89944"><ele>51.0</ele><time>2026-03-28T14:06:28.153Z</time></trkpt><trkpt lat="45.9850533" lon="12.8993267"><ele>51.0</ele><time>2026-03-28T14:06:29.153Z</time></trkpt><trkpt lat="45.9849017" lon="12.8992017"><ele>51.0</ele><time>2026-03-28T14:06:30.153Z</time></trkpt><trkpt lat="45.9847567" lon="12.8990783"><ele>51.0</ele><time>2026-03-28T14:06:31.153Z</time></trkpt><trkpt lat="45.98461" lon="12.8989833"><ele>51.0</ele><time>2026-03-28T14:06:32.153Z</time></trkpt><trkpt lat="45.9844667" lon="12.898925"><ele>51.0</ele><time>2026-03-28T14:06:33.154Z</time></trkpt><trkpt lat="45.984325" lon="12.8988883"><ele>51.0</ele><time>2026-03-28T14:06:34.153Z</time></trkpt><trkpt lat="45.9841717" lon="12.8988667"><ele>51.0</ele><time>2026-03-28T14:06:35.153Z</time></trkpt><trkpt lat="45.9840083" lon="12.89885"><ele>51.0</ele><time>2026-03-28T14:06:36.153Z</time></trkpt><trkpt lat="45.9838533" lon="12.8988367"><ele>51.0</ele><time>2026-03-28T14:06:37.153Z</time></trkpt><trkpt lat="45.9837083" lon="12.8988083"><ele>51.0</ele><time>2026-03-28T14:06:38.154Z</time></trkpt><trkpt lat="45.9835667" lon="12.8987733"><ele>51.0</ele><time>2026-03-28T14:06:39.153Z</time></trkpt><trkpt lat="45.9834283" lon="12.8987267"><ele>51.0</ele><time>2026-03-28T14:06:40.153Z</time></trkpt><trkpt lat="45.9832783" lon="12.8986583"><ele>50.66666666666667</ele><time>2026-03-28T14:06:41.153Z</time></trkpt><trkpt lat="45.983125" lon="12.898575"><ele>50.333333333333336</ele><time>2026-03-28T14:06:42.153Z</time></trkpt><trkpt lat="45.9829617" lon="12.8984833"><ele>50.0</ele><time>2026-03-28T14:06:43.153Z</time></trkpt><trkpt lat="45.98281" lon="12.8983867"><ele>50.66666666666667</ele><time>2026-03-28T14:06:44.153Z</time></trkpt><trkpt lat="45.9826567" lon="12.8983"><ele>51.33333333333333</ele><time>2026-03-28T14:06:45.154Z</time></trkpt><trkpt lat="45.9824983" lon="12.89823"><ele>52.0</ele><time>2026-03-28T14:06:46.153Z</time></trkpt><trkpt lat="45.9823333" lon="12.8981867"><ele>52.33333333333333</ele><time>2026-03-28T14:06:47.154Z</time></trkpt><trkpt lat="45.982165" lon="12.8981583"><ele>52.66666666666667</ele><time>2026-03-28T14:06:48.153Z</time></trkpt><trkpt lat="45.9819967" lon="12.8981517"><ele>53.0</ele><time>2026-03-28T14:06:49.153Z</time></trkpt><trkpt lat="45.9818167" lon="12.8981583"><ele>52.333333333333336</ele><time>2026-03-28T14:06:50.153Z</time></trkpt><trkpt lat="45.9816367" lon="12.89816"><ele>51.66666666666667</ele><time>2026-03-28T14:06:51.153Z</time></trkpt><trkpt lat="45.9814767" lon="12.8981667"><ele>51.0</ele><time>2026-03-28T14:06:52.154Z</time></trkpt><trkpt lat="45.9813367" lon="12.8981567"><ele>51.0</ele><time>2026-03-28T14:06:53.153Z</time></trkpt><trkpt lat="45.9811983" lon="12.8981317"><ele>51.0</ele><time>2026-03-28T14:06:54.154Z</time></trkpt><trkpt lat="45.9810717" lon="12.89811"><ele>51.0</ele><time>2026-03-28T14:06:55.153Z</time></trkpt><trkpt lat="45.9809417" lon="12.8980817"><ele>51.0</ele><time>2026-03-28T14:06:56.154Z</time></trkpt><trkpt lat="45.980805" lon="12.89805"><ele>50.33333333333333</ele><time>2026-03-28T14:06:57.154Z</time></trkpt><trkpt lat="45.9806483" lon="12.8980183"><ele>49.666666666666664</ele><time>2026-03-28T14:06:58.153Z</time></trkpt><trkpt lat="45.9804733" lon="12.8979917"><ele>49.0</ele><time>2026-03-28T14:06:59.153Z</time></trkpt><trkpt lat="45.9802933" lon="12.89796"><ele>49.0</ele><time>2026-03-28T14:07:00.153Z</time></trkpt><trkpt lat="45.9801333" lon="12.897925"><ele>49.0</ele><time>2026-03-28T14:07:01.153Z</time></trkpt><trkpt lat="45.979975" lon="12.8978983"><ele>49.0</ele><time>2026-03-28T14:07:02.154Z</time></trkpt><trkpt lat="45.97981" lon="12.8978833"><ele>48.666666666666664</ele><time>2026-03-28T14:07:03.153Z</time></trkpt><trkpt lat="45.9796417" lon="12.8978767"><ele>48.33333333333333</ele><time>2026-03-28T14:07:04.153Z</time></trkpt><trkpt lat="45.97946" lon="12.897875"><ele>48.0</ele><time>2026-03-28T14:07:05.153Z</time></trkpt><trkpt lat="45.9792867" lon="12.8978767"><ele>48.0</ele><time>2026-03-28T14:07:06.154Z</time></trkpt><trkpt lat="45.9791083" lon="12.8978867"><ele>48.0</ele><time>2026-03-28T14:07:07.153Z</time></trkpt><trkpt lat="45.97894" lon="12.8978983"><ele>48.0</ele><time>2026-03-28T14:07:08.153Z</time></trkpt><trkpt lat="45.9787733" lon="12.8979067"><ele>48.0</ele><time>2026-03-28T14:07:09.154Z</time></trkpt><trkpt lat="45.9786167" lon="12.8979067"><ele>48.0</ele><time>2026-03-28T14:07:10.154Z</time></trkpt><trkpt lat="45.97847" lon="12.897905"><ele>48.0</ele><time>2026-03-28T14:07:11.153Z</time></trkpt><trkpt lat="45.9783383" lon="12.8979033"><ele>48.0</ele><time>2026-03-28T14:07:12.153Z</time></trkpt><trkpt lat="45.9782133" lon="12.8978917"><ele>48.166666666666664</ele><time>2026-03-28T14:07:13.154Z</time></trkpt><trkpt lat="45.9781" lon="12.8978733"><ele>48.33333333333333</ele><time>2026-03-28T14:07:14.153Z</time></trkpt><trkpt lat="45.97802" lon="12.897855"><ele>48.5</ele><time>2026-03-28T14:07:15.153Z</time></trkpt><trkpt lat="45.9779533" lon="12.89783"><ele>48.666666666666664</ele><time>2026-03-28T14:07:16.153Z</time></trkpt><trkpt lat="45.9778867" lon="12.8977883"><ele>48.83333333333333</ele><time>2026-03-28T14:07:17.153Z</time></trkpt><trkpt lat="45.97781" lon="12.8977233"><ele>49.0</ele><time>2026-03-28T14:07:19.153Z</time></trkpt><trkpt lat="45.9777817" lon="12.8976217"><ele>49.400000000000006</ele><time>2026-03-28T14:08:08.154Z</time></trkpt><trkpt lat="45.9777333" lon="12.89747"><ele>49.8</ele><time>2026-03-28T14:08:10.153Z</time></trkpt><trkpt lat="45.9777183" lon="12.897375"><ele>50.2</ele><time>2026-03-28T14:08:11.153Z</time></trkpt><trkpt lat="45.977705" lon="12.8972633"><ele>50.599999999999994</ele><time>2026-03-28T14:08:12.154Z</time></trkpt><trkpt lat="45.97771" lon="12.897135"><ele>51.0</ele><time>2026-03-28T14:08:13.154Z</time></trkpt><trkpt lat="45.97773" lon="12.89699"><ele>51.0</ele><time>2026-03-28T14:08:14.153Z</time></trkpt><trkpt lat="45.977765" lon="12.89681"><ele>51.0</ele><time>2026-03-28T14:08:15.153Z</time></trkpt><trkpt lat="45.9777917" lon="12.8966367"><ele>51.0</ele><time>2026-03-28T14:08:16.153Z</time></trkpt><trkpt lat="45.9778067" lon="12.8964867"><ele>51.0</ele><time>2026-03-28T14:08:17.153Z</time></trkpt><trkpt lat="45.9778167" lon="12.8963633"><ele>51.0</ele><time>2026-03-28T14:08:18.153Z</time></trkpt><trkpt lat="45.9778267" lon="12.89625"><ele>50.5</ele><time>2026-03-28T14:08:19.153Z</time></trkpt><trkpt lat="45.9778283" lon="12.8960683"><ele>50.0</ele><time>2026-03-28T14:08:21.154Z</time></trkpt><trkpt lat="45.9778317" lon="12.8959683"><ele>49.5</ele><time>2026-03-28T14:08:22.153Z</time></trkpt><trkpt lat="45.97784" lon="12.8958667"><ele>49.0</ele><time>2026-03-28T14:08:23.154Z</time></trkpt><trkpt lat="45.977845" lon="12.895765"><ele>48.5</ele><time>2026-03-28T14:08:24.154Z</time></trkpt><trkpt lat="45.9778517" lon="12.89565"><ele>48.0</ele><time>2026-03-28T14:08:25.154Z</time></trkpt><trkpt lat="45.9778783" lon="12.8953683"><ele>48.0</ele><time>2026-03-28T14:08:27.153Z</time></trkpt><trkpt lat="45.9778817" lon="12.8952283"><ele>48.0</ele><time>2026-03-28T14:08:28.153Z</time></trkpt><trkpt lat="45.9778667" lon="12.8950883"><ele>48.0</ele><time>2026-03-28T14:08:29.153Z</time></trkpt><trkpt lat="45.9778317" lon="12.8949333"><ele>48.0</ele><time>2026-03-28T14:08:30.153Z</time></trkpt><trkpt lat="45.9777967" lon="12.8947683"><ele>48.0</ele><time>2026-03-28T14:08:31.153Z</time></trkpt><trkpt lat="45.9777867" lon="12.8946117"><ele>48.0</ele><time>2026-03-28T14:08:32.154Z</time></trkpt><trkpt lat="45.9777917" lon="12.89445"><ele>48.0</ele><time>2026-03-28T14:08:33.154Z</time></trkpt><trkpt lat="45.9778083" lon="12.8943017"><ele>48.0</ele><time>2026-03-28T14:08:34.153Z</time></trkpt><trkpt lat="45.9778217" lon="12.894165"><ele>48.0</ele><time>2026-03-28T14:08:35.153Z</time></trkpt><trkpt lat="45.9778233" lon="12.89405"><ele>48.0</ele><time>2026-03-28T14:08:36.153Z</time></trkpt><trkpt lat="45.977795" lon="12.8939"><ele>48.0</ele><time>2026-03-28T14:08:38.153Z</time></trkpt><trkpt lat="45.9776867" lon="12.89382"><ele>48.0</ele><time>2026-03-28T14:08:40.153Z</time></trkpt><trkpt lat="45.9776017" lon="12.8937883"><ele>48.0</ele><time>2026-03-28T14:08:41.153Z</time></trkpt><trkpt lat="45.977495" lon="12.8937617"><ele>48.0</ele><time>2026-03-28T14:08:42.153Z</time></trkpt><trkpt lat="45.9773667" lon="12.89374"><ele>48.0</ele><time>2026-03-28T14:08:43.153Z</time></trkpt><trkpt lat="45.9772233" lon="12.8937083"><ele>48.33333333333333</ele><time>2026-03-28T14:08:44.153Z</time></trkpt><trkpt lat="45.9770633" lon="12.89367"><ele>48.666666666666664</ele><time>2026-03-28T14:08:45.153Z</time></trkpt><trkpt lat="45.9768883" lon="12.8936233"><ele>49.0</ele><time>2026-03-28T14:08:46.153Z</time></trkpt><trkpt lat="45.976715" lon="12.8935667"><ele>49.0</ele><time>2026-03-28T14:08:47.153Z</time></trkpt><trkpt lat="45.9765467" lon="12.8935133"><ele>49.0</ele><time>2026-03-28T14:08:48.153Z</time></trkpt><trkpt lat="45.9763583" lon="12.8934567"><ele>49.0</ele><time>2026-03-28T14:08:49.153Z</time></trkpt><trkpt lat="45.9761633" lon="12.8934133"><ele>49.0</ele><time>2026-03-28T14:08:50.154Z</time></trkpt><trkpt lat="45.9759633" lon="12.8933667"><ele>49.0</ele><time>2026-03-28T14:08:51.153Z</time></trkpt><trkpt lat="45.9757617" lon="12.893315"><ele>49.0</ele><time>2026-03-28T14:08:52.153Z</time></trkpt><trkpt lat="45.9755567" lon="12.8932633"><ele>49.33333333333333</ele><time>2026-03-28T14:08:53.153Z</time></trkpt><trkpt lat="45.9753517" lon="12.8932033"><ele>49.66666666666667</ele><time>2026-03-28T14:08:54.153Z</time></trkpt><trkpt lat="45.9751417" lon="12.8931383"><ele>50.0</ele><time>2026-03-28T14:08:55.153Z</time></trkpt><trkpt lat="45.9749333" lon="12.8930833"><ele>50.0</ele><time>2026-03-28T14:08:56.153Z</time></trkpt><trkpt lat="45.9747267" lon="12.8930333"><ele>50.0</ele><time>2026-03-28T14:08:57.153Z</time></trkpt><trkpt lat="45.974515" lon="12.8929883"><ele>50.0</ele><time>2026-03-28T14:08:58.154Z</time></trkpt><trkpt lat="45.9743133" lon="12.8929483"><ele>50.0</ele><time>2026-03-28T14:08:59.153Z</time></trkpt><trkpt lat="45.9741167" lon="12.8929167"><ele>50.0</ele><time>2026-03-28T14:09:00.154Z</time></trkpt><trkpt lat="45.9739383" lon="12.892885"><ele>50.0</ele><time>2026-03-28T14:09:01.153Z</time></trkpt><trkpt lat="45.97376" lon="12.8928517"><ele>50.0</ele><time>2026-03-28T14:09:02.153Z</time></trkpt><trkpt lat="45.973615" lon="12.8928183"><ele>50.0</ele><time>2026-03-28T14:09:03.153Z</time></trkpt><trkpt lat="45.9734933" lon="12.8927833"><ele>50.0</ele><time>2026-03-28T14:09:04.153Z</time></trkpt><trkpt lat="45.9734" lon="12.8927517"><ele>50.0</ele><time>2026-03-28T14:09:05.153Z</time></trkpt><trkpt lat="45.973325" lon="12.892715"><ele>50.0</ele><time>2026-03-28T14:09:06.153Z</time></trkpt><trkpt lat="45.9732567" lon="12.8926767"><ele>49.833333333333336</ele><time>2026-03-28T14:09:07.153Z</time></trkpt><trkpt lat="45.9731967" lon="12.8926433"><ele>49.66666666666667</ele><time>2026-03-28T14:09:08.153Z</time></trkpt><trkpt lat="45.9730983" lon="12.8925867"><ele>49.5</ele><time>2026-03-28T14:09:10.153Z</time></trkpt><trkpt lat="45.97301" lon="12.8925467"><ele>49.33333333333333</ele><time>2026-03-28T14:09:12.153Z</time></trkpt><trkpt lat="45.9729483" lon="12.8925283"><ele>49.166666666666664</ele><time>2026-03-28T14:09:13.154Z</time></trkpt><trkpt lat="45.9728683" lon="12.8925167"><ele>49.0</ele><time>2026-03-28T14:09:14.154Z</time></trkpt><trkpt lat="45.972775" lon="12.8925267"><ele>49.0</ele><time>2026-03-28T14:09:15.153Z</time></trkpt><trkpt lat="45.9726683" lon="12.892555"><ele>49.0</ele><time>2026-03-28T14:09:16.153Z</time></trkpt><trkpt lat="45.97256" lon="12.8925917"><ele>49.0</ele><time>2026-03-28T14:09:17.153Z</time></trkpt><trkpt lat="45.97246" lon="12.89263"><ele>49.0</ele><time>2026-03-28T14:09:18.153Z</time></trkpt><trkpt lat="45.97236" lon="12.8926567"><ele>49.0</ele><time>2026-03-28T14:09:19.153Z</time></trkpt><trkpt lat="45.9722617" lon="12.8926833"><ele>48.800000000000004</ele><time>2026-03-28T14:09:20.153Z</time></trkpt><trkpt lat="45.9721583" lon="12.8927083"><ele>48.6</ele><time>2026-03-28T14:09:21.153Z</time></trkpt><trkpt lat="45.9720517" lon="12.89274"><ele>48.4</ele><time>2026-03-28T14:09:22.154Z</time></trkpt><trkpt lat="45.971945" lon="12.8927667"><ele>48.2</ele><time>2026-03-28T14:09:23.153Z</time></trkpt><trkpt lat="45.9718333" lon="12.8928017"><ele>48.0</ele><time>2026-03-28T14:09:24.153Z</time></trkpt><trkpt lat="45.9717233" lon="12.8928367"><ele>47.75</ele><time>2026-03-28T14:09:25.153Z</time></trkpt><trkpt lat="45.971615" lon="12.89287"><ele>47.5</ele><time>2026-03-28T14:09:26.153Z</time></trkpt><trkpt lat="45.97149" lon="12.8929083"><ele>47.25</ele><time>2026-03-28T14:09:27.153Z</time></trkpt><trkpt lat="45.9713317" lon="12.89296"><ele>47.0</ele><time>2026-03-28T14:09:28.153Z</time></trkpt><trkpt lat="45.9711467" lon="12.893015"><ele>47.0</ele><time>2026-03-28T14:09:29.153Z</time></trkpt><trkpt lat="45.9709417" lon="12.8930783"><ele>47.0</ele><time>2026-03-28T14:09:30.154Z</time></trkpt><trkpt lat="45.9707083" lon="12.8931467"><ele>47.0</ele><time>2026-03-28T14:09:31.153Z</time></trkpt><trkpt lat="45.9704833" lon="12.8932133"><ele>46.666666666666664</ele><time>2026-03-28T14:09:32.153Z</time></trkpt><trkpt lat="45.9702733" lon="12.89327"><ele>46.333333333333336</ele><time>2026-03-28T14:09:33.153Z</time></trkpt><trkpt lat="45.9700733" lon="12.89333"><ele>46.0</ele><time>2026-03-28T14:09:34.153Z</time></trkpt><trkpt lat="45.9698817" lon="12.8933883"><ele>46.0</ele><time>2026-03-28T14:09:35.153Z</time></trkpt><trkpt lat="45.96969" lon="12.8934517"><ele>46.0</ele><time>2026-03-28T14:09:36.153Z</time></trkpt><trkpt lat="45.9695" lon="12.893515"><ele>46.0</ele><time>2026-03-28T14:09:37.153Z</time></trkpt><trkpt lat="45.9693117" lon="12.8935717"><ele>46.0</ele><time>2026-03-28T14:09:38.154Z</time></trkpt><trkpt lat="45.9691183" lon="12.89363"><ele>46.0</ele><time>2026-03-28T14:09:39.154Z</time></trkpt><trkpt lat="45.9689283" lon="12.893685"><ele>46.0</ele><time>2026-03-28T14:09:40.154Z</time></trkpt><trkpt lat="45.9687383" lon="12.89374"><ele>46.0</ele><time>2026-03-28T14:09:41.153Z</time></trkpt><trkpt lat="45.96856" lon="12.893795"><ele>46.0</ele><time>2026-03-28T14:09:42.153Z</time></trkpt><trkpt lat="45.9683883" lon="12.8938417"><ele>46.0</ele><time>2026-03-28T14:09:43.153Z</time></trkpt><trkpt lat="45.9682183" lon="12.8938917"><ele>46.66666666666667</ele><time>2026-03-28T14:09:44.154Z</time></trkpt><trkpt lat="45.9680467" lon="12.89395"><ele>47.333333333333336</ele><time>2026-03-28T14:09:45.153Z</time></trkpt><trkpt lat="45.96788" lon="12.8940067"><ele>48.0</ele><time>2026-03-28T14:09:46.153Z</time></trkpt><trkpt lat="45.9677117" lon="12.8940583"><ele>48.0</ele><time>2026-03-28T14:09:47.153Z</time></trkpt><trkpt lat="45.967545" lon="12.8941183"><ele>48.0</ele><time>2026-03-28T14:09:48.154Z</time></trkpt><trkpt lat="45.96738" lon="12.8941733"><ele>48.0</ele><time>2026-03-28T14:09:49.153Z</time></trkpt><trkpt lat="45.9672133" lon="12.8942117"><ele>48.33333333333333</ele><time>2026-03-28T14:09:50.153Z</time></trkpt><trkpt lat="45.9670317" lon="12.8942217"><ele>48.666666666666664</ele><time>2026-03-28T14:09:51.153Z</time></trkpt><trkpt lat="45.9668433" lon="12.8942067"><ele>49.0</ele><time>2026-03-28T14:09:52.153Z</time></trkpt><trkpt lat="45.96665" lon="12.89417"><ele>48.0</ele><time>2026-03-28T14:09:53.153Z</time></trkpt><trkpt lat="45.9664533" lon="12.894115"><ele>47.0</ele><time>2026-03-28T14:09:54.153Z</time></trkpt><trkpt lat="45.9662683" lon="12.89406"><ele>46.0</ele><time>2026-03-28T14:09:55.154Z</time></trkpt><trkpt lat="45.9661" lon="12.8940083"><ele>46.0</ele><time>2026-03-28T14:09:56.153Z</time></trkpt><trkpt lat="45.9659433" lon="12.8939617"><ele>46.0</ele><time>2026-03-28T14:09:57.153Z</time></trkpt><trkpt lat="45.965795" lon="12.893905"><ele>46.0</ele><time>2026-03-28T14:09:58.153Z</time></trkpt><trkpt lat="45.96565" lon="12.8938383"><ele>46.25</ele><time>2026-03-28T14:09:59.153Z</time></trkpt><trkpt lat="45.9655117" lon="12.8937667"><ele>46.5</ele><time>2026-03-28T14:10:00.153Z</time></trkpt><trkpt lat="45.9653883" lon="12.89366"><ele>46.75</ele><time>2026-03-28T14:10:01.153Z</time></trkpt><trkpt lat="45.96528" lon="12.8935367"><ele>47.0</ele><time>2026-03-28T14:10:02.153Z</time></trkpt><trkpt lat="45.965185" lon="12.8933883"><ele>47.0</ele><time>2026-03-28T14:10:03.154Z</time></trkpt><trkpt lat="45.9651083" lon="12.89322"><ele>47.0</ele><time>2026-03-28T14:10:04.154Z</time></trkpt><trkpt lat="45.9650433" lon="12.8930317"><ele>47.0</ele><time>2026-03-28T14:10:05.153Z</time></trkpt><trkpt lat="45.964985" lon="12.89284"><ele>47.0</ele><time>2026-03-28T14:10:06.153Z</time></trkpt><trkpt lat="45.9649283" lon="12.8926467"><ele>46.666666666666664</ele><time>2026-03-28T14:10:07.153Z</time></trkpt><trkpt lat="45.964875" lon="12.8924467"><ele>46.333333333333336</ele><time>2026-03-28T14:10:08.153Z</time></trkpt><trkpt lat="45.96482" lon="12.89224"><ele>46.0</ele><time>2026-03-28T14:10:09.153Z</time></trkpt><trkpt lat="45.9647633" lon="12.8920217"><ele>46.0</ele><time>2026-03-28T14:10:10.153Z</time></trkpt><trkpt lat="45.964705" lon="12.8918"><ele>46.0</ele><time>2026-03-28T14:10:11.153Z</time></trkpt><trkpt lat="45.964645" lon="12.8915817"><ele>46.0</ele><time>2026-03-28T14:10:12.153Z</time></trkpt><trkpt lat="45.96458" lon="12.8913617"><ele>46.0</ele><time>2026-03-28T14:10:13.153Z</time></trkpt><trkpt lat="45.9645217" lon="12.891145"><ele>46.0</ele><time>2026-03-28T14:10:14.153Z</time></trkpt><trkpt lat="45.96447" lon="12.8909183"><ele>46.0</ele><time>2026-03-28T14:10:15.154Z</time></trkpt><trkpt lat="45.964435" lon="12.8906983"><ele>45.75</ele><time>2026-03-28T14:10:16.153Z</time></trkpt><trkpt lat="45.9644" lon="12.8904933"><ele>45.5</ele><time>2026-03-28T14:10:17.153Z</time></trkpt><trkpt lat="45.9643617" lon="12.8902833"><ele>45.25</ele><time>2026-03-28T14:10:18.154Z</time></trkpt><trkpt lat="45.9643283" lon="12.8900783"><ele>45.0</ele><time>2026-03-28T14:10:19.154Z</time></trkpt><trkpt lat="45.9642917" lon="12.8898733"><ele>45.0</ele><time>2026-03-28T14:10:20.153Z</time></trkpt><trkpt lat="45.9642533" lon="12.8896683"><ele>45.0</ele><time>2026-03-28T14:10:21.153Z</time></trkpt><trkpt lat="45.9642133" lon="12.88947"><ele>45.0</ele><time>2026-03-28T14:10:22.153Z</time></trkpt><trkpt lat="45.964165" lon="12.8892767"><ele>45.0</ele><time>2026-03-28T14:10:23.154Z</time></trkpt><trkpt lat="45.9641067" lon="12.8890817"><ele>45.0</ele><time>2026-03-28T14:10:24.153Z</time></trkpt><trkpt lat="45.9640383" lon="12.888885"><ele>45.0</ele><time>2026-03-28T14:10:25.153Z</time></trkpt><trkpt lat="45.9639517" lon="12.8886967"><ele>45.0</ele><time>2026-03-28T14:10:26.153Z</time></trkpt><trkpt lat="45.9638533" lon="12.8885117"><ele>45.0</ele><time>2026-03-28T14:10:27.153Z</time></trkpt><trkpt lat="45.9637467" lon="12.88833"><ele>45.0</ele><time>2026-03-28T14:10:28.153Z</time></trkpt><trkpt lat="45.963625" lon="12.8881567"><ele>45.0</ele><time>2026-03-28T14:10:29.153Z</time></trkpt><trkpt lat="45.9634867" lon="12.8880033"><ele>46.0</ele><time>2026-03-28T14:10:30.153Z</time></trkpt><trkpt lat="45.963335" lon="12.88787"><ele>47.0</ele><time>2026-03-28T14:10:31.153Z</time></trkpt><trkpt lat="45.96317" lon="12.887755"><ele>48.0</ele><time>2026-03-28T14:10:32.154Z</time></trkpt><trkpt lat="45.9629917" lon="12.8876633"><ele>48.0</ele><time>2026-03-28T14:10:33.153Z</time></trkpt><trkpt lat="45.96281" lon="12.8875983"><ele>48.0</ele><time>2026-03-28T14:10:34.153Z</time></trkpt><trkpt lat="45.9626233" lon="12.887555"><ele>48.0</ele><time>2026-03-28T14:10:35.154Z</time></trkpt><trkpt lat="45.96244" lon="12.88754"><ele>47.333333333333336</ele><time>2026-03-28T14:10:36.153Z</time></trkpt><trkpt lat="45.96225" lon="12.88755"><ele>46.66666666666667</ele><time>2026-03-28T14:10:37.154Z</time></trkpt><trkpt lat="45.9620633" lon="12.887585"><ele>46.0</ele><time>2026-03-28T14:10:38.153Z</time></trkpt><trkpt lat="45.961875" lon="12.887635"><ele>45.333333333333336</ele><time>2026-03-28T14:10:39.153Z</time></trkpt><trkpt lat="45.9616933" lon="12.887695"><ele>44.666666666666664</ele><time>2026-03-28T14:10:40.154Z</time></trkpt><trkpt lat="45.9615167" lon="12.88777"><ele>44.0</ele><time>2026-03-28T14:10:41.153Z</time></trkpt><trkpt lat="45.9613367" lon="12.8878517"><ele>44.0</ele><time>2026-03-28T14:10:42.154Z</time></trkpt><trkpt lat="45.961155" lon="12.8879383"><ele>44.0</ele><time>2026-03-28T14:10:43.153Z</time></trkpt><trkpt lat="45.9609683" lon="12.8880267"><ele>44.0</ele><time>2026-03-28T14:10:44.153Z</time></trkpt><trkpt lat="45.9607833" lon="12.8881117"><ele>43.666666666666664</ele><time>2026-03-28T14:10:45.153Z</time></trkpt><trkpt lat="45.9606017" lon="12.8881983"><ele>43.333333333333336</ele><time>2026-03-28T14:10:46.153Z</time></trkpt><trkpt lat="45.9604133" lon="12.8882833"><ele>43.0</ele><time>2026-03-28T14:10:47.153Z</time></trkpt><trkpt lat="45.9602267" lon="12.8883667"><ele>43.333333333333336</ele><time>2026-03-28T14:10:48.153Z</time></trkpt><trkpt lat="45.9600367" lon="12.888455"><ele>43.666666666666664</ele><time>2026-03-28T14:10:49.153Z</time></trkpt><trkpt lat="45.95985" lon="12.8885383"><ele>44.0</ele><time>2026-03-28T14:10:50.153Z</time></trkpt><trkpt lat="45.9596617" lon="12.8886333"><ele>44.33333333333333</ele><time>2026-03-28T14:10:51.153Z</time></trkpt><trkpt lat="45.9594667" lon="12.88871"><ele>44.666666666666664</ele><time>2026-03-28T14:10:52.153Z</time></trkpt><trkpt lat="45.9592817" lon="12.8887933"><ele>45.0</ele><time>2026-03-28T14:10:53.153Z</time></trkpt><trkpt lat="45.9591117" lon="12.8888717"><ele>45.0</ele><time>2026-03-28T14:10:54.153Z</time></trkpt><trkpt lat="45.9589533" lon="12.8889367"><ele>45.0</ele><time>2026-03-28T14:10:55.154Z</time></trkpt><trkpt lat="45.9587967" lon="12.88899"><ele>45.0</ele><time>2026-03-28T14:10:56.153Z</time></trkpt><trkpt lat="45.9586483" lon="12.8890167"><ele>45.0</ele><time>2026-03-28T14:10:57.154Z</time></trkpt><trkpt lat="45.95851" lon="12.88902"><ele>45.0</ele><time>2026-03-28T14:10:58.153Z</time></trkpt><trkpt lat="45.958385" lon="12.8890067"><ele>45.0</ele><time>2026-03-28T14:10:59.154Z</time></trkpt><trkpt lat="45.9582683" lon="12.8889717"><ele>45.0</ele><time>2026-03-28T14:11:00.154Z</time></trkpt><trkpt lat="45.9581583" lon="12.8889283"><ele>44.4</ele><time>2026-03-28T14:11:01.153Z</time></trkpt><trkpt lat="45.9580583" lon="12.8888667"><ele>43.8</ele><time>2026-03-28T14:11:02.153Z</time></trkpt><trkpt lat="45.9579633" lon="12.8887983"><ele>43.2</ele><time>2026-03-28T14:11:03.153Z</time></trkpt><trkpt lat="45.9578667" lon="12.8887267"><ele>42.6</ele><time>2026-03-28T14:11:04.153Z</time></trkpt><trkpt lat="45.9577567" lon="12.88865"><ele>42.0</ele><time>2026-03-28T14:11:05.153Z</time></trkpt><trkpt lat="45.95764" lon="12.8885633"><ele>42.25</ele><time>2026-03-28T14:11:06.154Z</time></trkpt><trkpt lat="45.957515" lon="12.8884733"><ele>42.5</ele><time>2026-03-28T14:11:07.153Z</time></trkpt><trkpt lat="45.9573933" lon="12.88838"><ele>42.75</ele><time>2026-03-28T14:11:08.153Z</time></trkpt><trkpt lat="45.9572717" lon="12.8882817"><ele>43.0</ele><time>2026-03-28T14:11:09.153Z</time></trkpt><trkpt lat="45.9571383" lon="12.88818"><ele>42.333333333333336</ele><time>2026-03-28T14:11:10.154Z</time></trkpt><trkpt lat="45.9569983" lon="12.8880733"><ele>41.666666666666664</ele><time>2026-03-28T14:11:11.153Z</time></trkpt><trkpt lat="45.956855" lon="12.88797"><ele>41.0</ele><time>2026-03-28T14:11:12.153Z</time></trkpt><trkpt lat="45.956715" lon="12.88787"><ele>41.666666666666664</ele><time>2026-03-28T14:11:13.153Z</time></trkpt><trkpt lat="45.95658" lon="12.8877717"><ele>42.333333333333336</ele><time>2026-03-28T14:11:14.153Z</time></trkpt><trkpt lat="45.9564433" lon="12.8876733"><ele>43.0</ele><time>2026-03-28T14:11:15.153Z</time></trkpt><trkpt lat="45.9563083" lon="12.887575"><ele>43.0</ele><time>2026-03-28T14:11:16.154Z</time></trkpt><trkpt lat="45.9561817" lon="12.8874833"><ele>43.0</ele><time>2026-03-28T14:11:17.154Z</time></trkpt><trkpt lat="45.95607" lon="12.8874"><ele>43.0</ele><time>2026-03-28T14:11:18.153Z</time></trkpt><trkpt lat="45.95597" lon="12.8873217"><ele>43.0</ele><time>2026-03-28T14:11:19.153Z</time></trkpt><trkpt lat="45.9558783" lon="12.887245"><ele>42.599999999999994</ele><time>2026-03-28T14:11:20.153Z</time></trkpt><trkpt lat="45.95579" lon="12.8871667"><ele>42.199999999999996</ele><time>2026-03-28T14:11:21.153Z</time></trkpt><trkpt lat="45.955705" lon="12.8870733"><ele>41.8</ele><time>2026-03-28T14:11:22.154Z</time></trkpt><trkpt lat="45.9556367" lon="12.8869583"><ele>41.4</ele><time>2026-03-28T14:11:23.153Z</time></trkpt><trkpt lat="45.9555833" lon="12.8868217"><ele>41.0</ele><time>2026-03-28T14:11:24.154Z</time></trkpt><trkpt lat="45.955535" lon="12.886695"><ele>41.0</ele><time>2026-03-28T14:11:25.154Z</time></trkpt><trkpt lat="45.9554667" lon="12.8865867"><ele>41.0</ele><time>2026-03-28T14:11:26.153Z</time></trkpt><trkpt lat="45.9553717" lon="12.8865117"><ele>41.0</ele><time>2026-03-28T14:11:27.153Z</time></trkpt><trkpt lat="45.9552667" lon="12.886495"><ele>41.0</ele><time>2026-03-28T14:11:28.153Z</time></trkpt><trkpt lat="45.9551533" lon="12.8865117"><ele>41.0</ele><time>2026-03-28T14:11:29.153Z</time></trkpt><trkpt lat="45.9550433" lon="12.88653"><ele>40.75</ele><time>2026-03-28T14:11:30.154Z</time></trkpt><trkpt lat="45.9549283" lon="12.886505"><ele>40.5</ele><time>2026-03-28T14:11:31.153Z</time></trkpt><trkpt lat="45.9548117" lon="12.88644"><ele>40.25</ele><time>2026-03-28T14:11:32.153Z</time></trkpt><trkpt lat="45.9546967" lon="12.8863617"><ele>40.0</ele><time>2026-03-28T14:11:33.154Z</time></trkpt><trkpt lat="45.9545833" lon="12.8862783"><ele>40.0</ele><time>2026-03-28T14:11:34.153Z</time></trkpt><trkpt lat="45.954465" lon="12.88619"><ele>40.0</ele><time>2026-03-28T14:11:35.153Z</time></trkpt><trkpt lat="45.9543417" lon="12.8860983"><ele>40.0</ele><time>2026-03-28T14:11:36.153Z</time></trkpt><trkpt lat="45.954215" lon="12.886"><ele>40.0</ele><time>2026-03-28T14:11:37.153Z</time></trkpt><trkpt lat="45.95409" lon="12.8859033"><ele>40.25</ele><time>2026-03-28T14:11:38.153Z</time></trkpt><trkpt lat="45.95396" lon="12.885805"><ele>40.5</ele><time>2026-03-28T14:11:39.153Z</time></trkpt><trkpt lat="45.9538283" lon="12.8857017"><ele>40.75</ele><time>2026-03-28T14:11:40.154Z</time></trkpt><trkpt lat="45.9537033" lon="12.8856"><ele>41.0</ele><time>2026-03-28T14:11:41.154Z</time></trkpt><trkpt lat="45.9535783" lon="12.8855083"><ele>41.0</ele><time>2026-03-28T14:11:42.154Z</time></trkpt><trkpt lat="45.95345" lon="12.8854167"><ele>41.0</ele><time>2026-03-28T14:11:43.153Z</time></trkpt><trkpt lat="45.9533267" lon="12.8853267"><ele>41.0</ele><time>2026-03-28T14:11:44.153Z</time></trkpt><trkpt lat="45.9532067" lon="12.885235"><ele>41.0</ele><time>2026-03-28T14:11:45.153Z</time></trkpt><trkpt lat="45.9530833" lon="12.8851433"><ele>41.0</ele><time>2026-03-28T14:11:46.153Z</time></trkpt><trkpt lat="45.952955" lon="12.88505"><ele>41.0</ele><time>2026-03-28T14:11:47.153Z</time></trkpt><trkpt lat="45.95282" lon="12.8849533"><ele>41.0</ele><time>2026-03-28T14:11:48.154Z</time></trkpt><trkpt lat="45.9526883" lon="12.8848567"><ele>41.0</ele><time>2026-03-28T14:11:49.153Z</time></trkpt><trkpt lat="45.9525583" lon="12.88476"><ele>41.25</ele><time>2026-03-28T14:11:50.153Z</time></trkpt><trkpt lat="45.952425" lon="12.88466"><ele>41.5</ele><time>2026-03-28T14:11:51.153Z</time></trkpt><trkpt lat="45.95229" lon="12.8845633"><ele>41.75</ele><time>2026-03-28T14:11:52.154Z</time></trkpt><trkpt lat="45.95216" lon="12.8844667"><ele>42.0</ele><time>2026-03-28T14:11:53.153Z</time></trkpt><trkpt lat="45.9520267" lon="12.8843717"><ele>42.0</ele><time>2026-03-28T14:11:54.154Z</time></trkpt><trkpt lat="45.9518883" lon="12.8842733"><ele>42.0</ele><time>2026-03-28T14:11:55.153Z</time></trkpt><trkpt lat="45.9517433" lon="12.8841667"><ele>42.0</ele><time>2026-03-28T14:11:56.153Z</time></trkpt><trkpt lat="45.9515967" lon="12.8840583"><ele>41.666666666666664</ele><time>2026-03-28T14:11:57.153Z</time></trkpt><trkpt lat="45.95145" lon="12.8839467"><ele>41.33333333333333</ele><time>2026-03-28T14:11:58.153Z</time></trkpt><trkpt lat="45.9513017" lon="12.8838317"><ele>41.0</ele><time>2026-03-28T14:11:59.153Z</time></trkpt><trkpt lat="45.9511483" lon="12.8837217"><ele>41.0</ele><time>2026-03-28T14:12:00.153Z</time></trkpt><trkpt lat="45.9509917" lon="12.883605"><ele>41.0</ele><time>2026-03-28T14:12:01.153Z</time></trkpt><trkpt lat="45.950835" lon="12.8834817"><ele>41.0</ele><time>2026-03-28T14:12:02.153Z</time></trkpt><trkpt lat="45.950675" lon="12.8833617"><ele>40.666666666666664</ele><time>2026-03-28T14:12:03.153Z</time></trkpt><trkpt lat="45.9505167" lon="12.8832367"><ele>40.333333333333336</ele><time>2026-03-28T14:12:04.153Z</time></trkpt><trkpt lat="45.9503517" lon="12.8831167"><ele>40.0</ele><time>2026-03-28T14:12:05.154Z</time></trkpt><trkpt lat="45.9501883" lon="12.8830017"><ele>39.66666666666667</ele><time>2026-03-28T14:12:06.153Z</time></trkpt><trkpt lat="45.95003" lon="12.8828933"><ele>39.333333333333336</ele><time>2026-03-28T14:12:07.153Z</time></trkpt><trkpt lat="45.9498717" lon="12.8827767"><ele>39.0</ele><time>2026-03-28T14:12:08.153Z</time></trkpt><trkpt lat="45.9497183" lon="12.8826583"><ele>39.0</ele><time>2026-03-28T14:12:09.153Z</time></trkpt><trkpt lat="45.9495617" lon="12.8825367"><ele>39.0</ele><time>2026-03-28T14:12:10.153Z</time></trkpt><trkpt lat="45.9494" lon="12.8824133"><ele>39.0</ele><time>2026-03-28T14:12:11.153Z</time></trkpt><trkpt lat="45.9492367" lon="12.8822967"><ele>39.333333333333336</ele><time>2026-03-28T14:12:12.153Z</time></trkpt><trkpt lat="45.949075" lon="12.8821783"><ele>39.66666666666667</ele><time>2026-03-28T14:12:13.154Z</time></trkpt><trkpt lat="45.9489067" lon="12.8820517"><ele>40.0</ele><time>2026-03-28T14:12:14.153Z</time></trkpt><trkpt lat="45.94874" lon="12.8819233"><ele>40.0</ele><time>2026-03-28T14:12:15.153Z</time></trkpt><trkpt lat="45.9485767" lon="12.8818067"><ele>40.0</ele><time>2026-03-28T14:12:16.153Z</time></trkpt><trkpt lat="45.9484133" lon="12.88168"><ele>40.0</ele><time>2026-03-28T14:12:17.153Z</time></trkpt><trkpt lat="45.948245" lon="12.8815483"><ele>40.333333333333336</ele><time>2026-03-28T14:12:18.153Z</time></trkpt><trkpt lat="45.9480733" lon="12.88142"><ele>40.666666666666664</ele><time>2026-03-28T14:12:19.153Z</time></trkpt><trkpt lat="45.9479017" lon="12.8812933"><ele>41.0</ele><time>2026-03-28T14:12:20.153Z</time></trkpt><trkpt lat="45.947735" lon="12.8811717"><ele>41.0</ele><time>2026-03-28T14:12:21.153Z</time></trkpt><trkpt lat="45.94757" lon="12.88105"><ele>41.0</ele><time>2026-03-28T14:12:22.153Z</time></trkpt><trkpt lat="45.9474133" lon="12.8809283"><ele>41.0</ele><time>2026-03-28T14:12:23.153Z</time></trkpt><trkpt lat="45.9472583" lon="12.8808067"><ele>40.5</ele><time>2026-03-28T14:12:24.153Z</time></trkpt><trkpt lat="45.9471183" lon="12.880695"><ele>40.0</ele><time>2026-03-28T14:12:25.153Z</time></trkpt><trkpt lat="45.9469933" lon="12.8805917"><ele>39.5</ele><time>2026-03-28T14:12:26.153Z</time></trkpt><trkpt lat="45.9468867" lon="12.88049"><ele>39.0</ele><time>2026-03-28T14:12:27.153Z</time></trkpt><trkpt lat="45.946805" lon="12.8803633"><ele>39.0</ele><time>2026-03-28T14:12:28.153Z</time></trkpt><trkpt lat="45.9467633" lon="12.880205"><ele>39.0</ele><time>2026-03-28T14:12:29.153Z</time></trkpt><trkpt lat="45.94674" lon="12.8800267"><ele>39.0</ele><time>2026-03-28T14:12:30.153Z</time></trkpt><trkpt lat="45.9467" lon="12.879865"><ele>39.0</ele><time>2026-03-28T14:12:31.153Z</time></trkpt><trkpt lat="45.94663" lon="12.8797083"><ele>39.25</ele><time>2026-03-28T14:12:32.153Z</time></trkpt><trkpt lat="45.9465417" lon="12.8795917"><ele>39.5</ele><time>2026-03-28T14:12:33.153Z</time></trkpt><trkpt lat="45.946435" lon="12.879515"><ele>39.75</ele><time>2026-03-28T14:12:34.153Z</time></trkpt><trkpt lat="45.9463167" lon="12.8794883"><ele>40.0</ele><time>2026-03-28T14:12:35.153Z</time></trkpt><trkpt lat="45.9462017" lon="12.8794983"><ele>40.0</ele><time>2026-03-28T14:12:36.153Z</time></trkpt><trkpt lat="45.9460967" lon="12.8795267"><ele>40.0</ele><time>2026-03-28T14:12:37.153Z</time></trkpt><trkpt lat="45.9460017" lon="12.8795533"><ele>40.0</ele><time>2026-03-28T14:12:38.154Z</time></trkpt><trkpt lat="45.945935" lon="12.87957"><ele>40.0</ele><time>2026-03-28T14:12:39.153Z</time></trkpt><trkpt lat="45.9458733" lon="12.87963"><ele>40.0</ele><time>2026-03-28T14:12:56.153Z</time></trkpt><trkpt lat="45.9458533" lon="12.8797433"><ele>40.0</ele><time>2026-03-28T14:12:57.154Z</time></trkpt><trkpt lat="45.9458383" lon="12.8799083"><ele>39.75</ele><time>2026-03-28T14:12:58.153Z</time></trkpt><trkpt lat="45.94583" lon="12.8801217"><ele>39.5</ele><time>2026-03-28T14:12:59.154Z</time></trkpt><trkpt lat="45.9458567" lon="12.8803317"><ele>39.25</ele><time>2026-03-28T14:13:00.154Z</time></trkpt><trkpt lat="45.94591" lon="12.8804933"><ele>39.0</ele><time>2026-03-28T14:13:01.153Z</time></trkpt><trkpt lat="45.9459883" lon="12.8806283"><ele>39.0</ele><time>2026-03-28T14:13:02.153Z</time></trkpt><trkpt lat="45.9460767" lon="12.8807317"><ele>39.0</ele><time>2026-03-28T14:13:03.153Z</time></trkpt><trkpt lat="45.9461617" lon="12.880835"><ele>39.0</ele><time>2026-03-28T14:13:04.153Z</time></trkpt><trkpt lat="45.94623" lon="12.88096"><ele>39.0</ele><time>2026-03-28T14:13:05.153Z</time></trkpt><trkpt lat="45.9462867" lon="12.8811217"><ele>38.75</ele><time>2026-03-28T14:13:06.153Z</time></trkpt><trkpt lat="45.9463267" lon="12.881305"><ele>38.5</ele><time>2026-03-28T14:13:07.153Z</time></trkpt><trkpt lat="45.9463533" lon="12.8814817"><ele>38.25</ele><time>2026-03-28T14:13:08.153Z</time></trkpt><trkpt lat="45.9463783" lon="12.8816483"><ele>38.0</ele><time>2026-03-28T14:13:09.154Z</time></trkpt><trkpt lat="45.9463967" lon="12.8818133"><ele>38.4</ele><time>2026-03-28T14:13:10.153Z</time></trkpt><trkpt lat="45.9464117" lon="12.8819733"><ele>38.8</ele><time>2026-03-28T14:13:11.154Z</time></trkpt><trkpt lat="45.946425" lon="12.8821167"><ele>39.2</ele><time>2026-03-28T14:13:12.153Z</time></trkpt><trkpt lat="45.94644" lon="12.8822567"><ele>39.6</ele><time>2026-03-28T14:13:13.153Z</time></trkpt><trkpt lat="45.946455" lon="12.8824"><ele>40.0</ele><time>2026-03-28T14:13:14.153Z</time></trkpt><trkpt lat="45.9464733" lon="12.8825467"><ele>40.0</ele><time>2026-03-28T14:13:15.153Z</time></trkpt><trkpt lat="45.9464917" lon="12.8826967"><ele>40.0</ele><time>2026-03-28T14:13:16.153Z</time></trkpt><trkpt lat="45.946515" lon="12.8828533"><ele>40.0</ele><time>2026-03-28T14:13:17.154Z</time></trkpt><trkpt lat="45.94653" lon="12.8830033"><ele>40.0</ele><time>2026-03-28T14:13:18.154Z</time></trkpt><trkpt lat="45.94655" lon="12.8831633"><ele>40.0</ele><time>2026-03-28T14:13:19.153Z</time></trkpt><trkpt lat="45.9465583" lon="12.88333"><ele>40.0</ele><time>2026-03-28T14:13:20.153Z</time></trkpt><trkpt lat="45.9465733" lon="12.883495"><ele>40.0</ele><time>2026-03-28T14:13:21.153Z</time></trkpt><trkpt lat="45.94659" lon="12.8836483"><ele>40.0</ele><time>2026-03-28T14:13:22.153Z</time></trkpt><trkpt lat="45.9466067" lon="12.88381"><ele>40.0</ele><time>2026-03-28T14:13:23.153Z</time></trkpt><trkpt lat="45.9466267" lon="12.883985"><ele>40.0</ele><time>2026-03-28T14:13:24.153Z</time></trkpt><trkpt lat="45.9466483" lon="12.8841633"><ele>40.0</ele><time>2026-03-28T14:13:25.153Z</time></trkpt><trkpt lat="45.946665" lon="12.88433"><ele>40.0</ele><time>2026-03-28T14:13:26.153Z</time></trkpt><trkpt lat="45.9466867" lon="12.88449"><ele>40.0</ele><time>2026-03-28T14:13:27.153Z</time></trkpt><trkpt lat="45.946705" lon="12.88466"><ele>40.25</ele><time>2026-03-28T14:13:28.153Z</time></trkpt><trkpt lat="45.9467217" lon="12.8848417"><ele>40.5</ele><time>2026-03-28T14:13:29.153Z</time></trkpt><trkpt lat="45.946745" lon="12.88502"><ele>40.75</ele><time>2026-03-28T14:13:30.153Z</time></trkpt><trkpt lat="45.946765" lon="12.8851967"><ele>41.0</ele><time>2026-03-28T14:13:31.154Z</time></trkpt><trkpt lat="45.9467767" lon="12.8853583"><ele>41.0</ele><time>2026-03-28T14:13:32.154Z</time></trkpt><trkpt lat="45.9467833" lon="12.885515"><ele>41.0</ele><time>2026-03-28T14:13:33.154Z</time></trkpt><trkpt lat="45.9467833" lon="12.8856733"><ele>41.0</ele><time>2026-03-28T14:13:34.153Z</time></trkpt><trkpt lat="45.9467733" lon="12.8858367"><ele>41.0</ele><time>2026-03-28T14:13:35.153Z</time></trkpt><trkpt lat="45.9467483" lon="12.8859883"><ele>41.0</ele><time>2026-03-28T14:13:36.153Z</time></trkpt><trkpt lat="45.94672" lon="12.8861267"><ele>41.0</ele><time>2026-03-28T14:13:37.153Z</time></trkpt><trkpt lat="45.946705" lon="12.8862717"><ele>41.0</ele><time>2026-03-28T14:13:38.154Z</time></trkpt><trkpt lat="45.9467" lon="12.88642"><ele>41.0</ele><time>2026-03-28T14:13:39.153Z</time></trkpt><trkpt lat="45.94672" lon="12.8865767"><ele>41.0</ele><time>2026-03-28T14:13:40.154Z</time></trkpt><trkpt lat="45.94676" lon="12.8867433"><ele>41.0</ele><time>2026-03-28T14:13:41.154Z</time></trkpt><trkpt lat="45.9468083" lon="12.8869217"><ele>41.0</ele><time>2026-03-28T14:13:42.154Z</time></trkpt><trkpt lat="45.9468533" lon="12.8871083"><ele>41.0</ele><time>2026-03-28T14:13:43.153Z</time></trkpt><trkpt lat="45.946885" lon="12.8872917"><ele>41.0</ele><time>2026-03-28T14:13:44.153Z</time></trkpt><trkpt lat="45.9469033" lon="12.8874717"><ele>41.0</ele><time>2026-03-28T14:13:45.154Z</time></trkpt><trkpt lat="45.9469233" lon="12.88766"><ele>40.75</ele><time>2026-03-28T14:13:46.153Z</time></trkpt><trkpt lat="45.9469433" lon="12.8878567"><ele>40.5</ele><time>2026-03-28T14:13:47.154Z</time></trkpt><trkpt lat="45.946965" lon="12.8880517"><ele>40.25</ele><time>2026-03-28T14:13:48.153Z</time></trkpt><trkpt lat="45.94698" lon="12.8882417"><ele>40.0</ele><time>2026-03-28T14:13:49.153Z</time></trkpt><trkpt lat="45.9470017" lon="12.8884333"><ele>39.75</ele><time>2026-03-28T14:13:50.153Z</time></trkpt><trkpt lat="45.9470217" lon="12.888625"><ele>39.5</ele><time>2026-03-28T14:13:51.154Z</time></trkpt><trkpt lat="45.9470367" lon="12.8888233"><ele>39.25</ele><time>2026-03-28T14:13:52.154Z</time></trkpt><trkpt lat="45.9470567" lon="12.88902"><ele>39.0</ele><time>2026-03-28T14:13:53.153Z</time></trkpt><trkpt lat="45.9470817" lon="12.8892133"><ele>38.75</ele><time>2026-03-28T14:13:54.153Z</time></trkpt><trkpt lat="45.9471017" lon="12.8893967"><ele>38.5</ele><time>2026-03-28T14:13:55.153Z</time></trkpt><trkpt lat="45.9471183" lon="12.8895817"><ele>38.25</ele><time>2026-03-28T14:13:56.154Z</time></trkpt><trkpt lat="45.9471417" lon="12.88977"><ele>38.0</ele><time>2026-03-28T14:13:57.154Z</time></trkpt><trkpt lat="45.94717" lon="12.8899517"><ele>38.0</ele><time>2026-03-28T14:13:58.153Z</time></trkpt><trkpt lat="45.94719" lon="12.890135"><ele>38.0</ele><time>2026-03-28T14:13:59.153Z</time></trkpt><trkpt lat="45.9472067" lon="12.8903233"><ele>38.0</ele><time>2026-03-28T14:14:00.153Z</time></trkpt><trkpt lat="45.9472283" lon="12.8905217"><ele>38.0</ele><time>2026-03-28T14:14:01.153Z</time></trkpt><trkpt lat="45.9472433" lon="12.8907267"><ele>38.25</ele><time>2026-03-28T14:14:02.153Z</time></trkpt><trkpt lat="45.9472633" lon="12.89094"><ele>38.5</ele><time>2026-03-28T14:14:03.154Z</time></trkpt><trkpt lat="45.9472833" lon="12.8911517"><ele>38.75</ele><time>2026-03-28T14:14:04.153Z</time></trkpt><trkpt lat="45.9473033" lon="12.891355"><ele>39.0</ele><time>2026-03-28T14:14:05.153Z</time></trkpt><trkpt lat="45.94733" lon="12.8915483"><ele>39.0</ele><time>2026-03-28T14:14:06.153Z</time></trkpt><trkpt lat="45.9473533" lon="12.8917433"><ele>39.0</ele><time>2026-03-28T14:14:07.153Z</time></trkpt><trkpt lat="45.9473733" lon="12.8919317"><ele>39.0</ele><time>2026-03-28T14:14:08.153Z</time></trkpt><trkpt lat="45.9473933" lon="12.89211"><ele>39.0</ele><time>2026-03-28T14:14:09.153Z</time></trkpt><trkpt lat="45.9474133" lon="12.8922783"><ele>39.0</ele><time>2026-03-28T14:14:10.153Z</time></trkpt><trkpt lat="45.9474317" lon="12.8924333"><ele>39.0</ele><time>2026-03-28T14:14:11.153Z</time></trkpt><trkpt lat="45.9474467" lon="12.8925917"><ele>39.0</ele><time>2026-03-28T14:14:12.153Z</time></trkpt><trkpt lat="45.94746" lon="12.8927367"><ele>39.0</ele><time>2026-03-28T14:14:13.153Z</time></trkpt><trkpt lat="45.9474683" lon="12.8929217"><ele>38.75</ele><time>2026-03-28T14:14:14.153Z</time></trkpt><trkpt lat="45.9474783" lon="12.8931033"><ele>38.5</ele><time>2026-03-28T14:14:15.153Z</time></trkpt><trkpt lat="45.9474833" lon="12.8932767"><ele>38.25</ele><time>2026-03-28T14:14:16.153Z</time></trkpt><trkpt lat="45.9474867" lon="12.893435"><ele>38.0</ele><time>2026-03-28T14:14:17.153Z</time></trkpt><trkpt lat="45.9474917" lon="12.8935883"><ele>38.0</ele><time>2026-03-28T14:14:18.153Z</time></trkpt><trkpt lat="45.947495" lon="12.8937367"><ele>38.0</ele><time>2026-03-28T14:14:19.153Z</time></trkpt><trkpt lat="45.9475033" lon="12.8938867"><ele>38.0</ele><time>2026-03-28T14:14:20.153Z</time></trkpt><trkpt lat="45.9475183" lon="12.89404"><ele>38.0</ele><time>2026-03-28T14:14:21.154Z</time></trkpt><trkpt lat="45.9475433" lon="12.89419"><ele>38.0</ele><time>2026-03-28T14:14:22.154Z</time></trkpt><trkpt lat="45.94757" lon="12.8943333"><ele>38.0</ele><time>2026-03-28T14:14:23.154Z</time></trkpt><trkpt lat="45.9475983" lon="12.89448"><ele>38.0</ele><time>2026-03-28T14:14:24.153Z</time></trkpt><trkpt lat="45.94763" lon="12.8946317"><ele>38.0</ele><time>2026-03-28T14:14:25.153Z</time></trkpt><trkpt lat="45.9476583" lon="12.8947917"><ele>38.0</ele><time>2026-03-28T14:14:26.153Z</time></trkpt><trkpt lat="45.9476933" lon="12.894955"><ele>38.0</ele><time>2026-03-28T14:14:27.153Z</time></trkpt><trkpt lat="45.9477333" lon="12.8951333"><ele>38.0</ele><time>2026-03-28T14:14:28.153Z</time></trkpt><trkpt lat="45.9477683" lon="12.8953117"><ele>38.0</ele><time>2026-03-28T14:14:29.153Z</time></trkpt><trkpt lat="45.947805" lon="12.8954783"><ele>38.0</ele><time>2026-03-28T14:14:30.153Z</time></trkpt><trkpt lat="45.9478367" lon="12.8956433"><ele>38.0</ele><time>2026-03-28T14:14:31.153Z</time></trkpt><trkpt lat="45.947875" lon="12.8957917"><ele>38.0</ele><time>2026-03-28T14:14:32.153Z</time></trkpt><trkpt lat="45.947915" lon="12.8959217"><ele>38.0</ele><time>2026-03-28T14:14:33.153Z</time></trkpt><trkpt lat="45.94797" lon="12.89604"><ele>38.0</ele><time>2026-03-28T14:14:34.154Z</time></trkpt><trkpt lat="45.94804" lon="12.8961467"><ele>38.0</ele><time>2026-03-28T14:14:35.153Z</time></trkpt><trkpt lat="45.9481233" lon="12.8962433"><ele>38.25</ele><time>2026-03-28T14:14:36.153Z</time></trkpt><trkpt lat="45.9482167" lon="12.8963433"><ele>38.5</ele><time>2026-03-28T14:14:37.153Z</time></trkpt><trkpt lat="45.9483117" lon="12.8964467"><ele>38.75</ele><time>2026-03-28T14:14:38.153Z</time></trkpt><trkpt lat="45.9483967" lon="12.896555"><ele>39.0</ele><time>2026-03-28T14:14:39.154Z</time></trkpt><trkpt lat="45.948485" lon="12.8966683"><ele>39.25</ele><time>2026-03-28T14:14:40.153Z</time></trkpt><trkpt lat="45.9485683" lon="12.8967883"><ele>39.5</ele><time>2026-03-28T14:14:41.153Z</time></trkpt><trkpt lat="45.9486517" lon="12.896925"><ele>39.75</ele><time>2026-03-28T14:14:42.153Z</time></trkpt><trkpt lat="45.9487233" lon="12.8970683"><ele>40.0</ele><time>2026-03-28T14:14:43.153Z</time></trkpt><trkpt lat="45.9487767" lon="12.8971933"><ele>40.0</ele><time>2026-03-28T14:14:44.153Z</time></trkpt><trkpt lat="45.948815" lon="12.8973067"><ele>40.0</ele><time>2026-03-28T14:14:45.153Z</time></trkpt><trkpt lat="45.948845" lon="12.89739"><ele>40.0</ele><time>2026-03-28T14:14:46.153Z</time></trkpt><trkpt lat="45.948835" lon="12.8974983"><ele>40.0</ele><time>2026-03-28T14:14:48.153Z</time></trkpt><trkpt lat="45.9487483" lon="12.89759"><ele>40.0</ele><time>2026-03-28T14:14:50.153Z</time></trkpt><trkpt lat="45.9486717" lon="12.8976433"><ele>40.0</ele><time>2026-03-28T14:14:51.153Z</time></trkpt><trkpt lat="45.9485983" lon="12.8976867"><ele>40.0</ele><time>2026-03-28T14:14:52.153Z</time></trkpt><trkpt lat="45.9485183" lon="12.897725"><ele>40.0</ele><time>2026-03-28T14:14:53.154Z</time></trkpt><trkpt lat="45.9484367" lon="12.8977433"><ele>40.0</ele><time>2026-03-28T14:14:54.153Z</time></trkpt><trkpt lat="45.9483517" lon="12.8977633"><ele>40.0</ele><time>2026-03-28T14:14:55.154Z</time></trkpt><trkpt lat="45.9482683" lon="12.8977767"><ele>40.0</ele><time>2026-03-28T14:14:56.154Z</time></trkpt><trkpt lat="45.94818" lon="12.8977933"><ele>40.0</ele><time>2026-03-28T14:14:57.154Z</time></trkpt><trkpt lat="45.9480917" lon="12.8978083"><ele>40.0</ele><time>2026-03-28T14:14:58.153Z</time></trkpt><trkpt lat="45.948005" lon="12.89783"><ele>40.0</ele><time>2026-03-28T14:14:59.154Z</time></trkpt><trkpt lat="45.9479233" lon="12.8978483"><ele>40.0</ele><time>2026-03-28T14:15:00.153Z</time></trkpt><trkpt lat="45.9478333" lon="12.8978633"><ele>40.0</ele><time>2026-03-28T14:15:01.154Z</time></trkpt><trkpt lat="45.94773" lon="12.897885"><ele>40.0</ele><time>2026-03-28T14:15:02.153Z</time></trkpt><trkpt lat="45.9476133" lon="12.8979067"><ele>39.6</ele><time>2026-03-28T14:15:03.153Z</time></trkpt><trkpt lat="45.94749" lon="12.8979233"><ele>39.2</ele><time>2026-03-28T14:15:04.153Z</time></trkpt><trkpt lat="45.9473733" lon="12.8979433"><ele>38.8</ele><time>2026-03-28T14:15:05.154Z</time></trkpt><trkpt lat="45.9472683" lon="12.8979667"><ele>38.4</ele><time>2026-03-28T14:15:06.153Z</time></trkpt><trkpt lat="45.9471717" lon="12.8979867"><ele>38.0</ele><time>2026-03-28T14:15:07.153Z</time></trkpt><trkpt lat="45.9470717" lon="12.8980033"><ele>38.0</ele><time>2026-03-28T14:15:08.154Z</time></trkpt><trkpt lat="45.9469767" lon="12.8980233"><ele>38.0</ele><time>2026-03-28T14:15:09.153Z</time></trkpt><trkpt lat="45.9468833" lon="12.8980467"><ele>38.0</ele><time>2026-03-28T14:15:10.154Z</time></trkpt><trkpt lat="45.9467883" lon="12.8980683"><ele>38.0</ele><time>2026-03-28T14:15:11.153Z</time></trkpt><trkpt lat="45.946695" lon="12.8980917"><ele>38.0</ele><time>2026-03-28T14:15:12.153Z</time></trkpt><trkpt lat="45.9466083" lon="12.8981133"><ele>38.33333333333333</ele><time>2026-03-28T14:15:13.153Z</time></trkpt><trkpt lat="45.9465233" lon="12.89813"><ele>38.666666666666664</ele><time>2026-03-28T14:15:14.153Z</time></trkpt><trkpt lat="45.94644" lon="12.89815"><ele>39.0</ele><time>2026-03-28T14:15:15.153Z</time></trkpt><trkpt lat="45.9463567" lon="12.898165"><ele>39.333333333333336</ele><time>2026-03-28T14:15:16.153Z</time></trkpt><trkpt lat="45.94627" lon="12.8981833"><ele>39.66666666666667</ele><time>2026-03-28T14:15:17.153Z</time></trkpt><trkpt lat="45.9461817" lon="12.8982083"><ele>40.0</ele><time>2026-03-28T14:15:18.153Z</time></trkpt><trkpt lat="45.9460833" lon="12.8982233"><ele>40.0</ele><time>2026-03-28T14:15:19.153Z</time></trkpt><trkpt lat="45.9459817" lon="12.8982433"><ele>40.0</ele><time>2026-03-28T14:15:20.153Z</time></trkpt><trkpt lat="45.9458833" lon="12.8982667"><ele>40.0</ele><time>2026-03-28T14:15:21.154Z</time></trkpt><trkpt lat="45.94578" lon="12.8982883"><ele>40.0</ele><time>2026-03-28T14:15:22.153Z</time></trkpt><trkpt lat="45.9456617" lon="12.8983183"><ele>40.0</ele><time>2026-03-28T14:15:23.153Z</time></trkpt><trkpt lat="45.9455283" lon="12.8983533"><ele>39.66666666666667</ele><time>2026-03-28T14:15:24.153Z</time></trkpt><trkpt lat="45.9453833" lon="12.898395"><ele>39.333333333333336</ele><time>2026-03-28T14:15:25.154Z</time></trkpt><trkpt lat="45.94523" lon="12.8984367"><ele>39.0</ele><time>2026-03-28T14:15:26.153Z</time></trkpt><trkpt lat="45.945065" lon="12.8984767"><ele>38.666666666666664</ele><time>2026-03-28T14:15:27.153Z</time></trkpt><trkpt lat="45.9449017" lon="12.8985167"><ele>38.33333333333333</ele><time>2026-03-28T14:15:28.154Z</time></trkpt><trkpt lat="45.94474" lon="12.8985483"><ele>38.0</ele><time>2026-03-28T14:15:29.153Z</time></trkpt><trkpt lat="45.9445767" lon="12.8985833"><ele>38.0</ele><time>2026-03-28T14:15:30.153Z</time></trkpt><trkpt lat="45.944405" lon="12.8986217"><ele>38.0</ele><time>2026-03-28T14:15:31.153Z</time></trkpt><trkpt lat="45.9442333" lon="12.8986633"><ele>38.0</ele><time>2026-03-28T14:15:32.153Z</time></trkpt><trkpt lat="45.9440617" lon="12.8986967"><ele>38.33333333333333</ele><time>2026-03-28T14:15:33.153Z</time></trkpt><trkpt lat="45.9438883" lon="12.898735"><ele>38.666666666666664</ele><time>2026-03-28T14:15:34.154Z</time></trkpt><trkpt lat="45.943715" lon="12.898775"><ele>39.0</ele><time>2026-03-28T14:15:35.153Z</time></trkpt><trkpt lat="45.9435433" lon="12.8988167"><ele>39.666666666666664</ele><time>2026-03-28T14:15:36.153Z</time></trkpt><trkpt lat="45.94337" lon="12.8988533"><ele>40.33333333333333</ele><time>2026-03-28T14:15:37.154Z</time></trkpt><trkpt lat="45.9432083" lon="12.898895"><ele>41.0</ele><time>2026-03-28T14:15:38.153Z</time></trkpt><trkpt lat="45.9430483" lon="12.8989367"><ele>41.0</ele><time>2026-03-28T14:15:39.153Z</time></trkpt><trkpt lat="45.9428783" lon="12.8989783"><ele>41.0</ele><time>2026-03-28T14:15:40.154Z</time></trkpt><trkpt lat="45.9427033" lon="12.899015"><ele>41.0</ele><time>2026-03-28T14:15:41.153Z</time></trkpt><trkpt lat="45.9425233" lon="12.89905"><ele>40.0</ele><time>2026-03-28T14:15:42.153Z</time></trkpt><trkpt lat="45.9423433" lon="12.8990933"><ele>39.0</ele><time>2026-03-28T14:15:43.153Z</time></trkpt><trkpt lat="45.9421633" lon="12.8991317"><ele>38.0</ele><time>2026-03-28T14:15:44.153Z</time></trkpt><trkpt lat="45.9419783" lon="12.89917"><ele>38.0</ele><time>2026-03-28T14:15:45.153Z</time></trkpt><trkpt lat="45.941805" lon="12.8992133"><ele>38.0</ele><time>2026-03-28T14:15:46.153Z</time></trkpt><trkpt lat="45.94163" lon="12.899265"><ele>38.0</ele><time>2026-03-28T14:15:47.153Z</time></trkpt><trkpt lat="45.9414667" lon="12.8993167"><ele>38.666666666666664</ele><time>2026-03-28T14:15:48.153Z</time></trkpt><trkpt lat="45.9413083" lon="12.899355"><ele>39.333333333333336</ele><time>2026-03-28T14:15:49.154Z</time></trkpt><trkpt lat="45.941155" lon="12.89938"><ele>40.0</ele><time>2026-03-28T14:15:50.153Z</time></trkpt><trkpt lat="45.940995" lon="12.89941"><ele>39.333333333333336</ele><time>2026-03-28T14:15:51.153Z</time></trkpt><trkpt lat="45.9408267" lon="12.899445"><ele>38.666666666666664</ele><time>2026-03-28T14:15:52.153Z</time></trkpt><trkpt lat="45.9406483" lon="12.89949"><ele>38.0</ele><time>2026-03-28T14:15:53.153Z</time></trkpt><trkpt lat="45.9404683" lon="12.8995283"><ele>38.0</ele><time>2026-03-28T14:15:54.153Z</time></trkpt><trkpt lat="45.9402917" lon="12.899565"><ele>38.0</ele><time>2026-03-28T14:15:55.153Z</time></trkpt><trkpt lat="45.9401283" lon="12.8995967"><ele>38.0</ele><time>2026-03-28T14:15:56.153Z</time></trkpt><trkpt lat="45.9399633" lon="12.8996317"><ele>38.0</ele><time>2026-03-28T14:15:57.153Z</time></trkpt><trkpt lat="45.9397883" lon="12.8996717"><ele>38.0</ele><time>2026-03-28T14:15:58.153Z</time></trkpt><trkpt lat="45.9396117" lon="12.8997117"><ele>38.0</ele><time>2026-03-28T14:15:59.153Z</time></trkpt><trkpt lat="45.9394317" lon="12.89975"><ele>38.0</ele><time>2026-03-28T14:16:00.154Z</time></trkpt><trkpt lat="45.939255" lon="12.8997917"><ele>38.0</ele><time>2026-03-28T14:16:01.154Z</time></trkpt><trkpt lat="45.9390867" lon="12.8998367"><ele>38.0</ele><time>2026-03-28T14:16:02.153Z</time></trkpt><trkpt lat="45.93892" lon="12.89988"><ele>37.33333333333333</ele><time>2026-03-28T14:16:03.153Z</time></trkpt><trkpt lat="45.9387433" lon="12.8999267"><ele>36.666666666666664</ele><time>2026-03-28T14:16:04.153Z</time></trkpt><trkpt lat="45.93857" lon="12.8999667"><ele>36.0</ele><time>2026-03-28T14:16:05.153Z</time></trkpt><trkpt lat="45.9384133" lon="12.8999967"><ele>36.0</ele><time>2026-03-28T14:16:06.153Z</time></trkpt><trkpt lat="45.93826" lon="12.90003"><ele>36.0</ele><time>2026-03-28T14:16:07.153Z</time></trkpt><trkpt lat="45.9380983" lon="12.9000633"><ele>36.0</ele><time>2026-03-28T14:16:08.153Z</time></trkpt><trkpt lat="45.9379533" lon="12.9000933"><ele>36.0</ele><time>2026-03-28T14:16:09.153Z</time></trkpt><trkpt lat="45.9378" lon="12.90012"><ele>36.0</ele><time>2026-03-28T14:16:10.153Z</time></trkpt><trkpt lat="45.9376483" lon="12.90016"><ele>36.0</ele><time>2026-03-28T14:16:11.153Z</time></trkpt><trkpt lat="45.937505" lon="12.900195"><ele>36.333333333333336</ele><time>2026-03-28T14:16:12.153Z</time></trkpt><trkpt lat="45.9373517" lon="12.90023"><ele>36.66666666666667</ele><time>2026-03-28T14:16:13.153Z</time></trkpt><trkpt lat="45.9371867" lon="12.9002717"><ele>37.0</ele><time>2026-03-28T14:16:14.153Z</time></trkpt><trkpt lat="45.9370233" lon="12.9003117"><ele>37.0</ele><time>2026-03-28T14:16:15.153Z</time></trkpt><trkpt lat="45.936875" lon="12.9003433"><ele>37.0</ele><time>2026-03-28T14:16:16.153Z</time></trkpt><trkpt lat="45.9367283" lon="12.9003683"><ele>37.0</ele><time>2026-03-28T14:16:17.153Z</time></trkpt><trkpt lat="45.9365817" lon="12.9004033"><ele>37.0</ele><time>2026-03-28T14:16:18.153Z</time></trkpt><trkpt lat="45.936425" lon="12.90043"><ele>37.0</ele><time>2026-03-28T14:16:19.153Z</time></trkpt><trkpt lat="45.936275" lon="12.90046"><ele>37.0</ele><time>2026-03-28T14:16:20.153Z</time></trkpt><trkpt lat="45.9361217" lon="12.9004933"><ele>37.0</ele><time>2026-03-28T14:16:21.153Z</time></trkpt><trkpt lat="45.9359683" lon="12.9005317"><ele>36.66666666666667</ele><time>2026-03-28T14:16:22.153Z</time></trkpt><trkpt lat="45.935795" lon="12.9005833"><ele>36.333333333333336</ele><time>2026-03-28T14:16:23.153Z</time></trkpt><trkpt lat="45.9356233" lon="12.900625"><ele>36.0</ele><time>2026-03-28T14:16:24.154Z</time></trkpt><trkpt lat="45.93547" lon="12.9006633"><ele>36.0</ele><time>2026-03-28T14:16:25.153Z</time></trkpt><trkpt lat="45.93531" lon="12.9007033"><ele>36.0</ele><time>2026-03-28T14:16:26.153Z</time></trkpt><trkpt lat="45.935135" lon="12.9007417"><ele>36.0</ele><time>2026-03-28T14:16:27.153Z</time></trkpt><trkpt lat="45.9349683" lon="12.900775"><ele>35.75</ele><time>2026-03-28T14:16:28.153Z</time></trkpt><trkpt lat="45.934815" lon="12.9008033"><ele>35.5</ele><time>2026-03-28T14:16:29.153Z</time></trkpt><trkpt lat="45.9346683" lon="12.9008317"><ele>35.25</ele><time>2026-03-28T14:16:30.153Z</time></trkpt><trkpt lat="45.9345367" lon="12.9008633"><ele>35.0</ele><time>2026-03-28T14:16:31.154Z</time></trkpt><trkpt lat="45.934405" lon="12.90091"><ele>35.25</ele><time>2026-03-28T14:16:32.153Z</time></trkpt><trkpt lat="45.9342667" lon="12.90094"><ele>35.5</ele><time>2026-03-28T14:16:33.153Z</time></trkpt><trkpt lat="45.934135" lon="12.900965"><ele>35.75</ele><time>2026-03-28T14:16:34.153Z</time></trkpt><trkpt lat="45.9340133" lon="12.9009917"><ele>36.0</ele><time>2026-03-28T14:16:35.154Z</time></trkpt><trkpt lat="45.933905" lon="12.901015"><ele>35.6</ele><time>2026-03-28T14:16:36.153Z</time></trkpt><trkpt lat="45.9337967" lon="12.90104"><ele>35.2</ele><time>2026-03-28T14:16:37.154Z</time></trkpt><trkpt lat="45.933685" lon="12.9010683"><ele>34.8</ele><time>2026-03-28T14:16:38.153Z</time></trkpt><trkpt lat="45.9335767" lon="12.9010983"><ele>34.4</ele><time>2026-03-28T14:16:39.153Z</time></trkpt><trkpt lat="45.9334633" lon="12.9011317"><ele>34.0</ele><time>2026-03-28T14:16:40.153Z</time></trkpt><trkpt lat="45.9333567" lon="12.901155"><ele>33.8</ele><time>2026-03-28T14:16:41.153Z</time></trkpt><trkpt lat="45.9332567" lon="12.9011767"><ele>33.599999999999994</ele><time>2026-03-28T14:16:42.154Z</time></trkpt><trkpt lat="45.933155" lon="12.9011967"><ele>33.4</ele><time>2026-03-28T14:16:43.153Z</time></trkpt><trkpt lat="45.933055" lon="12.901225"><ele>33.199999999999996</ele><time>2026-03-28T14:16:44.153Z</time></trkpt><trkpt lat="45.93295" lon="12.9012467"><ele>33.0</ele><time>2026-03-28T14:16:45.153Z</time></trkpt><trkpt lat="45.932845" lon="12.9012683"><ele>33.0</ele><time>2026-03-28T14:16:46.153Z</time></trkpt><trkpt lat="45.932735" lon="12.9012933"><ele>33.0</ele><time>2026-03-28T14:16:47.153Z</time></trkpt><trkpt lat="45.9326283" lon="12.9013233"><ele>33.0</ele><time>2026-03-28T14:16:48.153Z</time></trkpt><trkpt lat="45.932525" lon="12.9013517"><ele>33.0</ele><time>2026-03-28T14:16:49.154Z</time></trkpt><trkpt lat="45.9324267" lon="12.9013883"><ele>33.0</ele><time>2026-03-28T14:16:50.153Z</time></trkpt><trkpt lat="45.9323217" lon="12.90142"><ele>33.0</ele><time>2026-03-28T14:16:51.153Z</time></trkpt><trkpt lat="45.9322217" lon="12.901445"><ele>33.0</ele><time>2026-03-28T14:16:52.153Z</time></trkpt><trkpt lat="45.9321267" lon="12.9014683"><ele>33.0</ele><time>2026-03-28T14:16:53.153Z</time></trkpt><trkpt lat="45.9320267" lon="12.9014867"><ele>33.0</ele><time>2026-03-28T14:16:54.154Z</time></trkpt><trkpt lat="45.9319267" lon="12.9015083"><ele>33.0</ele><time>2026-03-28T14:16:55.153Z</time></trkpt><trkpt lat="45.9318167" lon="12.901525"><ele>33.5</ele><time>2026-03-28T14:16:56.153Z</time></trkpt><trkpt lat="45.9317083" lon="12.90155"><ele>34.0</ele><time>2026-03-28T14:16:57.154Z</time></trkpt><trkpt lat="45.9315933" lon="12.9015667"><ele>34.5</ele><time>2026-03-28T14:16:58.153Z</time></trkpt><trkpt lat="45.93148" lon="12.90159"><ele>35.0</ele><time>2026-03-28T14:16:59.152Z</time></trkpt><trkpt lat="45.93135" lon="12.9016133"><ele>35.0</ele><time>2026-03-28T14:17:00.152Z</time></trkpt><trkpt lat="45.9312283" lon="12.9016367"><ele>35.0</ele><time>2026-03-28T14:17:01.153Z</time></trkpt><trkpt lat="45.9311033" lon="12.9016667"><ele>35.0</ele><time>2026-03-28T14:17:02.152Z</time></trkpt><trkpt lat="45.9309733" lon="12.9016867"><ele>35.0</ele><time>2026-03-28T14:17:03.152Z</time></trkpt><trkpt lat="45.9308483" lon="12.90172"><ele>35.0</ele><time>2026-03-28T14:17:04.153Z</time></trkpt><trkpt lat="45.9307217" lon="12.9017483"><ele>35.0</ele><time>2026-03-28T14:17:05.153Z</time></trkpt><trkpt lat="45.93059" lon="12.9017783"><ele>35.0</ele><time>2026-03-28T14:17:06.152Z</time></trkpt><trkpt lat="45.930465" lon="12.9018117"><ele>35.0</ele><time>2026-03-28T14:17:07.152Z</time></trkpt><trkpt lat="45.930335" lon="12.9018383"><ele>34.75</ele><time>2026-03-28T14:17:08.152Z</time></trkpt><trkpt lat="45.9302067" lon="12.9018633"><ele>34.5</ele><time>2026-03-28T14:17:09.152Z</time></trkpt><trkpt lat="45.930085" lon="12.9018867"><ele>34.25</ele><time>2026-03-28T14:17:10.152Z</time></trkpt><trkpt lat="45.9299617" lon="12.90191"><ele>34.0</ele><time>2026-03-28T14:17:11.153Z</time></trkpt><trkpt lat="45.9298367" lon="12.901935"><ele>34.75</ele><time>2026-03-28T14:17:12.153Z</time></trkpt><trkpt lat="45.9297133" lon="12.9019683"><ele>35.5</ele><time>2026-03-28T14:17:13.152Z</time></trkpt><trkpt lat="45.9296033" lon="12.902"><ele>36.25</ele><time>2026-03-28T14:17:14.152Z</time></trkpt><trkpt lat="45.9294933" lon="12.9020283"><ele>37.0</ele><time>2026-03-28T14:17:15.153Z</time></trkpt><trkpt lat="45.9293917" lon="12.9020467"><ele>37.0</ele><time>2026-03-28T14:17:16.152Z</time></trkpt><trkpt lat="45.929295" lon="12.90207"><ele>37.0</ele><time>2026-03-28T14:17:17.152Z</time></trkpt><trkpt lat="45.9292083" lon="12.902085"><ele>37.0</ele><time>2026-03-28T14:17:18.152Z</time></trkpt><trkpt lat="45.929125" lon="12.9021017"><ele>37.0</ele><time>2026-03-28T14:17:19.152Z</time></trkpt><trkpt lat="45.929045" lon="12.9021167"><ele>37.0</ele><time>2026-03-28T14:17:20.153Z</time></trkpt><trkpt lat="45.928975" lon="12.9021233"><ele>37.0</ele><time>2026-03-28T14:17:21.153Z</time></trkpt><trkpt lat="45.928905" lon="12.9021233"><ele>36.5</ele><time>2026-03-28T14:17:22.152Z</time></trkpt><trkpt lat="45.9288067" lon="12.9021283"><ele>36.0</ele><time>2026-03-28T14:17:24.152Z</time></trkpt><trkpt lat="45.928755" lon="12.9021867"><ele>35.5</ele><time>2026-03-28T14:17:26.152Z</time></trkpt><trkpt lat="45.9287367" lon="12.9023117"><ele>35.0</ele><time>2026-03-28T14:17:28.152Z</time></trkpt><trkpt lat="45.928735" lon="12.9024167"><ele>34.5</ele><time>2026-03-28T14:17:29.152Z</time></trkpt><trkpt lat="45.9287467" lon="12.90254"><ele>34.0</ele><time>2026-03-28T14:17:30.153Z</time></trkpt><trkpt lat="45.9287683" lon="12.9026817"><ele>33.6</ele><time>2026-03-28T14:17:31.152Z</time></trkpt><trkpt lat="45.9287917" lon="12.9028317"><ele>33.2</ele><time>2026-03-28T14:17:32.152Z</time></trkpt><trkpt lat="45.928815" lon="12.90299"><ele>32.800000000000004</ele><time>2026-03-28T14:17:33.152Z</time></trkpt><trkpt lat="45.92884" lon="12.9031517"><ele>32.4</ele><time>2026-03-28T14:17:34.152Z</time></trkpt><trkpt lat="45.9288583" lon="12.903295"><ele>32.0</ele><time>2026-03-28T14:17:35.153Z</time></trkpt><trkpt lat="45.9288683" lon="12.9033983"><ele>32.0</ele><time>2026-03-28T14:17:36.152Z</time></trkpt><trkpt lat="45.9288833" lon="12.9035417"><ele>32.0</ele><time>2026-03-28T14:17:38.152Z</time></trkpt><trkpt lat="45.9288233" lon="12.9036533"><ele>32.0</ele><time>2026-03-28T14:17:40.152Z</time></trkpt><trkpt lat="45.9287117" lon="12.9037517"><ele>32.0</ele><time>2026-03-28T14:17:42.153Z</time></trkpt><trkpt lat="45.928625" lon="12.9037917"><ele>32.0</ele><time>2026-03-28T14:17:43.152Z</time></trkpt><trkpt lat="45.9285167" lon="12.9038267"><ele>32.5</ele><time>2026-03-28T14:17:44.152Z</time></trkpt><trkpt lat="45.9283817" lon="12.9038633"><ele>33.0</ele><time>2026-03-28T14:17:45.152Z</time></trkpt><trkpt lat="45.9282367" lon="12.9039167"><ele>33.5</ele><time>2026-03-28T14:17:46.152Z</time></trkpt><trkpt lat="45.9280917" lon="12.9039583"><ele>34.0</ele><time>2026-03-28T14:17:47.152Z</time></trkpt><trkpt lat="45.927935" lon="12.9040067"><ele>34.0</ele><time>2026-03-28T14:17:48.152Z</time></trkpt><trkpt lat="45.92778" lon="12.904055"><ele>34.0</ele><time>2026-03-28T14:17:49.153Z</time></trkpt><trkpt lat="45.927625" lon="12.904095"><ele>34.0</ele><time>2026-03-28T14:17:50.152Z</time></trkpt><trkpt lat="45.9274683" lon="12.904135"><ele>34.0</ele><time>2026-03-28T14:17:51.152Z</time></trkpt><trkpt lat="45.9273133" lon="12.9041783"><ele>34.0</ele><time>2026-03-28T14:17:52.152Z</time></trkpt><trkpt lat="45.92717" lon="12.904215"><ele>34.0</ele><time>2026-03-28T14:17:53.153Z</time></trkpt><trkpt lat="45.927055" lon="12.9042467"><ele>34.0</ele><time>2026-03-28T14:17:54.152Z</time></trkpt><trkpt lat="45.926955" lon="12.9042817"><ele>33.8</ele><time>2026-03-28T14:17:55.152Z</time></trkpt><trkpt lat="45.926855" lon="12.90432"><ele>33.599999999999994</ele><time>2026-03-28T14:17:56.152Z</time></trkpt><trkpt lat="45.92675" lon="12.9043517"><ele>33.4</ele><time>2026-03-28T14:17:57.152Z</time></trkpt><trkpt lat="45.9266483" lon="12.9043683"><ele>33.199999999999996</ele><time>2026-03-28T14:17:58.153Z</time></trkpt><trkpt lat="45.9265533" lon="12.9043883"><ele>33.0</ele><time>2026-03-28T14:17:59.152Z</time></trkpt><trkpt lat="45.9264567" lon="12.90442"><ele>32.8</ele><time>2026-03-28T14:18:00.152Z</time></trkpt><trkpt lat="45.926355" lon="12.9044467"><ele>32.599999999999994</ele><time>2026-03-28T14:18:01.152Z</time></trkpt><trkpt lat="45.9262517" lon="12.9044667"><ele>32.400000000000006</ele><time>2026-03-28T14:18:02.152Z</time></trkpt><trkpt lat="45.9261367" lon="12.9044983"><ele>32.2</ele><time>2026-03-28T14:18:03.153Z</time></trkpt><trkpt lat="45.92602" lon="12.904535"><ele>32.0</ele><time>2026-03-28T14:18:04.152Z</time></trkpt><trkpt lat="45.9258933" lon="12.9045683"><ele>31.75</ele><time>2026-03-28T14:18:05.152Z</time></trkpt><trkpt lat="45.92576" lon="12.9046083"><ele>31.5</ele><time>2026-03-28T14:18:06.152Z</time></trkpt><trkpt lat="45.9256317" lon="12.9046533"><ele>31.25</ele><time>2026-03-28T14:18:07.153Z</time></trkpt><trkpt lat="45.9255" lon="12.9047117"><ele>31.0</ele><time>2026-03-28T14:18:08.153Z</time></trkpt><trkpt lat="45.92536" lon="12.904765"><ele>31.0</ele><time>2026-03-28T14:18:09.152Z</time></trkpt><trkpt lat="45.925215" lon="12.9048133"><ele>31.0</ele><time>2026-03-28T14:18:10.152Z</time></trkpt><trkpt lat="45.9250733" lon="12.9048617"><ele>31.0</ele><time>2026-03-28T14:18:11.153Z</time></trkpt><trkpt lat="45.924925" lon="12.9049067"><ele>31.0</ele><time>2026-03-28T14:18:12.152Z</time></trkpt><trkpt lat="45.924785" lon="12.9049517"><ele>31.25</ele><time>2026-03-28T14:18:13.152Z</time></trkpt><trkpt lat="45.924655" lon="12.90499"><ele>31.5</ele><time>2026-03-28T14:18:14.153Z</time></trkpt><trkpt lat="45.9245383" lon="12.90502"><ele>31.75</ele><time>2026-03-28T14:18:15.152Z</time></trkpt><trkpt lat="45.92443" lon="12.9050467"><ele>32.0</ele><time>2026-03-28T14:18:16.152Z</time></trkpt><trkpt lat="45.92433" lon="12.9050717"><ele>32.0</ele><time>2026-03-28T14:18:17.152Z</time></trkpt><trkpt lat="45.9242367" lon="12.90511"><ele>32.0</ele><time>2026-03-28T14:18:18.152Z</time></trkpt><trkpt lat="45.9241467" lon="12.9051517"><ele>32.0</ele><time>2026-03-28T14:18:19.152Z</time></trkpt><trkpt lat="45.92404" lon="12.905185"><ele>32.0</ele><time>2026-03-28T14:18:20.152Z</time></trkpt><trkpt lat="45.92392" lon="12.9052017"><ele>32.0</ele><time>2026-03-28T14:18:21.153Z</time></trkpt><trkpt lat="45.9237967" lon="12.9052017"><ele>32.0</ele><time>2026-03-28T14:18:22.152Z</time></trkpt><trkpt lat="45.9236817" lon="12.9052067"><ele>32.0</ele><time>2026-03-28T14:18:23.152Z</time></trkpt><trkpt lat="45.9235783" lon="12.9052117"><ele>32.0</ele><time>2026-03-28T14:18:24.152Z</time></trkpt><trkpt lat="45.92348" lon="12.905235"><ele>32.0</ele><time>2026-03-28T14:18:25.152Z</time></trkpt><trkpt lat="45.9233833" lon="12.9052867"><ele>32.0</ele><time>2026-03-28T14:18:26.152Z</time></trkpt><trkpt lat="45.9232883" lon="12.9053433"><ele>32.0</ele><time>2026-03-28T14:18:27.152Z</time></trkpt><trkpt lat="45.92318" lon="12.9054083"><ele>32.0</ele><time>2026-03-28T14:18:28.152Z</time></trkpt><trkpt lat="45.9230617" lon="12.90547"><ele>32.0</ele><time>2026-03-28T14:18:29.152Z</time></trkpt><trkpt lat="45.92295" lon="12.905505"><ele>32.0</ele><time>2026-03-28T14:18:30.152Z</time></trkpt><trkpt lat="45.9228267" lon="12.90552"><ele>32.0</ele><time>2026-03-28T14:18:31.153Z</time></trkpt><trkpt lat="45.9226983" lon="12.9055267"><ele>32.0</ele><time>2026-03-28T14:18:32.152Z</time></trkpt><trkpt lat="45.9225883" lon="12.9055083"><ele>32.0</ele><time>2026-03-28T14:18:33.152Z</time></trkpt><trkpt lat="45.922495" lon="12.9054933"><ele>32.0</ele><time>2026-03-28T14:18:34.152Z</time></trkpt><trkpt lat="45.92241" lon="12.905485"><ele>32.0</ele><time>2026-03-28T14:18:35.152Z</time></trkpt><trkpt lat="45.9223317" lon="12.9054933"><ele>32.0</ele><time>2026-03-28T14:18:36.153Z</time></trkpt><trkpt lat="45.9222567" lon="12.9055283"><ele>32.0</ele><time>2026-03-28T14:18:37.152Z</time></trkpt><trkpt lat="45.92218" lon="12.9055917"><ele>32.0</ele><time>2026-03-28T14:18:38.152Z</time></trkpt><trkpt lat="45.9220883" lon="12.9056917"><ele>32.0</ele><time>2026-03-28T14:18:39.152Z</time></trkpt><trkpt lat="45.9219717" lon="12.90582"><ele>32.0</ele><time>2026-03-28T14:18:40.152Z</time></trkpt><trkpt lat="45.9218567" lon="12.905935"><ele>32.0</ele><time>2026-03-28T14:18:41.152Z</time></trkpt><trkpt lat="45.9217483" lon="12.90607"><ele>32.0</ele><time>2026-03-28T14:18:42.152Z</time></trkpt><trkpt lat="45.921645" lon="12.906225"><ele>32.0</ele><time>2026-03-28T14:18:43.152Z</time></trkpt><trkpt lat="45.92155" lon="12.906395"><ele>32.0</ele><time>2026-03-28T14:18:44.152Z</time></trkpt><trkpt lat="45.9214583" lon="12.9065583"><ele>31.75</ele><time>2026-03-28T14:18:45.153Z</time></trkpt><trkpt lat="45.92136" lon="12.906705"><ele>31.5</ele><time>2026-03-28T14:18:46.152Z</time></trkpt><trkpt lat="45.9212517" lon="12.90683"><ele>31.25</ele><time>2026-03-28T14:18:47.153Z</time></trkpt><trkpt lat="45.9211383" lon="12.9069267"><ele>31.0</ele><time>2026-03-28T14:18:48.152Z</time></trkpt><trkpt lat="45.9210167" lon="12.9070183"><ele>30.75</ele><time>2026-03-28T14:18:49.152Z</time></trkpt><trkpt lat="45.920885" lon="12.907105"><ele>30.5</ele><time>2026-03-28T14:18:50.153Z</time></trkpt><trkpt lat="45.9207517" lon="12.9071917"><ele>30.25</ele><time>2026-03-28T14:18:51.153Z</time></trkpt><trkpt lat="45.92063" lon="12.90729"><ele>30.0</ele><time>2026-03-28T14:18:52.152Z</time></trkpt><trkpt lat="45.92052" lon="12.9073867"><ele>30.0</ele><time>2026-03-28T14:18:53.152Z</time></trkpt><trkpt lat="45.9204133" lon="12.9074783"><ele>30.0</ele><time>2026-03-28T14:18:54.152Z</time></trkpt><trkpt lat="45.92031" lon="12.9075717"><ele>30.0</ele><time>2026-03-28T14:18:55.152Z</time></trkpt><trkpt lat="45.9202017" lon="12.9076533"><ele>30.0</ele><time>2026-03-28T14:18:56.152Z</time></trkpt><trkpt lat="45.9201" lon="12.9077117"><ele>30.25</ele><time>2026-03-28T14:18:57.152Z</time></trkpt><trkpt lat="45.9200067" lon="12.90774"><ele>30.5</ele><time>2026-03-28T14:18:58.152Z</time></trkpt><trkpt lat="45.919895" lon="12.9077367"><ele>30.75</ele><time>2026-03-28T14:18:59.152Z</time></trkpt><trkpt lat="45.91977" lon="12.907735"><ele>31.0</ele><time>2026-03-28T14:19:00.152Z</time></trkpt><trkpt lat="45.9196433" lon="12.9077467"><ele>31.0</ele><time>2026-03-28T14:19:01.153Z</time></trkpt><trkpt lat="45.91952" lon="12.90776"><ele>31.0</ele><time>2026-03-28T14:19:02.152Z</time></trkpt><trkpt lat="45.9193833" lon="12.9077733"><ele>31.0</ele><time>2026-03-28T14:19:03.152Z</time></trkpt><trkpt lat="45.91925" lon="12.9077933"><ele>31.0</ele><time>2026-03-28T14:19:04.152Z</time></trkpt><trkpt lat="45.919125" lon="12.9078017"><ele>30.75</ele><time>2026-03-28T14:19:05.153Z</time></trkpt><trkpt lat="45.9190117" lon="12.907815"><ele>30.5</ele><time>2026-03-28T14:19:06.152Z</time></trkpt><trkpt lat="45.9189033" lon="12.907835"><ele>30.25</ele><time>2026-03-28T14:19:07.152Z</time></trkpt><trkpt lat="45.9187967" lon="12.907865"><ele>30.0</ele><time>2026-03-28T14:19:08.153Z</time></trkpt><trkpt lat="45.9186817" lon="12.9079033"><ele>30.0</ele><time>2026-03-28T14:19:09.152Z</time></trkpt><trkpt lat="45.918545" lon="12.9079583"><ele>30.0</ele><time>2026-03-28T14:19:10.153Z</time></trkpt><trkpt lat="45.9183967" lon="12.9079967"><ele>30.0</ele><time>2026-03-28T14:19:11.152Z</time></trkpt><trkpt lat="45.9182417" lon="12.9080167"><ele>30.0</ele><time>2026-03-28T14:19:12.153Z</time></trkpt><trkpt lat="45.9180833" lon="12.9080267"><ele>30.0</ele><time>2026-03-28T14:19:13.153Z</time></trkpt><trkpt lat="45.9179317" lon="12.9080317"><ele>30.0</ele><time>2026-03-28T14:19:14.152Z</time></trkpt><trkpt lat="45.9177733" lon="12.90804"><ele>30.0</ele><time>2026-03-28T14:19:15.153Z</time></trkpt><trkpt lat="45.9176133" lon="12.9080567"><ele>30.0</ele><time>2026-03-28T14:19:16.153Z</time></trkpt><trkpt lat="45.91745" lon="12.9080767"><ele>30.0</ele><time>2026-03-28T14:19:17.152Z</time></trkpt><trkpt lat="45.9172917" lon="12.9080933"><ele>30.0</ele><time>2026-03-28T14:19:18.152Z</time></trkpt><trkpt lat="45.9171383" lon="12.9080783"><ele>30.0</ele><time>2026-03-28T14:19:19.153Z</time></trkpt><trkpt lat="45.9169767" lon="12.9080517"><ele>30.0</ele><time>2026-03-28T14:19:20.152Z</time></trkpt><trkpt lat="45.9168117" lon="12.9080317"><ele>30.0</ele><time>2026-03-28T14:19:21.152Z</time></trkpt><trkpt lat="45.9166367" lon="12.9080283"><ele>30.0</ele><time>2026-03-28T14:19:22.152Z</time></trkpt><trkpt lat="45.9164617" lon="12.9080383"><ele>30.0</ele><time>2026-03-28T14:19:23.153Z</time></trkpt><trkpt lat="45.9163" lon="12.9080483"><ele>30.0</ele><time>2026-03-28T14:19:24.153Z</time></trkpt><trkpt lat="45.91615" lon="12.908045"><ele>30.0</ele><time>2026-03-28T14:19:25.152Z</time></trkpt><trkpt lat="45.9160167" lon="12.9080167"><ele>30.0</ele><time>2026-03-28T14:19:26.153Z</time></trkpt><trkpt lat="45.91587" lon="12.9079967"><ele>30.0</ele><time>2026-03-28T14:19:27.152Z</time></trkpt><trkpt lat="45.9157167" lon="12.9079667"><ele>30.0</ele><time>2026-03-28T14:19:28.152Z</time></trkpt><trkpt lat="45.9155783" lon="12.90794"><ele>30.0</ele><time>2026-03-28T14:19:29.152Z</time></trkpt><trkpt lat="45.9154483" lon="12.9079317"><ele>30.0</ele><time>2026-03-28T14:19:30.152Z</time></trkpt><trkpt lat="45.9153133" lon="12.9079483"><ele>30.0</ele><time>2026-03-28T14:19:31.152Z</time></trkpt><trkpt lat="45.915165" lon="12.9079917"><ele>30.0</ele><time>2026-03-28T14:19:32.152Z</time></trkpt><trkpt lat="45.9150033" lon="12.9080667"><ele>30.0</ele><time>2026-03-28T14:19:33.152Z</time></trkpt><trkpt lat="45.91483" lon="12.9081433"><ele>30.0</ele><time>2026-03-28T14:19:34.152Z</time></trkpt><trkpt lat="45.914675" lon="12.9082283"><ele>30.0</ele><time>2026-03-28T14:19:35.152Z</time></trkpt><trkpt lat="45.914545" lon="12.908315"><ele>30.0</ele><time>2026-03-28T14:19:36.153Z</time></trkpt><trkpt lat="45.914435" lon="12.9084033"><ele>30.0</ele><time>2026-03-28T14:19:37.152Z</time></trkpt><trkpt lat="45.91434" lon="12.9084783"><ele>30.0</ele><time>2026-03-28T14:19:38.152Z</time></trkpt><trkpt lat="45.9142517" lon="12.9085583"><ele>30.0</ele><time>2026-03-28T14:19:39.152Z</time></trkpt><trkpt lat="45.9141667" lon="12.9086417"><ele>30.0</ele><time>2026-03-28T14:19:40.152Z</time></trkpt><trkpt lat="45.9140783" lon="12.908745"><ele>29.5</ele><time>2026-03-28T14:19:41.153Z</time></trkpt><trkpt lat="45.9139933" lon="12.9088717"><ele>29.0</ele><time>2026-03-28T14:19:42.152Z</time></trkpt><trkpt lat="45.91391" lon="12.9090217"><ele>28.5</ele><time>2026-03-28T14:19:43.152Z</time></trkpt><trkpt lat="45.9138167" lon="12.9091667"><ele>28.0</ele><time>2026-03-28T14:19:44.153Z</time></trkpt><trkpt lat="45.9137117" lon="12.9093033"><ele>28.25</ele><time>2026-03-28T14:19:45.152Z</time></trkpt><trkpt lat="45.913605" lon="12.90943"><ele>28.5</ele><time>2026-03-28T14:19:46.152Z</time></trkpt><trkpt lat="45.91351" lon="12.9095433"><ele>28.75</ele><time>2026-03-28T14:19:47.152Z</time></trkpt><trkpt lat="45.9134217" lon="12.90965"><ele>29.0</ele><time>2026-03-28T14:19:48.152Z</time></trkpt><trkpt lat="45.9133367" lon="12.9097683"><ele>29.0</ele><time>2026-03-28T14:19:49.152Z</time></trkpt><trkpt lat="45.9132533" lon="12.9099033"><ele>29.0</ele><time>2026-03-28T14:19:50.152Z</time></trkpt><trkpt lat="45.913175" lon="12.9100367"><ele>29.0</ele><time>2026-03-28T14:19:51.153Z</time></trkpt><trkpt lat="45.9131067" lon="12.9101567"><ele>29.0</ele><time>2026-03-28T14:19:52.152Z</time></trkpt><trkpt lat="45.91304" lon="12.910245"><ele>29.0</ele><time>2026-03-28T14:19:53.152Z</time></trkpt><trkpt lat="45.9129783" lon="12.91031"><ele>28.666666666666664</ele><time>2026-03-28T14:19:54.152Z</time></trkpt><trkpt lat="45.912915" lon="12.9103533"><ele>28.333333333333332</ele><time>2026-03-28T14:19:55.152Z</time></trkpt><trkpt lat="45.9128133" lon="12.91041"><ele>28.0</ele><time>2026-03-28T14:19:57.153Z</time></trkpt><trkpt lat="45.9127033" lon="12.9104833"><ele>27.666666666666664</ele><time>2026-03-28T14:19:59.153Z</time></trkpt><trkpt lat="45.9126417" lon="12.91053"><ele>27.333333333333332</ele><time>2026-03-28T14:20:00.152Z</time></trkpt><trkpt lat="45.912575" lon="12.9105833"><ele>27.0</ele><time>2026-03-28T14:20:01.152Z</time></trkpt><trkpt lat="45.9125017" lon="12.910645"><ele>27.0</ele><time>2026-03-28T14:20:02.152Z</time></trkpt><trkpt lat="45.9124283" lon="12.9107017"><ele>27.0</ele><time>2026-03-28T14:20:03.152Z</time></trkpt><trkpt lat="45.9123633" lon="12.9107567"><ele>27.0</ele><time>2026-03-28T14:20:04.153Z</time></trkpt><trkpt lat="45.91227" lon="12.910855"><ele>27.0</ele><time>2026-03-28T14:20:06.153Z</time></trkpt><trkpt lat="45.9122167" lon="12.9109133"><ele>27.0</ele><time>2026-03-28T14:20:07.153Z</time></trkpt><trkpt lat="45.9121517" lon="12.9109667"><ele>27.0</ele><time>2026-03-28T14:20:08.152Z</time></trkpt><trkpt lat="45.9120883" lon="12.9110083"><ele>27.0</ele><time>2026-03-28T14:20:09.153Z</time></trkpt><trkpt lat="45.9119817" lon="12.9110167"><ele>27.0</ele><time>2026-03-28T14:20:11.152Z</time></trkpt><trkpt lat="45.911885" lon="12.91095"><ele>27.0</ele><time>2026-03-28T14:20:13.152Z</time></trkpt><trkpt lat="45.911835" lon="12.910895"><ele>27.0</ele><time>2026-03-28T14:20:33.153Z</time></trkpt><trkpt lat="45.9117733" lon="12.9108183"><ele>27.0</ele><time>2026-03-28T14:20:35.153Z</time></trkpt><trkpt lat="45.91171" lon="12.9107317"><ele>27.0</ele><time>2026-03-28T14:20:37.152Z</time></trkpt><trkpt lat="45.91165" lon="12.9106367"><ele>27.400000000000002</ele><time>2026-03-28T14:20:39.153Z</time></trkpt><trkpt lat="45.91159" lon="12.910535"><ele>27.800000000000004</ele><time>2026-03-28T14:20:41.153Z</time></trkpt><trkpt lat="45.91151" lon="12.9104"><ele>28.2</ele><time>2026-03-28T14:20:43.152Z</time></trkpt><trkpt lat="45.911445" lon="12.910305"><ele>28.6</ele><time>2026-03-28T14:20:44.152Z</time></trkpt><trkpt lat="45.91136" lon="12.9102083"><ele>29.0</ele><time>2026-03-28T14:20:45.152Z</time></trkpt><trkpt lat="45.9112817" lon="12.9101117"><ele>29.0</ele><time>2026-03-28T14:20:46.152Z</time></trkpt><trkpt lat="45.9112017" lon="12.91003"><ele>29.0</ele><time>2026-03-28T14:20:47.153Z</time></trkpt><trkpt lat="45.911125" lon="12.909955"><ele>29.0</ele><time>2026-03-28T14:20:48.153Z</time></trkpt><trkpt lat="45.91106" lon="12.909895"><ele>29.0</ele><time>2026-03-28T14:20:49.153Z</time></trkpt><trkpt lat="45.9109533" lon="12.9098367"><ele>29.0</ele><time>2026-03-28T14:20:51.152Z</time></trkpt><trkpt lat="45.9108783" lon="12.9098133"><ele>28.799999999999997</ele><time>2026-03-28T14:20:52.153Z</time></trkpt><trkpt lat="45.9107917" lon="12.9097817"><ele>28.599999999999998</ele><time>2026-03-28T14:20:53.153Z</time></trkpt><trkpt lat="45.9107083" lon="12.90975"><ele>28.4</ele><time>2026-03-28T14:20:54.152Z</time></trkpt><trkpt lat="45.9106117" lon="12.90972"><ele>28.2</ele><time>2026-03-28T14:20:55.152Z</time></trkpt><trkpt lat="45.9105133" lon="12.9096867"><ele>28.0</ele><time>2026-03-28T14:20:56.153Z</time></trkpt><trkpt lat="45.9104067" lon="12.909665"><ele>28.0</ele><time>2026-03-28T14:20:57.152Z</time></trkpt><trkpt lat="45.9103" lon="12.9096517"><ele>27.999999999999996</ele><time>2026-03-28T14:20:58.152Z</time></trkpt><trkpt lat="45.910205" lon="12.9096583"><ele>27.999999999999996</ele><time>2026-03-28T14:20:59.153Z</time></trkpt><trkpt lat="45.91012" lon="12.9096767"><ele>28.0</ele><time>2026-03-28T14:21:00.153Z</time></trkpt><trkpt lat="45.91003" lon="12.909715"><ele>28.0</ele><time>2026-03-28T14:21:01.153Z</time></trkpt><trkpt lat="45.9099383" lon="12.9097767"><ele>28.25</ele><time>2026-03-28T14:21:02.153Z</time></trkpt><trkpt lat="45.909825" lon="12.909845"><ele>28.5</ele><time>2026-03-28T14:21:03.153Z</time></trkpt><trkpt lat="45.9097017" lon="12.9099183"><ele>28.75</ele><time>2026-03-28T14:21:04.152Z</time></trkpt><trkpt lat="45.9095767" lon="12.9099717"><ele>29.0</ele><time>2026-03-28T14:21:05.152Z</time></trkpt><trkpt lat="45.909455" lon="12.9100267"><ele>29.0</ele><time>2026-03-28T14:21:06.152Z</time></trkpt><trkpt lat="45.909335" lon="12.9100883"><ele>29.0</ele><time>2026-03-28T14:21:07.152Z</time></trkpt><trkpt lat="45.9092283" lon="12.910155"><ele>29.0</ele><time>2026-03-28T14:21:08.152Z</time></trkpt><trkpt lat="45.9091267" lon="12.9102283"><ele>29.0</ele><time>2026-03-28T14:21:09.152Z</time></trkpt><trkpt lat="45.9090283" lon="12.910295"><ele>29.0</ele><time>2026-03-28T14:21:10.153Z</time></trkpt><trkpt lat="45.9089217" lon="12.9103733"><ele>29.0</ele><time>2026-03-28T14:21:11.153Z</time></trkpt><trkpt lat="45.9088217" lon="12.9104567"><ele>29.0</ele><time>2026-03-28T14:21:12.152Z</time></trkpt><trkpt lat="45.908715" lon="12.9105417"><ele>29.0</ele><time>2026-03-28T14:21:13.152Z</time></trkpt><trkpt lat="45.9086117" lon="12.9106133"><ele>29.0</ele><time>2026-03-28T14:21:14.152Z</time></trkpt><trkpt lat="45.908505" lon="12.91068"><ele>29.0</ele><time>2026-03-28T14:21:15.152Z</time></trkpt><trkpt lat="45.9083967" lon="12.910745"><ele>29.0</ele><time>2026-03-28T14:21:16.152Z</time></trkpt><trkpt lat="45.90829" lon="12.9108117"><ele>29.0</ele><time>2026-03-28T14:21:17.152Z</time></trkpt><trkpt lat="45.9081917" lon="12.910875"><ele>28.75</ele><time>2026-03-28T14:21:18.152Z</time></trkpt><trkpt lat="45.9080817" lon="12.91095"><ele>28.5</ele><time>2026-03-28T14:21:19.152Z</time></trkpt><trkpt lat="45.9079617" lon="12.9110333"><ele>28.25</ele><time>2026-03-28T14:21:20.152Z</time></trkpt><trkpt lat="45.9078483" lon="12.911115"><ele>28.0</ele><time>2026-03-28T14:21:21.152Z</time></trkpt><trkpt lat="45.90774" lon="12.9111917"><ele>28.0</ele><time>2026-03-28T14:21:22.153Z</time></trkpt><trkpt lat="45.9076333" lon="12.9112767"><ele>28.0</ele><time>2026-03-28T14:21:23.152Z</time></trkpt><trkpt lat="45.9075183" lon="12.911365"><ele>28.0</ele><time>2026-03-28T14:21:24.152Z</time></trkpt><trkpt lat="45.907385" lon="12.9114467"><ele>28.0</ele><time>2026-03-28T14:21:25.152Z</time></trkpt><trkpt lat="45.90723" lon="12.9115217"><ele>27.666666666666668</ele><time>2026-03-28T14:21:26.152Z</time></trkpt><trkpt lat="45.9070733" lon="12.911585"><ele>27.333333333333336</ele><time>2026-03-28T14:21:27.153Z</time></trkpt><trkpt lat="45.9069183" lon="12.91164"><ele>27.0</ele><time>2026-03-28T14:21:28.152Z</time></trkpt><trkpt lat="45.9067717" lon="12.9116967"><ele>26.75</ele><time>2026-03-28T14:21:29.153Z</time></trkpt><trkpt lat="45.90664" lon="12.9117533"><ele>26.5</ele><time>2026-03-28T14:21:30.152Z</time></trkpt><trkpt lat="45.9065233" lon="12.9118017"><ele>26.25</ele><time>2026-03-28T14:21:31.153Z</time></trkpt><trkpt lat="45.9064217" lon="12.9118367"><ele>26.0</ele><time>2026-03-28T14:21:32.153Z</time></trkpt><trkpt lat="45.9063317" lon="12.9118567"><ele>25.999999999999996</ele><time>2026-03-28T14:21:33.152Z</time></trkpt><trkpt lat="45.9062467" lon="12.911865"><ele>26.0</ele><time>2026-03-28T14:21:34.152Z</time></trkpt><trkpt lat="45.9061733" lon="12.9118867"><ele>26.0</ele><time>2026-03-28T14:21:35.152Z</time></trkpt><trkpt lat="45.9061033" lon="12.91191"><ele>26.0</ele><time>2026-03-28T14:21:36.152Z</time></trkpt><trkpt lat="45.9060367" lon="12.911925"><ele>25.999999999999996</ele><time>2026-03-28T14:21:37.152Z</time></trkpt><trkpt lat="45.9059383" lon="12.91192"><ele>26.0</ele><time>2026-03-28T14:21:39.152Z</time></trkpt><trkpt lat="45.9058033" lon="12.9119067"><ele>25.8</ele><time>2026-03-28T14:21:41.153Z</time></trkpt><trkpt lat="45.9057183" lon="12.91192"><ele>25.6</ele><time>2026-03-28T14:21:42.152Z</time></trkpt><trkpt lat="45.90562" lon="12.9119383"><ele>25.4</ele><time>2026-03-28T14:21:43.153Z</time></trkpt><trkpt lat="45.9055383" lon="12.91195"><ele>25.2</ele><time>2026-03-28T14:21:44.152Z</time></trkpt><trkpt lat="45.9054683" lon="12.911955"><ele>25.0</ele><time>2026-03-28T14:21:45.153Z</time></trkpt><trkpt lat="45.9053417" lon="12.9119617"><ele>25.000000000000004</ele><time>2026-03-28T14:21:47.152Z</time></trkpt><trkpt lat="45.9052683" lon="12.9119783"><ele>25.0</ele><time>2026-03-28T14:21:48.153Z</time></trkpt><trkpt lat="45.90518" lon="12.912"><ele>25.0</ele><time>2026-03-28T14:21:49.152Z</time></trkpt><trkpt lat="45.9050867" lon="12.912025"><ele>25.0</ele><time>2026-03-28T14:21:50.152Z</time></trkpt><trkpt lat="45.9050033" lon="12.9120517"><ele>25.000000000000004</ele><time>2026-03-28T14:21:51.153Z</time></trkpt><trkpt lat="45.9049367" lon="12.9120683"><ele>25.0</ele><time>2026-03-28T14:21:52.153Z</time></trkpt><trkpt lat="45.9048367" lon="12.9120617"><ele>25.0</ele><time>2026-03-28T14:22:00.153Z</time></trkpt><trkpt lat="45.90473" lon="12.9119883"><ele>25.0</ele><time>2026-03-28T14:22:02.152Z</time></trkpt><trkpt lat="45.9046617" lon="12.911925"><ele>25.0</ele><time>2026-03-28T14:22:03.152Z</time></trkpt><trkpt lat="45.904595" lon="12.9118767"><ele>25.0</ele><time>2026-03-28T14:22:04.152Z</time></trkpt><trkpt lat="45.90448" lon="12.9118683"><ele>25.0</ele><time>2026-03-28T14:22:06.152Z</time></trkpt><trkpt lat="45.9043767" lon="12.911925"><ele>25.000000000000004</ele><time>2026-03-28T14:22:08.152Z</time></trkpt><trkpt lat="45.9043017" lon="12.9120233"><ele>25.0</ele><time>2026-03-28T14:22:10.152Z</time></trkpt><trkpt lat="45.9042533" lon="12.9120883"><ele>25.0</ele><time>2026-03-28T14:22:11.152Z</time></trkpt><trkpt lat="45.9041917" lon="12.9121467"><ele>25.0</ele><time>2026-03-28T14:22:12.152Z</time></trkpt><trkpt lat="45.904125" lon="12.9121817"><ele>25.000000000000004</ele><time>2026-03-28T14:22:13.153Z</time></trkpt><trkpt lat="45.9040633" lon="12.9122117"><ele>25.0</ele><time>2026-03-28T14:22:14.152Z</time></trkpt><trkpt lat="45.90394" lon="12.91228"><ele>25.0</ele><time>2026-03-28T14:22:16.152Z</time></trkpt><trkpt lat="45.9038633" lon="12.9123183"><ele>25.0</ele><time>2026-03-28T14:22:17.152Z</time></trkpt><trkpt lat="45.90377" lon="12.9123567"><ele>25.0</ele><time>2026-03-28T14:22:18.152Z</time></trkpt><trkpt lat="45.9036533" lon="12.9124083"><ele>25.0</ele><time>2026-03-28T14:22:19.153Z</time></trkpt><trkpt lat="45.903545" lon="12.91246"><ele>25.0</ele><time>2026-03-28T14:22:20.152Z</time></trkpt><trkpt lat="45.90346" lon="12.9125017"><ele>25.166666666666668</ele><time>2026-03-28T14:22:21.153Z</time></trkpt><trkpt lat="45.90338" lon="12.91253"><ele>25.333333333333336</ele><time>2026-03-28T14:22:22.153Z</time></trkpt><trkpt lat="45.9033067" lon="12.9125517"><ele>25.5</ele><time>2026-03-28T14:22:23.152Z</time></trkpt><trkpt lat="45.9032417" lon="12.9125617"><ele>25.666666666666664</ele><time>2026-03-28T14:22:24.153Z</time></trkpt><trkpt lat="45.9031233" lon="12.9125867"><ele>25.833333333333332</ele><time>2026-03-28T14:22:26.152Z</time></trkpt><trkpt lat="45.90306" lon="12.9125883"><ele>26.0</ele><time>2026-03-28T14:22:27.153Z</time></trkpt><trkpt lat="45.9029933" lon="12.9126067"><ele>26.0</ele><time>2026-03-28T14:22:28.152Z</time></trkpt><trkpt lat="45.9029267" lon="12.9126317"><ele>26.0</ele><time>2026-03-28T14:22:29.152Z</time></trkpt><trkpt lat="45.9028183" lon="12.91266"><ele>26.0</ele><time>2026-03-28T14:22:31.152Z</time></trkpt><trkpt lat="45.902725" lon="12.9127117"><ele>26.0</ele><time>2026-03-28T14:22:33.153Z</time></trkpt><trkpt lat="45.90262" lon="12.9127883"><ele>26.0</ele><time>2026-03-28T14:22:35.152Z</time></trkpt><trkpt lat="45.9025317" lon="12.9128467"><ele>25.833333333333332</ele><time>2026-03-28T14:22:37.152Z</time></trkpt><trkpt lat="45.902445" lon="12.9129117"><ele>25.666666666666664</ele><time>2026-03-28T14:22:39.153Z</time></trkpt><trkpt lat="45.9023533" lon="12.91297"><ele>25.5</ele><time>2026-03-28T14:22:41.152Z</time></trkpt><trkpt lat="45.902275" lon="12.9130267"><ele>25.333333333333336</ele><time>2026-03-28T14:22:43.153Z</time></trkpt><trkpt lat="45.9022" lon="12.9130817"><ele>25.166666666666668</ele><time>2026-03-28T14:22:45.152Z</time></trkpt><trkpt lat="45.9021383" lon="12.9131283"><ele>25.0</ele><time>2026-03-28T14:22:47.153Z</time></trkpt><trkpt lat="45.90205" lon="12.9131867"><ele>25.000000000000004</ele><time>2026-03-28T14:22:49.152Z</time></trkpt><trkpt lat="45.9019617" lon="12.9132433"><ele>25.0</ele><time>2026-03-28T14:22:51.152Z</time></trkpt><trkpt lat="45.9018867" lon="12.9132933"><ele>25.0</ele><time>2026-03-28T14:22:53.152Z</time></trkpt><trkpt lat="45.901815" lon="12.9133483"><ele>25.0</ele><time>2026-03-28T14:22:55.152Z</time></trkpt><trkpt lat="45.9017367" lon="12.9134"><ele>25.000000000000004</ele><time>2026-03-28T14:22:57.152Z</time></trkpt><trkpt lat="45.9016733" lon="12.9134417"><ele>25.0</ele><time>2026-03-28T14:22:59.152Z</time></trkpt><trkpt lat="45.90161" lon="12.9134867"><ele>25.000000000000004</ele><time>2026-03-28T14:23:01.152Z</time></trkpt><trkpt lat="45.9015467" lon="12.91352"><ele>25.0</ele><time>2026-03-28T14:23:03.152Z</time></trkpt><trkpt lat="45.90148" lon="12.9135467"><ele>25.0</ele><time>2026-03-28T14:23:05.152Z</time></trkpt><trkpt lat="45.9013783" lon="12.9136067"><ele>25.0</ele><time>2026-03-28T14:23:07.153Z</time></trkpt><trkpt lat="45.9013183" lon="12.913645"><ele>25.000000000000004</ele><time>2026-03-28T14:23:08.153Z</time></trkpt><trkpt lat="45.901245" lon="12.9136867"><ele>25.0</ele><time>2026-03-28T14:23:09.153Z</time></trkpt><trkpt lat="45.9011867" lon="12.9137317"><ele>25.0</ele><time>2026-03-28T14:23:10.152Z</time></trkpt><trkpt lat="45.9011067" lon="12.913815"><ele>25.0</ele><time>2026-03-28T14:23:12.153Z</time></trkpt><trkpt lat="45.9010283" lon="12.9139383"><ele>25.0</ele><time>2026-03-28T14:23:14.152Z</time></trkpt><trkpt lat="45.9009333" lon="12.9140517"><ele>25.0</ele><time>2026-03-28T14:23:16.152Z</time></trkpt><trkpt lat="45.90083" lon="12.9141167"><ele>25.0</ele><time>2026-03-28T14:23:18.152Z</time></trkpt><trkpt lat="45.9007483" lon="12.914185"><ele>25.0</ele><time>2026-03-28T14:23:20.152Z</time></trkpt><trkpt lat="45.9006433" lon="12.9142633"><ele>25.0</ele><time>2026-03-28T14:23:22.152Z</time></trkpt><trkpt lat="45.9005367" lon="12.9143317"><ele>25.0</ele><time>2026-03-28T14:23:24.152Z</time></trkpt><trkpt lat="45.9004583" lon="12.914395"><ele>25.0</ele><time>2026-03-28T14:23:26.152Z</time></trkpt><trkpt lat="45.9003883" lon="12.9144"><ele>25.0</ele><time>2026-03-28T14:23:29.152Z</time></trkpt><trkpt lat="45.9002983" lon="12.9144183"><ele>25.0</ele><time>2026-03-28T14:23:33.152Z</time></trkpt><trkpt lat="45.9001833" lon="12.91453"><ele>25.0</ele><time>2026-03-28T14:23:35.152Z</time></trkpt><trkpt lat="45.9000533" lon="12.9146233"><ele>25.0</ele><time>2026-03-28T14:23:37.152Z</time></trkpt><trkpt lat="45.8999967" lon="12.9146783"><ele>25.0</ele><time>2026-03-28T14:23:38.152Z</time></trkpt><trkpt lat="45.899945" lon="12.9147317"><ele>24.8</ele><time>2026-03-28T14:23:39.152Z</time></trkpt><trkpt lat="45.8998883" lon="12.9147783"><ele>24.6</ele><time>2026-03-28T14:23:40.152Z</time></trkpt><trkpt lat="45.8998333" lon="12.9148267"><ele>24.4</ele><time>2026-03-28T14:23:41.152Z</time></trkpt><trkpt lat="45.8997283" lon="12.9148917"><ele>24.2</ele><time>2026-03-28T14:23:43.153Z</time></trkpt><trkpt lat="45.89961" lon="12.9149717"><ele>24.0</ele><time>2026-03-28T14:23:45.152Z</time></trkpt><trkpt lat="45.8995383" lon="12.9150233"><ele>24.0</ele><time>2026-03-28T14:23:46.153Z</time></trkpt><trkpt lat="45.89947" lon="12.9150717"><ele>24.0</ele><time>2026-03-28T14:23:47.152Z</time></trkpt><trkpt lat="45.8993983" lon="12.9151283"><ele>24.0</ele><time>2026-03-28T14:23:48.152Z</time></trkpt><trkpt lat="45.8993267" lon="12.915175"><ele>24.0</ele><time>2026-03-28T14:23:49.153Z</time></trkpt><trkpt lat="45.89925" lon="12.9152283"><ele>24.0</ele><time>2026-03-28T14:23:50.153Z</time></trkpt><trkpt lat="45.8991667" lon="12.9152867"><ele>24.0</ele><time>2026-03-28T14:23:51.152Z</time></trkpt><trkpt lat="45.89909" lon="12.9153417"><ele>24.333333333333332</ele><time>2026-03-28T14:23:52.152Z</time></trkpt><trkpt lat="45.8990183" lon="12.9154033"><ele>24.666666666666664</ele><time>2026-03-28T14:23:53.152Z</time></trkpt><trkpt lat="45.8989533" lon="12.9154617"><ele>25.0</ele><time>2026-03-28T14:23:54.152Z</time></trkpt><trkpt lat="45.898895" lon="12.9155233"><ele>25.333333333333332</ele><time>2026-03-28T14:23:55.153Z</time></trkpt><trkpt lat="45.898835" lon="12.9155817"><ele>25.666666666666664</ele><time>2026-03-28T14:23:56.152Z</time></trkpt><trkpt lat="45.898775" lon="12.9156483"><ele>26.0</ele><time>2026-03-28T14:23:57.152Z</time></trkpt><trkpt lat="45.8987067" lon="12.9157233"><ele>26.0</ele><time>2026-03-28T14:23:58.152Z</time></trkpt><trkpt lat="45.8986317" lon="12.915805"><ele>26.0</ele><time>2026-03-28T14:23:59.152Z</time></trkpt><trkpt lat="45.8985483" lon="12.9158933"><ele>26.0</ele><time>2026-03-28T14:24:00.152Z</time></trkpt><trkpt lat="45.89846" lon="12.9159883"><ele>26.0</ele><time>2026-03-28T14:24:01.152Z</time></trkpt><trkpt lat="45.898375" lon="12.9160733"><ele>26.0</ele><time>2026-03-28T14:24:02.152Z</time></trkpt><trkpt lat="45.8982933" lon="12.9161483"><ele>26.0</ele><time>2026-03-28T14:24:03.152Z</time></trkpt><trkpt lat="45.8982117" lon="12.91622"><ele>26.0</ele><time>2026-03-28T14:24:04.152Z</time></trkpt><trkpt lat="45.8981267" lon="12.9162933"><ele>26.0</ele><time>2026-03-28T14:24:05.152Z</time></trkpt><trkpt lat="45.8980467" lon="12.916365"><ele>26.0</ele><time>2026-03-28T14:24:06.152Z</time></trkpt><trkpt lat="45.8979717" lon="12.916435"><ele>26.0</ele><time>2026-03-28T14:24:07.152Z</time></trkpt><trkpt lat="45.8979" lon="12.9165133"><ele>25.999999999999996</ele><time>2026-03-28T14:24:08.152Z</time></trkpt><trkpt lat="45.897825" lon="12.9165883"><ele>26.0</ele><time>2026-03-28T14:24:09.153Z</time></trkpt><trkpt lat="45.89776" lon="12.91667"><ele>26.0</ele><time>2026-03-28T14:24:10.152Z</time></trkpt><trkpt lat="45.89769" lon="12.9167517"><ele>26.0</ele><time>2026-03-28T14:24:11.152Z</time></trkpt><trkpt lat="45.8976283" lon="12.9168383"><ele>25.999999999999996</ele><time>2026-03-28T14:24:12.153Z</time></trkpt><trkpt lat="45.8975683" lon="12.9169267"><ele>26.0</ele><time>2026-03-28T14:24:13.152Z</time></trkpt><trkpt lat="45.8975167" lon="12.9170233"><ele>26.166666666666664</ele><time>2026-03-28T14:24:14.152Z</time></trkpt><trkpt lat="45.8974617" lon="12.9171283"><ele>26.333333333333332</ele><time>2026-03-28T14:24:15.152Z</time></trkpt><trkpt lat="45.89741" lon="12.917235"><ele>26.5</ele><time>2026-03-28T14:24:16.152Z</time></trkpt><trkpt lat="45.8973683" lon="12.9173367"><ele>26.666666666666664</ele><time>2026-03-28T14:24:17.152Z</time></trkpt><trkpt lat="45.8973417" lon="12.9174217"><ele>26.833333333333332</ele><time>2026-03-28T14:24:18.152Z</time></trkpt><trkpt lat="45.8973133" lon="12.91757"><ele>27.0</ele><time>2026-03-28T14:24:20.153Z</time></trkpt><trkpt lat="45.89727" lon="12.9177167"><ele>26.666666666666668</ele><time>2026-03-28T14:24:22.153Z</time></trkpt><trkpt lat="45.8972347" lon="12.917807"><ele>26.333333333333336</ele><time>2026-03-28T14:24:23.152Z</time></trkpt><trkpt lat="45.8971861" lon="12.9179003"><ele>26.0</ele><time>2026-03-28T14:24:24.152Z</time></trkpt><trkpt lat="45.8971294" lon="12.9179937"><ele>25.666666666666668</ele><time>2026-03-28T14:24:25.152Z</time></trkpt><trkpt lat="45.8970618" lon="12.9181012"><ele>25.333333333333336</ele><time>2026-03-28T14:24:26.152Z</time></trkpt><trkpt lat="45.8969889" lon="12.9182135"><ele>25.0</ele><time>2026-03-28T14:24:27.152Z</time></trkpt><trkpt lat="45.8969218" lon="12.9183194"><ele>25.000000000000004</ele><time>2026-03-28T14:24:28.152Z</time></trkpt><trkpt lat="45.8968644" lon="12.918417"><ele>25.0</ele><time>2026-03-28T14:24:29.152Z</time></trkpt><trkpt lat="45.8968081" lon="12.9185046"><ele>25.0</ele><time>2026-03-28T14:24:30.152Z</time></trkpt><trkpt lat="45.8967566" lon="12.9185788"><ele>25.0</ele><time>2026-03-28T14:24:31.152Z</time></trkpt><trkpt lat="45.8967093" lon="12.91864"><ele>25.000000000000004</ele><time>2026-03-28T14:24:32.152Z</time></trkpt><trkpt lat="45.8966337" lon="12.9187297"><ele>25.0</ele><time>2026-03-28T14:24:34.153Z</time></trkpt><trkpt lat="45.8965733" lon="12.91881"><ele>25.0</ele><time>2026-03-28T14:26:05.155Z</time></trkpt><trkpt lat="45.8966533" lon="12.91871"><ele>25.0</ele><time>2026-03-28T14:26:11.155Z</time></trkpt><trkpt lat="45.8967083" lon="12.9186333"><ele>25.0</ele><time>2026-03-28T14:26:12.156Z</time></trkpt><trkpt lat="45.8967783" lon="12.9185317"><ele>25.0</ele><time>2026-03-28T14:26:13.155Z</time></trkpt><trkpt lat="45.8968533" lon="12.9184183"><ele>25.0</ele><time>2026-03-28T14:26:14.155Z</time></trkpt><trkpt lat="45.8969283" lon="12.9183017"><ele>25.0</ele><time>2026-03-28T14:26:15.155Z</time></trkpt><trkpt lat="45.897" lon="12.91819"><ele>25.0</ele><time>2026-03-28T14:26:16.155Z</time></trkpt><trkpt lat="45.897065" lon="12.9180783"><ele>25.0</ele><time>2026-03-28T14:26:17.156Z</time></trkpt><trkpt lat="45.897125" lon="12.9179933"><ele>25.0</ele><time>2026-03-28T14:26:18.155Z</time></trkpt><trkpt lat="45.8971767" lon="12.9179"><ele>25.0</ele><time>2026-03-28T14:26:19.155Z</time></trkpt><trkpt lat="45.8972283" lon="12.9178083"><ele>25.000000000000004</ele><time>2026-03-28T14:26:20.155Z</time></trkpt><trkpt lat="45.8972667" lon="12.9177133"><ele>25.0</ele><time>2026-03-28T14:26:21.155Z</time></trkpt><trkpt lat="45.8973017" lon="12.9176117"><ele>25.0</ele><time>2026-03-28T14:26:22.156Z</time></trkpt><trkpt lat="45.897335" lon="12.917495"><ele>25.0</ele><time>2026-03-28T14:26:23.155Z</time></trkpt><trkpt lat="45.8973683" lon="12.91738"><ele>25.000000000000004</ele><time>2026-03-28T14:26:24.155Z</time></trkpt><trkpt lat="45.89741" lon="12.91727"><ele>25.0</ele><time>2026-03-28T14:26:25.155Z</time></trkpt><trkpt lat="45.8974517" lon="12.91717"><ele>25.2</ele><time>2026-03-28T14:26:26.155Z</time></trkpt><trkpt lat="45.8975067" lon="12.9170683"><ele>25.4</ele><time>2026-03-28T14:26:27.155Z</time></trkpt><trkpt lat="45.8975633" lon="12.91697"><ele>25.6</ele><time>2026-03-28T14:26:28.155Z</time></trkpt><trkpt lat="45.8976233" lon="12.91688"><ele>25.8</ele><time>2026-03-28T14:26:29.155Z</time></trkpt><trkpt lat="45.89768" lon="12.9167917"><ele>26.0</ele><time>2026-03-28T14:26:30.155Z</time></trkpt><trkpt lat="45.8977567" lon="12.9166917"><ele>25.999999999999996</ele><time>2026-03-28T14:26:32.155Z</time></trkpt><trkpt lat="45.897815" lon="12.9166517"><ele>26.0</ele><time>2026-03-28T14:26:35.155Z</time></trkpt><trkpt lat="45.8977467" lon="12.9166517"><ele>26.0</ele><time>2026-03-28T14:28:28.154Z</time></trkpt><trkpt lat="45.8976767" lon="12.916745"><ele>26.0</ele><time>2026-03-28T14:28:30.154Z</time></trkpt><trkpt lat="45.8976333" lon="12.9168117"><ele>25.999999999999996</ele><time>2026-03-28T14:28:31.154Z</time></trkpt><trkpt lat="45.8975817" lon="12.9168967"><ele>26.0</ele><time>2026-03-28T14:28:32.154Z</time></trkpt><trkpt lat="45.89752" lon="12.9170017"><ele>26.200000000000003</ele><time>2026-03-28T14:28:33.155Z</time></trkpt><trkpt lat="45.8974533" lon="12.9171283"><ele>26.400000000000002</ele><time>2026-03-28T14:28:34.154Z</time></trkpt><trkpt lat="45.8973983" lon="12.917255"><ele>26.6</ele><time>2026-03-28T14:28:35.154Z</time></trkpt><trkpt lat="45.8973567" lon="12.9173567"><ele>26.8</ele><time>2026-03-28T14:28:36.155Z</time></trkpt><trkpt lat="45.89733" lon="12.917455"><ele>27.0</ele><time>2026-03-28T14:28:37.154Z</time></trkpt><trkpt lat="45.8973083" lon="12.9175667"><ele>26.6</ele><time>2026-03-28T14:28:38.154Z</time></trkpt><trkpt lat="45.89727" lon="12.9176817"><ele>26.200000000000003</ele><time>2026-03-28T14:28:39.155Z</time></trkpt><trkpt lat="45.8972167" lon="12.9178117"><ele>25.8</ele><time>2026-03-28T14:28:40.154Z</time></trkpt><trkpt lat="45.8971433" lon="12.91795"><ele>25.4</ele><time>2026-03-28T14:28:41.154Z</time></trkpt><trkpt lat="45.89707" lon="12.9180767"><ele>25.0</ele><time>2026-03-28T14:28:42.155Z</time></trkpt><trkpt lat="45.8969917" lon="12.9182"><ele>25.0</ele><time>2026-03-28T14:28:43.154Z</time></trkpt><trkpt lat="45.8969233" lon="12.9183283"><ele>25.0</ele><time>2026-03-28T14:28:44.154Z</time></trkpt><trkpt lat="45.89685" lon="12.91845"><ele>25.0</ele><time>2026-03-28T14:28:45.154Z</time></trkpt><trkpt lat="45.8967817" lon="12.9185567"><ele>25.0</ele><time>2026-03-28T14:28:46.154Z</time></trkpt><trkpt lat="45.8967167" lon="12.9186467"><ele>25.0</ele><time>2026-03-28T14:28:47.155Z</time></trkpt><trkpt lat="45.8966567" lon="12.9187283"><ele>25.0</ele><time>2026-03-28T14:28:48.154Z</time></trkpt><trkpt lat="45.8965883" lon="12.9188183"><ele>25.0</ele><time>2026-03-28T14:28:49.154Z</time></trkpt><trkpt lat="45.8965167" lon="12.918915"><ele>25.0</ele><time>2026-03-28T14:28:50.154Z</time></trkpt><trkpt lat="45.8964433" lon="12.9190133"><ele>25.0</ele><time>2026-03-28T14:28:51.154Z</time></trkpt><trkpt lat="45.8963667" lon="12.9191017"><ele>25.0</ele><time>2026-03-28T14:28:52.154Z</time></trkpt><trkpt lat="45.896285" lon="12.91919"><ele>25.2</ele><time>2026-03-28T14:28:53.154Z</time></trkpt><trkpt lat="45.8962083" lon="12.9192717"><ele>25.4</ele><time>2026-03-28T14:28:54.154Z</time></trkpt><trkpt lat="45.8961483" lon="12.9193583"><ele>25.6</ele><time>2026-03-28T14:28:55.154Z</time></trkpt><trkpt lat="45.8960883" lon="12.9194567"><ele>25.8</ele><time>2026-03-28T14:28:56.155Z</time></trkpt><trkpt lat="45.8960133" lon="12.9195633"><ele>26.0</ele><time>2026-03-28T14:28:57.154Z</time></trkpt><trkpt lat="45.8959317" lon="12.9196733"><ele>25.6</ele><time>2026-03-28T14:28:58.155Z</time></trkpt><trkpt lat="45.89585" lon="12.9197767"><ele>25.200000000000003</ele><time>2026-03-28T14:28:59.154Z</time></trkpt><trkpt lat="45.8957667" lon="12.9198633"><ele>24.799999999999997</ele><time>2026-03-28T14:29:00.154Z</time></trkpt><trkpt lat="45.8956817" lon="12.919945"><ele>24.4</ele><time>2026-03-28T14:29:01.154Z</time></trkpt><trkpt lat="45.895585" lon="12.9200317"><ele>24.0</ele><time>2026-03-28T14:29:02.154Z</time></trkpt><trkpt lat="45.8954867" lon="12.92013"><ele>24.0</ele><time>2026-03-28T14:29:03.154Z</time></trkpt><trkpt lat="45.8953983" lon="12.920215"><ele>24.0</ele><time>2026-03-28T14:29:04.155Z</time></trkpt><trkpt lat="45.8953267" lon="12.9202933"><ele>24.0</ele><time>2026-03-28T14:29:05.154Z</time></trkpt><trkpt lat="45.8952683" lon="12.920385"><ele>24.0</ele><time>2026-03-28T14:29:06.154Z</time></trkpt><trkpt lat="45.8952233" lon="12.9204983"><ele>24.0</ele><time>2026-03-28T14:29:07.154Z</time></trkpt><trkpt lat="45.8951817" lon="12.92062"><ele>24.0</ele><time>2026-03-28T14:29:08.154Z</time></trkpt><trkpt lat="45.89514" lon="12.9207583"><ele>24.0</ele><time>2026-03-28T14:29:09.154Z</time></trkpt><trkpt lat="45.8950917" lon="12.9208883"><ele>24.0</ele><time>2026-03-28T14:29:10.154Z</time></trkpt><trkpt lat="45.8950383" lon="12.920995"><ele>24.0</ele><time>2026-03-28T14:29:11.154Z</time></trkpt><trkpt lat="45.8949783" lon="12.9210767"><ele>24.0</ele><time>2026-03-28T14:29:12.154Z</time></trkpt><trkpt lat="45.8949" lon="12.9211433"><ele>24.4</ele><time>2026-03-28T14:29:13.155Z</time></trkpt><trkpt lat="45.89482" lon="12.9211933"><ele>24.799999999999997</ele><time>2026-03-28T14:29:14.154Z</time></trkpt><trkpt lat="45.8947433" lon="12.9212217"><ele>25.200000000000003</ele><time>2026-03-28T14:29:15.155Z</time></trkpt><trkpt lat="45.8946817" lon="12.92125"><ele>25.6</ele><time>2026-03-28T14:29:16.154Z</time></trkpt><trkpt lat="45.894605" lon="12.9213383"><ele>26.0</ele><time>2026-03-28T14:29:18.154Z</time></trkpt><trkpt lat="45.8945933" lon="12.9215217"><ele>26.0</ele><time>2026-03-28T14:29:20.155Z</time></trkpt><trkpt lat="45.8945733" lon="12.9216467"><ele>26.0</ele><time>2026-03-28T14:29:21.154Z</time></trkpt><trkpt lat="45.89454" lon="12.9217767"><ele>26.0</ele><time>2026-03-28T14:29:22.154Z</time></trkpt><trkpt lat="45.8944867" lon="12.9218967"><ele>26.0</ele><time>2026-03-28T14:29:23.154Z</time></trkpt><trkpt lat="45.8944283" lon="12.9219983"><ele>26.0</ele><time>2026-03-28T14:29:24.155Z</time></trkpt><trkpt lat="45.894345" lon="12.9220767"><ele>25.25</ele><time>2026-03-28T14:29:25.155Z</time></trkpt><trkpt lat="45.8942317" lon="12.9221517"><ele>24.5</ele><time>2026-03-28T14:29:26.154Z</time></trkpt><trkpt lat="45.8941117" lon="12.922235"><ele>23.75</ele><time>2026-03-28T14:29:27.154Z</time></trkpt><trkpt lat="45.8939883" lon="12.9223417"><ele>23.0</ele><time>2026-03-28T14:29:28.154Z</time></trkpt><trkpt lat="45.893865" lon="12.9224683"><ele>23.0</ele><time>2026-03-28T14:29:29.154Z</time></trkpt><trkpt lat="45.8937533" lon="12.922595"><ele>23.0</ele><time>2026-03-28T14:29:30.154Z</time></trkpt><trkpt lat="45.893645" lon="12.9227267"><ele>23.0</ele><time>2026-03-28T14:29:31.154Z</time></trkpt><trkpt lat="45.893545" lon="12.922855"><ele>23.0</ele><time>2026-03-28T14:29:32.154Z</time></trkpt><trkpt lat="45.893445" lon="12.92299"><ele>23.0</ele><time>2026-03-28T14:29:33.154Z</time></trkpt><trkpt lat="45.8933533" lon="12.923135"><ele>23.0</ele><time>2026-03-28T14:29:34.155Z</time></trkpt><trkpt lat="45.8932583" lon="12.92327"><ele>23.0</ele><time>2026-03-28T14:29:35.154Z</time></trkpt><trkpt lat="45.8931817" lon="12.9233967"><ele>23.0</ele><time>2026-03-28T14:29:36.154Z</time></trkpt><trkpt lat="45.8931117" lon="12.923525"><ele>22.75</ele><time>2026-03-28T14:29:37.154Z</time></trkpt><trkpt lat="45.8930533" lon="12.923675"><ele>22.5</ele><time>2026-03-28T14:29:38.154Z</time></trkpt><trkpt lat="45.893005" lon="12.9238517"><ele>22.25</ele><time>2026-03-28T14:29:39.155Z</time></trkpt><trkpt lat="45.8929567" lon="12.924035"><ele>22.0</ele><time>2026-03-28T14:29:40.155Z</time></trkpt><trkpt lat="45.8929233" lon="12.9242033"><ele>21.666666666666664</ele><time>2026-03-28T14:29:41.154Z</time></trkpt><trkpt lat="45.8928983" lon="12.9243433"><ele>21.333333333333332</ele><time>2026-03-28T14:29:42.154Z</time></trkpt><trkpt lat="45.892865" lon="12.9244617"><ele>21.0</ele><time>2026-03-28T14:29:43.154Z</time></trkpt><trkpt lat="45.8928283" lon="12.9245383"><ele>20.666666666666668</ele><time>2026-03-28T14:29:44.154Z</time></trkpt><trkpt lat="45.8927483" lon="12.9246117"><ele>20.333333333333336</ele><time>2026-03-28T14:29:46.154Z</time></trkpt><trkpt lat="45.8926867" lon="12.924555"><ele>20.0</ele><time>2026-03-28T14:29:48.154Z</time></trkpt><trkpt lat="45.8926417" lon="12.9244733"><ele>20.0</ele><time>2026-03-28T14:29:49.154Z</time></trkpt><trkpt lat="45.8925983" lon="12.924385"><ele>20.0</ele><time>2026-03-28T14:29:50.155Z</time></trkpt><trkpt lat="45.8925167" lon="12.9243083"><ele>20.0</ele><time>2026-03-28T14:29:52.154Z</time></trkpt><trkpt lat="45.89239" lon="12.924395"><ele>20.0</ele><time>2026-03-28T14:29:54.154Z</time></trkpt><trkpt lat="45.892315" lon="12.9245033"><ele>20.0</ele><time>2026-03-28T14:29:55.154Z</time></trkpt><trkpt lat="45.892225" lon="12.92465"><ele>21.0</ele><time>2026-03-28T14:29:56.155Z</time></trkpt><trkpt lat="45.8921333" lon="12.924815"><ele>22.0</ele><time>2026-03-28T14:29:57.155Z</time></trkpt><trkpt lat="45.8920433" lon="12.9249667"><ele>23.0</ele><time>2026-03-28T14:29:58.155Z</time></trkpt><trkpt lat="45.8919517" lon="12.925115"><ele>24.0</ele><time>2026-03-28T14:29:59.154Z</time></trkpt><trkpt lat="45.8918667" lon="12.925265"><ele>24.0</ele><time>2026-03-28T14:30:00.154Z</time></trkpt><trkpt lat="45.89179" lon="12.9254117"><ele>24.0</ele><time>2026-03-28T14:30:01.154Z</time></trkpt><trkpt lat="45.8917183" lon="12.9255467"><ele>24.0</ele><time>2026-03-28T14:30:02.154Z</time></trkpt><trkpt lat="45.891655" lon="12.9256883"><ele>24.0</ele><time>2026-03-28T14:30:03.154Z</time></trkpt><trkpt lat="45.8915917" lon="12.9258533"><ele>24.0</ele><time>2026-03-28T14:30:04.155Z</time></trkpt><trkpt lat="45.8915267" lon="12.9260267"><ele>24.0</ele><time>2026-03-28T14:30:05.154Z</time></trkpt><trkpt lat="45.89146" lon="12.926225"><ele>24.0</ele><time>2026-03-28T14:30:06.155Z</time></trkpt><trkpt lat="45.8913867" lon="12.9264117"><ele>24.0</ele><time>2026-03-28T14:30:07.154Z</time></trkpt><trkpt lat="45.891315" lon="12.9265883"><ele>23.5</ele><time>2026-03-28T14:30:08.155Z</time></trkpt><trkpt lat="45.8912517" lon="12.926755"><ele>23.0</ele><time>2026-03-28T14:30:09.155Z</time></trkpt><trkpt lat="45.89119" lon="12.926925"><ele>22.5</ele><time>2026-03-28T14:30:10.154Z</time></trkpt><trkpt lat="45.8911233" lon="12.927125"><ele>22.0</ele><time>2026-03-28T14:30:11.154Z</time></trkpt><trkpt lat="45.8910583" lon="12.92733"><ele>22.0</ele><time>2026-03-28T14:30:12.154Z</time></trkpt><trkpt lat="45.8909983" lon="12.92752"><ele>22.0</ele><time>2026-03-28T14:30:13.154Z</time></trkpt><trkpt lat="45.8909417" lon="12.9276917"><ele>22.0</ele><time>2026-03-28T14:30:14.154Z</time></trkpt><trkpt lat="45.8908867" lon="12.9278383"><ele>22.0</ele><time>2026-03-28T14:30:15.155Z</time></trkpt><trkpt lat="45.8908367" lon="12.9279733"><ele>22.166666666666664</ele><time>2026-03-28T14:30:16.154Z</time></trkpt><trkpt lat="45.8907917" lon="12.9280833"><ele>22.333333333333332</ele><time>2026-03-28T14:30:17.154Z</time></trkpt><trkpt lat="45.890745" lon="12.92818"><ele>22.5</ele><time>2026-03-28T14:30:18.155Z</time></trkpt><trkpt lat="45.89071" lon="12.9282683"><ele>22.666666666666668</ele><time>2026-03-28T14:30:19.154Z</time></trkpt><trkpt lat="45.8906717" lon="12.9283483"><ele>22.833333333333336</ele><time>2026-03-28T14:30:20.154Z</time></trkpt><trkpt lat="45.89062" lon="12.9284317"><ele>23.0</ele><time>2026-03-28T14:30:21.154Z</time></trkpt><trkpt lat="45.8905633" lon="12.9285183"><ele>22.0</ele><time>2026-03-28T14:30:22.155Z</time></trkpt><trkpt lat="45.8905017" lon="12.9285933"><ele>21.0</ele><time>2026-03-28T14:30:23.154Z</time></trkpt><trkpt lat="45.8904367" lon="12.9286533"><ele>20.0</ele><time>2026-03-28T14:30:24.155Z</time></trkpt><trkpt lat="45.890365" lon="12.92872"><ele>19.0</ele><time>2026-03-28T14:30:25.154Z</time></trkpt><trkpt lat="45.8901783" lon="12.9289617"><ele>19.333333333333332</ele><time>2026-03-28T14:30:27.155Z</time></trkpt><trkpt lat="45.8900667" lon="12.9291267"><ele>19.666666666666668</ele><time>2026-03-28T14:30:28.154Z</time></trkpt><trkpt lat="45.8899667" lon="12.9292883"><ele>20.0</ele><time>2026-03-28T14:30:29.154Z</time></trkpt><trkpt lat="45.8898583" lon="12.929455"><ele>20.0</ele><time>2026-03-28T14:30:30.155Z</time></trkpt><trkpt lat="45.88973" lon="12.9296417"><ele>20.0</ele><time>2026-03-28T14:30:31.154Z</time></trkpt><trkpt lat="45.8896067" lon="12.92982"><ele>20.0</ele><time>2026-03-28T14:30:32.154Z</time></trkpt><trkpt lat="45.8894983" lon="12.9299783"><ele>20.25</ele><time>2026-03-28T14:30:33.154Z</time></trkpt><trkpt lat="45.8893983" lon="12.9301367"><ele>20.5</ele><time>2026-03-28T14:30:34.154Z</time></trkpt><trkpt lat="45.8893033" lon="12.9302867"><ele>20.75</ele><time>2026-03-28T14:30:35.154Z</time></trkpt><trkpt lat="45.889215" lon="12.930425"><ele>21.0</ele><time>2026-03-28T14:30:36.154Z</time></trkpt><trkpt lat="45.8891217" lon="12.93055"><ele>21.0</ele><time>2026-03-28T14:30:37.154Z</time></trkpt><trkpt lat="45.8890267" lon="12.930675"><ele>21.0</ele><time>2026-03-28T14:30:38.154Z</time></trkpt><trkpt lat="45.8889283" lon="12.9307983"><ele>21.0</ele><time>2026-03-28T14:30:39.154Z</time></trkpt><trkpt lat="45.88883" lon="12.930915"><ele>21.0</ele><time>2026-03-28T14:30:40.154Z</time></trkpt><trkpt lat="45.8887317" lon="12.9310217"><ele>21.0</ele><time>2026-03-28T14:30:41.154Z</time></trkpt><trkpt lat="45.8886367" lon="12.931115"><ele>21.0</ele><time>2026-03-28T14:30:42.154Z</time></trkpt><trkpt lat="45.8885417" lon="12.9311933"><ele>21.0</ele><time>2026-03-28T14:30:43.154Z</time></trkpt><trkpt lat="45.8884483" lon="12.9312683"><ele>21.0</ele><time>2026-03-28T14:30:44.154Z</time></trkpt><trkpt lat="45.8883533" lon="12.9313383"><ele>21.0</ele><time>2026-03-28T14:30:45.154Z</time></trkpt><trkpt lat="45.8882683" lon="12.931415"><ele>21.0</ele><time>2026-03-28T14:30:46.155Z</time></trkpt><trkpt lat="45.888195" lon="12.9314933"><ele>21.0</ele><time>2026-03-28T14:30:47.154Z</time></trkpt><trkpt lat="45.8881283" lon="12.9315633"><ele>21.0</ele><time>2026-03-28T14:30:48.154Z</time></trkpt><trkpt lat="45.8880617" lon="12.9316333"><ele>21.0</ele><time>2026-03-28T14:30:49.154Z</time></trkpt><trkpt lat="45.8880017" lon="12.9317017"><ele>21.0</ele><time>2026-03-28T14:30:50.154Z</time></trkpt><trkpt lat="45.88796" lon="12.931775"><ele>21.0</ele><time>2026-03-28T14:30:51.154Z</time></trkpt><trkpt lat="45.8878883" lon="12.9319067"><ele>21.0</ele><time>2026-03-28T14:30:53.154Z</time></trkpt><trkpt lat="45.887835" lon="12.93197"><ele>21.0</ele><time>2026-03-28T14:30:54.154Z</time></trkpt><trkpt lat="45.8877833" lon="12.9320217"><ele>21.0</ele><time>2026-03-28T14:30:55.154Z</time></trkpt><trkpt lat="45.8877233" lon="12.9320667"><ele>21.0</ele><time>2026-03-28T14:30:56.154Z</time></trkpt><trkpt lat="45.8876483" lon="12.9321067"><ele>21.0</ele><time>2026-03-28T14:30:57.155Z</time></trkpt><trkpt lat="45.8875567" lon="12.932155"><ele>21.0</ele><time>2026-03-28T14:30:58.154Z</time></trkpt><trkpt lat="45.8874633" lon="12.93221"><ele>21.0</ele><time>2026-03-28T14:30:59.154Z</time></trkpt><trkpt lat="45.8873817" lon="12.9322733"><ele>21.0</ele><time>2026-03-28T14:31:00.155Z</time></trkpt><trkpt lat="45.887305" lon="12.9323367"><ele>21.0</ele><time>2026-03-28T14:31:01.154Z</time></trkpt><trkpt lat="45.8872383" lon="12.9324"><ele>21.0</ele><time>2026-03-28T14:31:02.154Z</time></trkpt><trkpt lat="45.887175" lon="12.9324617"><ele>21.0</ele><time>2026-03-28T14:31:03.154Z</time></trkpt><trkpt lat="45.8871167" lon="12.9325233"><ele>21.0</ele><time>2026-03-28T14:31:04.154Z</time></trkpt><trkpt lat="45.8870567" lon="12.9325767"><ele>21.166666666666668</ele><time>2026-03-28T14:31:05.154Z</time></trkpt><trkpt lat="45.88699" lon="12.9326167"><ele>21.333333333333332</ele><time>2026-03-28T14:31:06.154Z</time></trkpt><trkpt lat="45.8869283" lon="12.9326467"><ele>21.5</ele><time>2026-03-28T14:31:07.155Z</time></trkpt><trkpt lat="45.886855" lon="12.9326717"><ele>21.666666666666664</ele><time>2026-03-28T14:31:08.154Z</time></trkpt><trkpt lat="45.8867733" lon="12.932685"><ele>21.833333333333332</ele><time>2026-03-28T14:31:09.154Z</time></trkpt><trkpt lat="45.8866833" lon="12.9326733"><ele>22.0</ele><time>2026-03-28T14:31:10.154Z</time></trkpt><trkpt lat="45.8865767" lon="12.93266"><ele>22.25</ele><time>2026-03-28T14:31:11.154Z</time></trkpt><trkpt lat="45.8864583" lon="12.9326567"><ele>22.5</ele><time>2026-03-28T14:31:12.155Z</time></trkpt><trkpt lat="45.88633" lon="12.93266"><ele>22.75</ele><time>2026-03-28T14:31:13.155Z</time></trkpt><trkpt lat="45.886205" lon="12.9326633"><ele>23.0</ele><time>2026-03-28T14:31:14.154Z</time></trkpt><trkpt lat="45.8860883" lon="12.9326667"><ele>23.0</ele><time>2026-03-28T14:31:15.154Z</time></trkpt><trkpt lat="45.88598" lon="12.9326483"><ele>23.0</ele><time>2026-03-28T14:31:16.155Z</time></trkpt><trkpt lat="45.8858733" lon="12.93261"><ele>23.0</ele><time>2026-03-28T14:31:17.154Z</time></trkpt><trkpt lat="45.8857667" lon="12.932555"><ele>23.0</ele><time>2026-03-28T14:31:18.154Z</time></trkpt><trkpt lat="45.8856617" lon="12.9324933"><ele>23.0</ele><time>2026-03-28T14:31:19.154Z</time></trkpt><trkpt lat="45.885565" lon="12.9324433"><ele>22.833333333333336</ele><time>2026-03-28T14:31:20.154Z</time></trkpt><trkpt lat="45.8854883" lon="12.93241"><ele>22.666666666666668</ele><time>2026-03-28T14:31:21.154Z</time></trkpt><trkpt lat="45.8854167" lon="12.9323917"><ele>22.5</ele><time>2026-03-28T14:31:22.155Z</time></trkpt><trkpt lat="45.8852983" lon="12.9324333"><ele>22.333333333333332</ele><time>2026-03-28T14:31:24.154Z</time></trkpt><trkpt lat="45.8852467" lon="12.9324883"><ele>22.166666666666664</ele><time>2026-03-28T14:31:25.154Z</time></trkpt><trkpt lat="45.8852017" lon="12.9325567"><ele>22.0</ele><time>2026-03-28T14:31:26.155Z</time></trkpt><trkpt lat="45.8851633" lon="12.932635"><ele>21.5</ele><time>2026-03-28T14:31:27.154Z</time></trkpt><trkpt lat="45.8851283" lon="12.9327133"><ele>21.0</ele><time>2026-03-28T14:31:28.154Z</time></trkpt><trkpt lat="45.88509" lon="12.9327933"><ele>20.5</ele><time>2026-03-28T14:31:29.154Z</time></trkpt><trkpt lat="45.8850433" lon="12.9328583"><ele>20.0</ele><time>2026-03-28T14:31:30.154Z</time></trkpt><trkpt lat="45.8849817" lon="12.93295"><ele>19.5</ele><time>2026-03-28T14:31:32.154Z</time></trkpt><trkpt lat="45.884945" lon="12.9330517"><ele>19.0</ele><time>2026-03-28T14:31:42.155Z</time></trkpt><trkpt lat="45.8848683" lon="12.9332067"><ele>19.0</ele><time>2026-03-28T14:31:44.154Z</time></trkpt><trkpt lat="45.8848083" lon="12.93332"><ele>19.0</ele><time>2026-03-28T14:31:45.155Z</time></trkpt><trkpt lat="45.88474" lon="12.93345"><ele>19.0</ele><time>2026-03-28T14:31:46.154Z</time></trkpt><trkpt lat="45.8846717" lon="12.9335883"><ele>19.0</ele><time>2026-03-28T14:31:47.154Z</time></trkpt><trkpt lat="45.8846117" lon="12.9337283"><ele>19.0</ele><time>2026-03-28T14:31:48.155Z</time></trkpt><trkpt lat="45.884555" lon="12.9338867"><ele>18.666666666666664</ele><time>2026-03-28T14:31:49.154Z</time></trkpt><trkpt lat="45.8844967" lon="12.9340683"><ele>18.333333333333332</ele><time>2026-03-28T14:31:50.154Z</time></trkpt><trkpt lat="45.8844267" lon="12.9342833"><ele>18.0</ele><time>2026-03-28T14:31:51.154Z</time></trkpt><trkpt lat="45.8843383" lon="12.934525"><ele>18.0</ele><time>2026-03-28T14:31:52.154Z</time></trkpt><trkpt lat="45.884255" lon="12.934765"><ele>18.0</ele><time>2026-03-28T14:31:53.154Z</time></trkpt><trkpt lat="45.8841817" lon="12.93498"><ele>18.0</ele><time>2026-03-28T14:31:54.155Z</time></trkpt><trkpt lat="45.8841167" lon="12.9351767"><ele>18.333333333333332</ele><time>2026-03-28T14:31:55.154Z</time></trkpt><trkpt lat="45.884055" lon="12.93538"><ele>18.666666666666664</ele><time>2026-03-28T14:31:56.154Z</time></trkpt><trkpt lat="45.88399" lon="12.93558"><ele>19.0</ele><time>2026-03-28T14:31:57.154Z</time></trkpt><trkpt lat="45.8839217" lon="12.9357833"><ele>19.0</ele><time>2026-03-28T14:31:58.154Z</time></trkpt><trkpt lat="45.883845" lon="12.9359917"><ele>19.0</ele><time>2026-03-28T14:31:59.154Z</time></trkpt><trkpt lat="45.8837617" lon="12.936205"><ele>19.0</ele><time>2026-03-28T14:32:00.154Z</time></trkpt><trkpt lat="45.883675" lon="12.9364183"><ele>19.0</ele><time>2026-03-28T14:32:01.155Z</time></trkpt><trkpt lat="45.8835867" lon="12.9366467"><ele>19.0</ele><time>2026-03-28T14:32:02.154Z</time></trkpt><trkpt lat="45.8834967" lon="12.9368983"><ele>19.0</ele><time>2026-03-28T14:32:03.155Z</time></trkpt><trkpt lat="45.88341" lon="12.93714"><ele>19.333333333333332</ele><time>2026-03-28T14:32:04.154Z</time></trkpt><trkpt lat="45.8833283" lon="12.9373733"><ele>19.666666666666668</ele><time>2026-03-28T14:32:05.154Z</time></trkpt><trkpt lat="45.8832417" lon="12.937605"><ele>20.0</ele><time>2026-03-28T14:32:06.155Z</time></trkpt><trkpt lat="45.883155" lon="12.9378367"><ele>20.333333333333336</ele><time>2026-03-28T14:32:07.154Z</time></trkpt><trkpt lat="45.8830683" lon="12.938075"><ele>20.666666666666668</ele><time>2026-03-28T14:32:08.155Z</time></trkpt><trkpt lat="45.8829783" lon="12.9383183"><ele>21.0</ele><time>2026-03-28T14:32:09.154Z</time></trkpt><trkpt lat="45.8828867" lon="12.9385683"><ele>21.0</ele><time>2026-03-28T14:32:10.154Z</time></trkpt><trkpt lat="45.8827917" lon="12.938825"><ele>21.0</ele><time>2026-03-28T14:32:11.154Z</time></trkpt><trkpt lat="45.8827033" lon="12.9390767"><ele>21.0</ele><time>2026-03-28T14:32:12.154Z</time></trkpt><trkpt lat="45.882615" lon="12.9393283"><ele>21.333333333333332</ele><time>2026-03-28T14:32:13.154Z</time></trkpt><trkpt lat="45.8825233" lon="12.9395833"><ele>21.666666666666664</ele><time>2026-03-28T14:32:14.154Z</time></trkpt><trkpt lat="45.8824317" lon="12.9398433"><ele>22.0</ele><time>2026-03-28T14:32:15.154Z</time></trkpt><trkpt lat="45.8823433" lon="12.9401"><ele>22.0</ele><time>2026-03-28T14:32:16.154Z</time></trkpt><trkpt lat="45.8822517" lon="12.9403383"><ele>22.0</ele><time>2026-03-28T14:32:17.154Z</time></trkpt><trkpt lat="45.882165" lon="12.9405683"><ele>22.0</ele><time>2026-03-28T14:32:18.155Z</time></trkpt><trkpt lat="45.8820833" lon="12.94079"><ele>22.0</ele><time>2026-03-28T14:32:19.154Z</time></trkpt><trkpt lat="45.8820067" lon="12.9409917"><ele>22.0</ele><time>2026-03-28T14:32:20.154Z</time></trkpt><trkpt lat="45.88193" lon="12.9411717"><ele>22.0</ele><time>2026-03-28T14:32:21.154Z</time></trkpt><trkpt lat="45.8818633" lon="12.9413383"><ele>22.0</ele><time>2026-03-28T14:32:22.154Z</time></trkpt><trkpt lat="45.8818067" lon="12.9414983"><ele>21.8</ele><time>2026-03-28T14:32:23.155Z</time></trkpt><trkpt lat="45.8817567" lon="12.9416433"><ele>21.6</ele><time>2026-03-28T14:32:24.154Z</time></trkpt><trkpt lat="45.8817133" lon="12.9417633"><ele>21.400000000000002</ele><time>2026-03-28T14:32:25.155Z</time></trkpt><trkpt lat="45.8816783" lon="12.9418517"><ele>21.200000000000003</ele><time>2026-03-28T14:32:26.154Z</time></trkpt><trkpt lat="45.881635" lon="12.9419567"><ele>21.0</ele><time>2026-03-28T14:32:28.154Z</time></trkpt><trkpt lat="45.8815867" lon="12.9420667"><ele>20.8</ele><time>2026-03-28T14:32:31.155Z</time></trkpt><trkpt lat="45.8815533" lon="12.9422183"><ele>20.6</ele><time>2026-03-28T14:32:33.154Z</time></trkpt><trkpt lat="45.8815283" lon="12.9423017"><ele>20.4</ele><time>2026-03-28T14:32:35.154Z</time></trkpt><trkpt lat="45.88149" lon="12.9424067"><ele>20.2</ele><time>2026-03-28T14:32:43.154Z</time></trkpt><trkpt lat="45.88145" lon="12.9425133"><ele>20.0</ele><time>2026-03-28T14:32:44.154Z</time></trkpt><trkpt lat="45.881395" lon="12.942655"><ele>20.0</ele><time>2026-03-28T14:32:45.154Z</time></trkpt><trkpt lat="45.881325" lon="12.9428267"><ele>20.0</ele><time>2026-03-28T14:32:46.155Z</time></trkpt><trkpt lat="45.8812467" lon="12.9430233"><ele>20.0</ele><time>2026-03-28T14:32:47.154Z</time></trkpt><trkpt lat="45.88117" lon="12.94323"><ele>20.0</ele><time>2026-03-28T14:32:48.155Z</time></trkpt><trkpt lat="45.8810983" lon="12.9434217"><ele>20.0</ele><time>2026-03-28T14:32:49.154Z</time></trkpt><trkpt lat="45.8810167" lon="12.9436017"><ele>20.0</ele><time>2026-03-28T14:32:50.154Z</time></trkpt><trkpt lat="45.8809367" lon="12.94378"><ele>20.0</ele><time>2026-03-28T14:32:51.154Z</time></trkpt><trkpt lat="45.8808533" lon="12.943975"><ele>20.0</ele><time>2026-03-28T14:32:52.155Z</time></trkpt><trkpt lat="45.8807767" lon="12.9441867"><ele>20.0</ele><time>2026-03-28T14:32:53.154Z</time></trkpt><trkpt lat="45.880695" lon="12.944415"><ele>20.0</ele><time>2026-03-28T14:32:54.154Z</time></trkpt><trkpt lat="45.88062" lon="12.9446483"><ele>20.333333333333336</ele><time>2026-03-28T14:32:55.155Z</time></trkpt><trkpt lat="45.88054" lon="12.9448967"><ele>20.666666666666668</ele><time>2026-03-28T14:32:56.155Z</time></trkpt><trkpt lat="45.8804517" lon="12.94514"><ele>21.0</ele><time>2026-03-28T14:32:57.154Z</time></trkpt><trkpt lat="45.88036" lon="12.9453817"><ele>21.0</ele><time>2026-03-28T14:32:58.154Z</time></trkpt><trkpt lat="45.880275" lon="12.94563"><ele>21.0</ele><time>2026-03-28T14:32:59.154Z</time></trkpt><trkpt lat="45.8801917" lon="12.9458833"><ele>21.0</ele><time>2026-03-28T14:33:00.154Z</time></trkpt><trkpt lat="45.8801033" lon="12.9461267"><ele>20.333333333333332</ele><time>2026-03-28T14:33:01.154Z</time></trkpt><trkpt lat="45.8800117" lon="12.946385"><ele>19.666666666666664</ele><time>2026-03-28T14:33:02.155Z</time></trkpt><trkpt lat="45.8799183" lon="12.9466317"><ele>19.0</ele><time>2026-03-28T14:33:03.154Z</time></trkpt><trkpt lat="45.8798283" lon="12.9468867"><ele>18.333333333333332</ele><time>2026-03-28T14:33:04.154Z</time></trkpt><trkpt lat="45.8797383" lon="12.94714"><ele>17.666666666666668</ele><time>2026-03-28T14:33:05.155Z</time></trkpt><trkpt lat="45.87965" lon="12.947395"><ele>17.0</ele><time>2026-03-28T14:33:06.155Z</time></trkpt><trkpt lat="45.879555" lon="12.9476533"><ele>17.0</ele><time>2026-03-28T14:33:07.154Z</time></trkpt><trkpt lat="45.8794617" lon="12.9479117"><ele>17.0</ele><time>2026-03-28T14:33:08.155Z</time></trkpt><trkpt lat="45.8793683" lon="12.9481583"><ele>17.0</ele><time>2026-03-28T14:33:09.155Z</time></trkpt><trkpt lat="45.8792783" lon="12.9483933"><ele>17.333333333333336</ele><time>2026-03-28T14:33:10.154Z</time></trkpt><trkpt lat="45.8791867" lon="12.9486183"><ele>17.666666666666668</ele><time>2026-03-28T14:33:11.154Z</time></trkpt><trkpt lat="45.8791033" lon="12.94883"><ele>18.0</ele><time>2026-03-28T14:33:12.154Z</time></trkpt><trkpt lat="45.8790233" lon="12.9490233"><ele>18.0</ele><time>2026-03-28T14:33:13.155Z</time></trkpt><trkpt lat="45.8789467" lon="12.9492083"><ele>18.0</ele><time>2026-03-28T14:33:14.154Z</time></trkpt><trkpt lat="45.8788917" lon="12.9494117"><ele>18.0</ele><time>2026-03-28T14:33:15.154Z</time></trkpt><trkpt lat="45.8788483" lon="12.9496317"><ele>18.25</ele><time>2026-03-28T14:33:16.154Z</time></trkpt><trkpt lat="45.87882" lon="12.9498467"><ele>18.5</ele><time>2026-03-28T14:33:17.154Z</time></trkpt><trkpt lat="45.8788133" lon="12.95005"><ele>18.75</ele><time>2026-03-28T14:33:18.154Z</time></trkpt><trkpt lat="45.87882" lon="12.9502533"><ele>19.0</ele><time>2026-03-28T14:33:19.155Z</time></trkpt><trkpt lat="45.8788317" lon="12.9504367"><ele>19.0</ele><time>2026-03-28T14:33:20.155Z</time></trkpt><trkpt lat="45.878835" lon="12.9506033"><ele>19.0</ele><time>2026-03-28T14:33:21.154Z</time></trkpt><trkpt lat="45.8788067" lon="12.9507233"><ele>19.0</ele><time>2026-03-28T14:33:22.155Z</time></trkpt><trkpt lat="45.878745" lon="12.95082"><ele>19.0</ele><time>2026-03-28T14:33:23.154Z</time></trkpt><trkpt lat="45.878645" lon="12.9508967"><ele>19.0</ele><time>2026-03-28T14:33:24.154Z</time></trkpt><trkpt lat="45.878515" lon="12.9509733"><ele>18.333333333333332</ele><time>2026-03-28T14:33:25.154Z</time></trkpt><trkpt lat="45.878365" lon="12.951055"><ele>17.666666666666668</ele><time>2026-03-28T14:33:26.154Z</time></trkpt><trkpt lat="45.87821" lon="12.9511383"><ele>17.0</ele><time>2026-03-28T14:33:27.154Z</time></trkpt><trkpt lat="45.87805" lon="12.951225"><ele>17.0</ele><time>2026-03-28T14:33:28.155Z</time></trkpt><trkpt lat="45.8778883" lon="12.9512933"><ele>17.0</ele><time>2026-03-28T14:33:29.154Z</time></trkpt><trkpt lat="45.87772" lon="12.9513533"><ele>17.0</ele><time>2026-03-28T14:33:30.154Z</time></trkpt><trkpt lat="45.8775683" lon="12.9514217"><ele>17.0</ele><time>2026-03-28T14:33:31.154Z</time></trkpt><trkpt lat="45.8774233" lon="12.9514933"><ele>17.0</ele><time>2026-03-28T14:33:32.154Z</time></trkpt><trkpt lat="45.8772917" lon="12.9515583"><ele>17.0</ele><time>2026-03-28T14:33:33.155Z</time></trkpt><trkpt lat="45.8771667" lon="12.95162"><ele>17.0</ele><time>2026-03-28T14:33:34.154Z</time></trkpt><trkpt lat="45.8770517" lon="12.9516933"><ele>16.75</ele><time>2026-03-28T14:33:35.154Z</time></trkpt><trkpt lat="45.876935" lon="12.9517633"><ele>16.5</ele><time>2026-03-28T14:33:36.154Z</time></trkpt><trkpt lat="45.8768133" lon="12.951835"><ele>16.25</ele><time>2026-03-28T14:33:37.154Z</time></trkpt><trkpt lat="45.876685" lon="12.9519"><ele>16.0</ele><time>2026-03-28T14:33:38.154Z</time></trkpt><trkpt lat="45.8765583" lon="12.951975"><ele>16.75</ele><time>2026-03-28T14:33:39.154Z</time></trkpt><trkpt lat="45.8764267" lon="12.9520483"><ele>17.5</ele><time>2026-03-28T14:33:40.155Z</time></trkpt><trkpt lat="45.8762867" lon="12.9521233"><ele>18.25</ele><time>2026-03-28T14:33:41.154Z</time></trkpt><trkpt lat="45.876145" lon="12.9522067"><ele>19.0</ele><time>2026-03-28T14:33:42.154Z</time></trkpt><trkpt lat="45.876" lon="12.9522883"><ele>18.0</ele><time>2026-03-28T14:33:43.154Z</time></trkpt><trkpt lat="45.8758617" lon="12.9523717"><ele>17.0</ele><time>2026-03-28T14:33:44.155Z</time></trkpt><trkpt lat="45.8757267" lon="12.9524517"><ele>16.0</ele><time>2026-03-28T14:33:45.155Z</time></trkpt><trkpt lat="45.8755967" lon="12.952525"><ele>15.0</ele><time>2026-03-28T14:33:46.154Z</time></trkpt><trkpt lat="45.87548" lon="12.9526033"><ele>15.0</ele><time>2026-03-28T14:33:47.154Z</time></trkpt><trkpt lat="45.875365" lon="12.9526683"><ele>15.0</ele><time>2026-03-28T14:33:48.154Z</time></trkpt><trkpt lat="45.8752533" lon="12.9527283"><ele>15.0</ele><time>2026-03-28T14:33:49.154Z</time></trkpt><trkpt lat="45.87515" lon="12.9527933"><ele>15.0</ele><time>2026-03-28T14:33:50.154Z</time></trkpt><trkpt lat="45.8750467" lon="12.952855"><ele>15.25</ele><time>2026-03-28T14:33:51.155Z</time></trkpt><trkpt lat="45.87493" lon="12.9529167"><ele>15.5</ele><time>2026-03-28T14:33:52.154Z</time></trkpt><trkpt lat="45.87481" lon="12.9529783"><ele>15.75</ele><time>2026-03-28T14:33:53.154Z</time></trkpt><trkpt lat="45.8746783" lon="12.9530367"><ele>16.0</ele><time>2026-03-28T14:33:54.155Z</time></trkpt><trkpt lat="45.8745567" lon="12.9531033"><ele>16.0</ele><time>2026-03-28T14:33:55.154Z</time></trkpt><trkpt lat="45.8744417" lon="12.9531583"><ele>16.0</ele><time>2026-03-28T14:33:56.155Z</time></trkpt><trkpt lat="45.87433" lon="12.953205"><ele>16.0</ele><time>2026-03-28T14:33:57.154Z</time></trkpt><trkpt lat="45.8742133" lon="12.95326"><ele>16.0</ele><time>2026-03-28T14:33:58.155Z</time></trkpt><trkpt lat="45.8741067" lon="12.9533167"><ele>16.2</ele><time>2026-03-28T14:33:59.154Z</time></trkpt><trkpt lat="45.874005" lon="12.95337"><ele>16.400000000000002</ele><time>2026-03-28T14:34:00.155Z</time></trkpt><trkpt lat="45.8739" lon="12.95341"><ele>16.6</ele><time>2026-03-28T14:34:01.154Z</time></trkpt><trkpt lat="45.8737917" lon="12.9534567"><ele>16.8</ele><time>2026-03-28T14:34:02.155Z</time></trkpt><trkpt lat="45.8736817" lon="12.953505"><ele>17.0</ele><time>2026-03-28T14:34:03.154Z</time></trkpt><trkpt lat="45.8735717" lon="12.9535567"><ele>17.0</ele><time>2026-03-28T14:34:04.154Z</time></trkpt><trkpt lat="45.8734633" lon="12.95361"><ele>17.0</ele><time>2026-03-28T14:34:05.154Z</time></trkpt><trkpt lat="45.873355" lon="12.953645"><ele>17.0</ele><time>2026-03-28T14:34:06.154Z</time></trkpt><trkpt lat="45.87325" lon="12.95368"><ele>17.0</ele><time>2026-03-28T14:34:07.155Z</time></trkpt><trkpt lat="45.8731367" lon="12.9537083"><ele>17.0</ele><time>2026-03-28T14:34:08.155Z</time></trkpt><trkpt lat="45.8730167" lon="12.9537283"><ele>17.5</ele><time>2026-03-28T14:34:09.154Z</time></trkpt><trkpt lat="45.8728867" lon="12.9537433"><ele>18.0</ele><time>2026-03-28T14:34:10.155Z</time></trkpt><trkpt lat="45.8727567" lon="12.95376"><ele>18.5</ele><time>2026-03-28T14:34:11.154Z</time></trkpt><trkpt lat="45.8726183" lon="12.953775"><ele>19.0</ele><time>2026-03-28T14:34:12.154Z</time></trkpt><trkpt lat="45.8724867" lon="12.953795"><ele>19.0</ele><time>2026-03-28T14:34:13.154Z</time></trkpt><trkpt lat="45.872345" lon="12.953815"><ele>19.0</ele><time>2026-03-28T14:34:14.154Z</time></trkpt><trkpt lat="45.872205" lon="12.9538233"><ele>19.0</ele><time>2026-03-28T14:34:15.154Z</time></trkpt><trkpt lat="45.8720683" lon="12.9538333"><ele>19.0</ele><time>2026-03-28T14:34:16.154Z</time></trkpt><trkpt lat="45.871945" lon="12.9538467"><ele>19.0</ele><time>2026-03-28T14:34:17.154Z</time></trkpt><trkpt lat="45.8718133" lon="12.9538517"><ele>19.0</ele><time>2026-03-28T14:34:18.154Z</time></trkpt><trkpt lat="45.8716783" lon="12.9538883"><ele>19.0</ele><time>2026-03-28T14:34:19.154Z</time></trkpt><trkpt lat="45.8715317" lon="12.9539233"><ele>19.0</ele><time>2026-03-28T14:34:20.154Z</time></trkpt><trkpt lat="45.87139" lon="12.9539583"><ele>18.0</ele><time>2026-03-28T14:34:21.155Z</time></trkpt><trkpt lat="45.87124" lon="12.954"><ele>17.0</ele><time>2026-03-28T14:34:22.154Z</time></trkpt><trkpt lat="45.8710917" lon="12.9540433"><ele>16.0</ele><time>2026-03-28T14:34:23.154Z</time></trkpt><trkpt lat="45.8709383" lon="12.9540967"><ele>15.666666666666666</ele><time>2026-03-28T14:34:24.154Z</time></trkpt><trkpt lat="45.870775" lon="12.9541467"><ele>15.333333333333332</ele><time>2026-03-28T14:34:25.154Z</time></trkpt><trkpt lat="45.870615" lon="12.9541833"><ele>15.0</ele><time>2026-03-28T14:34:26.154Z</time></trkpt><trkpt lat="45.8704483" lon="12.954225"><ele>15.0</ele><time>2026-03-28T14:34:27.154Z</time></trkpt><trkpt lat="45.87027" lon="12.9542783"><ele>15.0</ele><time>2026-03-28T14:34:28.154Z</time></trkpt><trkpt lat="45.8700867" lon="12.9543233"><ele>15.0</ele><time>2026-03-28T14:34:29.155Z</time></trkpt><trkpt lat="45.8699033" lon="12.9543817"><ele>15.0</ele><time>2026-03-28T14:34:30.154Z</time></trkpt><trkpt lat="45.8697133" lon="12.9544467"><ele>15.0</ele><time>2026-03-28T14:34:31.154Z</time></trkpt><trkpt lat="45.8695267" lon="12.9545167"><ele>15.0</ele><time>2026-03-28T14:34:32.154Z</time></trkpt><trkpt lat="45.8693367" lon="12.9545883"><ele>14.333333333333332</ele><time>2026-03-28T14:34:33.154Z</time></trkpt><trkpt lat="45.869145" lon="12.9546683"><ele>13.666666666666666</ele><time>2026-03-28T14:34:34.154Z</time></trkpt><trkpt lat="45.8689533" lon="12.9547467"><ele>13.0</ele><time>2026-03-28T14:34:35.154Z</time></trkpt><trkpt lat="45.8687567" lon="12.95483"><ele>13.0</ele><time>2026-03-28T14:34:36.154Z</time></trkpt><trkpt lat="45.8685617" lon="12.9549083"><ele>13.0</ele><time>2026-03-28T14:34:37.154Z</time></trkpt><trkpt lat="45.868365" lon="12.9549767"><ele>13.0</ele><time>2026-03-28T14:34:38.154Z</time></trkpt><trkpt lat="45.868165" lon="12.9550383"><ele>13.0</ele><time>2026-03-28T14:34:39.154Z</time></trkpt><trkpt lat="45.8679617" lon="12.9551067"><ele>13.0</ele><time>2026-03-28T14:34:40.154Z</time></trkpt><trkpt lat="45.8677633" lon="12.95519"><ele>13.0</ele><time>2026-03-28T14:34:41.154Z</time></trkpt><trkpt lat="45.8675617" lon="12.955265"><ele>13.0</ele><time>2026-03-28T14:34:42.154Z</time></trkpt><trkpt lat="45.8673583" lon="12.955335"><ele>13.0</ele><time>2026-03-28T14:34:43.154Z</time></trkpt><trkpt lat="45.8671583" lon="12.9553967"><ele>13.0</ele><time>2026-03-28T14:34:44.155Z</time></trkpt><trkpt lat="45.86696" lon="12.9554383"><ele>13.0</ele><time>2026-03-28T14:34:45.154Z</time></trkpt><trkpt lat="45.8667517" lon="12.9554583"><ele>13.0</ele><time>2026-03-28T14:34:46.155Z</time></trkpt><trkpt lat="45.86655" lon="12.9554683"><ele>13.0</ele><time>2026-03-28T14:34:47.154Z</time></trkpt><trkpt lat="45.8663433" lon="12.9554683"><ele>13.0</ele><time>2026-03-28T14:34:48.154Z</time></trkpt><trkpt lat="45.8661383" lon="12.9554767"><ele>13.0</ele><time>2026-03-28T14:34:49.154Z</time></trkpt><trkpt lat="45.8659333" lon="12.9554933"><ele>13.0</ele><time>2026-03-28T14:34:50.154Z</time></trkpt><trkpt lat="45.8657283" lon="12.9555367"><ele>13.0</ele><time>2026-03-28T14:34:51.154Z</time></trkpt><trkpt lat="45.865525" lon="12.9555933"><ele>13.0</ele><time>2026-03-28T14:34:52.155Z</time></trkpt><trkpt lat="45.86532" lon="12.9556517"><ele>13.0</ele><time>2026-03-28T14:34:53.155Z</time></trkpt><trkpt lat="45.8651133" lon="12.9557167"><ele>13.0</ele><time>2026-03-28T14:34:54.154Z</time></trkpt><trkpt lat="45.8649083" lon="12.9557733"><ele>13.0</ele><time>2026-03-28T14:34:55.154Z</time></trkpt><trkpt lat="45.8647" lon="12.9558367"><ele>13.0</ele><time>2026-03-28T14:34:56.154Z</time></trkpt><trkpt lat="45.8644967" lon="12.955905"><ele>12.666666666666666</ele><time>2026-03-28T14:34:57.154Z</time></trkpt><trkpt lat="45.8642883" lon="12.95597"><ele>12.333333333333332</ele><time>2026-03-28T14:34:58.154Z</time></trkpt><trkpt lat="45.864085" lon="12.9560367"><ele>12.0</ele><time>2026-03-28T14:34:59.155Z</time></trkpt><trkpt lat="45.8638883" lon="12.9560983"><ele>12.0</ele><time>2026-03-28T14:35:00.155Z</time></trkpt><trkpt lat="45.8636967" lon="12.9561567"><ele>12.0</ele><time>2026-03-28T14:35:01.155Z</time></trkpt><trkpt lat="45.8635" lon="12.956195"><ele>12.0</ele><time>2026-03-28T14:35:02.154Z</time></trkpt><trkpt lat="45.863305" lon="12.9562167"><ele>12.0</ele><time>2026-03-28T14:35:03.154Z</time></trkpt><trkpt lat="45.86311" lon="12.9562217"><ele>12.0</ele><time>2026-03-28T14:35:04.155Z</time></trkpt><trkpt lat="45.8629083" lon="12.9562217"><ele>12.0</ele><time>2026-03-28T14:35:05.154Z</time></trkpt><trkpt lat="45.8627067" lon="12.95623"><ele>11.666666666666666</ele><time>2026-03-28T14:35:06.154Z</time></trkpt><trkpt lat="45.862505" lon="12.9562383"><ele>11.333333333333332</ele><time>2026-03-28T14:35:07.154Z</time></trkpt><trkpt lat="45.8623067" lon="12.956245"><ele>11.0</ele><time>2026-03-28T14:35:08.154Z</time></trkpt><trkpt lat="45.8621117" lon="12.9562533"><ele>11.0</ele><time>2026-03-28T14:35:09.155Z</time></trkpt><trkpt lat="45.8619283" lon="12.9562567"><ele>11.0</ele><time>2026-03-28T14:35:10.154Z</time></trkpt><trkpt lat="45.8617517" lon="12.9562617"><ele>11.0</ele><time>2026-03-28T14:35:11.154Z</time></trkpt><trkpt lat="45.8615733" lon="12.9562633"><ele>11.666666666666666</ele><time>2026-03-28T14:35:12.154Z</time></trkpt><trkpt lat="45.861395" lon="12.9562733"><ele>12.333333333333332</ele><time>2026-03-28T14:35:13.154Z</time></trkpt><trkpt lat="45.8612167" lon="12.95628"><ele>13.0</ele><time>2026-03-28T14:35:14.154Z</time></trkpt><trkpt lat="45.8610383" lon="12.9562933"><ele>13.0</ele><time>2026-03-28T14:35:15.154Z</time></trkpt><trkpt lat="45.8608767" lon="12.9562983"><ele>13.0</ele><time>2026-03-28T14:35:16.155Z</time></trkpt><trkpt lat="45.8607267" lon="12.9563083"><ele>13.0</ele><time>2026-03-28T14:35:17.154Z</time></trkpt><trkpt lat="45.860585" lon="12.9563083"><ele>13.0</ele><time>2026-03-28T14:35:18.155Z</time></trkpt><trkpt lat="45.86045" lon="12.9563133"><ele>13.0</ele><time>2026-03-28T14:35:19.154Z</time></trkpt><trkpt lat="45.860325" lon="12.9563233"><ele>13.0</ele><time>2026-03-28T14:35:20.155Z</time></trkpt><trkpt lat="45.8602117" lon="12.956345"><ele>13.0</ele><time>2026-03-28T14:35:21.155Z</time></trkpt><trkpt lat="45.860105" lon="12.956395"><ele>13.25</ele><time>2026-03-28T14:35:22.154Z</time></trkpt><trkpt lat="45.8600117" lon="12.9564767"><ele>13.5</ele><time>2026-03-28T14:35:23.153Z</time></trkpt><trkpt lat="45.8599333" lon="12.9566083"><ele>13.75</ele><time>2026-03-28T14:35:24.154Z</time></trkpt><trkpt lat="45.8598633" lon="12.9567833"><ele>14.0</ele><time>2026-03-28T14:35:25.153Z</time></trkpt><trkpt lat="45.8598033" lon="12.95699"><ele>14.0</ele><time>2026-03-28T14:35:26.153Z</time></trkpt><trkpt lat="45.85974" lon="12.957205"><ele>14.0</ele><time>2026-03-28T14:35:27.153Z</time></trkpt><trkpt lat="45.8596767" lon="12.95742"><ele>14.0</ele><time>2026-03-28T14:35:28.153Z</time></trkpt><trkpt lat="45.859625" lon="12.9576383"><ele>13.333333333333334</ele><time>2026-03-28T14:35:29.153Z</time></trkpt><trkpt lat="45.85957" lon="12.957855"><ele>12.666666666666668</ele><time>2026-03-28T14:35:30.153Z</time></trkpt><trkpt lat="45.85951" lon="12.9580767"><ele>12.0</ele><time>2026-03-28T14:35:31.153Z</time></trkpt><trkpt lat="45.85946" lon="12.9583"><ele>12.0</ele><time>2026-03-28T14:35:32.153Z</time></trkpt><trkpt lat="45.859405" lon="12.9585167"><ele>12.0</ele><time>2026-03-28T14:35:33.153Z</time></trkpt><trkpt lat="45.859345" lon="12.95874"><ele>12.0</ele><time>2026-03-28T14:35:34.153Z</time></trkpt><trkpt lat="45.8592833" lon="12.9589667"><ele>12.0</ele><time>2026-03-28T14:35:35.153Z</time></trkpt><trkpt lat="45.8592217" lon="12.9591933"><ele>12.0</ele><time>2026-03-28T14:35:36.153Z</time></trkpt><trkpt lat="45.8591617" lon="12.9594117"><ele>12.0</ele><time>2026-03-28T14:35:37.153Z</time></trkpt><trkpt lat="45.859105" lon="12.95962"><ele>12.0</ele><time>2026-03-28T14:35:38.154Z</time></trkpt><trkpt lat="45.85905" lon="12.959815"><ele>12.0</ele><time>2026-03-28T14:35:39.153Z</time></trkpt><trkpt lat="45.8589983" lon="12.9600017"><ele>12.0</ele><time>2026-03-28T14:35:40.154Z</time></trkpt><trkpt lat="45.85895" lon="12.9601783"><ele>12.0</ele><time>2026-03-28T14:35:41.153Z</time></trkpt><trkpt lat="45.8589033" lon="12.9603433"><ele>12.0</ele><time>2026-03-28T14:35:42.153Z</time></trkpt><trkpt lat="45.8588583" lon="12.96049"><ele>12.0</ele><time>2026-03-28T14:35:43.153Z</time></trkpt><trkpt lat="45.8588133" lon="12.9606083"><ele>12.0</ele><time>2026-03-28T14:35:44.153Z</time></trkpt><trkpt lat="45.8587467" lon="12.9606867"><ele>12.0</ele><time>2026-03-28T14:35:45.153Z</time></trkpt><trkpt lat="45.8586733" lon="12.960725"><ele>12.0</ele><time>2026-03-28T14:35:46.153Z</time></trkpt><trkpt lat="45.8585833" lon="12.9607333"><ele>12.0</ele><time>2026-03-28T14:35:47.153Z</time></trkpt><trkpt lat="45.8584783" lon="12.9607033"><ele>12.0</ele><time>2026-03-28T14:35:48.153Z</time></trkpt><trkpt lat="45.8583433" lon="12.9606483"><ele>12.0</ele><time>2026-03-28T14:35:49.154Z</time></trkpt><trkpt lat="45.8581883" lon="12.96058"><ele>12.0</ele><time>2026-03-28T14:35:50.153Z</time></trkpt><trkpt lat="45.8580317" lon="12.9605233"><ele>12.0</ele><time>2026-03-28T14:35:51.153Z</time></trkpt><trkpt lat="45.857875" lon="12.9604817"><ele>12.0</ele><time>2026-03-28T14:35:52.153Z</time></trkpt><trkpt lat="45.85772" lon="12.960455"><ele>12.0</ele><time>2026-03-28T14:35:53.153Z</time></trkpt><trkpt lat="45.8575667" lon="12.9604333"><ele>12.0</ele><time>2026-03-28T14:35:54.153Z</time></trkpt><trkpt lat="45.85742" lon="12.9604167"><ele>12.0</ele><time>2026-03-28T14:35:55.153Z</time></trkpt><trkpt lat="45.85727" lon="12.9604033"><ele>12.0</ele><time>2026-03-28T14:35:56.153Z</time></trkpt><trkpt lat="45.857115" lon="12.9603917"><ele>12.0</ele><time>2026-03-28T14:35:57.153Z</time></trkpt><trkpt lat="45.85696" lon="12.9603783"><ele>12.0</ele><time>2026-03-28T14:35:58.153Z</time></trkpt><trkpt lat="45.8568017" lon="12.960365"><ele>12.0</ele><time>2026-03-28T14:35:59.154Z</time></trkpt><trkpt lat="45.8566467" lon="12.9603517"><ele>11.75</ele><time>2026-03-28T14:36:00.154Z</time></trkpt><trkpt lat="45.8564933" lon="12.9603333"><ele>11.5</ele><time>2026-03-28T14:36:01.153Z</time></trkpt><trkpt lat="45.85635" lon="12.9603183"><ele>11.25</ele><time>2026-03-28T14:36:02.153Z</time></trkpt><trkpt lat="45.85622" lon="12.9603083"><ele>11.0</ele><time>2026-03-28T14:36:03.153Z</time></trkpt><trkpt lat="45.8561083" lon="12.9602883"><ele>11.0</ele><time>2026-03-28T14:36:04.153Z</time></trkpt><trkpt lat="45.85601" lon="12.9602667"><ele>11.0</ele><time>2026-03-28T14:36:05.154Z</time></trkpt><trkpt lat="45.8559217" lon="12.9602333"><ele>11.0</ele><time>2026-03-28T14:36:06.153Z</time></trkpt><trkpt lat="45.8558433" lon="12.9601933"><ele>11.0</ele><time>2026-03-28T14:36:07.153Z</time></trkpt><trkpt lat="45.8557733" lon="12.96013"><ele>11.0</ele><time>2026-03-28T14:36:08.153Z</time></trkpt><trkpt lat="45.8557083" lon="12.9600383"><ele>11.0</ele><time>2026-03-28T14:36:09.153Z</time></trkpt><trkpt lat="45.8556433" lon="12.9599433"><ele>11.0</ele><time>2026-03-28T14:36:10.153Z</time></trkpt><trkpt lat="45.8555667" lon="12.95989"><ele>11.0</ele><time>2026-03-28T14:36:11.154Z</time></trkpt><trkpt lat="45.8554833" lon="12.9598817"><ele>11.0</ele><time>2026-03-28T14:36:12.153Z</time></trkpt><trkpt lat="45.8554067" lon="12.9599217"><ele>11.0</ele><time>2026-03-28T14:36:13.153Z</time></trkpt><trkpt lat="45.8553533" lon="12.9600117"><ele>11.0</ele><time>2026-03-28T14:36:14.153Z</time></trkpt><trkpt lat="45.8553233" lon="12.9601367"><ele>11.0</ele><time>2026-03-28T14:36:15.153Z</time></trkpt><trkpt lat="45.8553317" lon="12.9602633"><ele>11.200000000000001</ele><time>2026-03-28T14:36:16.153Z</time></trkpt><trkpt lat="45.85537" lon="12.960375"><ele>11.4</ele><time>2026-03-28T14:36:17.153Z</time></trkpt><trkpt lat="45.8554433" lon="12.9604667"><ele>11.6</ele><time>2026-03-28T14:36:18.154Z</time></trkpt><trkpt lat="45.855535" lon="12.960545"><ele>11.8</ele><time>2026-03-28T14:36:19.153Z</time></trkpt><trkpt lat="45.85563" lon="12.9606367"><ele>12.0</ele><time>2026-03-28T14:36:20.153Z</time></trkpt><trkpt lat="45.8557067" lon="12.960775"><ele>11.5</ele><time>2026-03-28T14:36:21.154Z</time></trkpt><trkpt lat="45.855775" lon="12.96094"><ele>11.0</ele><time>2026-03-28T14:36:22.154Z</time></trkpt><trkpt lat="45.8558433" lon="12.961125"><ele>10.5</ele><time>2026-03-28T14:36:23.153Z</time></trkpt><trkpt lat="45.8559117" lon="12.9613183"><ele>10.0</ele><time>2026-03-28T14:36:24.153Z</time></trkpt><trkpt lat="45.8559833" lon="12.9615033"><ele>10.0</ele><time>2026-03-28T14:36:25.154Z</time></trkpt><trkpt lat="45.8560533" lon="12.9616967"><ele>10.0</ele><time>2026-03-28T14:36:26.153Z</time></trkpt><trkpt lat="45.8561283" lon="12.9619033"><ele>10.0</ele><time>2026-03-28T14:36:27.153Z</time></trkpt><trkpt lat="45.8562017" lon="12.9621133"><ele>10.0</ele><time>2026-03-28T14:36:28.153Z</time></trkpt><trkpt lat="45.8562783" lon="12.9623267"><ele>10.0</ele><time>2026-03-28T14:36:29.154Z</time></trkpt><trkpt lat="45.856355" lon="12.96253"><ele>10.0</ele><time>2026-03-28T14:36:30.154Z</time></trkpt><trkpt lat="45.856435" lon="12.9627367"><ele>10.0</ele><time>2026-03-28T14:36:31.153Z</time></trkpt><trkpt lat="45.8565133" lon="12.96295"><ele>10.0</ele><time>2026-03-28T14:36:32.153Z</time></trkpt><trkpt lat="45.85659" lon="12.963165"><ele>10.0</ele><time>2026-03-28T14:36:33.153Z</time></trkpt><trkpt lat="45.8566667" lon="12.963385"><ele>9.666666666666668</ele><time>2026-03-28T14:36:34.153Z</time></trkpt><trkpt lat="45.8567483" lon="12.9636117"><ele>9.333333333333334</ele><time>2026-03-28T14:36:35.154Z</time></trkpt><trkpt lat="45.85683" lon="12.9638433"><ele>9.0</ele><time>2026-03-28T14:36:36.153Z</time></trkpt><trkpt lat="45.8569117" lon="12.9640717"><ele>10.0</ele><time>2026-03-28T14:36:37.153Z</time></trkpt><trkpt lat="45.8569917" lon="12.9642983"><ele>11.0</ele><time>2026-03-28T14:36:38.153Z</time></trkpt><trkpt lat="45.8570717" lon="12.9645217"><ele>12.0</ele><time>2026-03-28T14:36:39.153Z</time></trkpt><trkpt lat="45.857155" lon="12.9647483"><ele>12.0</ele><time>2026-03-28T14:36:40.154Z</time></trkpt><trkpt lat="45.85724" lon="12.9649767"><ele>12.0</ele><time>2026-03-28T14:36:41.153Z</time></trkpt><trkpt lat="45.8573267" lon="12.965205"><ele>12.0</ele><time>2026-03-28T14:36:42.153Z</time></trkpt><trkpt lat="45.85741" lon="12.9654333"><ele>11.5</ele><time>2026-03-28T14:36:43.153Z</time></trkpt><trkpt lat="45.857495" lon="12.9656633"><ele>11.0</ele><time>2026-03-28T14:36:44.154Z</time></trkpt><trkpt lat="45.8576617" lon="12.9661333"><ele>11.0</ele><time>2026-03-28T14:36:46.153Z</time></trkpt><trkpt lat="45.8577433" lon="12.9663667"><ele>11.0</ele><time>2026-03-28T14:36:47.154Z</time></trkpt><trkpt lat="45.85783" lon="12.9666"><ele>11.0</ele><time>2026-03-28T14:36:48.153Z</time></trkpt><trkpt lat="45.857915" lon="12.9668333"><ele>11.0</ele><time>2026-03-28T14:36:49.154Z</time></trkpt><trkpt lat="45.8579983" lon="12.9670717"><ele>11.0</ele><time>2026-03-28T14:36:50.153Z</time></trkpt><trkpt lat="45.8580783" lon="12.9673033"><ele>11.0</ele><time>2026-03-28T14:36:51.153Z</time></trkpt><trkpt lat="45.858165" lon="12.9675383"><ele>11.333333333333332</ele><time>2026-03-28T14:36:52.153Z</time></trkpt><trkpt lat="45.85825" lon="12.967775"><ele>11.666666666666666</ele><time>2026-03-28T14:36:53.153Z</time></trkpt><trkpt lat="45.858335" lon="12.9680083"><ele>12.0</ele><time>2026-03-28T14:36:54.153Z</time></trkpt><trkpt lat="45.858425" lon="12.9682517"><ele>12.333333333333332</ele><time>2026-03-28T14:36:55.153Z</time></trkpt><trkpt lat="45.858515" lon="12.9685033"><ele>12.666666666666666</ele><time>2026-03-28T14:36:56.154Z</time></trkpt><trkpt lat="45.8586067" lon="12.9687567"><ele>13.0</ele><time>2026-03-28T14:36:57.153Z</time></trkpt><trkpt lat="45.8587017" lon="12.9690167"><ele>13.666666666666666</ele><time>2026-03-28T14:36:58.153Z</time></trkpt><trkpt lat="45.858795" lon="12.9692817"><ele>14.333333333333332</ele><time>2026-03-28T14:36:59.154Z</time></trkpt><trkpt lat="45.8588867" lon="12.969545"><ele>15.0</ele><time>2026-03-28T14:37:00.153Z</time></trkpt><trkpt lat="45.8589833" lon="12.9698167"><ele>14.666666666666668</ele><time>2026-03-28T14:37:01.153Z</time></trkpt><trkpt lat="45.85908" lon="12.9700883"><ele>14.333333333333334</ele><time>2026-03-28T14:37:02.154Z</time></trkpt><trkpt lat="45.8591767" lon="12.970355"><ele>14.0</ele><time>2026-03-28T14:37:03.154Z</time></trkpt><trkpt lat="45.8592767" lon="12.9706217"><ele>13.666666666666668</ele><time>2026-03-28T14:37:04.153Z</time></trkpt><trkpt lat="45.8593733" lon="12.9708833"><ele>13.333333333333332</ele><time>2026-03-28T14:37:05.153Z</time></trkpt><trkpt lat="45.859465" lon="12.9711367"><ele>13.0</ele><time>2026-03-28T14:37:06.153Z</time></trkpt><trkpt lat="45.85956" lon="12.9714"><ele>13.0</ele><time>2026-03-28T14:37:07.153Z</time></trkpt><trkpt lat="45.8596533" lon="12.97166"><ele>13.0</ele><time>2026-03-28T14:37:08.153Z</time></trkpt><trkpt lat="45.8597467" lon="12.971925"><ele>13.0</ele><time>2026-03-28T14:37:09.153Z</time></trkpt><trkpt lat="45.8598383" lon="12.972185"><ele>13.0</ele><time>2026-03-28T14:37:10.154Z</time></trkpt><trkpt lat="45.8599333" lon="12.972455"><ele>13.0</ele><time>2026-03-28T14:37:11.153Z</time></trkpt><trkpt lat="45.8600283" lon="12.9727233"><ele>13.0</ele><time>2026-03-28T14:37:12.153Z</time></trkpt><trkpt lat="45.8601267" lon="12.9729967"><ele>12.0</ele><time>2026-03-28T14:37:13.153Z</time></trkpt><trkpt lat="45.8602317" lon="12.9732767"><ele>11.0</ele><time>2026-03-28T14:37:14.153Z</time></trkpt><trkpt lat="45.8603367" lon="12.9735617"><ele>10.0</ele><time>2026-03-28T14:37:15.153Z</time></trkpt><trkpt lat="45.8604417" lon="12.9738433"><ele>10.0</ele><time>2026-03-28T14:37:16.153Z</time></trkpt><trkpt lat="45.8605433" lon="12.9741233"><ele>10.0</ele><time>2026-03-28T14:37:17.153Z</time></trkpt><trkpt lat="45.8606467" lon="12.97441"><ele>10.0</ele><time>2026-03-28T14:37:18.154Z</time></trkpt><trkpt lat="45.8607483" lon="12.9746933"><ele>10.0</ele><time>2026-03-28T14:37:19.153Z</time></trkpt><trkpt lat="45.86085" lon="12.9749767"><ele>10.0</ele><time>2026-03-28T14:37:20.153Z</time></trkpt><trkpt lat="45.8609567" lon="12.975265"><ele>10.0</ele><time>2026-03-28T14:37:21.153Z</time></trkpt><trkpt lat="45.8610633" lon="12.9755517"><ele>10.666666666666668</ele><time>2026-03-28T14:37:22.153Z</time></trkpt><trkpt lat="45.8611617" lon="12.9758317"><ele>11.333333333333334</ele><time>2026-03-28T14:37:23.154Z</time></trkpt><trkpt lat="45.8612617" lon="12.9761067"><ele>12.0</ele><time>2026-03-28T14:37:24.153Z</time></trkpt><trkpt lat="45.861355" lon="12.9763817"><ele>12.333333333333332</ele><time>2026-03-28T14:37:25.153Z</time></trkpt><trkpt lat="45.8614583" lon="12.9766633"><ele>12.666666666666666</ele><time>2026-03-28T14:37:26.153Z</time></trkpt><trkpt lat="45.86156" lon="12.9769433"><ele>13.0</ele><time>2026-03-28T14:37:27.153Z</time></trkpt><trkpt lat="45.8616617" lon="12.9772267"><ele>13.0</ele><time>2026-03-28T14:37:28.154Z</time></trkpt><trkpt lat="45.8617667" lon="12.97751"><ele>13.0</ele><time>2026-03-28T14:37:29.153Z</time></trkpt><trkpt lat="45.86187" lon="12.9777933"><ele>13.0</ele><time>2026-03-28T14:37:30.153Z</time></trkpt><trkpt lat="45.8619717" lon="12.9780767"><ele>13.333333333333332</ele><time>2026-03-28T14:37:31.153Z</time></trkpt><trkpt lat="45.862075" lon="12.9783633"><ele>13.666666666666668</ele><time>2026-03-28T14:37:32.153Z</time></trkpt><trkpt lat="45.862175" lon="12.978645"><ele>14.0</ele><time>2026-03-28T14:37:33.154Z</time></trkpt><trkpt lat="45.8622833" lon="12.9789317"><ele>14.333333333333334</ele><time>2026-03-28T14:37:34.153Z</time></trkpt><trkpt lat="45.8623883" lon="12.9792217"><ele>14.666666666666668</ele><time>2026-03-28T14:37:35.154Z</time></trkpt><trkpt lat="45.8624917" lon="12.9795017"><ele>15.0</ele><time>2026-03-28T14:37:36.153Z</time></trkpt><trkpt lat="45.86259" lon="12.97979"><ele>14.666666666666668</ele><time>2026-03-28T14:37:37.153Z</time></trkpt><trkpt lat="45.8626967" lon="12.980075"><ele>14.333333333333334</ele><time>2026-03-28T14:37:38.154Z</time></trkpt><trkpt lat="45.8628" lon="12.9803583"><ele>14.0</ele><time>2026-03-28T14:37:39.153Z</time></trkpt><trkpt lat="45.862905" lon="12.9806433"><ele>14.333333333333334</ele><time>2026-03-28T14:37:40.153Z</time></trkpt><trkpt lat="45.863005" lon="12.9809267"><ele>14.666666666666668</ele><time>2026-03-28T14:37:41.153Z</time></trkpt><trkpt lat="45.8631017" lon="12.9812067"><ele>15.0</ele><time>2026-03-28T14:37:42.154Z</time></trkpt><trkpt lat="45.8632" lon="12.981485"><ele>15.0</ele><time>2026-03-28T14:37:43.153Z</time></trkpt><trkpt lat="45.8633033" lon="12.9817567"><ele>15.0</ele><time>2026-03-28T14:37:44.153Z</time></trkpt><trkpt lat="45.8633933" lon="12.9820083"><ele>15.0</ele><time>2026-03-28T14:37:45.153Z</time></trkpt><trkpt lat="45.86348" lon="12.98224"><ele>14.666666666666668</ele><time>2026-03-28T14:37:46.153Z</time></trkpt><trkpt lat="45.863565" lon="12.98247"><ele>14.333333333333334</ele><time>2026-03-28T14:37:47.153Z</time></trkpt><trkpt lat="45.86365" lon="12.9826967"><ele>14.0</ele><time>2026-03-28T14:37:48.153Z</time></trkpt><trkpt lat="45.8637283" lon="12.9829217"><ele>14.0</ele><time>2026-03-28T14:37:49.153Z</time></trkpt><trkpt lat="45.8638067" lon="12.9831483"><ele>14.0</ele><time>2026-03-28T14:37:50.153Z</time></trkpt><trkpt lat="45.86389" lon="12.9833733"><ele>14.0</ele><time>2026-03-28T14:37:51.153Z</time></trkpt><trkpt lat="45.8639717" lon="12.98359"><ele>14.0</ele><time>2026-03-28T14:37:52.153Z</time></trkpt><trkpt lat="45.8640533" lon="12.98381"><ele>14.0</ele><time>2026-03-28T14:37:53.153Z</time></trkpt><trkpt lat="45.8641317" lon="12.9840267"><ele>14.0</ele><time>2026-03-28T14:37:54.153Z</time></trkpt><trkpt lat="45.8642083" lon="12.9842433"><ele>13.666666666666668</ele><time>2026-03-28T14:37:55.153Z</time></trkpt><trkpt lat="45.8642883" lon="12.984465"><ele>13.333333333333332</ele><time>2026-03-28T14:37:56.153Z</time></trkpt><trkpt lat="45.86437" lon="12.984685"><ele>13.0</ele><time>2026-03-28T14:37:57.153Z</time></trkpt><trkpt lat="45.86445" lon="12.984895"><ele>13.333333333333332</ele><time>2026-03-28T14:37:58.154Z</time></trkpt><trkpt lat="45.86453" lon="12.9851133"><ele>13.666666666666668</ele><time>2026-03-28T14:37:59.153Z</time></trkpt><trkpt lat="45.864605" lon="12.98533"><ele>14.0</ele><time>2026-03-28T14:38:00.153Z</time></trkpt><trkpt lat="45.86468" lon="12.9855467"><ele>14.0</ele><time>2026-03-28T14:38:01.153Z</time></trkpt><trkpt lat="45.8647583" lon="12.9857617"><ele>14.0</ele><time>2026-03-28T14:38:02.153Z</time></trkpt><trkpt lat="45.8648383" lon="12.98597"><ele>14.0</ele><time>2026-03-28T14:38:03.153Z</time></trkpt><trkpt lat="45.86492" lon="12.9861817"><ele>13.666666666666668</ele><time>2026-03-28T14:38:04.153Z</time></trkpt><trkpt lat="45.865" lon="12.9863917"><ele>13.333333333333332</ele><time>2026-03-28T14:38:05.153Z</time></trkpt><trkpt lat="45.8650783" lon="12.986595"><ele>13.0</ele><time>2026-03-28T14:38:06.154Z</time></trkpt><trkpt lat="45.865155" lon="12.9867883"><ele>12.75</ele><time>2026-03-28T14:38:07.153Z</time></trkpt><trkpt lat="45.865225" lon="12.986975"><ele>12.5</ele><time>2026-03-28T14:38:08.153Z</time></trkpt><trkpt lat="45.8652917" lon="12.9871583"><ele>12.25</ele><time>2026-03-28T14:38:09.153Z</time></trkpt><trkpt lat="45.86536" lon="12.9873433"><ele>12.0</ele><time>2026-03-28T14:38:10.153Z</time></trkpt><trkpt lat="45.8654267" lon="12.9875267"><ele>11.75</ele><time>2026-03-28T14:38:11.153Z</time></trkpt><trkpt lat="45.86549" lon="12.9876933"><ele>11.5</ele><time>2026-03-28T14:38:12.153Z</time></trkpt><trkpt lat="45.8655533" lon="12.9878433"><ele>11.25</ele><time>2026-03-28T14:38:13.153Z</time></trkpt><trkpt lat="45.86561" lon="12.987985"><ele>11.0</ele><time>2026-03-28T14:38:14.154Z</time></trkpt><trkpt lat="45.8656617" lon="12.9881133"><ele>11.0</ele><time>2026-03-28T14:38:15.153Z</time></trkpt><trkpt lat="45.8656933" lon="12.988215"><ele>11.0</ele><time>2026-03-28T14:38:16.153Z</time></trkpt><trkpt lat="45.8657067" lon="12.9883633"><ele>11.0</ele><time>2026-03-28T14:38:18.153Z</time></trkpt><trkpt lat="45.8656833" lon="12.98846"><ele>11.0</ele><time>2026-03-28T14:38:20.153Z</time></trkpt><trkpt lat="45.865625" lon="12.9885417"><ele>11.0</ele><time>2026-03-28T14:38:36.153Z</time></trkpt><trkpt lat="45.8655667" lon="12.9886283"><ele>11.0</ele><time>2026-03-28T14:38:39.153Z</time></trkpt><trkpt lat="45.86563" lon="12.9887483"><ele>11.0</ele><time>2026-03-28T14:38:42.154Z</time></trkpt><trkpt lat="45.8657067" lon="12.9887733"><ele>11.0</ele><time>2026-03-28T14:38:43.153Z</time></trkpt><trkpt lat="45.8658" lon="12.98879"><ele>11.0</ele><time>2026-03-28T14:38:44.153Z</time></trkpt><trkpt lat="45.8658933" lon="12.9888267"><ele>11.0</ele><time>2026-03-28T14:38:45.153Z</time></trkpt><trkpt lat="45.8659717" lon="12.9888783"><ele>11.0</ele><time>2026-03-28T14:38:46.153Z</time></trkpt><trkpt lat="45.8660367" lon="12.988955"><ele>11.0</ele><time>2026-03-28T14:38:47.153Z</time></trkpt><trkpt lat="45.8660983" lon="12.9890567"><ele>10.75</ele><time>2026-03-28T14:38:48.154Z</time></trkpt><trkpt lat="45.86617" lon="12.9891867"><ele>10.5</ele><time>2026-03-28T14:38:49.154Z</time></trkpt><trkpt lat="45.8662483" lon="12.9893333"><ele>10.25</ele><time>2026-03-28T14:38:50.153Z</time></trkpt><trkpt lat="45.86633" lon="12.9894917"><ele>10.0</ele><time>2026-03-28T14:38:51.153Z</time></trkpt><trkpt lat="45.8664067" lon="12.9896483"><ele>10.0</ele><time>2026-03-28T14:38:52.153Z</time></trkpt><trkpt lat="45.86649" lon="12.9898067"><ele>10.0</ele><time>2026-03-28T14:38:53.153Z</time></trkpt><trkpt lat="45.8665733" lon="12.9899617"><ele>10.0</ele><time>2026-03-28T14:38:54.153Z</time></trkpt><trkpt lat="45.8666533" lon="12.99012"><ele>10.0</ele><time>2026-03-28T14:38:55.153Z</time></trkpt><trkpt lat="45.86673" lon="12.9902717"><ele>10.333333333333334</ele><time>2026-03-28T14:38:56.153Z</time></trkpt><trkpt lat="45.86681" lon="12.9904317"><ele>10.666666666666666</ele><time>2026-03-28T14:38:57.153Z</time></trkpt><trkpt lat="45.8669033" lon="12.99061"><ele>11.0</ele><time>2026-03-28T14:38:58.153Z</time></trkpt><trkpt lat="45.8670083" lon="12.9908133"><ele>11.333333333333332</ele><time>2026-03-28T14:38:59.154Z</time></trkpt><trkpt lat="45.8671183" lon="12.99102"><ele>11.666666666666666</ele><time>2026-03-28T14:39:00.153Z</time></trkpt><trkpt lat="45.8672233" lon="12.99122"><ele>12.0</ele><time>2026-03-28T14:39:01.153Z</time></trkpt><trkpt lat="45.8673283" lon="12.9914183"><ele>12.0</ele><time>2026-03-28T14:39:02.153Z</time></trkpt><trkpt lat="45.8674367" lon="12.991615"><ele>12.0</ele><time>2026-03-28T14:39:03.153Z</time></trkpt><trkpt lat="45.8675483" lon="12.99181"><ele>12.0</ele><time>2026-03-28T14:39:04.154Z</time></trkpt><trkpt lat="45.8676517" lon="12.992005"><ele>12.0</ele><time>2026-03-28T14:39:05.153Z</time></trkpt><trkpt lat="45.8677633" lon="12.992205"><ele>12.0</ele><time>2026-03-28T14:39:06.153Z</time></trkpt><trkpt lat="45.8678783" lon="12.992405"><ele>12.0</ele><time>2026-03-28T14:39:07.153Z</time></trkpt><trkpt lat="45.8679967" lon="12.9925983"><ele>12.0</ele><time>2026-03-28T14:39:08.153Z</time></trkpt><trkpt lat="45.86812" lon="12.9927983"><ele>12.0</ele><time>2026-03-28T14:39:09.153Z</time></trkpt><trkpt lat="45.8682483" lon="12.9930133"><ele>12.0</ele><time>2026-03-28T14:39:10.153Z</time></trkpt><trkpt lat="45.86839" lon="12.9932317"><ele>12.0</ele><time>2026-03-28T14:39:11.153Z</time></trkpt><trkpt lat="45.8685317" lon="12.9934617"><ele>12.0</ele><time>2026-03-28T14:39:12.153Z</time></trkpt><trkpt lat="45.8686783" lon="12.9936933"><ele>12.0</ele><time>2026-03-28T14:39:13.154Z</time></trkpt><trkpt lat="45.868825" lon="12.9939233"><ele>12.0</ele><time>2026-03-28T14:39:14.154Z</time></trkpt><trkpt lat="45.86897" lon="12.9941483"><ele>12.0</ele><time>2026-03-28T14:39:15.153Z</time></trkpt><trkpt lat="45.8691167" lon="12.994375"><ele>12.0</ele><time>2026-03-28T14:39:16.153Z</time></trkpt><trkpt lat="45.8692633" lon="12.9946"><ele>12.0</ele><time>2026-03-28T14:39:17.153Z</time></trkpt><trkpt lat="45.869415" lon="12.9948267"><ele>12.0</ele><time>2026-03-28T14:39:18.153Z</time></trkpt><trkpt lat="45.86957" lon="12.9950533"><ele>12.0</ele><time>2026-03-28T14:39:19.153Z</time></trkpt><trkpt lat="45.8697333" lon="12.9952767"><ele>12.0</ele><time>2026-03-28T14:39:20.154Z</time></trkpt><trkpt lat="45.8698983" lon="12.9954983"><ele>12.0</ele><time>2026-03-28T14:39:21.153Z</time></trkpt><trkpt lat="45.8700583" lon="12.995715"><ele>12.0</ele><time>2026-03-28T14:39:22.154Z</time></trkpt><trkpt lat="45.870365" lon="12.9961083"><ele>12.0</ele><time>2026-03-28T14:39:24.153Z</time></trkpt><trkpt lat="45.8704967" lon="12.99628"><ele>12.0</ele><time>2026-03-28T14:39:25.153Z</time></trkpt><trkpt lat="45.870625" lon="12.9964367"><ele>12.0</ele><time>2026-03-28T14:39:26.154Z</time></trkpt><trkpt lat="45.870745" lon="12.9965917"><ele>12.0</ele><time>2026-03-28T14:39:27.153Z</time></trkpt><trkpt lat="45.8708667" lon="12.9967433"><ele>12.0</ele><time>2026-03-28T14:39:28.153Z</time></trkpt><trkpt lat="45.87099" lon="12.9968983"><ele>12.0</ele><time>2026-03-28T14:39:29.154Z</time></trkpt><trkpt lat="45.8711133" lon="12.9970467"><ele>12.0</ele><time>2026-03-28T14:39:30.153Z</time></trkpt><trkpt lat="45.8712383" lon="12.9972"><ele>12.0</ele><time>2026-03-28T14:39:31.153Z</time></trkpt><trkpt lat="45.8713683" lon="12.9973567"><ele>12.0</ele><time>2026-03-28T14:39:32.154Z</time></trkpt><trkpt lat="45.8715" lon="12.9975183"><ele>12.0</ele><time>2026-03-28T14:39:33.153Z</time></trkpt><trkpt lat="45.871635" lon="12.99768"><ele>12.0</ele><time>2026-03-28T14:39:34.154Z</time></trkpt><trkpt lat="45.8717733" lon="12.9978417"><ele>12.0</ele><time>2026-03-28T14:39:35.153Z</time></trkpt><trkpt lat="45.871915" lon="12.9980117"><ele>12.0</ele><time>2026-03-28T14:39:36.154Z</time></trkpt><trkpt lat="45.872055" lon="12.9981733"><ele>12.0</ele><time>2026-03-28T14:39:37.154Z</time></trkpt><trkpt lat="45.87218" lon="12.9983217"><ele>12.0</ele><time>2026-03-28T14:39:38.153Z</time></trkpt><trkpt lat="45.8722917" lon="12.9984517"><ele>12.0</ele><time>2026-03-28T14:39:39.153Z</time></trkpt><trkpt lat="45.8723967" lon="12.9985733"><ele>12.0</ele><time>2026-03-28T14:39:40.153Z</time></trkpt><trkpt lat="45.8724917" lon="12.9986917"><ele>12.0</ele><time>2026-03-28T14:39:41.153Z</time></trkpt><trkpt lat="45.872595" lon="12.998805"><ele>12.0</ele><time>2026-03-28T14:39:42.153Z</time></trkpt><trkpt lat="45.8726983" lon="12.9989233"><ele>12.0</ele><time>2026-03-28T14:39:43.154Z</time></trkpt><trkpt lat="45.8727833" lon="12.99903"><ele>12.0</ele><time>2026-03-28T14:39:44.154Z</time></trkpt><trkpt lat="45.87286" lon="12.999125"><ele>12.0</ele><time>2026-03-28T14:39:45.153Z</time></trkpt><trkpt lat="45.8729317" lon="12.9992117"><ele>12.0</ele><time>2026-03-28T14:39:46.153Z</time></trkpt><trkpt lat="45.873" lon="12.9992917"><ele>12.0</ele><time>2026-03-28T14:39:47.153Z</time></trkpt><trkpt lat="45.8730617" lon="12.999365"><ele>13.0</ele><time>2026-03-28T14:39:48.153Z</time></trkpt><trkpt lat="45.8731217" lon="12.9994217"><ele>13.0</ele><time>2026-03-28T14:39:49.154Z</time></trkpt><trkpt lat="45.8731867" lon="12.9994717"><ele>13.0</ele><time>2026-03-28T14:39:50.153Z</time></trkpt><trkpt lat="45.87329" lon="12.9995267"><ele>13.0</ele><time>2026-03-28T14:39:52.153Z</time></trkpt><trkpt lat="45.87337" lon="12.9995333"><ele>13.0</ele><time>2026-03-28T14:39:54.153Z</time></trkpt></trkseg></trk></gpx>